<?xml version="1.0" encoding="UTF-8" standalone="no" ?>
<gpx xmlns="http://www.topografix.com/GPX/1/1" xmlns:xsi="http://www.w3.org/2001/XMLSchema-instance" xsi:schemaLocation="http://www.topografix.com/GPX/1/1 http://www.topografix.com/GPX/1/1/gpx.xsd" version="1.1" creator="VisuGPX - https://www.visugpx.com">
  <metadata>
    <name>Rando Aveyron Lot</name>
    <desc><![CDATA[effectuée du 16 au 23 septembre 2017]]></desc>
  </metadata>
  <trk>
    <name><![CDATA[20170926212400-kiuGb]]></name>
    <trkseg>
      <trkpt lat="44.38324" lon="2.48417">
        <ele>577</ele>
        <time>2017-09-16T08:32:29Z</time>
      </trkpt>
      <trkpt lat="44.38325" lon="2.48417">
        <ele>577</ele>
        <time>2017-09-16T08:32:30Z</time>
      </trkpt>
      <trkpt lat="44.38336" lon="2.48414">
        <ele>576</ele>
        <time>2017-09-16T08:32:38Z</time>
      </trkpt>
      <trkpt lat="44.38343" lon="2.48412">
        <ele>575</ele>
        <time>2017-09-16T08:32:45Z</time>
      </trkpt>
      <trkpt lat="44.3837" lon="2.48406">
        <ele>574</ele>
        <time>2017-09-16T08:33:07Z</time>
      </trkpt>
      <trkpt lat="44.38373" lon="2.48407">
        <ele>574</ele>
        <time>2017-09-16T08:33:15Z</time>
      </trkpt>
      <trkpt lat="44.38374" lon="2.4841">
        <ele>574</ele>
        <time>2017-09-16T08:35:04Z</time>
      </trkpt>
      <trkpt lat="44.38376" lon="2.48407">
        <ele>574</ele>
        <time>2017-09-16T08:35:32Z</time>
      </trkpt>
      <trkpt lat="44.38378" lon="2.48405">
        <ele>574</ele>
        <time>2017-09-16T08:35:35Z</time>
      </trkpt>
      <trkpt lat="44.3838" lon="2.48403">
        <ele>574</ele>
        <time>2017-09-16T08:35:39Z</time>
      </trkpt>
      <trkpt lat="44.38386" lon="2.48402">
        <ele>574</ele>
        <time>2017-09-16T08:35:45Z</time>
      </trkpt>
      <trkpt lat="44.38397" lon="2.48398">
        <ele>573</ele>
        <time>2017-09-16T08:35:53Z</time>
      </trkpt>
      <trkpt lat="44.38411" lon="2.48396">
        <ele>573</ele>
        <time>2017-09-16T08:36:03Z</time>
      </trkpt>
      <trkpt lat="44.38417" lon="2.48394">
        <ele>572</ele>
        <time>2017-09-16T08:36:07Z</time>
      </trkpt>
      <trkpt lat="44.38423" lon="2.48392">
        <ele>572</ele>
        <time>2017-09-16T08:36:13Z</time>
      </trkpt>
      <trkpt lat="44.38433" lon="2.48388">
        <ele>572</ele>
        <time>2017-09-16T08:36:19Z</time>
      </trkpt>
      <trkpt lat="44.38459" lon="2.48382">
        <ele>572</ele>
        <time>2017-09-16T08:36:38Z</time>
      </trkpt>
      <trkpt lat="44.38466" lon="2.48379">
        <ele>572</ele>
        <time>2017-09-16T08:36:44Z</time>
      </trkpt>
      <trkpt lat="44.3847" lon="2.48377">
        <ele>572</ele>
        <time>2017-09-16T08:36:47Z</time>
      </trkpt>
      <trkpt lat="44.38504" lon="2.48363">
        <ele>572</ele>
        <time>2017-09-16T08:37:12Z</time>
      </trkpt>
      <trkpt lat="44.38503" lon="2.48362">
        <ele>572</ele>
        <time>2017-09-16T08:37:18Z</time>
      </trkpt>
      <trkpt lat="44.38501" lon="2.48363">
        <ele>572</ele>
        <time>2017-09-16T08:37:21Z</time>
      </trkpt>
      <trkpt lat="44.385" lon="2.48361">
        <ele>572</ele>
        <time>2017-09-16T08:43:05Z</time>
      </trkpt>
      <trkpt lat="44.385" lon="2.48361">
        <ele>571</ele>
        <time>2017-09-16T08:43:05Z</time>
      </trkpt>
      <trkpt lat="44.38503" lon="2.4836">
        <ele>571</ele>
        <time>2017-09-16T08:43:12Z</time>
      </trkpt>
      <trkpt lat="44.38506" lon="2.4836">
        <ele>571</ele>
        <time>2017-09-16T08:43:15Z</time>
      </trkpt>
      <trkpt lat="44.38517" lon="2.48357">
        <ele>572</ele>
        <time>2017-09-16T08:43:27Z</time>
      </trkpt>
      <trkpt lat="44.38531" lon="2.48353">
        <ele>572</ele>
        <time>2017-09-16T08:43:37Z</time>
      </trkpt>
      <trkpt lat="44.38537" lon="2.4835">
        <ele>572</ele>
        <time>2017-09-16T08:43:42Z</time>
      </trkpt>
      <trkpt lat="44.3854" lon="2.48348">
        <ele>572</ele>
        <time>2017-09-16T08:43:45Z</time>
      </trkpt>
      <trkpt lat="44.38542" lon="2.48346">
        <ele>572</ele>
        <time>2017-09-16T08:43:49Z</time>
      </trkpt>
      <trkpt lat="44.38575" lon="2.48335">
        <ele>571</ele>
        <time>2017-09-16T08:44:18Z</time>
      </trkpt>
      <trkpt lat="44.38617" lon="2.48309">
        <ele>571</ele>
        <time>2017-09-16T08:44:50Z</time>
      </trkpt>
      <trkpt lat="44.3862" lon="2.48306">
        <ele>571</ele>
        <time>2017-09-16T08:44:53Z</time>
      </trkpt>
      <trkpt lat="44.38638" lon="2.48292">
        <ele>571</ele>
        <time>2017-09-16T08:45:08Z</time>
      </trkpt>
      <trkpt lat="44.38664" lon="2.48276">
        <ele>571</ele>
        <time>2017-09-16T08:45:29Z</time>
      </trkpt>
      <trkpt lat="44.38667" lon="2.48273">
        <ele>570</ele>
        <time>2017-09-16T08:45:32Z</time>
      </trkpt>
      <trkpt lat="44.38688" lon="2.48261">
        <ele>570</ele>
        <time>2017-09-16T08:45:51Z</time>
      </trkpt>
      <trkpt lat="44.38697" lon="2.48254">
        <ele>570</ele>
        <time>2017-09-16T08:45:59Z</time>
      </trkpt>
      <trkpt lat="44.3873" lon="2.48235">
        <ele>568</ele>
        <time>2017-09-16T08:46:26Z</time>
      </trkpt>
      <trkpt lat="44.38739" lon="2.48234">
        <ele>568</ele>
        <time>2017-09-16T08:46:34Z</time>
      </trkpt>
      <trkpt lat="44.38742" lon="2.48233">
        <ele>568</ele>
        <time>2017-09-16T08:46:38Z</time>
      </trkpt>
      <trkpt lat="44.38748" lon="2.4823">
        <ele>568</ele>
        <time>2017-09-16T08:46:48Z</time>
      </trkpt>
      <trkpt lat="44.38754" lon="2.48222">
        <ele>567</ele>
        <time>2017-09-16T08:46:54Z</time>
      </trkpt>
      <trkpt lat="44.3876" lon="2.48196">
        <ele>567</ele>
        <time>2017-09-16T08:47:09Z</time>
      </trkpt>
      <trkpt lat="44.38761" lon="2.48191">
        <ele>567</ele>
        <time>2017-09-16T08:47:12Z</time>
      </trkpt>
      <trkpt lat="44.38763" lon="2.48187">
        <ele>567</ele>
        <time>2017-09-16T08:47:15Z</time>
      </trkpt>
      <trkpt lat="44.38764" lon="2.48167">
        <ele>567</ele>
        <time>2017-09-16T08:47:25Z</time>
      </trkpt>
      <trkpt lat="44.38765" lon="2.48162">
        <ele>567</ele>
        <time>2017-09-16T08:47:28Z</time>
      </trkpt>
      <trkpt lat="44.38764" lon="2.48112">
        <ele>567</ele>
        <time>2017-09-16T08:47:53Z</time>
      </trkpt>
      <trkpt lat="44.38764" lon="2.48071">
        <ele>568</ele>
        <time>2017-09-16T08:48:13Z</time>
      </trkpt>
      <trkpt lat="44.38765" lon="2.48063">
        <ele>568</ele>
        <time>2017-09-16T08:48:17Z</time>
      </trkpt>
      <trkpt lat="44.38764" lon="2.48048">
        <ele>567</ele>
        <time>2017-09-16T08:48:25Z</time>
      </trkpt>
      <trkpt lat="44.38764" lon="2.48044">
        <ele>567</ele>
        <time>2017-09-16T08:48:27Z</time>
      </trkpt>
      <trkpt lat="44.38762" lon="2.47989">
        <ele>567</ele>
        <time>2017-09-16T08:48:57Z</time>
      </trkpt>
      <trkpt lat="44.3876" lon="2.47971">
        <ele>568</ele>
        <time>2017-09-16T08:49:08Z</time>
      </trkpt>
      <trkpt lat="44.38759" lon="2.47963">
        <ele>568</ele>
        <time>2017-09-16T08:49:12Z</time>
      </trkpt>
      <trkpt lat="44.38758" lon="2.47959">
        <ele>568</ele>
        <time>2017-09-16T08:49:14Z</time>
      </trkpt>
      <trkpt lat="44.38757" lon="2.47953">
        <ele>568</ele>
        <time>2017-09-16T08:49:18Z</time>
      </trkpt>
      <trkpt lat="44.38756" lon="2.4795">
        <ele>568</ele>
        <time>2017-09-16T08:49:20Z</time>
      </trkpt>
      <trkpt lat="44.38756" lon="2.47947">
        <ele>568</ele>
        <time>2017-09-16T08:49:22Z</time>
      </trkpt>
      <trkpt lat="44.38752" lon="2.47933">
        <ele>568</ele>
        <time>2017-09-16T08:49:31Z</time>
      </trkpt>
      <trkpt lat="44.38744" lon="2.47882">
        <ele>569</ele>
        <time>2017-09-16T08:50:01Z</time>
      </trkpt>
      <trkpt lat="44.38733" lon="2.47834">
        <ele>570</ele>
        <time>2017-09-16T08:50:31Z</time>
      </trkpt>
      <trkpt lat="44.38719" lon="2.47783">
        <ele>570</ele>
        <time>2017-09-16T08:51:02Z</time>
      </trkpt>
      <trkpt lat="44.38718" lon="2.4778">
        <ele>570</ele>
        <time>2017-09-16T08:51:04Z</time>
      </trkpt>
      <trkpt lat="44.38717" lon="2.47778">
        <ele>570</ele>
        <time>2017-09-16T08:51:05Z</time>
      </trkpt>
      <trkpt lat="44.38702" lon="2.47729">
        <ele>570</ele>
        <time>2017-09-16T08:51:35Z</time>
      </trkpt>
      <trkpt lat="44.38687" lon="2.47678">
        <ele>570</ele>
        <time>2017-09-16T08:52:06Z</time>
      </trkpt>
      <trkpt lat="44.38684" lon="2.47666">
        <ele>570</ele>
        <time>2017-09-16T08:52:13Z</time>
      </trkpt>
      <trkpt lat="44.38683" lon="2.47659">
        <ele>570</ele>
        <time>2017-09-16T08:52:18Z</time>
      </trkpt>
      <trkpt lat="44.38683" lon="2.47655">
        <ele>570</ele>
        <time>2017-09-16T08:52:20Z</time>
      </trkpt>
      <trkpt lat="44.38683" lon="2.47647">
        <ele>570</ele>
        <time>2017-09-16T08:52:24Z</time>
      </trkpt>
      <trkpt lat="44.38681" lon="2.47643">
        <ele>570</ele>
        <time>2017-09-16T08:52:27Z</time>
      </trkpt>
      <trkpt lat="44.3868" lon="2.47639">
        <ele>570</ele>
        <time>2017-09-16T08:52:29Z</time>
      </trkpt>
      <trkpt lat="44.38678" lon="2.47634">
        <ele>570</ele>
        <time>2017-09-16T08:52:33Z</time>
      </trkpt>
      <trkpt lat="44.38674" lon="2.47612">
        <ele>570</ele>
        <time>2017-09-16T08:52:46Z</time>
      </trkpt>
      <trkpt lat="44.38673" lon="2.47608">
        <ele>570</ele>
        <time>2017-09-16T08:52:48Z</time>
      </trkpt>
      <trkpt lat="44.38673" lon="2.47601">
        <ele>569</ele>
        <time>2017-09-16T08:52:52Z</time>
      </trkpt>
      <trkpt lat="44.38672" lon="2.47598">
        <ele>569</ele>
        <time>2017-09-16T08:52:59Z</time>
      </trkpt>
      <trkpt lat="44.38671" lon="2.47594">
        <ele>569</ele>
        <time>2017-09-16T08:55:58Z</time>
      </trkpt>
      <trkpt lat="44.38671" lon="2.47591">
        <ele>569</ele>
        <time>2017-09-16T08:56:06Z</time>
      </trkpt>
      <trkpt lat="44.3867" lon="2.47577">
        <ele>569</ele>
        <time>2017-09-16T08:56:19Z</time>
      </trkpt>
      <trkpt lat="44.38666" lon="2.47562">
        <ele>569</ele>
        <time>2017-09-16T08:56:32Z</time>
      </trkpt>
      <trkpt lat="44.38664" lon="2.47559">
        <ele>569</ele>
        <time>2017-09-16T08:56:34Z</time>
      </trkpt>
      <trkpt lat="44.38651" lon="2.47524">
        <ele>569</ele>
        <time>2017-09-16T08:56:58Z</time>
      </trkpt>
      <trkpt lat="44.38648" lon="2.47519">
        <ele>569</ele>
        <time>2017-09-16T08:57:02Z</time>
      </trkpt>
      <trkpt lat="44.38644" lon="2.47505">
        <ele>569</ele>
        <time>2017-09-16T08:57:12Z</time>
      </trkpt>
      <trkpt lat="44.38641" lon="2.47486">
        <ele>570</ele>
        <time>2017-09-16T08:57:26Z</time>
      </trkpt>
      <trkpt lat="44.3864" lon="2.4748">
        <ele>570</ele>
        <time>2017-09-16T08:57:30Z</time>
      </trkpt>
      <trkpt lat="44.3864" lon="2.47474">
        <ele>570</ele>
        <time>2017-09-16T08:57:34Z</time>
      </trkpt>
      <trkpt lat="44.38641" lon="2.47468">
        <ele>570</ele>
        <time>2017-09-16T08:57:37Z</time>
      </trkpt>
      <trkpt lat="44.38638" lon="2.47455">
        <ele>570</ele>
        <time>2017-09-16T08:57:44Z</time>
      </trkpt>
      <trkpt lat="44.38638" lon="2.47443">
        <ele>570</ele>
        <time>2017-09-16T08:57:52Z</time>
      </trkpt>
      <trkpt lat="44.38635" lon="2.47419">
        <ele>571</ele>
        <time>2017-09-16T08:58:05Z</time>
      </trkpt>
      <trkpt lat="44.38632" lon="2.47406">
        <ele>571</ele>
        <time>2017-09-16T08:58:13Z</time>
      </trkpt>
      <trkpt lat="44.38624" lon="2.47371">
        <ele>571</ele>
        <time>2017-09-16T08:58:33Z</time>
      </trkpt>
      <trkpt lat="44.3862" lon="2.47348">
        <ele>571</ele>
        <time>2017-09-16T08:58:45Z</time>
      </trkpt>
      <trkpt lat="44.38619" lon="2.47342">
        <ele>571</ele>
        <time>2017-09-16T08:58:49Z</time>
      </trkpt>
      <trkpt lat="44.38618" lon="2.47335">
        <ele>571</ele>
        <time>2017-09-16T08:58:53Z</time>
      </trkpt>
      <trkpt lat="44.38617" lon="2.47329">
        <ele>572</ele>
        <time>2017-09-16T08:58:57Z</time>
      </trkpt>
      <trkpt lat="44.38616" lon="2.47322">
        <ele>572</ele>
        <time>2017-09-16T08:59:01Z</time>
      </trkpt>
      <trkpt lat="44.38616" lon="2.47315">
        <ele>572</ele>
        <time>2017-09-16T08:59:06Z</time>
      </trkpt>
      <trkpt lat="44.38616" lon="2.47308">
        <ele>572</ele>
        <time>2017-09-16T08:59:10Z</time>
      </trkpt>
      <trkpt lat="44.38614" lon="2.47302">
        <ele>572</ele>
        <time>2017-09-16T08:59:12Z</time>
      </trkpt>
      <trkpt lat="44.38613" lon="2.47297">
        <ele>572</ele>
        <time>2017-09-16T08:59:15Z</time>
      </trkpt>
      <trkpt lat="44.38606" lon="2.47238">
        <ele>574</ele>
        <time>2017-09-16T08:59:46Z</time>
      </trkpt>
      <trkpt lat="44.38594" lon="2.47176">
        <ele>574</ele>
        <time>2017-09-16T09:00:18Z</time>
      </trkpt>
      <trkpt lat="44.38594" lon="2.4717">
        <ele>574</ele>
        <time>2017-09-16T09:00:21Z</time>
      </trkpt>
      <trkpt lat="44.38591" lon="2.47159">
        <ele>574</ele>
        <time>2017-09-16T09:00:28Z</time>
      </trkpt>
      <trkpt lat="44.38584" lon="2.47107">
        <ele>574</ele>
        <time>2017-09-16T09:00:59Z</time>
      </trkpt>
      <trkpt lat="44.38576" lon="2.47059">
        <ele>576</ele>
        <time>2017-09-16T09:01:25Z</time>
      </trkpt>
      <trkpt lat="44.38569" lon="2.47035">
        <ele>576</ele>
        <time>2017-09-16T09:01:37Z</time>
      </trkpt>
      <trkpt lat="44.38566" lon="2.47016">
        <ele>576</ele>
        <time>2017-09-16T09:01:47Z</time>
      </trkpt>
      <trkpt lat="44.38564" lon="2.4701">
        <ele>576</ele>
        <time>2017-09-16T09:01:50Z</time>
      </trkpt>
      <trkpt lat="44.38559" lon="2.46967">
        <ele>577</ele>
        <time>2017-09-16T09:02:16Z</time>
      </trkpt>
      <trkpt lat="44.38559" lon="2.46962">
        <ele>577</ele>
        <time>2017-09-16T09:02:19Z</time>
      </trkpt>
      <trkpt lat="44.38558" lon="2.46953">
        <ele>577</ele>
        <time>2017-09-16T09:02:32Z</time>
      </trkpt>
      <trkpt lat="44.38555" lon="2.46928">
        <ele>577</ele>
        <time>2017-09-16T09:02:52Z</time>
      </trkpt>
      <trkpt lat="44.38554" lon="2.46921">
        <ele>577</ele>
        <time>2017-09-16T09:02:58Z</time>
      </trkpt>
      <trkpt lat="44.38551" lon="2.46908">
        <ele>577</ele>
        <time>2017-09-16T09:03:07Z</time>
      </trkpt>
      <trkpt lat="44.3855" lon="2.46903">
        <ele>577</ele>
        <time>2017-09-16T09:03:10Z</time>
      </trkpt>
      <trkpt lat="44.38548" lon="2.46897">
        <ele>577</ele>
        <time>2017-09-16T09:03:14Z</time>
      </trkpt>
      <trkpt lat="44.38546" lon="2.46878">
        <ele>577</ele>
        <time>2017-09-16T09:03:23Z</time>
      </trkpt>
      <trkpt lat="44.38532" lon="2.46812">
        <ele>575</ele>
        <time>2017-09-16T09:03:54Z</time>
      </trkpt>
      <trkpt lat="44.38531" lon="2.46803">
        <ele>575</ele>
        <time>2017-09-16T09:03:58Z</time>
      </trkpt>
      <trkpt lat="44.38526" lon="2.46782">
        <ele>575</ele>
        <time>2017-09-16T09:04:09Z</time>
      </trkpt>
      <trkpt lat="44.38519" lon="2.46748">
        <ele>574</ele>
        <time>2017-09-16T09:04:26Z</time>
      </trkpt>
      <trkpt lat="44.38517" lon="2.46738">
        <ele>574</ele>
        <time>2017-09-16T09:04:32Z</time>
      </trkpt>
      <trkpt lat="44.38505" lon="2.46683">
        <ele>573</ele>
        <time>2017-09-16T09:05:03Z</time>
      </trkpt>
      <trkpt lat="44.38502" lon="2.46662">
        <ele>573</ele>
        <time>2017-09-16T09:05:15Z</time>
      </trkpt>
      <trkpt lat="44.38501" lon="2.46655">
        <ele>573</ele>
        <time>2017-09-16T09:05:18Z</time>
      </trkpt>
      <trkpt lat="44.385" lon="2.46643">
        <ele>574</ele>
        <time>2017-09-16T09:05:24Z</time>
      </trkpt>
      <trkpt lat="44.38498" lon="2.46638">
        <ele>574</ele>
        <time>2017-09-16T09:05:27Z</time>
      </trkpt>
      <trkpt lat="44.38493" lon="2.46614">
        <ele>573</ele>
        <time>2017-09-16T09:05:41Z</time>
      </trkpt>
      <trkpt lat="44.38492" lon="2.4661">
        <ele>573</ele>
        <time>2017-09-16T09:05:45Z</time>
      </trkpt>
      <trkpt lat="44.38484" lon="2.46569">
        <ele>573</ele>
        <time>2017-09-16T09:06:11Z</time>
      </trkpt>
      <trkpt lat="44.38483" lon="2.46559">
        <ele>573</ele>
        <time>2017-09-16T09:06:17Z</time>
      </trkpt>
      <trkpt lat="44.38469" lon="2.46503">
        <ele>573</ele>
        <time>2017-09-16T09:06:48Z</time>
      </trkpt>
      <trkpt lat="44.38467" lon="2.46486">
        <ele>573</ele>
        <time>2017-09-16T09:06:57Z</time>
      </trkpt>
      <trkpt lat="44.38457" lon="2.46425">
        <ele>573</ele>
        <time>2017-09-16T09:07:29Z</time>
      </trkpt>
      <trkpt lat="44.38456" lon="2.4642">
        <ele>573</ele>
        <time>2017-09-16T09:07:32Z</time>
      </trkpt>
      <trkpt lat="44.38455" lon="2.46415">
        <ele>573</ele>
        <time>2017-09-16T09:07:35Z</time>
      </trkpt>
      <trkpt lat="44.38454" lon="2.46409">
        <ele>573</ele>
        <time>2017-09-16T09:07:38Z</time>
      </trkpt>
      <trkpt lat="44.38453" lon="2.46396">
        <ele>573</ele>
        <time>2017-09-16T09:07:46Z</time>
      </trkpt>
      <trkpt lat="44.38446" lon="2.46354">
        <ele>572</ele>
        <time>2017-09-16T09:08:10Z</time>
      </trkpt>
      <trkpt lat="44.38446" lon="2.46348">
        <ele>572</ele>
        <time>2017-09-16T09:08:13Z</time>
      </trkpt>
      <trkpt lat="44.38441" lon="2.46324">
        <ele>572</ele>
        <time>2017-09-16T09:08:27Z</time>
      </trkpt>
      <trkpt lat="44.3843" lon="2.4629">
        <ele>572</ele>
        <time>2017-09-16T09:08:50Z</time>
      </trkpt>
      <trkpt lat="44.38429" lon="2.46284">
        <ele>572</ele>
        <time>2017-09-16T09:08:54Z</time>
      </trkpt>
      <trkpt lat="44.38429" lon="2.46278">
        <ele>572</ele>
        <time>2017-09-16T09:08:58Z</time>
      </trkpt>
      <trkpt lat="44.38412" lon="2.46225">
        <ele>572</ele>
        <time>2017-09-16T09:09:28Z</time>
      </trkpt>
      <trkpt lat="44.38411" lon="2.4622">
        <ele>571</ele>
        <time>2017-09-16T09:09:31Z</time>
      </trkpt>
      <trkpt lat="44.38407" lon="2.46209">
        <ele>571</ele>
        <time>2017-09-16T09:09:37Z</time>
      </trkpt>
      <trkpt lat="44.38402" lon="2.46193">
        <ele>571</ele>
        <time>2017-09-16T09:09:46Z</time>
      </trkpt>
      <trkpt lat="44.38401" lon="2.46187">
        <ele>571</ele>
        <time>2017-09-16T09:09:49Z</time>
      </trkpt>
      <trkpt lat="44.38385" lon="2.46133">
        <ele>571</ele>
        <time>2017-09-16T09:10:20Z</time>
      </trkpt>
      <trkpt lat="44.38373" lon="2.4608">
        <ele>572</ele>
        <time>2017-09-16T09:10:50Z</time>
      </trkpt>
      <trkpt lat="44.3837" lon="2.46071">
        <ele>572</ele>
        <time>2017-09-16T09:10:55Z</time>
      </trkpt>
      <trkpt lat="44.38368" lon="2.46055">
        <ele>572</ele>
        <time>2017-09-16T09:11:06Z</time>
      </trkpt>
      <trkpt lat="44.38366" lon="2.46044">
        <ele>572</ele>
        <time>2017-09-16T09:11:12Z</time>
      </trkpt>
      <trkpt lat="44.38366" lon="2.4604">
        <ele>572</ele>
        <time>2017-09-16T09:11:15Z</time>
      </trkpt>
      <trkpt lat="44.38366" lon="2.46031">
        <ele>572</ele>
        <time>2017-09-16T09:11:21Z</time>
      </trkpt>
      <trkpt lat="44.38368" lon="2.46027">
        <ele>572</ele>
        <time>2017-09-16T09:11:24Z</time>
      </trkpt>
      <trkpt lat="44.38374" lon="2.46024">
        <ele>572</ele>
        <time>2017-09-16T09:11:28Z</time>
      </trkpt>
      <trkpt lat="44.38386" lon="2.46023">
        <ele>572</ele>
        <time>2017-09-16T09:11:40Z</time>
      </trkpt>
      <trkpt lat="44.38389" lon="2.46022">
        <ele>572</ele>
        <time>2017-09-16T09:11:43Z</time>
      </trkpt>
      <trkpt lat="44.38396" lon="2.46022">
        <ele>572</ele>
        <time>2017-09-16T09:11:48Z</time>
      </trkpt>
      <trkpt lat="44.38413" lon="2.46025">
        <ele>572</ele>
        <time>2017-09-16T09:12:00Z</time>
      </trkpt>
      <trkpt lat="44.38419" lon="2.46026">
        <ele>571</ele>
        <time>2017-09-16T09:12:08Z</time>
      </trkpt>
      <trkpt lat="44.38423" lon="2.46024">
        <ele>571</ele>
        <time>2017-09-16T09:12:25Z</time>
      </trkpt>
      <trkpt lat="44.38424" lon="2.4602">
        <ele>571</ele>
        <time>2017-09-16T09:12:28Z</time>
      </trkpt>
      <trkpt lat="44.38424" lon="2.46015">
        <ele>571</ele>
        <time>2017-09-16T09:12:31Z</time>
      </trkpt>
      <trkpt lat="44.38397" lon="2.4598">
        <ele>570</ele>
        <time>2017-09-16T09:13:02Z</time>
      </trkpt>
      <trkpt lat="44.38387" lon="2.45964">
        <ele>569</ele>
        <time>2017-09-16T09:13:15Z</time>
      </trkpt>
      <trkpt lat="44.38381" lon="2.45956">
        <ele>569</ele>
        <time>2017-09-16T09:13:21Z</time>
      </trkpt>
      <trkpt lat="44.38352" lon="2.45918">
        <ele>571</ele>
        <time>2017-09-16T09:13:51Z</time>
      </trkpt>
      <trkpt lat="44.38336" lon="2.45897">
        <ele>568</ele>
        <time>2017-09-16T09:14:10Z</time>
      </trkpt>
      <trkpt lat="44.38328" lon="2.45886">
        <ele>572</ele>
        <time>2017-09-16T09:14:19Z</time>
      </trkpt>
      <trkpt lat="44.38325" lon="2.45882">
        <ele>572</ele>
        <time>2017-09-16T09:14:22Z</time>
      </trkpt>
      <trkpt lat="44.38316" lon="2.45871">
        <ele>571</ele>
        <time>2017-09-16T09:14:31Z</time>
      </trkpt>
      <trkpt lat="44.38314" lon="2.45868">
        <ele>571</ele>
        <time>2017-09-16T09:14:34Z</time>
      </trkpt>
      <trkpt lat="44.38287" lon="2.45827">
        <ele>569</ele>
        <time>2017-09-16T09:15:04Z</time>
      </trkpt>
      <trkpt lat="44.3828" lon="2.4582">
        <ele>569</ele>
        <time>2017-09-16T09:15:11Z</time>
      </trkpt>
      <trkpt lat="44.38277" lon="2.45817">
        <ele>569</ele>
        <time>2017-09-16T09:15:14Z</time>
      </trkpt>
      <trkpt lat="44.3825" lon="2.45779">
        <ele>571</ele>
        <time>2017-09-16T09:15:47Z</time>
      </trkpt>
      <trkpt lat="44.38236" lon="2.4575">
        <ele>571</ele>
        <time>2017-09-16T09:16:05Z</time>
      </trkpt>
      <trkpt lat="44.38234" lon="2.45746">
        <ele>571</ele>
        <time>2017-09-16T09:16:08Z</time>
      </trkpt>
      <trkpt lat="44.38214" lon="2.45701">
        <ele>571</ele>
        <time>2017-09-16T09:16:36Z</time>
      </trkpt>
      <trkpt lat="44.38209" lon="2.45692">
        <ele>571</ele>
        <time>2017-09-16T09:16:42Z</time>
      </trkpt>
      <trkpt lat="44.38193" lon="2.45654">
        <ele>571</ele>
        <time>2017-09-16T09:17:07Z</time>
      </trkpt>
      <trkpt lat="44.38176" lon="2.45613">
        <ele>572</ele>
        <time>2017-09-16T09:17:32Z</time>
      </trkpt>
      <trkpt lat="44.38171" lon="2.45604">
        <ele>572</ele>
        <time>2017-09-16T09:17:38Z</time>
      </trkpt>
      <trkpt lat="44.38167" lon="2.45594">
        <ele>572</ele>
        <time>2017-09-16T09:17:45Z</time>
      </trkpt>
      <trkpt lat="44.38165" lon="2.45588">
        <ele>573</ele>
        <time>2017-09-16T09:17:50Z</time>
      </trkpt>
      <trkpt lat="44.38155" lon="2.45558">
        <ele>575</ele>
        <time>2017-09-16T09:18:09Z</time>
      </trkpt>
      <trkpt lat="44.38154" lon="2.45555">
        <ele>575</ele>
        <time>2017-09-16T09:18:11Z</time>
      </trkpt>
      <trkpt lat="44.38153" lon="2.45552">
        <ele>576</ele>
        <time>2017-09-16T09:18:13Z</time>
      </trkpt>
      <trkpt lat="44.38151" lon="2.45549">
        <ele>576</ele>
        <time>2017-09-16T09:18:17Z</time>
      </trkpt>
      <trkpt lat="44.38131" lon="2.45498">
        <ele>578</ele>
        <time>2017-09-16T09:18:48Z</time>
      </trkpt>
      <trkpt lat="44.38128" lon="2.45491">
        <ele>578</ele>
        <time>2017-09-16T09:18:52Z</time>
      </trkpt>
      <trkpt lat="44.38127" lon="2.45487">
        <ele>578</ele>
        <time>2017-09-16T09:18:54Z</time>
      </trkpt>
      <trkpt lat="44.38123" lon="2.45477">
        <ele>578</ele>
        <time>2017-09-16T09:19:00Z</time>
      </trkpt>
      <trkpt lat="44.38122" lon="2.45472">
        <ele>578</ele>
        <time>2017-09-16T09:19:03Z</time>
      </trkpt>
      <trkpt lat="44.38103" lon="2.45418">
        <ele>579</ele>
        <time>2017-09-16T09:19:33Z</time>
      </trkpt>
      <trkpt lat="44.38099" lon="2.45406">
        <ele>579</ele>
        <time>2017-09-16T09:19:40Z</time>
      </trkpt>
      <trkpt lat="44.38098" lon="2.45403">
        <ele>579</ele>
        <time>2017-09-16T09:19:42Z</time>
      </trkpt>
      <trkpt lat="44.38097" lon="2.454">
        <ele>579</ele>
        <time>2017-09-16T09:19:44Z</time>
      </trkpt>
      <trkpt lat="44.3809" lon="2.4538">
        <ele>579</ele>
        <time>2017-09-16T09:19:58Z</time>
      </trkpt>
      <trkpt lat="44.38085" lon="2.45371">
        <ele>580</ele>
        <time>2017-09-16T09:20:05Z</time>
      </trkpt>
      <trkpt lat="44.38083" lon="2.45365">
        <ele>581</ele>
        <time>2017-09-16T09:20:09Z</time>
      </trkpt>
      <trkpt lat="44.38064" lon="2.45316">
        <ele>581</ele>
        <time>2017-09-16T09:20:39Z</time>
      </trkpt>
      <trkpt lat="44.38062" lon="2.45314">
        <ele>581</ele>
        <time>2017-09-16T09:20:58Z</time>
      </trkpt>
      <trkpt lat="44.38059" lon="2.45309">
        <ele>581</ele>
        <time>2017-09-16T09:21:03Z</time>
      </trkpt>
      <trkpt lat="44.38054" lon="2.45287">
        <ele>581</ele>
        <time>2017-09-16T09:21:15Z</time>
      </trkpt>
      <trkpt lat="44.38052" lon="2.45281">
        <ele>581</ele>
        <time>2017-09-16T09:21:18Z</time>
      </trkpt>
      <trkpt lat="44.38044" lon="2.45244">
        <ele>582</ele>
        <time>2017-09-16T09:21:39Z</time>
      </trkpt>
      <trkpt lat="44.38045" lon="2.45224">
        <ele>582</ele>
        <time>2017-09-16T09:21:51Z</time>
      </trkpt>
      <trkpt lat="44.38046" lon="2.45221">
        <ele>582</ele>
        <time>2017-09-16T09:21:54Z</time>
      </trkpt>
      <trkpt lat="44.38046" lon="2.45195">
        <ele>583</ele>
        <time>2017-09-16T09:22:10Z</time>
      </trkpt>
      <trkpt lat="44.38051" lon="2.45169">
        <ele>583</ele>
        <time>2017-09-16T09:22:24Z</time>
      </trkpt>
      <trkpt lat="44.38051" lon="2.45166">
        <ele>585</ele>
        <time>2017-09-16T09:22:26Z</time>
      </trkpt>
      <trkpt lat="44.38055" lon="2.45147">
        <ele>585</ele>
        <time>2017-09-16T09:22:36Z</time>
      </trkpt>
      <trkpt lat="44.38055" lon="2.45144">
        <ele>585</ele>
        <time>2017-09-16T09:22:38Z</time>
      </trkpt>
      <trkpt lat="44.38062" lon="2.45115">
        <ele>586</ele>
        <time>2017-09-16T09:22:52Z</time>
      </trkpt>
      <trkpt lat="44.38063" lon="2.45112">
        <ele>586</ele>
        <time>2017-09-16T09:22:54Z</time>
      </trkpt>
      <trkpt lat="44.38081" lon="2.45062">
        <ele>587</ele>
        <time>2017-09-16T09:23:25Z</time>
      </trkpt>
      <trkpt lat="44.38084" lon="2.45055">
        <ele>585</ele>
        <time>2017-09-16T09:23:29Z</time>
      </trkpt>
      <trkpt lat="44.38085" lon="2.45049">
        <ele>584</ele>
        <time>2017-09-16T09:23:33Z</time>
      </trkpt>
      <trkpt lat="44.38089" lon="2.45041">
        <ele>584</ele>
        <time>2017-09-16T09:23:38Z</time>
      </trkpt>
      <trkpt lat="44.3809" lon="2.45038">
        <ele>584</ele>
        <time>2017-09-16T09:23:40Z</time>
      </trkpt>
      <trkpt lat="44.38091" lon="2.45035">
        <ele>584</ele>
        <time>2017-09-16T09:23:42Z</time>
      </trkpt>
      <trkpt lat="44.38092" lon="2.4503">
        <ele>585</ele>
        <time>2017-09-16T09:23:45Z</time>
      </trkpt>
      <trkpt lat="44.38096" lon="2.45024">
        <ele>585</ele>
        <time>2017-09-16T09:23:51Z</time>
      </trkpt>
      <trkpt lat="44.381" lon="2.45017">
        <ele>585</ele>
        <time>2017-09-16T09:23:57Z</time>
      </trkpt>
      <trkpt lat="44.38106" lon="2.45009">
        <ele>585</ele>
        <time>2017-09-16T09:24:03Z</time>
      </trkpt>
      <trkpt lat="44.38111" lon="2.45003">
        <ele>584</ele>
        <time>2017-09-16T09:24:08Z</time>
      </trkpt>
      <trkpt lat="44.38113" lon="2.45001">
        <ele>584</ele>
        <time>2017-09-16T09:24:12Z</time>
      </trkpt>
      <trkpt lat="44.38119" lon="2.44989">
        <ele>583</ele>
        <time>2017-09-16T09:24:22Z</time>
      </trkpt>
      <trkpt lat="44.38121" lon="2.44985">
        <ele>583</ele>
        <time>2017-09-16T09:24:25Z</time>
      </trkpt>
      <trkpt lat="44.38125" lon="2.44972">
        <ele>583</ele>
        <time>2017-09-16T09:24:35Z</time>
      </trkpt>
      <trkpt lat="44.38127" lon="2.44968">
        <ele>582</ele>
        <time>2017-09-16T09:24:38Z</time>
      </trkpt>
      <trkpt lat="44.38135" lon="2.4495">
        <ele>582</ele>
        <time>2017-09-16T09:24:51Z</time>
      </trkpt>
      <trkpt lat="44.38142" lon="2.44939">
        <ele>581</ele>
        <time>2017-09-16T09:24:59Z</time>
      </trkpt>
      <trkpt lat="44.38143" lon="2.44936">
        <ele>581</ele>
        <time>2017-09-16T09:25:01Z</time>
      </trkpt>
      <trkpt lat="44.3815" lon="2.44921">
        <ele>581</ele>
        <time>2017-09-16T09:25:11Z</time>
      </trkpt>
      <trkpt lat="44.38155" lon="2.4491">
        <ele>580</ele>
        <time>2017-09-16T09:25:19Z</time>
      </trkpt>
      <trkpt lat="44.38159" lon="2.44905">
        <ele>580</ele>
        <time>2017-09-16T09:25:23Z</time>
      </trkpt>
      <trkpt lat="44.38162" lon="2.44902">
        <ele>580</ele>
        <time>2017-09-16T09:25:26Z</time>
      </trkpt>
      <trkpt lat="44.3818" lon="2.44868">
        <ele>579</ele>
        <time>2017-09-16T09:25:52Z</time>
      </trkpt>
      <trkpt lat="44.38187" lon="2.44863">
        <ele>579</ele>
        <time>2017-09-16T09:25:59Z</time>
      </trkpt>
      <trkpt lat="44.3819" lon="2.44859">
        <ele>579</ele>
        <time>2017-09-16T09:26:06Z</time>
      </trkpt>
      <trkpt lat="44.38196" lon="2.44851">
        <ele>580</ele>
        <time>2017-09-16T09:26:15Z</time>
      </trkpt>
      <trkpt lat="44.38199" lon="2.44846">
        <ele>580</ele>
        <time>2017-09-16T09:26:21Z</time>
      </trkpt>
      <trkpt lat="44.38207" lon="2.44836">
        <ele>580</ele>
        <time>2017-09-16T09:26:30Z</time>
      </trkpt>
      <trkpt lat="44.38212" lon="2.44817">
        <ele>582</ele>
        <time>2017-09-16T09:26:41Z</time>
      </trkpt>
      <trkpt lat="44.38213" lon="2.44807">
        <ele>582</ele>
        <time>2017-09-16T09:26:47Z</time>
      </trkpt>
      <trkpt lat="44.38205" lon="2.44778">
        <ele>581</ele>
        <time>2017-09-16T09:27:08Z</time>
      </trkpt>
      <trkpt lat="44.38202" lon="2.44751">
        <ele>581</ele>
        <time>2017-09-16T09:27:24Z</time>
      </trkpt>
      <trkpt lat="44.38202" lon="2.44742">
        <ele>579</ele>
        <time>2017-09-16T09:27:29Z</time>
      </trkpt>
      <trkpt lat="44.38202" lon="2.44737">
        <ele>579</ele>
        <time>2017-09-16T09:27:32Z</time>
      </trkpt>
      <trkpt lat="44.38204" lon="2.44712">
        <ele>578</ele>
        <time>2017-09-16T09:27:47Z</time>
      </trkpt>
      <trkpt lat="44.38204" lon="2.44707">
        <ele>578</ele>
        <time>2017-09-16T09:27:50Z</time>
      </trkpt>
      <trkpt lat="44.38205" lon="2.44702">
        <ele>578</ele>
        <time>2017-09-16T09:27:53Z</time>
      </trkpt>
      <trkpt lat="44.38205" lon="2.44697">
        <ele>578</ele>
        <time>2017-09-16T09:27:56Z</time>
      </trkpt>
      <trkpt lat="44.38205" lon="2.44687">
        <ele>578</ele>
        <time>2017-09-16T09:28:03Z</time>
      </trkpt>
      <trkpt lat="44.38204" lon="2.44682">
        <ele>577</ele>
        <time>2017-09-16T09:28:06Z</time>
      </trkpt>
      <trkpt lat="44.38203" lon="2.44671">
        <ele>577</ele>
        <time>2017-09-16T09:28:14Z</time>
      </trkpt>
      <trkpt lat="44.38201" lon="2.44663">
        <ele>574</ele>
        <time>2017-09-16T09:28:20Z</time>
      </trkpt>
      <trkpt lat="44.382" lon="2.44659">
        <ele>574</ele>
        <time>2017-09-16T09:28:22Z</time>
      </trkpt>
      <trkpt lat="44.38198" lon="2.44649">
        <ele>574</ele>
        <time>2017-09-16T09:28:28Z</time>
      </trkpt>
      <trkpt lat="44.38197" lon="2.44644">
        <ele>573</ele>
        <time>2017-09-16T09:28:31Z</time>
      </trkpt>
      <trkpt lat="44.38186" lon="2.4461">
        <ele>572</ele>
        <time>2017-09-16T09:28:50Z</time>
      </trkpt>
      <trkpt lat="44.38181" lon="2.44598">
        <ele>572</ele>
        <time>2017-09-16T09:28:59Z</time>
      </trkpt>
      <trkpt lat="44.3818" lon="2.44595">
        <ele>572</ele>
        <time>2017-09-16T09:29:01Z</time>
      </trkpt>
      <trkpt lat="44.3818" lon="2.4459">
        <ele>571</ele>
        <time>2017-09-16T09:29:05Z</time>
      </trkpt>
      <trkpt lat="44.38179" lon="2.44586">
        <ele>571</ele>
        <time>2017-09-16T09:29:09Z</time>
      </trkpt>
      <trkpt lat="44.38179" lon="2.44581">
        <ele>569</ele>
        <time>2017-09-16T09:29:12Z</time>
      </trkpt>
      <trkpt lat="44.3818" lon="2.44575">
        <ele>568</ele>
        <time>2017-09-16T09:29:15Z</time>
      </trkpt>
      <trkpt lat="44.3818" lon="2.44569">
        <ele>568</ele>
        <time>2017-09-16T09:29:18Z</time>
      </trkpt>
      <trkpt lat="44.38179" lon="2.44565">
        <ele>568</ele>
        <time>2017-09-16T09:29:20Z</time>
      </trkpt>
      <trkpt lat="44.38176" lon="2.44563">
        <ele>568</ele>
        <time>2017-09-16T09:29:23Z</time>
      </trkpt>
      <trkpt lat="44.38168" lon="2.44565">
        <ele>568</ele>
        <time>2017-09-16T09:29:30Z</time>
      </trkpt>
      <trkpt lat="44.38166" lon="2.44566">
        <ele>566</ele>
        <time>2017-09-16T09:29:33Z</time>
      </trkpt>
      <trkpt lat="44.38159" lon="2.44577">
        <ele>567</ele>
        <time>2017-09-16T09:29:42Z</time>
      </trkpt>
      <trkpt lat="44.38156" lon="2.44587">
        <ele>568</ele>
        <time>2017-09-16T09:29:48Z</time>
      </trkpt>
      <trkpt lat="44.38155" lon="2.4459">
        <ele>568</ele>
        <time>2017-09-16T09:29:50Z</time>
      </trkpt>
      <trkpt lat="44.38156" lon="2.44594">
        <ele>568</ele>
        <time>2017-09-16T09:29:53Z</time>
      </trkpt>
      <trkpt lat="44.38156" lon="2.44597">
        <ele>568</ele>
        <time>2017-09-16T09:29:55Z</time>
      </trkpt>
      <trkpt lat="44.38157" lon="2.44641">
        <ele>568</ele>
        <time>2017-09-16T09:30:19Z</time>
      </trkpt>
      <trkpt lat="44.38156" lon="2.44645">
        <ele>569</ele>
        <time>2017-09-16T09:30:21Z</time>
      </trkpt>
      <trkpt lat="44.38152" lon="2.44652">
        <ele>569</ele>
        <time>2017-09-16T09:30:26Z</time>
      </trkpt>
      <trkpt lat="44.38149" lon="2.44654">
        <ele>569</ele>
        <time>2017-09-16T09:30:30Z</time>
      </trkpt>
      <trkpt lat="44.38141" lon="2.44653">
        <ele>568</ele>
        <time>2017-09-16T09:30:35Z</time>
      </trkpt>
      <trkpt lat="44.38134" lon="2.44656">
        <ele>567</ele>
        <time>2017-09-16T09:30:41Z</time>
      </trkpt>
      <trkpt lat="44.38122" lon="2.44657">
        <ele>566</ele>
        <time>2017-09-16T09:30:50Z</time>
      </trkpt>
      <trkpt lat="44.38119" lon="2.44655">
        <ele>566</ele>
        <time>2017-09-16T09:30:52Z</time>
      </trkpt>
      <trkpt lat="44.38116" lon="2.44653">
        <ele>565</ele>
        <time>2017-09-16T09:30:55Z</time>
      </trkpt>
      <trkpt lat="44.38114" lon="2.44651">
        <ele>565</ele>
        <time>2017-09-16T09:30:58Z</time>
      </trkpt>
      <trkpt lat="44.38112" lon="2.44649">
        <ele>565</ele>
        <time>2017-09-16T09:31:01Z</time>
      </trkpt>
      <trkpt lat="44.38112" lon="2.44647">
        <ele>565</ele>
        <time>2017-09-16T09:31:14Z</time>
      </trkpt>
      <trkpt lat="44.3811" lon="2.44647">
        <ele>565</ele>
        <time>2017-09-16T09:31:17Z</time>
      </trkpt>
      <trkpt lat="44.38098" lon="2.4464">
        <ele>564</ele>
        <time>2017-09-16T09:31:31Z</time>
      </trkpt>
      <trkpt lat="44.38071" lon="2.44636">
        <ele>561</ele>
        <time>2017-09-16T09:31:53Z</time>
      </trkpt>
      <trkpt lat="44.3806" lon="2.4464">
        <ele>561</ele>
        <time>2017-09-16T09:32:01Z</time>
      </trkpt>
      <trkpt lat="44.38055" lon="2.4464">
        <ele>561</ele>
        <time>2017-09-16T09:32:05Z</time>
      </trkpt>
      <trkpt lat="44.38031" lon="2.44643">
        <ele>561</ele>
        <time>2017-09-16T09:32:21Z</time>
      </trkpt>
      <trkpt lat="44.38025" lon="2.44642">
        <ele>561</ele>
        <time>2017-09-16T09:32:26Z</time>
      </trkpt>
      <trkpt lat="44.38022" lon="2.44642">
        <ele>561</ele>
        <time>2017-09-16T09:32:28Z</time>
      </trkpt>
      <trkpt lat="44.3802" lon="2.44642">
        <ele>561</ele>
        <time>2017-09-16T09:32:30Z</time>
      </trkpt>
      <trkpt lat="44.38017" lon="2.44642">
        <ele>561</ele>
        <time>2017-09-16T09:32:32Z</time>
      </trkpt>
      <trkpt lat="44.38011" lon="2.44641">
        <ele>561</ele>
        <time>2017-09-16T09:32:37Z</time>
      </trkpt>
      <trkpt lat="44.37988" lon="2.44629">
        <ele>565</ele>
        <time>2017-09-16T09:32:56Z</time>
      </trkpt>
      <trkpt lat="44.37971" lon="2.44614">
        <ele>566</ele>
        <time>2017-09-16T09:33:13Z</time>
      </trkpt>
      <trkpt lat="44.37962" lon="2.44609">
        <ele>566</ele>
        <time>2017-09-16T09:33:23Z</time>
      </trkpt>
      <trkpt lat="44.37959" lon="2.44608">
        <ele>567</ele>
        <time>2017-09-16T09:33:26Z</time>
      </trkpt>
      <trkpt lat="44.37951" lon="2.44601">
        <ele>567</ele>
        <time>2017-09-16T09:33:34Z</time>
      </trkpt>
      <trkpt lat="44.37948" lon="2.44601">
        <ele>567</ele>
        <time>2017-09-16T09:33:36Z</time>
      </trkpt>
      <trkpt lat="44.37935" lon="2.44606">
        <ele>568</ele>
        <time>2017-09-16T09:33:46Z</time>
      </trkpt>
      <trkpt lat="44.3793" lon="2.44609">
        <ele>568</ele>
        <time>2017-09-16T09:33:50Z</time>
      </trkpt>
      <trkpt lat="44.37928" lon="2.4461">
        <ele>568</ele>
        <time>2017-09-16T09:33:52Z</time>
      </trkpt>
      <trkpt lat="44.37926" lon="2.4461">
        <ele>568</ele>
        <time>2017-09-16T09:34:02Z</time>
      </trkpt>
      <trkpt lat="44.37919" lon="2.44613">
        <ele>569</ele>
        <time>2017-09-16T09:34:08Z</time>
      </trkpt>
      <trkpt lat="44.37902" lon="2.44612">
        <ele>571</ele>
        <time>2017-09-16T09:34:23Z</time>
      </trkpt>
      <trkpt lat="44.37899" lon="2.44611">
        <ele>571</ele>
        <time>2017-09-16T09:34:26Z</time>
      </trkpt>
      <trkpt lat="44.37896" lon="2.4461">
        <ele>571</ele>
        <time>2017-09-16T09:34:30Z</time>
      </trkpt>
      <trkpt lat="44.37887" lon="2.44607">
        <ele>571</ele>
        <time>2017-09-16T09:34:40Z</time>
      </trkpt>
      <trkpt lat="44.37866" lon="2.4461">
        <ele>570</ele>
        <time>2017-09-16T09:34:56Z</time>
      </trkpt>
      <trkpt lat="44.37853" lon="2.44617">
        <ele>570</ele>
        <time>2017-09-16T09:35:06Z</time>
      </trkpt>
      <trkpt lat="44.37836" lon="2.44624">
        <ele>570</ele>
        <time>2017-09-16T09:35:23Z</time>
      </trkpt>
      <trkpt lat="44.37834" lon="2.44626">
        <ele>570</ele>
        <time>2017-09-16T09:35:25Z</time>
      </trkpt>
      <trkpt lat="44.3782" lon="2.44635">
        <ele>568</ele>
        <time>2017-09-16T09:35:40Z</time>
      </trkpt>
      <trkpt lat="44.37817" lon="2.44638">
        <ele>568</ele>
        <time>2017-09-16T09:35:44Z</time>
      </trkpt>
      <trkpt lat="44.37815" lon="2.4464">
        <ele>568</ele>
        <time>2017-09-16T09:35:47Z</time>
      </trkpt>
      <trkpt lat="44.3781" lon="2.44645">
        <ele>568</ele>
        <time>2017-09-16T09:35:52Z</time>
      </trkpt>
      <trkpt lat="44.37808" lon="2.44647">
        <ele>568</ele>
        <time>2017-09-16T09:35:54Z</time>
      </trkpt>
      <trkpt lat="44.37805" lon="2.44648">
        <ele>568</ele>
        <time>2017-09-16T09:35:56Z</time>
      </trkpt>
      <trkpt lat="44.37801" lon="2.44647">
        <ele>568</ele>
        <time>2017-09-16T09:35:59Z</time>
      </trkpt>
      <trkpt lat="44.37795" lon="2.44645">
        <ele>567</ele>
        <time>2017-09-16T09:36:04Z</time>
      </trkpt>
      <trkpt lat="44.37771" lon="2.4462">
        <ele>566</ele>
        <time>2017-09-16T09:36:25Z</time>
      </trkpt>
      <trkpt lat="44.37753" lon="2.44599">
        <ele>564</ele>
        <time>2017-09-16T09:36:43Z</time>
      </trkpt>
      <trkpt lat="44.3774" lon="2.44585">
        <ele>561</ele>
        <time>2017-09-16T09:36:57Z</time>
      </trkpt>
      <trkpt lat="44.37732" lon="2.44575">
        <ele>559</ele>
        <time>2017-09-16T09:37:06Z</time>
      </trkpt>
      <trkpt lat="44.37729" lon="2.44572">
        <ele>559</ele>
        <time>2017-09-16T09:37:09Z</time>
      </trkpt>
      <trkpt lat="44.37726" lon="2.44568">
        <ele>558</ele>
        <time>2017-09-16T09:37:12Z</time>
      </trkpt>
      <trkpt lat="44.3772" lon="2.44563">
        <ele>558</ele>
        <time>2017-09-16T09:37:17Z</time>
      </trkpt>
      <trkpt lat="44.37718" lon="2.44559">
        <ele>557</ele>
        <time>2017-09-16T09:37:19Z</time>
      </trkpt>
      <trkpt lat="44.37713" lon="2.44554">
        <ele>557</ele>
        <time>2017-09-16T09:37:24Z</time>
      </trkpt>
      <trkpt lat="44.37711" lon="2.44552">
        <ele>557</ele>
        <time>2017-09-16T09:37:27Z</time>
      </trkpt>
      <trkpt lat="44.37709" lon="2.44549">
        <ele>557</ele>
        <time>2017-09-16T09:37:30Z</time>
      </trkpt>
      <trkpt lat="44.37705" lon="2.4454">
        <ele>557</ele>
        <time>2017-09-16T09:37:47Z</time>
      </trkpt>
      <trkpt lat="44.377" lon="2.44532">
        <ele>556</ele>
        <time>2017-09-16T09:37:56Z</time>
      </trkpt>
      <trkpt lat="44.37697" lon="2.44528">
        <ele>556</ele>
        <time>2017-09-16T09:38:00Z</time>
      </trkpt>
      <trkpt lat="44.37694" lon="2.44514">
        <ele>556</ele>
        <time>2017-09-16T09:38:08Z</time>
      </trkpt>
      <trkpt lat="44.37693" lon="2.44508">
        <ele>556</ele>
        <time>2017-09-16T09:38:13Z</time>
      </trkpt>
      <trkpt lat="44.37691" lon="2.44503">
        <ele>556</ele>
        <time>2017-09-16T09:38:18Z</time>
      </trkpt>
      <trkpt lat="44.37687" lon="2.44499">
        <ele>555</ele>
        <time>2017-09-16T09:38:23Z</time>
      </trkpt>
      <trkpt lat="44.37685" lon="2.44494">
        <ele>555</ele>
        <time>2017-09-16T09:38:27Z</time>
      </trkpt>
      <trkpt lat="44.37683" lon="2.44489">
        <ele>555</ele>
        <time>2017-09-16T09:38:32Z</time>
      </trkpt>
      <trkpt lat="44.37681" lon="2.44485">
        <ele>555</ele>
        <time>2017-09-16T09:38:35Z</time>
      </trkpt>
      <trkpt lat="44.37679" lon="2.4448">
        <ele>554</ele>
        <time>2017-09-16T09:38:39Z</time>
      </trkpt>
      <trkpt lat="44.37675" lon="2.44476">
        <ele>554</ele>
        <time>2017-09-16T09:38:43Z</time>
      </trkpt>
      <trkpt lat="44.37671" lon="2.4447">
        <ele>554</ele>
        <time>2017-09-16T09:38:50Z</time>
      </trkpt>
      <trkpt lat="44.37664" lon="2.44456">
        <ele>557</ele>
        <time>2017-09-16T09:38:57Z</time>
      </trkpt>
      <trkpt lat="44.37661" lon="2.44453">
        <ele>558</ele>
        <time>2017-09-16T09:38:59Z</time>
      </trkpt>
      <trkpt lat="44.37657" lon="2.4445">
        <ele>558</ele>
        <time>2017-09-16T09:39:05Z</time>
      </trkpt>
      <trkpt lat="44.37652" lon="2.4444">
        <ele>558</ele>
        <time>2017-09-16T09:39:13Z</time>
      </trkpt>
      <trkpt lat="44.3765" lon="2.44435">
        <ele>558</ele>
        <time>2017-09-16T09:39:16Z</time>
      </trkpt>
      <trkpt lat="44.37648" lon="2.4443">
        <ele>558</ele>
        <time>2017-09-16T09:39:19Z</time>
      </trkpt>
      <trkpt lat="44.37645" lon="2.44426">
        <ele>558</ele>
        <time>2017-09-16T09:39:22Z</time>
      </trkpt>
      <trkpt lat="44.37641" lon="2.44423">
        <ele>558</ele>
        <time>2017-09-16T09:39:25Z</time>
      </trkpt>
      <trkpt lat="44.37636" lon="2.44422">
        <ele>558</ele>
        <time>2017-09-16T09:39:29Z</time>
      </trkpt>
      <trkpt lat="44.37632" lon="2.44422">
        <ele>559</ele>
        <time>2017-09-16T09:39:33Z</time>
      </trkpt>
      <trkpt lat="44.37626" lon="2.44419">
        <ele>559</ele>
        <time>2017-09-16T09:39:37Z</time>
      </trkpt>
      <trkpt lat="44.3762" lon="2.44416">
        <ele>564</ele>
        <time>2017-09-16T09:39:42Z</time>
      </trkpt>
      <trkpt lat="44.37616" lon="2.44414">
        <ele>564</ele>
        <time>2017-09-16T09:39:46Z</time>
      </trkpt>
      <trkpt lat="44.37593" lon="2.44418">
        <ele>563</ele>
        <time>2017-09-16T09:40:06Z</time>
      </trkpt>
      <trkpt lat="44.3759" lon="2.44417">
        <ele>565</ele>
        <time>2017-09-16T09:40:09Z</time>
      </trkpt>
      <trkpt lat="44.37588" lon="2.44417">
        <ele>564</ele>
        <time>2017-09-16T09:40:11Z</time>
      </trkpt>
      <trkpt lat="44.37581" lon="2.44418">
        <ele>564</ele>
        <time>2017-09-16T09:40:17Z</time>
      </trkpt>
      <trkpt lat="44.37572" lon="2.44419">
        <ele>562</ele>
        <time>2017-09-16T09:40:24Z</time>
      </trkpt>
      <trkpt lat="44.37569" lon="2.44421">
        <ele>562</ele>
        <time>2017-09-16T09:40:26Z</time>
      </trkpt>
      <trkpt lat="44.37566" lon="2.4442">
        <ele>561</ele>
        <time>2017-09-16T09:40:28Z</time>
      </trkpt>
      <trkpt lat="44.37564" lon="2.44418">
        <ele>561</ele>
        <time>2017-09-16T09:40:31Z</time>
      </trkpt>
      <trkpt lat="44.37561" lon="2.44416">
        <ele>567</ele>
        <time>2017-09-16T09:40:34Z</time>
      </trkpt>
      <trkpt lat="44.37561" lon="2.44411">
        <ele>567</ele>
        <time>2017-09-16T09:40:40Z</time>
      </trkpt>
      <trkpt lat="44.37572" lon="2.444">
        <ele>568</ele>
        <time>2017-09-16T09:40:52Z</time>
      </trkpt>
      <trkpt lat="44.37581" lon="2.44372">
        <ele>571</ele>
        <time>2017-09-16T09:41:13Z</time>
      </trkpt>
      <trkpt lat="44.37581" lon="2.44367">
        <ele>572</ele>
        <time>2017-09-16T09:41:16Z</time>
      </trkpt>
      <trkpt lat="44.37582" lon="2.44364">
        <ele>572</ele>
        <time>2017-09-16T09:41:18Z</time>
      </trkpt>
      <trkpt lat="44.37583" lon="2.4436">
        <ele>573</ele>
        <time>2017-09-16T09:41:21Z</time>
      </trkpt>
      <trkpt lat="44.37585" lon="2.44355">
        <ele>570</ele>
        <time>2017-09-16T09:41:24Z</time>
      </trkpt>
      <trkpt lat="44.37587" lon="2.44345">
        <ele>573</ele>
        <time>2017-09-16T09:41:30Z</time>
      </trkpt>
      <trkpt lat="44.37588" lon="2.44336">
        <ele>576</ele>
        <time>2017-09-16T09:41:35Z</time>
      </trkpt>
      <trkpt lat="44.37588" lon="2.44327">
        <ele>576</ele>
        <time>2017-09-16T09:41:40Z</time>
      </trkpt>
      <trkpt lat="44.3759" lon="2.44323">
        <ele>576</ele>
        <time>2017-09-16T09:41:43Z</time>
      </trkpt>
      <trkpt lat="44.37589" lon="2.44312">
        <ele>575</ele>
        <time>2017-09-16T09:41:49Z</time>
      </trkpt>
      <trkpt lat="44.37589" lon="2.44307">
        <ele>575</ele>
        <time>2017-09-16T09:41:53Z</time>
      </trkpt>
      <trkpt lat="44.3759" lon="2.44295">
        <ele>575</ele>
        <time>2017-09-16T09:42:00Z</time>
      </trkpt>
      <trkpt lat="44.37589" lon="2.44289">
        <ele>575</ele>
        <time>2017-09-16T09:42:05Z</time>
      </trkpt>
      <trkpt lat="44.37588" lon="2.44283">
        <ele>576</ele>
        <time>2017-09-16T09:42:09Z</time>
      </trkpt>
      <trkpt lat="44.37588" lon="2.44276">
        <ele>577</ele>
        <time>2017-09-16T09:42:13Z</time>
      </trkpt>
      <trkpt lat="44.37582" lon="2.44236">
        <ele>589</ele>
        <time>2017-09-16T09:42:35Z</time>
      </trkpt>
      <trkpt lat="44.3757" lon="2.44213">
        <ele>591</ele>
        <time>2017-09-16T09:42:48Z</time>
      </trkpt>
      <trkpt lat="44.37568" lon="2.44211">
        <ele>591</ele>
        <time>2017-09-16T09:42:50Z</time>
      </trkpt>
      <trkpt lat="44.37565" lon="2.4421">
        <ele>591</ele>
        <time>2017-09-16T09:42:52Z</time>
      </trkpt>
      <trkpt lat="44.37563" lon="2.4421">
        <ele>591</ele>
        <time>2017-09-16T09:42:55Z</time>
      </trkpt>
      <trkpt lat="44.37561" lon="2.44209">
        <ele>591</ele>
        <time>2017-09-16T09:42:57Z</time>
      </trkpt>
      <trkpt lat="44.37561" lon="2.44206">
        <ele>591</ele>
        <time>2017-09-16T09:43:57Z</time>
      </trkpt>
      <trkpt lat="44.37561" lon="2.44202">
        <ele>591</ele>
        <time>2017-09-16T09:44:00Z</time>
      </trkpt>
      <trkpt lat="44.37561" lon="2.44198">
        <ele>591</ele>
        <time>2017-09-16T09:44:03Z</time>
      </trkpt>
      <trkpt lat="44.37558" lon="2.44197">
        <ele>591</ele>
        <time>2017-09-16T09:44:06Z</time>
      </trkpt>
      <trkpt lat="44.37557" lon="2.44197">
        <ele>591</ele>
        <time>2017-09-16T09:44:08Z</time>
      </trkpt>
      <trkpt lat="44.37556" lon="2.44197">
        <ele>591</ele>
        <time>2017-09-16T09:45:25Z</time>
      </trkpt>
      <trkpt lat="44.37557" lon="2.44194">
        <ele>591</ele>
        <time>2017-09-16T09:45:35Z</time>
      </trkpt>
      <trkpt lat="44.37559" lon="2.44195">
        <ele>591</ele>
        <time>2017-09-16T09:46:19Z</time>
      </trkpt>
      <trkpt lat="44.37559" lon="2.44195">
        <ele>591</ele>
        <time>2017-09-16T09:46:19Z</time>
      </trkpt>
      <trkpt lat="44.37557" lon="2.44195">
        <ele>591</ele>
        <time>2017-09-16T09:46:22Z</time>
      </trkpt>
      <trkpt lat="44.37554" lon="2.44191">
        <ele>591</ele>
        <time>2017-09-16T09:47:03Z</time>
      </trkpt>
      <trkpt lat="44.37556" lon="2.44187">
        <ele>591</ele>
        <time>2017-09-16T09:47:11Z</time>
      </trkpt>
      <trkpt lat="44.37557" lon="2.44182">
        <ele>591</ele>
        <time>2017-09-16T09:47:14Z</time>
      </trkpt>
      <trkpt lat="44.37558" lon="2.44177">
        <ele>591</ele>
        <time>2017-09-16T09:47:17Z</time>
      </trkpt>
      <trkpt lat="44.37559" lon="2.44174">
        <ele>591</ele>
        <time>2017-09-16T09:47:34Z</time>
      </trkpt>
      <trkpt lat="44.37559" lon="2.44168">
        <ele>591</ele>
        <time>2017-09-16T09:48:11Z</time>
      </trkpt>
      <trkpt lat="44.37557" lon="2.44165">
        <ele>592</ele>
        <time>2017-09-16T09:48:14Z</time>
      </trkpt>
      <trkpt lat="44.37556" lon="2.44162">
        <ele>593</ele>
        <time>2017-09-16T09:48:16Z</time>
      </trkpt>
      <trkpt lat="44.37556" lon="2.44157">
        <ele>593</ele>
        <time>2017-09-16T09:48:20Z</time>
      </trkpt>
      <trkpt lat="44.3756" lon="2.44129">
        <ele>593</ele>
        <time>2017-09-16T09:48:38Z</time>
      </trkpt>
      <trkpt lat="44.37561" lon="2.44123">
        <ele>593</ele>
        <time>2017-09-16T09:48:41Z</time>
      </trkpt>
      <trkpt lat="44.37563" lon="2.44118">
        <ele>593</ele>
        <time>2017-09-16T09:48:45Z</time>
      </trkpt>
      <trkpt lat="44.37576" lon="2.44071">
        <ele>595</ele>
        <time>2017-09-16T09:49:12Z</time>
      </trkpt>
      <trkpt lat="44.37577" lon="2.44066">
        <ele>595</ele>
        <time>2017-09-16T09:49:15Z</time>
      </trkpt>
      <trkpt lat="44.37579" lon="2.44061">
        <ele>596</ele>
        <time>2017-09-16T09:49:18Z</time>
      </trkpt>
      <trkpt lat="44.3758" lon="2.44056">
        <ele>596</ele>
        <time>2017-09-16T09:49:21Z</time>
      </trkpt>
      <trkpt lat="44.37581" lon="2.43998">
        <ele>598</ele>
        <time>2017-09-16T09:49:53Z</time>
      </trkpt>
      <trkpt lat="44.3758" lon="2.43983">
        <ele>599</ele>
        <time>2017-09-16T09:50:01Z</time>
      </trkpt>
      <trkpt lat="44.3758" lon="2.43937">
        <ele>599</ele>
        <time>2017-09-16T09:50:25Z</time>
      </trkpt>
      <trkpt lat="44.37579" lon="2.43895">
        <ele>600</ele>
        <time>2017-09-16T09:50:46Z</time>
      </trkpt>
      <trkpt lat="44.37578" lon="2.43879">
        <ele>600</ele>
        <time>2017-09-16T09:50:53Z</time>
      </trkpt>
      <trkpt lat="44.37577" lon="2.43874">
        <ele>600</ele>
        <time>2017-09-16T09:50:56Z</time>
      </trkpt>
      <trkpt lat="44.37578" lon="2.43852">
        <ele>600</ele>
        <time>2017-09-16T09:51:08Z</time>
      </trkpt>
      <trkpt lat="44.37577" lon="2.43794">
        <ele>601</ele>
        <time>2017-09-16T09:51:38Z</time>
      </trkpt>
      <trkpt lat="44.37578" lon="2.4374">
        <ele>602</ele>
        <time>2017-09-16T09:52:09Z</time>
      </trkpt>
      <trkpt lat="44.37581" lon="2.43712">
        <ele>603</ele>
        <time>2017-09-16T09:52:25Z</time>
      </trkpt>
      <trkpt lat="44.37595" lon="2.4366">
        <ele>601</ele>
        <time>2017-09-16T09:52:55Z</time>
      </trkpt>
      <trkpt lat="44.376" lon="2.43646">
        <ele>601</ele>
        <time>2017-09-16T09:53:02Z</time>
      </trkpt>
      <trkpt lat="44.37601" lon="2.43636">
        <ele>601</ele>
        <time>2017-09-16T09:53:07Z</time>
      </trkpt>
      <trkpt lat="44.37606" lon="2.43624">
        <ele>601</ele>
        <time>2017-09-16T09:53:32Z</time>
      </trkpt>
      <trkpt lat="44.37606" lon="2.43614">
        <ele>601</ele>
        <time>2017-09-16T09:53:38Z</time>
      </trkpt>
      <trkpt lat="44.37608" lon="2.43609">
        <ele>601</ele>
        <time>2017-09-16T09:53:42Z</time>
      </trkpt>
      <trkpt lat="44.37609" lon="2.43598">
        <ele>601</ele>
        <time>2017-09-16T09:53:49Z</time>
      </trkpt>
      <trkpt lat="44.37611" lon="2.43589">
        <ele>601</ele>
        <time>2017-09-16T09:53:53Z</time>
      </trkpt>
      <trkpt lat="44.37612" lon="2.43586">
        <ele>601</ele>
        <time>2017-09-16T09:53:55Z</time>
      </trkpt>
      <trkpt lat="44.37615" lon="2.43576">
        <ele>602</ele>
        <time>2017-09-16T09:54:01Z</time>
      </trkpt>
      <trkpt lat="44.37616" lon="2.43574">
        <ele>602</ele>
        <time>2017-09-16T09:54:03Z</time>
      </trkpt>
      <trkpt lat="44.37619" lon="2.43571">
        <ele>602</ele>
        <time>2017-09-16T09:54:32Z</time>
      </trkpt>
      <trkpt lat="44.37631" lon="2.43522">
        <ele>602</ele>
        <time>2017-09-16T09:55:02Z</time>
      </trkpt>
      <trkpt lat="44.37637" lon="2.43495">
        <ele>603</ele>
        <time>2017-09-16T09:55:16Z</time>
      </trkpt>
      <trkpt lat="44.37638" lon="2.43492">
        <ele>603</ele>
        <time>2017-09-16T09:55:19Z</time>
      </trkpt>
      <trkpt lat="44.37638" lon="2.43488">
        <ele>603</ele>
        <time>2017-09-16T09:55:26Z</time>
      </trkpt>
      <trkpt lat="44.3764" lon="2.43482">
        <ele>603</ele>
        <time>2017-09-16T09:55:30Z</time>
      </trkpt>
      <trkpt lat="44.37641" lon="2.43475">
        <ele>603</ele>
        <time>2017-09-16T09:55:34Z</time>
      </trkpt>
      <trkpt lat="44.37649" lon="2.43441">
        <ele>604</ele>
        <time>2017-09-16T09:55:53Z</time>
      </trkpt>
      <trkpt lat="44.37652" lon="2.43432">
        <ele>604</ele>
        <time>2017-09-16T09:55:58Z</time>
      </trkpt>
      <trkpt lat="44.37653" lon="2.43426">
        <ele>604</ele>
        <time>2017-09-16T09:56:01Z</time>
      </trkpt>
      <trkpt lat="44.37655" lon="2.43413">
        <ele>605</ele>
        <time>2017-09-16T09:56:08Z</time>
      </trkpt>
      <trkpt lat="44.37657" lon="2.43409">
        <ele>605</ele>
        <time>2017-09-16T09:56:11Z</time>
      </trkpt>
      <trkpt lat="44.37658" lon="2.43405">
        <ele>605</ele>
        <time>2017-09-16T09:56:13Z</time>
      </trkpt>
      <trkpt lat="44.37658" lon="2.43401">
        <ele>606</ele>
        <time>2017-09-16T09:56:15Z</time>
      </trkpt>
      <trkpt lat="44.37659" lon="2.43391">
        <ele>606</ele>
        <time>2017-09-16T09:56:21Z</time>
      </trkpt>
      <trkpt lat="44.37661" lon="2.43385">
        <ele>606</ele>
        <time>2017-09-16T09:56:24Z</time>
      </trkpt>
      <trkpt lat="44.37668" lon="2.43334">
        <ele>605</ele>
        <time>2017-09-16T09:56:51Z</time>
      </trkpt>
      <trkpt lat="44.37673" lon="2.4328">
        <ele>606</ele>
        <time>2017-09-16T09:57:21Z</time>
      </trkpt>
      <trkpt lat="44.37672" lon="2.4327">
        <ele>607</ele>
        <time>2017-09-16T09:57:28Z</time>
      </trkpt>
      <trkpt lat="44.37674" lon="2.43261">
        <ele>607</ele>
        <time>2017-09-16T09:57:34Z</time>
      </trkpt>
      <trkpt lat="44.37678" lon="2.43203">
        <ele>609</ele>
        <time>2017-09-16T09:58:06Z</time>
      </trkpt>
      <trkpt lat="44.37675" lon="2.43182">
        <ele>611</ele>
        <time>2017-09-16T09:58:17Z</time>
      </trkpt>
      <trkpt lat="44.37673" lon="2.43175">
        <ele>612</ele>
        <time>2017-09-16T09:58:21Z</time>
      </trkpt>
      <trkpt lat="44.37667" lon="2.43117">
        <ele>611</ele>
        <time>2017-09-16T09:58:53Z</time>
      </trkpt>
      <trkpt lat="44.37664" lon="2.43094">
        <ele>614</ele>
        <time>2017-09-16T09:59:08Z</time>
      </trkpt>
      <trkpt lat="44.37664" lon="2.43089">
        <ele>614</ele>
        <time>2017-09-16T09:59:11Z</time>
      </trkpt>
      <trkpt lat="44.37664" lon="2.43086">
        <ele>613</ele>
        <time>2017-09-16T09:59:13Z</time>
      </trkpt>
      <trkpt lat="44.37665" lon="2.43082">
        <ele>613</ele>
        <time>2017-09-16T09:59:16Z</time>
      </trkpt>
      <trkpt lat="44.37662" lon="2.43041">
        <ele>614</ele>
        <time>2017-09-16T09:59:40Z</time>
      </trkpt>
      <trkpt lat="44.37662" lon="2.43035">
        <ele>614</ele>
        <time>2017-09-16T09:59:43Z</time>
      </trkpt>
      <trkpt lat="44.3766" lon="2.43024">
        <ele>614</ele>
        <time>2017-09-16T09:59:50Z</time>
      </trkpt>
      <trkpt lat="44.37658" lon="2.42994">
        <ele>613</ele>
        <time>2017-09-16T10:00:05Z</time>
      </trkpt>
      <trkpt lat="44.37657" lon="2.42984">
        <ele>613</ele>
        <time>2017-09-16T10:00:10Z</time>
      </trkpt>
      <trkpt lat="44.37656" lon="2.42974">
        <ele>613</ele>
        <time>2017-09-16T10:00:16Z</time>
      </trkpt>
      <trkpt lat="44.37656" lon="2.4297">
        <ele>613</ele>
        <time>2017-09-16T10:00:18Z</time>
      </trkpt>
      <trkpt lat="44.37656" lon="2.42968">
        <ele>613</ele>
        <time>2017-09-16T10:00:19Z</time>
      </trkpt>
      <trkpt lat="44.37656" lon="2.42964">
        <ele>613</ele>
        <time>2017-09-16T10:00:21Z</time>
      </trkpt>
      <trkpt lat="44.37656" lon="2.42959">
        <ele>613</ele>
        <time>2017-09-16T10:00:23Z</time>
      </trkpt>
      <trkpt lat="44.37655" lon="2.42957">
        <ele>613</ele>
        <time>2017-09-16T10:00:24Z</time>
      </trkpt>
      <trkpt lat="44.3765" lon="2.42908">
        <ele>611</ele>
        <time>2017-09-16T10:00:50Z</time>
      </trkpt>
      <trkpt lat="44.37635" lon="2.42735">
        <ele>606</ele>
        <time>2017-09-16T10:02:34Z</time>
      </trkpt>
      <trkpt lat="44.37635" lon="2.42735">
        <ele>606</ele>
        <time>2017-09-16T10:02:34Z</time>
      </trkpt>
      <trkpt lat="44.37633" lon="2.42737">
        <ele>606</ele>
        <time>2017-09-16T10:02:39Z</time>
      </trkpt>
      <trkpt lat="44.3763" lon="2.42738">
        <ele>606</ele>
        <time>2017-09-16T10:02:41Z</time>
      </trkpt>
      <trkpt lat="44.37632" lon="2.42731">
        <ele>606</ele>
        <time>2017-09-16T10:03:01Z</time>
      </trkpt>
      <trkpt lat="44.37632" lon="2.42728">
        <ele>606</ele>
        <time>2017-09-16T10:03:03Z</time>
      </trkpt>
      <trkpt lat="44.3763" lon="2.42724">
        <ele>607</ele>
        <time>2017-09-16T10:03:05Z</time>
      </trkpt>
      <trkpt lat="44.37629" lon="2.42721">
        <ele>607</ele>
        <time>2017-09-16T10:03:07Z</time>
      </trkpt>
      <trkpt lat="44.3763" lon="2.42713">
        <ele>607</ele>
        <time>2017-09-16T10:03:11Z</time>
      </trkpt>
      <trkpt lat="44.37631" lon="2.42707">
        <ele>607</ele>
        <time>2017-09-16T10:03:15Z</time>
      </trkpt>
      <trkpt lat="44.37632" lon="2.42702">
        <ele>607</ele>
        <time>2017-09-16T10:03:18Z</time>
      </trkpt>
      <trkpt lat="44.37634" lon="2.42696">
        <ele>607</ele>
        <time>2017-09-16T10:03:22Z</time>
      </trkpt>
      <trkpt lat="44.37652" lon="2.42676">
        <ele>606</ele>
        <time>2017-09-16T10:03:39Z</time>
      </trkpt>
      <trkpt lat="44.37655" lon="2.42675">
        <ele>606</ele>
        <time>2017-09-16T10:03:41Z</time>
      </trkpt>
      <trkpt lat="44.37687" lon="2.42646">
        <ele>602</ele>
        <time>2017-09-16T10:04:10Z</time>
      </trkpt>
      <trkpt lat="44.37689" lon="2.42643">
        <ele>602</ele>
        <time>2017-09-16T10:04:15Z</time>
      </trkpt>
      <trkpt lat="44.37687" lon="2.42641">
        <ele>602</ele>
        <time>2017-09-16T10:04:20Z</time>
      </trkpt>
      <trkpt lat="44.37686" lon="2.42645">
        <ele>602</ele>
        <time>2017-09-16T10:04:24Z</time>
      </trkpt>
      <trkpt lat="44.37681" lon="2.42651">
        <ele>603</ele>
        <time>2017-09-16T10:04:30Z</time>
      </trkpt>
      <trkpt lat="44.37678" lon="2.42653">
        <ele>603</ele>
        <time>2017-09-16T10:04:32Z</time>
      </trkpt>
      <trkpt lat="44.37676" lon="2.42654">
        <ele>603</ele>
        <time>2017-09-16T10:04:34Z</time>
      </trkpt>
      <trkpt lat="44.37674" lon="2.42656">
        <ele>603</ele>
        <time>2017-09-16T10:04:36Z</time>
      </trkpt>
      <trkpt lat="44.37668" lon="2.42663">
        <ele>604</ele>
        <time>2017-09-16T10:04:41Z</time>
      </trkpt>
      <trkpt lat="44.37662" lon="2.42667">
        <ele>605</ele>
        <time>2017-09-16T10:04:45Z</time>
      </trkpt>
      <trkpt lat="44.37661" lon="2.42668">
        <ele>605</ele>
        <time>2017-09-16T10:04:46Z</time>
      </trkpt>
      <trkpt lat="44.37656" lon="2.42675">
        <ele>606</ele>
        <time>2017-09-16T10:04:50Z</time>
      </trkpt>
      <trkpt lat="44.37654" lon="2.42677">
        <ele>606</ele>
        <time>2017-09-16T10:04:52Z</time>
      </trkpt>
      <trkpt lat="44.37647" lon="2.42682">
        <ele>606</ele>
        <time>2017-09-16T10:04:57Z</time>
      </trkpt>
      <trkpt lat="44.37638" lon="2.42691">
        <ele>607</ele>
        <time>2017-09-16T10:05:05Z</time>
      </trkpt>
      <trkpt lat="44.37635" lon="2.42699">
        <ele>607</ele>
        <time>2017-09-16T10:05:09Z</time>
      </trkpt>
      <trkpt lat="44.37634" lon="2.42708">
        <ele>607</ele>
        <time>2017-09-16T10:05:14Z</time>
      </trkpt>
      <trkpt lat="44.37634" lon="2.4272">
        <ele>607</ele>
        <time>2017-09-16T10:05:20Z</time>
      </trkpt>
      <trkpt lat="44.37635" lon="2.42729">
        <ele>606</ele>
        <time>2017-09-16T10:05:24Z</time>
      </trkpt>
      <trkpt lat="44.37636" lon="2.42733">
        <ele>606</ele>
        <time>2017-09-16T10:05:27Z</time>
      </trkpt>
      <trkpt lat="44.37637" lon="2.42739">
        <ele>606</ele>
        <time>2017-09-16T10:05:30Z</time>
      </trkpt>
      <trkpt lat="44.37641" lon="2.42745">
        <ele>606</ele>
        <time>2017-09-16T10:05:35Z</time>
      </trkpt>
      <trkpt lat="44.37649" lon="2.42749">
        <ele>605</ele>
        <time>2017-09-16T10:05:41Z</time>
      </trkpt>
      <trkpt lat="44.37657" lon="2.42757">
        <ele>605</ele>
        <time>2017-09-16T10:05:48Z</time>
      </trkpt>
      <trkpt lat="44.37666" lon="2.42761">
        <ele>605</ele>
        <time>2017-09-16T10:05:55Z</time>
      </trkpt>
      <trkpt lat="44.37673" lon="2.42765">
        <ele>603</ele>
        <time>2017-09-16T10:06:01Z</time>
      </trkpt>
      <trkpt lat="44.37677" lon="2.42766">
        <ele>603</ele>
        <time>2017-09-16T10:06:04Z</time>
      </trkpt>
      <trkpt lat="44.37685" lon="2.42766">
        <ele>603</ele>
        <time>2017-09-16T10:06:10Z</time>
      </trkpt>
      <trkpt lat="44.37692" lon="2.42764">
        <ele>603</ele>
        <time>2017-09-16T10:06:15Z</time>
      </trkpt>
      <trkpt lat="44.37694" lon="2.42763">
        <ele>603</ele>
        <time>2017-09-16T10:06:17Z</time>
      </trkpt>
      <trkpt lat="44.37698" lon="2.42761">
        <ele>603</ele>
        <time>2017-09-16T10:06:20Z</time>
      </trkpt>
      <trkpt lat="44.37701" lon="2.42761">
        <ele>603</ele>
        <time>2017-09-16T10:06:22Z</time>
      </trkpt>
      <trkpt lat="44.37703" lon="2.42761">
        <ele>603</ele>
        <time>2017-09-16T10:06:26Z</time>
      </trkpt>
      <trkpt lat="44.37713" lon="2.42757">
        <ele>602</ele>
        <time>2017-09-16T10:06:36Z</time>
      </trkpt>
      <trkpt lat="44.37715" lon="2.42756">
        <ele>602</ele>
        <time>2017-09-16T10:06:39Z</time>
      </trkpt>
      <trkpt lat="44.37726" lon="2.42753">
        <ele>601</ele>
        <time>2017-09-16T10:06:47Z</time>
      </trkpt>
      <trkpt lat="44.37731" lon="2.42751">
        <ele>600</ele>
        <time>2017-09-16T10:06:51Z</time>
      </trkpt>
      <trkpt lat="44.37749" lon="2.42751">
        <ele>597</ele>
        <time>2017-09-16T10:07:04Z</time>
      </trkpt>
      <trkpt lat="44.37791" lon="2.42745">
        <ele>595</ele>
        <time>2017-09-16T10:07:34Z</time>
      </trkpt>
      <trkpt lat="44.37802" lon="2.42746">
        <ele>595</ele>
        <time>2017-09-16T10:07:42Z</time>
      </trkpt>
      <trkpt lat="44.37845" lon="2.42742">
        <ele>594</ele>
        <time>2017-09-16T10:08:12Z</time>
      </trkpt>
      <trkpt lat="44.37851" lon="2.4274">
        <ele>594</ele>
        <time>2017-09-16T10:08:17Z</time>
      </trkpt>
      <trkpt lat="44.37892" lon="2.42744">
        <ele>592</ele>
        <time>2017-09-16T10:08:47Z</time>
      </trkpt>
      <trkpt lat="44.37906" lon="2.42747">
        <ele>593</ele>
        <time>2017-09-16T10:08:57Z</time>
      </trkpt>
      <trkpt lat="44.37912" lon="2.42749">
        <ele>593</ele>
        <time>2017-09-16T10:09:01Z</time>
      </trkpt>
      <trkpt lat="44.37925" lon="2.42748">
        <ele>592</ele>
        <time>2017-09-16T10:09:09Z</time>
      </trkpt>
      <trkpt lat="44.37936" lon="2.42753">
        <ele>593</ele>
        <time>2017-09-16T10:09:17Z</time>
      </trkpt>
      <trkpt lat="44.37941" lon="2.42757">
        <ele>593</ele>
        <time>2017-09-16T10:09:22Z</time>
      </trkpt>
      <trkpt lat="44.37946" lon="2.42764">
        <ele>593</ele>
        <time>2017-09-16T10:09:27Z</time>
      </trkpt>
      <trkpt lat="44.37949" lon="2.42769">
        <ele>593</ele>
        <time>2017-09-16T10:09:31Z</time>
      </trkpt>
      <trkpt lat="44.37951" lon="2.42772">
        <ele>593</ele>
        <time>2017-09-16T10:09:33Z</time>
      </trkpt>
      <trkpt lat="44.3796" lon="2.42784">
        <ele>593</ele>
        <time>2017-09-16T10:09:42Z</time>
      </trkpt>
      <trkpt lat="44.37967" lon="2.42789">
        <ele>593</ele>
        <time>2017-09-16T10:09:48Z</time>
      </trkpt>
      <trkpt lat="44.37977" lon="2.42789">
        <ele>592</ele>
        <time>2017-09-16T10:09:55Z</time>
      </trkpt>
      <trkpt lat="44.3798" lon="2.42788">
        <ele>592</ele>
        <time>2017-09-16T10:09:57Z</time>
      </trkpt>
      <trkpt lat="44.37985" lon="2.42787">
        <ele>592</ele>
        <time>2017-09-16T10:10:01Z</time>
      </trkpt>
      <trkpt lat="44.37989" lon="2.42788">
        <ele>592</ele>
        <time>2017-09-16T10:10:04Z</time>
      </trkpt>
      <trkpt lat="44.37993" lon="2.42786">
        <ele>592</ele>
        <time>2017-09-16T10:10:07Z</time>
      </trkpt>
      <trkpt lat="44.37996" lon="2.42784">
        <ele>592</ele>
        <time>2017-09-16T10:10:10Z</time>
      </trkpt>
      <trkpt lat="44.37999" lon="2.42778">
        <ele>592</ele>
        <time>2017-09-16T10:10:14Z</time>
      </trkpt>
      <trkpt lat="44.38008" lon="2.42761">
        <ele>588</ele>
        <time>2017-09-16T10:10:25Z</time>
      </trkpt>
      <trkpt lat="44.38019" lon="2.42738">
        <ele>586</ele>
        <time>2017-09-16T10:10:39Z</time>
      </trkpt>
      <trkpt lat="44.38027" lon="2.42713">
        <ele>585</ele>
        <time>2017-09-16T10:10:54Z</time>
      </trkpt>
      <trkpt lat="44.38027" lon="2.42709">
        <ele>584</ele>
        <time>2017-09-16T10:10:56Z</time>
      </trkpt>
      <trkpt lat="44.38028" lon="2.42701">
        <ele>584</ele>
        <time>2017-09-16T10:11:01Z</time>
      </trkpt>
      <trkpt lat="44.38029" lon="2.42697">
        <ele>584</ele>
        <time>2017-09-16T10:11:04Z</time>
      </trkpt>
      <trkpt lat="44.38036" lon="2.42658">
        <ele>582</ele>
        <time>2017-09-16T10:11:25Z</time>
      </trkpt>
      <trkpt lat="44.38037" lon="2.42651">
        <ele>581</ele>
        <time>2017-09-16T10:11:30Z</time>
      </trkpt>
      <trkpt lat="44.38038" lon="2.42645">
        <ele>581</ele>
        <time>2017-09-16T10:11:33Z</time>
      </trkpt>
      <trkpt lat="44.38039" lon="2.42641">
        <ele>581</ele>
        <time>2017-09-16T10:11:35Z</time>
      </trkpt>
      <trkpt lat="44.3804" lon="2.42636">
        <ele>581</ele>
        <time>2017-09-16T10:11:38Z</time>
      </trkpt>
      <trkpt lat="44.38039" lon="2.42632">
        <ele>581</ele>
        <time>2017-09-16T10:11:40Z</time>
      </trkpt>
      <trkpt lat="44.38039" lon="2.42625">
        <ele>581</ele>
        <time>2017-09-16T10:11:44Z</time>
      </trkpt>
      <trkpt lat="44.38039" lon="2.42616">
        <ele>580</ele>
        <time>2017-09-16T10:11:49Z</time>
      </trkpt>
      <trkpt lat="44.38039" lon="2.42608">
        <ele>580</ele>
        <time>2017-09-16T10:11:53Z</time>
      </trkpt>
      <trkpt lat="44.38039" lon="2.42604">
        <ele>580</ele>
        <time>2017-09-16T10:11:55Z</time>
      </trkpt>
      <trkpt lat="44.38038" lon="2.42601">
        <ele>580</ele>
        <time>2017-09-16T10:11:57Z</time>
      </trkpt>
      <trkpt lat="44.38036" lon="2.42599">
        <ele>580</ele>
        <time>2017-09-16T10:11:59Z</time>
      </trkpt>
      <trkpt lat="44.38034" lon="2.42596">
        <ele>580</ele>
        <time>2017-09-16T10:12:02Z</time>
      </trkpt>
      <trkpt lat="44.38027" lon="2.426">
        <ele>580</ele>
        <time>2017-09-16T10:12:10Z</time>
      </trkpt>
      <trkpt lat="44.38018" lon="2.42599">
        <ele>580</ele>
        <time>2017-09-16T10:12:16Z</time>
      </trkpt>
      <trkpt lat="44.38008" lon="2.42606">
        <ele>581</ele>
        <time>2017-09-16T10:12:26Z</time>
      </trkpt>
      <trkpt lat="44.38005" lon="2.42607">
        <ele>581</ele>
        <time>2017-09-16T10:12:29Z</time>
      </trkpt>
      <trkpt lat="44.37999" lon="2.42607">
        <ele>582</ele>
        <time>2017-09-16T10:12:35Z</time>
      </trkpt>
      <trkpt lat="44.37994" lon="2.42608">
        <ele>583</ele>
        <time>2017-09-16T10:12:39Z</time>
      </trkpt>
      <trkpt lat="44.37985" lon="2.42607">
        <ele>583</ele>
        <time>2017-09-16T10:12:47Z</time>
      </trkpt>
      <trkpt lat="44.37977" lon="2.42605">
        <ele>583</ele>
        <time>2017-09-16T10:12:52Z</time>
      </trkpt>
      <trkpt lat="44.37971" lon="2.42597">
        <ele>583</ele>
        <time>2017-09-16T10:12:58Z</time>
      </trkpt>
      <trkpt lat="44.37969" lon="2.42593">
        <ele>583</ele>
        <time>2017-09-16T10:13:00Z</time>
      </trkpt>
      <trkpt lat="44.37967" lon="2.4259">
        <ele>583</ele>
        <time>2017-09-16T10:13:02Z</time>
      </trkpt>
      <trkpt lat="44.37954" lon="2.42569">
        <ele>580</ele>
        <time>2017-09-16T10:13:16Z</time>
      </trkpt>
      <trkpt lat="44.37953" lon="2.42566">
        <ele>580</ele>
        <time>2017-09-16T10:13:18Z</time>
      </trkpt>
      <trkpt lat="44.3795" lon="2.42559">
        <ele>580</ele>
        <time>2017-09-16T10:13:23Z</time>
      </trkpt>
      <trkpt lat="44.37948" lon="2.42554">
        <ele>580</ele>
        <time>2017-09-16T10:13:27Z</time>
      </trkpt>
      <trkpt lat="44.37946" lon="2.42543">
        <ele>580</ele>
        <time>2017-09-16T10:13:34Z</time>
      </trkpt>
      <trkpt lat="44.37946" lon="2.42538">
        <ele>580</ele>
        <time>2017-09-16T10:13:37Z</time>
      </trkpt>
      <trkpt lat="44.37947" lon="2.42532">
        <ele>580</ele>
        <time>2017-09-16T10:13:40Z</time>
      </trkpt>
      <trkpt lat="44.37947" lon="2.4252">
        <ele>580</ele>
        <time>2017-09-16T10:13:47Z</time>
      </trkpt>
      <trkpt lat="44.3795" lon="2.4251">
        <ele>580</ele>
        <time>2017-09-16T10:13:52Z</time>
      </trkpt>
      <trkpt lat="44.37952" lon="2.42506">
        <ele>580</ele>
        <time>2017-09-16T10:13:55Z</time>
      </trkpt>
      <trkpt lat="44.37953" lon="2.42501">
        <ele>580</ele>
        <time>2017-09-16T10:13:58Z</time>
      </trkpt>
      <trkpt lat="44.37955" lon="2.42497">
        <ele>578</ele>
        <time>2017-09-16T10:14:01Z</time>
      </trkpt>
      <trkpt lat="44.37956" lon="2.42492">
        <ele>578</ele>
        <time>2017-09-16T10:14:05Z</time>
      </trkpt>
      <trkpt lat="44.37954" lon="2.4247">
        <ele>578</ele>
        <time>2017-09-16T10:14:17Z</time>
      </trkpt>
      <trkpt lat="44.37941" lon="2.42441">
        <ele>578</ele>
        <time>2017-09-16T10:14:37Z</time>
      </trkpt>
      <trkpt lat="44.3794" lon="2.42436">
        <ele>579</ele>
        <time>2017-09-16T10:14:40Z</time>
      </trkpt>
      <trkpt lat="44.37934" lon="2.42424">
        <ele>579</ele>
        <time>2017-09-16T10:14:51Z</time>
      </trkpt>
      <trkpt lat="44.37932" lon="2.42416">
        <ele>578</ele>
        <time>2017-09-16T10:14:55Z</time>
      </trkpt>
      <trkpt lat="44.37932" lon="2.42411">
        <ele>578</ele>
        <time>2017-09-16T10:14:58Z</time>
      </trkpt>
      <trkpt lat="44.3793" lon="2.42406">
        <ele>578</ele>
        <time>2017-09-16T10:15:01Z</time>
      </trkpt>
      <trkpt lat="44.37929" lon="2.42396">
        <ele>577</ele>
        <time>2017-09-16T10:15:07Z</time>
      </trkpt>
      <trkpt lat="44.37926" lon="2.42387">
        <ele>576</ele>
        <time>2017-09-16T10:15:14Z</time>
      </trkpt>
      <trkpt lat="44.3792" lon="2.42355">
        <ele>576</ele>
        <time>2017-09-16T10:15:32Z</time>
      </trkpt>
      <trkpt lat="44.37914" lon="2.42331">
        <ele>580</ele>
        <time>2017-09-16T10:15:45Z</time>
      </trkpt>
      <trkpt lat="44.37909" lon="2.42305">
        <ele>580</ele>
        <time>2017-09-16T10:15:59Z</time>
      </trkpt>
      <trkpt lat="44.37908" lon="2.42302">
        <ele>580</ele>
        <time>2017-09-16T10:16:01Z</time>
      </trkpt>
      <trkpt lat="44.37907" lon="2.42296">
        <ele>579</ele>
        <time>2017-09-16T10:16:04Z</time>
      </trkpt>
      <trkpt lat="44.37905" lon="2.42285">
        <ele>579</ele>
        <time>2017-09-16T10:16:11Z</time>
      </trkpt>
      <trkpt lat="44.379" lon="2.42251">
        <ele>576</ele>
        <time>2017-09-16T10:16:31Z</time>
      </trkpt>
      <trkpt lat="44.37895" lon="2.4223">
        <ele>572</ele>
        <time>2017-09-16T10:16:42Z</time>
      </trkpt>
      <trkpt lat="44.37875" lon="2.42199">
        <ele>572</ele>
        <time>2017-09-16T10:17:03Z</time>
      </trkpt>
      <trkpt lat="44.37871" lon="2.42197">
        <ele>572</ele>
        <time>2017-09-16T10:17:06Z</time>
      </trkpt>
      <trkpt lat="44.37869" lon="2.42194">
        <ele>573</ele>
        <time>2017-09-16T10:17:09Z</time>
      </trkpt>
      <trkpt lat="44.37867" lon="2.42192">
        <ele>573</ele>
        <time>2017-09-16T10:17:11Z</time>
      </trkpt>
      <trkpt lat="44.37864" lon="2.42188">
        <ele>573</ele>
        <time>2017-09-16T10:17:14Z</time>
      </trkpt>
      <trkpt lat="44.37863" lon="2.42185">
        <ele>573</ele>
        <time>2017-09-16T10:17:17Z</time>
      </trkpt>
      <trkpt lat="44.37858" lon="2.42182">
        <ele>573</ele>
        <time>2017-09-16T10:17:21Z</time>
      </trkpt>
      <trkpt lat="44.37857" lon="2.42178">
        <ele>574</ele>
        <time>2017-09-16T10:17:23Z</time>
      </trkpt>
      <trkpt lat="44.37856" lon="2.42176">
        <ele>574</ele>
        <time>2017-09-16T10:17:25Z</time>
      </trkpt>
      <trkpt lat="44.37856" lon="2.42165">
        <ele>570</ele>
        <time>2017-09-16T10:17:31Z</time>
      </trkpt>
      <trkpt lat="44.37859" lon="2.42154">
        <ele>569</ele>
        <time>2017-09-16T10:17:38Z</time>
      </trkpt>
      <trkpt lat="44.37865" lon="2.42147">
        <ele>567</ele>
        <time>2017-09-16T10:17:57Z</time>
      </trkpt>
      <trkpt lat="44.37869" lon="2.42143">
        <ele>566</ele>
        <time>2017-09-16T10:18:02Z</time>
      </trkpt>
      <trkpt lat="44.3787" lon="2.42138">
        <ele>566</ele>
        <time>2017-09-16T10:18:05Z</time>
      </trkpt>
      <trkpt lat="44.37873" lon="2.42134">
        <ele>565</ele>
        <time>2017-09-16T10:18:09Z</time>
      </trkpt>
      <trkpt lat="44.37879" lon="2.42124">
        <ele>564</ele>
        <time>2017-09-16T10:18:16Z</time>
      </trkpt>
      <trkpt lat="44.37883" lon="2.42114">
        <ele>563</ele>
        <time>2017-09-16T10:18:22Z</time>
      </trkpt>
      <trkpt lat="44.37885" lon="2.42106">
        <ele>563</ele>
        <time>2017-09-16T10:18:27Z</time>
      </trkpt>
      <trkpt lat="44.37889" lon="2.42082">
        <ele>555</ele>
        <time>2017-09-16T10:18:41Z</time>
      </trkpt>
      <trkpt lat="44.3789" lon="2.42076">
        <ele>555</ele>
        <time>2017-09-16T10:18:45Z</time>
      </trkpt>
      <trkpt lat="44.37892" lon="2.42065">
        <ele>554</ele>
        <time>2017-09-16T10:18:51Z</time>
      </trkpt>
      <trkpt lat="44.37891" lon="2.42054">
        <ele>554</ele>
        <time>2017-09-16T10:18:57Z</time>
      </trkpt>
      <trkpt lat="44.37888" lon="2.42044">
        <ele>553</ele>
        <time>2017-09-16T10:19:03Z</time>
      </trkpt>
      <trkpt lat="44.37886" lon="2.4204">
        <ele>553</ele>
        <time>2017-09-16T10:19:06Z</time>
      </trkpt>
      <trkpt lat="44.37882" lon="2.42039">
        <ele>553</ele>
        <time>2017-09-16T10:19:09Z</time>
      </trkpt>
      <trkpt lat="44.37879" lon="2.42036">
        <ele>553</ele>
        <time>2017-09-16T10:19:12Z</time>
      </trkpt>
      <trkpt lat="44.37876" lon="2.42033">
        <ele>553</ele>
        <time>2017-09-16T10:19:14Z</time>
      </trkpt>
      <trkpt lat="44.37872" lon="2.42031">
        <ele>553</ele>
        <time>2017-09-16T10:19:17Z</time>
      </trkpt>
      <trkpt lat="44.37868" lon="2.4203">
        <ele>553</ele>
        <time>2017-09-16T10:19:20Z</time>
      </trkpt>
      <trkpt lat="44.37865" lon="2.42028">
        <ele>553</ele>
        <time>2017-09-16T10:19:23Z</time>
      </trkpt>
      <trkpt lat="44.37861" lon="2.42027">
        <ele>553</ele>
        <time>2017-09-16T10:19:26Z</time>
      </trkpt>
      <trkpt lat="44.37859" lon="2.42027">
        <ele>553</ele>
        <time>2017-09-16T10:19:28Z</time>
      </trkpt>
      <trkpt lat="44.37853" lon="2.42027">
        <ele>553</ele>
        <time>2017-09-16T10:19:31Z</time>
      </trkpt>
      <trkpt lat="44.3785" lon="2.42028">
        <ele>553</ele>
        <time>2017-09-16T10:19:34Z</time>
      </trkpt>
      <trkpt lat="44.37842" lon="2.42028">
        <ele>553</ele>
        <time>2017-09-16T10:19:40Z</time>
      </trkpt>
      <trkpt lat="44.37827" lon="2.42033">
        <ele>556</ele>
        <time>2017-09-16T10:19:52Z</time>
      </trkpt>
      <trkpt lat="44.37787" lon="2.42035">
        <ele>556</ele>
        <time>2017-09-16T10:20:23Z</time>
      </trkpt>
      <trkpt lat="44.3777" lon="2.42029">
        <ele>555</ele>
        <time>2017-09-16T10:20:36Z</time>
      </trkpt>
      <trkpt lat="44.37768" lon="2.42027">
        <ele>554</ele>
        <time>2017-09-16T10:20:38Z</time>
      </trkpt>
      <trkpt lat="44.37766" lon="2.42024">
        <ele>554</ele>
        <time>2017-09-16T10:20:40Z</time>
      </trkpt>
      <trkpt lat="44.37757" lon="2.42013">
        <ele>550</ele>
        <time>2017-09-16T10:20:50Z</time>
      </trkpt>
      <trkpt lat="44.37752" lon="2.42006">
        <ele>548</ele>
        <time>2017-09-16T10:20:54Z</time>
      </trkpt>
      <trkpt lat="44.37751" lon="2.42001">
        <ele>546</ele>
        <time>2017-09-16T10:20:56Z</time>
      </trkpt>
      <trkpt lat="44.37746" lon="2.4199">
        <ele>545</ele>
        <time>2017-09-16T10:21:02Z</time>
      </trkpt>
      <trkpt lat="44.37741" lon="2.41984">
        <ele>545</ele>
        <time>2017-09-16T10:21:07Z</time>
      </trkpt>
      <trkpt lat="44.37739" lon="2.41981">
        <ele>544</ele>
        <time>2017-09-16T10:21:10Z</time>
      </trkpt>
      <trkpt lat="44.37735" lon="2.41973">
        <ele>544</ele>
        <time>2017-09-16T10:21:15Z</time>
      </trkpt>
      <trkpt lat="44.37734" lon="2.41968">
        <ele>544</ele>
        <time>2017-09-16T10:21:18Z</time>
      </trkpt>
      <trkpt lat="44.37731" lon="2.41962">
        <ele>543</ele>
        <time>2017-09-16T10:21:22Z</time>
      </trkpt>
      <trkpt lat="44.37727" lon="2.41947">
        <ele>542</ele>
        <time>2017-09-16T10:21:52Z</time>
      </trkpt>
      <trkpt lat="44.37724" lon="2.41942">
        <ele>542</ele>
        <time>2017-09-16T10:21:55Z</time>
      </trkpt>
      <trkpt lat="44.37723" lon="2.41939">
        <ele>542</ele>
        <time>2017-09-16T10:21:57Z</time>
      </trkpt>
      <trkpt lat="44.37725" lon="2.41928">
        <ele>540</ele>
        <time>2017-09-16T10:22:03Z</time>
      </trkpt>
      <trkpt lat="44.37726" lon="2.41921">
        <ele>540</ele>
        <time>2017-09-16T10:22:09Z</time>
      </trkpt>
      <trkpt lat="44.37735" lon="2.41891">
        <ele>535</ele>
        <time>2017-09-16T10:22:30Z</time>
      </trkpt>
      <trkpt lat="44.37736" lon="2.41887">
        <ele>535</ele>
        <time>2017-09-16T10:22:32Z</time>
      </trkpt>
      <trkpt lat="44.3774" lon="2.4185">
        <ele>535</ele>
        <time>2017-09-16T10:22:52Z</time>
      </trkpt>
      <trkpt lat="44.3774" lon="2.41846">
        <ele>535</ele>
        <time>2017-09-16T10:22:54Z</time>
      </trkpt>
      <trkpt lat="44.3774" lon="2.41841">
        <ele>535</ele>
        <time>2017-09-16T10:22:56Z</time>
      </trkpt>
      <trkpt lat="44.3774" lon="2.41828">
        <ele>536</ele>
        <time>2017-09-16T10:23:02Z</time>
      </trkpt>
      <trkpt lat="44.3774" lon="2.41824">
        <ele>536</ele>
        <time>2017-09-16T10:23:04Z</time>
      </trkpt>
      <trkpt lat="44.37739" lon="2.41816">
        <ele>536</ele>
        <time>2017-09-16T10:23:08Z</time>
      </trkpt>
      <trkpt lat="44.37739" lon="2.418">
        <ele>537</ele>
        <time>2017-09-16T10:23:17Z</time>
      </trkpt>
      <trkpt lat="44.37738" lon="2.41796">
        <ele>538</ele>
        <time>2017-09-16T10:23:19Z</time>
      </trkpt>
      <trkpt lat="44.37739" lon="2.41787">
        <ele>539</ele>
        <time>2017-09-16T10:23:25Z</time>
      </trkpt>
      <trkpt lat="44.37736" lon="2.41764">
        <ele>541</ele>
        <time>2017-09-16T10:23:37Z</time>
      </trkpt>
      <trkpt lat="44.37736" lon="2.41756">
        <ele>542</ele>
        <time>2017-09-16T10:23:42Z</time>
      </trkpt>
      <trkpt lat="44.37736" lon="2.4175">
        <ele>545</ele>
        <time>2017-09-16T10:23:46Z</time>
      </trkpt>
      <trkpt lat="44.37735" lon="2.41746">
        <ele>545</ele>
        <time>2017-09-16T10:23:48Z</time>
      </trkpt>
      <trkpt lat="44.37735" lon="2.41742">
        <ele>545</ele>
        <time>2017-09-16T10:23:53Z</time>
      </trkpt>
      <trkpt lat="44.37734" lon="2.41739">
        <ele>545</ele>
        <time>2017-09-16T10:23:55Z</time>
      </trkpt>
      <trkpt lat="44.37734" lon="2.41737">
        <ele>545</ele>
        <time>2017-09-16T10:23:57Z</time>
      </trkpt>
      <trkpt lat="44.37734" lon="2.41734">
        <ele>545</ele>
        <time>2017-09-16T10:23:59Z</time>
      </trkpt>
      <trkpt lat="44.37734" lon="2.4173">
        <ele>546</ele>
        <time>2017-09-16T10:24:02Z</time>
      </trkpt>
      <trkpt lat="44.37733" lon="2.41725">
        <ele>546</ele>
        <time>2017-09-16T10:24:04Z</time>
      </trkpt>
      <trkpt lat="44.37731" lon="2.41722">
        <ele>546</ele>
        <time>2017-09-16T10:24:06Z</time>
      </trkpt>
      <trkpt lat="44.37731" lon="2.41718">
        <ele>546</ele>
        <time>2017-09-16T10:24:08Z</time>
      </trkpt>
      <trkpt lat="44.37731" lon="2.41709">
        <ele>546</ele>
        <time>2017-09-16T10:24:14Z</time>
      </trkpt>
      <trkpt lat="44.37731" lon="2.41699">
        <ele>547</ele>
        <time>2017-09-16T10:24:21Z</time>
      </trkpt>
      <trkpt lat="44.37731" lon="2.41686">
        <ele>548</ele>
        <time>2017-09-16T10:24:29Z</time>
      </trkpt>
      <trkpt lat="44.37731" lon="2.4168">
        <ele>549</ele>
        <time>2017-09-16T10:24:32Z</time>
      </trkpt>
      <trkpt lat="44.3773" lon="2.41668">
        <ele>549</ele>
        <time>2017-09-16T10:24:38Z</time>
      </trkpt>
      <trkpt lat="44.37731" lon="2.41656">
        <ele>554</ele>
        <time>2017-09-16T10:24:45Z</time>
      </trkpt>
      <trkpt lat="44.37732" lon="2.41645">
        <ele>554</ele>
        <time>2017-09-16T10:24:53Z</time>
      </trkpt>
      <trkpt lat="44.37735" lon="2.41641">
        <ele>554</ele>
        <time>2017-09-16T10:24:58Z</time>
      </trkpt>
      <trkpt lat="44.37737" lon="2.41639">
        <ele>554</ele>
        <time>2017-09-16T10:25:02Z</time>
      </trkpt>
      <trkpt lat="44.37744" lon="2.4164">
        <ele>554</ele>
        <time>2017-09-16T10:25:07Z</time>
      </trkpt>
      <trkpt lat="44.37767" lon="2.41636">
        <ele>553</ele>
        <time>2017-09-16T10:25:26Z</time>
      </trkpt>
      <trkpt lat="44.37776" lon="2.41629">
        <ele>552</ele>
        <time>2017-09-16T10:25:34Z</time>
      </trkpt>
      <trkpt lat="44.3778" lon="2.41625">
        <ele>552</ele>
        <time>2017-09-16T10:25:37Z</time>
      </trkpt>
      <trkpt lat="44.37782" lon="2.41621">
        <ele>552</ele>
        <time>2017-09-16T10:25:40Z</time>
      </trkpt>
      <trkpt lat="44.37783" lon="2.41616">
        <ele>552</ele>
        <time>2017-09-16T10:25:43Z</time>
      </trkpt>
      <trkpt lat="44.37776" lon="2.41596">
        <ele>553</ele>
        <time>2017-09-16T10:25:55Z</time>
      </trkpt>
      <trkpt lat="44.3775" lon="2.41558">
        <ele>560</ele>
        <time>2017-09-16T10:26:26Z</time>
      </trkpt>
      <trkpt lat="44.3774" lon="2.41547">
        <ele>561</ele>
        <time>2017-09-16T10:26:37Z</time>
      </trkpt>
      <trkpt lat="44.37723" lon="2.41506">
        <ele>562</ele>
        <time>2017-09-16T10:27:03Z</time>
      </trkpt>
      <trkpt lat="44.37721" lon="2.41502">
        <ele>562</ele>
        <time>2017-09-16T10:27:06Z</time>
      </trkpt>
      <trkpt lat="44.37713" lon="2.41485">
        <ele>567</ele>
        <time>2017-09-16T10:27:18Z</time>
      </trkpt>
      <trkpt lat="44.37712" lon="2.41482">
        <ele>568</ele>
        <time>2017-09-16T10:27:21Z</time>
      </trkpt>
      <trkpt lat="44.3771" lon="2.41474">
        <ele>568</ele>
        <time>2017-09-16T10:27:28Z</time>
      </trkpt>
      <trkpt lat="44.37704" lon="2.41462">
        <ele>569</ele>
        <time>2017-09-16T10:27:37Z</time>
      </trkpt>
      <trkpt lat="44.37695" lon="2.41423">
        <ele>572</ele>
        <time>2017-09-16T10:27:57Z</time>
      </trkpt>
      <trkpt lat="44.37686" lon="2.41407">
        <ele>577</ele>
        <time>2017-09-16T10:28:07Z</time>
      </trkpt>
      <trkpt lat="44.37681" lon="2.414">
        <ele>577</ele>
        <time>2017-09-16T10:28:12Z</time>
      </trkpt>
      <trkpt lat="44.37676" lon="2.41392">
        <ele>577</ele>
        <time>2017-09-16T10:28:17Z</time>
      </trkpt>
      <trkpt lat="44.3767" lon="2.41386">
        <ele>577</ele>
        <time>2017-09-16T10:28:23Z</time>
      </trkpt>
      <trkpt lat="44.37667" lon="2.41381">
        <ele>577</ele>
        <time>2017-09-16T10:28:26Z</time>
      </trkpt>
      <trkpt lat="44.37646" lon="2.41359">
        <ele>584</ele>
        <time>2017-09-16T10:28:45Z</time>
      </trkpt>
      <trkpt lat="44.37643" lon="2.41354">
        <ele>584</ele>
        <time>2017-09-16T10:28:49Z</time>
      </trkpt>
      <trkpt lat="44.37634" lon="2.41347">
        <ele>585</ele>
        <time>2017-09-16T10:28:57Z</time>
      </trkpt>
      <trkpt lat="44.3763" lon="2.41343">
        <ele>585</ele>
        <time>2017-09-16T10:29:01Z</time>
      </trkpt>
      <trkpt lat="44.37623" lon="2.41338">
        <ele>586</ele>
        <time>2017-09-16T10:29:08Z</time>
      </trkpt>
      <trkpt lat="44.37619" lon="2.41332">
        <ele>588</ele>
        <time>2017-09-16T10:29:13Z</time>
      </trkpt>
      <trkpt lat="44.37617" lon="2.41325">
        <ele>588</ele>
        <time>2017-09-16T10:29:18Z</time>
      </trkpt>
      <trkpt lat="44.37615" lon="2.41319">
        <ele>589</ele>
        <time>2017-09-16T10:29:23Z</time>
      </trkpt>
      <trkpt lat="44.37614" lon="2.41312">
        <ele>589</ele>
        <time>2017-09-16T10:29:28Z</time>
      </trkpt>
      <trkpt lat="44.37612" lon="2.41306">
        <ele>589</ele>
        <time>2017-09-16T10:29:31Z</time>
      </trkpt>
      <trkpt lat="44.3761" lon="2.41299">
        <ele>589</ele>
        <time>2017-09-16T10:29:35Z</time>
      </trkpt>
      <trkpt lat="44.37596" lon="2.41276">
        <ele>591</ele>
        <time>2017-09-16T10:29:47Z</time>
      </trkpt>
      <trkpt lat="44.37592" lon="2.41265">
        <ele>593</ele>
        <time>2017-09-16T10:29:54Z</time>
      </trkpt>
      <trkpt lat="44.37592" lon="2.4126">
        <ele>593</ele>
        <time>2017-09-16T10:29:59Z</time>
      </trkpt>
      <trkpt lat="44.37595" lon="2.41253">
        <ele>594</ele>
        <time>2017-09-16T10:30:03Z</time>
      </trkpt>
      <trkpt lat="44.37598" lon="2.4124">
        <ele>594</ele>
        <time>2017-09-16T10:30:10Z</time>
      </trkpt>
      <trkpt lat="44.37597" lon="2.41233">
        <ele>594</ele>
        <time>2017-09-16T10:30:13Z</time>
      </trkpt>
      <trkpt lat="44.37594" lon="2.41212">
        <ele>594</ele>
        <time>2017-09-16T10:30:23Z</time>
      </trkpt>
      <trkpt lat="44.3759" lon="2.41193">
        <ele>595</ele>
        <time>2017-09-16T10:30:32Z</time>
      </trkpt>
      <trkpt lat="44.37587" lon="2.41181">
        <ele>596</ele>
        <time>2017-09-16T10:30:39Z</time>
      </trkpt>
      <trkpt lat="44.37586" lon="2.41177">
        <ele>597</ele>
        <time>2017-09-16T10:30:41Z</time>
      </trkpt>
      <trkpt lat="44.37587" lon="2.41172">
        <ele>597</ele>
        <time>2017-09-16T10:30:44Z</time>
      </trkpt>
      <trkpt lat="44.37578" lon="2.41138">
        <ele>600</ele>
        <time>2017-09-16T10:31:02Z</time>
      </trkpt>
      <trkpt lat="44.37577" lon="2.41135">
        <ele>601</ele>
        <time>2017-09-16T10:31:04Z</time>
      </trkpt>
      <trkpt lat="44.37574" lon="2.41131">
        <ele>601</ele>
        <time>2017-09-16T10:31:07Z</time>
      </trkpt>
      <trkpt lat="44.37573" lon="2.41127">
        <ele>601</ele>
        <time>2017-09-16T10:31:10Z</time>
      </trkpt>
      <trkpt lat="44.37572" lon="2.41123">
        <ele>601</ele>
        <time>2017-09-16T10:31:12Z</time>
      </trkpt>
      <trkpt lat="44.37572" lon="2.41116">
        <ele>601</ele>
        <time>2017-09-16T10:31:15Z</time>
      </trkpt>
      <trkpt lat="44.37564" lon="2.41083">
        <ele>601</ele>
        <time>2017-09-16T10:31:35Z</time>
      </trkpt>
      <trkpt lat="44.37563" lon="2.41084">
        <ele>601</ele>
        <time>2017-09-16T10:33:16Z</time>
      </trkpt>
      <trkpt lat="44.37564" lon="2.41081">
        <ele>601</ele>
        <time>2017-09-16T10:33:28Z</time>
      </trkpt>
      <trkpt lat="44.37551" lon="2.41027">
        <ele>601</ele>
        <time>2017-09-16T10:33:59Z</time>
      </trkpt>
      <trkpt lat="44.37549" lon="2.41024">
        <ele>601</ele>
        <time>2017-09-16T10:34:02Z</time>
      </trkpt>
      <trkpt lat="44.37548" lon="2.41014">
        <ele>601</ele>
        <time>2017-09-16T10:34:08Z</time>
      </trkpt>
      <trkpt lat="44.37546" lon="2.41006">
        <ele>601</ele>
        <time>2017-09-16T10:34:12Z</time>
      </trkpt>
      <trkpt lat="44.37544" lon="2.41003">
        <ele>601</ele>
        <time>2017-09-16T10:34:14Z</time>
      </trkpt>
      <trkpt lat="44.37535" lon="2.40949">
        <ele>602</ele>
        <time>2017-09-16T10:34:44Z</time>
      </trkpt>
      <trkpt lat="44.37531" lon="2.40913">
        <ele>603</ele>
        <time>2017-09-16T10:35:03Z</time>
      </trkpt>
      <trkpt lat="44.37528" lon="2.40903">
        <ele>603</ele>
        <time>2017-09-16T10:35:09Z</time>
      </trkpt>
      <trkpt lat="44.37528" lon="2.40899">
        <ele>603</ele>
        <time>2017-09-16T10:35:11Z</time>
      </trkpt>
      <trkpt lat="44.37529" lon="2.40889">
        <ele>603</ele>
        <time>2017-09-16T10:35:17Z</time>
      </trkpt>
      <trkpt lat="44.37529" lon="2.40886">
        <ele>603</ele>
        <time>2017-09-16T10:35:19Z</time>
      </trkpt>
      <trkpt lat="44.37528" lon="2.40882">
        <ele>603</ele>
        <time>2017-09-16T10:35:21Z</time>
      </trkpt>
      <trkpt lat="44.37528" lon="2.40878">
        <ele>603</ele>
        <time>2017-09-16T10:35:23Z</time>
      </trkpt>
      <trkpt lat="44.37531" lon="2.40871">
        <ele>603</ele>
        <time>2017-09-16T10:35:27Z</time>
      </trkpt>
      <trkpt lat="44.37536" lon="2.40848">
        <ele>603</ele>
        <time>2017-09-16T10:35:41Z</time>
      </trkpt>
      <trkpt lat="44.37537" lon="2.40845">
        <ele>603</ele>
        <time>2017-09-16T10:35:43Z</time>
      </trkpt>
      <trkpt lat="44.37552" lon="2.40795">
        <ele>607</ele>
        <time>2017-09-16T10:36:13Z</time>
      </trkpt>
      <trkpt lat="44.37555" lon="2.40788">
        <ele>607</ele>
        <time>2017-09-16T10:36:18Z</time>
      </trkpt>
      <trkpt lat="44.37556" lon="2.40785">
        <ele>607</ele>
        <time>2017-09-16T10:36:20Z</time>
      </trkpt>
      <trkpt lat="44.37554" lon="2.40786">
        <ele>607</ele>
        <time>2017-09-16T10:37:07Z</time>
      </trkpt>
      <trkpt lat="44.37552" lon="2.40786">
        <ele>607</ele>
        <time>2017-09-16T10:37:09Z</time>
      </trkpt>
      <trkpt lat="44.37549" lon="2.40806">
        <ele>606</ele>
        <time>2017-09-16T10:37:21Z</time>
      </trkpt>
      <trkpt lat="44.37543" lon="2.4082">
        <ele>606</ele>
        <time>2017-09-16T10:37:29Z</time>
      </trkpt>
      <trkpt lat="44.37539" lon="2.40834">
        <ele>603</ele>
        <time>2017-09-16T10:37:37Z</time>
      </trkpt>
      <trkpt lat="44.37529" lon="2.4086">
        <ele>603</ele>
        <time>2017-09-16T10:37:51Z</time>
      </trkpt>
      <trkpt lat="44.37528" lon="2.40867">
        <ele>603</ele>
        <time>2017-09-16T10:37:55Z</time>
      </trkpt>
      <trkpt lat="44.37526" lon="2.4087">
        <ele>603</ele>
        <time>2017-09-16T10:37:57Z</time>
      </trkpt>
      <trkpt lat="44.37524" lon="2.40872">
        <ele>603</ele>
        <time>2017-09-16T10:37:59Z</time>
      </trkpt>
      <trkpt lat="44.37522" lon="2.40872">
        <ele>603</ele>
        <time>2017-09-16T10:38:01Z</time>
      </trkpt>
      <trkpt lat="44.37519" lon="2.40871">
        <ele>603</ele>
        <time>2017-09-16T10:38:03Z</time>
      </trkpt>
      <trkpt lat="44.37517" lon="2.40861">
        <ele>603</ele>
        <time>2017-09-16T10:38:09Z</time>
      </trkpt>
      <trkpt lat="44.37513" lon="2.40851">
        <ele>603</ele>
        <time>2017-09-16T10:38:15Z</time>
      </trkpt>
      <trkpt lat="44.37512" lon="2.40848">
        <ele>603</ele>
        <time>2017-09-16T10:38:17Z</time>
      </trkpt>
      <trkpt lat="44.37503" lon="2.40827">
        <ele>605</ele>
        <time>2017-09-16T10:38:31Z</time>
      </trkpt>
      <trkpt lat="44.37502" lon="2.4082">
        <ele>605</ele>
        <time>2017-09-16T10:38:35Z</time>
      </trkpt>
      <trkpt lat="44.375" lon="2.40816">
        <ele>600</ele>
        <time>2017-09-16T10:38:38Z</time>
      </trkpt>
      <trkpt lat="44.37496" lon="2.40805">
        <ele>599</ele>
        <time>2017-09-16T10:38:44Z</time>
      </trkpt>
      <trkpt lat="44.37498" lon="2.40805">
        <ele>599</ele>
        <time>2017-09-16T10:39:49Z</time>
      </trkpt>
      <trkpt lat="44.37496" lon="2.40804">
        <ele>599</ele>
        <time>2017-09-16T10:40:07Z</time>
      </trkpt>
      <trkpt lat="44.37496" lon="2.40801">
        <ele>599</ele>
        <time>2017-09-16T10:41:07Z</time>
      </trkpt>
      <trkpt lat="44.37495" lon="2.408">
        <ele>599</ele>
        <time>2017-09-16T10:42:56Z</time>
      </trkpt>
      <trkpt lat="44.37495" lon="2.40798">
        <ele>599</ele>
        <time>2017-09-16T10:43:44Z</time>
      </trkpt>
      <trkpt lat="44.37494" lon="2.40797">
        <ele>599</ele>
        <time>2017-09-16T10:44:14Z</time>
      </trkpt>
      <trkpt lat="44.37492" lon="2.40793">
        <ele>599</ele>
        <time>2017-09-16T10:44:18Z</time>
      </trkpt>
      <trkpt lat="44.37488" lon="2.40785">
        <ele>599</ele>
        <time>2017-09-16T10:44:24Z</time>
      </trkpt>
      <trkpt lat="44.37478" lon="2.40766">
        <ele>599</ele>
        <time>2017-09-16T10:44:38Z</time>
      </trkpt>
      <trkpt lat="44.37476" lon="2.4076">
        <ele>599</ele>
        <time>2017-09-16T10:44:43Z</time>
      </trkpt>
      <trkpt lat="44.37474" lon="2.40758">
        <ele>599</ele>
        <time>2017-09-16T10:44:45Z</time>
      </trkpt>
      <trkpt lat="44.37473" lon="2.40755">
        <ele>599</ele>
        <time>2017-09-16T10:44:49Z</time>
      </trkpt>
      <trkpt lat="44.3747" lon="2.40751">
        <ele>598</ele>
        <time>2017-09-16T10:44:58Z</time>
      </trkpt>
      <trkpt lat="44.37451" lon="2.40712">
        <ele>598</ele>
        <time>2017-09-16T10:45:25Z</time>
      </trkpt>
      <trkpt lat="44.37443" lon="2.4068">
        <ele>598</ele>
        <time>2017-09-16T10:45:43Z</time>
      </trkpt>
      <trkpt lat="44.3744" lon="2.4067">
        <ele>597</ele>
        <time>2017-09-16T10:45:50Z</time>
      </trkpt>
      <trkpt lat="44.37437" lon="2.40662">
        <ele>599</ele>
        <time>2017-09-16T10:45:55Z</time>
      </trkpt>
      <trkpt lat="44.37416" lon="2.40618">
        <ele>589</ele>
        <time>2017-09-16T10:46:25Z</time>
      </trkpt>
      <trkpt lat="44.37394" lon="2.40576">
        <ele>595</ele>
        <time>2017-09-16T10:46:55Z</time>
      </trkpt>
      <trkpt lat="44.37383" lon="2.40559">
        <ele>595</ele>
        <time>2017-09-16T10:47:06Z</time>
      </trkpt>
      <trkpt lat="44.3737" lon="2.4055">
        <ele>594</ele>
        <time>2017-09-16T10:47:17Z</time>
      </trkpt>
      <trkpt lat="44.37335" lon="2.40539">
        <ele>593</ele>
        <time>2017-09-16T10:47:48Z</time>
      </trkpt>
      <trkpt lat="44.37332" lon="2.40536">
        <ele>582</ele>
        <time>2017-09-16T10:47:51Z</time>
      </trkpt>
      <trkpt lat="44.37329" lon="2.40533">
        <ele>583</ele>
        <time>2017-09-16T10:47:55Z</time>
      </trkpt>
      <trkpt lat="44.37318" lon="2.40521">
        <ele>584</ele>
        <time>2017-09-16T10:48:06Z</time>
      </trkpt>
      <trkpt lat="44.37306" lon="2.40503">
        <ele>583</ele>
        <time>2017-09-16T10:48:20Z</time>
      </trkpt>
      <trkpt lat="44.373" lon="2.40496">
        <ele>589</ele>
        <time>2017-09-16T10:48:26Z</time>
      </trkpt>
      <trkpt lat="44.37278" lon="2.40481">
        <ele>587</ele>
        <time>2017-09-16T10:48:45Z</time>
      </trkpt>
      <trkpt lat="44.37275" lon="2.40481">
        <ele>586</ele>
        <time>2017-09-16T10:48:48Z</time>
      </trkpt>
      <trkpt lat="44.37255" lon="2.40478">
        <ele>584</ele>
        <time>2017-09-16T10:49:03Z</time>
      </trkpt>
      <trkpt lat="44.37217" lon="2.40466">
        <ele>575</ele>
        <time>2017-09-16T10:49:33Z</time>
      </trkpt>
      <trkpt lat="44.37204" lon="2.40459">
        <ele>574</ele>
        <time>2017-09-16T10:49:45Z</time>
      </trkpt>
      <trkpt lat="44.37177" lon="2.40444">
        <ele>573</ele>
        <time>2017-09-16T10:50:15Z</time>
      </trkpt>
      <trkpt lat="44.37172" lon="2.40439">
        <ele>572</ele>
        <time>2017-09-16T10:50:21Z</time>
      </trkpt>
      <trkpt lat="44.37159" lon="2.40416">
        <ele>567</ele>
        <time>2017-09-16T10:50:39Z</time>
      </trkpt>
      <trkpt lat="44.3715" lon="2.40399">
        <ele>563</ele>
        <time>2017-09-16T10:50:52Z</time>
      </trkpt>
      <trkpt lat="44.37142" lon="2.40373">
        <ele>560</ele>
        <time>2017-09-16T10:51:08Z</time>
      </trkpt>
      <trkpt lat="44.3714" lon="2.40363">
        <ele>560</ele>
        <time>2017-09-16T10:51:14Z</time>
      </trkpt>
      <trkpt lat="44.37138" lon="2.40344">
        <ele>561</ele>
        <time>2017-09-16T10:51:25Z</time>
      </trkpt>
      <trkpt lat="44.37139" lon="2.40322">
        <ele>565</ele>
        <time>2017-09-16T10:51:38Z</time>
      </trkpt>
      <trkpt lat="44.37141" lon="2.4031">
        <ele>565</ele>
        <time>2017-09-16T10:51:46Z</time>
      </trkpt>
      <trkpt lat="44.37142" lon="2.40303">
        <ele>566</ele>
        <time>2017-09-16T10:51:50Z</time>
      </trkpt>
      <trkpt lat="44.37142" lon="2.40297">
        <ele>566</ele>
        <time>2017-09-16T10:51:54Z</time>
      </trkpt>
      <trkpt lat="44.37133" lon="2.4028">
        <ele>566</ele>
        <time>2017-09-16T10:52:08Z</time>
      </trkpt>
      <trkpt lat="44.37129" lon="2.40278">
        <ele>566</ele>
        <time>2017-09-16T10:52:26Z</time>
      </trkpt>
      <trkpt lat="44.3712" lon="2.40273">
        <ele>565</ele>
        <time>2017-09-16T10:52:33Z</time>
      </trkpt>
      <trkpt lat="44.37117" lon="2.40271">
        <ele>565</ele>
        <time>2017-09-16T10:52:37Z</time>
      </trkpt>
      <trkpt lat="44.37113" lon="2.40269">
        <ele>564</ele>
        <time>2017-09-16T10:52:40Z</time>
      </trkpt>
      <trkpt lat="44.3711" lon="2.40266">
        <ele>564</ele>
        <time>2017-09-16T10:52:43Z</time>
      </trkpt>
      <trkpt lat="44.37072" lon="2.40253">
        <ele>555</ele>
        <time>2017-09-16T10:53:13Z</time>
      </trkpt>
      <trkpt lat="44.3707" lon="2.40253">
        <ele>554</ele>
        <time>2017-09-16T10:53:15Z</time>
      </trkpt>
      <trkpt lat="44.37068" lon="2.40252">
        <ele>554</ele>
        <time>2017-09-16T10:53:17Z</time>
      </trkpt>
      <trkpt lat="44.37037" lon="2.40231">
        <ele>557</ele>
        <time>2017-09-16T10:53:46Z</time>
      </trkpt>
      <trkpt lat="44.37034" lon="2.40229">
        <ele>557</ele>
        <time>2017-09-16T10:53:48Z</time>
      </trkpt>
      <trkpt lat="44.37024" lon="2.40216">
        <ele>557</ele>
        <time>2017-09-16T10:53:59Z</time>
      </trkpt>
      <trkpt lat="44.36994" lon="2.40181">
        <ele>549</ele>
        <time>2017-09-16T10:54:30Z</time>
      </trkpt>
      <trkpt lat="44.36983" lon="2.40169">
        <ele>549</ele>
        <time>2017-09-16T10:54:42Z</time>
      </trkpt>
      <trkpt lat="44.36977" lon="2.40161">
        <ele>554</ele>
        <time>2017-09-16T10:54:49Z</time>
      </trkpt>
      <trkpt lat="44.36975" lon="2.40159">
        <ele>554</ele>
        <time>2017-09-16T10:54:51Z</time>
      </trkpt>
      <trkpt lat="44.36972" lon="2.40154">
        <ele>553</ele>
        <time>2017-09-16T10:54:55Z</time>
      </trkpt>
      <trkpt lat="44.36969" lon="2.40151">
        <ele>553</ele>
        <time>2017-09-16T10:54:57Z</time>
      </trkpt>
      <trkpt lat="44.36967" lon="2.4015">
        <ele>553</ele>
        <time>2017-09-16T10:54:59Z</time>
      </trkpt>
      <trkpt lat="44.3695" lon="2.40128">
        <ele>552</ele>
        <time>2017-09-16T10:55:17Z</time>
      </trkpt>
      <trkpt lat="44.36948" lon="2.40126">
        <ele>552</ele>
        <time>2017-09-16T10:55:20Z</time>
      </trkpt>
      <trkpt lat="44.36926" lon="2.40099">
        <ele>552</ele>
        <time>2017-09-16T10:55:43Z</time>
      </trkpt>
      <trkpt lat="44.36924" lon="2.40096">
        <ele>552</ele>
        <time>2017-09-16T10:55:46Z</time>
      </trkpt>
      <trkpt lat="44.36922" lon="2.40091">
        <ele>552</ele>
        <time>2017-09-16T10:55:49Z</time>
      </trkpt>
      <trkpt lat="44.36919" lon="2.40088">
        <ele>551</ele>
        <time>2017-09-16T10:55:52Z</time>
      </trkpt>
      <trkpt lat="44.36916" lon="2.40085">
        <ele>550</ele>
        <time>2017-09-16T10:55:55Z</time>
      </trkpt>
      <trkpt lat="44.3691" lon="2.4008">
        <ele>550</ele>
        <time>2017-09-16T10:56:01Z</time>
      </trkpt>
      <trkpt lat="44.36898" lon="2.40068">
        <ele>548</ele>
        <time>2017-09-16T10:56:12Z</time>
      </trkpt>
      <trkpt lat="44.36895" lon="2.40067">
        <ele>548</ele>
        <time>2017-09-16T10:56:14Z</time>
      </trkpt>
      <trkpt lat="44.36892" lon="2.40064">
        <ele>547</ele>
        <time>2017-09-16T10:56:17Z</time>
      </trkpt>
      <trkpt lat="44.36889" lon="2.40062">
        <ele>547</ele>
        <time>2017-09-16T10:56:20Z</time>
      </trkpt>
      <trkpt lat="44.36863" lon="2.40056">
        <ele>545</ele>
        <time>2017-09-16T10:56:40Z</time>
      </trkpt>
      <trkpt lat="44.36847" lon="2.40054">
        <ele>544</ele>
        <time>2017-09-16T10:56:52Z</time>
      </trkpt>
      <trkpt lat="44.36835" lon="2.40051">
        <ele>543</ele>
        <time>2017-09-16T10:57:04Z</time>
      </trkpt>
      <trkpt lat="44.36832" lon="2.40049">
        <ele>536</ele>
        <time>2017-09-16T10:57:07Z</time>
      </trkpt>
      <trkpt lat="44.36832" lon="2.40045">
        <ele>536</ele>
        <time>2017-09-16T10:57:11Z</time>
      </trkpt>
      <trkpt lat="44.36832" lon="2.4004">
        <ele>536</ele>
        <time>2017-09-16T10:57:14Z</time>
      </trkpt>
      <trkpt lat="44.36833" lon="2.40031">
        <ele>543</ele>
        <time>2017-09-16T10:57:22Z</time>
      </trkpt>
      <trkpt lat="44.36835" lon="2.40024">
        <ele>542</ele>
        <time>2017-09-16T10:57:54Z</time>
      </trkpt>
      <trkpt lat="44.36841" lon="2.40015">
        <ele>541</ele>
        <time>2017-09-16T10:58:04Z</time>
      </trkpt>
      <trkpt lat="44.36847" lon="2.39997">
        <ele>539</ele>
        <time>2017-09-16T10:58:18Z</time>
      </trkpt>
      <trkpt lat="44.36849" lon="2.39991">
        <ele>539</ele>
        <time>2017-09-16T10:58:22Z</time>
      </trkpt>
      <trkpt lat="44.36851" lon="2.39987">
        <ele>539</ele>
        <time>2017-09-16T10:58:26Z</time>
      </trkpt>
      <trkpt lat="44.36855" lon="2.39983">
        <ele>539</ele>
        <time>2017-09-16T10:58:30Z</time>
      </trkpt>
      <trkpt lat="44.36857" lon="2.39979">
        <ele>540</ele>
        <time>2017-09-16T10:58:35Z</time>
      </trkpt>
      <trkpt lat="44.36862" lon="2.39972">
        <ele>540</ele>
        <time>2017-09-16T10:58:42Z</time>
      </trkpt>
      <trkpt lat="44.36867" lon="2.39963">
        <ele>540</ele>
        <time>2017-09-16T10:58:50Z</time>
      </trkpt>
      <trkpt lat="44.36869" lon="2.39959">
        <ele>540</ele>
        <time>2017-09-16T10:58:53Z</time>
      </trkpt>
      <trkpt lat="44.36871" lon="2.39956">
        <ele>540</ele>
        <time>2017-09-16T10:58:56Z</time>
      </trkpt>
      <trkpt lat="44.36884" lon="2.39938">
        <ele>541</ele>
        <time>2017-09-16T10:59:12Z</time>
      </trkpt>
      <trkpt lat="44.36886" lon="2.39931">
        <ele>542</ele>
        <time>2017-09-16T10:59:18Z</time>
      </trkpt>
      <trkpt lat="44.36901" lon="2.39901">
        <ele>537</ele>
        <time>2017-09-16T10:59:41Z</time>
      </trkpt>
      <trkpt lat="44.36903" lon="2.39896">
        <ele>537</ele>
        <time>2017-09-16T10:59:44Z</time>
      </trkpt>
      <trkpt lat="44.36917" lon="2.39875">
        <ele>550</ele>
        <time>2017-09-16T11:00:01Z</time>
      </trkpt>
      <trkpt lat="44.36923" lon="2.39867">
        <ele>549</ele>
        <time>2017-09-16T11:00:07Z</time>
      </trkpt>
      <trkpt lat="44.3693" lon="2.39857">
        <ele>548</ele>
        <time>2017-09-16T11:00:14Z</time>
      </trkpt>
      <trkpt lat="44.36932" lon="2.39852">
        <ele>547</ele>
        <time>2017-09-16T11:00:17Z</time>
      </trkpt>
      <trkpt lat="44.36935" lon="2.39848">
        <ele>547</ele>
        <time>2017-09-16T11:00:21Z</time>
      </trkpt>
      <trkpt lat="44.36938" lon="2.39843">
        <ele>547</ele>
        <time>2017-09-16T11:00:25Z</time>
      </trkpt>
      <trkpt lat="44.36942" lon="2.39835">
        <ele>548</ele>
        <time>2017-09-16T11:00:32Z</time>
      </trkpt>
      <trkpt lat="44.3695" lon="2.39822">
        <ele>543</ele>
        <time>2017-09-16T11:00:41Z</time>
      </trkpt>
      <trkpt lat="44.36954" lon="2.39817">
        <ele>543</ele>
        <time>2017-09-16T11:00:46Z</time>
      </trkpt>
      <trkpt lat="44.36958" lon="2.39811">
        <ele>544</ele>
        <time>2017-09-16T11:00:50Z</time>
      </trkpt>
      <trkpt lat="44.36963" lon="2.39803">
        <ele>544</ele>
        <time>2017-09-16T11:00:57Z</time>
      </trkpt>
      <trkpt lat="44.3697" lon="2.39793">
        <ele>544</ele>
        <time>2017-09-16T11:01:04Z</time>
      </trkpt>
      <trkpt lat="44.36983" lon="2.3978">
        <ele>546</ele>
        <time>2017-09-16T11:01:16Z</time>
      </trkpt>
      <trkpt lat="44.36987" lon="2.39777">
        <ele>546</ele>
        <time>2017-09-16T11:01:20Z</time>
      </trkpt>
      <trkpt lat="44.36992" lon="2.39772">
        <ele>547</ele>
        <time>2017-09-16T11:01:24Z</time>
      </trkpt>
      <trkpt lat="44.37" lon="2.39758">
        <ele>556</ele>
        <time>2017-09-16T11:01:35Z</time>
      </trkpt>
      <trkpt lat="44.37002" lon="2.3975">
        <ele>554</ele>
        <time>2017-09-16T11:01:46Z</time>
      </trkpt>
      <trkpt lat="44.37" lon="2.39745">
        <ele>550</ele>
        <time>2017-09-16T11:01:58Z</time>
      </trkpt>
      <trkpt lat="44.36984" lon="2.39735">
        <ele>543</ele>
        <time>2017-09-16T11:02:20Z</time>
      </trkpt>
      <trkpt lat="44.36982" lon="2.39731">
        <ele>542</ele>
        <time>2017-09-16T11:02:23Z</time>
      </trkpt>
      <trkpt lat="44.3698" lon="2.39726">
        <ele>541</ele>
        <time>2017-09-16T11:02:30Z</time>
      </trkpt>
      <trkpt lat="44.3698" lon="2.3972">
        <ele>540</ele>
        <time>2017-09-16T11:02:36Z</time>
      </trkpt>
      <trkpt lat="44.36982" lon="2.39713">
        <ele>540</ele>
        <time>2017-09-16T11:02:42Z</time>
      </trkpt>
      <trkpt lat="44.36992" lon="2.39694">
        <ele>542</ele>
        <time>2017-09-16T11:02:58Z</time>
      </trkpt>
      <trkpt lat="44.37003" lon="2.39679">
        <ele>556</ele>
        <time>2017-09-16T11:03:12Z</time>
      </trkpt>
      <trkpt lat="44.37006" lon="2.39674">
        <ele>555</ele>
        <time>2017-09-16T11:03:15Z</time>
      </trkpt>
      <trkpt lat="44.37008" lon="2.39668">
        <ele>555</ele>
        <time>2017-09-16T11:03:19Z</time>
      </trkpt>
      <trkpt lat="44.37013" lon="2.39657">
        <ele>557</ele>
        <time>2017-09-16T11:03:26Z</time>
      </trkpt>
      <trkpt lat="44.37015" lon="2.39652">
        <ele>557</ele>
        <time>2017-09-16T11:03:29Z</time>
      </trkpt>
      <trkpt lat="44.37021" lon="2.39641">
        <ele>559</ele>
        <time>2017-09-16T11:03:37Z</time>
      </trkpt>
      <trkpt lat="44.37024" lon="2.39634">
        <ele>559</ele>
        <time>2017-09-16T11:03:41Z</time>
      </trkpt>
      <trkpt lat="44.37028" lon="2.39629">
        <ele>559</ele>
        <time>2017-09-16T11:03:45Z</time>
      </trkpt>
      <trkpt lat="44.37031" lon="2.39624">
        <ele>560</ele>
        <time>2017-09-16T11:03:49Z</time>
      </trkpt>
      <trkpt lat="44.37032" lon="2.39611">
        <ele>559</ele>
        <time>2017-09-16T11:03:59Z</time>
      </trkpt>
      <trkpt lat="44.37035" lon="2.39606">
        <ele>559</ele>
        <time>2017-09-16T11:04:03Z</time>
      </trkpt>
      <trkpt lat="44.37039" lon="2.39591">
        <ele>560</ele>
        <time>2017-09-16T11:04:13Z</time>
      </trkpt>
      <trkpt lat="44.3704" lon="2.39583">
        <ele>557</ele>
        <time>2017-09-16T11:04:18Z</time>
      </trkpt>
      <trkpt lat="44.37039" lon="2.39574">
        <ele>557</ele>
        <time>2017-09-16T11:04:23Z</time>
      </trkpt>
      <trkpt lat="44.3704" lon="2.39566">
        <ele>557</ele>
        <time>2017-09-16T11:04:32Z</time>
      </trkpt>
      <trkpt lat="44.37038" lon="2.39559">
        <ele>557</ele>
        <time>2017-09-16T11:04:44Z</time>
      </trkpt>
      <trkpt lat="44.37041" lon="2.39543">
        <ele>557</ele>
        <time>2017-09-16T11:04:56Z</time>
      </trkpt>
      <trkpt lat="44.37045" lon="2.39537">
        <ele>558</ele>
        <time>2017-09-16T11:05:04Z</time>
      </trkpt>
      <trkpt lat="44.37047" lon="2.39533">
        <ele>558</ele>
        <time>2017-09-16T11:05:17Z</time>
      </trkpt>
      <trkpt lat="44.37045" lon="2.39526">
        <ele>558</ele>
        <time>2017-09-16T11:05:24Z</time>
      </trkpt>
      <trkpt lat="44.37046" lon="2.39521">
        <ele>558</ele>
        <time>2017-09-16T11:05:29Z</time>
      </trkpt>
      <trkpt lat="44.37044" lon="2.39516">
        <ele>557</ele>
        <time>2017-09-16T11:05:33Z</time>
      </trkpt>
      <trkpt lat="44.37039" lon="2.39514">
        <ele>556</ele>
        <time>2017-09-16T11:14:01Z</time>
      </trkpt>
      <trkpt lat="44.37035" lon="2.39516">
        <ele>556</ele>
        <time>2017-09-16T11:05:59Z</time>
      </trkpt>
      <trkpt lat="44.37033" lon="2.39512">
        <ele>555</ele>
        <time>2017-09-16T11:06:44Z</time>
      </trkpt>
      <trkpt lat="44.37034" lon="2.39507">
        <ele>555</ele>
        <time>2017-09-16T11:06:47Z</time>
      </trkpt>
      <trkpt lat="44.37034" lon="2.39502">
        <ele>555</ele>
        <time>2017-09-16T11:06:50Z</time>
      </trkpt>
      <trkpt lat="44.37034" lon="2.39497">
        <ele>554</ele>
        <time>2017-09-16T11:06:53Z</time>
      </trkpt>
      <trkpt lat="44.37034" lon="2.39486">
        <ele>554</ele>
        <time>2017-09-16T11:07:00Z</time>
      </trkpt>
      <trkpt lat="44.37034" lon="2.3948">
        <ele>554</ele>
        <time>2017-09-16T11:07:06Z</time>
      </trkpt>
      <trkpt lat="44.37035" lon="2.39478">
        <ele>555</ele>
        <time>2017-09-16T11:11:07Z</time>
      </trkpt>
      <trkpt lat="44.37033" lon="2.39476">
        <ele>554</ele>
        <time>2017-09-16T11:11:33Z</time>
      </trkpt>
      <trkpt lat="44.37033" lon="2.39479">
        <ele>554</ele>
        <time>2017-09-16T11:13:05Z</time>
      </trkpt>
      <trkpt lat="44.37033" lon="2.39486">
        <ele>554</ele>
        <time>2017-09-16T11:13:42Z</time>
      </trkpt>
      <trkpt lat="44.37034" lon="2.39492">
        <ele>554</ele>
        <time>2017-09-16T11:13:46Z</time>
      </trkpt>
      <trkpt lat="44.37038" lon="2.39506">
        <ele>556</ele>
        <time>2017-09-16T11:13:55Z</time>
      </trkpt>
      <trkpt lat="44.37039" lon="2.39514">
        <ele>556</ele>
        <time>2017-09-16T11:14:01Z</time>
      </trkpt>
      <trkpt lat="44.37043" lon="2.39516">
        <ele>557</ele>
        <time>2017-09-16T11:14:12Z</time>
      </trkpt>
      <trkpt lat="44.37043" lon="2.3951">
        <ele>557</ele>
        <time>2017-09-16T11:14:33Z</time>
      </trkpt>
      <trkpt lat="44.37042" lon="2.39506">
        <ele>557</ele>
        <time>2017-09-16T11:14:55Z</time>
      </trkpt>
      <trkpt lat="44.37039" lon="2.3951">
        <ele>556</ele>
        <time>2017-09-16T11:15:47Z</time>
      </trkpt>
      <trkpt lat="44.37039" lon="2.39517">
        <ele>556</ele>
        <time>2017-09-16T11:16:03Z</time>
      </trkpt>
      <trkpt lat="44.37038" lon="2.39521">
        <ele>556</ele>
        <time>2017-09-16T11:16:53Z</time>
      </trkpt>
      <trkpt lat="44.37033" lon="2.39521">
        <ele>555</ele>
        <time>2017-09-16T11:18:40Z</time>
      </trkpt>
      <trkpt lat="44.37033" lon="2.39517">
        <ele>555</ele>
        <time>2017-09-16T11:20:44Z</time>
      </trkpt>
      <trkpt lat="44.37042" lon="2.39513">
        <ele>557</ele>
        <time>2017-09-16T12:19:18Z</time>
      </trkpt>
      <trkpt lat="44.37042" lon="2.39513">
        <ele>557</ele>
        <time>2017-09-16T12:19:18Z</time>
      </trkpt>
      <trkpt lat="44.37041" lon="2.39508">
        <ele>557</ele>
        <time>2017-09-16T12:19:26Z</time>
      </trkpt>
      <trkpt lat="44.3704" lon="2.39506">
        <ele>556</ele>
        <time>2017-09-16T12:20:25Z</time>
      </trkpt>
      <trkpt lat="44.37039" lon="2.39509">
        <ele>556</ele>
        <time>2017-09-16T12:21:37Z</time>
      </trkpt>
      <trkpt lat="44.37039" lon="2.39513">
        <ele>556</ele>
        <time>2017-09-16T12:21:44Z</time>
      </trkpt>
      <trkpt lat="44.37041" lon="2.39529">
        <ele>557</ele>
        <time>2017-09-16T12:21:57Z</time>
      </trkpt>
      <trkpt lat="44.37043" lon="2.39536">
        <ele>557</ele>
        <time>2017-09-16T12:22:02Z</time>
      </trkpt>
      <trkpt lat="44.37042" lon="2.39542">
        <ele>557</ele>
        <time>2017-09-16T12:22:06Z</time>
      </trkpt>
      <trkpt lat="44.37039" lon="2.39555">
        <ele>557</ele>
        <time>2017-09-16T12:22:14Z</time>
      </trkpt>
      <trkpt lat="44.37038" lon="2.39549">
        <ele>557</ele>
        <time>2017-09-16T12:22:29Z</time>
      </trkpt>
      <trkpt lat="44.37036" lon="2.39537">
        <ele>556</ele>
        <time>2017-09-16T12:22:38Z</time>
      </trkpt>
      <trkpt lat="44.37035" lon="2.39532">
        <ele>556</ele>
        <time>2017-09-16T12:22:41Z</time>
      </trkpt>
      <trkpt lat="44.37033" lon="2.39529">
        <ele>556</ele>
        <time>2017-09-16T12:22:43Z</time>
      </trkpt>
      <trkpt lat="44.37029" lon="2.39519">
        <ele>555</ele>
        <time>2017-09-16T12:22:49Z</time>
      </trkpt>
      <trkpt lat="44.37027" lon="2.39512">
        <ele>554</ele>
        <time>2017-09-16T12:22:55Z</time>
      </trkpt>
      <trkpt lat="44.37022" lon="2.39497">
        <ele>551</ele>
        <time>2017-09-16T12:23:05Z</time>
      </trkpt>
      <trkpt lat="44.3702" lon="2.39492">
        <ele>551</ele>
        <time>2017-09-16T12:23:10Z</time>
      </trkpt>
      <trkpt lat="44.37017" lon="2.3949">
        <ele>551</ele>
        <time>2017-09-16T12:24:07Z</time>
      </trkpt>
      <trkpt lat="44.37016" lon="2.39485">
        <ele>551</ele>
        <time>2017-09-16T12:24:09Z</time>
      </trkpt>
      <trkpt lat="44.37009" lon="2.3947">
        <ele>552</ele>
        <time>2017-09-16T12:24:22Z</time>
      </trkpt>
      <trkpt lat="44.37005" lon="2.39462">
        <ele>552</ele>
        <time>2017-09-16T12:24:27Z</time>
      </trkpt>
      <trkpt lat="44.36998" lon="2.39447">
        <ele>537</ele>
        <time>2017-09-16T12:24:38Z</time>
      </trkpt>
      <trkpt lat="44.36994" lon="2.39441">
        <ele>537</ele>
        <time>2017-09-16T12:24:42Z</time>
      </trkpt>
      <trkpt lat="44.36991" lon="2.39435">
        <ele>538</ele>
        <time>2017-09-16T12:24:47Z</time>
      </trkpt>
      <trkpt lat="44.36988" lon="2.3943">
        <ele>538</ele>
        <time>2017-09-16T12:24:50Z</time>
      </trkpt>
      <trkpt lat="44.36985" lon="2.39423">
        <ele>539</ele>
        <time>2017-09-16T12:24:53Z</time>
      </trkpt>
      <trkpt lat="44.36982" lon="2.39418">
        <ele>538</ele>
        <time>2017-09-16T12:24:56Z</time>
      </trkpt>
      <trkpt lat="44.36976" lon="2.39405">
        <ele>538</ele>
        <time>2017-09-16T12:25:04Z</time>
      </trkpt>
      <trkpt lat="44.36971" lon="2.39393">
        <ele>536</ele>
        <time>2017-09-16T12:25:12Z</time>
      </trkpt>
      <trkpt lat="44.36968" lon="2.39389">
        <ele>536</ele>
        <time>2017-09-16T12:25:14Z</time>
      </trkpt>
      <trkpt lat="44.36962" lon="2.39378">
        <ele>535</ele>
        <time>2017-09-16T12:25:20Z</time>
      </trkpt>
      <trkpt lat="44.3696" lon="2.39371">
        <ele>535</ele>
        <time>2017-09-16T12:25:24Z</time>
      </trkpt>
      <trkpt lat="44.36955" lon="2.39358">
        <ele>534</ele>
        <time>2017-09-16T12:25:33Z</time>
      </trkpt>
      <trkpt lat="44.36951" lon="2.39349">
        <ele>534</ele>
        <time>2017-09-16T12:25:38Z</time>
      </trkpt>
      <trkpt lat="44.36949" lon="2.39341">
        <ele>534</ele>
        <time>2017-09-16T12:25:44Z</time>
      </trkpt>
      <trkpt lat="44.3695" lon="2.39314">
        <ele>531</ele>
        <time>2017-09-16T12:25:59Z</time>
      </trkpt>
      <trkpt lat="44.36951" lon="2.39309">
        <ele>530</ele>
        <time>2017-09-16T12:26:02Z</time>
      </trkpt>
      <trkpt lat="44.36952" lon="2.39304">
        <ele>530</ele>
        <time>2017-09-16T12:26:06Z</time>
      </trkpt>
      <trkpt lat="44.36953" lon="2.39298">
        <ele>530</ele>
        <time>2017-09-16T12:26:10Z</time>
      </trkpt>
      <trkpt lat="44.36953" lon="2.39292">
        <ele>529</ele>
        <time>2017-09-16T12:26:13Z</time>
      </trkpt>
      <trkpt lat="44.36957" lon="2.39272">
        <ele>528</ele>
        <time>2017-09-16T12:26:25Z</time>
      </trkpt>
      <trkpt lat="44.3696" lon="2.39267">
        <ele>528</ele>
        <time>2017-09-16T12:26:28Z</time>
      </trkpt>
      <trkpt lat="44.36962" lon="2.39263">
        <ele>528</ele>
        <time>2017-09-16T12:26:32Z</time>
      </trkpt>
      <trkpt lat="44.36963" lon="2.39258">
        <ele>527</ele>
        <time>2017-09-16T12:26:35Z</time>
      </trkpt>
      <trkpt lat="44.36961" lon="2.39249">
        <ele>517</ele>
        <time>2017-09-16T12:26:40Z</time>
      </trkpt>
      <trkpt lat="44.36959" lon="2.39244">
        <ele>517</ele>
        <time>2017-09-16T12:26:46Z</time>
      </trkpt>
      <trkpt lat="44.36957" lon="2.39236">
        <ele>516</ele>
        <time>2017-09-16T12:26:54Z</time>
      </trkpt>
      <trkpt lat="44.36955" lon="2.39229">
        <ele>515</ele>
        <time>2017-09-16T12:26:59Z</time>
      </trkpt>
      <trkpt lat="44.36952" lon="2.39223">
        <ele>515</ele>
        <time>2017-09-16T12:27:04Z</time>
      </trkpt>
      <trkpt lat="44.36943" lon="2.39217">
        <ele>515</ele>
        <time>2017-09-16T12:27:13Z</time>
      </trkpt>
      <trkpt lat="44.36932" lon="2.39218">
        <ele>516</ele>
        <time>2017-09-16T12:27:26Z</time>
      </trkpt>
      <trkpt lat="44.36929" lon="2.39218">
        <ele>516</ele>
        <time>2017-09-16T12:27:29Z</time>
      </trkpt>
      <trkpt lat="44.36922" lon="2.39218">
        <ele>516</ele>
        <time>2017-09-16T12:27:36Z</time>
      </trkpt>
      <trkpt lat="44.36919" lon="2.3922">
        <ele>516</ele>
        <time>2017-09-16T12:27:41Z</time>
      </trkpt>
      <trkpt lat="44.36916" lon="2.39221">
        <ele>513</ele>
        <time>2017-09-16T12:27:45Z</time>
      </trkpt>
      <trkpt lat="44.36913" lon="2.39222">
        <ele>513</ele>
        <time>2017-09-16T12:27:48Z</time>
      </trkpt>
      <trkpt lat="44.3691" lon="2.39221">
        <ele>513</ele>
        <time>2017-09-16T12:27:52Z</time>
      </trkpt>
      <trkpt lat="44.36906" lon="2.3922">
        <ele>512</ele>
        <time>2017-09-16T12:27:56Z</time>
      </trkpt>
      <trkpt lat="44.36907" lon="2.39216">
        <ele>511</ele>
        <time>2017-09-16T12:28:08Z</time>
      </trkpt>
      <trkpt lat="44.36907" lon="2.39211">
        <ele>511</ele>
        <time>2017-09-16T12:28:12Z</time>
      </trkpt>
      <trkpt lat="44.36907" lon="2.39206">
        <ele>510</ele>
        <time>2017-09-16T12:28:18Z</time>
      </trkpt>
      <trkpt lat="44.36905" lon="2.392">
        <ele>509</ele>
        <time>2017-09-16T12:28:23Z</time>
      </trkpt>
      <trkpt lat="44.36904" lon="2.39197">
        <ele>509</ele>
        <time>2017-09-16T12:28:25Z</time>
      </trkpt>
      <trkpt lat="44.36902" lon="2.39195">
        <ele>509</ele>
        <time>2017-09-16T12:28:30Z</time>
      </trkpt>
      <trkpt lat="44.36896" lon="2.39194">
        <ele>508</ele>
        <time>2017-09-16T12:28:34Z</time>
      </trkpt>
      <trkpt lat="44.3689" lon="2.39194">
        <ele>507</ele>
        <time>2017-09-16T12:28:38Z</time>
      </trkpt>
      <trkpt lat="44.36882" lon="2.392">
        <ele>507</ele>
        <time>2017-09-16T12:28:45Z</time>
      </trkpt>
      <trkpt lat="44.36879" lon="2.39202">
        <ele>507</ele>
        <time>2017-09-16T12:28:47Z</time>
      </trkpt>
      <trkpt lat="44.3687" lon="2.3921">
        <ele>506</ele>
        <time>2017-09-16T12:28:55Z</time>
      </trkpt>
      <trkpt lat="44.36863" lon="2.39218">
        <ele>506</ele>
        <time>2017-09-16T12:29:03Z</time>
      </trkpt>
      <trkpt lat="44.36854" lon="2.39248">
        <ele>504</ele>
        <time>2017-09-16T12:29:23Z</time>
      </trkpt>
      <trkpt lat="44.36851" lon="2.39278">
        <ele>509</ele>
        <time>2017-09-16T12:29:40Z</time>
      </trkpt>
      <trkpt lat="44.36851" lon="2.39288">
        <ele>509</ele>
        <time>2017-09-16T12:29:46Z</time>
      </trkpt>
      <trkpt lat="44.36853" lon="2.39298">
        <ele>509</ele>
        <time>2017-09-16T12:29:53Z</time>
      </trkpt>
      <trkpt lat="44.36854" lon="2.39304">
        <ele>509</ele>
        <time>2017-09-16T12:29:57Z</time>
      </trkpt>
      <trkpt lat="44.36854" lon="2.39311">
        <ele>509</ele>
        <time>2017-09-16T12:30:02Z</time>
      </trkpt>
      <trkpt lat="44.36852" lon="2.39316">
        <ele>508</ele>
        <time>2017-09-16T12:30:06Z</time>
      </trkpt>
      <trkpt lat="44.36851" lon="2.39324">
        <ele>507</ele>
        <time>2017-09-16T12:30:10Z</time>
      </trkpt>
      <trkpt lat="44.36847" lon="2.39331">
        <ele>505</ele>
        <time>2017-09-16T12:30:16Z</time>
      </trkpt>
      <trkpt lat="44.36845" lon="2.39329">
        <ele>504</ele>
        <time>2017-09-16T12:30:29Z</time>
      </trkpt>
      <trkpt lat="44.36843" lon="2.39325">
        <ele>504</ele>
        <time>2017-09-16T12:30:33Z</time>
      </trkpt>
      <trkpt lat="44.36833" lon="2.39297">
        <ele>489</ele>
        <time>2017-09-16T12:30:57Z</time>
      </trkpt>
      <trkpt lat="44.36832" lon="2.39292">
        <ele>489</ele>
        <time>2017-09-16T12:31:00Z</time>
      </trkpt>
      <trkpt lat="44.36832" lon="2.39288">
        <ele>489</ele>
        <time>2017-09-16T12:31:03Z</time>
      </trkpt>
      <trkpt lat="44.3683" lon="2.39284">
        <ele>489</ele>
        <time>2017-09-16T12:31:07Z</time>
      </trkpt>
      <trkpt lat="44.36829" lon="2.3928">
        <ele>489</ele>
        <time>2017-09-16T12:31:10Z</time>
      </trkpt>
      <trkpt lat="44.36827" lon="2.39276">
        <ele>490</ele>
        <time>2017-09-16T12:31:13Z</time>
      </trkpt>
      <trkpt lat="44.36824" lon="2.39267">
        <ele>491</ele>
        <time>2017-09-16T12:31:19Z</time>
      </trkpt>
      <trkpt lat="44.36823" lon="2.39263">
        <ele>491</ele>
        <time>2017-09-16T12:31:21Z</time>
      </trkpt>
      <trkpt lat="44.36822" lon="2.39258">
        <ele>492</ele>
        <time>2017-09-16T12:31:25Z</time>
      </trkpt>
      <trkpt lat="44.36822" lon="2.39257">
        <ele>492</ele>
        <time>2017-09-16T12:35:05Z</time>
      </trkpt>
      <trkpt lat="44.36822" lon="2.39253">
        <ele>493</ele>
        <time>2017-09-16T12:35:15Z</time>
      </trkpt>
      <trkpt lat="44.36822" lon="2.39249">
        <ele>492</ele>
        <time>2017-09-16T12:35:21Z</time>
      </trkpt>
      <trkpt lat="44.36819" lon="2.39247">
        <ele>491</ele>
        <time>2017-09-16T12:35:23Z</time>
      </trkpt>
      <trkpt lat="44.36816" lon="2.39245">
        <ele>489</ele>
        <time>2017-09-16T12:35:26Z</time>
      </trkpt>
      <trkpt lat="44.36809" lon="2.39246">
        <ele>487</ele>
        <time>2017-09-16T12:35:30Z</time>
      </trkpt>
      <trkpt lat="44.36804" lon="2.39252">
        <ele>487</ele>
        <time>2017-09-16T12:35:36Z</time>
      </trkpt>
      <trkpt lat="44.36802" lon="2.39256">
        <ele>487</ele>
        <time>2017-09-16T12:35:39Z</time>
      </trkpt>
      <trkpt lat="44.36797" lon="2.39264">
        <ele>485</ele>
        <time>2017-09-16T12:35:45Z</time>
      </trkpt>
      <trkpt lat="44.36795" lon="2.39269">
        <ele>484</ele>
        <time>2017-09-16T12:35:48Z</time>
      </trkpt>
      <trkpt lat="44.36794" lon="2.39277">
        <ele>484</ele>
        <time>2017-09-16T12:35:54Z</time>
      </trkpt>
      <trkpt lat="44.36793" lon="2.39285">
        <ele>484</ele>
        <time>2017-09-16T12:36:00Z</time>
      </trkpt>
      <trkpt lat="44.36794" lon="2.39288">
        <ele>484</ele>
        <time>2017-09-16T12:36:05Z</time>
      </trkpt>
      <trkpt lat="44.36795" lon="2.39303">
        <ele>484</ele>
        <time>2017-09-16T12:36:14Z</time>
      </trkpt>
      <trkpt lat="44.36796" lon="2.39311">
        <ele>484</ele>
        <time>2017-09-16T12:36:19Z</time>
      </trkpt>
      <trkpt lat="44.36797" lon="2.39316">
        <ele>484</ele>
        <time>2017-09-16T12:36:22Z</time>
      </trkpt>
      <trkpt lat="44.36797" lon="2.3932">
        <ele>484</ele>
        <time>2017-09-16T12:36:25Z</time>
      </trkpt>
      <trkpt lat="44.36795" lon="2.39328">
        <ele>484</ele>
        <time>2017-09-16T12:36:34Z</time>
      </trkpt>
      <trkpt lat="44.36795" lon="2.39333">
        <ele>484</ele>
        <time>2017-09-16T12:36:37Z</time>
      </trkpt>
      <trkpt lat="44.36796" lon="2.39348">
        <ele>479</ele>
        <time>2017-09-16T12:36:47Z</time>
      </trkpt>
      <trkpt lat="44.36796" lon="2.39354">
        <ele>478</ele>
        <time>2017-09-16T12:36:50Z</time>
      </trkpt>
      <trkpt lat="44.36795" lon="2.39359">
        <ele>478</ele>
        <time>2017-09-16T12:36:53Z</time>
      </trkpt>
      <trkpt lat="44.36795" lon="2.39364">
        <ele>477</ele>
        <time>2017-09-16T12:36:56Z</time>
      </trkpt>
      <trkpt lat="44.36796" lon="2.39368">
        <ele>477</ele>
        <time>2017-09-16T12:36:59Z</time>
      </trkpt>
      <trkpt lat="44.36796" lon="2.39373">
        <ele>477</ele>
        <time>2017-09-16T12:37:03Z</time>
      </trkpt>
      <trkpt lat="44.36799" lon="2.39392">
        <ele>476</ele>
        <time>2017-09-16T12:37:18Z</time>
      </trkpt>
      <trkpt lat="44.368" lon="2.39403">
        <ele>476</ele>
        <time>2017-09-16T12:37:25Z</time>
      </trkpt>
      <trkpt lat="44.36799" lon="2.39409">
        <ele>476</ele>
        <time>2017-09-16T12:37:29Z</time>
      </trkpt>
      <trkpt lat="44.36798" lon="2.39414">
        <ele>475</ele>
        <time>2017-09-16T12:37:32Z</time>
      </trkpt>
      <trkpt lat="44.36796" lon="2.39418">
        <ele>467</ele>
        <time>2017-09-16T12:37:35Z</time>
      </trkpt>
      <trkpt lat="44.36792" lon="2.39418">
        <ele>466</ele>
        <time>2017-09-16T12:37:38Z</time>
      </trkpt>
      <trkpt lat="44.36778" lon="2.39408">
        <ele>470</ele>
        <time>2017-09-16T12:37:53Z</time>
      </trkpt>
      <trkpt lat="44.36773" lon="2.39401">
        <ele>469</ele>
        <time>2017-09-16T12:38:01Z</time>
      </trkpt>
      <trkpt lat="44.36771" lon="2.39397">
        <ele>469</ele>
        <time>2017-09-16T12:38:05Z</time>
      </trkpt>
      <trkpt lat="44.36769" lon="2.3939">
        <ele>470</ele>
        <time>2017-09-16T12:38:11Z</time>
      </trkpt>
      <trkpt lat="44.36758" lon="2.39371">
        <ele>471</ele>
        <time>2017-09-16T12:38:31Z</time>
      </trkpt>
      <trkpt lat="44.36756" lon="2.39368">
        <ele>471</ele>
        <time>2017-09-16T12:38:33Z</time>
      </trkpt>
      <trkpt lat="44.3675" lon="2.39357">
        <ele>457</ele>
        <time>2017-09-16T12:38:43Z</time>
      </trkpt>
      <trkpt lat="44.36747" lon="2.39355">
        <ele>458</ele>
        <time>2017-09-16T12:38:45Z</time>
      </trkpt>
      <trkpt lat="44.36744" lon="2.39355">
        <ele>457</ele>
        <time>2017-09-16T12:38:48Z</time>
      </trkpt>
      <trkpt lat="44.36742" lon="2.39356">
        <ele>457</ele>
        <time>2017-09-16T12:38:56Z</time>
      </trkpt>
      <trkpt lat="44.36743" lon="2.39367">
        <ele>455</ele>
        <time>2017-09-16T12:39:08Z</time>
      </trkpt>
      <trkpt lat="44.36744" lon="2.39373">
        <ele>455</ele>
        <time>2017-09-16T12:39:12Z</time>
      </trkpt>
      <trkpt lat="44.3674" lon="2.39374">
        <ele>454</ele>
        <time>2017-09-16T12:39:23Z</time>
      </trkpt>
      <trkpt lat="44.36738" lon="2.3937">
        <ele>455</ele>
        <time>2017-09-16T12:39:28Z</time>
      </trkpt>
      <trkpt lat="44.36737" lon="2.39365">
        <ele>455</ele>
        <time>2017-09-16T12:39:33Z</time>
      </trkpt>
      <trkpt lat="44.36735" lon="2.3936">
        <ele>456</ele>
        <time>2017-09-16T12:39:38Z</time>
      </trkpt>
      <trkpt lat="44.36733" lon="2.39357">
        <ele>456</ele>
        <time>2017-09-16T12:39:41Z</time>
      </trkpt>
      <trkpt lat="44.36717" lon="2.39343">
        <ele>454</ele>
        <time>2017-09-16T12:39:58Z</time>
      </trkpt>
      <trkpt lat="44.36713" lon="2.39341">
        <ele>454</ele>
        <time>2017-09-16T12:40:02Z</time>
      </trkpt>
      <trkpt lat="44.36692" lon="2.39326">
        <ele>452</ele>
        <time>2017-09-16T12:40:22Z</time>
      </trkpt>
      <trkpt lat="44.3669" lon="2.39322">
        <ele>452</ele>
        <time>2017-09-16T12:40:26Z</time>
      </trkpt>
      <trkpt lat="44.36687" lon="2.39319">
        <ele>452</ele>
        <time>2017-09-16T12:40:29Z</time>
      </trkpt>
      <trkpt lat="44.36683" lon="2.39314">
        <ele>452</ele>
        <time>2017-09-16T12:40:33Z</time>
      </trkpt>
      <trkpt lat="44.36682" lon="2.39309">
        <ele>452</ele>
        <time>2017-09-16T12:40:36Z</time>
      </trkpt>
      <trkpt lat="44.3668" lon="2.39304">
        <ele>452</ele>
        <time>2017-09-16T12:40:40Z</time>
      </trkpt>
      <trkpt lat="44.36677" lon="2.39296">
        <ele>452</ele>
        <time>2017-09-16T12:40:45Z</time>
      </trkpt>
      <trkpt lat="44.36675" lon="2.3929">
        <ele>452</ele>
        <time>2017-09-16T12:40:48Z</time>
      </trkpt>
      <trkpt lat="44.36673" lon="2.39281">
        <ele>452</ele>
        <time>2017-09-16T12:40:53Z</time>
      </trkpt>
      <trkpt lat="44.36672" lon="2.39276">
        <ele>452</ele>
        <time>2017-09-16T12:40:56Z</time>
      </trkpt>
      <trkpt lat="44.36671" lon="2.39271">
        <ele>451</ele>
        <time>2017-09-16T12:40:59Z</time>
      </trkpt>
      <trkpt lat="44.36668" lon="2.39253">
        <ele>446</ele>
        <time>2017-09-16T12:41:08Z</time>
      </trkpt>
      <trkpt lat="44.36667" lon="2.3925">
        <ele>445</ele>
        <time>2017-09-16T12:41:10Z</time>
      </trkpt>
      <trkpt lat="44.36667" lon="2.39246">
        <ele>446</ele>
        <time>2017-09-16T12:41:13Z</time>
      </trkpt>
      <trkpt lat="44.36667" lon="2.39241">
        <ele>447</ele>
        <time>2017-09-16T12:41:16Z</time>
      </trkpt>
      <trkpt lat="44.36667" lon="2.39236">
        <ele>443</ele>
        <time>2017-09-16T12:41:19Z</time>
      </trkpt>
      <trkpt lat="44.36668" lon="2.39231">
        <ele>449</ele>
        <time>2017-09-16T12:41:24Z</time>
      </trkpt>
      <trkpt lat="44.36668" lon="2.39228">
        <ele>449</ele>
        <time>2017-09-16T12:41:27Z</time>
      </trkpt>
      <trkpt lat="44.36666" lon="2.39225">
        <ele>442</ele>
        <time>2017-09-16T12:41:31Z</time>
      </trkpt>
      <trkpt lat="44.36663" lon="2.39228">
        <ele>442</ele>
        <time>2017-09-16T12:41:37Z</time>
      </trkpt>
      <trkpt lat="44.36659" lon="2.39236">
        <ele>443</ele>
        <time>2017-09-16T12:41:43Z</time>
      </trkpt>
      <trkpt lat="44.36657" lon="2.39239">
        <ele>443</ele>
        <time>2017-09-16T12:41:45Z</time>
      </trkpt>
      <trkpt lat="44.36655" lon="2.3924">
        <ele>443</ele>
        <time>2017-09-16T12:41:47Z</time>
      </trkpt>
      <trkpt lat="44.36652" lon="2.39238">
        <ele>442</ele>
        <time>2017-09-16T12:41:50Z</time>
      </trkpt>
      <trkpt lat="44.36652" lon="2.39236">
        <ele>442</ele>
        <time>2017-09-16T12:41:52Z</time>
      </trkpt>
      <trkpt lat="44.36651" lon="2.39233">
        <ele>442</ele>
        <time>2017-09-16T12:41:58Z</time>
      </trkpt>
      <trkpt lat="44.36652" lon="2.39229">
        <ele>442</ele>
        <time>2017-09-16T12:42:01Z</time>
      </trkpt>
      <trkpt lat="44.36653" lon="2.39224">
        <ele>441</ele>
        <time>2017-09-16T12:42:06Z</time>
      </trkpt>
      <trkpt lat="44.36654" lon="2.3922">
        <ele>441</ele>
        <time>2017-09-16T12:42:09Z</time>
      </trkpt>
      <trkpt lat="44.36655" lon="2.39213">
        <ele>441</ele>
        <time>2017-09-16T12:42:15Z</time>
      </trkpt>
      <trkpt lat="44.36655" lon="2.3921">
        <ele>440</ele>
        <time>2017-09-16T12:42:17Z</time>
      </trkpt>
      <trkpt lat="44.36655" lon="2.39205">
        <ele>440</ele>
        <time>2017-09-16T12:42:21Z</time>
      </trkpt>
      <trkpt lat="44.36653" lon="2.39185">
        <ele>439</ele>
        <time>2017-09-16T12:42:35Z</time>
      </trkpt>
      <trkpt lat="44.36653" lon="2.39181">
        <ele>439</ele>
        <time>2017-09-16T12:42:37Z</time>
      </trkpt>
      <trkpt lat="44.36658" lon="2.39173">
        <ele>439</ele>
        <time>2017-09-16T12:42:44Z</time>
      </trkpt>
      <trkpt lat="44.36662" lon="2.39169">
        <ele>438</ele>
        <time>2017-09-16T12:42:49Z</time>
      </trkpt>
      <trkpt lat="44.36668" lon="2.39156">
        <ele>441</ele>
        <time>2017-09-16T12:42:59Z</time>
      </trkpt>
      <trkpt lat="44.3667" lon="2.39146">
        <ele>443</ele>
        <time>2017-09-16T12:43:05Z</time>
      </trkpt>
      <trkpt lat="44.3667" lon="2.39144">
        <ele>444</ele>
        <time>2017-09-16T12:43:08Z</time>
      </trkpt>
      <trkpt lat="44.36666" lon="2.39135">
        <ele>439</ele>
        <time>2017-09-16T12:43:14Z</time>
      </trkpt>
      <trkpt lat="44.36663" lon="2.39132">
        <ele>439</ele>
        <time>2017-09-16T12:43:17Z</time>
      </trkpt>
      <trkpt lat="44.36632" lon="2.39099">
        <ele>439</ele>
        <time>2017-09-16T12:43:49Z</time>
      </trkpt>
      <trkpt lat="44.3663" lon="2.39096">
        <ele>439</ele>
        <time>2017-09-16T12:43:51Z</time>
      </trkpt>
      <trkpt lat="44.36628" lon="2.39094">
        <ele>439</ele>
        <time>2017-09-16T12:43:53Z</time>
      </trkpt>
      <trkpt lat="44.36618" lon="2.39085">
        <ele>438</ele>
        <time>2017-09-16T12:44:03Z</time>
      </trkpt>
      <trkpt lat="44.36615" lon="2.39078">
        <ele>443</ele>
        <time>2017-09-16T12:44:08Z</time>
      </trkpt>
      <trkpt lat="44.36613" lon="2.39073">
        <ele>443</ele>
        <time>2017-09-16T12:44:11Z</time>
      </trkpt>
      <trkpt lat="44.36611" lon="2.39071">
        <ele>442</ele>
        <time>2017-09-16T12:44:14Z</time>
      </trkpt>
      <trkpt lat="44.36605" lon="2.39057">
        <ele>443</ele>
        <time>2017-09-16T12:44:23Z</time>
      </trkpt>
      <trkpt lat="44.36604" lon="2.39053">
        <ele>443</ele>
        <time>2017-09-16T12:44:25Z</time>
      </trkpt>
      <trkpt lat="44.36601" lon="2.3904">
        <ele>444</ele>
        <time>2017-09-16T12:44:33Z</time>
      </trkpt>
      <trkpt lat="44.36599" lon="2.39037">
        <ele>444</ele>
        <time>2017-09-16T12:44:35Z</time>
      </trkpt>
      <trkpt lat="44.36598" lon="2.39033">
        <ele>444</ele>
        <time>2017-09-16T12:44:41Z</time>
      </trkpt>
      <trkpt lat="44.36597" lon="2.3903">
        <ele>444</ele>
        <time>2017-09-16T12:44:44Z</time>
      </trkpt>
      <trkpt lat="44.36596" lon="2.39026">
        <ele>444</ele>
        <time>2017-09-16T12:44:47Z</time>
      </trkpt>
      <trkpt lat="44.36595" lon="2.39021">
        <ele>443</ele>
        <time>2017-09-16T12:44:50Z</time>
      </trkpt>
      <trkpt lat="44.36594" lon="2.39017">
        <ele>443</ele>
        <time>2017-09-16T12:44:53Z</time>
      </trkpt>
      <trkpt lat="44.36593" lon="2.39014">
        <ele>443</ele>
        <time>2017-09-16T12:44:55Z</time>
      </trkpt>
      <trkpt lat="44.36591" lon="2.39002">
        <ele>442</ele>
        <time>2017-09-16T12:45:01Z</time>
      </trkpt>
      <trkpt lat="44.36588" lon="2.38981">
        <ele>449</ele>
        <time>2017-09-16T12:45:14Z</time>
      </trkpt>
      <trkpt lat="44.36582" lon="2.38957">
        <ele>440</ele>
        <time>2017-09-16T12:45:28Z</time>
      </trkpt>
      <trkpt lat="44.36581" lon="2.38953">
        <ele>441</ele>
        <time>2017-09-16T12:45:31Z</time>
      </trkpt>
      <trkpt lat="44.36576" lon="2.3893">
        <ele>443</ele>
        <time>2017-09-16T12:45:46Z</time>
      </trkpt>
      <trkpt lat="44.36571" lon="2.3892">
        <ele>443</ele>
        <time>2017-09-16T12:45:52Z</time>
      </trkpt>
      <trkpt lat="44.36563" lon="2.38896">
        <ele>443</ele>
        <time>2017-09-16T12:46:07Z</time>
      </trkpt>
      <trkpt lat="44.36563" lon="2.38892">
        <ele>443</ele>
        <time>2017-09-16T12:46:09Z</time>
      </trkpt>
      <trkpt lat="44.36559" lon="2.38883">
        <ele>443</ele>
        <time>2017-09-16T12:46:16Z</time>
      </trkpt>
      <trkpt lat="44.36558" lon="2.38873">
        <ele>443</ele>
        <time>2017-09-16T12:46:23Z</time>
      </trkpt>
      <trkpt lat="44.36557" lon="2.38867">
        <ele>443</ele>
        <time>2017-09-16T12:46:26Z</time>
      </trkpt>
      <trkpt lat="44.36551" lon="2.38856">
        <ele>442</ele>
        <time>2017-09-16T12:46:33Z</time>
      </trkpt>
      <trkpt lat="44.36548" lon="2.38846">
        <ele>442</ele>
        <time>2017-09-16T12:46:39Z</time>
      </trkpt>
      <trkpt lat="44.36547" lon="2.38839">
        <ele>442</ele>
        <time>2017-09-16T12:46:44Z</time>
      </trkpt>
      <trkpt lat="44.36548" lon="2.38829">
        <ele>443</ele>
        <time>2017-09-16T12:46:50Z</time>
      </trkpt>
      <trkpt lat="44.36549" lon="2.38823">
        <ele>443</ele>
        <time>2017-09-16T12:46:54Z</time>
      </trkpt>
      <trkpt lat="44.36547" lon="2.38799">
        <ele>442</ele>
        <time>2017-09-16T12:47:09Z</time>
      </trkpt>
      <trkpt lat="44.36546" lon="2.38794">
        <ele>442</ele>
        <time>2017-09-16T12:47:11Z</time>
      </trkpt>
      <trkpt lat="44.36544" lon="2.38787">
        <ele>442</ele>
        <time>2017-09-16T12:47:15Z</time>
      </trkpt>
      <trkpt lat="44.36543" lon="2.38781">
        <ele>442</ele>
        <time>2017-09-16T12:47:19Z</time>
      </trkpt>
      <trkpt lat="44.36541" lon="2.38774">
        <ele>442</ele>
        <time>2017-09-16T12:47:23Z</time>
      </trkpt>
      <trkpt lat="44.3654" lon="2.3877">
        <ele>442</ele>
        <time>2017-09-16T12:47:25Z</time>
      </trkpt>
      <trkpt lat="44.36539" lon="2.38755">
        <ele>441</ele>
        <time>2017-09-16T12:47:35Z</time>
      </trkpt>
      <trkpt lat="44.36539" lon="2.38751">
        <ele>441</ele>
        <time>2017-09-16T12:47:38Z</time>
      </trkpt>
      <trkpt lat="44.36537" lon="2.38738">
        <ele>440</ele>
        <time>2017-09-16T12:47:46Z</time>
      </trkpt>
      <trkpt lat="44.36535" lon="2.38733">
        <ele>440</ele>
        <time>2017-09-16T12:47:49Z</time>
      </trkpt>
      <trkpt lat="44.36522" lon="2.38685">
        <ele>438</ele>
        <time>2017-09-16T12:48:19Z</time>
      </trkpt>
      <trkpt lat="44.36519" lon="2.38674">
        <ele>437</ele>
        <time>2017-09-16T12:48:26Z</time>
      </trkpt>
      <trkpt lat="44.36517" lon="2.38661">
        <ele>435</ele>
        <time>2017-09-16T12:48:35Z</time>
      </trkpt>
      <trkpt lat="44.36515" lon="2.38646">
        <ele>435</ele>
        <time>2017-09-16T12:48:44Z</time>
      </trkpt>
      <trkpt lat="44.36527" lon="2.38594">
        <ele>435</ele>
        <time>2017-09-16T12:49:15Z</time>
      </trkpt>
      <trkpt lat="44.36533" lon="2.38582">
        <ele>433</ele>
        <time>2017-09-16T12:49:24Z</time>
      </trkpt>
      <trkpt lat="44.36537" lon="2.38573">
        <ele>434</ele>
        <time>2017-09-16T12:49:33Z</time>
      </trkpt>
      <trkpt lat="44.3656" lon="2.38544">
        <ele>434</ele>
        <time>2017-09-16T12:49:56Z</time>
      </trkpt>
      <trkpt lat="44.36568" lon="2.38527">
        <ele>434</ele>
        <time>2017-09-16T12:50:08Z</time>
      </trkpt>
      <trkpt lat="44.36572" lon="2.38513">
        <ele>434</ele>
        <time>2017-09-16T12:50:16Z</time>
      </trkpt>
      <trkpt lat="44.36574" lon="2.38511">
        <ele>434</ele>
        <time>2017-09-16T12:50:18Z</time>
      </trkpt>
      <trkpt lat="44.36576" lon="2.38503">
        <ele>434</ele>
        <time>2017-09-16T12:50:23Z</time>
      </trkpt>
      <trkpt lat="44.36578" lon="2.38501">
        <ele>434</ele>
        <time>2017-09-16T12:50:25Z</time>
      </trkpt>
      <trkpt lat="44.36586" lon="2.38481">
        <ele>435</ele>
        <time>2017-09-16T12:50:39Z</time>
      </trkpt>
      <trkpt lat="44.36604" lon="2.38449">
        <ele>434</ele>
        <time>2017-09-16T12:51:02Z</time>
      </trkpt>
      <trkpt lat="44.3662" lon="2.38419">
        <ele>434</ele>
        <time>2017-09-16T12:51:22Z</time>
      </trkpt>
      <trkpt lat="44.36622" lon="2.38417">
        <ele>434</ele>
        <time>2017-09-16T12:51:24Z</time>
      </trkpt>
      <trkpt lat="44.36634" lon="2.38396">
        <ele>432</ele>
        <time>2017-09-16T12:51:39Z</time>
      </trkpt>
      <trkpt lat="44.36642" lon="2.38386">
        <ele>432</ele>
        <time>2017-09-16T12:51:48Z</time>
      </trkpt>
      <trkpt lat="44.36648" lon="2.38376">
        <ele>432</ele>
        <time>2017-09-16T12:51:56Z</time>
      </trkpt>
      <trkpt lat="44.36668" lon="2.38361">
        <ele>434</ele>
        <time>2017-09-16T12:52:13Z</time>
      </trkpt>
      <trkpt lat="44.36697" lon="2.38349">
        <ele>434</ele>
        <time>2017-09-16T12:52:37Z</time>
      </trkpt>
      <trkpt lat="44.36708" lon="2.38341">
        <ele>434</ele>
        <time>2017-09-16T12:52:47Z</time>
      </trkpt>
      <trkpt lat="44.3671" lon="2.3834">
        <ele>434</ele>
        <time>2017-09-16T12:52:48Z</time>
      </trkpt>
      <trkpt lat="44.36748" lon="2.38314">
        <ele>433</ele>
        <time>2017-09-16T12:53:18Z</time>
      </trkpt>
      <trkpt lat="44.36785" lon="2.38293">
        <ele>435</ele>
        <time>2017-09-16T12:53:48Z</time>
      </trkpt>
      <trkpt lat="44.36818" lon="2.38267">
        <ele>434</ele>
        <time>2017-09-16T12:54:18Z</time>
      </trkpt>
      <trkpt lat="44.36827" lon="2.38254">
        <ele>434</ele>
        <time>2017-09-16T12:54:27Z</time>
      </trkpt>
      <trkpt lat="44.36828" lon="2.38251">
        <ele>433</ele>
        <time>2017-09-16T12:54:29Z</time>
      </trkpt>
      <trkpt lat="44.36839" lon="2.38245">
        <ele>434</ele>
        <time>2017-09-16T12:54:38Z</time>
      </trkpt>
      <trkpt lat="44.36875" lon="2.38239">
        <ele>436</ele>
        <time>2017-09-16T12:55:09Z</time>
      </trkpt>
      <trkpt lat="44.36878" lon="2.38236">
        <ele>436</ele>
        <time>2017-09-16T12:55:13Z</time>
      </trkpt>
      <trkpt lat="44.36884" lon="2.38234">
        <ele>437</ele>
        <time>2017-09-16T12:55:19Z</time>
      </trkpt>
      <trkpt lat="44.36887" lon="2.38231">
        <ele>437</ele>
        <time>2017-09-16T12:55:22Z</time>
      </trkpt>
      <trkpt lat="44.36894" lon="2.38229">
        <ele>437</ele>
        <time>2017-09-16T12:55:29Z</time>
      </trkpt>
      <trkpt lat="44.36902" lon="2.38228">
        <ele>438</ele>
        <time>2017-09-16T12:55:37Z</time>
      </trkpt>
      <trkpt lat="44.36904" lon="2.38226">
        <ele>438</ele>
        <time>2017-09-16T12:56:29Z</time>
      </trkpt>
      <trkpt lat="44.36942" lon="2.38206">
        <ele>443</ele>
        <time>2017-09-16T12:56:59Z</time>
      </trkpt>
      <trkpt lat="44.36949" lon="2.38202">
        <ele>443</ele>
        <time>2017-09-16T12:57:05Z</time>
      </trkpt>
      <trkpt lat="44.36962" lon="2.38193">
        <ele>443</ele>
        <time>2017-09-16T12:57:15Z</time>
      </trkpt>
      <trkpt lat="44.3698" lon="2.38187">
        <ele>443</ele>
        <time>2017-09-16T12:57:30Z</time>
      </trkpt>
      <trkpt lat="44.36989" lon="2.38182">
        <ele>443</ele>
        <time>2017-09-16T12:57:37Z</time>
      </trkpt>
      <trkpt lat="44.37007" lon="2.38176">
        <ele>448</ele>
        <time>2017-09-16T12:57:52Z</time>
      </trkpt>
      <trkpt lat="44.3701" lon="2.38171">
        <ele>448</ele>
        <time>2017-09-16T12:57:55Z</time>
      </trkpt>
      <trkpt lat="44.37034" lon="2.38153">
        <ele>447</ele>
        <time>2017-09-16T12:58:18Z</time>
      </trkpt>
      <trkpt lat="44.37043" lon="2.3814">
        <ele>447</ele>
        <time>2017-09-16T12:58:27Z</time>
      </trkpt>
      <trkpt lat="44.37064" lon="2.3812">
        <ele>448</ele>
        <time>2017-09-16T12:58:46Z</time>
      </trkpt>
      <trkpt lat="44.37079" lon="2.3811">
        <ele>449</ele>
        <time>2017-09-16T12:58:58Z</time>
      </trkpt>
      <trkpt lat="44.3708" lon="2.38106">
        <ele>449</ele>
        <time>2017-09-16T12:59:10Z</time>
      </trkpt>
      <trkpt lat="44.37101" lon="2.38097">
        <ele>462</ele>
        <time>2017-09-16T12:59:38Z</time>
      </trkpt>
      <trkpt lat="44.37112" lon="2.38085">
        <ele>465</ele>
        <time>2017-09-16T12:59:51Z</time>
      </trkpt>
      <trkpt lat="44.37121" lon="2.38068">
        <ele>463</ele>
        <time>2017-09-16T13:00:04Z</time>
      </trkpt>
      <trkpt lat="44.37128" lon="2.38046">
        <ele>464</ele>
        <time>2017-09-16T13:00:19Z</time>
      </trkpt>
      <trkpt lat="44.3713" lon="2.38039">
        <ele>465</ele>
        <time>2017-09-16T13:00:23Z</time>
      </trkpt>
      <trkpt lat="44.37149" lon="2.37999">
        <ele>467</ele>
        <time>2017-09-16T13:00:49Z</time>
      </trkpt>
      <trkpt lat="44.37151" lon="2.37985">
        <ele>467</ele>
        <time>2017-09-16T13:00:58Z</time>
      </trkpt>
      <trkpt lat="44.37156" lon="2.37972">
        <ele>465</ele>
        <time>2017-09-16T13:01:06Z</time>
      </trkpt>
      <trkpt lat="44.37156" lon="2.37967">
        <ele>464</ele>
        <time>2017-09-16T13:01:09Z</time>
      </trkpt>
      <trkpt lat="44.37157" lon="2.37961">
        <ele>464</ele>
        <time>2017-09-16T13:01:37Z</time>
      </trkpt>
      <trkpt lat="44.37155" lon="2.37936">
        <ele>464</ele>
        <time>2017-09-16T13:01:51Z</time>
      </trkpt>
      <trkpt lat="44.37157" lon="2.37898">
        <ele>463</ele>
        <time>2017-09-16T13:02:09Z</time>
      </trkpt>
      <trkpt lat="44.37158" lon="2.37892">
        <ele>462</ele>
        <time>2017-09-16T13:02:12Z</time>
      </trkpt>
      <trkpt lat="44.3716" lon="2.37876">
        <ele>461</ele>
        <time>2017-09-16T13:02:20Z</time>
      </trkpt>
      <trkpt lat="44.37162" lon="2.3787">
        <ele>461</ele>
        <time>2017-09-16T13:02:23Z</time>
      </trkpt>
      <trkpt lat="44.37162" lon="2.37866">
        <ele>462</ele>
        <time>2017-09-16T13:02:26Z</time>
      </trkpt>
      <trkpt lat="44.37162" lon="2.3786">
        <ele>462</ele>
        <time>2017-09-16T13:02:30Z</time>
      </trkpt>
      <trkpt lat="44.37163" lon="2.37854">
        <ele>464</ele>
        <time>2017-09-16T13:02:34Z</time>
      </trkpt>
      <trkpt lat="44.3716" lon="2.37831">
        <ele>468</ele>
        <time>2017-09-16T13:02:46Z</time>
      </trkpt>
      <trkpt lat="44.37149" lon="2.37788">
        <ele>460</ele>
        <time>2017-09-16T13:03:09Z</time>
      </trkpt>
      <trkpt lat="44.3715" lon="2.37773">
        <ele>461</ele>
        <time>2017-09-16T13:03:16Z</time>
      </trkpt>
      <trkpt lat="44.37151" lon="2.37767">
        <ele>462</ele>
        <time>2017-09-16T13:03:19Z</time>
      </trkpt>
      <trkpt lat="44.3716" lon="2.3775">
        <ele>468</ele>
        <time>2017-09-16T13:03:29Z</time>
      </trkpt>
      <trkpt lat="44.37172" lon="2.37728">
        <ele>481</ele>
        <time>2017-09-16T13:03:45Z</time>
      </trkpt>
      <trkpt lat="44.37174" lon="2.37709">
        <ele>484</ele>
        <time>2017-09-16T13:03:55Z</time>
      </trkpt>
      <trkpt lat="44.37169" lon="2.377">
        <ele>484</ele>
        <time>2017-09-16T13:04:01Z</time>
      </trkpt>
      <trkpt lat="44.37162" lon="2.37694">
        <ele>466</ele>
        <time>2017-09-16T13:04:07Z</time>
      </trkpt>
      <trkpt lat="44.3716" lon="2.37688">
        <ele>467</ele>
        <time>2017-09-16T13:04:12Z</time>
      </trkpt>
      <trkpt lat="44.37156" lon="2.37675">
        <ele>469</ele>
        <time>2017-09-16T13:04:21Z</time>
      </trkpt>
      <trkpt lat="44.37158" lon="2.3765">
        <ele>471</ele>
        <time>2017-09-16T13:04:33Z</time>
      </trkpt>
      <trkpt lat="44.37159" lon="2.37644">
        <ele>470</ele>
        <time>2017-09-16T13:04:36Z</time>
      </trkpt>
      <trkpt lat="44.37164" lon="2.37622">
        <ele>471</ele>
        <time>2017-09-16T13:04:47Z</time>
      </trkpt>
      <trkpt lat="44.37163" lon="2.37608">
        <ele>473</ele>
        <time>2017-09-16T13:04:53Z</time>
      </trkpt>
      <trkpt lat="44.3716" lon="2.376">
        <ele>474</ele>
        <time>2017-09-16T13:04:57Z</time>
      </trkpt>
      <trkpt lat="44.37157" lon="2.37585">
        <ele>478</ele>
        <time>2017-09-16T13:05:06Z</time>
      </trkpt>
      <trkpt lat="44.37152" lon="2.37567">
        <ele>478</ele>
        <time>2017-09-16T13:05:14Z</time>
      </trkpt>
      <trkpt lat="44.37151" lon="2.37561">
        <ele>477</ele>
        <time>2017-09-16T13:05:18Z</time>
      </trkpt>
      <trkpt lat="44.37156" lon="2.37513">
        <ele>483</ele>
        <time>2017-09-16T13:05:48Z</time>
      </trkpt>
      <trkpt lat="44.37156" lon="2.37507">
        <ele>485</ele>
        <time>2017-09-16T13:05:51Z</time>
      </trkpt>
      <trkpt lat="44.37148" lon="2.37473">
        <ele>486</ele>
        <time>2017-09-16T13:06:09Z</time>
      </trkpt>
      <trkpt lat="44.37145" lon="2.37453">
        <ele>487</ele>
        <time>2017-09-16T13:06:20Z</time>
      </trkpt>
      <trkpt lat="44.37146" lon="2.37447">
        <ele>487</ele>
        <time>2017-09-16T13:06:24Z</time>
      </trkpt>
      <trkpt lat="44.37145" lon="2.3744">
        <ele>488</ele>
        <time>2017-09-16T13:06:28Z</time>
      </trkpt>
      <trkpt lat="44.3714" lon="2.37427">
        <ele>489</ele>
        <time>2017-09-16T13:06:35Z</time>
      </trkpt>
      <trkpt lat="44.37129" lon="2.37406">
        <ele>489</ele>
        <time>2017-09-16T13:06:48Z</time>
      </trkpt>
      <trkpt lat="44.37124" lon="2.37393">
        <ele>488</ele>
        <time>2017-09-16T13:06:56Z</time>
      </trkpt>
      <trkpt lat="44.37123" lon="2.37383">
        <ele>488</ele>
        <time>2017-09-16T13:07:02Z</time>
      </trkpt>
      <trkpt lat="44.37123" lon="2.37377">
        <ele>488</ele>
        <time>2017-09-16T13:07:05Z</time>
      </trkpt>
      <trkpt lat="44.37123" lon="2.37367">
        <ele>488</ele>
        <time>2017-09-16T13:07:11Z</time>
      </trkpt>
      <trkpt lat="44.37127" lon="2.37358">
        <ele>488</ele>
        <time>2017-09-16T13:07:17Z</time>
      </trkpt>
      <trkpt lat="44.37139" lon="2.37342">
        <ele>491</ele>
        <time>2017-09-16T13:07:28Z</time>
      </trkpt>
      <trkpt lat="44.37148" lon="2.37335">
        <ele>494</ele>
        <time>2017-09-16T13:07:36Z</time>
      </trkpt>
      <trkpt lat="44.37155" lon="2.3733">
        <ele>494</ele>
        <time>2017-09-16T13:07:42Z</time>
      </trkpt>
      <trkpt lat="44.37162" lon="2.37326">
        <ele>496</ele>
        <time>2017-09-16T13:07:48Z</time>
      </trkpt>
      <trkpt lat="44.37175" lon="2.37315">
        <ele>505</ele>
        <time>2017-09-16T13:07:59Z</time>
      </trkpt>
      <trkpt lat="44.37179" lon="2.37309">
        <ele>506</ele>
        <time>2017-09-16T13:08:03Z</time>
      </trkpt>
      <trkpt lat="44.37182" lon="2.37304">
        <ele>507</ele>
        <time>2017-09-16T13:08:11Z</time>
      </trkpt>
      <trkpt lat="44.37188" lon="2.37292">
        <ele>507</ele>
        <time>2017-09-16T13:08:25Z</time>
      </trkpt>
      <trkpt lat="44.37191" lon="2.37282">
        <ele>507</ele>
        <time>2017-09-16T13:08:36Z</time>
      </trkpt>
      <trkpt lat="44.37192" lon="2.37278">
        <ele>507</ele>
        <time>2017-09-16T13:08:39Z</time>
      </trkpt>
      <trkpt lat="44.37192" lon="2.37247">
        <ele>500</ele>
        <time>2017-09-16T13:08:57Z</time>
      </trkpt>
      <trkpt lat="44.37193" lon="2.37242">
        <ele>501</ele>
        <time>2017-09-16T13:09:00Z</time>
      </trkpt>
      <trkpt lat="44.37195" lon="2.37232">
        <ele>501</ele>
        <time>2017-09-16T13:09:13Z</time>
      </trkpt>
      <trkpt lat="44.37196" lon="2.37228">
        <ele>501</ele>
        <time>2017-09-16T13:09:15Z</time>
      </trkpt>
      <trkpt lat="44.37206" lon="2.37211">
        <ele>503</ele>
        <time>2017-09-16T13:09:26Z</time>
      </trkpt>
      <trkpt lat="44.37208" lon="2.37208">
        <ele>503</ele>
        <time>2017-09-16T13:09:28Z</time>
      </trkpt>
      <trkpt lat="44.37217" lon="2.37186">
        <ele>504</ele>
        <time>2017-09-16T13:09:40Z</time>
      </trkpt>
      <trkpt lat="44.37232" lon="2.37162">
        <ele>505</ele>
        <time>2017-09-16T13:09:57Z</time>
      </trkpt>
      <trkpt lat="44.37234" lon="2.37158">
        <ele>505</ele>
        <time>2017-09-16T13:10:00Z</time>
      </trkpt>
      <trkpt lat="44.37236" lon="2.37153">
        <ele>504</ele>
        <time>2017-09-16T13:10:03Z</time>
      </trkpt>
      <trkpt lat="44.3724" lon="2.37138">
        <ele>502</ele>
        <time>2017-09-16T13:10:14Z</time>
      </trkpt>
      <trkpt lat="44.3724" lon="2.37132">
        <ele>502</ele>
        <time>2017-09-16T13:10:17Z</time>
      </trkpt>
      <trkpt lat="44.37241" lon="2.37127">
        <ele>501</ele>
        <time>2017-09-16T13:10:20Z</time>
      </trkpt>
      <trkpt lat="44.37247" lon="2.37117">
        <ele>501</ele>
        <time>2017-09-16T13:10:27Z</time>
      </trkpt>
      <trkpt lat="44.37249" lon="2.3711">
        <ele>502</ele>
        <time>2017-09-16T13:10:31Z</time>
      </trkpt>
      <trkpt lat="44.37255" lon="2.37099">
        <ele>515</ele>
        <time>2017-09-16T13:10:43Z</time>
      </trkpt>
      <trkpt lat="44.3726" lon="2.37095">
        <ele>515</ele>
        <time>2017-09-16T13:10:47Z</time>
      </trkpt>
      <trkpt lat="44.37269" lon="2.37085">
        <ele>516</ele>
        <time>2017-09-16T13:10:56Z</time>
      </trkpt>
      <trkpt lat="44.37308" lon="2.37051">
        <ele>517</ele>
        <time>2017-09-16T13:11:28Z</time>
      </trkpt>
      <trkpt lat="44.37332" lon="2.37029">
        <ele>518</ele>
        <time>2017-09-16T13:11:49Z</time>
      </trkpt>
      <trkpt lat="44.37358" lon="2.37">
        <ele>528</ele>
        <time>2017-09-16T13:12:13Z</time>
      </trkpt>
      <trkpt lat="44.37361" lon="2.36991">
        <ele>529</ele>
        <time>2017-09-16T13:12:18Z</time>
      </trkpt>
      <trkpt lat="44.37367" lon="2.36971">
        <ele>530</ele>
        <time>2017-09-16T13:12:29Z</time>
      </trkpt>
      <trkpt lat="44.37369" lon="2.36966">
        <ele>531</ele>
        <time>2017-09-16T13:12:32Z</time>
      </trkpt>
      <trkpt lat="44.37373" lon="2.36965">
        <ele>531</ele>
        <time>2017-09-16T13:12:37Z</time>
      </trkpt>
      <trkpt lat="44.37363" lon="2.37009">
        <ele>536</ele>
        <time>2017-09-16T13:13:07Z</time>
      </trkpt>
      <trkpt lat="44.37352" lon="2.37025">
        <ele>535</ele>
        <time>2017-09-16T13:13:18Z</time>
      </trkpt>
      <trkpt lat="44.3735" lon="2.3703">
        <ele>536</ele>
        <time>2017-09-16T13:13:23Z</time>
      </trkpt>
      <trkpt lat="44.37349" lon="2.37034">
        <ele>536</ele>
        <time>2017-09-16T13:13:26Z</time>
      </trkpt>
      <trkpt lat="44.37346" lon="2.37038">
        <ele>536</ele>
        <time>2017-09-16T13:13:36Z</time>
      </trkpt>
      <trkpt lat="44.37342" lon="2.37046">
        <ele>537</ele>
        <time>2017-09-16T13:13:41Z</time>
      </trkpt>
      <trkpt lat="44.37324" lon="2.37091">
        <ele>529</ele>
        <time>2017-09-16T13:14:05Z</time>
      </trkpt>
      <trkpt lat="44.37322" lon="2.37101">
        <ele>528</ele>
        <time>2017-09-16T13:14:10Z</time>
      </trkpt>
      <trkpt lat="44.37323" lon="2.37119">
        <ele>527</ele>
        <time>2017-09-16T13:14:20Z</time>
      </trkpt>
      <trkpt lat="44.37325" lon="2.37128">
        <ele>528</ele>
        <time>2017-09-16T13:14:25Z</time>
      </trkpt>
      <trkpt lat="44.37327" lon="2.37135">
        <ele>528</ele>
        <time>2017-09-16T13:14:29Z</time>
      </trkpt>
      <trkpt lat="44.37332" lon="2.37159">
        <ele>534</ele>
        <time>2017-09-16T13:14:42Z</time>
      </trkpt>
      <trkpt lat="44.3734" lon="2.37183">
        <ele>547</ele>
        <time>2017-09-16T13:14:56Z</time>
      </trkpt>
      <trkpt lat="44.3734" lon="2.37189">
        <ele>549</ele>
        <time>2017-09-16T13:14:59Z</time>
      </trkpt>
      <trkpt lat="44.37336" lon="2.37203">
        <ele>551</ele>
        <time>2017-09-16T13:15:06Z</time>
      </trkpt>
      <trkpt lat="44.37333" lon="2.37207">
        <ele>551</ele>
        <time>2017-09-16T13:15:09Z</time>
      </trkpt>
      <trkpt lat="44.3733" lon="2.37219">
        <ele>535</ele>
        <time>2017-09-16T13:15:15Z</time>
      </trkpt>
      <trkpt lat="44.37325" lon="2.37253">
        <ele>543</ele>
        <time>2017-09-16T13:15:32Z</time>
      </trkpt>
      <trkpt lat="44.37325" lon="2.37259">
        <ele>542</ele>
        <time>2017-09-16T13:15:35Z</time>
      </trkpt>
      <trkpt lat="44.37316" lon="2.3729">
        <ele>540</ele>
        <time>2017-09-16T13:15:52Z</time>
      </trkpt>
      <trkpt lat="44.37304" lon="2.37323">
        <ele>540</ele>
        <time>2017-09-16T13:16:10Z</time>
      </trkpt>
      <trkpt lat="44.37302" lon="2.37333">
        <ele>540</ele>
        <time>2017-09-16T13:16:16Z</time>
      </trkpt>
      <trkpt lat="44.37304" lon="2.37336">
        <ele>543</ele>
        <time>2017-09-16T13:16:28Z</time>
      </trkpt>
      <trkpt lat="44.37309" lon="2.37335">
        <ele>545</ele>
        <time>2017-09-16T13:16:32Z</time>
      </trkpt>
      <trkpt lat="44.37317" lon="2.37329">
        <ele>545</ele>
        <time>2017-09-16T13:16:40Z</time>
      </trkpt>
      <trkpt lat="44.37337" lon="2.37318">
        <ele>557</ele>
        <time>2017-09-16T13:17:00Z</time>
      </trkpt>
      <trkpt lat="44.37342" lon="2.37315">
        <ele>558</ele>
        <time>2017-09-16T13:17:04Z</time>
      </trkpt>
      <trkpt lat="44.37347" lon="2.37307">
        <ele>559</ele>
        <time>2017-09-16T13:17:11Z</time>
      </trkpt>
      <trkpt lat="44.37349" lon="2.37304">
        <ele>559</ele>
        <time>2017-09-16T13:17:14Z</time>
      </trkpt>
      <trkpt lat="44.37352" lon="2.37302">
        <ele>560</ele>
        <time>2017-09-16T13:17:17Z</time>
      </trkpt>
      <trkpt lat="44.37355" lon="2.37299">
        <ele>560</ele>
        <time>2017-09-16T13:17:20Z</time>
      </trkpt>
      <trkpt lat="44.37359" lon="2.37295">
        <ele>561</ele>
        <time>2017-09-16T13:17:24Z</time>
      </trkpt>
      <trkpt lat="44.37361" lon="2.37289">
        <ele>561</ele>
        <time>2017-09-16T13:17:28Z</time>
      </trkpt>
      <trkpt lat="44.37368" lon="2.3728">
        <ele>561</ele>
        <time>2017-09-16T13:17:37Z</time>
      </trkpt>
      <trkpt lat="44.37393" lon="2.37255">
        <ele>566</ele>
        <time>2017-09-16T13:18:05Z</time>
      </trkpt>
      <trkpt lat="44.37414" lon="2.37237">
        <ele>567</ele>
        <time>2017-09-16T13:18:26Z</time>
      </trkpt>
      <trkpt lat="44.37417" lon="2.37236">
        <ele>577</ele>
        <time>2017-09-16T13:18:29Z</time>
      </trkpt>
      <trkpt lat="44.37419" lon="2.3723">
        <ele>579</ele>
        <time>2017-09-16T13:18:33Z</time>
      </trkpt>
      <trkpt lat="44.3742" lon="2.37225">
        <ele>579</ele>
        <time>2017-09-16T13:18:35Z</time>
      </trkpt>
      <trkpt lat="44.37425" lon="2.37204">
        <ele>580</ele>
        <time>2017-09-16T13:18:48Z</time>
      </trkpt>
      <trkpt lat="44.37427" lon="2.3719">
        <ele>579</ele>
        <time>2017-09-16T13:18:57Z</time>
      </trkpt>
      <trkpt lat="44.37436" lon="2.37167">
        <ele>579</ele>
        <time>2017-09-16T13:19:10Z</time>
      </trkpt>
      <trkpt lat="44.37438" lon="2.37161">
        <ele>578</ele>
        <time>2017-09-16T13:19:15Z</time>
      </trkpt>
      <trkpt lat="44.37443" lon="2.37151">
        <ele>579</ele>
        <time>2017-09-16T13:19:24Z</time>
      </trkpt>
      <trkpt lat="44.3745" lon="2.37141">
        <ele>580</ele>
        <time>2017-09-16T13:19:35Z</time>
      </trkpt>
      <trkpt lat="44.37457" lon="2.37131">
        <ele>581</ele>
        <time>2017-09-16T13:19:44Z</time>
      </trkpt>
      <trkpt lat="44.3746" lon="2.37127">
        <ele>582</ele>
        <time>2017-09-16T13:19:48Z</time>
      </trkpt>
      <trkpt lat="44.37477" lon="2.37111">
        <ele>584</ele>
        <time>2017-09-16T13:20:05Z</time>
      </trkpt>
      <trkpt lat="44.37489" lon="2.371">
        <ele>587</ele>
        <time>2017-09-16T13:20:16Z</time>
      </trkpt>
      <trkpt lat="44.37495" lon="2.37091">
        <ele>590</ele>
        <time>2017-09-16T13:20:24Z</time>
      </trkpt>
      <trkpt lat="44.37499" lon="2.37085">
        <ele>593</ele>
        <time>2017-09-16T13:20:29Z</time>
      </trkpt>
      <trkpt lat="44.37521" lon="2.37051">
        <ele>596</ele>
        <time>2017-09-16T13:20:54Z</time>
      </trkpt>
      <trkpt lat="44.37525" lon="2.37047">
        <ele>596</ele>
        <time>2017-09-16T13:20:58Z</time>
      </trkpt>
      <trkpt lat="44.37528" lon="2.37043">
        <ele>596</ele>
        <time>2017-09-16T13:21:02Z</time>
      </trkpt>
      <trkpt lat="44.37536" lon="2.37029">
        <ele>596</ele>
        <time>2017-09-16T13:21:16Z</time>
      </trkpt>
      <trkpt lat="44.37538" lon="2.37025">
        <ele>596</ele>
        <time>2017-09-16T13:21:28Z</time>
      </trkpt>
      <trkpt lat="44.37541" lon="2.3702">
        <ele>596</ele>
        <time>2017-09-16T13:21:35Z</time>
      </trkpt>
      <trkpt lat="44.37548" lon="2.37012">
        <ele>597</ele>
        <time>2017-09-16T13:21:43Z</time>
      </trkpt>
      <trkpt lat="44.3755" lon="2.37007">
        <ele>597</ele>
        <time>2017-09-16T13:21:47Z</time>
      </trkpt>
      <trkpt lat="44.37559" lon="2.36991">
        <ele>594</ele>
        <time>2017-09-16T13:21:58Z</time>
      </trkpt>
      <trkpt lat="44.37578" lon="2.3697">
        <ele>594</ele>
        <time>2017-09-16T13:22:15Z</time>
      </trkpt>
      <trkpt lat="44.37581" lon="2.36968">
        <ele>594</ele>
        <time>2017-09-16T13:22:18Z</time>
      </trkpt>
      <trkpt lat="44.37584" lon="2.36965">
        <ele>603</ele>
        <time>2017-09-16T13:22:21Z</time>
      </trkpt>
      <trkpt lat="44.37587" lon="2.36963">
        <ele>603</ele>
        <time>2017-09-16T13:22:23Z</time>
      </trkpt>
      <trkpt lat="44.37615" lon="2.36961">
        <ele>603</ele>
        <time>2017-09-16T13:22:48Z</time>
      </trkpt>
      <trkpt lat="44.3764" lon="2.36966">
        <ele>605</ele>
        <time>2017-09-16T13:23:09Z</time>
      </trkpt>
      <trkpt lat="44.37645" lon="2.36963">
        <ele>605</ele>
        <time>2017-09-16T13:23:13Z</time>
      </trkpt>
      <trkpt lat="44.37649" lon="2.36962">
        <ele>605</ele>
        <time>2017-09-16T13:23:16Z</time>
      </trkpt>
      <trkpt lat="44.3766" lon="2.36962">
        <ele>605</ele>
        <time>2017-09-16T13:23:24Z</time>
      </trkpt>
      <trkpt lat="44.37665" lon="2.3696">
        <ele>605</ele>
        <time>2017-09-16T13:23:28Z</time>
      </trkpt>
      <trkpt lat="44.3767" lon="2.3696">
        <ele>608</ele>
        <time>2017-09-16T13:23:41Z</time>
      </trkpt>
      <trkpt lat="44.37681" lon="2.36959">
        <ele>608</ele>
        <time>2017-09-16T13:24:05Z</time>
      </trkpt>
      <trkpt lat="44.37686" lon="2.36959">
        <ele>609</ele>
        <time>2017-09-16T13:24:09Z</time>
      </trkpt>
      <trkpt lat="44.37692" lon="2.36961">
        <ele>609</ele>
        <time>2017-09-16T13:24:13Z</time>
      </trkpt>
      <trkpt lat="44.37709" lon="2.36965">
        <ele>609</ele>
        <time>2017-09-16T13:24:30Z</time>
      </trkpt>
      <trkpt lat="44.37724" lon="2.36973">
        <ele>610</ele>
        <time>2017-09-16T13:24:39Z</time>
      </trkpt>
      <trkpt lat="44.37733" lon="2.36977">
        <ele>611</ele>
        <time>2017-09-16T13:24:45Z</time>
      </trkpt>
      <trkpt lat="44.37737" lon="2.36977">
        <ele>611</ele>
        <time>2017-09-16T13:24:48Z</time>
      </trkpt>
      <trkpt lat="44.37742" lon="2.36979">
        <ele>611</ele>
        <time>2017-09-16T13:24:52Z</time>
      </trkpt>
      <trkpt lat="44.37755" lon="2.36981">
        <ele>614</ele>
        <time>2017-09-16T13:25:02Z</time>
      </trkpt>
      <trkpt lat="44.37771" lon="2.3698">
        <ele>614</ele>
        <time>2017-09-16T13:25:12Z</time>
      </trkpt>
      <trkpt lat="44.37774" lon="2.36981">
        <ele>614</ele>
        <time>2017-09-16T13:25:14Z</time>
      </trkpt>
      <trkpt lat="44.37776" lon="2.36981">
        <ele>614</ele>
        <time>2017-09-16T13:25:16Z</time>
      </trkpt>
      <trkpt lat="44.37786" lon="2.36985">
        <ele>615</ele>
        <time>2017-09-16T13:25:26Z</time>
      </trkpt>
      <trkpt lat="44.37791" lon="2.36986">
        <ele>615</ele>
        <time>2017-09-16T13:25:30Z</time>
      </trkpt>
      <trkpt lat="44.378" lon="2.36993">
        <ele>615</ele>
        <time>2017-09-16T13:25:38Z</time>
      </trkpt>
      <trkpt lat="44.37809" lon="2.36999">
        <ele>616</ele>
        <time>2017-09-16T13:25:45Z</time>
      </trkpt>
      <trkpt lat="44.37852" lon="2.3701">
        <ele>617</ele>
        <time>2017-09-16T13:26:16Z</time>
      </trkpt>
      <trkpt lat="44.37879" lon="2.37021">
        <ele>616</ele>
        <time>2017-09-16T13:26:39Z</time>
      </trkpt>
      <trkpt lat="44.37883" lon="2.37023">
        <ele>616</ele>
        <time>2017-09-16T13:26:43Z</time>
      </trkpt>
      <trkpt lat="44.37905" lon="2.37037">
        <ele>615</ele>
        <time>2017-09-16T13:26:59Z</time>
      </trkpt>
      <trkpt lat="44.37908" lon="2.3704">
        <ele>615</ele>
        <time>2017-09-16T13:27:02Z</time>
      </trkpt>
      <trkpt lat="44.37928" lon="2.37056">
        <ele>611</ele>
        <time>2017-09-16T13:27:18Z</time>
      </trkpt>
      <trkpt lat="44.37937" lon="2.37069">
        <ele>611</ele>
        <time>2017-09-16T13:27:32Z</time>
      </trkpt>
      <trkpt lat="44.37942" lon="2.37073">
        <ele>611</ele>
        <time>2017-09-16T13:27:37Z</time>
      </trkpt>
      <trkpt lat="44.37951" lon="2.37091">
        <ele>614</ele>
        <time>2017-09-16T13:27:50Z</time>
      </trkpt>
      <trkpt lat="44.37954" lon="2.37097">
        <ele>614</ele>
        <time>2017-09-16T13:27:54Z</time>
      </trkpt>
      <trkpt lat="44.37958" lon="2.37102">
        <ele>614</ele>
        <time>2017-09-16T13:27:58Z</time>
      </trkpt>
      <trkpt lat="44.37968" lon="2.37112">
        <ele>614</ele>
        <time>2017-09-16T13:28:07Z</time>
      </trkpt>
      <trkpt lat="44.37984" lon="2.37117">
        <ele>614</ele>
        <time>2017-09-16T13:28:18Z</time>
      </trkpt>
      <trkpt lat="44.38" lon="2.37114">
        <ele>611</ele>
        <time>2017-09-16T13:28:35Z</time>
      </trkpt>
      <trkpt lat="44.38005" lon="2.37112">
        <ele>611</ele>
        <time>2017-09-16T13:28:38Z</time>
      </trkpt>
      <trkpt lat="44.3801" lon="2.37112">
        <ele>611</ele>
        <time>2017-09-16T13:28:41Z</time>
      </trkpt>
      <trkpt lat="44.38014" lon="2.37112">
        <ele>611</ele>
        <time>2017-09-16T13:28:44Z</time>
      </trkpt>
      <trkpt lat="44.38029" lon="2.37116">
        <ele>611</ele>
        <time>2017-09-16T13:28:58Z</time>
      </trkpt>
      <trkpt lat="44.38038" lon="2.37119">
        <ele>611</ele>
        <time>2017-09-16T13:29:06Z</time>
      </trkpt>
      <trkpt lat="44.38052" lon="2.37124">
        <ele>611</ele>
        <time>2017-09-16T13:29:19Z</time>
      </trkpt>
      <trkpt lat="44.38056" lon="2.37124">
        <ele>611</ele>
        <time>2017-09-16T13:29:22Z</time>
      </trkpt>
      <trkpt lat="44.38079" lon="2.37129">
        <ele>611</ele>
        <time>2017-09-16T13:29:39Z</time>
      </trkpt>
      <trkpt lat="44.38086" lon="2.37131">
        <ele>610</ele>
        <time>2017-09-16T13:29:43Z</time>
      </trkpt>
      <trkpt lat="44.38088" lon="2.37131">
        <ele>610</ele>
        <time>2017-09-16T13:29:45Z</time>
      </trkpt>
      <trkpt lat="44.38131" lon="2.37144">
        <ele>610</ele>
        <time>2017-09-16T13:30:15Z</time>
      </trkpt>
      <trkpt lat="44.38152" lon="2.37145">
        <ele>610</ele>
        <time>2017-09-16T13:30:33Z</time>
      </trkpt>
      <trkpt lat="44.38156" lon="2.37146">
        <ele>610</ele>
        <time>2017-09-16T13:30:36Z</time>
      </trkpt>
      <trkpt lat="44.38196" lon="2.3715">
        <ele>610</ele>
        <time>2017-09-16T13:31:06Z</time>
      </trkpt>
      <trkpt lat="44.38206" lon="2.3715">
        <ele>610</ele>
        <time>2017-09-16T13:31:14Z</time>
      </trkpt>
      <trkpt lat="44.38214" lon="2.37152">
        <ele>610</ele>
        <time>2017-09-16T13:31:20Z</time>
      </trkpt>
      <trkpt lat="44.3823" lon="2.37152">
        <ele>610</ele>
        <time>2017-09-16T13:31:33Z</time>
      </trkpt>
      <trkpt lat="44.38255" lon="2.37151">
        <ele>609</ele>
        <time>2017-09-16T13:31:50Z</time>
      </trkpt>
      <trkpt lat="44.38265" lon="2.37153">
        <ele>609</ele>
        <time>2017-09-16T13:31:56Z</time>
      </trkpt>
      <trkpt lat="44.3828" lon="2.3716">
        <ele>609</ele>
        <time>2017-09-16T13:32:07Z</time>
      </trkpt>
      <trkpt lat="44.38323" lon="2.37174">
        <ele>607</ele>
        <time>2017-09-16T13:32:39Z</time>
      </trkpt>
      <trkpt lat="44.38368" lon="2.37187">
        <ele>604</ele>
        <time>2017-09-16T13:33:10Z</time>
      </trkpt>
      <trkpt lat="44.38411" lon="2.37199">
        <ele>602</ele>
        <time>2017-09-16T13:33:42Z</time>
      </trkpt>
      <trkpt lat="44.38456" lon="2.37209">
        <ele>600</ele>
        <time>2017-09-16T13:34:13Z</time>
      </trkpt>
      <trkpt lat="44.3846" lon="2.37208">
        <ele>600</ele>
        <time>2017-09-16T13:34:15Z</time>
      </trkpt>
      <trkpt lat="44.38468" lon="2.3721">
        <ele>600</ele>
        <time>2017-09-16T13:34:21Z</time>
      </trkpt>
      <trkpt lat="44.38476" lon="2.37213">
        <ele>600</ele>
        <time>2017-09-16T13:34:27Z</time>
      </trkpt>
      <trkpt lat="44.38498" lon="2.37221">
        <ele>600</ele>
        <time>2017-09-16T13:34:44Z</time>
      </trkpt>
      <trkpt lat="44.38506" lon="2.37222">
        <ele>599</ele>
        <time>2017-09-16T13:34:50Z</time>
      </trkpt>
      <trkpt lat="44.3851" lon="2.37221">
        <ele>599</ele>
        <time>2017-09-16T13:34:53Z</time>
      </trkpt>
      <trkpt lat="44.38513" lon="2.3722">
        <ele>599</ele>
        <time>2017-09-16T13:34:55Z</time>
      </trkpt>
      <trkpt lat="44.38517" lon="2.37202">
        <ele>598</ele>
        <time>2017-09-16T13:35:05Z</time>
      </trkpt>
      <trkpt lat="44.38541" lon="2.37151">
        <ele>596</ele>
        <time>2017-09-16T13:35:36Z</time>
      </trkpt>
      <trkpt lat="44.38558" lon="2.3712">
        <ele>596</ele>
        <time>2017-09-16T13:35:57Z</time>
      </trkpt>
      <trkpt lat="44.38565" lon="2.37105">
        <ele>595</ele>
        <time>2017-09-16T13:36:06Z</time>
      </trkpt>
      <trkpt lat="44.38568" lon="2.37093">
        <ele>595</ele>
        <time>2017-09-16T13:36:12Z</time>
      </trkpt>
      <trkpt lat="44.38577" lon="2.37074">
        <ele>594</ele>
        <time>2017-09-16T13:36:24Z</time>
      </trkpt>
      <trkpt lat="44.38585" lon="2.3704">
        <ele>594</ele>
        <time>2017-09-16T13:36:43Z</time>
      </trkpt>
      <trkpt lat="44.38586" lon="2.3703">
        <ele>594</ele>
        <time>2017-09-16T13:36:49Z</time>
      </trkpt>
      <trkpt lat="44.38587" lon="2.37024">
        <ele>594</ele>
        <time>2017-09-16T13:36:53Z</time>
      </trkpt>
      <trkpt lat="44.38592" lon="2.37008">
        <ele>594</ele>
        <time>2017-09-16T13:37:02Z</time>
      </trkpt>
      <trkpt lat="44.38593" lon="2.36997">
        <ele>593</ele>
        <time>2017-09-16T13:37:09Z</time>
      </trkpt>
      <trkpt lat="44.38601" lon="2.36971">
        <ele>594</ele>
        <time>2017-09-16T13:37:22Z</time>
      </trkpt>
      <trkpt lat="44.38606" lon="2.3696">
        <ele>594</ele>
        <time>2017-09-16T13:37:29Z</time>
      </trkpt>
      <trkpt lat="44.3861" lon="2.36955">
        <ele>594</ele>
        <time>2017-09-16T13:37:32Z</time>
      </trkpt>
      <trkpt lat="44.38616" lon="2.36946">
        <ele>594</ele>
        <time>2017-09-16T13:37:39Z</time>
      </trkpt>
      <trkpt lat="44.38619" lon="2.36942">
        <ele>594</ele>
        <time>2017-09-16T13:37:43Z</time>
      </trkpt>
      <trkpt lat="44.38625" lon="2.36936">
        <ele>595</ele>
        <time>2017-09-16T13:37:49Z</time>
      </trkpt>
      <trkpt lat="44.38633" lon="2.36929">
        <ele>595</ele>
        <time>2017-09-16T13:37:55Z</time>
      </trkpt>
      <trkpt lat="44.38636" lon="2.36925">
        <ele>595</ele>
        <time>2017-09-16T13:37:59Z</time>
      </trkpt>
      <trkpt lat="44.38665" lon="2.36889">
        <ele>596</ele>
        <time>2017-09-16T13:38:30Z</time>
      </trkpt>
      <trkpt lat="44.38694" lon="2.36855">
        <ele>599</ele>
        <time>2017-09-16T13:38:58Z</time>
      </trkpt>
      <trkpt lat="44.38704" lon="2.36841">
        <ele>599</ele>
        <time>2017-09-16T13:39:09Z</time>
      </trkpt>
      <trkpt lat="44.38707" lon="2.36836">
        <ele>599</ele>
        <time>2017-09-16T13:39:12Z</time>
      </trkpt>
      <trkpt lat="44.3871" lon="2.36831">
        <ele>601</ele>
        <time>2017-09-16T13:39:16Z</time>
      </trkpt>
      <trkpt lat="44.38716" lon="2.36819">
        <ele>601</ele>
        <time>2017-09-16T13:39:23Z</time>
      </trkpt>
      <trkpt lat="44.38741" lon="2.36774">
        <ele>602</ele>
        <time>2017-09-16T13:39:54Z</time>
      </trkpt>
      <trkpt lat="44.38745" lon="2.36765">
        <ele>602</ele>
        <time>2017-09-16T13:40:00Z</time>
      </trkpt>
      <trkpt lat="44.38752" lon="2.3676">
        <ele>603</ele>
        <time>2017-09-16T13:40:08Z</time>
      </trkpt>
      <trkpt lat="44.3876" lon="2.36745">
        <ele>604</ele>
        <time>2017-09-16T13:40:17Z</time>
      </trkpt>
      <trkpt lat="44.38775" lon="2.36693">
        <ele>606</ele>
        <time>2017-09-16T13:40:48Z</time>
      </trkpt>
      <trkpt lat="44.38777" lon="2.36688">
        <ele>606</ele>
        <time>2017-09-16T13:40:51Z</time>
      </trkpt>
      <trkpt lat="44.38779" lon="2.36679">
        <ele>606</ele>
        <time>2017-09-16T13:40:56Z</time>
      </trkpt>
      <trkpt lat="44.38783" lon="2.36664">
        <ele>607</ele>
        <time>2017-09-16T13:41:05Z</time>
      </trkpt>
      <trkpt lat="44.38795" lon="2.36613">
        <ele>607</ele>
        <time>2017-09-16T13:41:35Z</time>
      </trkpt>
      <trkpt lat="44.38798" lon="2.36599">
        <ele>607</ele>
        <time>2017-09-16T13:41:43Z</time>
      </trkpt>
      <trkpt lat="44.388" lon="2.36594">
        <ele>607</ele>
        <time>2017-09-16T13:41:46Z</time>
      </trkpt>
      <trkpt lat="44.38807" lon="2.36542">
        <ele>610</ele>
        <time>2017-09-16T13:42:16Z</time>
      </trkpt>
      <trkpt lat="44.38807" lon="2.36536">
        <ele>610</ele>
        <time>2017-09-16T13:42:19Z</time>
      </trkpt>
      <trkpt lat="44.38806" lon="2.36479">
        <ele>614</ele>
        <time>2017-09-16T13:42:49Z</time>
      </trkpt>
      <trkpt lat="44.38805" lon="2.36462">
        <ele>615</ele>
        <time>2017-09-16T13:42:59Z</time>
      </trkpt>
      <trkpt lat="44.38805" lon="2.36405">
        <ele>617</ele>
        <time>2017-09-16T13:43:30Z</time>
      </trkpt>
      <trkpt lat="44.38805" lon="2.3639">
        <ele>617</ele>
        <time>2017-09-16T13:43:59Z</time>
      </trkpt>
      <trkpt lat="44.38806" lon="2.36384">
        <ele>617</ele>
        <time>2017-09-16T13:44:02Z</time>
      </trkpt>
      <trkpt lat="44.38808" lon="2.36379">
        <ele>617</ele>
        <time>2017-09-16T13:44:06Z</time>
      </trkpt>
      <trkpt lat="44.3881" lon="2.36376">
        <ele>617</ele>
        <time>2017-09-16T13:44:10Z</time>
      </trkpt>
      <trkpt lat="44.38813" lon="2.36372">
        <ele>617</ele>
        <time>2017-09-16T13:44:14Z</time>
      </trkpt>
      <trkpt lat="44.38821" lon="2.36367">
        <ele>617</ele>
        <time>2017-09-16T13:44:21Z</time>
      </trkpt>
      <trkpt lat="44.38827" lon="2.36361">
        <ele>617</ele>
        <time>2017-09-16T13:44:28Z</time>
      </trkpt>
      <trkpt lat="44.3883" lon="2.36356">
        <ele>617</ele>
        <time>2017-09-16T13:44:32Z</time>
      </trkpt>
      <trkpt lat="44.38831" lon="2.36351">
        <ele>617</ele>
        <time>2017-09-16T13:44:35Z</time>
      </trkpt>
      <trkpt lat="44.38831" lon="2.36345">
        <ele>617</ele>
        <time>2017-09-16T13:44:38Z</time>
      </trkpt>
      <trkpt lat="44.38819" lon="2.36321">
        <ele>617</ele>
        <time>2017-09-16T13:44:54Z</time>
      </trkpt>
      <trkpt lat="44.3881" lon="2.36305">
        <ele>616</ele>
        <time>2017-09-16T13:45:05Z</time>
      </trkpt>
      <trkpt lat="44.38806" lon="2.36287">
        <ele>616</ele>
        <time>2017-09-16T13:45:16Z</time>
      </trkpt>
      <trkpt lat="44.38805" lon="2.36282">
        <ele>616</ele>
        <time>2017-09-16T13:45:20Z</time>
      </trkpt>
      <trkpt lat="44.38804" lon="2.36276">
        <ele>616</ele>
        <time>2017-09-16T13:45:23Z</time>
      </trkpt>
      <trkpt lat="44.38806" lon="2.36239">
        <ele>615</ele>
        <time>2017-09-16T13:45:43Z</time>
      </trkpt>
      <trkpt lat="44.38807" lon="2.36234">
        <ele>615</ele>
        <time>2017-09-16T13:45:46Z</time>
      </trkpt>
      <trkpt lat="44.38808" lon="2.36217">
        <ele>615</ele>
        <time>2017-09-16T13:45:55Z</time>
      </trkpt>
      <trkpt lat="44.38809" lon="2.36207">
        <ele>615</ele>
        <time>2017-09-16T13:46:01Z</time>
      </trkpt>
      <trkpt lat="44.3881" lon="2.36201">
        <ele>615</ele>
        <time>2017-09-16T13:46:05Z</time>
      </trkpt>
      <trkpt lat="44.38811" lon="2.36194">
        <ele>615</ele>
        <time>2017-09-16T13:46:10Z</time>
      </trkpt>
      <trkpt lat="44.38812" lon="2.36188">
        <ele>615</ele>
        <time>2017-09-16T13:46:16Z</time>
      </trkpt>
      <trkpt lat="44.38814" lon="2.36164">
        <ele>614</ele>
        <time>2017-09-16T13:46:28Z</time>
      </trkpt>
      <trkpt lat="44.3881" lon="2.36126">
        <ele>613</ele>
        <time>2017-09-16T13:46:50Z</time>
      </trkpt>
      <trkpt lat="44.38789" lon="2.36073">
        <ele>611</ele>
        <time>2017-09-16T13:47:21Z</time>
      </trkpt>
      <trkpt lat="44.38767" lon="2.36027">
        <ele>610</ele>
        <time>2017-09-16T13:47:51Z</time>
      </trkpt>
      <trkpt lat="44.38761" lon="2.36007">
        <ele>610</ele>
        <time>2017-09-16T13:48:03Z</time>
      </trkpt>
      <trkpt lat="44.38759" lon="2.36002">
        <ele>610</ele>
        <time>2017-09-16T13:48:06Z</time>
      </trkpt>
      <trkpt lat="44.38756" lon="2.35997">
        <ele>609</ele>
        <time>2017-09-16T13:48:09Z</time>
      </trkpt>
      <trkpt lat="44.38738" lon="2.35953">
        <ele>607</ele>
        <time>2017-09-16T13:48:42Z</time>
      </trkpt>
      <trkpt lat="44.38717" lon="2.35898">
        <ele>608</ele>
        <time>2017-09-16T13:49:12Z</time>
      </trkpt>
      <trkpt lat="44.38705" lon="2.35859">
        <ele>608</ele>
        <time>2017-09-16T13:49:34Z</time>
      </trkpt>
      <trkpt lat="44.38697" lon="2.35812">
        <ele>609</ele>
        <time>2017-09-16T13:50:02Z</time>
      </trkpt>
      <trkpt lat="44.38694" lon="2.35803">
        <ele>609</ele>
        <time>2017-09-16T13:50:08Z</time>
      </trkpt>
      <trkpt lat="44.38687" lon="2.35766">
        <ele>609</ele>
        <time>2017-09-16T13:50:30Z</time>
      </trkpt>
      <trkpt lat="44.38684" lon="2.35748">
        <ele>609</ele>
        <time>2017-09-16T13:50:41Z</time>
      </trkpt>
      <trkpt lat="44.38684" lon="2.35724">
        <ele>610</ele>
        <time>2017-09-16T13:50:54Z</time>
      </trkpt>
      <trkpt lat="44.38683" lon="2.35719">
        <ele>610</ele>
        <time>2017-09-16T13:50:57Z</time>
      </trkpt>
      <trkpt lat="44.38682" lon="2.35702">
        <ele>610</ele>
        <time>2017-09-16T13:51:08Z</time>
      </trkpt>
      <trkpt lat="44.38678" lon="2.35681">
        <ele>610</ele>
        <time>2017-09-16T13:51:20Z</time>
      </trkpt>
      <trkpt lat="44.38678" lon="2.35673">
        <ele>610</ele>
        <time>2017-09-16T13:51:25Z</time>
      </trkpt>
      <trkpt lat="44.38675" lon="2.35649">
        <ele>611</ele>
        <time>2017-09-16T13:51:40Z</time>
      </trkpt>
      <trkpt lat="44.38674" lon="2.35634">
        <ele>612</ele>
        <time>2017-09-16T13:51:47Z</time>
      </trkpt>
      <trkpt lat="44.38672" lon="2.35625">
        <ele>612</ele>
        <time>2017-09-16T13:51:52Z</time>
      </trkpt>
      <trkpt lat="44.38669" lon="2.35599">
        <ele>613</ele>
        <time>2017-09-16T13:52:08Z</time>
      </trkpt>
      <trkpt lat="44.38662" lon="2.35541">
        <ele>616</ele>
        <time>2017-09-16T13:52:38Z</time>
      </trkpt>
      <trkpt lat="44.38657" lon="2.35521">
        <ele>617</ele>
        <time>2017-09-16T13:52:49Z</time>
      </trkpt>
      <trkpt lat="44.38655" lon="2.35516">
        <ele>617</ele>
        <time>2017-09-16T13:52:53Z</time>
      </trkpt>
      <trkpt lat="44.38642" lon="2.35486">
        <ele>619</ele>
        <time>2017-09-16T13:53:12Z</time>
      </trkpt>
      <trkpt lat="44.38636" lon="2.35478">
        <ele>620</ele>
        <time>2017-09-16T13:53:20Z</time>
      </trkpt>
      <trkpt lat="44.3862" lon="2.3544">
        <ele>621</ele>
        <time>2017-09-16T13:53:41Z</time>
      </trkpt>
      <trkpt lat="44.38606" lon="2.35412">
        <ele>625</ele>
        <time>2017-09-16T13:53:59Z</time>
      </trkpt>
      <trkpt lat="44.38598" lon="2.35384">
        <ele>626</ele>
        <time>2017-09-16T13:54:16Z</time>
      </trkpt>
      <trkpt lat="44.38597" lon="2.35372">
        <ele>626</ele>
        <time>2017-09-16T13:54:23Z</time>
      </trkpt>
      <trkpt lat="44.38595" lon="2.35366">
        <ele>626</ele>
        <time>2017-09-16T13:54:27Z</time>
      </trkpt>
      <trkpt lat="44.38596" lon="2.35362">
        <ele>627</ele>
        <time>2017-09-16T13:54:37Z</time>
      </trkpt>
      <trkpt lat="44.38598" lon="2.35357">
        <ele>627</ele>
        <time>2017-09-16T13:54:47Z</time>
      </trkpt>
      <trkpt lat="44.38597" lon="2.35353">
        <ele>627</ele>
        <time>2017-09-16T13:54:50Z</time>
      </trkpt>
      <trkpt lat="44.38596" lon="2.3535">
        <ele>627</ele>
        <time>2017-09-16T13:54:52Z</time>
      </trkpt>
      <trkpt lat="44.38594" lon="2.35348">
        <ele>627</ele>
        <time>2017-09-16T13:54:54Z</time>
      </trkpt>
      <trkpt lat="44.38589" lon="2.35324">
        <ele>628</ele>
        <time>2017-09-16T13:55:08Z</time>
      </trkpt>
      <trkpt lat="44.38589" lon="2.35321">
        <ele>629</ele>
        <time>2017-09-16T13:55:10Z</time>
      </trkpt>
      <trkpt lat="44.38589" lon="2.35317">
        <ele>629</ele>
        <time>2017-09-16T13:55:13Z</time>
      </trkpt>
      <trkpt lat="44.38589" lon="2.35313">
        <ele>629</ele>
        <time>2017-09-16T13:55:16Z</time>
      </trkpt>
      <trkpt lat="44.38587" lon="2.3531">
        <ele>629</ele>
        <time>2017-09-16T13:55:19Z</time>
      </trkpt>
      <trkpt lat="44.3858" lon="2.35257">
        <ele>627</ele>
        <time>2017-09-16T13:55:50Z</time>
      </trkpt>
      <trkpt lat="44.3858" lon="2.35246">
        <ele>627</ele>
        <time>2017-09-16T13:55:56Z</time>
      </trkpt>
      <trkpt lat="44.3858" lon="2.35239">
        <ele>626</ele>
        <time>2017-09-16T13:56:00Z</time>
      </trkpt>
      <trkpt lat="44.38583" lon="2.35208">
        <ele>628</ele>
        <time>2017-09-16T13:56:18Z</time>
      </trkpt>
      <trkpt lat="44.38589" lon="2.35179">
        <ele>626</ele>
        <time>2017-09-16T13:56:37Z</time>
      </trkpt>
      <trkpt lat="44.3859" lon="2.35175">
        <ele>626</ele>
        <time>2017-09-16T13:56:39Z</time>
      </trkpt>
      <trkpt lat="44.38595" lon="2.35128">
        <ele>625</ele>
        <time>2017-09-16T13:57:05Z</time>
      </trkpt>
      <trkpt lat="44.38597" lon="2.35123">
        <ele>625</ele>
        <time>2017-09-16T13:57:09Z</time>
      </trkpt>
      <trkpt lat="44.38604" lon="2.35082">
        <ele>621</ele>
        <time>2017-09-16T13:57:31Z</time>
      </trkpt>
      <trkpt lat="44.38605" lon="2.35072">
        <ele>621</ele>
        <time>2017-09-16T13:57:37Z</time>
      </trkpt>
      <trkpt lat="44.38606" lon="2.35069">
        <ele>621</ele>
        <time>2017-09-16T13:57:39Z</time>
      </trkpt>
      <trkpt lat="44.38609" lon="2.35056">
        <ele>621</ele>
        <time>2017-09-16T13:57:47Z</time>
      </trkpt>
      <trkpt lat="44.3861" lon="2.35053">
        <ele>621</ele>
        <time>2017-09-16T13:57:53Z</time>
      </trkpt>
      <trkpt lat="44.38612" lon="2.35045">
        <ele>621</ele>
        <time>2017-09-16T13:58:02Z</time>
      </trkpt>
      <trkpt lat="44.38613" lon="2.35037">
        <ele>621</ele>
        <time>2017-09-16T13:58:06Z</time>
      </trkpt>
      <trkpt lat="44.38616" lon="2.35022">
        <ele>621</ele>
        <time>2017-09-16T13:58:14Z</time>
      </trkpt>
      <trkpt lat="44.38618" lon="2.35011">
        <ele>620</ele>
        <time>2017-09-16T13:58:20Z</time>
      </trkpt>
      <trkpt lat="44.3862" lon="2.35001">
        <ele>620</ele>
        <time>2017-09-16T13:58:25Z</time>
      </trkpt>
      <trkpt lat="44.38621" lon="2.34994">
        <ele>617</ele>
        <time>2017-09-16T13:58:28Z</time>
      </trkpt>
      <trkpt lat="44.38621" lon="2.34989">
        <ele>617</ele>
        <time>2017-09-16T13:58:32Z</time>
      </trkpt>
      <trkpt lat="44.38611" lon="2.34933">
        <ele>614</ele>
        <time>2017-09-16T13:59:04Z</time>
      </trkpt>
      <trkpt lat="44.38611" lon="2.34927">
        <ele>614</ele>
        <time>2017-09-16T13:59:07Z</time>
      </trkpt>
      <trkpt lat="44.38611" lon="2.34922">
        <ele>614</ele>
        <time>2017-09-16T13:59:10Z</time>
      </trkpt>
      <trkpt lat="44.38613" lon="2.34907">
        <ele>610</ele>
        <time>2017-09-16T13:59:18Z</time>
      </trkpt>
      <trkpt lat="44.38614" lon="2.34894">
        <ele>610</ele>
        <time>2017-09-16T13:59:25Z</time>
      </trkpt>
      <trkpt lat="44.38617" lon="2.3489">
        <ele>611</ele>
        <time>2017-09-16T13:59:28Z</time>
      </trkpt>
      <trkpt lat="44.38625" lon="2.34863">
        <ele>610</ele>
        <time>2017-09-16T13:59:44Z</time>
      </trkpt>
      <trkpt lat="44.38642" lon="2.34829">
        <ele>608</ele>
        <time>2017-09-16T14:00:07Z</time>
      </trkpt>
      <trkpt lat="44.38644" lon="2.34825">
        <ele>608</ele>
        <time>2017-09-16T14:00:10Z</time>
      </trkpt>
      <trkpt lat="44.38654" lon="2.34804">
        <ele>607</ele>
        <time>2017-09-16T14:00:24Z</time>
      </trkpt>
      <trkpt lat="44.38658" lon="2.34791">
        <ele>607</ele>
        <time>2017-09-16T14:00:32Z</time>
      </trkpt>
      <trkpt lat="44.38659" lon="2.34787">
        <ele>607</ele>
        <time>2017-09-16T14:00:36Z</time>
      </trkpt>
      <trkpt lat="44.3866" lon="2.34781">
        <ele>606</ele>
        <time>2017-09-16T14:00:43Z</time>
      </trkpt>
      <trkpt lat="44.38661" lon="2.34775">
        <ele>607</ele>
        <time>2017-09-16T14:00:46Z</time>
      </trkpt>
      <trkpt lat="44.38663" lon="2.34764">
        <ele>607</ele>
        <time>2017-09-16T14:00:52Z</time>
      </trkpt>
      <trkpt lat="44.38665" lon="2.34759">
        <ele>608</ele>
        <time>2017-09-16T14:00:57Z</time>
      </trkpt>
      <trkpt lat="44.38665" lon="2.34754">
        <ele>609</ele>
        <time>2017-09-16T14:01:13Z</time>
      </trkpt>
      <trkpt lat="44.38667" lon="2.34749">
        <ele>610</ele>
        <time>2017-09-16T14:01:22Z</time>
      </trkpt>
      <trkpt lat="44.38673" lon="2.34708">
        <ele>612</ele>
        <time>2017-09-16T14:01:49Z</time>
      </trkpt>
      <trkpt lat="44.38676" lon="2.34672">
        <ele>608</ele>
        <time>2017-09-16T14:02:10Z</time>
      </trkpt>
      <trkpt lat="44.38677" lon="2.34662">
        <ele>607</ele>
        <time>2017-09-16T14:02:16Z</time>
      </trkpt>
      <trkpt lat="44.38674" lon="2.34634">
        <ele>609</ele>
        <time>2017-09-16T14:02:36Z</time>
      </trkpt>
      <trkpt lat="44.38671" lon="2.34621">
        <ele>609</ele>
        <time>2017-09-16T14:02:44Z</time>
      </trkpt>
      <trkpt lat="44.38668" lon="2.34615">
        <ele>608</ele>
        <time>2017-09-16T14:02:49Z</time>
      </trkpt>
      <trkpt lat="44.38663" lon="2.34609">
        <ele>596</ele>
        <time>2017-09-16T14:02:54Z</time>
      </trkpt>
      <trkpt lat="44.3866" lon="2.34604">
        <ele>596</ele>
        <time>2017-09-16T14:02:57Z</time>
      </trkpt>
      <trkpt lat="44.38655" lon="2.34601">
        <ele>596</ele>
        <time>2017-09-16T14:03:01Z</time>
      </trkpt>
      <trkpt lat="44.3865" lon="2.34598">
        <ele>595</ele>
        <time>2017-09-16T14:03:05Z</time>
      </trkpt>
      <trkpt lat="44.38648" lon="2.34592">
        <ele>595</ele>
        <time>2017-09-16T14:03:08Z</time>
      </trkpt>
      <trkpt lat="44.38643" lon="2.3458">
        <ele>593</ele>
        <time>2017-09-16T14:03:16Z</time>
      </trkpt>
      <trkpt lat="44.38643" lon="2.34574">
        <ele>593</ele>
        <time>2017-09-16T14:03:19Z</time>
      </trkpt>
      <trkpt lat="44.38641" lon="2.34565">
        <ele>592</ele>
        <time>2017-09-16T14:03:27Z</time>
      </trkpt>
      <trkpt lat="44.3864" lon="2.34552">
        <ele>591</ele>
        <time>2017-09-16T14:03:33Z</time>
      </trkpt>
      <trkpt lat="44.3864" lon="2.34548">
        <ele>591</ele>
        <time>2017-09-16T14:03:39Z</time>
      </trkpt>
      <trkpt lat="44.38639" lon="2.34534">
        <ele>590</ele>
        <time>2017-09-16T14:03:53Z</time>
      </trkpt>
      <trkpt lat="44.38641" lon="2.34517">
        <ele>591</ele>
        <time>2017-09-16T14:04:01Z</time>
      </trkpt>
      <trkpt lat="44.38642" lon="2.34511">
        <ele>591</ele>
        <time>2017-09-16T14:04:05Z</time>
      </trkpt>
      <trkpt lat="44.38646" lon="2.3449">
        <ele>588</ele>
        <time>2017-09-16T14:04:15Z</time>
      </trkpt>
      <trkpt lat="44.38648" lon="2.34486">
        <ele>588</ele>
        <time>2017-09-16T14:04:18Z</time>
      </trkpt>
      <trkpt lat="44.38652" lon="2.34475">
        <ele>587</ele>
        <time>2017-09-16T14:04:25Z</time>
      </trkpt>
      <trkpt lat="44.38657" lon="2.34448">
        <ele>585</ele>
        <time>2017-09-16T14:04:41Z</time>
      </trkpt>
      <trkpt lat="44.38658" lon="2.34441">
        <ele>585</ele>
        <time>2017-09-16T14:04:50Z</time>
      </trkpt>
      <trkpt lat="44.3866" lon="2.34435">
        <ele>585</ele>
        <time>2017-09-16T14:04:54Z</time>
      </trkpt>
      <trkpt lat="44.38659" lon="2.3443">
        <ele>586</ele>
        <time>2017-09-16T14:05:17Z</time>
      </trkpt>
      <trkpt lat="44.3866" lon="2.34424">
        <ele>586</ele>
        <time>2017-09-16T14:05:22Z</time>
      </trkpt>
      <trkpt lat="44.38662" lon="2.34413">
        <ele>585</ele>
        <time>2017-09-16T14:05:35Z</time>
      </trkpt>
      <trkpt lat="44.38663" lon="2.3441">
        <ele>583</ele>
        <time>2017-09-16T14:05:42Z</time>
      </trkpt>
      <trkpt lat="44.38665" lon="2.34404">
        <ele>581</ele>
        <time>2017-09-16T14:05:46Z</time>
      </trkpt>
      <trkpt lat="44.38668" lon="2.34394">
        <ele>587</ele>
        <time>2017-09-16T14:05:54Z</time>
      </trkpt>
      <trkpt lat="44.38668" lon="2.34387">
        <ele>586</ele>
        <time>2017-09-16T14:05:57Z</time>
      </trkpt>
      <trkpt lat="44.3867" lon="2.34381">
        <ele>586</ele>
        <time>2017-09-16T14:06:00Z</time>
      </trkpt>
      <trkpt lat="44.38674" lon="2.34368">
        <ele>584</ele>
        <time>2017-09-16T14:06:08Z</time>
      </trkpt>
      <trkpt lat="44.38677" lon="2.34359">
        <ele>583</ele>
        <time>2017-09-16T14:06:13Z</time>
      </trkpt>
      <trkpt lat="44.38678" lon="2.34356">
        <ele>583</ele>
        <time>2017-09-16T14:06:21Z</time>
      </trkpt>
      <trkpt lat="44.3868" lon="2.34356">
        <ele>583</ele>
        <time>2017-09-16T14:06:44Z</time>
      </trkpt>
      <trkpt lat="44.38682" lon="2.34354">
        <ele>583</ele>
        <time>2017-09-16T14:08:50Z</time>
      </trkpt>
      <trkpt lat="44.38684" lon="2.34353">
        <ele>583</ele>
        <time>2017-09-16T14:08:55Z</time>
      </trkpt>
      <trkpt lat="44.38695" lon="2.34348">
        <ele>584</ele>
        <time>2017-09-16T14:09:08Z</time>
      </trkpt>
      <trkpt lat="44.38703" lon="2.34343">
        <ele>584</ele>
        <time>2017-09-16T14:09:16Z</time>
      </trkpt>
      <trkpt lat="44.38708" lon="2.34341">
        <ele>585</ele>
        <time>2017-09-16T14:09:21Z</time>
      </trkpt>
      <trkpt lat="44.38735" lon="2.3433">
        <ele>577</ele>
        <time>2017-09-16T14:09:43Z</time>
      </trkpt>
      <trkpt lat="44.38746" lon="2.3432">
        <ele>577</ele>
        <time>2017-09-16T14:09:53Z</time>
      </trkpt>
      <trkpt lat="44.38766" lon="2.34308">
        <ele>577</ele>
        <time>2017-09-16T14:10:07Z</time>
      </trkpt>
      <trkpt lat="44.3877" lon="2.34307">
        <ele>576</ele>
        <time>2017-09-16T14:10:25Z</time>
      </trkpt>
      <trkpt lat="44.38774" lon="2.34305">
        <ele>576</ele>
        <time>2017-09-16T14:10:29Z</time>
      </trkpt>
      <trkpt lat="44.38787" lon="2.34305">
        <ele>576</ele>
        <time>2017-09-16T14:10:39Z</time>
      </trkpt>
      <trkpt lat="44.38796" lon="2.34298">
        <ele>575</ele>
        <time>2017-09-16T14:10:45Z</time>
      </trkpt>
      <trkpt lat="44.38806" lon="2.34296">
        <ele>575</ele>
        <time>2017-09-16T14:10:52Z</time>
      </trkpt>
      <trkpt lat="44.38816" lon="2.34293">
        <ele>575</ele>
        <time>2017-09-16T14:10:59Z</time>
      </trkpt>
      <trkpt lat="44.3882" lon="2.34292">
        <ele>575</ele>
        <time>2017-09-16T14:11:02Z</time>
      </trkpt>
      <trkpt lat="44.38831" lon="2.34288">
        <ele>574</ele>
        <time>2017-09-16T14:11:10Z</time>
      </trkpt>
      <trkpt lat="44.38834" lon="2.34287">
        <ele>575</ele>
        <time>2017-09-16T14:11:12Z</time>
      </trkpt>
      <trkpt lat="44.38841" lon="2.34285">
        <ele>575</ele>
        <time>2017-09-16T14:11:18Z</time>
      </trkpt>
      <trkpt lat="44.38857" lon="2.34283">
        <ele>575</ele>
        <time>2017-09-16T14:11:33Z</time>
      </trkpt>
      <trkpt lat="44.38886" lon="2.34271">
        <ele>574</ele>
        <time>2017-09-16T14:11:56Z</time>
      </trkpt>
      <trkpt lat="44.38891" lon="2.34269">
        <ele>573</ele>
        <time>2017-09-16T14:12:00Z</time>
      </trkpt>
      <trkpt lat="44.38895" lon="2.34268">
        <ele>573</ele>
        <time>2017-09-16T14:12:04Z</time>
      </trkpt>
      <trkpt lat="44.38899" lon="2.34264">
        <ele>572</ele>
        <time>2017-09-16T14:12:08Z</time>
      </trkpt>
      <trkpt lat="44.38904" lon="2.34261">
        <ele>571</ele>
        <time>2017-09-16T14:12:11Z</time>
      </trkpt>
      <trkpt lat="44.38918" lon="2.34248">
        <ele>566</ele>
        <time>2017-09-16T14:12:24Z</time>
      </trkpt>
      <trkpt lat="44.38922" lon="2.34244">
        <ele>563</ele>
        <time>2017-09-16T14:12:27Z</time>
      </trkpt>
      <trkpt lat="44.38931" lon="2.34239">
        <ele>559</ele>
        <time>2017-09-16T14:12:34Z</time>
      </trkpt>
      <trkpt lat="44.38938" lon="2.34239">
        <ele>558</ele>
        <time>2017-09-16T14:12:39Z</time>
      </trkpt>
      <trkpt lat="44.38946" lon="2.3424">
        <ele>556</ele>
        <time>2017-09-16T14:12:45Z</time>
      </trkpt>
      <trkpt lat="44.38959" lon="2.34244">
        <ele>555</ele>
        <time>2017-09-16T14:12:56Z</time>
      </trkpt>
      <trkpt lat="44.38968" lon="2.34249">
        <ele>554</ele>
        <time>2017-09-16T14:13:06Z</time>
      </trkpt>
      <trkpt lat="44.38971" lon="2.34253">
        <ele>562</ele>
        <time>2017-09-16T14:13:09Z</time>
      </trkpt>
      <trkpt lat="44.38975" lon="2.34255">
        <ele>562</ele>
        <time>2017-09-16T14:13:13Z</time>
      </trkpt>
      <trkpt lat="44.3898" lon="2.34254">
        <ele>561</ele>
        <time>2017-09-16T14:13:17Z</time>
      </trkpt>
      <trkpt lat="44.38982" lon="2.3425">
        <ele>553</ele>
        <time>2017-09-16T14:13:20Z</time>
      </trkpt>
      <trkpt lat="44.38981" lon="2.34243">
        <ele>553</ele>
        <time>2017-09-16T14:13:27Z</time>
      </trkpt>
      <trkpt lat="44.38979" lon="2.34229">
        <ele>553</ele>
        <time>2017-09-16T14:13:35Z</time>
      </trkpt>
      <trkpt lat="44.38976" lon="2.3422">
        <ele>552</ele>
        <time>2017-09-16T14:13:39Z</time>
      </trkpt>
      <trkpt lat="44.38974" lon="2.34217">
        <ele>552</ele>
        <time>2017-09-16T14:13:41Z</time>
      </trkpt>
      <trkpt lat="44.38973" lon="2.34214">
        <ele>552</ele>
        <time>2017-09-16T14:13:43Z</time>
      </trkpt>
      <trkpt lat="44.38972" lon="2.34212">
        <ele>552</ele>
        <time>2017-09-16T14:13:45Z</time>
      </trkpt>
      <trkpt lat="44.38968" lon="2.34213">
        <ele>552</ele>
        <time>2017-09-16T14:13:52Z</time>
      </trkpt>
      <trkpt lat="44.38965" lon="2.34208">
        <ele>552</ele>
        <time>2017-09-16T14:14:52Z</time>
      </trkpt>
      <trkpt lat="44.38962" lon="2.34205">
        <ele>552</ele>
        <time>2017-09-16T14:16:14Z</time>
      </trkpt>
      <trkpt lat="44.38957" lon="2.34204">
        <ele>552</ele>
        <time>2017-09-16T14:16:20Z</time>
      </trkpt>
      <trkpt lat="44.38953" lon="2.34205">
        <ele>552</ele>
        <time>2017-09-16T14:16:25Z</time>
      </trkpt>
      <trkpt lat="44.3895" lon="2.34203">
        <ele>552</ele>
        <time>2017-09-16T14:16:29Z</time>
      </trkpt>
      <trkpt lat="44.38946" lon="2.34201">
        <ele>552</ele>
        <time>2017-09-16T14:16:40Z</time>
      </trkpt>
      <trkpt lat="44.38941" lon="2.34202">
        <ele>552</ele>
        <time>2017-09-16T14:16:44Z</time>
      </trkpt>
      <trkpt lat="44.38933" lon="2.342">
        <ele>552</ele>
        <time>2017-09-16T14:16:50Z</time>
      </trkpt>
      <trkpt lat="44.38925" lon="2.34198">
        <ele>552</ele>
        <time>2017-09-16T14:16:57Z</time>
      </trkpt>
      <trkpt lat="44.38919" lon="2.34196">
        <ele>551</ele>
        <time>2017-09-16T14:17:03Z</time>
      </trkpt>
      <trkpt lat="44.38914" lon="2.34194">
        <ele>551</ele>
        <time>2017-09-16T14:17:08Z</time>
      </trkpt>
      <trkpt lat="44.3891" lon="2.34193">
        <ele>551</ele>
        <time>2017-09-16T14:17:12Z</time>
      </trkpt>
      <trkpt lat="44.38904" lon="2.34193">
        <ele>551</ele>
        <time>2017-09-16T14:17:17Z</time>
      </trkpt>
      <trkpt lat="44.38898" lon="2.34194">
        <ele>552</ele>
        <time>2017-09-16T14:17:22Z</time>
      </trkpt>
      <trkpt lat="44.38888" lon="2.3419">
        <ele>551</ele>
        <time>2017-09-16T14:17:29Z</time>
      </trkpt>
      <trkpt lat="44.38877" lon="2.34192">
        <ele>551</ele>
        <time>2017-09-16T14:17:39Z</time>
      </trkpt>
      <trkpt lat="44.38869" lon="2.34192">
        <ele>551</ele>
        <time>2017-09-16T14:17:46Z</time>
      </trkpt>
      <trkpt lat="44.38865" lon="2.34192">
        <ele>550</ele>
        <time>2017-09-16T14:17:49Z</time>
      </trkpt>
      <trkpt lat="44.38861" lon="2.34191">
        <ele>550</ele>
        <time>2017-09-16T14:17:52Z</time>
      </trkpt>
      <trkpt lat="44.38858" lon="2.34191">
        <ele>550</ele>
        <time>2017-09-16T14:17:55Z</time>
      </trkpt>
      <trkpt lat="44.38855" lon="2.34192">
        <ele>550</ele>
        <time>2017-09-16T14:17:57Z</time>
      </trkpt>
      <trkpt lat="44.38846" lon="2.3419">
        <ele>548</ele>
        <time>2017-09-16T14:18:03Z</time>
      </trkpt>
      <trkpt lat="44.38843" lon="2.34188">
        <ele>548</ele>
        <time>2017-09-16T14:18:09Z</time>
      </trkpt>
      <trkpt lat="44.38806" lon="2.34181">
        <ele>546</ele>
        <time>2017-09-16T14:18:41Z</time>
      </trkpt>
      <trkpt lat="44.38788" lon="2.34182">
        <ele>546</ele>
        <time>2017-09-16T14:18:54Z</time>
      </trkpt>
      <trkpt lat="44.38785" lon="2.34183">
        <ele>546</ele>
        <time>2017-09-16T14:18:57Z</time>
      </trkpt>
      <trkpt lat="44.38781" lon="2.34185">
        <ele>546</ele>
        <time>2017-09-16T14:19:00Z</time>
      </trkpt>
      <trkpt lat="44.38773" lon="2.34183">
        <ele>545</ele>
        <time>2017-09-16T14:19:06Z</time>
      </trkpt>
      <trkpt lat="44.3877" lon="2.34182">
        <ele>544</ele>
        <time>2017-09-16T14:19:09Z</time>
      </trkpt>
      <trkpt lat="44.38754" lon="2.3418">
        <ele>542</ele>
        <time>2017-09-16T14:19:22Z</time>
      </trkpt>
      <trkpt lat="44.38741" lon="2.34175">
        <ele>540</ele>
        <time>2017-09-16T14:19:31Z</time>
      </trkpt>
      <trkpt lat="44.38725" lon="2.34169">
        <ele>541</ele>
        <time>2017-09-16T14:19:43Z</time>
      </trkpt>
      <trkpt lat="44.38721" lon="2.34169">
        <ele>542</ele>
        <time>2017-09-16T14:19:47Z</time>
      </trkpt>
      <trkpt lat="44.38705" lon="2.34164">
        <ele>526</ele>
        <time>2017-09-16T14:20:01Z</time>
      </trkpt>
      <trkpt lat="44.38695" lon="2.34158">
        <ele>525</ele>
        <time>2017-09-16T14:20:09Z</time>
      </trkpt>
      <trkpt lat="44.38691" lon="2.34156">
        <ele>525</ele>
        <time>2017-09-16T14:20:12Z</time>
      </trkpt>
      <trkpt lat="44.38686" lon="2.34154">
        <ele>526</ele>
        <time>2017-09-16T14:20:16Z</time>
      </trkpt>
      <trkpt lat="44.38673" lon="2.34149">
        <ele>526</ele>
        <time>2017-09-16T14:20:25Z</time>
      </trkpt>
      <trkpt lat="44.38668" lon="2.34148">
        <ele>526</ele>
        <time>2017-09-16T14:20:29Z</time>
      </trkpt>
      <trkpt lat="44.38637" lon="2.34149">
        <ele>521</ele>
        <time>2017-09-16T14:20:53Z</time>
      </trkpt>
      <trkpt lat="44.38634" lon="2.34148">
        <ele>521</ele>
        <time>2017-09-16T14:20:56Z</time>
      </trkpt>
      <trkpt lat="44.3863" lon="2.34147">
        <ele>521</ele>
        <time>2017-09-16T14:21:00Z</time>
      </trkpt>
      <trkpt lat="44.38621" lon="2.34144">
        <ele>520</ele>
        <time>2017-09-16T14:21:09Z</time>
      </trkpt>
      <trkpt lat="44.38613" lon="2.34142">
        <ele>520</ele>
        <time>2017-09-16T14:21:16Z</time>
      </trkpt>
      <trkpt lat="44.38603" lon="2.34133">
        <ele>518</ele>
        <time>2017-09-16T14:21:27Z</time>
      </trkpt>
      <trkpt lat="44.386" lon="2.3413">
        <ele>518</ele>
        <time>2017-09-16T14:21:33Z</time>
      </trkpt>
      <trkpt lat="44.38597" lon="2.34128">
        <ele>517</ele>
        <time>2017-09-16T14:21:39Z</time>
      </trkpt>
      <trkpt lat="44.38591" lon="2.34124">
        <ele>517</ele>
        <time>2017-09-16T14:21:46Z</time>
      </trkpt>
      <trkpt lat="44.38581" lon="2.34123">
        <ele>512</ele>
        <time>2017-09-16T14:21:55Z</time>
      </trkpt>
      <trkpt lat="44.38571" lon="2.34125">
        <ele>511</ele>
        <time>2017-09-16T14:22:04Z</time>
      </trkpt>
      <trkpt lat="44.38537" lon="2.34144">
        <ele>511</ele>
        <time>2017-09-16T14:22:35Z</time>
      </trkpt>
      <trkpt lat="44.38535" lon="2.34145">
        <ele>511</ele>
        <time>2017-09-16T14:22:37Z</time>
      </trkpt>
      <trkpt lat="44.38528" lon="2.34147">
        <ele>511</ele>
        <time>2017-09-16T14:22:56Z</time>
      </trkpt>
      <trkpt lat="44.38493" lon="2.3416">
        <ele>507</ele>
        <time>2017-09-16T14:23:27Z</time>
      </trkpt>
      <trkpt lat="44.38483" lon="2.34163">
        <ele>505</ele>
        <time>2017-09-16T14:23:34Z</time>
      </trkpt>
      <trkpt lat="44.38468" lon="2.34171">
        <ele>509</ele>
        <time>2017-09-16T14:23:51Z</time>
      </trkpt>
      <trkpt lat="44.38464" lon="2.34173">
        <ele>509</ele>
        <time>2017-09-16T14:23:55Z</time>
      </trkpt>
      <trkpt lat="44.38443" lon="2.34189">
        <ele>507</ele>
        <time>2017-09-16T14:24:27Z</time>
      </trkpt>
      <trkpt lat="44.3844" lon="2.34191">
        <ele>506</ele>
        <time>2017-09-16T14:24:31Z</time>
      </trkpt>
      <trkpt lat="44.38433" lon="2.34198">
        <ele>506</ele>
        <time>2017-09-16T14:24:40Z</time>
      </trkpt>
      <trkpt lat="44.38426" lon="2.34208">
        <ele>507</ele>
        <time>2017-09-16T14:24:51Z</time>
      </trkpt>
      <trkpt lat="44.38424" lon="2.3421">
        <ele>507</ele>
        <time>2017-09-16T14:24:54Z</time>
      </trkpt>
      <trkpt lat="44.38422" lon="2.34212">
        <ele>507</ele>
        <time>2017-09-16T14:24:57Z</time>
      </trkpt>
      <trkpt lat="44.38419" lon="2.34217">
        <ele>507</ele>
        <time>2017-09-16T14:25:02Z</time>
      </trkpt>
      <trkpt lat="44.38416" lon="2.34223">
        <ele>496</ele>
        <time>2017-09-16T14:25:06Z</time>
      </trkpt>
      <trkpt lat="44.38407" lon="2.34246">
        <ele>499</ele>
        <time>2017-09-16T14:25:23Z</time>
      </trkpt>
      <trkpt lat="44.38405" lon="2.34254">
        <ele>500</ele>
        <time>2017-09-16T14:25:28Z</time>
      </trkpt>
      <trkpt lat="44.38402" lon="2.34283">
        <ele>498</ele>
        <time>2017-09-16T14:25:44Z</time>
      </trkpt>
      <trkpt lat="44.38402" lon="2.34292">
        <ele>498</ele>
        <time>2017-09-16T14:25:50Z</time>
      </trkpt>
      <trkpt lat="44.38401" lon="2.34297">
        <ele>498</ele>
        <time>2017-09-16T14:25:53Z</time>
      </trkpt>
      <trkpt lat="44.38401" lon="2.34301">
        <ele>498</ele>
        <time>2017-09-16T14:25:56Z</time>
      </trkpt>
      <trkpt lat="44.384" lon="2.34306">
        <ele>498</ele>
        <time>2017-09-16T14:25:59Z</time>
      </trkpt>
      <trkpt lat="44.38394" lon="2.34322">
        <ele>499</ele>
        <time>2017-09-16T14:26:10Z</time>
      </trkpt>
      <trkpt lat="44.38391" lon="2.34327">
        <ele>498</ele>
        <time>2017-09-16T14:26:14Z</time>
      </trkpt>
      <trkpt lat="44.38387" lon="2.3433">
        <ele>498</ele>
        <time>2017-09-16T14:26:16Z</time>
      </trkpt>
      <trkpt lat="44.38381" lon="2.34338">
        <ele>499</ele>
        <time>2017-09-16T14:26:21Z</time>
      </trkpt>
      <trkpt lat="44.38373" lon="2.34351">
        <ele>497</ele>
        <time>2017-09-16T14:26:30Z</time>
      </trkpt>
      <trkpt lat="44.38368" lon="2.34356">
        <ele>497</ele>
        <time>2017-09-16T14:26:39Z</time>
      </trkpt>
      <trkpt lat="44.38368" lon="2.3436">
        <ele>497</ele>
        <time>2017-09-16T14:26:56Z</time>
      </trkpt>
      <trkpt lat="44.38368" lon="2.34365">
        <ele>497</ele>
        <time>2017-09-16T14:27:00Z</time>
      </trkpt>
      <trkpt lat="44.38368" lon="2.3437">
        <ele>498</ele>
        <time>2017-09-16T14:27:04Z</time>
      </trkpt>
      <trkpt lat="44.38368" lon="2.34383">
        <ele>498</ele>
        <time>2017-09-16T14:27:15Z</time>
      </trkpt>
      <trkpt lat="44.38369" lon="2.34391">
        <ele>499</ele>
        <time>2017-09-16T14:27:20Z</time>
      </trkpt>
      <trkpt lat="44.38368" lon="2.344">
        <ele>498</ele>
        <time>2017-09-16T14:27:25Z</time>
      </trkpt>
      <trkpt lat="44.38368" lon="2.34407">
        <ele>499</ele>
        <time>2017-09-16T14:27:30Z</time>
      </trkpt>
      <trkpt lat="44.38369" lon="2.34416">
        <ele>499</ele>
        <time>2017-09-16T14:27:34Z</time>
      </trkpt>
      <trkpt lat="44.38369" lon="2.34425">
        <ele>504</ele>
        <time>2017-09-16T14:27:40Z</time>
      </trkpt>
      <trkpt lat="44.38369" lon="2.34433">
        <ele>504</ele>
        <time>2017-09-16T14:27:46Z</time>
      </trkpt>
      <trkpt lat="44.38364" lon="2.34433">
        <ele>503</ele>
        <time>2017-09-16T14:27:50Z</time>
      </trkpt>
      <trkpt lat="44.38362" lon="2.34431">
        <ele>503</ele>
        <time>2017-09-16T14:27:53Z</time>
      </trkpt>
      <trkpt lat="44.38361" lon="2.34428">
        <ele>502</ele>
        <time>2017-09-16T14:27:55Z</time>
      </trkpt>
      <trkpt lat="44.38359" lon="2.3442">
        <ele>501</ele>
        <time>2017-09-16T14:27:59Z</time>
      </trkpt>
      <trkpt lat="44.38354" lon="2.34405">
        <ele>496</ele>
        <time>2017-09-16T14:28:09Z</time>
      </trkpt>
      <trkpt lat="44.38353" lon="2.344">
        <ele>496</ele>
        <time>2017-09-16T14:28:13Z</time>
      </trkpt>
      <trkpt lat="44.3835" lon="2.3439">
        <ele>496</ele>
        <time>2017-09-16T14:28:20Z</time>
      </trkpt>
      <trkpt lat="44.38348" lon="2.34385">
        <ele>496</ele>
        <time>2017-09-16T14:28:23Z</time>
      </trkpt>
      <trkpt lat="44.38347" lon="2.34381">
        <ele>496</ele>
        <time>2017-09-16T14:28:26Z</time>
      </trkpt>
      <trkpt lat="44.38345" lon="2.34377">
        <ele>495</ele>
        <time>2017-09-16T14:28:28Z</time>
      </trkpt>
      <trkpt lat="44.38341" lon="2.34366">
        <ele>494</ele>
        <time>2017-09-16T14:28:36Z</time>
      </trkpt>
      <trkpt lat="44.38332" lon="2.3434">
        <ele>482</ele>
        <time>2017-09-16T14:28:53Z</time>
      </trkpt>
      <trkpt lat="44.38324" lon="2.34289">
        <ele>477</ele>
        <time>2017-09-16T14:29:24Z</time>
      </trkpt>
      <trkpt lat="44.3832" lon="2.34257">
        <ele>478</ele>
        <time>2017-09-16T14:29:44Z</time>
      </trkpt>
      <trkpt lat="44.3832" lon="2.34254">
        <ele>479</ele>
        <time>2017-09-16T14:29:46Z</time>
      </trkpt>
      <trkpt lat="44.38313" lon="2.34217">
        <ele>475</ele>
        <time>2017-09-16T14:30:10Z</time>
      </trkpt>
      <trkpt lat="44.38311" lon="2.34207">
        <ele>475</ele>
        <time>2017-09-16T14:30:16Z</time>
      </trkpt>
      <trkpt lat="44.38306" lon="2.34186">
        <ele>474</ele>
        <time>2017-09-16T14:30:29Z</time>
      </trkpt>
      <trkpt lat="44.38306" lon="2.34183">
        <ele>474</ele>
        <time>2017-09-16T14:30:31Z</time>
      </trkpt>
      <trkpt lat="44.38294" lon="2.34128">
        <ele>470</ele>
        <time>2017-09-16T14:31:02Z</time>
      </trkpt>
      <trkpt lat="44.38283" lon="2.34076">
        <ele>466</ele>
        <time>2017-09-16T14:31:32Z</time>
      </trkpt>
      <trkpt lat="44.38282" lon="2.34068">
        <ele>465</ele>
        <time>2017-09-16T14:31:36Z</time>
      </trkpt>
      <trkpt lat="44.38281" lon="2.34064">
        <ele>465</ele>
        <time>2017-09-16T14:31:39Z</time>
      </trkpt>
      <trkpt lat="44.3828" lon="2.34051">
        <ele>465</ele>
        <time>2017-09-16T14:31:45Z</time>
      </trkpt>
      <trkpt lat="44.38278" lon="2.34044">
        <ele>465</ele>
        <time>2017-09-16T14:31:49Z</time>
      </trkpt>
      <trkpt lat="44.38276" lon="2.34036">
        <ele>464</ele>
        <time>2017-09-16T14:31:53Z</time>
      </trkpt>
      <trkpt lat="44.38277" lon="2.34029">
        <ele>464</ele>
        <time>2017-09-16T14:31:57Z</time>
      </trkpt>
      <trkpt lat="44.38278" lon="2.34025">
        <ele>464</ele>
        <time>2017-09-16T14:31:59Z</time>
      </trkpt>
      <trkpt lat="44.38285" lon="2.3401">
        <ele>464</ele>
        <time>2017-09-16T14:32:09Z</time>
      </trkpt>
      <trkpt lat="44.38309" lon="2.33991">
        <ele>458</ele>
        <time>2017-09-16T14:32:29Z</time>
      </trkpt>
      <trkpt lat="44.38318" lon="2.33986">
        <ele>458</ele>
        <time>2017-09-16T14:32:37Z</time>
      </trkpt>
      <trkpt lat="44.3832" lon="2.33984">
        <ele>458</ele>
        <time>2017-09-16T14:32:39Z</time>
      </trkpt>
      <trkpt lat="44.38359" lon="2.33963">
        <ele>452</ele>
        <time>2017-09-16T14:33:10Z</time>
      </trkpt>
      <trkpt lat="44.38382" lon="2.33956">
        <ele>450</ele>
        <time>2017-09-16T14:33:28Z</time>
      </trkpt>
      <trkpt lat="44.38391" lon="2.33956">
        <ele>450</ele>
        <time>2017-09-16T14:33:34Z</time>
      </trkpt>
      <trkpt lat="44.38409" lon="2.33953">
        <ele>449</ele>
        <time>2017-09-16T14:33:47Z</time>
      </trkpt>
      <trkpt lat="44.38414" lon="2.33957">
        <ele>450</ele>
        <time>2017-09-16T14:33:53Z</time>
      </trkpt>
      <trkpt lat="44.38417" lon="2.33956">
        <ele>450</ele>
        <time>2017-09-16T14:33:56Z</time>
      </trkpt>
      <trkpt lat="44.3843" lon="2.33956">
        <ele>451</ele>
        <time>2017-09-16T14:34:07Z</time>
      </trkpt>
      <trkpt lat="44.38436" lon="2.33955">
        <ele>451</ele>
        <time>2017-09-16T14:34:11Z</time>
      </trkpt>
      <trkpt lat="44.38438" lon="2.33955">
        <ele>451</ele>
        <time>2017-09-16T14:34:13Z</time>
      </trkpt>
      <trkpt lat="44.38462" lon="2.33946">
        <ele>451</ele>
        <time>2017-09-16T14:34:32Z</time>
      </trkpt>
      <trkpt lat="44.38465" lon="2.33944">
        <ele>450</ele>
        <time>2017-09-16T14:34:35Z</time>
      </trkpt>
      <trkpt lat="44.38468" lon="2.33941">
        <ele>450</ele>
        <time>2017-09-16T14:34:38Z</time>
      </trkpt>
      <trkpt lat="44.38473" lon="2.3394">
        <ele>450</ele>
        <time>2017-09-16T14:34:42Z</time>
      </trkpt>
      <trkpt lat="44.38486" lon="2.33934">
        <ele>448</ele>
        <time>2017-09-16T14:34:52Z</time>
      </trkpt>
      <trkpt lat="44.3849" lon="2.33932">
        <ele>447</ele>
        <time>2017-09-16T14:34:55Z</time>
      </trkpt>
      <trkpt lat="44.38498" lon="2.33931">
        <ele>446</ele>
        <time>2017-09-16T14:35:01Z</time>
      </trkpt>
      <trkpt lat="44.38539" lon="2.33925">
        <ele>449</ele>
        <time>2017-09-16T14:35:32Z</time>
      </trkpt>
      <trkpt lat="44.38551" lon="2.33925">
        <ele>448</ele>
        <time>2017-09-16T14:35:41Z</time>
      </trkpt>
      <trkpt lat="44.38557" lon="2.33928">
        <ele>448</ele>
        <time>2017-09-16T14:35:46Z</time>
      </trkpt>
      <trkpt lat="44.38569" lon="2.33933">
        <ele>447</ele>
        <time>2017-09-16T14:35:56Z</time>
      </trkpt>
      <trkpt lat="44.38572" lon="2.33936">
        <ele>447</ele>
        <time>2017-09-16T14:36:04Z</time>
      </trkpt>
      <trkpt lat="44.38573" lon="2.33939">
        <ele>448</ele>
        <time>2017-09-16T14:36:07Z</time>
      </trkpt>
      <trkpt lat="44.38576" lon="2.3394">
        <ele>448</ele>
        <time>2017-09-16T14:36:10Z</time>
      </trkpt>
      <trkpt lat="44.38579" lon="2.33941">
        <ele>448</ele>
        <time>2017-09-16T14:36:17Z</time>
      </trkpt>
      <trkpt lat="44.38609" lon="2.33939">
        <ele>451</ele>
        <time>2017-09-16T14:36:40Z</time>
      </trkpt>
      <trkpt lat="44.38615" lon="2.33937">
        <ele>451</ele>
        <time>2017-09-16T14:36:45Z</time>
      </trkpt>
      <trkpt lat="44.38642" lon="2.3391">
        <ele>431</ele>
        <time>2017-09-16T14:37:11Z</time>
      </trkpt>
      <trkpt lat="44.38649" lon="2.33906">
        <ele>432</ele>
        <time>2017-09-16T14:37:17Z</time>
      </trkpt>
      <trkpt lat="44.3866" lon="2.33899">
        <ele>432</ele>
        <time>2017-09-16T14:37:26Z</time>
      </trkpt>
      <trkpt lat="44.38666" lon="2.33894">
        <ele>431</ele>
        <time>2017-09-16T14:37:32Z</time>
      </trkpt>
      <trkpt lat="44.38671" lon="2.3389">
        <ele>433</ele>
        <time>2017-09-16T14:37:36Z</time>
      </trkpt>
      <trkpt lat="44.38674" lon="2.33891">
        <ele>433</ele>
        <time>2017-09-16T14:37:38Z</time>
      </trkpt>
      <trkpt lat="44.38677" lon="2.3389">
        <ele>432</ele>
        <time>2017-09-16T14:37:41Z</time>
      </trkpt>
      <trkpt lat="44.38692" lon="2.33882">
        <ele>431</ele>
        <time>2017-09-16T14:37:55Z</time>
      </trkpt>
      <trkpt lat="44.38695" lon="2.33881">
        <ele>431</ele>
        <time>2017-09-16T14:37:58Z</time>
      </trkpt>
      <trkpt lat="44.38723" lon="2.33851">
        <ele>427</ele>
        <time>2017-09-16T14:38:26Z</time>
      </trkpt>
      <trkpt lat="44.38726" lon="2.3385">
        <ele>427</ele>
        <time>2017-09-16T14:38:30Z</time>
      </trkpt>
      <trkpt lat="44.38737" lon="2.33847">
        <ele>426</ele>
        <time>2017-09-16T14:38:41Z</time>
      </trkpt>
      <trkpt lat="44.38741" lon="2.33847">
        <ele>426</ele>
        <time>2017-09-16T14:38:45Z</time>
      </trkpt>
      <trkpt lat="44.38744" lon="2.33843">
        <ele>425</ele>
        <time>2017-09-16T14:39:04Z</time>
      </trkpt>
      <trkpt lat="44.38747" lon="2.3384">
        <ele>424</ele>
        <time>2017-09-16T14:39:08Z</time>
      </trkpt>
      <trkpt lat="44.38761" lon="2.33833">
        <ele>423</ele>
        <time>2017-09-16T14:39:20Z</time>
      </trkpt>
      <trkpt lat="44.38765" lon="2.3383">
        <ele>423</ele>
        <time>2017-09-16T14:39:23Z</time>
      </trkpt>
      <trkpt lat="44.38772" lon="2.33821">
        <ele>424</ele>
        <time>2017-09-16T14:39:32Z</time>
      </trkpt>
      <trkpt lat="44.38776" lon="2.33817">
        <ele>424</ele>
        <time>2017-09-16T14:39:35Z</time>
      </trkpt>
      <trkpt lat="44.38777" lon="2.33813">
        <ele>424</ele>
        <time>2017-09-16T14:39:38Z</time>
      </trkpt>
      <trkpt lat="44.38789" lon="2.33795">
        <ele>425</ele>
        <time>2017-09-16T14:39:53Z</time>
      </trkpt>
      <trkpt lat="44.38795" lon="2.33791">
        <ele>425</ele>
        <time>2017-09-16T14:39:58Z</time>
      </trkpt>
      <trkpt lat="44.38798" lon="2.33789">
        <ele>425</ele>
        <time>2017-09-16T14:40:00Z</time>
      </trkpt>
      <trkpt lat="44.388" lon="2.33786">
        <ele>425</ele>
        <time>2017-09-16T14:40:03Z</time>
      </trkpt>
      <trkpt lat="44.38804" lon="2.33777">
        <ele>425</ele>
        <time>2017-09-16T14:40:08Z</time>
      </trkpt>
      <trkpt lat="44.38807" lon="2.33774">
        <ele>425</ele>
        <time>2017-09-16T14:40:11Z</time>
      </trkpt>
      <trkpt lat="44.38818" lon="2.33737">
        <ele>422</ele>
        <time>2017-09-16T14:40:32Z</time>
      </trkpt>
      <trkpt lat="44.3882" lon="2.33734">
        <ele>422</ele>
        <time>2017-09-16T14:40:34Z</time>
      </trkpt>
      <trkpt lat="44.38824" lon="2.33714">
        <ele>421</ele>
        <time>2017-09-16T14:40:47Z</time>
      </trkpt>
      <trkpt lat="44.38827" lon="2.33702">
        <ele>421</ele>
        <time>2017-09-16T14:40:54Z</time>
      </trkpt>
      <trkpt lat="44.38829" lon="2.33687">
        <ele>421</ele>
        <time>2017-09-16T14:41:07Z</time>
      </trkpt>
      <trkpt lat="44.38828" lon="2.33662">
        <ele>423</ele>
        <time>2017-09-16T14:41:25Z</time>
      </trkpt>
      <trkpt lat="44.38828" lon="2.33655">
        <ele>422</ele>
        <time>2017-09-16T14:41:29Z</time>
      </trkpt>
      <trkpt lat="44.38827" lon="2.33633">
        <ele>422</ele>
        <time>2017-09-16T14:41:41Z</time>
      </trkpt>
      <trkpt lat="44.38824" lon="2.33628">
        <ele>421</ele>
        <time>2017-09-16T14:41:44Z</time>
      </trkpt>
      <trkpt lat="44.38823" lon="2.33622">
        <ele>422</ele>
        <time>2017-09-16T14:41:47Z</time>
      </trkpt>
      <trkpt lat="44.38823" lon="2.33616">
        <ele>422</ele>
        <time>2017-09-16T14:41:51Z</time>
      </trkpt>
      <trkpt lat="44.38821" lon="2.336">
        <ele>423</ele>
        <time>2017-09-16T14:42:00Z</time>
      </trkpt>
      <trkpt lat="44.38819" lon="2.33594">
        <ele>423</ele>
        <time>2017-09-16T14:42:03Z</time>
      </trkpt>
      <trkpt lat="44.38817" lon="2.33587">
        <ele>423</ele>
        <time>2017-09-16T14:42:07Z</time>
      </trkpt>
      <trkpt lat="44.38814" lon="2.33582">
        <ele>423</ele>
        <time>2017-09-16T14:42:12Z</time>
      </trkpt>
      <trkpt lat="44.3881" lon="2.33582">
        <ele>423</ele>
        <time>2017-09-16T14:42:16Z</time>
      </trkpt>
      <trkpt lat="44.38806" lon="2.33586">
        <ele>422</ele>
        <time>2017-09-16T14:42:20Z</time>
      </trkpt>
      <trkpt lat="44.38802" lon="2.33588">
        <ele>421</ele>
        <time>2017-09-16T14:42:23Z</time>
      </trkpt>
      <trkpt lat="44.38799" lon="2.3359">
        <ele>421</ele>
        <time>2017-09-16T14:42:29Z</time>
      </trkpt>
      <trkpt lat="44.38792" lon="2.33597">
        <ele>420</ele>
        <time>2017-09-16T14:42:36Z</time>
      </trkpt>
      <trkpt lat="44.38789" lon="2.336">
        <ele>420</ele>
        <time>2017-09-16T14:42:39Z</time>
      </trkpt>
      <trkpt lat="44.38779" lon="2.33608">
        <ele>419</ele>
        <time>2017-09-16T14:42:49Z</time>
      </trkpt>
      <trkpt lat="44.38775" lon="2.33613">
        <ele>419</ele>
        <time>2017-09-16T14:42:52Z</time>
      </trkpt>
      <trkpt lat="44.38772" lon="2.33616">
        <ele>419</ele>
        <time>2017-09-16T14:42:55Z</time>
      </trkpt>
      <trkpt lat="44.38769" lon="2.33619">
        <ele>419</ele>
        <time>2017-09-16T14:42:58Z</time>
      </trkpt>
      <trkpt lat="44.38767" lon="2.3362">
        <ele>418</ele>
        <time>2017-09-16T14:43:01Z</time>
      </trkpt>
      <trkpt lat="44.38765" lon="2.33624">
        <ele>418</ele>
        <time>2017-09-16T14:43:04Z</time>
      </trkpt>
      <trkpt lat="44.38766" lon="2.33628">
        <ele>418</ele>
        <time>2017-09-16T14:43:07Z</time>
      </trkpt>
      <trkpt lat="44.38768" lon="2.33631">
        <ele>418</ele>
        <time>2017-09-16T14:43:11Z</time>
      </trkpt>
      <trkpt lat="44.3877" lon="2.3363">
        <ele>418</ele>
        <time>2017-09-16T14:43:18Z</time>
      </trkpt>
      <trkpt lat="44.38776" lon="2.33633">
        <ele>419</ele>
        <time>2017-09-16T14:43:23Z</time>
      </trkpt>
      <trkpt lat="44.38777" lon="2.33637">
        <ele>419</ele>
        <time>2017-09-16T14:43:25Z</time>
      </trkpt>
      <trkpt lat="44.38777" lon="2.33646">
        <ele>418</ele>
        <time>2017-09-16T14:43:29Z</time>
      </trkpt>
      <trkpt lat="44.38777" lon="2.33655">
        <ele>418</ele>
        <time>2017-09-16T14:43:35Z</time>
      </trkpt>
      <trkpt lat="44.38776" lon="2.33659">
        <ele>418</ele>
        <time>2017-09-16T14:43:38Z</time>
      </trkpt>
      <trkpt lat="44.38776" lon="2.33665">
        <ele>418</ele>
        <time>2017-09-16T14:43:41Z</time>
      </trkpt>
      <trkpt lat="44.38775" lon="2.3367">
        <ele>417</ele>
        <time>2017-09-16T14:43:44Z</time>
      </trkpt>
      <trkpt lat="44.38773" lon="2.33674">
        <ele>416</ele>
        <time>2017-09-16T14:43:47Z</time>
      </trkpt>
      <trkpt lat="44.38769" lon="2.33687">
        <ele>416</ele>
        <time>2017-09-16T14:43:54Z</time>
      </trkpt>
      <trkpt lat="44.38765" lon="2.337">
        <ele>416</ele>
        <time>2017-09-17T08:10:11Z</time>
      </trkpt>
      <trkpt lat="44.38761" lon="2.33711">
        <ele>416</ele>
        <time>2017-09-16T14:44:10Z</time>
      </trkpt>
      <trkpt lat="44.3876" lon="2.33716">
        <ele>416</ele>
        <time>2017-09-16T14:44:13Z</time>
      </trkpt>
      <trkpt lat="44.38759" lon="2.33719">
        <ele>416</ele>
        <time>2017-09-16T14:44:16Z</time>
      </trkpt>
      <trkpt lat="44.38753" lon="2.33727">
        <ele>415</ele>
        <time>2017-09-16T14:44:22Z</time>
      </trkpt>
      <trkpt lat="44.3875" lon="2.3373">
        <ele>414</ele>
        <time>2017-09-16T14:44:25Z</time>
      </trkpt>
      <trkpt lat="44.38745" lon="2.33737">
        <ele>414</ele>
        <time>2017-09-16T14:44:33Z</time>
      </trkpt>
      <trkpt lat="44.38742" lon="2.33741">
        <ele>414</ele>
        <time>2017-09-16T14:44:36Z</time>
      </trkpt>
      <trkpt lat="44.38739" lon="2.33745">
        <ele>414</ele>
        <time>2017-09-16T14:44:40Z</time>
      </trkpt>
      <trkpt lat="44.38737" lon="2.33749">
        <ele>414</ele>
        <time>2017-09-16T14:44:44Z</time>
      </trkpt>
      <trkpt lat="44.38735" lon="2.33754">
        <ele>413</ele>
        <time>2017-09-16T14:45:19Z</time>
      </trkpt>
      <trkpt lat="44.38736" lon="2.33749">
        <ele>414</ele>
        <time>2017-09-16T14:46:20Z</time>
      </trkpt>
      <trkpt lat="44.38734" lon="2.33752">
        <ele>413</ele>
        <time>2017-09-16T14:50:02Z</time>
      </trkpt>
      <trkpt lat="44.38736" lon="2.33757">
        <ele>413</ele>
        <time>2017-09-16T14:46:35Z</time>
      </trkpt>
      <trkpt lat="44.38739" lon="2.33755">
        <ele>413</ele>
        <time>2017-09-16T14:46:39Z</time>
      </trkpt>
      <trkpt lat="44.38738" lon="2.33752">
        <ele>413</ele>
        <time>2017-09-16T14:47:19Z</time>
      </trkpt>
      <trkpt lat="44.38733" lon="2.33752">
        <ele>413</ele>
        <time>2017-09-16T15:10:22Z</time>
      </trkpt>
      <trkpt lat="44.38733" lon="2.33757">
        <ele>413</ele>
        <time>2017-09-16T14:47:38Z</time>
      </trkpt>
      <trkpt lat="44.38736" lon="2.33761">
        <ele>413</ele>
        <time>2017-09-16T14:47:42Z</time>
      </trkpt>
      <trkpt lat="44.38737" lon="2.33753">
        <ele>413</ele>
        <time>2017-09-16T14:48:29Z</time>
      </trkpt>
      <trkpt lat="44.3874" lon="2.33754">
        <ele>412</ele>
        <time>2017-09-16T15:28:09Z</time>
      </trkpt>
      <trkpt lat="44.38737" lon="2.33748">
        <ele>414</ele>
        <time>2017-09-16T14:49:36Z</time>
      </trkpt>
      <trkpt lat="44.38737" lon="2.33743">
        <ele>414</ele>
        <time>2017-09-16T14:49:41Z</time>
      </trkpt>
      <trkpt lat="44.38734" lon="2.33742">
        <ele>415</ele>
        <time>2017-09-16T14:49:47Z</time>
      </trkpt>
      <trkpt lat="44.38733" lon="2.33748">
        <ele>415</ele>
        <time>2017-09-16T14:59:09Z</time>
      </trkpt>
      <trkpt lat="44.38734" lon="2.33752">
        <ele>413</ele>
        <time>2017-09-16T14:50:02Z</time>
      </trkpt>
      <trkpt lat="44.38735" lon="2.33752">
        <ele>413</ele>
        <time>2017-09-16T14:53:40Z</time>
      </trkpt>
      <trkpt lat="44.38738" lon="2.33754">
        <ele>413</ele>
        <time>2017-09-16T15:20:18Z</time>
      </trkpt>
      <trkpt lat="44.3874" lon="2.33759">
        <ele>413</ele>
        <time>2017-09-16T14:51:47Z</time>
      </trkpt>
      <trkpt lat="44.38738" lon="2.33757">
        <ele>413</ele>
        <time>2017-09-16T14:52:19Z</time>
      </trkpt>
      <trkpt lat="44.38736" lon="2.33752">
        <ele>413</ele>
        <time>2017-09-16T14:52:32Z</time>
      </trkpt>
      <trkpt lat="44.38734" lon="2.33746">
        <ele>414</ele>
        <time>2017-09-16T14:52:35Z</time>
      </trkpt>
      <trkpt lat="44.3873" lon="2.33746">
        <ele>415</ele>
        <time>2017-09-16T14:59:21Z</time>
      </trkpt>
      <trkpt lat="44.3873" lon="2.33742">
        <ele>415</ele>
        <time>2017-09-16T14:53:23Z</time>
      </trkpt>
      <trkpt lat="44.38732" lon="2.33747">
        <ele>415</ele>
        <time>2017-09-16T14:53:35Z</time>
      </trkpt>
      <trkpt lat="44.38735" lon="2.33752">
        <ele>413</ele>
        <time>2017-09-16T14:53:40Z</time>
      </trkpt>
      <trkpt lat="44.38738" lon="2.33754">
        <ele>413</ele>
        <time>2017-09-16T15:20:18Z</time>
      </trkpt>
      <trkpt lat="44.38741" lon="2.33757">
        <ele>412</ele>
        <time>2017-09-16T14:53:49Z</time>
      </trkpt>
      <trkpt lat="44.38741" lon="2.33751">
        <ele>412</ele>
        <time>2017-09-16T14:53:59Z</time>
      </trkpt>
      <trkpt lat="44.38739" lon="2.33748">
        <ele>413</ele>
        <time>2017-09-16T14:55:19Z</time>
      </trkpt>
      <trkpt lat="44.38736" lon="2.33745">
        <ele>414</ele>
        <time>2017-09-16T14:55:23Z</time>
      </trkpt>
      <trkpt lat="44.38731" lon="2.33743">
        <ele>415</ele>
        <time>2017-09-16T14:55:57Z</time>
      </trkpt>
      <trkpt lat="44.3873" lon="2.33748">
        <ele>415</ele>
        <time>2017-09-16T14:56:11Z</time>
      </trkpt>
      <trkpt lat="44.38738" lon="2.3375">
        <ele>413</ele>
        <time>2017-09-16T14:56:18Z</time>
      </trkpt>
      <trkpt lat="44.38741" lon="2.33753">
        <ele>412</ele>
        <time>2017-09-16T15:29:37Z</time>
      </trkpt>
      <trkpt lat="44.38736" lon="2.33748">
        <ele>414</ele>
        <time>2017-09-16T14:58:49Z</time>
      </trkpt>
      <trkpt lat="44.38733" lon="2.33748">
        <ele>414</ele>
        <time>2017-09-16T14:59:09Z</time>
      </trkpt>
      <trkpt lat="44.3873" lon="2.33746">
        <ele>415</ele>
        <time>2017-09-16T14:59:21Z</time>
      </trkpt>
      <trkpt lat="44.38732" lon="2.33744">
        <ele>415</ele>
        <time>2017-09-16T15:00:20Z</time>
      </trkpt>
      <trkpt lat="44.38733" lon="2.33749">
        <ele>414</ele>
        <time>2017-09-16T15:01:15Z</time>
      </trkpt>
      <trkpt lat="44.38731" lon="2.33754">
        <ele>414</ele>
        <time>2017-09-16T15:01:23Z</time>
      </trkpt>
      <trkpt lat="44.38728" lon="2.33756">
        <ele>414</ele>
        <time>2017-09-16T15:01:27Z</time>
      </trkpt>
      <trkpt lat="44.38725" lon="2.33758">
        <ele>414</ele>
        <time>2017-09-16T15:01:29Z</time>
      </trkpt>
      <trkpt lat="44.38718" lon="2.33763">
        <ele>415</ele>
        <time>2017-09-16T15:01:38Z</time>
      </trkpt>
      <trkpt lat="44.38714" lon="2.33766">
        <ele>415</ele>
        <time>2017-09-16T15:01:44Z</time>
      </trkpt>
      <trkpt lat="44.3871" lon="2.33768">
        <ele>416</ele>
        <time>2017-09-16T15:01:48Z</time>
      </trkpt>
      <trkpt lat="44.38701" lon="2.33774">
        <ele>416</ele>
        <time>2017-09-16T15:01:56Z</time>
      </trkpt>
      <trkpt lat="44.38695" lon="2.33773">
        <ele>416</ele>
        <time>2017-09-16T15:02:06Z</time>
      </trkpt>
      <trkpt lat="44.38693" lon="2.33775">
        <ele>416</ele>
        <time>2017-09-16T15:02:10Z</time>
      </trkpt>
      <trkpt lat="44.38693" lon="2.33774">
        <ele>416</ele>
        <time>2017-09-16T15:02:36Z</time>
      </trkpt>
      <trkpt lat="44.38697" lon="2.33773">
        <ele>416</ele>
        <time>2017-09-16T15:02:39Z</time>
      </trkpt>
      <trkpt lat="44.38701" lon="2.33771">
        <ele>416</ele>
        <time>2017-09-16T15:02:45Z</time>
      </trkpt>
      <trkpt lat="44.38704" lon="2.33768">
        <ele>416</ele>
        <time>2017-09-16T15:02:49Z</time>
      </trkpt>
      <trkpt lat="44.38707" lon="2.33767">
        <ele>416</ele>
        <time>2017-09-16T15:02:53Z</time>
      </trkpt>
      <trkpt lat="44.38711" lon="2.33765">
        <ele>415</ele>
        <time>2017-09-16T15:03:00Z</time>
      </trkpt>
      <trkpt lat="44.38721" lon="2.33759">
        <ele>415</ele>
        <time>2017-09-16T15:03:14Z</time>
      </trkpt>
      <trkpt lat="44.38718" lon="2.33759">
        <ele>415</ele>
        <time>2017-09-16T15:04:05Z</time>
      </trkpt>
      <trkpt lat="44.38714" lon="2.3376">
        <ele>415</ele>
        <time>2017-09-16T15:04:11Z</time>
      </trkpt>
      <trkpt lat="44.38707" lon="2.33765">
        <ele>416</ele>
        <time>2017-09-16T15:04:18Z</time>
      </trkpt>
      <trkpt lat="44.387" lon="2.33767">
        <ele>416</ele>
        <time>2017-09-16T15:04:28Z</time>
      </trkpt>
      <trkpt lat="44.38696" lon="2.33768">
        <ele>416</ele>
        <time>2017-09-16T15:04:31Z</time>
      </trkpt>
      <trkpt lat="44.38692" lon="2.33768">
        <ele>416</ele>
        <time>2017-09-16T15:04:35Z</time>
      </trkpt>
      <trkpt lat="44.38687" lon="2.33768">
        <ele>416</ele>
        <time>2017-09-16T15:04:40Z</time>
      </trkpt>
      <trkpt lat="44.38682" lon="2.33767">
        <ele>417</ele>
        <time>2017-09-16T15:04:44Z</time>
      </trkpt>
      <trkpt lat="44.38683" lon="2.33767">
        <ele>417</ele>
        <time>2017-09-16T15:05:08Z</time>
      </trkpt>
      <trkpt lat="44.38686" lon="2.3377">
        <ele>416</ele>
        <time>2017-09-16T15:05:13Z</time>
      </trkpt>
      <trkpt lat="44.38689" lon="2.33768">
        <ele>416</ele>
        <time>2017-09-16T15:05:34Z</time>
      </trkpt>
      <trkpt lat="44.38691" lon="2.33773">
        <ele>416</ele>
        <time>2017-09-16T15:05:51Z</time>
      </trkpt>
      <trkpt lat="44.38693" lon="2.33772">
        <ele>416</ele>
        <time>2017-09-16T15:06:09Z</time>
      </trkpt>
      <trkpt lat="44.38696" lon="2.3377">
        <ele>416</ele>
        <time>2017-09-16T15:06:14Z</time>
      </trkpt>
      <trkpt lat="44.38706" lon="2.33764">
        <ele>416</ele>
        <time>2017-09-16T15:06:25Z</time>
      </trkpt>
      <trkpt lat="44.38709" lon="2.33761">
        <ele>416</ele>
        <time>2017-09-16T15:07:01Z</time>
      </trkpt>
      <trkpt lat="44.38715" lon="2.33764">
        <ele>415</ele>
        <time>2017-09-16T15:07:11Z</time>
      </trkpt>
      <trkpt lat="44.38721" lon="2.33762">
        <ele>415</ele>
        <time>2017-09-16T15:07:17Z</time>
      </trkpt>
      <trkpt lat="44.38727" lon="2.33748">
        <ele>415</ele>
        <time>2017-09-16T15:07:29Z</time>
      </trkpt>
      <trkpt lat="44.38732" lon="2.33746">
        <ele>415</ele>
        <time>2017-09-16T15:08:37Z</time>
      </trkpt>
      <trkpt lat="44.38733" lon="2.33739">
        <ele>415</ele>
        <time>2017-09-16T15:08:44Z</time>
      </trkpt>
      <trkpt lat="44.3874" lon="2.33753">
        <ele>412</ele>
        <time>2017-09-16T15:09:28Z</time>
      </trkpt>
      <trkpt lat="44.38738" lon="2.33755">
        <ele>413</ele>
        <time>2017-09-16T15:10:00Z</time>
      </trkpt>
      <trkpt lat="44.38733" lon="2.33752">
        <ele>413</ele>
        <time>2017-09-16T15:10:22Z</time>
      </trkpt>
      <trkpt lat="44.38729" lon="2.33749">
        <ele>415</ele>
        <time>2017-09-16T15:10:24Z</time>
      </trkpt>
      <trkpt lat="44.38733" lon="2.33744">
        <ele>415</ele>
        <time>2017-09-16T15:11:00Z</time>
      </trkpt>
      <trkpt lat="44.38739" lon="2.33744">
        <ele>414</ele>
        <time>2017-09-16T15:11:56Z</time>
      </trkpt>
      <trkpt lat="44.3874" lon="2.33752">
        <ele>412</ele>
        <time>2017-09-16T15:12:08Z</time>
      </trkpt>
      <trkpt lat="44.38742" lon="2.33757">
        <ele>412</ele>
        <time>2017-09-16T15:12:11Z</time>
      </trkpt>
      <trkpt lat="44.38744" lon="2.33762">
        <ele>413</ele>
        <time>2017-09-16T15:12:17Z</time>
      </trkpt>
      <trkpt lat="44.38743" lon="2.33758">
        <ele>412</ele>
        <time>2017-09-16T15:27:35Z</time>
      </trkpt>
      <trkpt lat="44.38743" lon="2.33754">
        <ele>412</ele>
        <time>2017-09-16T15:13:18Z</time>
      </trkpt>
      <trkpt lat="44.38744" lon="2.33752">
        <ele>412</ele>
        <time>2017-09-16T15:13:42Z</time>
      </trkpt>
      <trkpt lat="44.38745" lon="2.33757">
        <ele>412</ele>
        <time>2017-09-16T15:31:55Z</time>
      </trkpt>
      <trkpt lat="44.38743" lon="2.33761">
        <ele>413</ele>
        <time>2017-09-16T15:31:32Z</time>
      </trkpt>
      <trkpt lat="44.38741" lon="2.33759">
        <ele>413</ele>
        <time>2017-09-16T15:14:43Z</time>
      </trkpt>
      <trkpt lat="44.38744" lon="2.33755">
        <ele>412</ele>
        <time>2017-09-16T15:27:32Z</time>
      </trkpt>
      <trkpt lat="44.38744" lon="2.33755">
        <ele>412</ele>
        <time>2017-09-16T15:27:32Z</time>
      </trkpt>
      <trkpt lat="44.38742" lon="2.3375">
        <ele>412</ele>
        <time>2017-09-16T15:17:31Z</time>
      </trkpt>
      <trkpt lat="44.3874" lon="2.33748">
        <ele>413</ele>
        <time>2017-09-16T15:17:50Z</time>
      </trkpt>
      <trkpt lat="44.38741" lon="2.33754">
        <ele>412</ele>
        <time>2017-09-16T15:26:56Z</time>
      </trkpt>
      <trkpt lat="44.38744" lon="2.33753">
        <ele>412</ele>
        <time>2017-09-16T15:18:44Z</time>
      </trkpt>
      <trkpt lat="44.38741" lon="2.33761">
        <ele>413</ele>
        <time>2017-09-16T15:19:49Z</time>
      </trkpt>
      <trkpt lat="44.38742" lon="2.33758">
        <ele>413</ele>
        <time>2017-09-16T15:19:51Z</time>
      </trkpt>
      <trkpt lat="44.38741" lon="2.33754">
        <ele>412</ele>
        <time>2017-09-16T15:26:56Z</time>
      </trkpt>
      <trkpt lat="44.3874" lon="2.33752">
        <ele>412</ele>
        <time>2017-09-16T15:20:05Z</time>
      </trkpt>
      <trkpt lat="44.38738" lon="2.33754">
        <ele>413</ele>
        <time>2017-09-16T15:20:18Z</time>
      </trkpt>
      <trkpt lat="44.38741" lon="2.33754">
        <ele>412</ele>
        <time>2017-09-16T15:26:56Z</time>
      </trkpt>
      <trkpt lat="44.38743" lon="2.33755">
        <ele>412</ele>
        <time>2017-09-16T15:32:01Z</time>
      </trkpt>
      <trkpt lat="44.38743" lon="2.33758">
        <ele>412</ele>
        <time>2017-09-16T15:27:35Z</time>
      </trkpt>
      <trkpt lat="44.38743" lon="2.33756">
        <ele>412</ele>
        <time>2017-09-16T15:26:09Z</time>
      </trkpt>
      <trkpt lat="44.38741" lon="2.33755">
        <ele>412</ele>
        <time>2017-09-16T15:26:11Z</time>
      </trkpt>
      <trkpt lat="44.3874" lon="2.33754">
        <ele>412</ele>
        <time>2017-09-16T15:28:09Z</time>
      </trkpt>
      <trkpt lat="44.3874" lon="2.3375">
        <ele>412</ele>
        <time>2017-09-16T15:26:20Z</time>
      </trkpt>
      <trkpt lat="44.38738" lon="2.33747">
        <ele>413</ele>
        <time>2017-09-16T15:26:26Z</time>
      </trkpt>
      <trkpt lat="44.38739" lon="2.33751">
        <ele>412</ele>
        <time>2017-09-16T15:26:41Z</time>
      </trkpt>
      <trkpt lat="44.3874" lon="2.33755">
        <ele>412</ele>
        <time>2017-09-16T15:26:44Z</time>
      </trkpt>
      <trkpt lat="44.38741" lon="2.33755">
        <ele>412</ele>
        <time>2017-09-16T15:26:56Z</time>
      </trkpt>
      <trkpt lat="44.38744" lon="2.33755">
        <ele>412</ele>
        <time>2017-09-16T15:27:32Z</time>
      </trkpt>
      <trkpt lat="44.38743" lon="2.33758">
        <ele>412</ele>
        <time>2017-09-16T15:27:35Z</time>
      </trkpt>
      <trkpt lat="44.38739" lon="2.33758">
        <ele>413</ele>
        <time>2017-09-16T15:28:06Z</time>
      </trkpt>
      <trkpt lat="44.3874" lon="2.33754">
        <ele>412</ele>
        <time>2017-09-16T15:28:09Z</time>
      </trkpt>
      <trkpt lat="44.38741" lon="2.33752">
        <ele>412</ele>
        <time>2017-09-16T15:28:25Z</time>
      </trkpt>
      <trkpt lat="44.38741" lon="2.33753">
        <ele>412</ele>
        <time>2017-09-16T15:29:37Z</time>
      </trkpt>
      <trkpt lat="44.38742" lon="2.33753">
        <ele>412</ele>
        <time>2017-09-16T15:29:56Z</time>
      </trkpt>
      <trkpt lat="44.38761" lon="2.33776">
        <ele>420</ele>
        <time>2017-09-16T15:31:17Z</time>
      </trkpt>
      <trkpt lat="44.38751" lon="2.33777">
        <ele>419</ele>
        <time>2017-09-16T15:31:20Z</time>
      </trkpt>
      <trkpt lat="44.38746" lon="2.33768">
        <ele>414</ele>
        <time>2017-09-16T15:31:24Z</time>
      </trkpt>
      <trkpt lat="44.38743" lon="2.33761">
        <ele>413</ele>
        <time>2017-09-16T15:31:32Z</time>
      </trkpt>
      <trkpt lat="44.38745" lon="2.33757">
        <ele>412</ele>
        <time>2017-09-16T15:31:55Z</time>
      </trkpt>
      <trkpt lat="44.38743" lon="2.33755">
        <ele>412</ele>
        <time>2017-09-16T15:32:01Z</time>
      </trkpt>
      <trkpt lat="44.38798" lon="2.33777">
        <ele>424</ele>
        <time>2017-09-17T07:20:49Z</time>
      </trkpt>
      <trkpt lat="44.38747" lon="2.33738">
        <ele>413</ele>
        <time>2017-09-17T08:09:02Z</time>
      </trkpt>
      <trkpt lat="44.38746" lon="2.33733">
        <ele>414</ele>
        <time>2017-09-17T08:09:09Z</time>
      </trkpt>
      <trkpt lat="44.38747" lon="2.33729">
        <ele>415</ele>
        <time>2017-09-17T08:09:14Z</time>
      </trkpt>
      <trkpt lat="44.3875" lon="2.33727">
        <ele>415</ele>
        <time>2017-09-17T08:09:18Z</time>
      </trkpt>
      <trkpt lat="44.38757" lon="2.33718">
        <ele>416</ele>
        <time>2017-09-17T08:09:29Z</time>
      </trkpt>
      <trkpt lat="44.38758" lon="2.33715">
        <ele>416</ele>
        <time>2017-09-17T08:09:32Z</time>
      </trkpt>
      <trkpt lat="44.38761" lon="2.33713">
        <ele>416</ele>
        <time>2017-09-17T08:09:50Z</time>
      </trkpt>
      <trkpt lat="44.38763" lon="2.33709">
        <ele>416</ele>
        <time>2017-09-17T08:09:53Z</time>
      </trkpt>
      <trkpt lat="44.38764" lon="2.33704">
        <ele>416</ele>
        <time>2017-09-17T08:09:57Z</time>
      </trkpt>
      <trkpt lat="44.38765" lon="2.33701">
        <ele>416</ele>
        <time>2017-09-17T08:10:11Z</time>
      </trkpt>
      <trkpt lat="44.38765" lon="2.33698">
        <ele>416</ele>
        <time>2017-09-17T08:10:16Z</time>
      </trkpt>
      <trkpt lat="44.38768" lon="2.33684">
        <ele>416</ele>
        <time>2017-09-17T08:10:35Z</time>
      </trkpt>
      <trkpt lat="44.38769" lon="2.33681">
        <ele>416</ele>
        <time>2017-09-17T08:10:42Z</time>
      </trkpt>
      <trkpt lat="44.3877" lon="2.33677">
        <ele>416</ele>
        <time>2017-09-17T08:10:45Z</time>
      </trkpt>
      <trkpt lat="44.38772" lon="2.33673">
        <ele>416</ele>
        <time>2017-09-17T08:10:50Z</time>
      </trkpt>
      <trkpt lat="44.38773" lon="2.33669">
        <ele>416</ele>
        <time>2017-09-17T08:10:56Z</time>
      </trkpt>
      <trkpt lat="44.38772" lon="2.33664">
        <ele>417</ele>
        <time>2017-09-17T08:11:31Z</time>
      </trkpt>
      <trkpt lat="44.38772" lon="2.33653">
        <ele>418</ele>
        <time>2017-09-17T08:11:40Z</time>
      </trkpt>
      <trkpt lat="44.38774" lon="2.3364">
        <ele>418</ele>
        <time>2017-09-17T08:11:51Z</time>
      </trkpt>
      <trkpt lat="44.38774" lon="2.33635">
        <ele>418</ele>
        <time>2017-09-17T08:11:54Z</time>
      </trkpt>
      <trkpt lat="44.38774" lon="2.3363">
        <ele>419</ele>
        <time>2017-09-17T08:11:59Z</time>
      </trkpt>
      <trkpt lat="44.38768" lon="2.33623">
        <ele>418</ele>
        <time>2017-09-17T08:12:08Z</time>
      </trkpt>
      <trkpt lat="44.38766" lon="2.3362">
        <ele>418</ele>
        <time>2017-09-17T08:12:12Z</time>
      </trkpt>
      <trkpt lat="44.38765" lon="2.33615">
        <ele>418</ele>
        <time>2017-09-17T08:12:17Z</time>
      </trkpt>
      <trkpt lat="44.3877" lon="2.33611">
        <ele>419</ele>
        <time>2017-09-17T08:12:24Z</time>
      </trkpt>
      <trkpt lat="44.38776" lon="2.3361">
        <ele>419</ele>
        <time>2017-09-17T08:12:32Z</time>
      </trkpt>
      <trkpt lat="44.38781" lon="2.33604">
        <ele>419</ele>
        <time>2017-09-17T08:12:38Z</time>
      </trkpt>
      <trkpt lat="44.38785" lon="2.33597">
        <ele>420</ele>
        <time>2017-09-17T08:12:45Z</time>
      </trkpt>
      <trkpt lat="44.38807" lon="2.33582">
        <ele>423</ele>
        <time>2017-09-17T08:13:09Z</time>
      </trkpt>
      <trkpt lat="44.38809" lon="2.33577">
        <ele>423</ele>
        <time>2017-09-17T08:13:15Z</time>
      </trkpt>
      <trkpt lat="44.38808" lon="2.33568">
        <ele>423</ele>
        <time>2017-09-17T08:13:20Z</time>
      </trkpt>
      <trkpt lat="44.38802" lon="2.3356">
        <ele>422</ele>
        <time>2017-09-17T08:13:27Z</time>
      </trkpt>
      <trkpt lat="44.38799" lon="2.33556">
        <ele>422</ele>
        <time>2017-09-17T08:13:31Z</time>
      </trkpt>
      <trkpt lat="44.38796" lon="2.33554">
        <ele>422</ele>
        <time>2017-09-17T08:13:47Z</time>
      </trkpt>
      <trkpt lat="44.38794" lon="2.3355">
        <ele>421</ele>
        <time>2017-09-17T08:13:51Z</time>
      </trkpt>
      <trkpt lat="44.38776" lon="2.33523">
        <ele>419</ele>
        <time>2017-09-17T08:14:12Z</time>
      </trkpt>
      <trkpt lat="44.38775" lon="2.3352">
        <ele>419</ele>
        <time>2017-09-17T08:14:16Z</time>
      </trkpt>
      <trkpt lat="44.38772" lon="2.33517">
        <ele>419</ele>
        <time>2017-09-17T08:14:22Z</time>
      </trkpt>
      <trkpt lat="44.3876" lon="2.33498">
        <ele>418</ele>
        <time>2017-09-17T08:14:37Z</time>
      </trkpt>
      <trkpt lat="44.38758" lon="2.33497">
        <ele>417</ele>
        <time>2017-09-17T08:14:39Z</time>
      </trkpt>
      <trkpt lat="44.38733" lon="2.33465">
        <ele>418</ele>
        <time>2017-09-17T08:15:07Z</time>
      </trkpt>
      <trkpt lat="44.38728" lon="2.33456">
        <ele>419</ele>
        <time>2017-09-17T08:15:14Z</time>
      </trkpt>
      <trkpt lat="44.38726" lon="2.33446">
        <ele>419</ele>
        <time>2017-09-17T08:15:21Z</time>
      </trkpt>
      <trkpt lat="44.38726" lon="2.33442">
        <ele>419</ele>
        <time>2017-09-17T08:15:23Z</time>
      </trkpt>
      <trkpt lat="44.38725" lon="2.33439">
        <ele>419</ele>
        <time>2017-09-17T08:15:26Z</time>
      </trkpt>
      <trkpt lat="44.38712" lon="2.33398">
        <ele>420</ele>
        <time>2017-09-17T08:15:54Z</time>
      </trkpt>
      <trkpt lat="44.3871" lon="2.33391">
        <ele>420</ele>
        <time>2017-09-17T08:15:58Z</time>
      </trkpt>
      <trkpt lat="44.38699" lon="2.33356">
        <ele>420</ele>
        <time>2017-09-17T08:16:18Z</time>
      </trkpt>
      <trkpt lat="44.38696" lon="2.3335">
        <ele>419</ele>
        <time>2017-09-17T08:16:22Z</time>
      </trkpt>
      <trkpt lat="44.38691" lon="2.3334">
        <ele>419</ele>
        <time>2017-09-17T08:16:30Z</time>
      </trkpt>
      <trkpt lat="44.38682" lon="2.33326">
        <ele>420</ele>
        <time>2017-09-17T08:16:41Z</time>
      </trkpt>
      <trkpt lat="44.3868" lon="2.33322">
        <ele>421</ele>
        <time>2017-09-17T08:16:44Z</time>
      </trkpt>
      <trkpt lat="44.3868" lon="2.33318">
        <ele>421</ele>
        <time>2017-09-17T08:16:47Z</time>
      </trkpt>
      <trkpt lat="44.3868" lon="2.33312">
        <ele>422</ele>
        <time>2017-09-17T08:16:51Z</time>
      </trkpt>
      <trkpt lat="44.38679" lon="2.33308">
        <ele>423</ele>
        <time>2017-09-17T08:16:54Z</time>
      </trkpt>
      <trkpt lat="44.38677" lon="2.33294">
        <ele>424</ele>
        <time>2017-09-17T08:17:03Z</time>
      </trkpt>
      <trkpt lat="44.38677" lon="2.33291">
        <ele>424</ele>
        <time>2017-09-17T08:17:06Z</time>
      </trkpt>
      <trkpt lat="44.38674" lon="2.33273">
        <ele>426</ele>
        <time>2017-09-17T08:17:18Z</time>
      </trkpt>
      <trkpt lat="44.38673" lon="2.3327">
        <ele>426</ele>
        <time>2017-09-17T08:17:21Z</time>
      </trkpt>
      <trkpt lat="44.38669" lon="2.33252">
        <ele>426</ele>
        <time>2017-09-17T08:17:34Z</time>
      </trkpt>
      <trkpt lat="44.38667" lon="2.33249">
        <ele>427</ele>
        <time>2017-09-17T08:17:37Z</time>
      </trkpt>
      <trkpt lat="44.38666" lon="2.33245">
        <ele>426</ele>
        <time>2017-09-17T08:17:40Z</time>
      </trkpt>
      <trkpt lat="44.38665" lon="2.3324">
        <ele>426</ele>
        <time>2017-09-17T08:17:44Z</time>
      </trkpt>
      <trkpt lat="44.38661" lon="2.33228">
        <ele>426</ele>
        <time>2017-09-17T08:17:53Z</time>
      </trkpt>
      <trkpt lat="44.38653" lon="2.33198">
        <ele>429</ele>
        <time>2017-09-17T08:18:18Z</time>
      </trkpt>
      <trkpt lat="44.38643" lon="2.33183">
        <ele>430</ele>
        <time>2017-09-17T08:18:30Z</time>
      </trkpt>
      <trkpt lat="44.3864" lon="2.33179">
        <ele>430</ele>
        <time>2017-09-17T08:18:33Z</time>
      </trkpt>
      <trkpt lat="44.38639" lon="2.33174">
        <ele>430</ele>
        <time>2017-09-17T08:18:36Z</time>
      </trkpt>
      <trkpt lat="44.38637" lon="2.33171">
        <ele>430</ele>
        <time>2017-09-17T08:18:39Z</time>
      </trkpt>
      <trkpt lat="44.38635" lon="2.33168">
        <ele>429</ele>
        <time>2017-09-17T08:18:41Z</time>
      </trkpt>
      <trkpt lat="44.38633" lon="2.3316">
        <ele>436</ele>
        <time>2017-09-17T08:18:45Z</time>
      </trkpt>
      <trkpt lat="44.38632" lon="2.33156">
        <ele>436</ele>
        <time>2017-09-17T08:18:48Z</time>
      </trkpt>
      <trkpt lat="44.38632" lon="2.33152">
        <ele>436</ele>
        <time>2017-09-17T08:18:50Z</time>
      </trkpt>
      <trkpt lat="44.38632" lon="2.33146">
        <ele>436</ele>
        <time>2017-09-17T08:18:56Z</time>
      </trkpt>
      <trkpt lat="44.38631" lon="2.33142">
        <ele>436</ele>
        <time>2017-09-17T08:18:59Z</time>
      </trkpt>
      <trkpt lat="44.3863" lon="2.33138">
        <ele>436</ele>
        <time>2017-09-17T08:19:02Z</time>
      </trkpt>
      <trkpt lat="44.38628" lon="2.33135">
        <ele>436</ele>
        <time>2017-09-17T08:19:05Z</time>
      </trkpt>
      <trkpt lat="44.38627" lon="2.33131">
        <ele>436</ele>
        <time>2017-09-17T08:19:08Z</time>
      </trkpt>
      <trkpt lat="44.38626" lon="2.33128">
        <ele>436</ele>
        <time>2017-09-17T08:19:11Z</time>
      </trkpt>
      <trkpt lat="44.38625" lon="2.33124">
        <ele>436</ele>
        <time>2017-09-17T08:19:14Z</time>
      </trkpt>
      <trkpt lat="44.38625" lon="2.33116">
        <ele>437</ele>
        <time>2017-09-17T08:19:20Z</time>
      </trkpt>
      <trkpt lat="44.38623" lon="2.33096">
        <ele>437</ele>
        <time>2017-09-17T08:19:33Z</time>
      </trkpt>
      <trkpt lat="44.38624" lon="2.3308">
        <ele>441</ele>
        <time>2017-09-17T08:19:45Z</time>
      </trkpt>
      <trkpt lat="44.3863" lon="2.33071">
        <ele>443</ele>
        <time>2017-09-17T08:19:53Z</time>
      </trkpt>
      <trkpt lat="44.38631" lon="2.33068">
        <ele>443</ele>
        <time>2017-09-17T08:19:56Z</time>
      </trkpt>
      <trkpt lat="44.38633" lon="2.33064">
        <ele>443</ele>
        <time>2017-09-17T08:20:00Z</time>
      </trkpt>
      <trkpt lat="44.38635" lon="2.3306">
        <ele>444</ele>
        <time>2017-09-17T08:20:04Z</time>
      </trkpt>
      <trkpt lat="44.38637" lon="2.33055">
        <ele>444</ele>
        <time>2017-09-17T08:20:07Z</time>
      </trkpt>
      <trkpt lat="44.3864" lon="2.33051">
        <ele>445</ele>
        <time>2017-09-17T08:20:10Z</time>
      </trkpt>
      <trkpt lat="44.38643" lon="2.33048">
        <ele>445</ele>
        <time>2017-09-17T08:20:54Z</time>
      </trkpt>
      <trkpt lat="44.38653" lon="2.3304">
        <ele>447</ele>
        <time>2017-09-17T08:21:04Z</time>
      </trkpt>
      <trkpt lat="44.3866" lon="2.33033">
        <ele>448</ele>
        <time>2017-09-17T08:21:10Z</time>
      </trkpt>
      <trkpt lat="44.38663" lon="2.33027">
        <ele>449</ele>
        <time>2017-09-17T08:21:14Z</time>
      </trkpt>
      <trkpt lat="44.38671" lon="2.33013">
        <ele>466</ele>
        <time>2017-09-17T08:21:22Z</time>
      </trkpt>
      <trkpt lat="44.38673" lon="2.33005">
        <ele>464</ele>
        <time>2017-09-17T08:21:25Z</time>
      </trkpt>
      <trkpt lat="44.38686" lon="2.32988">
        <ele>472</ele>
        <time>2017-09-17T08:21:37Z</time>
      </trkpt>
      <trkpt lat="44.38688" lon="2.32975">
        <ele>475</ele>
        <time>2017-09-17T08:21:43Z</time>
      </trkpt>
      <trkpt lat="44.38697" lon="2.32946">
        <ele>478</ele>
        <time>2017-09-17T08:22:01Z</time>
      </trkpt>
      <trkpt lat="44.38702" lon="2.32934">
        <ele>479</ele>
        <time>2017-09-17T08:22:09Z</time>
      </trkpt>
      <trkpt lat="44.3871" lon="2.32884">
        <ele>484</ele>
        <time>2017-09-17T08:22:36Z</time>
      </trkpt>
      <trkpt lat="44.38713" lon="2.32867">
        <ele>485</ele>
        <time>2017-09-17T08:22:43Z</time>
      </trkpt>
      <trkpt lat="44.38715" lon="2.32858">
        <ele>486</ele>
        <time>2017-09-17T08:22:48Z</time>
      </trkpt>
      <trkpt lat="44.38714" lon="2.3285">
        <ele>486</ele>
        <time>2017-09-17T08:22:52Z</time>
      </trkpt>
      <trkpt lat="44.38713" lon="2.32843">
        <ele>486</ele>
        <time>2017-09-17T08:23:26Z</time>
      </trkpt>
      <trkpt lat="44.38711" lon="2.32835">
        <ele>485</ele>
        <time>2017-09-17T08:23:35Z</time>
      </trkpt>
      <trkpt lat="44.38709" lon="2.3283">
        <ele>488</ele>
        <time>2017-09-17T08:23:38Z</time>
      </trkpt>
      <trkpt lat="44.38704" lon="2.32824">
        <ele>487</ele>
        <time>2017-09-17T08:23:42Z</time>
      </trkpt>
      <trkpt lat="44.38696" lon="2.32808">
        <ele>486</ele>
        <time>2017-09-17T08:23:50Z</time>
      </trkpt>
      <trkpt lat="44.38692" lon="2.32793">
        <ele>486</ele>
        <time>2017-09-17T08:23:58Z</time>
      </trkpt>
      <trkpt lat="44.38692" lon="2.32788">
        <ele>486</ele>
        <time>2017-09-17T08:24:00Z</time>
      </trkpt>
      <trkpt lat="44.3869" lon="2.32781">
        <ele>486</ele>
        <time>2017-09-17T08:24:04Z</time>
      </trkpt>
      <trkpt lat="44.38689" lon="2.32777">
        <ele>486</ele>
        <time>2017-09-17T08:24:07Z</time>
      </trkpt>
      <trkpt lat="44.38693" lon="2.32768">
        <ele>487</ele>
        <time>2017-09-17T08:24:14Z</time>
      </trkpt>
      <trkpt lat="44.38695" lon="2.32763">
        <ele>487</ele>
        <time>2017-09-17T08:24:17Z</time>
      </trkpt>
      <trkpt lat="44.38697" lon="2.32758">
        <ele>487</ele>
        <time>2017-09-17T08:24:21Z</time>
      </trkpt>
      <trkpt lat="44.38703" lon="2.32742">
        <ele>494</ele>
        <time>2017-09-17T08:24:32Z</time>
      </trkpt>
      <trkpt lat="44.38707" lon="2.32735">
        <ele>495</ele>
        <time>2017-09-17T08:24:36Z</time>
      </trkpt>
      <trkpt lat="44.38709" lon="2.32728">
        <ele>496</ele>
        <time>2017-09-17T08:24:41Z</time>
      </trkpt>
      <trkpt lat="44.3871" lon="2.32721">
        <ele>496</ele>
        <time>2017-09-17T08:24:52Z</time>
      </trkpt>
      <trkpt lat="44.38716" lon="2.32699">
        <ele>498</ele>
        <time>2017-09-17T08:25:05Z</time>
      </trkpt>
      <trkpt lat="44.38715" lon="2.32692">
        <ele>498</ele>
        <time>2017-09-17T08:25:09Z</time>
      </trkpt>
      <trkpt lat="44.38716" lon="2.32677">
        <ele>500</ele>
        <time>2017-09-17T08:25:21Z</time>
      </trkpt>
      <trkpt lat="44.38708" lon="2.32655">
        <ele>502</ele>
        <time>2017-09-17T08:25:32Z</time>
      </trkpt>
      <trkpt lat="44.38697" lon="2.32623">
        <ele>501</ele>
        <time>2017-09-17T08:25:47Z</time>
      </trkpt>
      <trkpt lat="44.38696" lon="2.32617">
        <ele>501</ele>
        <time>2017-09-17T08:25:50Z</time>
      </trkpt>
      <trkpt lat="44.38695" lon="2.32611">
        <ele>501</ele>
        <time>2017-09-17T08:25:54Z</time>
      </trkpt>
      <trkpt lat="44.38688" lon="2.32596">
        <ele>500</ele>
        <time>2017-09-17T08:26:03Z</time>
      </trkpt>
      <trkpt lat="44.38686" lon="2.32591">
        <ele>499</ele>
        <time>2017-09-17T08:26:07Z</time>
      </trkpt>
      <trkpt lat="44.38683" lon="2.32587">
        <ele>499</ele>
        <time>2017-09-17T08:26:10Z</time>
      </trkpt>
      <trkpt lat="44.38681" lon="2.32582">
        <ele>500</ele>
        <time>2017-09-17T08:26:13Z</time>
      </trkpt>
      <trkpt lat="44.38678" lon="2.32578">
        <ele>500</ele>
        <time>2017-09-17T08:26:17Z</time>
      </trkpt>
      <trkpt lat="44.38672" lon="2.32558">
        <ele>503</ele>
        <time>2017-09-17T08:26:28Z</time>
      </trkpt>
      <trkpt lat="44.3867" lon="2.32547">
        <ele>504</ele>
        <time>2017-09-17T08:26:32Z</time>
      </trkpt>
      <trkpt lat="44.38669" lon="2.32543">
        <ele>504</ele>
        <time>2017-09-17T08:26:34Z</time>
      </trkpt>
      <trkpt lat="44.38668" lon="2.32538">
        <ele>504</ele>
        <time>2017-09-17T08:26:36Z</time>
      </trkpt>
      <trkpt lat="44.38668" lon="2.32524">
        <ele>504</ele>
        <time>2017-09-17T08:26:43Z</time>
      </trkpt>
      <trkpt lat="44.38672" lon="2.32509">
        <ele>502</ele>
        <time>2017-09-17T08:26:52Z</time>
      </trkpt>
      <trkpt lat="44.38672" lon="2.32502">
        <ele>501</ele>
        <time>2017-09-17T08:26:56Z</time>
      </trkpt>
      <trkpt lat="44.38671" lon="2.32494">
        <ele>504</ele>
        <time>2017-09-17T08:27:04Z</time>
      </trkpt>
      <trkpt lat="44.38669" lon="2.32485">
        <ele>507</ele>
        <time>2017-09-17T08:27:07Z</time>
      </trkpt>
      <trkpt lat="44.38667" lon="2.3248">
        <ele>508</ele>
        <time>2017-09-17T08:27:11Z</time>
      </trkpt>
      <trkpt lat="44.38663" lon="2.32467">
        <ele>498</ele>
        <time>2017-09-17T08:27:20Z</time>
      </trkpt>
      <trkpt lat="44.3866" lon="2.3246">
        <ele>498</ele>
        <time>2017-09-17T08:27:25Z</time>
      </trkpt>
      <trkpt lat="44.38658" lon="2.32453">
        <ele>499</ele>
        <time>2017-09-17T08:27:30Z</time>
      </trkpt>
      <trkpt lat="44.38652" lon="2.32447">
        <ele>500</ele>
        <time>2017-09-17T08:27:39Z</time>
      </trkpt>
      <trkpt lat="44.38646" lon="2.32442">
        <ele>499</ele>
        <time>2017-09-17T08:27:47Z</time>
      </trkpt>
      <trkpt lat="44.38639" lon="2.32431">
        <ele>500</ele>
        <time>2017-09-17T08:27:56Z</time>
      </trkpt>
      <trkpt lat="44.38635" lon="2.32423">
        <ele>499</ele>
        <time>2017-09-17T08:28:01Z</time>
      </trkpt>
      <trkpt lat="44.38629" lon="2.32415">
        <ele>509</ele>
        <time>2017-09-17T08:28:04Z</time>
      </trkpt>
      <trkpt lat="44.38621" lon="2.32401">
        <ele>508</ele>
        <time>2017-09-17T08:29:03Z</time>
      </trkpt>
      <trkpt lat="44.38613" lon="2.32396">
        <ele>507</ele>
        <time>2017-09-17T08:30:11Z</time>
      </trkpt>
      <trkpt lat="44.38606" lon="2.32391">
        <ele>507</ele>
        <time>2017-09-17T08:30:23Z</time>
      </trkpt>
      <trkpt lat="44.38602" lon="2.3238">
        <ele>508</ele>
        <time>2017-09-17T08:30:29Z</time>
      </trkpt>
      <trkpt lat="44.38595" lon="2.32374">
        <ele>509</ele>
        <time>2017-09-17T08:30:32Z</time>
      </trkpt>
      <trkpt lat="44.3859" lon="2.32369">
        <ele>509</ele>
        <time>2017-09-17T08:30:39Z</time>
      </trkpt>
      <trkpt lat="44.38583" lon="2.32361">
        <ele>500</ele>
        <time>2017-09-17T08:30:47Z</time>
      </trkpt>
      <trkpt lat="44.38569" lon="2.32354">
        <ele>500</ele>
        <time>2017-09-17T08:30:57Z</time>
      </trkpt>
      <trkpt lat="44.38562" lon="2.3235">
        <ele>500</ele>
        <time>2017-09-17T08:31:04Z</time>
      </trkpt>
      <trkpt lat="44.38551" lon="2.32339">
        <ele>498</ele>
        <time>2017-09-17T08:31:14Z</time>
      </trkpt>
      <trkpt lat="44.38547" lon="2.32334">
        <ele>498</ele>
        <time>2017-09-17T08:31:17Z</time>
      </trkpt>
      <trkpt lat="44.38549" lon="2.32324">
        <ele>504</ele>
        <time>2017-09-17T08:31:23Z</time>
      </trkpt>
      <trkpt lat="44.38553" lon="2.32317">
        <ele>505</ele>
        <time>2017-09-17T08:31:29Z</time>
      </trkpt>
      <trkpt lat="44.38553" lon="2.32308">
        <ele>505</ele>
        <time>2017-09-17T08:31:37Z</time>
      </trkpt>
      <trkpt lat="44.38555" lon="2.32298">
        <ele>505</ele>
        <time>2017-09-17T08:31:44Z</time>
      </trkpt>
      <trkpt lat="44.38557" lon="2.32286">
        <ele>506</ele>
        <time>2017-09-17T08:31:52Z</time>
      </trkpt>
      <trkpt lat="44.38559" lon="2.32277">
        <ele>507</ele>
        <time>2017-09-17T08:32:00Z</time>
      </trkpt>
      <trkpt lat="44.38556" lon="2.3227">
        <ele>507</ele>
        <time>2017-09-17T08:32:14Z</time>
      </trkpt>
      <trkpt lat="44.38556" lon="2.32261">
        <ele>507</ele>
        <time>2017-09-17T08:32:19Z</time>
      </trkpt>
      <trkpt lat="44.38555" lon="2.32252">
        <ele>507</ele>
        <time>2017-09-17T08:32:30Z</time>
      </trkpt>
      <trkpt lat="44.3855" lon="2.32248">
        <ele>512</ele>
        <time>2017-09-17T08:32:34Z</time>
      </trkpt>
      <trkpt lat="44.38546" lon="2.32244">
        <ele>512</ele>
        <time>2017-09-17T08:32:38Z</time>
      </trkpt>
      <trkpt lat="44.3854" lon="2.32241">
        <ele>511</ele>
        <time>2017-09-17T08:32:43Z</time>
      </trkpt>
      <trkpt lat="44.38535" lon="2.32235">
        <ele>511</ele>
        <time>2017-09-17T08:32:49Z</time>
      </trkpt>
      <trkpt lat="44.38527" lon="2.32232">
        <ele>510</ele>
        <time>2017-09-17T08:32:57Z</time>
      </trkpt>
      <trkpt lat="44.38524" lon="2.32222">
        <ele>510</ele>
        <time>2017-09-17T08:33:04Z</time>
      </trkpt>
      <trkpt lat="44.3852" lon="2.3221">
        <ele>512</ele>
        <time>2017-09-17T08:33:17Z</time>
      </trkpt>
      <trkpt lat="44.3852" lon="2.32199">
        <ele>513</ele>
        <time>2017-09-17T08:33:26Z</time>
      </trkpt>
      <trkpt lat="44.38514" lon="2.32188">
        <ele>513</ele>
        <time>2017-09-17T08:33:37Z</time>
      </trkpt>
      <trkpt lat="44.38506" lon="2.32184">
        <ele>513</ele>
        <time>2017-09-17T08:33:43Z</time>
      </trkpt>
      <trkpt lat="44.38497" lon="2.32182">
        <ele>503</ele>
        <time>2017-09-17T08:33:48Z</time>
      </trkpt>
      <trkpt lat="44.38482" lon="2.32165">
        <ele>511</ele>
        <time>2017-09-17T08:33:58Z</time>
      </trkpt>
      <trkpt lat="44.38472" lon="2.32153">
        <ele>511</ele>
        <time>2017-09-17T08:34:09Z</time>
      </trkpt>
      <trkpt lat="44.38468" lon="2.32149">
        <ele>511</ele>
        <time>2017-09-17T08:34:12Z</time>
      </trkpt>
      <trkpt lat="44.38465" lon="2.3214">
        <ele>511</ele>
        <time>2017-09-17T08:34:20Z</time>
      </trkpt>
      <trkpt lat="44.3846" lon="2.32135">
        <ele>511</ele>
        <time>2017-09-17T08:34:25Z</time>
      </trkpt>
      <trkpt lat="44.38455" lon="2.3213">
        <ele>511</ele>
        <time>2017-09-17T08:34:28Z</time>
      </trkpt>
      <trkpt lat="44.38449" lon="2.32128">
        <ele>511</ele>
        <time>2017-09-17T08:34:31Z</time>
      </trkpt>
      <trkpt lat="44.38443" lon="2.32125">
        <ele>511</ele>
        <time>2017-09-17T08:34:34Z</time>
      </trkpt>
      <trkpt lat="44.38439" lon="2.32123">
        <ele>511</ele>
        <time>2017-09-17T08:34:37Z</time>
      </trkpt>
      <trkpt lat="44.38433" lon="2.32123">
        <ele>510</ele>
        <time>2017-09-17T08:35:05Z</time>
      </trkpt>
      <trkpt lat="44.38427" lon="2.32122">
        <ele>510</ele>
        <time>2017-09-17T08:35:19Z</time>
      </trkpt>
      <trkpt lat="44.38422" lon="2.32118">
        <ele>511</ele>
        <time>2017-09-17T08:35:26Z</time>
      </trkpt>
      <trkpt lat="44.38417" lon="2.32113">
        <ele>511</ele>
        <time>2017-09-17T08:35:35Z</time>
      </trkpt>
      <trkpt lat="44.3841" lon="2.32109">
        <ele>499</ele>
        <time>2017-09-17T08:35:39Z</time>
      </trkpt>
      <trkpt lat="44.38404" lon="2.32106">
        <ele>500</ele>
        <time>2017-09-17T08:35:44Z</time>
      </trkpt>
      <trkpt lat="44.384" lon="2.32105">
        <ele>499</ele>
        <time>2017-09-17T08:35:52Z</time>
      </trkpt>
      <trkpt lat="44.38399" lon="2.32101">
        <ele>500</ele>
        <time>2017-09-17T08:36:11Z</time>
      </trkpt>
      <trkpt lat="44.38393" lon="2.32102">
        <ele>498</ele>
        <time>2017-09-17T08:37:02Z</time>
      </trkpt>
      <trkpt lat="44.3839" lon="2.32098">
        <ele>498</ele>
        <time>2017-09-17T08:37:55Z</time>
      </trkpt>
      <trkpt lat="44.38384" lon="2.32096">
        <ele>497</ele>
        <time>2017-09-17T08:38:01Z</time>
      </trkpt>
      <trkpt lat="44.38378" lon="2.32094">
        <ele>496</ele>
        <time>2017-09-17T08:38:07Z</time>
      </trkpt>
      <trkpt lat="44.38372" lon="2.32092">
        <ele>495</ele>
        <time>2017-09-17T08:38:12Z</time>
      </trkpt>
      <trkpt lat="44.38366" lon="2.32092">
        <ele>494</ele>
        <time>2017-09-17T08:38:16Z</time>
      </trkpt>
      <trkpt lat="44.38342" lon="2.3208">
        <ele>499</ele>
        <time>2017-09-17T08:38:32Z</time>
      </trkpt>
      <trkpt lat="44.38327" lon="2.3207">
        <ele>491</ele>
        <time>2017-09-17T08:38:42Z</time>
      </trkpt>
      <trkpt lat="44.38323" lon="2.32065">
        <ele>491</ele>
        <time>2017-09-17T08:38:46Z</time>
      </trkpt>
      <trkpt lat="44.38318" lon="2.32061">
        <ele>490</ele>
        <time>2017-09-17T08:38:50Z</time>
      </trkpt>
      <trkpt lat="44.38313" lon="2.32056">
        <ele>490</ele>
        <time>2017-09-17T08:38:56Z</time>
      </trkpt>
      <trkpt lat="44.38307" lon="2.32052">
        <ele>490</ele>
        <time>2017-09-17T08:39:00Z</time>
      </trkpt>
      <trkpt lat="44.383" lon="2.3205">
        <ele>489</ele>
        <time>2017-09-17T08:39:05Z</time>
      </trkpt>
      <trkpt lat="44.38295" lon="2.32046">
        <ele>488</ele>
        <time>2017-09-17T08:39:09Z</time>
      </trkpt>
      <trkpt lat="44.38292" lon="2.3204">
        <ele>489</ele>
        <time>2017-09-17T08:39:13Z</time>
      </trkpt>
      <trkpt lat="44.38288" lon="2.32034">
        <ele>488</ele>
        <time>2017-09-17T08:39:18Z</time>
      </trkpt>
      <trkpt lat="44.38288" lon="2.32025">
        <ele>489</ele>
        <time>2017-09-17T08:39:23Z</time>
      </trkpt>
      <trkpt lat="44.38284" lon="2.32016">
        <ele>489</ele>
        <time>2017-09-17T08:39:28Z</time>
      </trkpt>
      <trkpt lat="44.38281" lon="2.32005">
        <ele>488</ele>
        <time>2017-09-17T08:39:55Z</time>
      </trkpt>
      <trkpt lat="44.38279" lon="2.32001">
        <ele>488</ele>
        <time>2017-09-17T08:40:05Z</time>
      </trkpt>
      <trkpt lat="44.38276" lon="2.31991">
        <ele>495</ele>
        <time>2017-09-17T08:40:28Z</time>
      </trkpt>
      <trkpt lat="44.38273" lon="2.31983">
        <ele>495</ele>
        <time>2017-09-17T08:40:37Z</time>
      </trkpt>
      <trkpt lat="44.38271" lon="2.31976">
        <ele>495</ele>
        <time>2017-09-17T08:40:49Z</time>
      </trkpt>
      <trkpt lat="44.38272" lon="2.31982">
        <ele>495</ele>
        <time>2017-09-17T08:41:42Z</time>
      </trkpt>
      <trkpt lat="44.38273" lon="2.31986">
        <ele>494</ele>
        <time>2017-09-17T08:42:33Z</time>
      </trkpt>
      <trkpt lat="44.38271" lon="2.31989">
        <ele>493</ele>
        <time>2017-09-17T08:43:04Z</time>
      </trkpt>
      <trkpt lat="44.38269" lon="2.31988">
        <ele>493</ele>
        <time>2017-09-17T08:43:10Z</time>
      </trkpt>
      <trkpt lat="44.38266" lon="2.31984">
        <ele>492</ele>
        <time>2017-09-17T08:43:15Z</time>
      </trkpt>
      <trkpt lat="44.38264" lon="2.3198">
        <ele>493</ele>
        <time>2017-09-17T08:43:22Z</time>
      </trkpt>
      <trkpt lat="44.38265" lon="2.31976">
        <ele>494</ele>
        <time>2017-09-17T08:43:42Z</time>
      </trkpt>
      <trkpt lat="44.38268" lon="2.31972">
        <ele>495</ele>
        <time>2017-09-17T08:43:48Z</time>
      </trkpt>
      <trkpt lat="44.38269" lon="2.31974">
        <ele>495</ele>
        <time>2017-09-17T08:44:14Z</time>
      </trkpt>
      <trkpt lat="44.38267" lon="2.31977">
        <ele>494</ele>
        <time>2017-09-17T08:45:46Z</time>
      </trkpt>
      <trkpt lat="44.38267" lon="2.31977">
        <ele>494</ele>
        <time>2017-09-17T08:45:46Z</time>
      </trkpt>
      <trkpt lat="44.38265" lon="2.31974">
        <ele>495</ele>
        <time>2017-09-17T08:46:06Z</time>
      </trkpt>
      <trkpt lat="44.38264" lon="2.31966">
        <ele>496</ele>
        <time>2017-09-17T08:46:13Z</time>
      </trkpt>
      <trkpt lat="44.38262" lon="2.31959">
        <ele>496</ele>
        <time>2017-09-17T08:46:17Z</time>
      </trkpt>
      <trkpt lat="44.38263" lon="2.31951">
        <ele>497</ele>
        <time>2017-09-17T08:46:23Z</time>
      </trkpt>
      <trkpt lat="44.38266" lon="2.31945">
        <ele>497</ele>
        <time>2017-09-17T08:46:28Z</time>
      </trkpt>
      <trkpt lat="44.38268" lon="2.31934">
        <ele>497</ele>
        <time>2017-09-17T08:46:34Z</time>
      </trkpt>
      <trkpt lat="44.38268" lon="2.31925">
        <ele>497</ele>
        <time>2017-09-17T08:46:38Z</time>
      </trkpt>
      <trkpt lat="44.38264" lon="2.3192">
        <ele>495</ele>
        <time>2017-09-17T08:46:41Z</time>
      </trkpt>
      <trkpt lat="44.38258" lon="2.31919">
        <ele>493</ele>
        <time>2017-09-17T08:46:45Z</time>
      </trkpt>
      <trkpt lat="44.38251" lon="2.31917">
        <ele>492</ele>
        <time>2017-09-17T08:46:51Z</time>
      </trkpt>
      <trkpt lat="44.3823" lon="2.31912">
        <ele>494</ele>
        <time>2017-09-17T08:47:04Z</time>
      </trkpt>
      <trkpt lat="44.38227" lon="2.31912">
        <ele>494</ele>
        <time>2017-09-17T08:47:07Z</time>
      </trkpt>
      <trkpt lat="44.38225" lon="2.31915">
        <ele>494</ele>
        <time>2017-09-17T08:47:09Z</time>
      </trkpt>
      <trkpt lat="44.38223" lon="2.31917">
        <ele>481</ele>
        <time>2017-09-17T08:47:11Z</time>
      </trkpt>
      <trkpt lat="44.3822" lon="2.31918">
        <ele>481</ele>
        <time>2017-09-17T08:47:13Z</time>
      </trkpt>
      <trkpt lat="44.38217" lon="2.31917">
        <ele>480</ele>
        <time>2017-09-17T08:47:15Z</time>
      </trkpt>
      <trkpt lat="44.38215" lon="2.31918">
        <ele>480</ele>
        <time>2017-09-17T08:47:17Z</time>
      </trkpt>
      <trkpt lat="44.38203" lon="2.31925">
        <ele>478</ele>
        <time>2017-09-17T08:52:06Z</time>
      </trkpt>
      <trkpt lat="44.382" lon="2.31926">
        <ele>478</ele>
        <time>2017-09-17T08:47:30Z</time>
      </trkpt>
      <trkpt lat="44.38197" lon="2.31925">
        <ele>477</ele>
        <time>2017-09-17T08:59:03Z</time>
      </trkpt>
      <trkpt lat="44.38191" lon="2.31925">
        <ele>477</ele>
        <time>2017-09-17T08:47:36Z</time>
      </trkpt>
      <trkpt lat="44.38192" lon="2.31927">
        <ele>477</ele>
        <time>2017-09-17T08:47:52Z</time>
      </trkpt>
      <trkpt lat="44.38195" lon="2.31926">
        <ele>477</ele>
        <time>2017-09-17T08:47:54Z</time>
      </trkpt>
      <trkpt lat="44.38198" lon="2.31926">
        <ele>477</ele>
        <time>2017-09-17T08:47:56Z</time>
      </trkpt>
      <trkpt lat="44.38201" lon="2.31924">
        <ele>478</ele>
        <time>2017-09-17T08:59:00Z</time>
      </trkpt>
      <trkpt lat="44.38203" lon="2.31925">
        <ele>478</ele>
        <time>2017-09-17T08:52:06Z</time>
      </trkpt>
      <trkpt lat="44.38203" lon="2.31922">
        <ele>478</ele>
        <time>2017-09-17T08:54:01Z</time>
      </trkpt>
      <trkpt lat="44.38207" lon="2.31923">
        <ele>478</ele>
        <time>2017-09-17T08:57:43Z</time>
      </trkpt>
      <trkpt lat="44.38207" lon="2.31923">
        <ele>478</ele>
        <time>2017-09-17T08:57:43Z</time>
      </trkpt>
      <trkpt lat="44.38204" lon="2.31926">
        <ele>478</ele>
        <time>2017-09-17T08:58:46Z</time>
      </trkpt>
      <trkpt lat="44.38201" lon="2.31924">
        <ele>478</ele>
        <time>2017-09-17T08:59:00Z</time>
      </trkpt>
      <trkpt lat="44.38197" lon="2.31925">
        <ele>477</ele>
        <time>2017-09-17T08:59:03Z</time>
      </trkpt>
      <trkpt lat="44.38191" lon="2.31929">
        <ele>477</ele>
        <time>2017-09-17T08:59:08Z</time>
      </trkpt>
      <trkpt lat="44.38177" lon="2.31934">
        <ele>476</ele>
        <time>2017-09-17T08:59:21Z</time>
      </trkpt>
      <trkpt lat="44.38175" lon="2.31933">
        <ele>476</ele>
        <time>2017-09-17T08:59:23Z</time>
      </trkpt>
      <trkpt lat="44.38165" lon="2.31936">
        <ele>470</ele>
        <time>2017-09-17T08:59:31Z</time>
      </trkpt>
      <trkpt lat="44.38162" lon="2.31936">
        <ele>470</ele>
        <time>2017-09-17T08:59:33Z</time>
      </trkpt>
      <trkpt lat="44.38153" lon="2.31939">
        <ele>468</ele>
        <time>2017-09-17T08:59:39Z</time>
      </trkpt>
      <trkpt lat="44.38151" lon="2.3194">
        <ele>468</ele>
        <time>2017-09-17T08:59:41Z</time>
      </trkpt>
      <trkpt lat="44.38143" lon="2.3194">
        <ele>467</ele>
        <time>2017-09-17T08:59:47Z</time>
      </trkpt>
      <trkpt lat="44.38137" lon="2.3194">
        <ele>467</ele>
        <time>2017-09-17T08:59:51Z</time>
      </trkpt>
      <trkpt lat="44.38134" lon="2.31941">
        <ele>466</ele>
        <time>2017-09-17T08:59:54Z</time>
      </trkpt>
      <trkpt lat="44.3813" lon="2.31941">
        <ele>466</ele>
        <time>2017-09-17T08:59:57Z</time>
      </trkpt>
      <trkpt lat="44.38127" lon="2.3194">
        <ele>466</ele>
        <time>2017-09-17T09:00:00Z</time>
      </trkpt>
      <trkpt lat="44.38123" lon="2.3194">
        <ele>465</ele>
        <time>2017-09-17T09:00:03Z</time>
      </trkpt>
      <trkpt lat="44.38119" lon="2.31942">
        <ele>465</ele>
        <time>2017-09-17T09:00:07Z</time>
      </trkpt>
      <trkpt lat="44.38115" lon="2.31942">
        <ele>465</ele>
        <time>2017-09-17T09:00:10Z</time>
      </trkpt>
      <trkpt lat="44.38111" lon="2.31942">
        <ele>465</ele>
        <time>2017-09-17T09:00:13Z</time>
      </trkpt>
      <trkpt lat="44.38107" lon="2.3194">
        <ele>465</ele>
        <time>2017-09-17T09:00:18Z</time>
      </trkpt>
      <trkpt lat="44.38102" lon="2.3194">
        <ele>464</ele>
        <time>2017-09-17T09:00:23Z</time>
      </trkpt>
      <trkpt lat="44.37707" lon="2.31148">
        <ele>425</ele>
        <time>2017-09-17T09:19:01Z</time>
      </trkpt>
      <trkpt lat="44.37706" lon="2.31146">
        <ele>425</ele>
        <time>2017-09-17T09:19:02Z</time>
      </trkpt>
      <trkpt lat="44.37705" lon="2.31144">
        <ele>425</ele>
        <time>2017-09-17T09:19:04Z</time>
      </trkpt>
      <trkpt lat="44.37706" lon="2.31141">
        <ele>425</ele>
        <time>2017-09-17T09:19:09Z</time>
      </trkpt>
      <trkpt lat="44.37704" lon="2.31136">
        <ele>425</ele>
        <time>2017-09-17T09:19:13Z</time>
      </trkpt>
      <trkpt lat="44.37702" lon="2.3113">
        <ele>425</ele>
        <time>2017-09-17T09:19:18Z</time>
      </trkpt>
      <trkpt lat="44.37702" lon="2.31129">
        <ele>425</ele>
        <time>2017-09-17T09:19:19Z</time>
      </trkpt>
      <trkpt lat="44.377" lon="2.3112">
        <ele>424</ele>
        <time>2017-09-17T09:19:26Z</time>
      </trkpt>
      <trkpt lat="44.37699" lon="2.31114">
        <ele>424</ele>
        <time>2017-09-17T09:19:30Z</time>
      </trkpt>
      <trkpt lat="44.37696" lon="2.311">
        <ele>423</ele>
        <time>2017-09-17T09:19:39Z</time>
      </trkpt>
      <trkpt lat="44.37697" lon="2.31074">
        <ele>422</ele>
        <time>2017-09-17T09:19:55Z</time>
      </trkpt>
      <trkpt lat="44.37697" lon="2.31068">
        <ele>422</ele>
        <time>2017-09-17T09:19:59Z</time>
      </trkpt>
      <trkpt lat="44.37702" lon="2.31052">
        <ele>423</ele>
        <time>2017-09-17T09:20:10Z</time>
      </trkpt>
      <trkpt lat="44.37704" lon="2.31039">
        <ele>423</ele>
        <time>2017-09-17T09:20:18Z</time>
      </trkpt>
      <trkpt lat="44.37706" lon="2.31024">
        <ele>423</ele>
        <time>2017-09-17T09:20:27Z</time>
      </trkpt>
      <trkpt lat="44.3772" lon="2.30999">
        <ele>423</ele>
        <time>2017-09-17T09:20:45Z</time>
      </trkpt>
      <trkpt lat="44.37721" lon="2.30997">
        <ele>424</ele>
        <time>2017-09-17T09:20:47Z</time>
      </trkpt>
      <trkpt lat="44.37726" lon="2.30987">
        <ele>424</ele>
        <time>2017-09-17T09:20:55Z</time>
      </trkpt>
      <trkpt lat="44.37731" lon="2.30978">
        <ele>424</ele>
        <time>2017-09-17T09:21:01Z</time>
      </trkpt>
      <trkpt lat="44.37741" lon="2.30948">
        <ele>422</ele>
        <time>2017-09-17T09:21:20Z</time>
      </trkpt>
      <trkpt lat="44.37749" lon="2.3092">
        <ele>422</ele>
        <time>2017-09-17T09:21:37Z</time>
      </trkpt>
      <trkpt lat="44.3775" lon="2.30917">
        <ele>423</ele>
        <time>2017-09-17T09:21:39Z</time>
      </trkpt>
      <trkpt lat="44.37752" lon="2.30908">
        <ele>426</ele>
        <time>2017-09-17T09:21:44Z</time>
      </trkpt>
      <trkpt lat="44.37752" lon="2.30902">
        <ele>428</ele>
        <time>2017-09-17T09:21:47Z</time>
      </trkpt>
      <trkpt lat="44.37755" lon="2.30881">
        <ele>429</ele>
        <time>2017-09-17T09:21:58Z</time>
      </trkpt>
      <trkpt lat="44.37756" lon="2.30875">
        <ele>429</ele>
        <time>2017-09-17T09:22:02Z</time>
      </trkpt>
      <trkpt lat="44.37757" lon="2.30869">
        <ele>428</ele>
        <time>2017-09-17T09:22:07Z</time>
      </trkpt>
      <trkpt lat="44.37759" lon="2.30856">
        <ele>426</ele>
        <time>2017-09-17T09:22:16Z</time>
      </trkpt>
      <trkpt lat="44.3776" lon="2.30849">
        <ele>424</ele>
        <time>2017-09-17T09:22:19Z</time>
      </trkpt>
      <trkpt lat="44.37763" lon="2.30843">
        <ele>423</ele>
        <time>2017-09-17T09:22:24Z</time>
      </trkpt>
      <trkpt lat="44.37763" lon="2.30831">
        <ele>417</ele>
        <time>2017-09-17T09:22:31Z</time>
      </trkpt>
      <trkpt lat="44.37764" lon="2.30825">
        <ele>418</ele>
        <time>2017-09-17T09:22:34Z</time>
      </trkpt>
      <trkpt lat="44.37768" lon="2.30801">
        <ele>419</ele>
        <time>2017-09-17T09:22:48Z</time>
      </trkpt>
      <trkpt lat="44.3777" lon="2.30795">
        <ele>419</ele>
        <time>2017-09-17T09:22:51Z</time>
      </trkpt>
      <trkpt lat="44.37771" lon="2.30789">
        <ele>419</ele>
        <time>2017-09-17T09:22:55Z</time>
      </trkpt>
      <trkpt lat="44.37774" lon="2.30784">
        <ele>418</ele>
        <time>2017-09-17T09:22:59Z</time>
      </trkpt>
      <trkpt lat="44.37779" lon="2.30761">
        <ele>417</ele>
        <time>2017-09-17T09:23:14Z</time>
      </trkpt>
      <trkpt lat="44.3778" lon="2.30756">
        <ele>417</ele>
        <time>2017-09-17T09:23:17Z</time>
      </trkpt>
      <trkpt lat="44.37784" lon="2.30745">
        <ele>413</ele>
        <time>2017-09-17T09:23:24Z</time>
      </trkpt>
      <trkpt lat="44.37791" lon="2.30735">
        <ele>414</ele>
        <time>2017-09-17T09:23:31Z</time>
      </trkpt>
      <trkpt lat="44.37793" lon="2.30718">
        <ele>414</ele>
        <time>2017-09-17T09:23:40Z</time>
      </trkpt>
      <trkpt lat="44.37793" lon="2.30712">
        <ele>414</ele>
        <time>2017-09-17T09:23:43Z</time>
      </trkpt>
      <trkpt lat="44.37794" lon="2.30707">
        <ele>414</ele>
        <time>2017-09-17T09:23:46Z</time>
      </trkpt>
      <trkpt lat="44.37797" lon="2.30698">
        <ele>414</ele>
        <time>2017-09-17T09:23:51Z</time>
      </trkpt>
      <trkpt lat="44.37796" lon="2.30692">
        <ele>413</ele>
        <time>2017-09-17T09:23:54Z</time>
      </trkpt>
      <trkpt lat="44.37799" lon="2.30686">
        <ele>414</ele>
        <time>2017-09-17T09:23:59Z</time>
      </trkpt>
      <trkpt lat="44.37801" lon="2.30672">
        <ele>413</ele>
        <time>2017-09-17T09:24:07Z</time>
      </trkpt>
      <trkpt lat="44.37803" lon="2.30665">
        <ele>413</ele>
        <time>2017-09-17T09:24:11Z</time>
      </trkpt>
      <trkpt lat="44.37804" lon="2.30659">
        <ele>413</ele>
        <time>2017-09-17T09:24:14Z</time>
      </trkpt>
      <trkpt lat="44.37805" lon="2.30654">
        <ele>413</ele>
        <time>2017-09-17T09:24:18Z</time>
      </trkpt>
      <trkpt lat="44.37809" lon="2.30638">
        <ele>412</ele>
        <time>2017-09-17T09:24:27Z</time>
      </trkpt>
      <trkpt lat="44.3781" lon="2.30632">
        <ele>412</ele>
        <time>2017-09-17T09:24:30Z</time>
      </trkpt>
      <trkpt lat="44.3781" lon="2.30626">
        <ele>412</ele>
        <time>2017-09-17T09:24:33Z</time>
      </trkpt>
      <trkpt lat="44.37814" lon="2.30605">
        <ele>411</ele>
        <time>2017-09-17T09:24:45Z</time>
      </trkpt>
      <trkpt lat="44.37817" lon="2.30595">
        <ele>410</ele>
        <time>2017-09-17T09:24:51Z</time>
      </trkpt>
      <trkpt lat="44.3782" lon="2.30572">
        <ele>411</ele>
        <time>2017-09-17T09:25:03Z</time>
      </trkpt>
      <trkpt lat="44.37825" lon="2.30558">
        <ele>412</ele>
        <time>2017-09-17T09:25:11Z</time>
      </trkpt>
      <trkpt lat="44.37834" lon="2.30545">
        <ele>410</ele>
        <time>2017-09-17T09:25:21Z</time>
      </trkpt>
      <trkpt lat="44.37839" lon="2.30541">
        <ele>410</ele>
        <time>2017-09-17T09:25:25Z</time>
      </trkpt>
      <trkpt lat="44.37845" lon="2.30541">
        <ele>411</ele>
        <time>2017-09-17T09:25:29Z</time>
      </trkpt>
      <trkpt lat="44.37851" lon="2.30539">
        <ele>411</ele>
        <time>2017-09-17T09:25:33Z</time>
      </trkpt>
      <trkpt lat="44.37855" lon="2.30534">
        <ele>411</ele>
        <time>2017-09-17T09:25:38Z</time>
      </trkpt>
      <trkpt lat="44.37883" lon="2.30507">
        <ele>413</ele>
        <time>2017-09-17T09:26:04Z</time>
      </trkpt>
      <trkpt lat="44.37896" lon="2.3049">
        <ele>411</ele>
        <time>2017-09-17T09:26:15Z</time>
      </trkpt>
      <trkpt lat="44.37901" lon="2.30489">
        <ele>412</ele>
        <time>2017-09-17T09:26:19Z</time>
      </trkpt>
      <trkpt lat="44.37909" lon="2.30479">
        <ele>412</ele>
        <time>2017-09-17T09:26:28Z</time>
      </trkpt>
      <trkpt lat="44.37913" lon="2.30475">
        <ele>411</ele>
        <time>2017-09-17T09:26:31Z</time>
      </trkpt>
      <trkpt lat="44.37922" lon="2.30469">
        <ele>416</ele>
        <time>2017-09-17T09:26:39Z</time>
      </trkpt>
      <trkpt lat="44.37929" lon="2.30458">
        <ele>416</ele>
        <time>2017-09-17T09:26:46Z</time>
      </trkpt>
      <trkpt lat="44.37959" lon="2.30418">
        <ele>416</ele>
        <time>2017-09-17T09:27:19Z</time>
      </trkpt>
      <trkpt lat="44.37972" lon="2.30409">
        <ele>411</ele>
        <time>2017-09-17T09:27:32Z</time>
      </trkpt>
      <trkpt lat="44.37979" lon="2.30402">
        <ele>411</ele>
        <time>2017-09-17T09:27:40Z</time>
      </trkpt>
      <trkpt lat="44.37983" lon="2.30399">
        <ele>411</ele>
        <time>2017-09-17T09:27:44Z</time>
      </trkpt>
      <trkpt lat="44.38004" lon="2.3038">
        <ele>415</ele>
        <time>2017-09-17T09:28:02Z</time>
      </trkpt>
      <trkpt lat="44.38013" lon="2.3037">
        <ele>415</ele>
        <time>2017-09-17T09:28:11Z</time>
      </trkpt>
      <trkpt lat="44.38016" lon="2.30365">
        <ele>415</ele>
        <time>2017-09-17T09:28:15Z</time>
      </trkpt>
      <trkpt lat="44.38019" lon="2.30359">
        <ele>414</ele>
        <time>2017-09-17T09:28:19Z</time>
      </trkpt>
      <trkpt lat="44.38021" lon="2.30353">
        <ele>414</ele>
        <time>2017-09-17T09:28:22Z</time>
      </trkpt>
      <trkpt lat="44.38029" lon="2.30336">
        <ele>414</ele>
        <time>2017-09-17T09:28:32Z</time>
      </trkpt>
      <trkpt lat="44.38032" lon="2.3033">
        <ele>412</ele>
        <time>2017-09-17T09:28:35Z</time>
      </trkpt>
      <trkpt lat="44.38036" lon="2.30319">
        <ele>412</ele>
        <time>2017-09-17T09:28:42Z</time>
      </trkpt>
      <trkpt lat="44.38039" lon="2.30315">
        <ele>412</ele>
        <time>2017-09-17T09:28:45Z</time>
      </trkpt>
      <trkpt lat="44.38042" lon="2.30312">
        <ele>412</ele>
        <time>2017-09-17T09:28:53Z</time>
      </trkpt>
      <trkpt lat="44.38057" lon="2.3028">
        <ele>412</ele>
        <time>2017-09-17T09:29:24Z</time>
      </trkpt>
      <trkpt lat="44.3806" lon="2.30276">
        <ele>412</ele>
        <time>2017-09-17T09:29:28Z</time>
      </trkpt>
      <trkpt lat="44.38068" lon="2.30266">
        <ele>413</ele>
        <time>2017-09-17T09:29:36Z</time>
      </trkpt>
      <trkpt lat="44.3807" lon="2.30261">
        <ele>413</ele>
        <time>2017-09-17T09:29:39Z</time>
      </trkpt>
      <trkpt lat="44.38081" lon="2.30249">
        <ele>413</ele>
        <time>2017-09-17T09:29:48Z</time>
      </trkpt>
      <trkpt lat="44.38084" lon="2.30243">
        <ele>414</ele>
        <time>2017-09-17T09:29:52Z</time>
      </trkpt>
      <trkpt lat="44.38088" lon="2.30238">
        <ele>415</ele>
        <time>2017-09-17T09:29:56Z</time>
      </trkpt>
      <trkpt lat="44.38118" lon="2.30204">
        <ele>416</ele>
        <time>2017-09-17T09:30:26Z</time>
      </trkpt>
      <trkpt lat="44.38138" lon="2.30182">
        <ele>417</ele>
        <time>2017-09-17T09:30:44Z</time>
      </trkpt>
      <trkpt lat="44.38141" lon="2.30179">
        <ele>417</ele>
        <time>2017-09-17T09:30:47Z</time>
      </trkpt>
      <trkpt lat="44.38163" lon="2.30157">
        <ele>416</ele>
        <time>2017-09-17T09:31:08Z</time>
      </trkpt>
      <trkpt lat="44.38171" lon="2.3014">
        <ele>422</ele>
        <time>2017-09-17T09:31:18Z</time>
      </trkpt>
      <trkpt lat="44.38172" lon="2.3013">
        <ele>422</ele>
        <time>2017-09-17T09:31:24Z</time>
      </trkpt>
      <trkpt lat="44.38175" lon="2.30118">
        <ele>422</ele>
        <time>2017-09-17T09:31:30Z</time>
      </trkpt>
      <trkpt lat="44.38179" lon="2.30102">
        <ele>421</ele>
        <time>2017-09-17T09:31:39Z</time>
      </trkpt>
      <trkpt lat="44.38181" lon="2.30098">
        <ele>421</ele>
        <time>2017-09-17T09:31:42Z</time>
      </trkpt>
      <trkpt lat="44.38181" lon="2.30092">
        <ele>420</ele>
        <time>2017-09-17T09:31:45Z</time>
      </trkpt>
      <trkpt lat="44.38181" lon="2.30086">
        <ele>420</ele>
        <time>2017-09-17T09:31:48Z</time>
      </trkpt>
      <trkpt lat="44.38186" lon="2.3007">
        <ele>422</ele>
        <time>2017-09-17T09:31:57Z</time>
      </trkpt>
      <trkpt lat="44.38186" lon="2.30065">
        <ele>422</ele>
        <time>2017-09-17T09:32:00Z</time>
      </trkpt>
      <trkpt lat="44.38188" lon="2.30059">
        <ele>423</ele>
        <time>2017-09-17T09:32:04Z</time>
      </trkpt>
      <trkpt lat="44.38187" lon="2.30053">
        <ele>423</ele>
        <time>2017-09-17T09:32:07Z</time>
      </trkpt>
      <trkpt lat="44.38189" lon="2.30041">
        <ele>423</ele>
        <time>2017-09-17T09:32:14Z</time>
      </trkpt>
      <trkpt lat="44.38191" lon="2.30029">
        <ele>423</ele>
        <time>2017-09-17T09:32:21Z</time>
      </trkpt>
      <trkpt lat="44.38196" lon="2.30016">
        <ele>423</ele>
        <time>2017-09-17T09:32:30Z</time>
      </trkpt>
      <trkpt lat="44.38201" lon="2.29996">
        <ele>423</ele>
        <time>2017-09-17T09:32:42Z</time>
      </trkpt>
      <trkpt lat="44.38206" lon="2.29988">
        <ele>424</ele>
        <time>2017-09-17T09:32:48Z</time>
      </trkpt>
      <trkpt lat="44.38207" lon="2.29984">
        <ele>425</ele>
        <time>2017-09-17T09:32:51Z</time>
      </trkpt>
      <trkpt lat="44.38211" lon="2.2998">
        <ele>425</ele>
        <time>2017-09-17T09:32:55Z</time>
      </trkpt>
      <trkpt lat="44.38216" lon="2.29961">
        <ele>426</ele>
        <time>2017-09-17T09:33:06Z</time>
      </trkpt>
      <trkpt lat="44.38221" lon="2.29948">
        <ele>426</ele>
        <time>2017-09-17T09:33:14Z</time>
      </trkpt>
      <trkpt lat="44.38222" lon="2.29939">
        <ele>427</ele>
        <time>2017-09-17T09:33:19Z</time>
      </trkpt>
      <trkpt lat="44.38223" lon="2.29935">
        <ele>427</ele>
        <time>2017-09-17T09:33:22Z</time>
      </trkpt>
      <trkpt lat="44.38226" lon="2.29923">
        <ele>428</ele>
        <time>2017-09-17T09:33:30Z</time>
      </trkpt>
      <trkpt lat="44.38226" lon="2.29916">
        <ele>428</ele>
        <time>2017-09-17T09:33:33Z</time>
      </trkpt>
      <trkpt lat="44.38228" lon="2.29905">
        <ele>429</ele>
        <time>2017-09-17T09:33:41Z</time>
      </trkpt>
      <trkpt lat="44.38227" lon="2.29899">
        <ele>428</ele>
        <time>2017-09-17T09:33:45Z</time>
      </trkpt>
      <trkpt lat="44.38229" lon="2.29892">
        <ele>428</ele>
        <time>2017-09-17T09:33:50Z</time>
      </trkpt>
      <trkpt lat="44.38229" lon="2.29875">
        <ele>428</ele>
        <time>2017-09-17T09:34:00Z</time>
      </trkpt>
      <trkpt lat="44.38226" lon="2.29869">
        <ele>428</ele>
        <time>2017-09-17T09:34:03Z</time>
      </trkpt>
      <trkpt lat="44.38222" lon="2.29857">
        <ele>428</ele>
        <time>2017-09-17T09:34:22Z</time>
      </trkpt>
      <trkpt lat="44.38222" lon="2.29855">
        <ele>428</ele>
        <time>2017-09-17T09:34:58Z</time>
      </trkpt>
      <trkpt lat="44.3822" lon="2.29853">
        <ele>428</ele>
        <time>2017-09-17T09:36:13Z</time>
      </trkpt>
      <trkpt lat="44.38219" lon="2.29849">
        <ele>428</ele>
        <time>2017-09-17T09:36:15Z</time>
      </trkpt>
      <trkpt lat="44.38219" lon="2.29844">
        <ele>428</ele>
        <time>2017-09-17T09:36:18Z</time>
      </trkpt>
      <trkpt lat="44.38217" lon="2.29835">
        <ele>428</ele>
        <time>2017-09-17T09:36:23Z</time>
      </trkpt>
      <trkpt lat="44.38216" lon="2.2983">
        <ele>431</ele>
        <time>2017-09-17T09:36:27Z</time>
      </trkpt>
      <trkpt lat="44.38216" lon="2.29822">
        <ele>431</ele>
        <time>2017-09-17T09:36:32Z</time>
      </trkpt>
      <trkpt lat="44.38212" lon="2.29817">
        <ele>431</ele>
        <time>2017-09-17T09:36:35Z</time>
      </trkpt>
      <trkpt lat="44.38194" lon="2.29789">
        <ele>429</ele>
        <time>2017-09-17T09:36:53Z</time>
      </trkpt>
      <trkpt lat="44.38191" lon="2.29782">
        <ele>428</ele>
        <time>2017-09-17T09:36:57Z</time>
      </trkpt>
      <trkpt lat="44.38183" lon="2.29765">
        <ele>426</ele>
        <time>2017-09-17T09:37:09Z</time>
      </trkpt>
      <trkpt lat="44.38179" lon="2.29759">
        <ele>424</ele>
        <time>2017-09-17T09:37:12Z</time>
      </trkpt>
      <trkpt lat="44.38177" lon="2.29754">
        <ele>423</ele>
        <time>2017-09-17T09:37:15Z</time>
      </trkpt>
      <trkpt lat="44.38173" lon="2.29743">
        <ele>425</ele>
        <time>2017-09-17T09:37:22Z</time>
      </trkpt>
      <trkpt lat="44.38172" lon="2.29736">
        <ele>428</ele>
        <time>2017-09-17T09:37:25Z</time>
      </trkpt>
      <trkpt lat="44.38167" lon="2.29717">
        <ele>415</ele>
        <time>2017-09-17T09:37:34Z</time>
      </trkpt>
      <trkpt lat="44.38158" lon="2.29697">
        <ele>417</ele>
        <time>2017-09-17T09:37:46Z</time>
      </trkpt>
      <trkpt lat="44.38157" lon="2.29685">
        <ele>418</ele>
        <time>2017-09-17T09:37:52Z</time>
      </trkpt>
      <trkpt lat="44.38155" lon="2.2968">
        <ele>419</ele>
        <time>2017-09-17T09:37:55Z</time>
      </trkpt>
      <trkpt lat="44.38148" lon="2.29657">
        <ele>422</ele>
        <time>2017-09-17T09:38:08Z</time>
      </trkpt>
      <trkpt lat="44.38144" lon="2.29648">
        <ele>421</ele>
        <time>2017-09-17T09:38:15Z</time>
      </trkpt>
      <trkpt lat="44.3814" lon="2.29637">
        <ele>420</ele>
        <time>2017-09-17T09:38:21Z</time>
      </trkpt>
      <trkpt lat="44.38138" lon="2.29632">
        <ele>420</ele>
        <time>2017-09-17T09:38:24Z</time>
      </trkpt>
      <trkpt lat="44.38129" lon="2.29603">
        <ele>420</ele>
        <time>2017-09-17T09:38:42Z</time>
      </trkpt>
      <trkpt lat="44.38128" lon="2.29597">
        <ele>420</ele>
        <time>2017-09-17T09:38:46Z</time>
      </trkpt>
      <trkpt lat="44.38128" lon="2.29584">
        <ele>420</ele>
        <time>2017-09-17T09:38:53Z</time>
      </trkpt>
      <trkpt lat="44.38116" lon="2.29548">
        <ele>424</ele>
        <time>2017-09-17T09:39:14Z</time>
      </trkpt>
      <trkpt lat="44.38115" lon="2.29527">
        <ele>424</ele>
        <time>2017-09-17T09:39:29Z</time>
      </trkpt>
      <trkpt lat="44.38115" lon="2.2952">
        <ele>424</ele>
        <time>2017-09-17T09:39:34Z</time>
      </trkpt>
      <trkpt lat="44.38116" lon="2.29514">
        <ele>424</ele>
        <time>2017-09-17T09:39:37Z</time>
      </trkpt>
      <trkpt lat="44.38115" lon="2.29507">
        <ele>424</ele>
        <time>2017-09-17T09:39:40Z</time>
      </trkpt>
      <trkpt lat="44.38112" lon="2.29496">
        <ele>429</ele>
        <time>2017-09-17T09:39:47Z</time>
      </trkpt>
      <trkpt lat="44.38113" lon="2.29492">
        <ele>430</ele>
        <time>2017-09-17T09:39:49Z</time>
      </trkpt>
      <trkpt lat="44.38112" lon="2.2947">
        <ele>433</ele>
        <time>2017-09-17T09:40:02Z</time>
      </trkpt>
      <trkpt lat="44.38106" lon="2.29439">
        <ele>434</ele>
        <time>2017-09-17T09:40:23Z</time>
      </trkpt>
      <trkpt lat="44.38104" lon="2.29434">
        <ele>433</ele>
        <time>2017-09-17T09:40:26Z</time>
      </trkpt>
      <trkpt lat="44.38102" lon="2.2943">
        <ele>432</ele>
        <time>2017-09-17T09:40:29Z</time>
      </trkpt>
      <trkpt lat="44.381" lon="2.29421">
        <ele>431</ele>
        <time>2017-09-17T09:40:35Z</time>
      </trkpt>
      <trkpt lat="44.38086" lon="2.29401">
        <ele>441</ele>
        <time>2017-09-17T09:40:58Z</time>
      </trkpt>
      <trkpt lat="44.38083" lon="2.29399">
        <ele>427</ele>
        <time>2017-09-17T09:41:09Z</time>
      </trkpt>
      <trkpt lat="44.38081" lon="2.29396">
        <ele>428</ele>
        <time>2017-09-17T09:41:25Z</time>
      </trkpt>
      <trkpt lat="44.38076" lon="2.29389">
        <ele>429</ele>
        <time>2017-09-17T09:41:32Z</time>
      </trkpt>
      <trkpt lat="44.3807" lon="2.29383">
        <ele>430</ele>
        <time>2017-09-17T09:41:39Z</time>
      </trkpt>
      <trkpt lat="44.38054" lon="2.29365">
        <ele>433</ele>
        <time>2017-09-17T09:41:55Z</time>
      </trkpt>
      <trkpt lat="44.38034" lon="2.29352">
        <ele>431</ele>
        <time>2017-09-17T09:42:12Z</time>
      </trkpt>
      <trkpt lat="44.38031" lon="2.2935">
        <ele>430</ele>
        <time>2017-09-17T09:42:15Z</time>
      </trkpt>
      <trkpt lat="44.38028" lon="2.2935">
        <ele>430</ele>
        <time>2017-09-17T09:42:17Z</time>
      </trkpt>
      <trkpt lat="44.38023" lon="2.29346">
        <ele>429</ele>
        <time>2017-09-17T09:42:21Z</time>
      </trkpt>
      <trkpt lat="44.38003" lon="2.29334">
        <ele>427</ele>
        <time>2017-09-17T09:42:39Z</time>
      </trkpt>
      <trkpt lat="44.37994" lon="2.29333">
        <ele>428</ele>
        <time>2017-09-17T09:42:45Z</time>
      </trkpt>
      <trkpt lat="44.37992" lon="2.29331">
        <ele>428</ele>
        <time>2017-09-17T09:42:47Z</time>
      </trkpt>
      <trkpt lat="44.37965" lon="2.29322">
        <ele>428</ele>
        <time>2017-09-17T09:43:08Z</time>
      </trkpt>
      <trkpt lat="44.3796" lon="2.29323">
        <ele>427</ele>
        <time>2017-09-17T09:43:12Z</time>
      </trkpt>
      <trkpt lat="44.37957" lon="2.29321">
        <ele>427</ele>
        <time>2017-09-17T09:43:15Z</time>
      </trkpt>
      <trkpt lat="44.37954" lon="2.2932">
        <ele>426</ele>
        <time>2017-09-17T09:43:17Z</time>
      </trkpt>
      <trkpt lat="44.37952" lon="2.29319">
        <ele>426</ele>
        <time>2017-09-17T09:43:19Z</time>
      </trkpt>
      <trkpt lat="44.37932" lon="2.29307">
        <ele>424</ele>
        <time>2017-09-17T09:43:35Z</time>
      </trkpt>
      <trkpt lat="44.37918" lon="2.29296">
        <ele>425</ele>
        <time>2017-09-17T09:43:47Z</time>
      </trkpt>
      <trkpt lat="44.3791" lon="2.2929">
        <ele>414</ele>
        <time>2017-09-17T09:43:54Z</time>
      </trkpt>
      <trkpt lat="44.37906" lon="2.29289">
        <ele>414</ele>
        <time>2017-09-17T09:43:57Z</time>
      </trkpt>
      <trkpt lat="44.37902" lon="2.29284">
        <ele>415</ele>
        <time>2017-09-17T09:44:01Z</time>
      </trkpt>
      <trkpt lat="44.37892" lon="2.29276">
        <ele>415</ele>
        <time>2017-09-17T09:44:10Z</time>
      </trkpt>
      <trkpt lat="44.37887" lon="2.29272">
        <ele>415</ele>
        <time>2017-09-17T09:44:14Z</time>
      </trkpt>
      <trkpt lat="44.37883" lon="2.29267">
        <ele>415</ele>
        <time>2017-09-17T09:44:17Z</time>
      </trkpt>
      <trkpt lat="44.37865" lon="2.29252">
        <ele>413</ele>
        <time>2017-09-17T09:44:32Z</time>
      </trkpt>
      <trkpt lat="44.37845" lon="2.29234">
        <ele>414</ele>
        <time>2017-09-17T09:44:51Z</time>
      </trkpt>
      <trkpt lat="44.37841" lon="2.2923">
        <ele>414</ele>
        <time>2017-09-17T09:44:54Z</time>
      </trkpt>
      <trkpt lat="44.37834" lon="2.29226">
        <ele>414</ele>
        <time>2017-09-17T09:45:00Z</time>
      </trkpt>
      <trkpt lat="44.37825" lon="2.29223">
        <ele>409</ele>
        <time>2017-09-17T09:45:06Z</time>
      </trkpt>
      <trkpt lat="44.37817" lon="2.29217">
        <ele>409</ele>
        <time>2017-09-17T09:45:13Z</time>
      </trkpt>
      <trkpt lat="44.37796" lon="2.29212">
        <ele>409</ele>
        <time>2017-09-17T09:45:29Z</time>
      </trkpt>
      <trkpt lat="44.37793" lon="2.29207">
        <ele>409</ele>
        <time>2017-09-17T09:45:33Z</time>
      </trkpt>
      <trkpt lat="44.37792" lon="2.29203">
        <ele>409</ele>
        <time>2017-09-17T09:45:35Z</time>
      </trkpt>
      <trkpt lat="44.37793" lon="2.29199">
        <ele>409</ele>
        <time>2017-09-17T09:45:47Z</time>
      </trkpt>
      <trkpt lat="44.37795" lon="2.29194">
        <ele>409</ele>
        <time>2017-09-17T09:45:50Z</time>
      </trkpt>
      <trkpt lat="44.37796" lon="2.29188">
        <ele>409</ele>
        <time>2017-09-17T09:45:53Z</time>
      </trkpt>
      <trkpt lat="44.37798" lon="2.29184">
        <ele>409</ele>
        <time>2017-09-17T09:45:55Z</time>
      </trkpt>
      <trkpt lat="44.378" lon="2.29157">
        <ele>409</ele>
        <time>2017-09-17T09:46:07Z</time>
      </trkpt>
      <trkpt lat="44.37803" lon="2.29144">
        <ele>409</ele>
        <time>2017-09-17T09:46:13Z</time>
      </trkpt>
      <trkpt lat="44.37804" lon="2.29136">
        <ele>409</ele>
        <time>2017-09-17T09:46:17Z</time>
      </trkpt>
      <trkpt lat="44.37806" lon="2.2913">
        <ele>409</ele>
        <time>2017-09-17T09:46:20Z</time>
      </trkpt>
      <trkpt lat="44.37807" lon="2.29122">
        <ele>408</ele>
        <time>2017-09-17T09:46:26Z</time>
      </trkpt>
      <trkpt lat="44.37807" lon="2.29115">
        <ele>408</ele>
        <time>2017-09-17T09:46:29Z</time>
      </trkpt>
      <trkpt lat="44.37806" lon="2.29105">
        <ele>408</ele>
        <time>2017-09-17T09:46:35Z</time>
      </trkpt>
      <trkpt lat="44.37805" lon="2.29102">
        <ele>408</ele>
        <time>2017-09-17T09:46:37Z</time>
      </trkpt>
      <trkpt lat="44.37805" lon="2.29098">
        <ele>408</ele>
        <time>2017-09-17T09:46:48Z</time>
      </trkpt>
      <trkpt lat="44.37806" lon="2.29094">
        <ele>408</ele>
        <time>2017-09-17T09:46:51Z</time>
      </trkpt>
      <trkpt lat="44.37809" lon="2.29048">
        <ele>406</ele>
        <time>2017-09-17T09:47:13Z</time>
      </trkpt>
      <trkpt lat="44.37816" lon="2.29016">
        <ele>405</ele>
        <time>2017-09-17T09:47:34Z</time>
      </trkpt>
      <trkpt lat="44.37845" lon="2.2897">
        <ele>405</ele>
        <time>2017-09-17T09:48:04Z</time>
      </trkpt>
      <trkpt lat="44.37848" lon="2.28966">
        <ele>405</ele>
        <time>2017-09-17T09:48:07Z</time>
      </trkpt>
      <trkpt lat="44.37858" lon="2.28928">
        <ele>405</ele>
        <time>2017-09-17T09:48:25Z</time>
      </trkpt>
      <trkpt lat="44.37867" lon="2.2891">
        <ele>402</ele>
        <time>2017-09-17T09:48:37Z</time>
      </trkpt>
      <trkpt lat="44.3787" lon="2.28906">
        <ele>402</ele>
        <time>2017-09-17T09:48:40Z</time>
      </trkpt>
      <trkpt lat="44.37876" lon="2.28896">
        <ele>402</ele>
        <time>2017-09-17T09:48:46Z</time>
      </trkpt>
      <trkpt lat="44.3788" lon="2.28892">
        <ele>402</ele>
        <time>2017-09-17T09:48:49Z</time>
      </trkpt>
      <trkpt lat="44.37883" lon="2.28888">
        <ele>402</ele>
        <time>2017-09-17T09:48:53Z</time>
      </trkpt>
      <trkpt lat="44.37887" lon="2.28884">
        <ele>402</ele>
        <time>2017-09-17T09:48:56Z</time>
      </trkpt>
      <trkpt lat="44.37894" lon="2.28874">
        <ele>402</ele>
        <time>2017-09-17T09:49:01Z</time>
      </trkpt>
      <trkpt lat="44.37908" lon="2.28859">
        <ele>402</ele>
        <time>2017-09-17T09:49:14Z</time>
      </trkpt>
      <trkpt lat="44.37918" lon="2.28846">
        <ele>404</ele>
        <time>2017-09-17T09:49:24Z</time>
      </trkpt>
      <trkpt lat="44.37922" lon="2.28842">
        <ele>404</ele>
        <time>2017-09-17T09:49:27Z</time>
      </trkpt>
      <trkpt lat="44.37926" lon="2.28838">
        <ele>404</ele>
        <time>2017-09-17T09:49:30Z</time>
      </trkpt>
      <trkpt lat="44.37933" lon="2.28831">
        <ele>403</ele>
        <time>2017-09-17T09:49:36Z</time>
      </trkpt>
      <trkpt lat="44.37939" lon="2.28829">
        <ele>404</ele>
        <time>2017-09-17T09:49:40Z</time>
      </trkpt>
      <trkpt lat="44.37943" lon="2.28824">
        <ele>405</ele>
        <time>2017-09-17T09:49:44Z</time>
      </trkpt>
      <trkpt lat="44.37959" lon="2.28805">
        <ele>407</ele>
        <time>2017-09-17T09:50:00Z</time>
      </trkpt>
      <trkpt lat="44.37981" lon="2.28783">
        <ele>408</ele>
        <time>2017-09-17T09:50:17Z</time>
      </trkpt>
      <trkpt lat="44.37986" lon="2.28778">
        <ele>408</ele>
        <time>2017-09-17T09:50:20Z</time>
      </trkpt>
      <trkpt lat="44.37989" lon="2.28774">
        <ele>409</ele>
        <time>2017-09-17T09:50:27Z</time>
      </trkpt>
      <trkpt lat="44.37989" lon="2.28766">
        <ele>409</ele>
        <time>2017-09-17T09:50:36Z</time>
      </trkpt>
      <trkpt lat="44.37992" lon="2.28758">
        <ele>409</ele>
        <time>2017-09-17T09:50:41Z</time>
      </trkpt>
      <trkpt lat="44.38" lon="2.28744">
        <ele>415</ele>
        <time>2017-09-17T09:50:52Z</time>
      </trkpt>
      <trkpt lat="44.38006" lon="2.28729">
        <ele>420</ele>
        <time>2017-09-17T09:51:00Z</time>
      </trkpt>
      <trkpt lat="44.38008" lon="2.28719">
        <ele>421</ele>
        <time>2017-09-17T09:51:04Z</time>
      </trkpt>
      <trkpt lat="44.3801" lon="2.28711">
        <ele>422</ele>
        <time>2017-09-17T09:51:08Z</time>
      </trkpt>
      <trkpt lat="44.38013" lon="2.28693">
        <ele>421</ele>
        <time>2017-09-17T09:51:17Z</time>
      </trkpt>
      <trkpt lat="44.38014" lon="2.28683">
        <ele>420</ele>
        <time>2017-09-17T09:51:25Z</time>
      </trkpt>
      <trkpt lat="44.38011" lon="2.28673">
        <ele>417</ele>
        <time>2017-09-17T09:51:28Z</time>
      </trkpt>
      <trkpt lat="44.38011" lon="2.28663">
        <ele>418</ele>
        <time>2017-09-17T09:51:33Z</time>
      </trkpt>
      <trkpt lat="44.38013" lon="2.28655">
        <ele>421</ele>
        <time>2017-09-17T09:51:38Z</time>
      </trkpt>
      <trkpt lat="44.38015" lon="2.28646">
        <ele>423</ele>
        <time>2017-09-17T09:51:44Z</time>
      </trkpt>
      <trkpt lat="44.38013" lon="2.28642">
        <ele>424</ele>
        <time>2017-09-17T09:51:47Z</time>
      </trkpt>
      <trkpt lat="44.38012" lon="2.28637">
        <ele>424</ele>
        <time>2017-09-17T09:51:50Z</time>
      </trkpt>
      <trkpt lat="44.3801" lon="2.28632">
        <ele>425</ele>
        <time>2017-09-17T09:51:54Z</time>
      </trkpt>
      <trkpt lat="44.38008" lon="2.28628">
        <ele>425</ele>
        <time>2017-09-17T09:51:57Z</time>
      </trkpt>
      <trkpt lat="44.38006" lon="2.28624">
        <ele>425</ele>
        <time>2017-09-17T09:52:00Z</time>
      </trkpt>
      <trkpt lat="44.38003" lon="2.28621">
        <ele>425</ele>
        <time>2017-09-17T09:52:03Z</time>
      </trkpt>
      <trkpt lat="44.38" lon="2.28616">
        <ele>425</ele>
        <time>2017-09-17T09:52:11Z</time>
      </trkpt>
      <trkpt lat="44.37998" lon="2.28614">
        <ele>409</ele>
        <time>2017-09-17T09:52:15Z</time>
      </trkpt>
      <trkpt lat="44.37996" lon="2.2861">
        <ele>410</ele>
        <time>2017-09-17T09:52:19Z</time>
      </trkpt>
      <trkpt lat="44.37991" lon="2.28603">
        <ele>410</ele>
        <time>2017-09-17T09:52:25Z</time>
      </trkpt>
      <trkpt lat="44.37988" lon="2.286">
        <ele>410</ele>
        <time>2017-09-17T09:52:27Z</time>
      </trkpt>
      <trkpt lat="44.37979" lon="2.28587">
        <ele>410</ele>
        <time>2017-09-17T09:52:35Z</time>
      </trkpt>
      <trkpt lat="44.37962" lon="2.28569">
        <ele>413</ele>
        <time>2017-09-17T09:52:54Z</time>
      </trkpt>
      <trkpt lat="44.37961" lon="2.28565">
        <ele>413</ele>
        <time>2017-09-17T09:52:56Z</time>
      </trkpt>
      <trkpt lat="44.37957" lon="2.28558">
        <ele>413</ele>
        <time>2017-09-17T09:53:00Z</time>
      </trkpt>
      <trkpt lat="44.37956" lon="2.28554">
        <ele>413</ele>
        <time>2017-09-17T09:53:02Z</time>
      </trkpt>
      <trkpt lat="44.37954" lon="2.28545">
        <ele>414</ele>
        <time>2017-09-17T09:53:07Z</time>
      </trkpt>
      <trkpt lat="44.37953" lon="2.28535">
        <ele>415</ele>
        <time>2017-09-17T09:53:13Z</time>
      </trkpt>
      <trkpt lat="44.37953" lon="2.28531">
        <ele>415</ele>
        <time>2017-09-17T09:53:15Z</time>
      </trkpt>
      <trkpt lat="44.37949" lon="2.28523">
        <ele>415</ele>
        <time>2017-09-17T09:53:20Z</time>
      </trkpt>
      <trkpt lat="44.37944" lon="2.28519">
        <ele>414</ele>
        <time>2017-09-17T09:53:25Z</time>
      </trkpt>
      <trkpt lat="44.37941" lon="2.28517">
        <ele>414</ele>
        <time>2017-09-17T09:53:27Z</time>
      </trkpt>
      <trkpt lat="44.37937" lon="2.28515">
        <ele>413</ele>
        <time>2017-09-17T09:53:30Z</time>
      </trkpt>
      <trkpt lat="44.37933" lon="2.28514">
        <ele>412</ele>
        <time>2017-09-17T09:53:34Z</time>
      </trkpt>
      <trkpt lat="44.37929" lon="2.28515">
        <ele>412</ele>
        <time>2017-09-17T09:53:37Z</time>
      </trkpt>
      <trkpt lat="44.37925" lon="2.28512">
        <ele>411</ele>
        <time>2017-09-17T09:53:41Z</time>
      </trkpt>
      <trkpt lat="44.37921" lon="2.28512">
        <ele>411</ele>
        <time>2017-09-17T09:53:44Z</time>
      </trkpt>
      <trkpt lat="44.37917" lon="2.28511">
        <ele>410</ele>
        <time>2017-09-17T09:53:47Z</time>
      </trkpt>
      <trkpt lat="44.37909" lon="2.28506">
        <ele>407</ele>
        <time>2017-09-17T09:53:54Z</time>
      </trkpt>
      <trkpt lat="44.37888" lon="2.28495">
        <ele>416</ele>
        <time>2017-09-17T09:54:09Z</time>
      </trkpt>
      <trkpt lat="44.37884" lon="2.28491">
        <ele>417</ele>
        <time>2017-09-17T09:54:12Z</time>
      </trkpt>
      <trkpt lat="44.37881" lon="2.28487">
        <ele>417</ele>
        <time>2017-09-17T09:54:16Z</time>
      </trkpt>
      <trkpt lat="44.37876" lon="2.2849">
        <ele>417</ele>
        <time>2017-09-17T09:54:20Z</time>
      </trkpt>
      <trkpt lat="44.37862" lon="2.28494">
        <ele>416</ele>
        <time>2017-09-17T09:54:29Z</time>
      </trkpt>
      <trkpt lat="44.37857" lon="2.28497">
        <ele>415</ele>
        <time>2017-09-17T09:54:32Z</time>
      </trkpt>
      <trkpt lat="44.37848" lon="2.28497">
        <ele>413</ele>
        <time>2017-09-17T09:54:38Z</time>
      </trkpt>
      <trkpt lat="44.3784" lon="2.28501">
        <ele>405</ele>
        <time>2017-09-17T09:54:44Z</time>
      </trkpt>
      <trkpt lat="44.37816" lon="2.28506">
        <ele>408</ele>
        <time>2017-09-17T09:55:02Z</time>
      </trkpt>
      <trkpt lat="44.37806" lon="2.2851">
        <ele>409</ele>
        <time>2017-09-17T09:55:09Z</time>
      </trkpt>
      <trkpt lat="44.37804" lon="2.28509">
        <ele>409</ele>
        <time>2017-09-17T09:55:11Z</time>
      </trkpt>
      <trkpt lat="44.37801" lon="2.28509">
        <ele>409</ele>
        <time>2017-09-17T09:55:13Z</time>
      </trkpt>
      <trkpt lat="44.37797" lon="2.28512">
        <ele>410</ele>
        <time>2017-09-17T09:55:17Z</time>
      </trkpt>
      <trkpt lat="44.37783" lon="2.28523">
        <ele>411</ele>
        <time>2017-09-17T09:55:28Z</time>
      </trkpt>
      <trkpt lat="44.37777" lon="2.28525">
        <ele>411</ele>
        <time>2017-09-17T09:55:32Z</time>
      </trkpt>
      <trkpt lat="44.37759" lon="2.28541">
        <ele>410</ele>
        <time>2017-09-17T09:55:48Z</time>
      </trkpt>
      <trkpt lat="44.37756" lon="2.28542">
        <ele>410</ele>
        <time>2017-09-17T09:55:51Z</time>
      </trkpt>
      <trkpt lat="44.37747" lon="2.28547">
        <ele>417</ele>
        <time>2017-09-17T09:55:58Z</time>
      </trkpt>
      <trkpt lat="44.37744" lon="2.28549">
        <ele>417</ele>
        <time>2017-09-17T09:56:01Z</time>
      </trkpt>
      <trkpt lat="44.37741" lon="2.28553">
        <ele>416</ele>
        <time>2017-09-17T09:56:04Z</time>
      </trkpt>
      <trkpt lat="44.37738" lon="2.28556">
        <ele>415</ele>
        <time>2017-09-17T09:56:08Z</time>
      </trkpt>
      <trkpt lat="44.37734" lon="2.28558">
        <ele>415</ele>
        <time>2017-09-17T09:56:12Z</time>
      </trkpt>
      <trkpt lat="44.37732" lon="2.28563">
        <ele>415</ele>
        <time>2017-09-17T09:56:16Z</time>
      </trkpt>
      <trkpt lat="44.3773" lon="2.28572">
        <ele>413</ele>
        <time>2017-09-17T09:56:23Z</time>
      </trkpt>
      <trkpt lat="44.37728" lon="2.28571">
        <ele>414</ele>
        <time>2017-09-17T09:57:12Z</time>
      </trkpt>
      <trkpt lat="44.37726" lon="2.2857">
        <ele>414</ele>
        <time>2017-09-17T09:57:25Z</time>
      </trkpt>
      <trkpt lat="44.37728" lon="2.28564">
        <ele>415</ele>
        <time>2017-09-17T09:57:31Z</time>
      </trkpt>
      <trkpt lat="44.37736" lon="2.28555">
        <ele>416</ele>
        <time>2017-09-17T09:57:37Z</time>
      </trkpt>
      <trkpt lat="44.37739" lon="2.28549">
        <ele>417</ele>
        <time>2017-09-17T09:57:40Z</time>
      </trkpt>
      <trkpt lat="44.37743" lon="2.28546">
        <ele>418</ele>
        <time>2017-09-17T09:57:45Z</time>
      </trkpt>
      <trkpt lat="44.37747" lon="2.28539">
        <ele>419</ele>
        <time>2017-09-17T09:58:04Z</time>
      </trkpt>
      <trkpt lat="44.37752" lon="2.28539">
        <ele>411</ele>
        <time>2017-09-17T09:58:10Z</time>
      </trkpt>
      <trkpt lat="44.37751" lon="2.28545">
        <ele>409</ele>
        <time>2017-09-17T09:58:38Z</time>
      </trkpt>
      <trkpt lat="44.37747" lon="2.28548">
        <ele>417</ele>
        <time>2017-09-17T09:58:45Z</time>
      </trkpt>
      <trkpt lat="44.37744" lon="2.28547">
        <ele>417</ele>
        <time>2017-09-17T09:59:15Z</time>
      </trkpt>
      <trkpt lat="44.37741" lon="2.28548">
        <ele>417</ele>
        <time>2017-09-17T09:59:26Z</time>
      </trkpt>
      <trkpt lat="44.3774" lon="2.2855">
        <ele>417</ele>
        <time>2017-09-17T09:59:28Z</time>
      </trkpt>
      <trkpt lat="44.37741" lon="2.28554">
        <ele>416</ele>
        <time>2017-09-17T09:59:38Z</time>
      </trkpt>
      <trkpt lat="44.37735" lon="2.28558">
        <ele>415</ele>
        <time>2017-09-17T09:59:45Z</time>
      </trkpt>
      <trkpt lat="44.37738" lon="2.28551">
        <ele>417</ele>
        <time>2017-09-17T10:00:08Z</time>
      </trkpt>
      <trkpt lat="44.37741" lon="2.28545">
        <ele>418</ele>
        <time>2017-09-17T10:00:15Z</time>
      </trkpt>
      <trkpt lat="44.37737" lon="2.28543">
        <ele>419</ele>
        <time>2017-09-17T10:01:22Z</time>
      </trkpt>
      <trkpt lat="44.37733" lon="2.28547">
        <ele>418</ele>
        <time>2017-09-17T10:01:48Z</time>
      </trkpt>
      <trkpt lat="44.37728" lon="2.28548">
        <ele>418</ele>
        <time>2017-09-17T10:01:52Z</time>
      </trkpt>
      <trkpt lat="44.37724" lon="2.28551">
        <ele>418</ele>
        <time>2017-09-17T10:01:56Z</time>
      </trkpt>
      <trkpt lat="44.37721" lon="2.28553">
        <ele>418</ele>
        <time>2017-09-17T10:02:00Z</time>
      </trkpt>
      <trkpt lat="44.37718" lon="2.28555">
        <ele>418</ele>
        <time>2017-09-17T10:02:05Z</time>
      </trkpt>
      <trkpt lat="44.37714" lon="2.28557">
        <ele>418</ele>
        <time>2017-09-17T10:02:08Z</time>
      </trkpt>
      <trkpt lat="44.3771" lon="2.28558">
        <ele>419</ele>
        <time>2017-09-17T10:02:11Z</time>
      </trkpt>
      <trkpt lat="44.37702" lon="2.28561">
        <ele>419</ele>
        <time>2017-09-17T10:02:18Z</time>
      </trkpt>
      <trkpt lat="44.37698" lon="2.28565">
        <ele>419</ele>
        <time>2017-09-17T10:02:23Z</time>
      </trkpt>
      <trkpt lat="44.37694" lon="2.28566">
        <ele>419</ele>
        <time>2017-09-17T10:02:26Z</time>
      </trkpt>
      <trkpt lat="44.37686" lon="2.28568">
        <ele>419</ele>
        <time>2017-09-17T10:02:32Z</time>
      </trkpt>
      <trkpt lat="44.37676" lon="2.28573">
        <ele>418</ele>
        <time>2017-09-17T10:02:40Z</time>
      </trkpt>
      <trkpt lat="44.3765" lon="2.28585">
        <ele>413</ele>
        <time>2017-09-17T10:03:00Z</time>
      </trkpt>
      <trkpt lat="44.37645" lon="2.28586">
        <ele>413</ele>
        <time>2017-09-17T10:03:04Z</time>
      </trkpt>
      <trkpt lat="44.37635" lon="2.2859">
        <ele>413</ele>
        <time>2017-09-17T10:03:11Z</time>
      </trkpt>
      <trkpt lat="44.37631" lon="2.28594">
        <ele>413</ele>
        <time>2017-09-17T10:03:15Z</time>
      </trkpt>
      <trkpt lat="44.37626" lon="2.28593">
        <ele>413</ele>
        <time>2017-09-17T10:03:20Z</time>
      </trkpt>
      <trkpt lat="44.3762" lon="2.28595">
        <ele>413</ele>
        <time>2017-09-17T10:03:24Z</time>
      </trkpt>
      <trkpt lat="44.37616" lon="2.28597">
        <ele>413</ele>
        <time>2017-09-17T10:03:27Z</time>
      </trkpt>
      <trkpt lat="44.37611" lon="2.28601">
        <ele>413</ele>
        <time>2017-09-17T10:03:31Z</time>
      </trkpt>
      <trkpt lat="44.37607" lon="2.28604">
        <ele>414</ele>
        <time>2017-09-17T10:03:35Z</time>
      </trkpt>
      <trkpt lat="44.37595" lon="2.28611">
        <ele>413</ele>
        <time>2017-09-17T10:03:44Z</time>
      </trkpt>
      <trkpt lat="44.37583" lon="2.28614">
        <ele>413</ele>
        <time>2017-09-17T10:03:53Z</time>
      </trkpt>
      <trkpt lat="44.37579" lon="2.28613">
        <ele>415</ele>
        <time>2017-09-17T10:03:56Z</time>
      </trkpt>
      <trkpt lat="44.37566" lon="2.28617">
        <ele>414</ele>
        <time>2017-09-17T10:04:06Z</time>
      </trkpt>
      <trkpt lat="44.37562" lon="2.28619">
        <ele>413</ele>
        <time>2017-09-17T10:04:09Z</time>
      </trkpt>
      <trkpt lat="44.3754" lon="2.28625">
        <ele>412</ele>
        <time>2017-09-17T10:04:23Z</time>
      </trkpt>
      <trkpt lat="44.37535" lon="2.28626">
        <ele>412</ele>
        <time>2017-09-17T10:04:27Z</time>
      </trkpt>
      <trkpt lat="44.37525" lon="2.28625">
        <ele>412</ele>
        <time>2017-09-17T10:04:34Z</time>
      </trkpt>
      <trkpt lat="44.3752" lon="2.28624">
        <ele>412</ele>
        <time>2017-09-17T10:04:38Z</time>
      </trkpt>
      <trkpt lat="44.37514" lon="2.28621">
        <ele>412</ele>
        <time>2017-09-17T10:04:43Z</time>
      </trkpt>
      <trkpt lat="44.37508" lon="2.28618">
        <ele>413</ele>
        <time>2017-09-17T10:04:47Z</time>
      </trkpt>
      <trkpt lat="44.37498" lon="2.28613">
        <ele>410</ele>
        <time>2017-09-17T10:04:56Z</time>
      </trkpt>
      <trkpt lat="44.37489" lon="2.28609">
        <ele>410</ele>
        <time>2017-09-17T10:05:04Z</time>
      </trkpt>
      <trkpt lat="44.37485" lon="2.28607">
        <ele>411</ele>
        <time>2017-09-17T10:05:08Z</time>
      </trkpt>
      <trkpt lat="44.37473" lon="2.28597">
        <ele>410</ele>
        <time>2017-09-17T10:05:17Z</time>
      </trkpt>
      <trkpt lat="44.37469" lon="2.28593">
        <ele>410</ele>
        <time>2017-09-17T10:05:20Z</time>
      </trkpt>
      <trkpt lat="44.37465" lon="2.28592">
        <ele>409</ele>
        <time>2017-09-17T10:05:23Z</time>
      </trkpt>
      <trkpt lat="44.37453" lon="2.28586">
        <ele>408</ele>
        <time>2017-09-17T10:05:33Z</time>
      </trkpt>
      <trkpt lat="44.37449" lon="2.28584">
        <ele>408</ele>
        <time>2017-09-17T10:05:36Z</time>
      </trkpt>
      <trkpt lat="44.37427" lon="2.28568">
        <ele>414</ele>
        <time>2017-09-17T10:05:55Z</time>
      </trkpt>
      <trkpt lat="44.37412" lon="2.28546">
        <ele>406</ele>
        <time>2017-09-17T10:06:10Z</time>
      </trkpt>
      <trkpt lat="44.37407" lon="2.28528">
        <ele>408</ele>
        <time>2017-09-17T10:06:19Z</time>
      </trkpt>
      <trkpt lat="44.37404" lon="2.28524">
        <ele>409</ele>
        <time>2017-09-17T10:06:21Z</time>
      </trkpt>
      <trkpt lat="44.37401" lon="2.2852">
        <ele>409</ele>
        <time>2017-09-17T10:06:24Z</time>
      </trkpt>
      <trkpt lat="44.37398" lon="2.28515">
        <ele>409</ele>
        <time>2017-09-17T10:06:27Z</time>
      </trkpt>
      <trkpt lat="44.37384" lon="2.28481">
        <ele>411</ele>
        <time>2017-09-17T10:06:47Z</time>
      </trkpt>
      <trkpt lat="44.3738" lon="2.28463">
        <ele>411</ele>
        <time>2017-09-17T10:06:58Z</time>
      </trkpt>
      <trkpt lat="44.37375" lon="2.28447">
        <ele>410</ele>
        <time>2017-09-17T10:07:07Z</time>
      </trkpt>
      <trkpt lat="44.37373" lon="2.28441">
        <ele>410</ele>
        <time>2017-09-17T10:07:11Z</time>
      </trkpt>
      <trkpt lat="44.37359" lon="2.28376">
        <ele>411</ele>
        <time>2017-09-17T10:07:43Z</time>
      </trkpt>
      <trkpt lat="44.37351" lon="2.28342">
        <ele>408</ele>
        <time>2017-09-17T10:08:01Z</time>
      </trkpt>
      <trkpt lat="44.37348" lon="2.28336">
        <ele>407</ele>
        <time>2017-09-17T10:08:06Z</time>
      </trkpt>
      <trkpt lat="44.37341" lon="2.28318">
        <ele>409</ele>
        <time>2017-09-17T10:08:17Z</time>
      </trkpt>
      <trkpt lat="44.37342" lon="2.28312">
        <ele>411</ele>
        <time>2017-09-17T10:08:19Z</time>
      </trkpt>
      <trkpt lat="44.3734" lon="2.28299">
        <ele>413</ele>
        <time>2017-09-17T10:08:26Z</time>
      </trkpt>
      <trkpt lat="44.3734" lon="2.28292">
        <ele>413</ele>
        <time>2017-09-17T10:08:30Z</time>
      </trkpt>
      <trkpt lat="44.3734" lon="2.28285">
        <ele>413</ele>
        <time>2017-09-17T10:08:36Z</time>
      </trkpt>
      <trkpt lat="44.3734" lon="2.28243">
        <ele>411</ele>
        <time>2017-09-17T10:08:57Z</time>
      </trkpt>
      <trkpt lat="44.3734" lon="2.28236">
        <ele>413</ele>
        <time>2017-09-17T10:09:01Z</time>
      </trkpt>
      <trkpt lat="44.37339" lon="2.28219">
        <ele>417</ele>
        <time>2017-09-17T10:09:12Z</time>
      </trkpt>
      <trkpt lat="44.37339" lon="2.28195">
        <ele>417</ele>
        <time>2017-09-17T10:09:23Z</time>
      </trkpt>
      <trkpt lat="44.3734" lon="2.28179">
        <ele>414</ele>
        <time>2017-09-17T10:09:30Z</time>
      </trkpt>
      <trkpt lat="44.3734" lon="2.28164">
        <ele>411</ele>
        <time>2017-09-17T10:09:36Z</time>
      </trkpt>
      <trkpt lat="44.37344" lon="2.28153">
        <ele>416</ele>
        <time>2017-09-17T10:09:42Z</time>
      </trkpt>
      <trkpt lat="44.37342" lon="2.28145">
        <ele>417</ele>
        <time>2017-09-17T10:09:48Z</time>
      </trkpt>
      <trkpt lat="44.37342" lon="2.28131">
        <ele>419</ele>
        <time>2017-09-17T10:09:55Z</time>
      </trkpt>
      <trkpt lat="44.37341" lon="2.28126">
        <ele>419</ele>
        <time>2017-09-17T10:09:58Z</time>
      </trkpt>
      <trkpt lat="44.3734" lon="2.2812">
        <ele>419</ele>
        <time>2017-09-17T10:10:01Z</time>
      </trkpt>
      <trkpt lat="44.37339" lon="2.28114">
        <ele>418</ele>
        <time>2017-09-17T10:10:05Z</time>
      </trkpt>
      <trkpt lat="44.37337" lon="2.28099">
        <ele>415</ele>
        <time>2017-09-17T10:10:11Z</time>
      </trkpt>
      <trkpt lat="44.37323" lon="2.28043">
        <ele>404</ele>
        <time>2017-09-17T10:10:41Z</time>
      </trkpt>
      <trkpt lat="44.37321" lon="2.28038">
        <ele>404</ele>
        <time>2017-09-17T10:10:43Z</time>
      </trkpt>
      <trkpt lat="44.37321" lon="2.28031">
        <ele>405</ele>
        <time>2017-09-17T10:10:47Z</time>
      </trkpt>
      <trkpt lat="44.37317" lon="2.28007">
        <ele>406</ele>
        <time>2017-09-17T10:10:59Z</time>
      </trkpt>
      <trkpt lat="44.37317" lon="2.28003">
        <ele>406</ele>
        <time>2017-09-17T10:11:01Z</time>
      </trkpt>
      <trkpt lat="44.37316" lon="2.27997">
        <ele>406</ele>
        <time>2017-09-17T10:11:04Z</time>
      </trkpt>
      <trkpt lat="44.37315" lon="2.27993">
        <ele>406</ele>
        <time>2017-09-17T10:11:06Z</time>
      </trkpt>
      <trkpt lat="44.3731" lon="2.27972">
        <ele>405</ele>
        <time>2017-09-17T10:11:18Z</time>
      </trkpt>
      <trkpt lat="44.3731" lon="2.27967">
        <ele>405</ele>
        <time>2017-09-17T10:11:21Z</time>
      </trkpt>
      <trkpt lat="44.37304" lon="2.27944">
        <ele>405</ele>
        <time>2017-09-17T10:11:34Z</time>
      </trkpt>
      <trkpt lat="44.37305" lon="2.27939">
        <ele>405</ele>
        <time>2017-09-17T10:11:37Z</time>
      </trkpt>
      <trkpt lat="44.37301" lon="2.27919">
        <ele>405</ele>
        <time>2017-09-17T10:11:47Z</time>
      </trkpt>
      <trkpt lat="44.373" lon="2.27912">
        <ele>407</ele>
        <time>2017-09-17T10:11:52Z</time>
      </trkpt>
      <trkpt lat="44.373" lon="2.27898">
        <ele>407</ele>
        <time>2017-09-17T10:11:58Z</time>
      </trkpt>
      <trkpt lat="44.373" lon="2.27891">
        <ele>407</ele>
        <time>2017-09-17T10:12:01Z</time>
      </trkpt>
      <trkpt lat="44.37297" lon="2.2788">
        <ele>407</ele>
        <time>2017-09-17T10:12:07Z</time>
      </trkpt>
      <trkpt lat="44.37296" lon="2.27875">
        <ele>407</ele>
        <time>2017-09-17T10:12:19Z</time>
      </trkpt>
      <trkpt lat="44.37296" lon="2.2787">
        <ele>407</ele>
        <time>2017-09-17T10:12:22Z</time>
      </trkpt>
      <trkpt lat="44.37297" lon="2.27859">
        <ele>407</ele>
        <time>2017-09-17T10:12:30Z</time>
      </trkpt>
      <trkpt lat="44.37296" lon="2.27854">
        <ele>407</ele>
        <time>2017-09-17T10:12:34Z</time>
      </trkpt>
      <trkpt lat="44.37294" lon="2.2785">
        <ele>407</ele>
        <time>2017-09-17T10:12:36Z</time>
      </trkpt>
      <trkpt lat="44.37291" lon="2.27837">
        <ele>407</ele>
        <time>2017-09-17T10:12:42Z</time>
      </trkpt>
      <trkpt lat="44.3729" lon="2.27831">
        <ele>408</ele>
        <time>2017-09-17T10:12:45Z</time>
      </trkpt>
      <trkpt lat="44.37289" lon="2.27811">
        <ele>408</ele>
        <time>2017-09-17T10:12:57Z</time>
      </trkpt>
      <trkpt lat="44.37289" lon="2.278">
        <ele>408</ele>
        <time>2017-09-17T10:13:03Z</time>
      </trkpt>
      <trkpt lat="44.37286" lon="2.27788">
        <ele>407</ele>
        <time>2017-09-17T10:13:10Z</time>
      </trkpt>
      <trkpt lat="44.37285" lon="2.27783">
        <ele>407</ele>
        <time>2017-09-17T10:13:13Z</time>
      </trkpt>
      <trkpt lat="44.37283" lon="2.27772">
        <ele>407</ele>
        <time>2017-09-17T10:13:19Z</time>
      </trkpt>
      <trkpt lat="44.37283" lon="2.27761">
        <ele>407</ele>
        <time>2017-09-17T10:13:26Z</time>
      </trkpt>
      <trkpt lat="44.37281" lon="2.27756">
        <ele>406</ele>
        <time>2017-09-17T10:13:29Z</time>
      </trkpt>
      <trkpt lat="44.37278" lon="2.27751">
        <ele>406</ele>
        <time>2017-09-17T10:13:31Z</time>
      </trkpt>
      <trkpt lat="44.37276" lon="2.27746">
        <ele>406</ele>
        <time>2017-09-17T10:13:34Z</time>
      </trkpt>
      <trkpt lat="44.37268" lon="2.27715">
        <ele>406</ele>
        <time>2017-09-17T10:13:53Z</time>
      </trkpt>
      <trkpt lat="44.37263" lon="2.27703">
        <ele>406</ele>
        <time>2017-09-17T10:14:00Z</time>
      </trkpt>
      <trkpt lat="44.37261" lon="2.27697">
        <ele>406</ele>
        <time>2017-09-17T10:14:05Z</time>
      </trkpt>
      <trkpt lat="44.37253" lon="2.27686">
        <ele>405</ele>
        <time>2017-09-17T10:14:15Z</time>
      </trkpt>
      <trkpt lat="44.37248" lon="2.2768">
        <ele>400</ele>
        <time>2017-09-17T10:14:21Z</time>
      </trkpt>
      <trkpt lat="44.37246" lon="2.27673">
        <ele>401</ele>
        <time>2017-09-17T10:14:26Z</time>
      </trkpt>
      <trkpt lat="44.37237" lon="2.27648">
        <ele>400</ele>
        <time>2017-09-17T10:14:37Z</time>
      </trkpt>
      <trkpt lat="44.3723" lon="2.27611">
        <ele>400</ele>
        <time>2017-09-17T10:14:52Z</time>
      </trkpt>
      <trkpt lat="44.37225" lon="2.27587">
        <ele>401</ele>
        <time>2017-09-17T10:15:05Z</time>
      </trkpt>
      <trkpt lat="44.37224" lon="2.27581">
        <ele>402</ele>
        <time>2017-09-17T10:15:09Z</time>
      </trkpt>
      <trkpt lat="44.37212" lon="2.2753">
        <ele>401</ele>
        <time>2017-09-17T10:15:41Z</time>
      </trkpt>
      <trkpt lat="44.37204" lon="2.27511">
        <ele>401</ele>
        <time>2017-09-17T10:15:51Z</time>
      </trkpt>
      <trkpt lat="44.37203" lon="2.27508">
        <ele>401</ele>
        <time>2017-09-17T10:15:54Z</time>
      </trkpt>
      <trkpt lat="44.37203" lon="2.27504">
        <ele>401</ele>
        <time>2017-09-17T10:16:01Z</time>
      </trkpt>
      <trkpt lat="44.372" lon="2.27502">
        <ele>401</ele>
        <time>2017-09-17T10:16:04Z</time>
      </trkpt>
      <trkpt lat="44.37198" lon="2.27502">
        <ele>401</ele>
        <time>2017-09-17T10:16:06Z</time>
      </trkpt>
      <trkpt lat="44.37195" lon="2.27504">
        <ele>401</ele>
        <time>2017-09-17T10:16:09Z</time>
      </trkpt>
      <trkpt lat="44.37189" lon="2.27506">
        <ele>401</ele>
        <time>2017-09-17T10:16:13Z</time>
      </trkpt>
      <trkpt lat="44.37155" lon="2.2754">
        <ele>404</ele>
        <time>2017-09-17T10:16:43Z</time>
      </trkpt>
      <trkpt lat="44.37144" lon="2.27551">
        <ele>404</ele>
        <time>2017-09-17T10:16:53Z</time>
      </trkpt>
      <trkpt lat="44.37141" lon="2.27558">
        <ele>404</ele>
        <time>2017-09-17T10:16:57Z</time>
      </trkpt>
      <trkpt lat="44.37138" lon="2.2756">
        <ele>404</ele>
        <time>2017-09-17T10:16:59Z</time>
      </trkpt>
      <trkpt lat="44.37136" lon="2.27561">
        <ele>404</ele>
        <time>2017-09-17T10:17:01Z</time>
      </trkpt>
      <trkpt lat="44.37134" lon="2.27562">
        <ele>404</ele>
        <time>2017-09-17T10:17:04Z</time>
      </trkpt>
      <trkpt lat="44.37133" lon="2.27559">
        <ele>404</ele>
        <time>2017-09-17T10:17:06Z</time>
      </trkpt>
      <trkpt lat="44.37133" lon="2.27555">
        <ele>404</ele>
        <time>2017-09-17T10:17:08Z</time>
      </trkpt>
      <trkpt lat="44.3714" lon="2.2754">
        <ele>405</ele>
        <time>2017-09-17T10:17:16Z</time>
      </trkpt>
      <trkpt lat="44.37145" lon="2.27532">
        <ele>404</ele>
        <time>2017-09-17T10:17:21Z</time>
      </trkpt>
      <trkpt lat="44.37147" lon="2.27527">
        <ele>404</ele>
        <time>2017-09-17T10:17:24Z</time>
      </trkpt>
      <trkpt lat="44.37152" lon="2.27521">
        <ele>404</ele>
        <time>2017-09-17T10:17:30Z</time>
      </trkpt>
      <trkpt lat="44.37155" lon="2.27519">
        <ele>404</ele>
        <time>2017-09-17T10:17:33Z</time>
      </trkpt>
      <trkpt lat="44.3716" lon="2.27517">
        <ele>403</ele>
        <time>2017-09-17T10:17:37Z</time>
      </trkpt>
      <trkpt lat="44.37159" lon="2.2751">
        <ele>403</ele>
        <time>2017-09-17T10:17:43Z</time>
      </trkpt>
      <trkpt lat="44.37155" lon="2.27506">
        <ele>403</ele>
        <time>2017-09-17T10:17:48Z</time>
      </trkpt>
      <trkpt lat="44.37152" lon="2.27503">
        <ele>403</ele>
        <time>2017-09-17T10:17:57Z</time>
      </trkpt>
      <trkpt lat="44.3715" lon="2.27499">
        <ele>405</ele>
        <time>2017-09-17T10:18:01Z</time>
      </trkpt>
      <trkpt lat="44.3714" lon="2.27489">
        <ele>406</ele>
        <time>2017-09-17T10:18:10Z</time>
      </trkpt>
      <trkpt lat="44.37137" lon="2.27488">
        <ele>407</ele>
        <time>2017-09-17T10:18:12Z</time>
      </trkpt>
      <trkpt lat="44.37133" lon="2.27485">
        <ele>407</ele>
        <time>2017-09-17T10:18:15Z</time>
      </trkpt>
      <trkpt lat="44.37123" lon="2.27484">
        <ele>409</ele>
        <time>2017-09-17T10:18:23Z</time>
      </trkpt>
      <trkpt lat="44.37119" lon="2.2748">
        <ele>409</ele>
        <time>2017-09-17T10:18:27Z</time>
      </trkpt>
      <trkpt lat="44.37115" lon="2.27477">
        <ele>410</ele>
        <time>2017-09-17T10:18:32Z</time>
      </trkpt>
      <trkpt lat="44.37112" lon="2.27471">
        <ele>410</ele>
        <time>2017-09-17T10:18:36Z</time>
      </trkpt>
      <trkpt lat="44.37109" lon="2.27464">
        <ele>410</ele>
        <time>2017-09-17T10:18:40Z</time>
      </trkpt>
      <trkpt lat="44.37106" lon="2.27454">
        <ele>411</ele>
        <time>2017-09-17T10:18:49Z</time>
      </trkpt>
      <trkpt lat="44.37101" lon="2.27437">
        <ele>412</ele>
        <time>2017-09-17T10:19:00Z</time>
      </trkpt>
      <trkpt lat="44.371" lon="2.27425">
        <ele>414</ele>
        <time>2017-09-17T10:19:09Z</time>
      </trkpt>
      <trkpt lat="44.37101" lon="2.27413">
        <ele>414</ele>
        <time>2017-09-17T10:19:16Z</time>
      </trkpt>
      <trkpt lat="44.37098" lon="2.27406">
        <ele>414</ele>
        <time>2017-09-17T10:19:19Z</time>
      </trkpt>
      <trkpt lat="44.37098" lon="2.27398">
        <ele>413</ele>
        <time>2017-09-17T10:19:24Z</time>
      </trkpt>
      <trkpt lat="44.37097" lon="2.27389">
        <ele>412</ele>
        <time>2017-09-17T10:19:29Z</time>
      </trkpt>
      <trkpt lat="44.37094" lon="2.27381">
        <ele>412</ele>
        <time>2017-09-17T10:19:33Z</time>
      </trkpt>
      <trkpt lat="44.37086" lon="2.27367">
        <ele>413</ele>
        <time>2017-09-17T10:19:41Z</time>
      </trkpt>
      <trkpt lat="44.37084" lon="2.27342">
        <ele>418</ele>
        <time>2017-09-17T10:19:53Z</time>
      </trkpt>
      <trkpt lat="44.37076" lon="2.273">
        <ele>440</ele>
        <time>2017-09-17T10:20:20Z</time>
      </trkpt>
      <trkpt lat="44.37079" lon="2.27292">
        <ele>441</ele>
        <time>2017-09-17T10:20:23Z</time>
      </trkpt>
      <trkpt lat="44.37085" lon="2.27286">
        <ele>417</ele>
        <time>2017-09-17T10:20:27Z</time>
      </trkpt>
      <trkpt lat="44.371" lon="2.27259">
        <ele>421</ele>
        <time>2017-09-17T10:20:44Z</time>
      </trkpt>
      <trkpt lat="44.371" lon="2.27247">
        <ele>427</ele>
        <time>2017-09-17T10:20:53Z</time>
      </trkpt>
      <trkpt lat="44.37106" lon="2.27238">
        <ele>425</ele>
        <time>2017-09-17T10:20:59Z</time>
      </trkpt>
      <trkpt lat="44.37114" lon="2.27208">
        <ele>425</ele>
        <time>2017-09-17T10:21:13Z</time>
      </trkpt>
      <trkpt lat="44.37126" lon="2.2719">
        <ele>423</ele>
        <time>2017-09-17T10:21:26Z</time>
      </trkpt>
      <trkpt lat="44.37131" lon="2.27184">
        <ele>422</ele>
        <time>2017-09-17T10:21:31Z</time>
      </trkpt>
      <trkpt lat="44.37134" lon="2.27175">
        <ele>421</ele>
        <time>2017-09-17T10:21:36Z</time>
      </trkpt>
      <trkpt lat="44.37137" lon="2.27167">
        <ele>420</ele>
        <time>2017-09-17T10:21:39Z</time>
      </trkpt>
      <trkpt lat="44.37136" lon="2.2716">
        <ele>432</ele>
        <time>2017-09-17T10:21:49Z</time>
      </trkpt>
      <trkpt lat="44.37137" lon="2.27152">
        <ele>432</ele>
        <time>2017-09-17T10:21:55Z</time>
      </trkpt>
      <trkpt lat="44.37145" lon="2.27137">
        <ele>433</ele>
        <time>2017-09-17T10:22:06Z</time>
      </trkpt>
      <trkpt lat="44.37152" lon="2.27131">
        <ele>433</ele>
        <time>2017-09-17T10:22:12Z</time>
      </trkpt>
      <trkpt lat="44.3716" lon="2.27115">
        <ele>434</ele>
        <time>2017-09-17T10:22:24Z</time>
      </trkpt>
      <trkpt lat="44.37165" lon="2.27111">
        <ele>434</ele>
        <time>2017-09-17T10:22:28Z</time>
      </trkpt>
      <trkpt lat="44.37192" lon="2.27075">
        <ele>421</ele>
        <time>2017-09-17T10:22:56Z</time>
      </trkpt>
      <trkpt lat="44.37199" lon="2.27072">
        <ele>420</ele>
        <time>2017-09-17T10:23:00Z</time>
      </trkpt>
      <trkpt lat="44.37216" lon="2.27058">
        <ele>417</ele>
        <time>2017-09-17T10:23:13Z</time>
      </trkpt>
      <trkpt lat="44.37229" lon="2.27047">
        <ele>415</ele>
        <time>2017-09-17T10:23:21Z</time>
      </trkpt>
      <trkpt lat="44.37233" lon="2.27045">
        <ele>415</ele>
        <time>2017-09-17T10:23:24Z</time>
      </trkpt>
      <trkpt lat="44.37237" lon="2.27042">
        <ele>414</ele>
        <time>2017-09-17T10:23:27Z</time>
      </trkpt>
      <trkpt lat="44.37238" lon="2.27038">
        <ele>414</ele>
        <time>2017-09-17T10:23:29Z</time>
      </trkpt>
      <trkpt lat="44.37236" lon="2.27029">
        <ele>414</ele>
        <time>2017-09-17T10:23:33Z</time>
      </trkpt>
      <trkpt lat="44.37235" lon="2.27024">
        <ele>413</ele>
        <time>2017-09-17T10:23:36Z</time>
      </trkpt>
      <trkpt lat="44.37233" lon="2.2702">
        <ele>413</ele>
        <time>2017-09-17T10:23:39Z</time>
      </trkpt>
      <trkpt lat="44.37226" lon="2.27009">
        <ele>414</ele>
        <time>2017-09-17T10:23:46Z</time>
      </trkpt>
      <trkpt lat="44.37221" lon="2.27004">
        <ele>414</ele>
        <time>2017-09-17T10:23:50Z</time>
      </trkpt>
      <trkpt lat="44.37216" lon="2.26994">
        <ele>410</ele>
        <time>2017-09-17T10:23:57Z</time>
      </trkpt>
      <trkpt lat="44.37211" lon="2.26989">
        <ele>411</ele>
        <time>2017-09-17T10:24:01Z</time>
      </trkpt>
      <trkpt lat="44.37207" lon="2.26985">
        <ele>411</ele>
        <time>2017-09-17T10:24:05Z</time>
      </trkpt>
      <trkpt lat="44.37198" lon="2.26974">
        <ele>412</ele>
        <time>2017-09-17T10:24:13Z</time>
      </trkpt>
      <trkpt lat="44.37187" lon="2.26963">
        <ele>411</ele>
        <time>2017-09-17T10:24:26Z</time>
      </trkpt>
      <trkpt lat="44.37183" lon="2.26957">
        <ele>411</ele>
        <time>2017-09-17T10:24:30Z</time>
      </trkpt>
      <trkpt lat="44.37179" lon="2.26948">
        <ele>410</ele>
        <time>2017-09-17T10:24:34Z</time>
      </trkpt>
      <trkpt lat="44.37177" lon="2.2694">
        <ele>410</ele>
        <time>2017-09-17T10:24:37Z</time>
      </trkpt>
      <trkpt lat="44.37163" lon="2.26911">
        <ele>412</ele>
        <time>2017-09-17T10:24:53Z</time>
      </trkpt>
      <trkpt lat="44.37159" lon="2.26903">
        <ele>415</ele>
        <time>2017-09-17T10:24:57Z</time>
      </trkpt>
      <trkpt lat="44.37154" lon="2.26894">
        <ele>417</ele>
        <time>2017-09-17T10:25:02Z</time>
      </trkpt>
      <trkpt lat="44.3715" lon="2.26888">
        <ele>418</ele>
        <time>2017-09-17T10:25:06Z</time>
      </trkpt>
      <trkpt lat="44.37148" lon="2.26882">
        <ele>418</ele>
        <time>2017-09-17T10:25:09Z</time>
      </trkpt>
      <trkpt lat="44.37145" lon="2.26874">
        <ele>418</ele>
        <time>2017-09-17T10:25:13Z</time>
      </trkpt>
      <trkpt lat="44.37141" lon="2.26868">
        <ele>418</ele>
        <time>2017-09-17T10:25:18Z</time>
      </trkpt>
      <trkpt lat="44.37135" lon="2.26855">
        <ele>418</ele>
        <time>2017-09-17T10:25:26Z</time>
      </trkpt>
      <trkpt lat="44.37133" lon="2.26848">
        <ele>418</ele>
        <time>2017-09-17T10:25:29Z</time>
      </trkpt>
      <trkpt lat="44.3713" lon="2.26842">
        <ele>418</ele>
        <time>2017-09-17T10:25:33Z</time>
      </trkpt>
      <trkpt lat="44.37127" lon="2.26837">
        <ele>419</ele>
        <time>2017-09-17T10:25:36Z</time>
      </trkpt>
      <trkpt lat="44.37125" lon="2.26832">
        <ele>413</ele>
        <time>2017-09-17T10:25:39Z</time>
      </trkpt>
      <trkpt lat="44.37124" lon="2.26827">
        <ele>414</ele>
        <time>2017-09-17T10:25:41Z</time>
      </trkpt>
      <trkpt lat="44.37119" lon="2.26813">
        <ele>415</ele>
        <time>2017-09-17T10:25:49Z</time>
      </trkpt>
      <trkpt lat="44.37117" lon="2.26808">
        <ele>415</ele>
        <time>2017-09-17T10:25:52Z</time>
      </trkpt>
      <trkpt lat="44.37119" lon="2.268">
        <ele>414</ele>
        <time>2017-09-17T10:25:57Z</time>
      </trkpt>
      <trkpt lat="44.37118" lon="2.26792">
        <ele>414</ele>
        <time>2017-09-17T10:26:02Z</time>
      </trkpt>
      <trkpt lat="44.37117" lon="2.26784">
        <ele>414</ele>
        <time>2017-09-17T10:26:06Z</time>
      </trkpt>
      <trkpt lat="44.37116" lon="2.26767">
        <ele>414</ele>
        <time>2017-09-17T10:26:15Z</time>
      </trkpt>
      <trkpt lat="44.37113" lon="2.26757">
        <ele>415</ele>
        <time>2017-09-17T10:26:23Z</time>
      </trkpt>
      <trkpt lat="44.3711" lon="2.26749">
        <ele>413</ele>
        <time>2017-09-17T10:26:28Z</time>
      </trkpt>
      <trkpt lat="44.37104" lon="2.26743">
        <ele>414</ele>
        <time>2017-09-17T10:26:32Z</time>
      </trkpt>
      <trkpt lat="44.37098" lon="2.26726">
        <ele>414</ele>
        <time>2017-09-17T10:26:43Z</time>
      </trkpt>
      <trkpt lat="44.37093" lon="2.26717">
        <ele>413</ele>
        <time>2017-09-17T10:26:48Z</time>
      </trkpt>
      <trkpt lat="44.3709" lon="2.2671">
        <ele>412</ele>
        <time>2017-09-17T10:26:52Z</time>
      </trkpt>
      <trkpt lat="44.3708" lon="2.26695">
        <ele>425</ele>
        <time>2017-09-17T10:27:02Z</time>
      </trkpt>
      <trkpt lat="44.37074" lon="2.26679">
        <ele>421</ele>
        <time>2017-09-17T10:27:10Z</time>
      </trkpt>
      <trkpt lat="44.37071" lon="2.26673">
        <ele>420</ele>
        <time>2017-09-17T10:27:13Z</time>
      </trkpt>
      <trkpt lat="44.37068" lon="2.26668">
        <ele>421</ele>
        <time>2017-09-17T10:27:17Z</time>
      </trkpt>
      <trkpt lat="44.37066" lon="2.26661">
        <ele>414</ele>
        <time>2017-09-17T10:27:20Z</time>
      </trkpt>
      <trkpt lat="44.37062" lon="2.26648">
        <ele>415</ele>
        <time>2017-09-17T10:27:26Z</time>
      </trkpt>
      <trkpt lat="44.37052" lon="2.26617">
        <ele>414</ele>
        <time>2017-09-17T10:27:44Z</time>
      </trkpt>
      <trkpt lat="44.3705" lon="2.26604">
        <ele>414</ele>
        <time>2017-09-17T10:27:51Z</time>
      </trkpt>
      <trkpt lat="44.37044" lon="2.26593">
        <ele>413</ele>
        <time>2017-09-17T10:27:58Z</time>
      </trkpt>
      <trkpt lat="44.3704" lon="2.26586">
        <ele>414</ele>
        <time>2017-09-17T10:28:02Z</time>
      </trkpt>
      <trkpt lat="44.37036" lon="2.26581">
        <ele>407</ele>
        <time>2017-09-17T10:28:05Z</time>
      </trkpt>
      <trkpt lat="44.37034" lon="2.26576">
        <ele>408</ele>
        <time>2017-09-17T10:28:08Z</time>
      </trkpt>
      <trkpt lat="44.37031" lon="2.26578">
        <ele>408</ele>
        <time>2017-09-17T10:28:46Z</time>
      </trkpt>
      <trkpt lat="44.37031" lon="2.26572">
        <ele>408</ele>
        <time>2017-09-17T10:28:54Z</time>
      </trkpt>
      <trkpt lat="44.37028" lon="2.26566">
        <ele>408</ele>
        <time>2017-09-17T10:29:00Z</time>
      </trkpt>
      <trkpt lat="44.3702" lon="2.26557">
        <ele>408</ele>
        <time>2017-09-17T10:29:07Z</time>
      </trkpt>
      <trkpt lat="44.37" lon="2.2655">
        <ele>413</ele>
        <time>2017-09-17T10:29:19Z</time>
      </trkpt>
      <trkpt lat="44.36989" lon="2.26551">
        <ele>414</ele>
        <time>2017-09-17T10:29:27Z</time>
      </trkpt>
      <trkpt lat="44.36983" lon="2.26551">
        <ele>414</ele>
        <time>2017-09-17T10:29:32Z</time>
      </trkpt>
      <trkpt lat="44.36976" lon="2.26551">
        <ele>414</ele>
        <time>2017-09-17T10:29:39Z</time>
      </trkpt>
      <trkpt lat="44.36956" lon="2.26558">
        <ele>416</ele>
        <time>2017-09-17T10:29:51Z</time>
      </trkpt>
      <trkpt lat="44.36951" lon="2.2656">
        <ele>416</ele>
        <time>2017-09-17T10:29:55Z</time>
      </trkpt>
      <trkpt lat="44.36947" lon="2.26555">
        <ele>416</ele>
        <time>2017-09-17T10:29:59Z</time>
      </trkpt>
      <trkpt lat="44.36944" lon="2.26549">
        <ele>416</ele>
        <time>2017-09-17T10:30:03Z</time>
      </trkpt>
      <trkpt lat="44.36945" lon="2.26542">
        <ele>415</ele>
        <time>2017-09-17T10:30:08Z</time>
      </trkpt>
      <trkpt lat="44.36947" lon="2.26534">
        <ele>415</ele>
        <time>2017-09-17T10:30:14Z</time>
      </trkpt>
      <trkpt lat="44.36947" lon="2.26525">
        <ele>414</ele>
        <time>2017-09-17T10:30:18Z</time>
      </trkpt>
      <trkpt lat="44.36951" lon="2.26513">
        <ele>414</ele>
        <time>2017-09-17T10:30:24Z</time>
      </trkpt>
      <trkpt lat="44.36954" lon="2.26509">
        <ele>413</ele>
        <time>2017-09-17T10:30:29Z</time>
      </trkpt>
      <trkpt lat="44.36953" lon="2.26504">
        <ele>413</ele>
        <time>2017-09-17T10:30:30Z</time>
      </trkpt>
      <trkpt lat="44.36952" lon="2.265">
        <ele>407</ele>
        <time>2017-09-17T10:30:33Z</time>
      </trkpt>
      <trkpt lat="44.36951" lon="2.26492">
        <ele>407</ele>
        <time>2017-09-17T10:30:37Z</time>
      </trkpt>
      <trkpt lat="44.36949" lon="2.26486">
        <ele>407</ele>
        <time>2017-09-17T10:30:41Z</time>
      </trkpt>
      <trkpt lat="44.36947" lon="2.26481">
        <ele>407</ele>
        <time>2017-09-17T10:30:44Z</time>
      </trkpt>
      <trkpt lat="44.36943" lon="2.26477">
        <ele>407</ele>
        <time>2017-09-17T10:30:49Z</time>
      </trkpt>
      <trkpt lat="44.3694" lon="2.26472">
        <ele>407</ele>
        <time>2017-09-17T10:30:52Z</time>
      </trkpt>
      <trkpt lat="44.36929" lon="2.2646">
        <ele>406</ele>
        <time>2017-09-17T10:31:00Z</time>
      </trkpt>
      <trkpt lat="44.36924" lon="2.26458">
        <ele>406</ele>
        <time>2017-09-17T10:31:03Z</time>
      </trkpt>
      <trkpt lat="44.3692" lon="2.26457">
        <ele>406</ele>
        <time>2017-09-17T10:31:07Z</time>
      </trkpt>
      <trkpt lat="44.36916" lon="2.26454">
        <ele>413</ele>
        <time>2017-09-17T10:31:11Z</time>
      </trkpt>
      <trkpt lat="44.36902" lon="2.26442">
        <ele>413</ele>
        <time>2017-09-17T10:31:23Z</time>
      </trkpt>
      <trkpt lat="44.36892" lon="2.26439">
        <ele>414</ele>
        <time>2017-09-17T10:31:29Z</time>
      </trkpt>
      <trkpt lat="44.36887" lon="2.2644">
        <ele>414</ele>
        <time>2017-09-17T10:31:32Z</time>
      </trkpt>
      <trkpt lat="44.36879" lon="2.26439">
        <ele>415</ele>
        <time>2017-09-17T10:31:38Z</time>
      </trkpt>
      <trkpt lat="44.36867" lon="2.26445">
        <ele>417</ele>
        <time>2017-09-17T10:31:47Z</time>
      </trkpt>
      <trkpt lat="44.36863" lon="2.26449">
        <ele>417</ele>
        <time>2017-09-17T10:31:50Z</time>
      </trkpt>
      <trkpt lat="44.36847" lon="2.26459">
        <ele>419</ele>
        <time>2017-09-17T10:32:03Z</time>
      </trkpt>
      <trkpt lat="44.36834" lon="2.26465">
        <ele>420</ele>
        <time>2017-09-17T10:32:15Z</time>
      </trkpt>
      <trkpt lat="44.36831" lon="2.26458">
        <ele>430</ele>
        <time>2017-09-17T10:32:23Z</time>
      </trkpt>
      <trkpt lat="44.36832" lon="2.26438">
        <ele>428</ele>
        <time>2017-09-17T10:32:33Z</time>
      </trkpt>
      <trkpt lat="44.36841" lon="2.26422">
        <ele>420</ele>
        <time>2017-09-17T10:32:41Z</time>
      </trkpt>
      <trkpt lat="44.36845" lon="2.26417">
        <ele>420</ele>
        <time>2017-09-17T10:32:47Z</time>
      </trkpt>
      <trkpt lat="44.3685" lon="2.26408">
        <ele>420</ele>
        <time>2017-09-17T10:32:53Z</time>
      </trkpt>
      <trkpt lat="44.36857" lon="2.26397">
        <ele>419</ele>
        <time>2017-09-17T10:33:00Z</time>
      </trkpt>
      <trkpt lat="44.3686" lon="2.26384">
        <ele>420</ele>
        <time>2017-09-17T10:33:06Z</time>
      </trkpt>
      <trkpt lat="44.36866" lon="2.26376">
        <ele>420</ele>
        <time>2017-09-17T10:33:12Z</time>
      </trkpt>
      <trkpt lat="44.36878" lon="2.26371">
        <ele>418</ele>
        <time>2017-09-17T10:33:18Z</time>
      </trkpt>
      <trkpt lat="44.36882" lon="2.26368">
        <ele>418</ele>
        <time>2017-09-17T10:33:21Z</time>
      </trkpt>
      <trkpt lat="44.36887" lon="2.26364">
        <ele>417</ele>
        <time>2017-09-17T10:33:24Z</time>
      </trkpt>
      <trkpt lat="44.36889" lon="2.26357">
        <ele>417</ele>
        <time>2017-09-17T10:33:32Z</time>
      </trkpt>
      <trkpt lat="44.36897" lon="2.26344">
        <ele>415</ele>
        <time>2017-09-17T10:33:40Z</time>
      </trkpt>
      <trkpt lat="44.36899" lon="2.26337">
        <ele>414</ele>
        <time>2017-09-17T10:33:46Z</time>
      </trkpt>
      <trkpt lat="44.36909" lon="2.26321">
        <ele>418</ele>
        <time>2017-09-17T10:33:59Z</time>
      </trkpt>
      <trkpt lat="44.36912" lon="2.26313">
        <ele>420</ele>
        <time>2017-09-17T10:34:03Z</time>
      </trkpt>
      <trkpt lat="44.36917" lon="2.26306">
        <ele>408</ele>
        <time>2017-09-17T10:34:08Z</time>
      </trkpt>
      <trkpt lat="44.36929" lon="2.26291">
        <ele>408</ele>
        <time>2017-09-17T10:34:19Z</time>
      </trkpt>
      <trkpt lat="44.36935" lon="2.26283">
        <ele>408</ele>
        <time>2017-09-17T10:34:24Z</time>
      </trkpt>
      <trkpt lat="44.3694" lon="2.26273">
        <ele>409</ele>
        <time>2017-09-17T10:34:31Z</time>
      </trkpt>
      <trkpt lat="44.36943" lon="2.26266">
        <ele>409</ele>
        <time>2017-09-17T10:34:35Z</time>
      </trkpt>
      <trkpt lat="44.36948" lon="2.26259">
        <ele>408</ele>
        <time>2017-09-17T10:34:39Z</time>
      </trkpt>
      <trkpt lat="44.36952" lon="2.2625">
        <ele>416</ele>
        <time>2017-09-17T10:34:45Z</time>
      </trkpt>
      <trkpt lat="44.3695" lon="2.26242">
        <ele>417</ele>
        <time>2017-09-17T10:34:49Z</time>
      </trkpt>
      <trkpt lat="44.36952" lon="2.26233">
        <ele>417</ele>
        <time>2017-09-17T10:34:53Z</time>
      </trkpt>
      <trkpt lat="44.36961" lon="2.26218">
        <ele>417</ele>
        <time>2017-09-17T10:35:04Z</time>
      </trkpt>
      <trkpt lat="44.36966" lon="2.26208">
        <ele>418</ele>
        <time>2017-09-17T10:35:10Z</time>
      </trkpt>
      <trkpt lat="44.36972" lon="2.262">
        <ele>418</ele>
        <time>2017-09-17T10:35:15Z</time>
      </trkpt>
      <trkpt lat="44.36984" lon="2.26162">
        <ele>432</ele>
        <time>2017-09-17T10:35:35Z</time>
      </trkpt>
      <trkpt lat="44.3699" lon="2.26155">
        <ele>432</ele>
        <time>2017-09-17T10:35:43Z</time>
      </trkpt>
      <trkpt lat="44.36995" lon="2.26152">
        <ele>432</ele>
        <time>2017-09-17T10:35:47Z</time>
      </trkpt>
      <trkpt lat="44.37002" lon="2.26149">
        <ele>424</ele>
        <time>2017-09-17T10:35:54Z</time>
      </trkpt>
      <trkpt lat="44.37009" lon="2.2615">
        <ele>424</ele>
        <time>2017-09-17T10:35:58Z</time>
      </trkpt>
      <trkpt lat="44.37015" lon="2.26147">
        <ele>425</ele>
        <time>2017-09-17T10:36:05Z</time>
      </trkpt>
      <trkpt lat="44.37022" lon="2.26148">
        <ele>425</ele>
        <time>2017-09-17T10:36:12Z</time>
      </trkpt>
      <trkpt lat="44.37041" lon="2.26143">
        <ele>425</ele>
        <time>2017-09-17T10:36:27Z</time>
      </trkpt>
      <trkpt lat="44.37045" lon="2.26145">
        <ele>424</ele>
        <time>2017-09-17T10:36:31Z</time>
      </trkpt>
      <trkpt lat="44.37052" lon="2.26144">
        <ele>424</ele>
        <time>2017-09-17T10:36:36Z</time>
      </trkpt>
      <trkpt lat="44.37059" lon="2.26143">
        <ele>423</ele>
        <time>2017-09-17T10:36:42Z</time>
      </trkpt>
      <trkpt lat="44.37065" lon="2.26142">
        <ele>422</ele>
        <time>2017-09-17T10:36:47Z</time>
      </trkpt>
      <trkpt lat="44.37075" lon="2.26144">
        <ele>421</ele>
        <time>2017-09-17T10:36:53Z</time>
      </trkpt>
      <trkpt lat="44.37096" lon="2.26153">
        <ele>413</ele>
        <time>2017-09-17T10:37:04Z</time>
      </trkpt>
      <trkpt lat="44.37103" lon="2.26159">
        <ele>412</ele>
        <time>2017-09-17T10:37:08Z</time>
      </trkpt>
      <trkpt lat="44.37127" lon="2.26169">
        <ele>403</ele>
        <time>2017-09-17T10:37:22Z</time>
      </trkpt>
      <trkpt lat="44.37173" lon="2.26201">
        <ele>398</ele>
        <time>2017-09-17T10:37:53Z</time>
      </trkpt>
      <trkpt lat="44.37187" lon="2.26213">
        <ele>397</ele>
        <time>2017-09-17T10:38:05Z</time>
      </trkpt>
      <trkpt lat="44.3719" lon="2.26218">
        <ele>396</ele>
        <time>2017-09-17T10:38:08Z</time>
      </trkpt>
      <trkpt lat="44.37194" lon="2.26224">
        <ele>396</ele>
        <time>2017-09-17T10:38:13Z</time>
      </trkpt>
      <trkpt lat="44.37203" lon="2.26231">
        <ele>395</ele>
        <time>2017-09-17T10:38:24Z</time>
      </trkpt>
      <trkpt lat="44.37209" lon="2.26233">
        <ele>395</ele>
        <time>2017-09-17T10:38:30Z</time>
      </trkpt>
      <trkpt lat="44.37214" lon="2.26234">
        <ele>395</ele>
        <time>2017-09-17T10:38:34Z</time>
      </trkpt>
      <trkpt lat="44.37222" lon="2.2624">
        <ele>394</ele>
        <time>2017-09-17T10:38:53Z</time>
      </trkpt>
      <trkpt lat="44.37226" lon="2.26242">
        <ele>393</ele>
        <time>2017-09-17T10:39:14Z</time>
      </trkpt>
      <trkpt lat="44.37236" lon="2.26242">
        <ele>392</ele>
        <time>2017-09-17T10:39:23Z</time>
      </trkpt>
      <trkpt lat="44.37241" lon="2.26244">
        <ele>391</ele>
        <time>2017-09-17T10:39:27Z</time>
      </trkpt>
      <trkpt lat="44.37246" lon="2.26246">
        <ele>390</ele>
        <time>2017-09-17T10:39:31Z</time>
      </trkpt>
      <trkpt lat="44.37258" lon="2.26241">
        <ele>391</ele>
        <time>2017-09-17T10:39:45Z</time>
      </trkpt>
      <trkpt lat="44.37263" lon="2.26237">
        <ele>392</ele>
        <time>2017-09-17T10:39:49Z</time>
      </trkpt>
      <trkpt lat="44.37268" lon="2.26235">
        <ele>392</ele>
        <time>2017-09-17T10:39:52Z</time>
      </trkpt>
      <trkpt lat="44.37273" lon="2.26232">
        <ele>392</ele>
        <time>2017-09-17T10:39:56Z</time>
      </trkpt>
      <trkpt lat="44.37278" lon="2.26229">
        <ele>393</ele>
        <time>2017-09-17T10:40:00Z</time>
      </trkpt>
      <trkpt lat="44.37288" lon="2.26221">
        <ele>393</ele>
        <time>2017-09-17T10:40:08Z</time>
      </trkpt>
      <trkpt lat="44.37297" lon="2.26203">
        <ele>394</ele>
        <time>2017-09-17T10:40:19Z</time>
      </trkpt>
      <trkpt lat="44.37303" lon="2.26198">
        <ele>394</ele>
        <time>2017-09-17T10:40:22Z</time>
      </trkpt>
      <trkpt lat="44.37302" lon="2.26184">
        <ele>395</ele>
        <time>2017-09-17T10:40:30Z</time>
      </trkpt>
      <trkpt lat="44.37295" lon="2.26168">
        <ele>395</ele>
        <time>2017-09-17T10:40:39Z</time>
      </trkpt>
      <trkpt lat="44.37291" lon="2.26164">
        <ele>399</ele>
        <time>2017-09-17T10:40:43Z</time>
      </trkpt>
      <trkpt lat="44.37282" lon="2.26149">
        <ele>399</ele>
        <time>2017-09-17T10:40:53Z</time>
      </trkpt>
      <trkpt lat="44.37279" lon="2.26136">
        <ele>399</ele>
        <time>2017-09-17T10:41:01Z</time>
      </trkpt>
      <trkpt lat="44.37272" lon="2.26124">
        <ele>399</ele>
        <time>2017-09-17T10:41:09Z</time>
      </trkpt>
      <trkpt lat="44.37269" lon="2.26119">
        <ele>398</ele>
        <time>2017-09-17T10:41:13Z</time>
      </trkpt>
      <trkpt lat="44.37265" lon="2.26114">
        <ele>398</ele>
        <time>2017-09-17T10:41:18Z</time>
      </trkpt>
      <trkpt lat="44.37262" lon="2.2611">
        <ele>398</ele>
        <time>2017-09-17T10:41:21Z</time>
      </trkpt>
      <trkpt lat="44.37261" lon="2.26104">
        <ele>397</ele>
        <time>2017-09-17T10:41:24Z</time>
      </trkpt>
      <trkpt lat="44.37253" lon="2.26092">
        <ele>395</ele>
        <time>2017-09-17T10:41:33Z</time>
      </trkpt>
      <trkpt lat="44.37247" lon="2.26081">
        <ele>394</ele>
        <time>2017-09-17T10:41:40Z</time>
      </trkpt>
      <trkpt lat="44.37244" lon="2.26077">
        <ele>395</ele>
        <time>2017-09-17T10:41:42Z</time>
      </trkpt>
      <trkpt lat="44.37243" lon="2.26073">
        <ele>396</ele>
        <time>2017-09-17T10:41:44Z</time>
      </trkpt>
      <trkpt lat="44.3724" lon="2.26068">
        <ele>397</ele>
        <time>2017-09-17T10:41:47Z</time>
      </trkpt>
      <trkpt lat="44.37238" lon="2.26065">
        <ele>398</ele>
        <time>2017-09-17T10:41:50Z</time>
      </trkpt>
      <trkpt lat="44.37235" lon="2.26061">
        <ele>398</ele>
        <time>2017-09-17T10:41:52Z</time>
      </trkpt>
      <trkpt lat="44.37233" lon="2.26058">
        <ele>398</ele>
        <time>2017-09-17T10:41:54Z</time>
      </trkpt>
      <trkpt lat="44.3723" lon="2.26055">
        <ele>399</ele>
        <time>2017-09-17T10:41:57Z</time>
      </trkpt>
      <trkpt lat="44.37216" lon="2.26031">
        <ele>400</ele>
        <time>2017-09-17T10:42:11Z</time>
      </trkpt>
      <trkpt lat="44.37211" lon="2.26025">
        <ele>400</ele>
        <time>2017-09-17T10:42:16Z</time>
      </trkpt>
      <trkpt lat="44.3721" lon="2.26021">
        <ele>400</ele>
        <time>2017-09-17T10:42:18Z</time>
      </trkpt>
      <trkpt lat="44.37206" lon="2.26013">
        <ele>400</ele>
        <time>2017-09-17T10:42:23Z</time>
      </trkpt>
      <trkpt lat="44.37201" lon="2.26006">
        <ele>401</ele>
        <time>2017-09-17T10:42:28Z</time>
      </trkpt>
      <trkpt lat="44.37191" lon="2.25988">
        <ele>402</ele>
        <time>2017-09-17T10:42:41Z</time>
      </trkpt>
      <trkpt lat="44.37189" lon="2.25984">
        <ele>402</ele>
        <time>2017-09-17T10:42:44Z</time>
      </trkpt>
      <trkpt lat="44.37187" lon="2.25979">
        <ele>402</ele>
        <time>2017-09-17T10:42:49Z</time>
      </trkpt>
      <trkpt lat="44.37183" lon="2.25976">
        <ele>402</ele>
        <time>2017-09-17T10:42:53Z</time>
      </trkpt>
      <trkpt lat="44.37178" lon="2.25962">
        <ele>402</ele>
        <time>2017-09-17T10:43:03Z</time>
      </trkpt>
      <trkpt lat="44.37176" lon="2.25956">
        <ele>402</ele>
        <time>2017-09-17T10:43:07Z</time>
      </trkpt>
      <trkpt lat="44.3717" lon="2.25937">
        <ele>401</ele>
        <time>2017-09-17T10:43:21Z</time>
      </trkpt>
      <trkpt lat="44.37167" lon="2.25932">
        <ele>410</ele>
        <time>2017-09-17T10:43:24Z</time>
      </trkpt>
      <trkpt lat="44.37163" lon="2.25926">
        <ele>408</ele>
        <time>2017-09-17T10:43:28Z</time>
      </trkpt>
      <trkpt lat="44.37162" lon="2.25909">
        <ele>407</ele>
        <time>2017-09-17T10:43:40Z</time>
      </trkpt>
      <trkpt lat="44.3716" lon="2.25899">
        <ele>414</ele>
        <time>2017-09-17T10:43:48Z</time>
      </trkpt>
      <trkpt lat="44.37161" lon="2.25887">
        <ele>417</ele>
        <time>2017-09-17T10:43:54Z</time>
      </trkpt>
      <trkpt lat="44.37161" lon="2.25863">
        <ele>418</ele>
        <time>2017-09-17T10:44:07Z</time>
      </trkpt>
      <trkpt lat="44.37174" lon="2.25846">
        <ele>407</ele>
        <time>2017-09-17T10:44:20Z</time>
      </trkpt>
      <trkpt lat="44.37183" lon="2.25842">
        <ele>408</ele>
        <time>2017-09-17T10:44:25Z</time>
      </trkpt>
      <trkpt lat="44.37195" lon="2.25825">
        <ele>413</ele>
        <time>2017-09-17T10:44:39Z</time>
      </trkpt>
      <trkpt lat="44.37185" lon="2.25797">
        <ele>413</ele>
        <time>2017-09-17T10:44:51Z</time>
      </trkpt>
      <trkpt lat="44.37182" lon="2.25787">
        <ele>413</ele>
        <time>2017-09-17T10:44:56Z</time>
      </trkpt>
      <trkpt lat="44.37183" lon="2.25775">
        <ele>413</ele>
        <time>2017-09-17T10:45:02Z</time>
      </trkpt>
      <trkpt lat="44.37191" lon="2.25755">
        <ele>414</ele>
        <time>2017-09-17T10:45:13Z</time>
      </trkpt>
      <trkpt lat="44.3719" lon="2.25743">
        <ele>414</ele>
        <time>2017-09-17T10:45:18Z</time>
      </trkpt>
      <trkpt lat="44.37189" lon="2.25733">
        <ele>414</ele>
        <time>2017-09-17T10:45:24Z</time>
      </trkpt>
      <trkpt lat="44.37191" lon="2.25713">
        <ele>415</ele>
        <time>2017-09-17T10:45:35Z</time>
      </trkpt>
      <trkpt lat="44.37189" lon="2.25703">
        <ele>415</ele>
        <time>2017-09-17T10:45:40Z</time>
      </trkpt>
      <trkpt lat="44.37194" lon="2.25695">
        <ele>415</ele>
        <time>2017-09-17T10:45:46Z</time>
      </trkpt>
      <trkpt lat="44.37195" lon="2.25686">
        <ele>415</ele>
        <time>2017-09-17T10:45:50Z</time>
      </trkpt>
      <trkpt lat="44.37195" lon="2.25677">
        <ele>415</ele>
        <time>2017-09-17T10:45:54Z</time>
      </trkpt>
      <trkpt lat="44.37193" lon="2.25667">
        <ele>415</ele>
        <time>2017-09-17T10:45:58Z</time>
      </trkpt>
      <trkpt lat="44.37193" lon="2.25659">
        <ele>414</ele>
        <time>2017-09-17T10:46:02Z</time>
      </trkpt>
      <trkpt lat="44.37195" lon="2.2565">
        <ele>414</ele>
        <time>2017-09-17T10:46:07Z</time>
      </trkpt>
      <trkpt lat="44.37194" lon="2.2564">
        <ele>413</ele>
        <time>2017-09-17T10:46:13Z</time>
      </trkpt>
      <trkpt lat="44.37193" lon="2.2562">
        <ele>413</ele>
        <time>2017-09-17T10:46:23Z</time>
      </trkpt>
      <trkpt lat="44.37195" lon="2.25611">
        <ele>413</ele>
        <time>2017-09-17T10:46:29Z</time>
      </trkpt>
      <trkpt lat="44.37196" lon="2.25599">
        <ele>413</ele>
        <time>2017-09-17T10:46:35Z</time>
      </trkpt>
      <trkpt lat="44.37202" lon="2.25588">
        <ele>413</ele>
        <time>2017-09-17T10:46:41Z</time>
      </trkpt>
      <trkpt lat="44.37203" lon="2.25579">
        <ele>414</ele>
        <time>2017-09-17T10:46:46Z</time>
      </trkpt>
      <trkpt lat="44.37203" lon="2.2557">
        <ele>414</ele>
        <time>2017-09-17T10:46:50Z</time>
      </trkpt>
      <trkpt lat="44.37204" lon="2.25561">
        <ele>414</ele>
        <time>2017-09-17T10:46:54Z</time>
      </trkpt>
      <trkpt lat="44.37207" lon="2.2555">
        <ele>414</ele>
        <time>2017-09-17T10:47:00Z</time>
      </trkpt>
      <trkpt lat="44.3721" lon="2.25542">
        <ele>414</ele>
        <time>2017-09-17T10:47:04Z</time>
      </trkpt>
      <trkpt lat="44.37216" lon="2.25533">
        <ele>413</ele>
        <time>2017-09-17T10:47:09Z</time>
      </trkpt>
      <trkpt lat="44.37219" lon="2.25525">
        <ele>413</ele>
        <time>2017-09-17T10:47:13Z</time>
      </trkpt>
      <trkpt lat="44.3722" lon="2.25515">
        <ele>412</ele>
        <time>2017-09-17T10:47:18Z</time>
      </trkpt>
      <trkpt lat="44.37232" lon="2.25467">
        <ele>419</ele>
        <time>2017-09-17T10:47:44Z</time>
      </trkpt>
      <trkpt lat="44.37235" lon="2.2546">
        <ele>420</ele>
        <time>2017-09-17T10:47:48Z</time>
      </trkpt>
      <trkpt lat="44.37237" lon="2.25453">
        <ele>420</ele>
        <time>2017-09-17T10:47:52Z</time>
      </trkpt>
      <trkpt lat="44.37239" lon="2.25444">
        <ele>419</ele>
        <time>2017-09-17T10:47:57Z</time>
      </trkpt>
      <trkpt lat="44.37243" lon="2.25438">
        <ele>417</ele>
        <time>2017-09-17T10:48:01Z</time>
      </trkpt>
      <trkpt lat="44.37248" lon="2.25421">
        <ele>411</ele>
        <time>2017-09-17T10:48:10Z</time>
      </trkpt>
      <trkpt lat="44.37252" lon="2.25412">
        <ele>407</ele>
        <time>2017-09-17T10:48:16Z</time>
      </trkpt>
      <trkpt lat="44.37254" lon="2.25403">
        <ele>408</ele>
        <time>2017-09-17T10:48:21Z</time>
      </trkpt>
      <trkpt lat="44.37266" lon="2.2538">
        <ele>410</ele>
        <time>2017-09-17T10:48:37Z</time>
      </trkpt>
      <trkpt lat="44.37269" lon="2.25372">
        <ele>411</ele>
        <time>2017-09-17T10:48:41Z</time>
      </trkpt>
      <trkpt lat="44.37273" lon="2.25365">
        <ele>411</ele>
        <time>2017-09-17T10:48:46Z</time>
      </trkpt>
      <trkpt lat="44.37277" lon="2.25359">
        <ele>412</ele>
        <time>2017-09-17T10:48:51Z</time>
      </trkpt>
      <trkpt lat="44.37278" lon="2.25359">
        <ele>411</ele>
        <time>2017-09-17T10:49:18Z</time>
      </trkpt>
      <trkpt lat="44.37281" lon="2.25351">
        <ele>412</ele>
        <time>2017-09-17T10:49:34Z</time>
      </trkpt>
      <trkpt lat="44.37282" lon="2.25341">
        <ele>412</ele>
        <time>2017-09-17T10:49:46Z</time>
      </trkpt>
      <trkpt lat="44.37283" lon="2.25332">
        <ele>426</ele>
        <time>2017-09-17T10:49:54Z</time>
      </trkpt>
      <trkpt lat="44.37289" lon="2.25315">
        <ele>426</ele>
        <time>2017-09-17T10:50:05Z</time>
      </trkpt>
      <trkpt lat="44.37297" lon="2.2531">
        <ele>424</ele>
        <time>2017-09-17T10:50:10Z</time>
      </trkpt>
      <trkpt lat="44.37301" lon="2.25304">
        <ele>424</ele>
        <time>2017-09-17T10:50:14Z</time>
      </trkpt>
      <trkpt lat="44.37307" lon="2.25299">
        <ele>424</ele>
        <time>2017-09-17T10:50:19Z</time>
      </trkpt>
      <trkpt lat="44.3732" lon="2.25284">
        <ele>424</ele>
        <time>2017-09-17T10:50:38Z</time>
      </trkpt>
      <trkpt lat="44.37329" lon="2.25276">
        <ele>423</ele>
        <time>2017-09-17T10:50:55Z</time>
      </trkpt>
      <trkpt lat="44.37334" lon="2.25274">
        <ele>408</ele>
        <time>2017-09-17T10:51:12Z</time>
      </trkpt>
      <trkpt lat="44.37338" lon="2.25264">
        <ele>410</ele>
        <time>2017-09-17T10:51:19Z</time>
      </trkpt>
      <trkpt lat="44.3734" lon="2.25258">
        <ele>413</ele>
        <time>2017-09-17T10:51:25Z</time>
      </trkpt>
      <trkpt lat="44.37342" lon="2.25252">
        <ele>413</ele>
        <time>2017-09-17T10:51:31Z</time>
      </trkpt>
      <trkpt lat="44.37348" lon="2.25249">
        <ele>420</ele>
        <time>2017-09-17T10:51:38Z</time>
      </trkpt>
      <trkpt lat="44.37353" lon="2.25245">
        <ele>419</ele>
        <time>2017-09-17T10:51:46Z</time>
      </trkpt>
      <trkpt lat="44.37361" lon="2.2524">
        <ele>419</ele>
        <time>2017-09-17T10:51:58Z</time>
      </trkpt>
      <trkpt lat="44.37365" lon="2.25238">
        <ele>419</ele>
        <time>2017-09-17T10:52:05Z</time>
      </trkpt>
      <trkpt lat="44.37369" lon="2.25232">
        <ele>419</ele>
        <time>2017-09-17T10:52:11Z</time>
      </trkpt>
      <trkpt lat="44.37374" lon="2.2523">
        <ele>418</ele>
        <time>2017-09-17T10:52:16Z</time>
      </trkpt>
      <trkpt lat="44.37379" lon="2.25232">
        <ele>417</ele>
        <time>2017-09-17T10:52:25Z</time>
      </trkpt>
      <trkpt lat="44.37383" lon="2.2523">
        <ele>416</ele>
        <time>2017-09-17T10:52:33Z</time>
      </trkpt>
      <trkpt lat="44.37387" lon="2.25226">
        <ele>416</ele>
        <time>2017-09-17T10:52:34Z</time>
      </trkpt>
      <trkpt lat="44.37392" lon="2.25221">
        <ele>416</ele>
        <time>2017-09-17T10:52:50Z</time>
      </trkpt>
      <trkpt lat="44.37397" lon="2.25219">
        <ele>416</ele>
        <time>2017-09-17T10:53:00Z</time>
      </trkpt>
      <trkpt lat="44.37401" lon="2.25216">
        <ele>416</ele>
        <time>2017-09-17T10:53:49Z</time>
      </trkpt>
      <trkpt lat="44.37404" lon="2.25219">
        <ele>415</ele>
        <time>2017-09-17T10:53:57Z</time>
      </trkpt>
      <trkpt lat="44.37408" lon="2.25218">
        <ele>415</ele>
        <time>2017-09-17T10:54:03Z</time>
      </trkpt>
      <trkpt lat="44.37411" lon="2.25219">
        <ele>414</ele>
        <time>2017-09-17T10:54:09Z</time>
      </trkpt>
      <trkpt lat="44.37414" lon="2.25217">
        <ele>414</ele>
        <time>2017-09-17T10:54:12Z</time>
      </trkpt>
      <trkpt lat="44.37418" lon="2.25215">
        <ele>409</ele>
        <time>2017-09-17T10:54:15Z</time>
      </trkpt>
      <trkpt lat="44.37422" lon="2.25214">
        <ele>410</ele>
        <time>2017-09-17T10:54:20Z</time>
      </trkpt>
      <trkpt lat="44.37426" lon="2.25211">
        <ele>410</ele>
        <time>2017-09-17T10:54:26Z</time>
      </trkpt>
      <trkpt lat="44.3743" lon="2.25212">
        <ele>410</ele>
        <time>2017-09-17T10:54:30Z</time>
      </trkpt>
      <trkpt lat="44.37438" lon="2.25214">
        <ele>410</ele>
        <time>2017-09-17T10:54:37Z</time>
      </trkpt>
      <trkpt lat="44.37442" lon="2.25215">
        <ele>410</ele>
        <time>2017-09-17T10:54:40Z</time>
      </trkpt>
      <trkpt lat="44.37446" lon="2.25216">
        <ele>410</ele>
        <time>2017-09-17T10:54:43Z</time>
      </trkpt>
      <trkpt lat="44.37461" lon="2.25224">
        <ele>410</ele>
        <time>2017-09-17T10:54:56Z</time>
      </trkpt>
      <trkpt lat="44.37465" lon="2.25227">
        <ele>409</ele>
        <time>2017-09-17T10:54:59Z</time>
      </trkpt>
      <trkpt lat="44.37469" lon="2.25231">
        <ele>409</ele>
        <time>2017-09-17T10:55:02Z</time>
      </trkpt>
      <trkpt lat="44.37471" lon="2.25235">
        <ele>408</ele>
        <time>2017-09-17T10:55:04Z</time>
      </trkpt>
      <trkpt lat="44.37477" lon="2.25242">
        <ele>407</ele>
        <time>2017-09-17T10:55:09Z</time>
      </trkpt>
      <trkpt lat="44.37478" lon="2.25247">
        <ele>406</ele>
        <time>2017-09-17T10:55:12Z</time>
      </trkpt>
      <trkpt lat="44.37503" lon="2.2528">
        <ele>402</ele>
        <time>2017-09-17T10:55:36Z</time>
      </trkpt>
      <trkpt lat="44.37514" lon="2.25292">
        <ele>401</ele>
        <time>2017-09-17T10:55:46Z</time>
      </trkpt>
      <trkpt lat="44.37516" lon="2.25294">
        <ele>401</ele>
        <time>2017-09-17T10:55:48Z</time>
      </trkpt>
      <trkpt lat="44.37521" lon="2.25302">
        <ele>401</ele>
        <time>2017-09-17T10:55:53Z</time>
      </trkpt>
      <trkpt lat="44.37523" lon="2.25305">
        <ele>401</ele>
        <time>2017-09-17T10:55:55Z</time>
      </trkpt>
      <trkpt lat="44.37525" lon="2.25309">
        <ele>401</ele>
        <time>2017-09-17T10:55:58Z</time>
      </trkpt>
      <trkpt lat="44.37527" lon="2.25313">
        <ele>401</ele>
        <time>2017-09-17T10:56:01Z</time>
      </trkpt>
      <trkpt lat="44.37529" lon="2.25316">
        <ele>401</ele>
        <time>2017-09-17T10:56:05Z</time>
      </trkpt>
      <trkpt lat="44.37533" lon="2.25318">
        <ele>401</ele>
        <time>2017-09-17T10:56:08Z</time>
      </trkpt>
      <trkpt lat="44.37536" lon="2.25322">
        <ele>401</ele>
        <time>2017-09-17T10:56:10Z</time>
      </trkpt>
      <trkpt lat="44.37538" lon="2.25324">
        <ele>401</ele>
        <time>2017-09-17T10:56:12Z</time>
      </trkpt>
      <trkpt lat="44.37542" lon="2.2533">
        <ele>402</ele>
        <time>2017-09-17T10:56:18Z</time>
      </trkpt>
      <trkpt lat="44.37546" lon="2.25334">
        <ele>399</ele>
        <time>2017-09-17T10:56:25Z</time>
      </trkpt>
      <trkpt lat="44.37549" lon="2.25337">
        <ele>400</ele>
        <time>2017-09-17T10:56:30Z</time>
      </trkpt>
      <trkpt lat="44.37552" lon="2.25339">
        <ele>400</ele>
        <time>2017-09-17T10:56:34Z</time>
      </trkpt>
      <trkpt lat="44.37553" lon="2.25344">
        <ele>400</ele>
        <time>2017-09-17T10:56:47Z</time>
      </trkpt>
      <trkpt lat="44.37556" lon="2.25348">
        <ele>400</ele>
        <time>2017-09-17T10:56:51Z</time>
      </trkpt>
      <trkpt lat="44.37559" lon="2.2535">
        <ele>400</ele>
        <time>2017-09-17T10:56:54Z</time>
      </trkpt>
      <trkpt lat="44.37562" lon="2.25354">
        <ele>400</ele>
        <time>2017-09-17T10:56:57Z</time>
      </trkpt>
      <trkpt lat="44.37565" lon="2.25358">
        <ele>400</ele>
        <time>2017-09-17T10:57:00Z</time>
      </trkpt>
      <trkpt lat="44.37567" lon="2.25362">
        <ele>400</ele>
        <time>2017-09-17T10:57:03Z</time>
      </trkpt>
      <trkpt lat="44.37569" lon="2.25367">
        <ele>400</ele>
        <time>2017-09-17T10:57:07Z</time>
      </trkpt>
      <trkpt lat="44.37572" lon="2.25371">
        <ele>400</ele>
        <time>2017-09-17T10:57:11Z</time>
      </trkpt>
      <trkpt lat="44.37575" lon="2.25375">
        <ele>399</ele>
        <time>2017-09-17T10:57:15Z</time>
      </trkpt>
      <trkpt lat="44.37581" lon="2.25386">
        <ele>399</ele>
        <time>2017-09-17T10:57:22Z</time>
      </trkpt>
      <trkpt lat="44.37588" lon="2.25395">
        <ele>397</ele>
        <time>2017-09-17T10:57:29Z</time>
      </trkpt>
      <trkpt lat="44.37589" lon="2.25401">
        <ele>397</ele>
        <time>2017-09-17T10:57:32Z</time>
      </trkpt>
      <trkpt lat="44.37598" lon="2.25413">
        <ele>396</ele>
        <time>2017-09-17T10:57:41Z</time>
      </trkpt>
      <trkpt lat="44.37602" lon="2.25416">
        <ele>396</ele>
        <time>2017-09-17T10:57:44Z</time>
      </trkpt>
      <trkpt lat="44.37606" lon="2.25418">
        <ele>398</ele>
        <time>2017-09-17T10:57:47Z</time>
      </trkpt>
      <trkpt lat="44.37621" lon="2.25427">
        <ele>398</ele>
        <time>2017-09-17T10:57:59Z</time>
      </trkpt>
      <trkpt lat="44.37631" lon="2.25431">
        <ele>398</ele>
        <time>2017-09-17T10:58:05Z</time>
      </trkpt>
      <trkpt lat="44.37664" lon="2.25432">
        <ele>396</ele>
        <time>2017-09-17T10:58:32Z</time>
      </trkpt>
      <trkpt lat="44.37668" lon="2.25433">
        <ele>398</ele>
        <time>2017-09-17T10:58:42Z</time>
      </trkpt>
      <trkpt lat="44.37673" lon="2.25431">
        <ele>397</ele>
        <time>2017-09-17T10:58:49Z</time>
      </trkpt>
      <trkpt lat="44.37688" lon="2.25426">
        <ele>399</ele>
        <time>2017-09-17T10:59:00Z</time>
      </trkpt>
      <trkpt lat="44.37693" lon="2.25423">
        <ele>399</ele>
        <time>2017-09-17T10:59:05Z</time>
      </trkpt>
      <trkpt lat="44.37697" lon="2.25418">
        <ele>400</ele>
        <time>2017-09-17T10:59:11Z</time>
      </trkpt>
      <trkpt lat="44.37712" lon="2.25408">
        <ele>395</ele>
        <time>2017-09-17T10:59:23Z</time>
      </trkpt>
      <trkpt lat="44.37715" lon="2.25403">
        <ele>395</ele>
        <time>2017-09-17T10:59:26Z</time>
      </trkpt>
      <trkpt lat="44.37719" lon="2.254">
        <ele>395</ele>
        <time>2017-09-17T10:59:29Z</time>
      </trkpt>
      <trkpt lat="44.37721" lon="2.25396">
        <ele>395</ele>
        <time>2017-09-17T10:59:32Z</time>
      </trkpt>
      <trkpt lat="44.3773" lon="2.25381">
        <ele>395</ele>
        <time>2017-09-17T10:59:43Z</time>
      </trkpt>
      <trkpt lat="44.37735" lon="2.2537">
        <ele>394</ele>
        <time>2017-09-17T10:59:48Z</time>
      </trkpt>
      <trkpt lat="44.37742" lon="2.25355">
        <ele>393</ele>
        <time>2017-09-17T10:59:57Z</time>
      </trkpt>
      <trkpt lat="44.37743" lon="2.25348">
        <ele>392</ele>
        <time>2017-09-17T11:00:02Z</time>
      </trkpt>
      <trkpt lat="44.37746" lon="2.25337">
        <ele>390</ele>
        <time>2017-09-17T11:00:09Z</time>
      </trkpt>
      <trkpt lat="44.37749" lon="2.25332">
        <ele>390</ele>
        <time>2017-09-17T11:00:12Z</time>
      </trkpt>
      <trkpt lat="44.37749" lon="2.25327">
        <ele>390</ele>
        <time>2017-09-17T11:00:15Z</time>
      </trkpt>
      <trkpt lat="44.3775" lon="2.25321">
        <ele>397</ele>
        <time>2017-09-17T11:00:18Z</time>
      </trkpt>
      <trkpt lat="44.3775" lon="2.25317">
        <ele>392</ele>
        <time>2017-09-17T11:00:21Z</time>
      </trkpt>
      <trkpt lat="44.37752" lon="2.25307">
        <ele>402</ele>
        <time>2017-09-17T11:00:26Z</time>
      </trkpt>
      <trkpt lat="44.37751" lon="2.25301">
        <ele>403</ele>
        <time>2017-09-17T11:00:29Z</time>
      </trkpt>
      <trkpt lat="44.3775" lon="2.25285">
        <ele>404</ele>
        <time>2017-09-17T11:00:38Z</time>
      </trkpt>
      <trkpt lat="44.3775" lon="2.2528">
        <ele>403</ele>
        <time>2017-09-17T11:00:41Z</time>
      </trkpt>
      <trkpt lat="44.3775" lon="2.25274">
        <ele>393</ele>
        <time>2017-09-17T11:00:45Z</time>
      </trkpt>
      <trkpt lat="44.37748" lon="2.25267">
        <ele>393</ele>
        <time>2017-09-17T11:00:49Z</time>
      </trkpt>
      <trkpt lat="44.37748" lon="2.25255">
        <ele>393</ele>
        <time>2017-09-17T11:00:56Z</time>
      </trkpt>
      <trkpt lat="44.37749" lon="2.25249">
        <ele>392</ele>
        <time>2017-09-17T11:01:01Z</time>
      </trkpt>
      <trkpt lat="44.37749" lon="2.25243">
        <ele>393</ele>
        <time>2017-09-17T11:01:04Z</time>
      </trkpt>
      <trkpt lat="44.3775" lon="2.25237">
        <ele>399</ele>
        <time>2017-09-17T11:01:08Z</time>
      </trkpt>
      <trkpt lat="44.37752" lon="2.25232">
        <ele>401</ele>
        <time>2017-09-17T11:01:18Z</time>
      </trkpt>
      <trkpt lat="44.37751" lon="2.25225">
        <ele>402</ele>
        <time>2017-09-17T11:01:23Z</time>
      </trkpt>
      <trkpt lat="44.37751" lon="2.25217">
        <ele>404</ele>
        <time>2017-09-17T11:01:27Z</time>
      </trkpt>
      <trkpt lat="44.3775" lon="2.25211">
        <ele>394</ele>
        <time>2017-09-17T11:01:30Z</time>
      </trkpt>
      <trkpt lat="44.3775" lon="2.25206">
        <ele>394</ele>
        <time>2017-09-17T11:01:33Z</time>
      </trkpt>
      <trkpt lat="44.37748" lon="2.25202">
        <ele>394</ele>
        <time>2017-09-17T11:01:36Z</time>
      </trkpt>
      <trkpt lat="44.37746" lon="2.25197">
        <ele>394</ele>
        <time>2017-09-17T11:01:40Z</time>
      </trkpt>
      <trkpt lat="44.37743" lon="2.25193">
        <ele>394</ele>
        <time>2017-09-17T11:01:52Z</time>
      </trkpt>
      <trkpt lat="44.37742" lon="2.25188">
        <ele>394</ele>
        <time>2017-09-17T11:01:58Z</time>
      </trkpt>
      <trkpt lat="44.3774" lon="2.25184">
        <ele>394</ele>
        <time>2017-09-17T11:02:02Z</time>
      </trkpt>
      <trkpt lat="44.37739" lon="2.2518">
        <ele>394</ele>
        <time>2017-09-17T11:02:04Z</time>
      </trkpt>
      <trkpt lat="44.37737" lon="2.25172">
        <ele>394</ele>
        <time>2017-09-17T11:02:08Z</time>
      </trkpt>
      <trkpt lat="44.37735" lon="2.25165">
        <ele>395</ele>
        <time>2017-09-17T11:02:14Z</time>
      </trkpt>
      <trkpt lat="44.37734" lon="2.25157">
        <ele>395</ele>
        <time>2017-09-17T11:02:20Z</time>
      </trkpt>
      <trkpt lat="44.3773" lon="2.25137">
        <ele>396</ele>
        <time>2017-09-17T11:02:32Z</time>
      </trkpt>
      <trkpt lat="44.37727" lon="2.25127">
        <ele>397</ele>
        <time>2017-09-17T11:02:38Z</time>
      </trkpt>
      <trkpt lat="44.37726" lon="2.25122">
        <ele>397</ele>
        <time>2017-09-17T11:02:41Z</time>
      </trkpt>
      <trkpt lat="44.37725" lon="2.25118">
        <ele>397</ele>
        <time>2017-09-17T11:02:44Z</time>
      </trkpt>
      <trkpt lat="44.37723" lon="2.25112">
        <ele>397</ele>
        <time>2017-09-17T11:02:48Z</time>
      </trkpt>
      <trkpt lat="44.37721" lon="2.25108">
        <ele>397</ele>
        <time>2017-09-17T11:02:51Z</time>
      </trkpt>
      <trkpt lat="44.37719" lon="2.25103">
        <ele>397</ele>
        <time>2017-09-17T11:02:57Z</time>
      </trkpt>
      <trkpt lat="44.37717" lon="2.25088">
        <ele>397</ele>
        <time>2017-09-17T11:03:14Z</time>
      </trkpt>
      <trkpt lat="44.37715" lon="2.25082">
        <ele>399</ele>
        <time>2017-09-17T11:03:23Z</time>
      </trkpt>
      <trkpt lat="44.37714" lon="2.25076">
        <ele>399</ele>
        <time>2017-09-17T11:03:27Z</time>
      </trkpt>
      <trkpt lat="44.37713" lon="2.2507">
        <ele>399</ele>
        <time>2017-09-17T11:03:31Z</time>
      </trkpt>
      <trkpt lat="44.37713" lon="2.25062">
        <ele>399</ele>
        <time>2017-09-17T11:03:36Z</time>
      </trkpt>
      <trkpt lat="44.37704" lon="2.25033">
        <ele>398</ele>
        <time>2017-09-17T11:03:52Z</time>
      </trkpt>
      <trkpt lat="44.37703" lon="2.25027">
        <ele>398</ele>
        <time>2017-09-17T11:03:55Z</time>
      </trkpt>
      <trkpt lat="44.37702" lon="2.25023">
        <ele>398</ele>
        <time>2017-09-17T11:03:58Z</time>
      </trkpt>
      <trkpt lat="44.37699" lon="2.25017">
        <ele>397</ele>
        <time>2017-09-17T11:04:02Z</time>
      </trkpt>
      <trkpt lat="44.37697" lon="2.25013">
        <ele>397</ele>
        <time>2017-09-17T11:04:06Z</time>
      </trkpt>
      <trkpt lat="44.37693" lon="2.2501">
        <ele>397</ele>
        <time>2017-09-17T11:04:09Z</time>
      </trkpt>
      <trkpt lat="44.37685" lon="2.2499">
        <ele>396</ele>
        <time>2017-09-17T11:04:21Z</time>
      </trkpt>
      <trkpt lat="44.37683" lon="2.24984">
        <ele>397</ele>
        <time>2017-09-17T11:04:25Z</time>
      </trkpt>
      <trkpt lat="44.37682" lon="2.24979">
        <ele>397</ele>
        <time>2017-09-17T11:04:28Z</time>
      </trkpt>
      <trkpt lat="44.37678" lon="2.24964">
        <ele>398</ele>
        <time>2017-09-17T11:04:36Z</time>
      </trkpt>
      <trkpt lat="44.37672" lon="2.24952">
        <ele>398</ele>
        <time>2017-09-17T11:04:44Z</time>
      </trkpt>
      <trkpt lat="44.3767" lon="2.24946">
        <ele>397</ele>
        <time>2017-09-17T11:04:48Z</time>
      </trkpt>
      <trkpt lat="44.37669" lon="2.2494">
        <ele>397</ele>
        <time>2017-09-17T11:04:52Z</time>
      </trkpt>
      <trkpt lat="44.37669" lon="2.24935">
        <ele>396</ele>
        <time>2017-09-17T11:04:54Z</time>
      </trkpt>
      <trkpt lat="44.37666" lon="2.2493">
        <ele>394</ele>
        <time>2017-09-17T11:04:57Z</time>
      </trkpt>
      <trkpt lat="44.37664" lon="2.24924">
        <ele>393</ele>
        <time>2017-09-17T11:05:00Z</time>
      </trkpt>
      <trkpt lat="44.37663" lon="2.24919">
        <ele>392</ele>
        <time>2017-09-17T11:05:03Z</time>
      </trkpt>
      <trkpt lat="44.37654" lon="2.24892">
        <ele>396</ele>
        <time>2017-09-17T11:05:18Z</time>
      </trkpt>
      <trkpt lat="44.3765" lon="2.24882">
        <ele>397</ele>
        <time>2017-09-17T11:05:26Z</time>
      </trkpt>
      <trkpt lat="44.37643" lon="2.2487">
        <ele>398</ele>
        <time>2017-09-17T11:05:34Z</time>
      </trkpt>
      <trkpt lat="44.37638" lon="2.24863">
        <ele>398</ele>
        <time>2017-09-17T11:05:40Z</time>
      </trkpt>
      <trkpt lat="44.37635" lon="2.24858">
        <ele>398</ele>
        <time>2017-09-17T11:05:44Z</time>
      </trkpt>
      <trkpt lat="44.37631" lon="2.24853">
        <ele>398</ele>
        <time>2017-09-17T11:05:47Z</time>
      </trkpt>
      <trkpt lat="44.37629" lon="2.24846">
        <ele>398</ele>
        <time>2017-09-17T11:05:52Z</time>
      </trkpt>
      <trkpt lat="44.37626" lon="2.24842">
        <ele>398</ele>
        <time>2017-09-17T11:05:55Z</time>
      </trkpt>
      <trkpt lat="44.37623" lon="2.24837">
        <ele>398</ele>
        <time>2017-09-17T11:05:59Z</time>
      </trkpt>
      <trkpt lat="44.3762" lon="2.24831">
        <ele>402</ele>
        <time>2017-09-17T11:06:02Z</time>
      </trkpt>
      <trkpt lat="44.37617" lon="2.24824">
        <ele>401</ele>
        <time>2017-09-17T11:06:07Z</time>
      </trkpt>
      <trkpt lat="44.37614" lon="2.24821">
        <ele>401</ele>
        <time>2017-09-17T11:06:12Z</time>
      </trkpt>
      <trkpt lat="44.37608" lon="2.24806">
        <ele>401</ele>
        <time>2017-09-17T11:06:22Z</time>
      </trkpt>
      <trkpt lat="44.37603" lon="2.24799">
        <ele>401</ele>
        <time>2017-09-17T11:06:27Z</time>
      </trkpt>
      <trkpt lat="44.37599" lon="2.24792">
        <ele>401</ele>
        <time>2017-09-17T11:06:31Z</time>
      </trkpt>
      <trkpt lat="44.37595" lon="2.24788">
        <ele>401</ele>
        <time>2017-09-17T11:06:34Z</time>
      </trkpt>
      <trkpt lat="44.37586" lon="2.2478">
        <ele>401</ele>
        <time>2017-09-17T11:06:40Z</time>
      </trkpt>
      <trkpt lat="44.37582" lon="2.24776">
        <ele>399</ele>
        <time>2017-09-17T11:06:43Z</time>
      </trkpt>
      <trkpt lat="44.37579" lon="2.24774">
        <ele>399</ele>
        <time>2017-09-17T11:06:45Z</time>
      </trkpt>
      <trkpt lat="44.37576" lon="2.24769">
        <ele>399</ele>
        <time>2017-09-17T11:06:48Z</time>
      </trkpt>
      <trkpt lat="44.37574" lon="2.24763">
        <ele>399</ele>
        <time>2017-09-17T11:06:51Z</time>
      </trkpt>
      <trkpt lat="44.37568" lon="2.24752">
        <ele>399</ele>
        <time>2017-09-17T11:06:58Z</time>
      </trkpt>
      <trkpt lat="44.37565" lon="2.24749">
        <ele>398</ele>
        <time>2017-09-17T11:07:01Z</time>
      </trkpt>
      <trkpt lat="44.37562" lon="2.24742">
        <ele>398</ele>
        <time>2017-09-17T11:07:08Z</time>
      </trkpt>
      <trkpt lat="44.37561" lon="2.24737">
        <ele>398</ele>
        <time>2017-09-17T11:07:12Z</time>
      </trkpt>
      <trkpt lat="44.37558" lon="2.24733">
        <ele>398</ele>
        <time>2017-09-17T11:07:14Z</time>
      </trkpt>
      <trkpt lat="44.37555" lon="2.24729">
        <ele>398</ele>
        <time>2017-09-17T11:07:16Z</time>
      </trkpt>
      <trkpt lat="44.37547" lon="2.24721">
        <ele>398</ele>
        <time>2017-09-17T11:07:24Z</time>
      </trkpt>
      <trkpt lat="44.37545" lon="2.24716">
        <ele>398</ele>
        <time>2017-09-17T11:07:27Z</time>
      </trkpt>
      <trkpt lat="44.3754" lon="2.24706">
        <ele>398</ele>
        <time>2017-09-17T11:07:39Z</time>
      </trkpt>
      <trkpt lat="44.37535" lon="2.24694">
        <ele>398</ele>
        <time>2017-09-17T11:07:53Z</time>
      </trkpt>
      <trkpt lat="44.37532" lon="2.2469">
        <ele>398</ele>
        <time>2017-09-17T11:07:56Z</time>
      </trkpt>
      <trkpt lat="44.37529" lon="2.24684">
        <ele>397</ele>
        <time>2017-09-17T11:08:01Z</time>
      </trkpt>
      <trkpt lat="44.37527" lon="2.2468">
        <ele>397</ele>
        <time>2017-09-17T11:08:05Z</time>
      </trkpt>
      <trkpt lat="44.37524" lon="2.24669">
        <ele>396</ele>
        <time>2017-09-17T11:08:12Z</time>
      </trkpt>
      <trkpt lat="44.37516" lon="2.24655">
        <ele>396</ele>
        <time>2017-09-17T11:08:21Z</time>
      </trkpt>
      <trkpt lat="44.37513" lon="2.24651">
        <ele>396</ele>
        <time>2017-09-17T11:08:24Z</time>
      </trkpt>
      <trkpt lat="44.37509" lon="2.2464">
        <ele>397</ele>
        <time>2017-09-17T11:08:30Z</time>
      </trkpt>
      <trkpt lat="44.37508" lon="2.24635">
        <ele>397</ele>
        <time>2017-09-17T11:08:33Z</time>
      </trkpt>
      <trkpt lat="44.37508" lon="2.24628">
        <ele>397</ele>
        <time>2017-09-17T11:08:38Z</time>
      </trkpt>
      <trkpt lat="44.37499" lon="2.24617">
        <ele>402</ele>
        <time>2017-09-17T11:08:48Z</time>
      </trkpt>
      <trkpt lat="44.37498" lon="2.24609">
        <ele>401</ele>
        <time>2017-09-17T11:08:54Z</time>
      </trkpt>
      <trkpt lat="44.37495" lon="2.24601">
        <ele>400</ele>
        <time>2017-09-17T11:08:59Z</time>
      </trkpt>
      <trkpt lat="44.37496" lon="2.24594">
        <ele>399</ele>
        <time>2017-09-17T11:09:03Z</time>
      </trkpt>
      <trkpt lat="44.37499" lon="2.24586">
        <ele>396</ele>
        <time>2017-09-17T11:09:15Z</time>
      </trkpt>
      <trkpt lat="44.37498" lon="2.2458">
        <ele>396</ele>
        <time>2017-09-17T11:09:19Z</time>
      </trkpt>
      <trkpt lat="44.37494" lon="2.24572">
        <ele>398</ele>
        <time>2017-09-17T11:09:24Z</time>
      </trkpt>
      <trkpt lat="44.37495" lon="2.24565">
        <ele>399</ele>
        <time>2017-09-17T11:09:30Z</time>
      </trkpt>
      <trkpt lat="44.37493" lon="2.24556">
        <ele>400</ele>
        <time>2017-09-17T11:09:40Z</time>
      </trkpt>
      <trkpt lat="44.3749" lon="2.24548">
        <ele>401</ele>
        <time>2017-09-17T11:09:44Z</time>
      </trkpt>
      <trkpt lat="44.37483" lon="2.24533">
        <ele>401</ele>
        <time>2017-09-17T11:09:53Z</time>
      </trkpt>
      <trkpt lat="44.3748" lon="2.24525">
        <ele>401</ele>
        <time>2017-09-17T11:09:58Z</time>
      </trkpt>
      <trkpt lat="44.37483" lon="2.24518">
        <ele>400</ele>
        <time>2017-09-17T11:10:02Z</time>
      </trkpt>
      <trkpt lat="44.3748" lon="2.24511">
        <ele>399</ele>
        <time>2017-09-17T11:10:06Z</time>
      </trkpt>
      <trkpt lat="44.37486" lon="2.24505">
        <ele>398</ele>
        <time>2017-09-17T11:10:19Z</time>
      </trkpt>
      <trkpt lat="44.37488" lon="2.24493">
        <ele>397</ele>
        <time>2017-09-17T11:10:23Z</time>
      </trkpt>
      <trkpt lat="44.37486" lon="2.24482">
        <ele>398</ele>
        <time>2017-09-17T11:10:28Z</time>
      </trkpt>
      <trkpt lat="44.37483" lon="2.24474">
        <ele>399</ele>
        <time>2017-09-17T11:10:32Z</time>
      </trkpt>
      <trkpt lat="44.37486" lon="2.24466">
        <ele>399</ele>
        <time>2017-09-17T11:10:37Z</time>
      </trkpt>
      <trkpt lat="44.37491" lon="2.24457">
        <ele>399</ele>
        <time>2017-09-17T11:10:44Z</time>
      </trkpt>
      <trkpt lat="44.37491" lon="2.24445">
        <ele>398</ele>
        <time>2017-09-17T11:10:50Z</time>
      </trkpt>
      <trkpt lat="44.37494" lon="2.24436">
        <ele>396</ele>
        <time>2017-09-17T11:10:56Z</time>
      </trkpt>
      <trkpt lat="44.37496" lon="2.24426">
        <ele>394</ele>
        <time>2017-09-17T11:11:04Z</time>
      </trkpt>
      <trkpt lat="44.37502" lon="2.24418">
        <ele>390</ele>
        <time>2017-09-17T11:11:09Z</time>
      </trkpt>
      <trkpt lat="44.37506" lon="2.24411">
        <ele>390</ele>
        <time>2017-09-17T11:11:15Z</time>
      </trkpt>
      <trkpt lat="44.37507" lon="2.24402">
        <ele>391</ele>
        <time>2017-09-17T11:11:22Z</time>
      </trkpt>
      <trkpt lat="44.37514" lon="2.24396">
        <ele>391</ele>
        <time>2017-09-17T11:11:28Z</time>
      </trkpt>
      <trkpt lat="44.3752" lon="2.24391">
        <ele>392</ele>
        <time>2017-09-17T11:11:32Z</time>
      </trkpt>
      <trkpt lat="44.37526" lon="2.24385">
        <ele>392</ele>
        <time>2017-09-17T11:11:37Z</time>
      </trkpt>
      <trkpt lat="44.37532" lon="2.24378">
        <ele>392</ele>
        <time>2017-09-17T11:11:42Z</time>
      </trkpt>
      <trkpt lat="44.37537" lon="2.24371">
        <ele>392</ele>
        <time>2017-09-17T11:11:47Z</time>
      </trkpt>
      <trkpt lat="44.37572" lon="2.24335">
        <ele>392</ele>
        <time>2017-09-17T11:12:20Z</time>
      </trkpt>
      <trkpt lat="44.37577" lon="2.24329">
        <ele>392</ele>
        <time>2017-09-17T11:12:26Z</time>
      </trkpt>
      <trkpt lat="44.37582" lon="2.24325">
        <ele>392</ele>
        <time>2017-09-17T11:12:31Z</time>
      </trkpt>
      <trkpt lat="44.37593" lon="2.24313">
        <ele>395</ele>
        <time>2017-09-17T11:12:44Z</time>
      </trkpt>
      <trkpt lat="44.37599" lon="2.24304">
        <ele>396</ele>
        <time>2017-09-17T11:12:52Z</time>
      </trkpt>
      <trkpt lat="44.37606" lon="2.24298">
        <ele>396</ele>
        <time>2017-09-17T11:12:58Z</time>
      </trkpt>
      <trkpt lat="44.3761" lon="2.24291">
        <ele>396</ele>
        <time>2017-09-17T11:13:04Z</time>
      </trkpt>
      <trkpt lat="44.37615" lon="2.24282">
        <ele>396</ele>
        <time>2017-09-17T11:13:10Z</time>
      </trkpt>
      <trkpt lat="44.3762" lon="2.24275">
        <ele>397</ele>
        <time>2017-09-17T11:13:16Z</time>
      </trkpt>
      <trkpt lat="44.37627" lon="2.24267">
        <ele>397</ele>
        <time>2017-09-17T11:13:25Z</time>
      </trkpt>
      <trkpt lat="44.37633" lon="2.24262">
        <ele>397</ele>
        <time>2017-09-17T11:13:30Z</time>
      </trkpt>
      <trkpt lat="44.37638" lon="2.24255">
        <ele>398</ele>
        <time>2017-09-17T11:13:36Z</time>
      </trkpt>
      <trkpt lat="44.37642" lon="2.24248">
        <ele>396</ele>
        <time>2017-09-17T11:13:41Z</time>
      </trkpt>
      <trkpt lat="44.37648" lon="2.24241">
        <ele>396</ele>
        <time>2017-09-17T11:13:46Z</time>
      </trkpt>
      <trkpt lat="44.37651" lon="2.24233">
        <ele>396</ele>
        <time>2017-09-17T11:13:51Z</time>
      </trkpt>
      <trkpt lat="44.37659" lon="2.2422">
        <ele>395</ele>
        <time>2017-09-17T11:13:59Z</time>
      </trkpt>
      <trkpt lat="44.37659" lon="2.24212">
        <ele>395</ele>
        <time>2017-09-17T11:14:02Z</time>
      </trkpt>
      <trkpt lat="44.37661" lon="2.24204">
        <ele>394</ele>
        <time>2017-09-17T11:14:06Z</time>
      </trkpt>
      <trkpt lat="44.37665" lon="2.24198">
        <ele>394</ele>
        <time>2017-09-17T11:14:11Z</time>
      </trkpt>
      <trkpt lat="44.37669" lon="2.24188">
        <ele>404</ele>
        <time>2017-09-17T11:14:17Z</time>
      </trkpt>
      <trkpt lat="44.3767" lon="2.24181">
        <ele>401</ele>
        <time>2017-09-17T11:14:21Z</time>
      </trkpt>
      <trkpt lat="44.37672" lon="2.24152">
        <ele>400</ele>
        <time>2017-09-17T11:14:35Z</time>
      </trkpt>
      <trkpt lat="44.37669" lon="2.24145">
        <ele>402</ele>
        <time>2017-09-17T11:14:41Z</time>
      </trkpt>
      <trkpt lat="44.37667" lon="2.2414">
        <ele>403</ele>
        <time>2017-09-17T11:14:45Z</time>
      </trkpt>
      <trkpt lat="44.37664" lon="2.24132">
        <ele>395</ele>
        <time>2017-09-17T11:14:49Z</time>
      </trkpt>
      <trkpt lat="44.37662" lon="2.24127">
        <ele>395</ele>
        <time>2017-09-17T11:14:52Z</time>
      </trkpt>
      <trkpt lat="44.3766" lon="2.2411">
        <ele>395</ele>
        <time>2017-09-17T11:15:00Z</time>
      </trkpt>
      <trkpt lat="44.37661" lon="2.24103">
        <ele>395</ele>
        <time>2017-09-17T11:15:04Z</time>
      </trkpt>
      <trkpt lat="44.37663" lon="2.24088">
        <ele>393</ele>
        <time>2017-09-17T11:15:11Z</time>
      </trkpt>
      <trkpt lat="44.37664" lon="2.2408">
        <ele>394</ele>
        <time>2017-09-17T11:15:15Z</time>
      </trkpt>
      <trkpt lat="44.37661" lon="2.24072">
        <ele>396</ele>
        <time>2017-09-17T11:15:20Z</time>
      </trkpt>
      <trkpt lat="44.37655" lon="2.24057">
        <ele>398</ele>
        <time>2017-09-17T11:15:31Z</time>
      </trkpt>
      <trkpt lat="44.37654" lon="2.24049">
        <ele>399</ele>
        <time>2017-09-17T11:15:39Z</time>
      </trkpt>
      <trkpt lat="44.3765" lon="2.24045">
        <ele>399</ele>
        <time>2017-09-17T11:16:07Z</time>
      </trkpt>
      <trkpt lat="44.37646" lon="2.2404">
        <ele>399</ele>
        <time>2017-09-17T11:16:36Z</time>
      </trkpt>
      <trkpt lat="44.37641" lon="2.24025">
        <ele>400</ele>
        <time>2017-09-17T11:16:43Z</time>
      </trkpt>
      <trkpt lat="44.3764" lon="2.24018">
        <ele>400</ele>
        <time>2017-09-17T11:16:46Z</time>
      </trkpt>
      <trkpt lat="44.37638" lon="2.24013">
        <ele>400</ele>
        <time>2017-09-17T11:16:50Z</time>
      </trkpt>
      <trkpt lat="44.37636" lon="2.24007">
        <ele>400</ele>
        <time>2017-09-17T11:16:54Z</time>
      </trkpt>
      <trkpt lat="44.3763" lon="2.23991">
        <ele>400</ele>
        <time>2017-09-17T11:17:05Z</time>
      </trkpt>
      <trkpt lat="44.37627" lon="2.23977">
        <ele>400</ele>
        <time>2017-09-17T11:17:12Z</time>
      </trkpt>
      <trkpt lat="44.37625" lon="2.23969">
        <ele>399</ele>
        <time>2017-09-17T11:17:16Z</time>
      </trkpt>
      <trkpt lat="44.37626" lon="2.23962">
        <ele>399</ele>
        <time>2017-09-17T11:17:20Z</time>
      </trkpt>
      <trkpt lat="44.37624" lon="2.23956">
        <ele>399</ele>
        <time>2017-09-17T11:17:24Z</time>
      </trkpt>
      <trkpt lat="44.37625" lon="2.23941">
        <ele>398</ele>
        <time>2017-09-17T11:17:34Z</time>
      </trkpt>
      <trkpt lat="44.37624" lon="2.23934">
        <ele>398</ele>
        <time>2017-09-17T11:17:37Z</time>
      </trkpt>
      <trkpt lat="44.37622" lon="2.23927">
        <ele>398</ele>
        <time>2017-09-17T11:17:41Z</time>
      </trkpt>
      <trkpt lat="44.3762" lon="2.23919">
        <ele>398</ele>
        <time>2017-09-17T11:17:45Z</time>
      </trkpt>
      <trkpt lat="44.37621" lon="2.23911">
        <ele>397</ele>
        <time>2017-09-17T11:17:49Z</time>
      </trkpt>
      <trkpt lat="44.37618" lon="2.23906">
        <ele>397</ele>
        <time>2017-09-17T11:17:53Z</time>
      </trkpt>
      <trkpt lat="44.37613" lon="2.23893">
        <ele>397</ele>
        <time>2017-09-17T11:18:01Z</time>
      </trkpt>
      <trkpt lat="44.37611" lon="2.23871">
        <ele>397</ele>
        <time>2017-09-17T11:18:14Z</time>
      </trkpt>
      <trkpt lat="44.37611" lon="2.23863">
        <ele>397</ele>
        <time>2017-09-17T11:18:20Z</time>
      </trkpt>
      <trkpt lat="44.37611" lon="2.23855">
        <ele>397</ele>
        <time>2017-09-17T11:18:24Z</time>
      </trkpt>
      <trkpt lat="44.3761" lon="2.23848">
        <ele>397</ele>
        <time>2017-09-17T11:18:27Z</time>
      </trkpt>
      <trkpt lat="44.3761" lon="2.2384">
        <ele>397</ele>
        <time>2017-09-17T11:18:32Z</time>
      </trkpt>
      <trkpt lat="44.37608" lon="2.23834">
        <ele>397</ele>
        <time>2017-09-17T11:18:35Z</time>
      </trkpt>
      <trkpt lat="44.37608" lon="2.23808">
        <ele>396</ele>
        <time>2017-09-17T11:18:48Z</time>
      </trkpt>
      <trkpt lat="44.37605" lon="2.23799">
        <ele>396</ele>
        <time>2017-09-17T11:18:56Z</time>
      </trkpt>
      <trkpt lat="44.376" lon="2.23792">
        <ele>396</ele>
        <time>2017-09-17T11:19:00Z</time>
      </trkpt>
      <trkpt lat="44.37594" lon="2.23788">
        <ele>396</ele>
        <time>2017-09-17T11:19:04Z</time>
      </trkpt>
      <trkpt lat="44.37589" lon="2.23783">
        <ele>395</ele>
        <time>2017-09-17T11:19:09Z</time>
      </trkpt>
      <trkpt lat="44.37584" lon="2.23778">
        <ele>395</ele>
        <time>2017-09-17T11:19:15Z</time>
      </trkpt>
      <trkpt lat="44.37578" lon="2.23772">
        <ele>406</ele>
        <time>2017-09-17T11:19:22Z</time>
      </trkpt>
      <trkpt lat="44.37575" lon="2.23764">
        <ele>404</ele>
        <time>2017-09-17T11:19:28Z</time>
      </trkpt>
      <trkpt lat="44.37569" lon="2.23757">
        <ele>404</ele>
        <time>2017-09-17T11:19:34Z</time>
      </trkpt>
      <trkpt lat="44.37564" lon="2.23749">
        <ele>403</ele>
        <time>2017-09-17T11:19:39Z</time>
      </trkpt>
      <trkpt lat="44.37565" lon="2.2374">
        <ele>403</ele>
        <time>2017-09-17T11:19:43Z</time>
      </trkpt>
      <trkpt lat="44.37565" lon="2.23732">
        <ele>405</ele>
        <time>2017-09-17T11:19:48Z</time>
      </trkpt>
      <trkpt lat="44.37566" lon="2.23723">
        <ele>406</ele>
        <time>2017-09-17T11:19:53Z</time>
      </trkpt>
      <trkpt lat="44.37564" lon="2.23706">
        <ele>406</ele>
        <time>2017-09-17T11:20:03Z</time>
      </trkpt>
      <trkpt lat="44.37562" lon="2.23682">
        <ele>404</ele>
        <time>2017-09-17T11:20:16Z</time>
      </trkpt>
      <trkpt lat="44.37559" lon="2.23667">
        <ele>404</ele>
        <time>2017-09-17T11:20:26Z</time>
      </trkpt>
      <trkpt lat="44.37558" lon="2.23651">
        <ele>400</ele>
        <time>2017-09-17T11:20:35Z</time>
      </trkpt>
      <trkpt lat="44.37554" lon="2.23637">
        <ele>402</ele>
        <time>2017-09-17T11:20:44Z</time>
      </trkpt>
      <trkpt lat="44.37551" lon="2.23575">
        <ele>393</ele>
        <time>2017-09-17T11:21:18Z</time>
      </trkpt>
      <trkpt lat="44.3755" lon="2.23566">
        <ele>393</ele>
        <time>2017-09-17T11:21:23Z</time>
      </trkpt>
      <trkpt lat="44.37551" lon="2.23559">
        <ele>393</ele>
        <time>2017-09-17T11:21:27Z</time>
      </trkpt>
      <trkpt lat="44.37553" lon="2.23551">
        <ele>393</ele>
        <time>2017-09-17T11:21:31Z</time>
      </trkpt>
      <trkpt lat="44.37553" lon="2.23538">
        <ele>392</ele>
        <time>2017-09-17T11:21:39Z</time>
      </trkpt>
      <trkpt lat="44.37553" lon="2.23524">
        <ele>391</ele>
        <time>2017-09-17T11:21:47Z</time>
      </trkpt>
      <trkpt lat="44.37554" lon="2.23518">
        <ele>390</ele>
        <time>2017-09-17T11:21:52Z</time>
      </trkpt>
      <trkpt lat="44.37558" lon="2.2352">
        <ele>390</ele>
        <time>2017-09-17T11:21:59Z</time>
      </trkpt>
      <trkpt lat="44.37562" lon="2.23524">
        <ele>390</ele>
        <time>2017-09-17T11:22:07Z</time>
      </trkpt>
      <trkpt lat="44.37576" lon="2.23519">
        <ele>387</ele>
        <time>2017-09-17T11:22:21Z</time>
      </trkpt>
      <trkpt lat="44.3758" lon="2.23515">
        <ele>385</ele>
        <time>2017-09-17T11:22:28Z</time>
      </trkpt>
      <trkpt lat="44.37578" lon="2.23508">
        <ele>384</ele>
        <time>2017-09-17T11:23:31Z</time>
      </trkpt>
      <trkpt lat="44.37583" lon="2.23507">
        <ele>383</ele>
        <time>2017-09-17T11:23:47Z</time>
      </trkpt>
      <trkpt lat="44.37585" lon="2.23501">
        <ele>380</ele>
        <time>2017-09-17T11:25:44Z</time>
      </trkpt>
      <trkpt lat="44.37589" lon="2.23495">
        <ele>381</ele>
        <time>2017-09-17T11:26:23Z</time>
      </trkpt>
      <trkpt lat="44.37593" lon="2.23491">
        <ele>382</ele>
        <time>2017-09-17T11:26:53Z</time>
      </trkpt>
      <trkpt lat="44.37597" lon="2.23488">
        <ele>383</ele>
        <time>2017-09-17T11:26:59Z</time>
      </trkpt>
      <trkpt lat="44.376" lon="2.23483">
        <ele>383</ele>
        <time>2017-09-17T11:27:18Z</time>
      </trkpt>
      <trkpt lat="44.37603" lon="2.23476">
        <ele>384</ele>
        <time>2017-09-17T11:27:34Z</time>
      </trkpt>
      <trkpt lat="44.37602" lon="2.2347">
        <ele>384</ele>
        <time>2017-09-17T11:28:17Z</time>
      </trkpt>
      <trkpt lat="44.37595" lon="2.23459">
        <ele>384</ele>
        <time>2017-09-17T11:28:55Z</time>
      </trkpt>
      <trkpt lat="44.37591" lon="2.23454">
        <ele>384</ele>
        <time>2017-09-17T11:29:11Z</time>
      </trkpt>
      <trkpt lat="44.37588" lon="2.23452">
        <ele>384</ele>
        <time>2017-09-17T11:29:22Z</time>
      </trkpt>
      <trkpt lat="44.37585" lon="2.23449">
        <ele>384</ele>
        <time>2017-09-17T11:29:29Z</time>
      </trkpt>
      <trkpt lat="44.3758" lon="2.23443">
        <ele>385</ele>
        <time>2017-09-17T11:30:25Z</time>
      </trkpt>
      <trkpt lat="44.37582" lon="2.23444">
        <ele>385</ele>
        <time>2017-09-17T12:21:03Z</time>
      </trkpt>
      <trkpt lat="44.37583" lon="2.23445">
        <ele>385</ele>
        <time>2017-09-17T12:22:48Z</time>
      </trkpt>
      <trkpt lat="44.37583" lon="2.23441">
        <ele>385</ele>
        <time>2017-09-17T12:23:23Z</time>
      </trkpt>
      <trkpt lat="44.37585" lon="2.23444">
        <ele>383</ele>
        <time>2017-09-17T11:37:05Z</time>
      </trkpt>
      <trkpt lat="44.3758" lon="2.23446">
        <ele>385</ele>
        <time>2017-09-17T11:38:54Z</time>
      </trkpt>
      <trkpt lat="44.37581" lon="2.23444">
        <ele>385</ele>
        <time>2017-09-17T11:39:45Z</time>
      </trkpt>
      <trkpt lat="44.37588" lon="2.23437">
        <ele>383</ele>
        <time>2017-09-17T11:40:39Z</time>
      </trkpt>
      <trkpt lat="44.37593" lon="2.23439">
        <ele>384</ele>
        <time>2017-09-17T11:41:26Z</time>
      </trkpt>
      <trkpt lat="44.37591" lon="2.23441">
        <ele>384</ele>
        <time>2017-09-17T11:46:54Z</time>
      </trkpt>
      <trkpt lat="44.37587" lon="2.23439">
        <ele>383</ele>
        <time>2017-09-17T12:01:09Z</time>
      </trkpt>
      <trkpt lat="44.37584" lon="2.23435">
        <ele>383</ele>
        <time>2017-09-17T11:48:50Z</time>
      </trkpt>
      <trkpt lat="44.37583" lon="2.23437">
        <ele>385</ele>
        <time>2017-09-17T11:50:06Z</time>
      </trkpt>
      <trkpt lat="44.37586" lon="2.23439">
        <ele>383</ele>
        <time>2017-09-17T11:52:11Z</time>
      </trkpt>
      <trkpt lat="44.37588" lon="2.23443">
        <ele>384</ele>
        <time>2017-09-17T11:59:05Z</time>
      </trkpt>
      <trkpt lat="44.37588" lon="2.23447">
        <ele>384</ele>
        <time>2017-09-17T11:59:09Z</time>
      </trkpt>
      <trkpt lat="44.37586" lon="2.23448">
        <ele>384</ele>
        <time>2017-09-17T11:59:14Z</time>
      </trkpt>
      <trkpt lat="44.37584" lon="2.23449">
        <ele>384</ele>
        <time>2017-09-17T11:59:18Z</time>
      </trkpt>
      <trkpt lat="44.37588" lon="2.23438">
        <ele>383</ele>
        <time>2017-09-17T12:01:02Z</time>
      </trkpt>
      <trkpt lat="44.37588" lon="2.23438">
        <ele>383</ele>
        <time>2017-09-17T12:01:02Z</time>
      </trkpt>
      <trkpt lat="44.37587" lon="2.23438">
        <ele>383</ele>
        <time>2017-09-17T12:01:09Z</time>
      </trkpt>
      <trkpt lat="44.37585" lon="2.23439">
        <ele>383</ele>
        <time>2017-09-17T12:01:47Z</time>
      </trkpt>
      <trkpt lat="44.37584" lon="2.23443">
        <ele>383</ele>
        <time>2017-09-17T12:01:53Z</time>
      </trkpt>
      <trkpt lat="44.37584" lon="2.23447">
        <ele>384</ele>
        <time>2017-09-17T12:06:29Z</time>
      </trkpt>
      <trkpt lat="44.37582" lon="2.23447">
        <ele>385</ele>
        <time>2017-09-17T12:08:16Z</time>
      </trkpt>
      <trkpt lat="44.37583" lon="2.23444">
        <ele>385</ele>
        <time>2017-09-17T12:24:11Z</time>
      </trkpt>
      <trkpt lat="44.37584" lon="2.23445">
        <ele>383</ele>
        <time>2017-09-17T12:24:34Z</time>
      </trkpt>
      <trkpt lat="44.37582" lon="2.23445">
        <ele>385</ele>
        <time>2017-09-17T12:17:54Z</time>
      </trkpt>
      <trkpt lat="44.37582" lon="2.23444">
        <ele>385</ele>
        <time>2017-09-17T12:21:03Z</time>
      </trkpt>
      <trkpt lat="44.37583" lon="2.23445">
        <ele>385</ele>
        <time>2017-09-17T12:22:48Z</time>
      </trkpt>
      <trkpt lat="44.37583" lon="2.23441">
        <ele>385</ele>
        <time>2017-09-17T12:23:23Z</time>
      </trkpt>
      <trkpt lat="44.37586" lon="2.23444">
        <ele>384</ele>
        <time>2017-09-17T12:23:35Z</time>
      </trkpt>
      <trkpt lat="44.37583" lon="2.23444">
        <ele>383</ele>
        <time>2017-09-17T12:24:11Z</time>
      </trkpt>
      <trkpt lat="44.37584" lon="2.23445">
        <ele>383</ele>
        <time>2017-09-17T12:24:34Z</time>
      </trkpt>
      <trkpt lat="44.37584" lon="2.23442">
        <ele>383</ele>
        <time>2017-09-17T12:25:15Z</time>
      </trkpt>
      <trkpt lat="44.37583" lon="2.23443">
        <ele>385</ele>
        <time>2017-09-17T12:25:51Z</time>
      </trkpt>
      <trkpt lat="44.37581" lon="2.23446">
        <ele>385</ele>
        <time>2017-09-17T12:26:03Z</time>
      </trkpt>
      <trkpt lat="44.37577" lon="2.23445">
        <ele>385</ele>
        <time>2017-09-17T12:26:05Z</time>
      </trkpt>
      <trkpt lat="44.37575" lon="2.23446">
        <ele>386</ele>
        <time>2017-09-17T12:26:07Z</time>
      </trkpt>
      <trkpt lat="44.37572" lon="2.23449">
        <ele>386</ele>
        <time>2017-09-17T12:26:09Z</time>
      </trkpt>
      <trkpt lat="44.37569" lon="2.2345">
        <ele>386</ele>
        <time>2017-09-17T12:26:11Z</time>
      </trkpt>
      <trkpt lat="44.37566" lon="2.23451">
        <ele>386</ele>
        <time>2017-09-17T12:26:13Z</time>
      </trkpt>
      <trkpt lat="44.37564" lon="2.2345">
        <ele>387</ele>
        <time>2017-09-17T12:26:15Z</time>
      </trkpt>
      <trkpt lat="44.37557" lon="2.23449">
        <ele>387</ele>
        <time>2017-09-17T12:26:19Z</time>
      </trkpt>
      <trkpt lat="44.37551" lon="2.23431">
        <ele>388</ele>
        <time>2017-09-17T12:26:32Z</time>
      </trkpt>
      <trkpt lat="44.3755" lon="2.23428">
        <ele>388</ele>
        <time>2017-09-17T12:26:35Z</time>
      </trkpt>
      <trkpt lat="44.37549" lon="2.23426">
        <ele>388</ele>
        <time>2017-09-17T12:26:38Z</time>
      </trkpt>
      <trkpt lat="44.37548" lon="2.23419">
        <ele>388</ele>
        <time>2017-09-17T12:26:43Z</time>
      </trkpt>
      <trkpt lat="44.3755" lon="2.23405">
        <ele>389</ele>
        <time>2017-09-17T12:26:52Z</time>
      </trkpt>
      <trkpt lat="44.37549" lon="2.234">
        <ele>389</ele>
        <time>2017-09-17T12:26:55Z</time>
      </trkpt>
      <trkpt lat="44.37549" lon="2.23396">
        <ele>390</ele>
        <time>2017-09-17T12:26:58Z</time>
      </trkpt>
      <trkpt lat="44.37545" lon="2.23348">
        <ele>391</ele>
        <time>2017-09-17T12:27:28Z</time>
      </trkpt>
      <trkpt lat="44.37544" lon="2.23346">
        <ele>391</ele>
        <time>2017-09-17T12:27:29Z</time>
      </trkpt>
      <trkpt lat="44.37544" lon="2.2334">
        <ele>391</ele>
        <time>2017-09-17T12:27:33Z</time>
      </trkpt>
      <trkpt lat="44.37545" lon="2.23337">
        <ele>391</ele>
        <time>2017-09-17T12:27:35Z</time>
      </trkpt>
      <trkpt lat="44.37546" lon="2.23335">
        <ele>391</ele>
        <time>2017-09-17T12:27:46Z</time>
      </trkpt>
      <trkpt lat="44.37548" lon="2.23334">
        <ele>391</ele>
        <time>2017-09-17T12:28:04Z</time>
      </trkpt>
      <trkpt lat="44.37549" lon="2.23332">
        <ele>392</ele>
        <time>2017-09-17T12:28:09Z</time>
      </trkpt>
      <trkpt lat="44.37551" lon="2.23329">
        <ele>392</ele>
        <time>2017-09-17T12:28:12Z</time>
      </trkpt>
      <trkpt lat="44.37555" lon="2.23325">
        <ele>391</ele>
        <time>2017-09-17T12:28:16Z</time>
      </trkpt>
      <trkpt lat="44.37558" lon="2.23324">
        <ele>391</ele>
        <time>2017-09-17T12:28:18Z</time>
      </trkpt>
      <trkpt lat="44.3756" lon="2.23324">
        <ele>390</ele>
        <time>2017-09-17T12:28:20Z</time>
      </trkpt>
      <trkpt lat="44.37563" lon="2.23324">
        <ele>390</ele>
        <time>2017-09-17T12:28:26Z</time>
      </trkpt>
      <trkpt lat="44.37573" lon="2.23313">
        <ele>389</ele>
        <time>2017-09-17T12:28:37Z</time>
      </trkpt>
      <trkpt lat="44.37574" lon="2.23309">
        <ele>389</ele>
        <time>2017-09-17T12:28:40Z</time>
      </trkpt>
      <trkpt lat="44.37599" lon="2.23277">
        <ele>386</ele>
        <time>2017-09-17T12:29:07Z</time>
      </trkpt>
      <trkpt lat="44.37627" lon="2.23239">
        <ele>387</ele>
        <time>2017-09-17T12:29:38Z</time>
      </trkpt>
      <trkpt lat="44.37629" lon="2.23237">
        <ele>387</ele>
        <time>2017-09-17T12:29:40Z</time>
      </trkpt>
      <trkpt lat="44.3765" lon="2.23209">
        <ele>387</ele>
        <time>2017-09-17T12:30:05Z</time>
      </trkpt>
      <trkpt lat="44.37652" lon="2.23203">
        <ele>387</ele>
        <time>2017-09-17T12:30:10Z</time>
      </trkpt>
      <trkpt lat="44.37652" lon="2.23197">
        <ele>387</ele>
        <time>2017-09-17T12:30:16Z</time>
      </trkpt>
      <trkpt lat="44.37651" lon="2.23194">
        <ele>387</ele>
        <time>2017-09-17T12:30:18Z</time>
      </trkpt>
      <trkpt lat="44.37647" lon="2.23189">
        <ele>387</ele>
        <time>2017-09-17T12:30:27Z</time>
      </trkpt>
      <trkpt lat="44.37646" lon="2.23186">
        <ele>387</ele>
        <time>2017-09-17T12:30:31Z</time>
      </trkpt>
      <trkpt lat="44.37645" lon="2.23177">
        <ele>387</ele>
        <time>2017-09-17T12:30:36Z</time>
      </trkpt>
      <trkpt lat="44.3764" lon="2.23162">
        <ele>385</ele>
        <time>2017-09-17T12:30:45Z</time>
      </trkpt>
      <trkpt lat="44.37638" lon="2.23156">
        <ele>385</ele>
        <time>2017-09-17T12:30:49Z</time>
      </trkpt>
      <trkpt lat="44.37635" lon="2.23145">
        <ele>384</ele>
        <time>2017-09-17T12:30:55Z</time>
      </trkpt>
      <trkpt lat="44.37635" lon="2.23143">
        <ele>384</ele>
        <time>2017-09-17T12:30:57Z</time>
      </trkpt>
      <trkpt lat="44.37622" lon="2.231">
        <ele>383</ele>
        <time>2017-09-17T12:31:25Z</time>
      </trkpt>
      <trkpt lat="44.37602" lon="2.23056">
        <ele>380</ele>
        <time>2017-09-17T12:32:12Z</time>
      </trkpt>
      <trkpt lat="44.37595" lon="2.2304">
        <ele>380</ele>
        <time>2017-09-17T12:32:23Z</time>
      </trkpt>
      <trkpt lat="44.37589" lon="2.23027">
        <ele>379</ele>
        <time>2017-09-17T12:33:12Z</time>
      </trkpt>
      <trkpt lat="44.37586" lon="2.23024">
        <ele>379</ele>
        <time>2017-09-17T12:33:20Z</time>
      </trkpt>
      <trkpt lat="44.37581" lon="2.2302">
        <ele>380</ele>
        <time>2017-09-17T12:33:26Z</time>
      </trkpt>
      <trkpt lat="44.37579" lon="2.23018">
        <ele>380</ele>
        <time>2017-09-17T12:33:28Z</time>
      </trkpt>
      <trkpt lat="44.37578" lon="2.23014">
        <ele>379</ele>
        <time>2017-09-17T12:33:30Z</time>
      </trkpt>
      <trkpt lat="44.37575" lon="2.23004">
        <ele>379</ele>
        <time>2017-09-17T12:33:36Z</time>
      </trkpt>
      <trkpt lat="44.37563" lon="2.22969">
        <ele>381</ele>
        <time>2017-09-17T12:33:58Z</time>
      </trkpt>
      <trkpt lat="44.37557" lon="2.22944">
        <ele>381</ele>
        <time>2017-09-17T12:34:12Z</time>
      </trkpt>
      <trkpt lat="44.37556" lon="2.22941">
        <ele>381</ele>
        <time>2017-09-17T12:34:14Z</time>
      </trkpt>
      <trkpt lat="44.37555" lon="2.22939">
        <ele>381</ele>
        <time>2017-09-17T12:34:18Z</time>
      </trkpt>
      <trkpt lat="44.37551" lon="2.22919">
        <ele>381</ele>
        <time>2017-09-17T12:34:30Z</time>
      </trkpt>
      <trkpt lat="44.37551" lon="2.22916">
        <ele>380</ele>
        <time>2017-09-17T12:34:33Z</time>
      </trkpt>
      <trkpt lat="44.37549" lon="2.22909">
        <ele>381</ele>
        <time>2017-09-17T12:34:39Z</time>
      </trkpt>
      <trkpt lat="44.37547" lon="2.229">
        <ele>381</ele>
        <time>2017-09-17T12:34:44Z</time>
      </trkpt>
      <trkpt lat="44.37545" lon="2.22889">
        <ele>381</ele>
        <time>2017-09-17T12:34:51Z</time>
      </trkpt>
      <trkpt lat="44.37539" lon="2.22833">
        <ele>382</ele>
        <time>2017-09-17T12:35:21Z</time>
      </trkpt>
      <trkpt lat="44.37538" lon="2.22825">
        <ele>382</ele>
        <time>2017-09-17T12:35:25Z</time>
      </trkpt>
      <trkpt lat="44.37543" lon="2.22807">
        <ele>382</ele>
        <time>2017-09-17T12:35:35Z</time>
      </trkpt>
      <trkpt lat="44.37544" lon="2.22804">
        <ele>381</ele>
        <time>2017-09-17T12:35:37Z</time>
      </trkpt>
      <trkpt lat="44.37545" lon="2.22801">
        <ele>381</ele>
        <time>2017-09-17T12:35:39Z</time>
      </trkpt>
      <trkpt lat="44.37548" lon="2.22792">
        <ele>381</ele>
        <time>2017-09-17T12:35:45Z</time>
      </trkpt>
      <trkpt lat="44.37549" lon="2.22785">
        <ele>381</ele>
        <time>2017-09-17T12:35:49Z</time>
      </trkpt>
      <trkpt lat="44.37551" lon="2.22783">
        <ele>381</ele>
        <time>2017-09-17T12:35:51Z</time>
      </trkpt>
      <trkpt lat="44.37554" lon="2.22769">
        <ele>381</ele>
        <time>2017-09-17T12:35:59Z</time>
      </trkpt>
      <trkpt lat="44.37558" lon="2.22756">
        <ele>381</ele>
        <time>2017-09-17T12:36:07Z</time>
      </trkpt>
      <trkpt lat="44.37569" lon="2.2274">
        <ele>380</ele>
        <time>2017-09-17T12:36:21Z</time>
      </trkpt>
      <trkpt lat="44.37572" lon="2.22735">
        <ele>380</ele>
        <time>2017-09-17T12:36:26Z</time>
      </trkpt>
      <trkpt lat="44.37573" lon="2.22732">
        <ele>380</ele>
        <time>2017-09-17T12:36:28Z</time>
      </trkpt>
      <trkpt lat="44.37574" lon="2.22722">
        <ele>379</ele>
        <time>2017-09-17T12:36:34Z</time>
      </trkpt>
      <trkpt lat="44.37576" lon="2.22717">
        <ele>379</ele>
        <time>2017-09-17T12:36:38Z</time>
      </trkpt>
      <trkpt lat="44.37576" lon="2.22713">
        <ele>379</ele>
        <time>2017-09-17T12:36:41Z</time>
      </trkpt>
      <trkpt lat="44.37575" lon="2.22704">
        <ele>379</ele>
        <time>2017-09-17T12:36:47Z</time>
      </trkpt>
      <trkpt lat="44.37573" lon="2.22697">
        <ele>379</ele>
        <time>2017-09-17T12:36:51Z</time>
      </trkpt>
      <trkpt lat="44.37571" lon="2.22687">
        <ele>379</ele>
        <time>2017-09-17T12:36:57Z</time>
      </trkpt>
      <trkpt lat="44.37571" lon="2.2268">
        <ele>378</ele>
        <time>2017-09-17T12:37:01Z</time>
      </trkpt>
      <trkpt lat="44.37572" lon="2.22676">
        <ele>378</ele>
        <time>2017-09-17T12:37:04Z</time>
      </trkpt>
      <trkpt lat="44.37573" lon="2.22673">
        <ele>378</ele>
        <time>2017-09-17T12:37:06Z</time>
      </trkpt>
      <trkpt lat="44.37574" lon="2.2267">
        <ele>378</ele>
        <time>2017-09-17T12:37:09Z</time>
      </trkpt>
      <trkpt lat="44.37575" lon="2.22661">
        <ele>377</ele>
        <time>2017-09-17T12:37:16Z</time>
      </trkpt>
      <trkpt lat="44.37576" lon="2.22652">
        <ele>378</ele>
        <time>2017-09-17T12:37:22Z</time>
      </trkpt>
      <trkpt lat="44.37577" lon="2.22629">
        <ele>378</ele>
        <time>2017-09-17T12:37:36Z</time>
      </trkpt>
      <trkpt lat="44.37578" lon="2.22625">
        <ele>378</ele>
        <time>2017-09-17T12:37:38Z</time>
      </trkpt>
      <trkpt lat="44.37578" lon="2.22616">
        <ele>379</ele>
        <time>2017-09-17T12:37:42Z</time>
      </trkpt>
      <trkpt lat="44.3758" lon="2.2261">
        <ele>379</ele>
        <time>2017-09-17T12:37:46Z</time>
      </trkpt>
      <trkpt lat="44.37582" lon="2.22607">
        <ele>379</ele>
        <time>2017-09-17T12:37:48Z</time>
      </trkpt>
      <trkpt lat="44.37589" lon="2.22586">
        <ele>382</ele>
        <time>2017-09-17T12:38:01Z</time>
      </trkpt>
      <trkpt lat="44.37593" lon="2.22574">
        <ele>386</ele>
        <time>2017-09-17T12:38:10Z</time>
      </trkpt>
      <trkpt lat="44.37601" lon="2.22554">
        <ele>390</ele>
        <time>2017-09-17T12:38:23Z</time>
      </trkpt>
      <trkpt lat="44.37605" lon="2.22547">
        <ele>391</ele>
        <time>2017-09-17T12:38:28Z</time>
      </trkpt>
      <trkpt lat="44.37606" lon="2.22543">
        <ele>391</ele>
        <time>2017-09-17T12:38:31Z</time>
      </trkpt>
      <trkpt lat="44.37606" lon="2.22539">
        <ele>391</ele>
        <time>2017-09-17T12:38:34Z</time>
      </trkpt>
      <trkpt lat="44.37606" lon="2.22535">
        <ele>392</ele>
        <time>2017-09-17T12:38:37Z</time>
      </trkpt>
      <trkpt lat="44.37607" lon="2.22531">
        <ele>392</ele>
        <time>2017-09-17T12:38:40Z</time>
      </trkpt>
      <trkpt lat="44.37613" lon="2.2252">
        <ele>393</ele>
        <time>2017-09-17T12:38:54Z</time>
      </trkpt>
      <trkpt lat="44.37614" lon="2.22517">
        <ele>393</ele>
        <time>2017-09-17T12:39:45Z</time>
      </trkpt>
      <trkpt lat="44.37613" lon="2.22512">
        <ele>393</ele>
        <time>2017-09-17T12:39:48Z</time>
      </trkpt>
      <trkpt lat="44.37613" lon="2.22506">
        <ele>393</ele>
        <time>2017-09-17T12:39:54Z</time>
      </trkpt>
      <trkpt lat="44.37607" lon="2.22498">
        <ele>400</ele>
        <time>2017-09-17T12:40:03Z</time>
      </trkpt>
      <trkpt lat="44.37604" lon="2.22492">
        <ele>400</ele>
        <time>2017-09-17T12:40:08Z</time>
      </trkpt>
      <trkpt lat="44.37601" lon="2.22487">
        <ele>400</ele>
        <time>2017-09-17T12:40:11Z</time>
      </trkpt>
      <trkpt lat="44.37599" lon="2.22481">
        <ele>401</ele>
        <time>2017-09-17T12:40:15Z</time>
      </trkpt>
      <trkpt lat="44.37597" lon="2.22475">
        <ele>402</ele>
        <time>2017-09-17T12:40:18Z</time>
      </trkpt>
      <trkpt lat="44.37593" lon="2.22468">
        <ele>403</ele>
        <time>2017-09-17T12:40:27Z</time>
      </trkpt>
      <trkpt lat="44.37591" lon="2.2246">
        <ele>405</ele>
        <time>2017-09-17T12:40:32Z</time>
      </trkpt>
      <trkpt lat="44.37589" lon="2.22453">
        <ele>406</ele>
        <time>2017-09-17T12:40:38Z</time>
      </trkpt>
      <trkpt lat="44.37579" lon="2.22439">
        <ele>402</ele>
        <time>2017-09-17T12:40:48Z</time>
      </trkpt>
      <trkpt lat="44.37576" lon="2.22435">
        <ele>404</ele>
        <time>2017-09-17T12:40:52Z</time>
      </trkpt>
      <trkpt lat="44.37572" lon="2.22431">
        <ele>404</ele>
        <time>2017-09-17T12:40:57Z</time>
      </trkpt>
      <trkpt lat="44.37569" lon="2.22426">
        <ele>404</ele>
        <time>2017-09-17T12:41:01Z</time>
      </trkpt>
      <trkpt lat="44.37552" lon="2.22405">
        <ele>413</ele>
        <time>2017-09-17T12:41:22Z</time>
      </trkpt>
      <trkpt lat="44.37547" lon="2.224">
        <ele>413</ele>
        <time>2017-09-17T12:41:28Z</time>
      </trkpt>
      <trkpt lat="44.37536" lon="2.22389">
        <ele>413</ele>
        <time>2017-09-17T12:41:37Z</time>
      </trkpt>
      <trkpt lat="44.37531" lon="2.22388">
        <ele>413</ele>
        <time>2017-09-17T12:41:43Z</time>
      </trkpt>
      <trkpt lat="44.37526" lon="2.22388">
        <ele>412</ele>
        <time>2017-09-17T12:41:47Z</time>
      </trkpt>
      <trkpt lat="44.37513" lon="2.22363">
        <ele>415</ele>
        <time>2017-09-17T12:42:11Z</time>
      </trkpt>
      <trkpt lat="44.37507" lon="2.22355">
        <ele>416</ele>
        <time>2017-09-17T12:42:19Z</time>
      </trkpt>
      <trkpt lat="44.37503" lon="2.22351">
        <ele>417</ele>
        <time>2017-09-17T12:42:39Z</time>
      </trkpt>
      <trkpt lat="44.37499" lon="2.22347">
        <ele>413</ele>
        <time>2017-09-17T12:43:07Z</time>
      </trkpt>
      <trkpt lat="44.37493" lon="2.2234">
        <ele>415</ele>
        <time>2017-09-17T12:43:23Z</time>
      </trkpt>
      <trkpt lat="44.37488" lon="2.22337">
        <ele>414</ele>
        <time>2017-09-17T12:43:26Z</time>
      </trkpt>
      <trkpt lat="44.37482" lon="2.22333">
        <ele>420</ele>
        <time>2017-09-17T12:43:30Z</time>
      </trkpt>
      <trkpt lat="44.37477" lon="2.22326">
        <ele>420</ele>
        <time>2017-09-17T12:43:39Z</time>
      </trkpt>
      <trkpt lat="44.37472" lon="2.22321">
        <ele>420</ele>
        <time>2017-09-17T12:43:42Z</time>
      </trkpt>
      <trkpt lat="44.37467" lon="2.22313">
        <ele>420</ele>
        <time>2017-09-17T12:43:48Z</time>
      </trkpt>
      <trkpt lat="44.37463" lon="2.22309">
        <ele>420</ele>
        <time>2017-09-17T12:43:52Z</time>
      </trkpt>
      <trkpt lat="44.37458" lon="2.22308">
        <ele>419</ele>
        <time>2017-09-17T12:44:17Z</time>
      </trkpt>
      <trkpt lat="44.37445" lon="2.22299">
        <ele>419</ele>
        <time>2017-09-17T12:44:36Z</time>
      </trkpt>
      <trkpt lat="44.37429" lon="2.2229">
        <ele>420</ele>
        <time>2017-09-17T12:44:50Z</time>
      </trkpt>
      <trkpt lat="44.37422" lon="2.22286">
        <ele>420</ele>
        <time>2017-09-17T12:44:56Z</time>
      </trkpt>
      <trkpt lat="44.37413" lon="2.22286">
        <ele>417</ele>
        <time>2017-09-17T12:45:03Z</time>
      </trkpt>
      <trkpt lat="44.37404" lon="2.22283">
        <ele>417</ele>
        <time>2017-09-17T12:45:14Z</time>
      </trkpt>
      <trkpt lat="44.37401" lon="2.22279">
        <ele>418</ele>
        <time>2017-09-17T12:45:18Z</time>
      </trkpt>
      <trkpt lat="44.37389" lon="2.22268">
        <ele>419</ele>
        <time>2017-09-17T12:45:31Z</time>
      </trkpt>
      <trkpt lat="44.37386" lon="2.22265">
        <ele>419</ele>
        <time>2017-09-17T12:45:33Z</time>
      </trkpt>
      <trkpt lat="44.37385" lon="2.22261">
        <ele>419</ele>
        <time>2017-09-17T12:45:39Z</time>
      </trkpt>
      <trkpt lat="44.37386" lon="2.22258">
        <ele>420</ele>
        <time>2017-09-17T12:45:42Z</time>
      </trkpt>
      <trkpt lat="44.37384" lon="2.22255">
        <ele>420</ele>
        <time>2017-09-17T12:45:44Z</time>
      </trkpt>
      <trkpt lat="44.37382" lon="2.22252">
        <ele>420</ele>
        <time>2017-09-17T12:45:51Z</time>
      </trkpt>
      <trkpt lat="44.37381" lon="2.22251">
        <ele>420</ele>
        <time>2017-09-17T12:46:07Z</time>
      </trkpt>
      <trkpt lat="44.3738" lon="2.2225">
        <ele>427</ele>
        <time>2017-09-17T12:47:35Z</time>
      </trkpt>
      <trkpt lat="44.37377" lon="2.2225">
        <ele>427</ele>
        <time>2017-09-17T12:47:37Z</time>
      </trkpt>
      <trkpt lat="44.37375" lon="2.22251">
        <ele>420</ele>
        <time>2017-09-17T12:47:39Z</time>
      </trkpt>
      <trkpt lat="44.37374" lon="2.22251">
        <ele>420</ele>
        <time>2017-09-17T12:47:41Z</time>
      </trkpt>
      <trkpt lat="44.37365" lon="2.22249">
        <ele>428</ele>
        <time>2017-09-17T12:47:51Z</time>
      </trkpt>
      <trkpt lat="44.37358" lon="2.22243">
        <ele>428</ele>
        <time>2017-09-17T12:47:55Z</time>
      </trkpt>
      <trkpt lat="44.37352" lon="2.22241">
        <ele>428</ele>
        <time>2017-09-17T12:47:59Z</time>
      </trkpt>
      <trkpt lat="44.37332" lon="2.22224">
        <ele>430</ele>
        <time>2017-09-17T12:48:16Z</time>
      </trkpt>
      <trkpt lat="44.3733" lon="2.22222">
        <ele>430</ele>
        <time>2017-09-17T12:48:18Z</time>
      </trkpt>
      <trkpt lat="44.3732" lon="2.22214">
        <ele>430</ele>
        <time>2017-09-17T12:48:28Z</time>
      </trkpt>
      <trkpt lat="44.37319" lon="2.22213">
        <ele>430</ele>
        <time>2017-09-17T12:48:30Z</time>
      </trkpt>
      <trkpt lat="44.37318" lon="2.2221">
        <ele>430</ele>
        <time>2017-09-17T12:48:32Z</time>
      </trkpt>
      <trkpt lat="44.3732" lon="2.22208">
        <ele>430</ele>
        <time>2017-09-17T12:49:00Z</time>
      </trkpt>
      <trkpt lat="44.37327" lon="2.22204">
        <ele>430</ele>
        <time>2017-09-17T12:49:07Z</time>
      </trkpt>
      <trkpt lat="44.37329" lon="2.22201">
        <ele>431</ele>
        <time>2017-09-17T12:49:10Z</time>
      </trkpt>
      <trkpt lat="44.37331" lon="2.22198">
        <ele>431</ele>
        <time>2017-09-17T12:49:12Z</time>
      </trkpt>
      <trkpt lat="44.37335" lon="2.22194">
        <ele>429</ele>
        <time>2017-09-17T12:49:16Z</time>
      </trkpt>
      <trkpt lat="44.37339" lon="2.22191">
        <ele>429</ele>
        <time>2017-09-17T12:49:20Z</time>
      </trkpt>
      <trkpt lat="44.37341" lon="2.22188">
        <ele>429</ele>
        <time>2017-09-17T12:49:22Z</time>
      </trkpt>
      <trkpt lat="44.3734" lon="2.22186">
        <ele>429</ele>
        <time>2017-09-17T12:49:30Z</time>
      </trkpt>
      <trkpt lat="44.37338" lon="2.22187">
        <ele>429</ele>
        <time>2017-09-17T12:49:38Z</time>
      </trkpt>
      <trkpt lat="44.37334" lon="2.22192">
        <ele>429</ele>
        <time>2017-09-17T12:49:42Z</time>
      </trkpt>
      <trkpt lat="44.37332" lon="2.22196">
        <ele>431</ele>
        <time>2017-09-17T12:49:44Z</time>
      </trkpt>
      <trkpt lat="44.3733" lon="2.22198">
        <ele>431</ele>
        <time>2017-09-17T12:49:46Z</time>
      </trkpt>
      <trkpt lat="44.37328" lon="2.22197">
        <ele>431</ele>
        <time>2017-09-17T12:49:48Z</time>
      </trkpt>
      <trkpt lat="44.37302" lon="2.22161">
        <ele>432</ele>
        <time>2017-09-17T12:50:16Z</time>
      </trkpt>
      <trkpt lat="44.373" lon="2.22158">
        <ele>432</ele>
        <time>2017-09-17T12:50:18Z</time>
      </trkpt>
      <trkpt lat="44.37299" lon="2.22152">
        <ele>432</ele>
        <time>2017-09-17T12:50:22Z</time>
      </trkpt>
      <trkpt lat="44.37298" lon="2.22144">
        <ele>432</ele>
        <time>2017-09-17T12:50:26Z</time>
      </trkpt>
      <trkpt lat="44.37299" lon="2.22138">
        <ele>432</ele>
        <time>2017-09-17T12:50:30Z</time>
      </trkpt>
      <trkpt lat="44.37302" lon="2.22127">
        <ele>432</ele>
        <time>2017-09-17T12:50:36Z</time>
      </trkpt>
      <trkpt lat="44.37302" lon="2.22124">
        <ele>432</ele>
        <time>2017-09-17T12:50:38Z</time>
      </trkpt>
      <trkpt lat="44.37301" lon="2.22117">
        <ele>432</ele>
        <time>2017-09-17T12:50:42Z</time>
      </trkpt>
      <trkpt lat="44.37299" lon="2.22114">
        <ele>432</ele>
        <time>2017-09-17T12:50:44Z</time>
      </trkpt>
      <trkpt lat="44.373" lon="2.22113">
        <ele>432</ele>
        <time>2017-09-17T12:51:14Z</time>
      </trkpt>
      <trkpt lat="44.37304" lon="2.2212">
        <ele>432</ele>
        <time>2017-09-17T12:51:20Z</time>
      </trkpt>
      <trkpt lat="44.37303" lon="2.22122">
        <ele>432</ele>
        <time>2017-09-17T12:51:34Z</time>
      </trkpt>
      <trkpt lat="44.37302" lon="2.22123">
        <ele>432</ele>
        <time>2017-09-17T12:51:36Z</time>
      </trkpt>
      <trkpt lat="44.37304" lon="2.22125">
        <ele>432</ele>
        <time>2017-09-17T12:52:32Z</time>
      </trkpt>
      <trkpt lat="44.37303" lon="2.22128">
        <ele>432</ele>
        <time>2017-09-17T12:52:41Z</time>
      </trkpt>
      <trkpt lat="44.37301" lon="2.22132">
        <ele>432</ele>
        <time>2017-09-17T12:52:44Z</time>
      </trkpt>
      <trkpt lat="44.37298" lon="2.22143">
        <ele>432</ele>
        <time>2017-09-17T12:52:50Z</time>
      </trkpt>
      <trkpt lat="44.37298" lon="2.2215">
        <ele>432</ele>
        <time>2017-09-17T12:52:54Z</time>
      </trkpt>
      <trkpt lat="44.37299" lon="2.22156">
        <ele>432</ele>
        <time>2017-09-17T12:52:57Z</time>
      </trkpt>
      <trkpt lat="44.37302" lon="2.2216">
        <ele>432</ele>
        <time>2017-09-17T12:53:00Z</time>
      </trkpt>
      <trkpt lat="44.37326" lon="2.22196">
        <ele>431</ele>
        <time>2017-09-17T12:53:38Z</time>
      </trkpt>
      <trkpt lat="44.3733" lon="2.22198">
        <ele>431</ele>
        <time>2017-09-17T12:53:42Z</time>
      </trkpt>
      <trkpt lat="44.37333" lon="2.22198">
        <ele>431</ele>
        <time>2017-09-17T12:53:44Z</time>
      </trkpt>
      <trkpt lat="44.37337" lon="2.22194">
        <ele>429</ele>
        <time>2017-09-17T12:53:48Z</time>
      </trkpt>
      <trkpt lat="44.37343" lon="2.22179">
        <ele>430</ele>
        <time>2017-09-17T12:53:58Z</time>
      </trkpt>
      <trkpt lat="44.37347" lon="2.22177">
        <ele>430</ele>
        <time>2017-09-17T12:54:01Z</time>
      </trkpt>
      <trkpt lat="44.37352" lon="2.22168">
        <ele>429</ele>
        <time>2017-09-17T12:54:07Z</time>
      </trkpt>
      <trkpt lat="44.37358" lon="2.22161">
        <ele>429</ele>
        <time>2017-09-17T12:54:13Z</time>
      </trkpt>
      <trkpt lat="44.37362" lon="2.22155">
        <ele>429</ele>
        <time>2017-09-17T12:54:18Z</time>
      </trkpt>
      <trkpt lat="44.37364" lon="2.22152">
        <ele>429</ele>
        <time>2017-09-17T12:54:20Z</time>
      </trkpt>
      <trkpt lat="44.37366" lon="2.2215">
        <ele>429</ele>
        <time>2017-09-17T12:54:22Z</time>
      </trkpt>
      <trkpt lat="44.37366" lon="2.22147">
        <ele>429</ele>
        <time>2017-09-17T12:55:10Z</time>
      </trkpt>
      <trkpt lat="44.37366" lon="2.22144">
        <ele>429</ele>
        <time>2017-09-17T12:55:12Z</time>
      </trkpt>
      <trkpt lat="44.37367" lon="2.22141">
        <ele>429</ele>
        <time>2017-09-17T12:55:14Z</time>
      </trkpt>
      <trkpt lat="44.3737" lon="2.22137">
        <ele>428</ele>
        <time>2017-09-17T12:55:19Z</time>
      </trkpt>
      <trkpt lat="44.37377" lon="2.22108">
        <ele>428</ele>
        <time>2017-09-17T12:55:43Z</time>
      </trkpt>
      <trkpt lat="44.37378" lon="2.22104">
        <ele>428</ele>
        <time>2017-09-17T12:55:46Z</time>
      </trkpt>
      <trkpt lat="44.37377" lon="2.22095">
        <ele>428</ele>
        <time>2017-09-17T12:55:51Z</time>
      </trkpt>
      <trkpt lat="44.37377" lon="2.22091">
        <ele>428</ele>
        <time>2017-09-17T12:55:53Z</time>
      </trkpt>
      <trkpt lat="44.37369" lon="2.22033">
        <ele>426</ele>
        <time>2017-09-17T12:56:24Z</time>
      </trkpt>
      <trkpt lat="44.37367" lon="2.22022">
        <ele>426</ele>
        <time>2017-09-17T12:56:31Z</time>
      </trkpt>
      <trkpt lat="44.3736" lon="2.22004">
        <ele>425</ele>
        <time>2017-09-17T12:56:41Z</time>
      </trkpt>
      <trkpt lat="44.37353" lon="2.21989">
        <ele>425</ele>
        <time>2017-09-17T12:56:50Z</time>
      </trkpt>
      <trkpt lat="44.37348" lon="2.21984">
        <ele>425</ele>
        <time>2017-09-17T12:56:54Z</time>
      </trkpt>
      <trkpt lat="44.37322" lon="2.21945">
        <ele>425</ele>
        <time>2017-09-17T12:57:24Z</time>
      </trkpt>
      <trkpt lat="44.37313" lon="2.21932">
        <ele>425</ele>
        <time>2017-09-17T12:57:33Z</time>
      </trkpt>
      <trkpt lat="44.37309" lon="2.21928">
        <ele>425</ele>
        <time>2017-09-17T12:57:37Z</time>
      </trkpt>
      <trkpt lat="44.37304" lon="2.2192">
        <ele>425</ele>
        <time>2017-09-17T12:57:43Z</time>
      </trkpt>
      <trkpt lat="44.373" lon="2.21911">
        <ele>425</ele>
        <time>2017-09-17T12:57:49Z</time>
      </trkpt>
      <trkpt lat="44.3729" lon="2.21896">
        <ele>425</ele>
        <time>2017-09-17T12:58:00Z</time>
      </trkpt>
      <trkpt lat="44.37287" lon="2.21889">
        <ele>425</ele>
        <time>2017-09-17T12:58:05Z</time>
      </trkpt>
      <trkpt lat="44.37285" lon="2.21886">
        <ele>425</ele>
        <time>2017-09-17T12:58:08Z</time>
      </trkpt>
      <trkpt lat="44.37281" lon="2.21879">
        <ele>425</ele>
        <time>2017-09-17T12:58:14Z</time>
      </trkpt>
      <trkpt lat="44.37279" lon="2.21874">
        <ele>425</ele>
        <time>2017-09-17T12:58:17Z</time>
      </trkpt>
      <trkpt lat="44.37274" lon="2.21865">
        <ele>426</ele>
        <time>2017-09-17T12:58:24Z</time>
      </trkpt>
      <trkpt lat="44.37266" lon="2.21845">
        <ele>426</ele>
        <time>2017-09-17T12:58:37Z</time>
      </trkpt>
      <trkpt lat="44.37264" lon="2.2183">
        <ele>427</ele>
        <time>2017-09-17T12:58:47Z</time>
      </trkpt>
      <trkpt lat="44.37257" lon="2.21815">
        <ele>427</ele>
        <time>2017-09-17T12:58:56Z</time>
      </trkpt>
      <trkpt lat="44.37256" lon="2.21812">
        <ele>427</ele>
        <time>2017-09-17T12:59:04Z</time>
      </trkpt>
      <trkpt lat="44.3726" lon="2.21807">
        <ele>427</ele>
        <time>2017-09-17T12:59:25Z</time>
      </trkpt>
      <trkpt lat="44.37262" lon="2.21805">
        <ele>427</ele>
        <time>2017-09-17T12:59:28Z</time>
      </trkpt>
      <trkpt lat="44.37266" lon="2.21802">
        <ele>427</ele>
        <time>2017-09-17T12:59:32Z</time>
      </trkpt>
      <trkpt lat="44.3727" lon="2.218">
        <ele>427</ele>
        <time>2017-09-17T12:59:38Z</time>
      </trkpt>
      <trkpt lat="44.37274" lon="2.21802">
        <ele>428</ele>
        <time>2017-09-17T12:59:43Z</time>
      </trkpt>
      <trkpt lat="44.37278" lon="2.21801">
        <ele>428</ele>
        <time>2017-09-17T12:59:47Z</time>
      </trkpt>
      <trkpt lat="44.37283" lon="2.21801">
        <ele>428</ele>
        <time>2017-09-17T12:59:53Z</time>
      </trkpt>
      <trkpt lat="44.37296" lon="2.21791">
        <ele>428</ele>
        <time>2017-09-17T13:00:06Z</time>
      </trkpt>
      <trkpt lat="44.37303" lon="2.21775">
        <ele>429</ele>
        <time>2017-09-17T13:00:16Z</time>
      </trkpt>
      <trkpt lat="44.37304" lon="2.21768">
        <ele>430</ele>
        <time>2017-09-17T13:00:24Z</time>
      </trkpt>
      <trkpt lat="44.373" lon="2.21757">
        <ele>430</ele>
        <time>2017-09-17T13:00:34Z</time>
      </trkpt>
      <trkpt lat="44.37298" lon="2.21753">
        <ele>430</ele>
        <time>2017-09-17T13:00:37Z</time>
      </trkpt>
      <trkpt lat="44.37282" lon="2.21733">
        <ele>432</ele>
        <time>2017-09-17T13:00:55Z</time>
      </trkpt>
      <trkpt lat="44.37275" lon="2.21721">
        <ele>432</ele>
        <time>2017-09-17T13:01:01Z</time>
      </trkpt>
      <trkpt lat="44.37272" lon="2.21717">
        <ele>432</ele>
        <time>2017-09-17T13:01:05Z</time>
      </trkpt>
      <trkpt lat="44.37269" lon="2.21712">
        <ele>432</ele>
        <time>2017-09-17T13:01:42Z</time>
      </trkpt>
      <trkpt lat="44.37265" lon="2.21708">
        <ele>432</ele>
        <time>2017-09-17T13:01:47Z</time>
      </trkpt>
      <trkpt lat="44.37264" lon="2.21701">
        <ele>432</ele>
        <time>2017-09-17T13:01:51Z</time>
      </trkpt>
      <trkpt lat="44.37262" lon="2.21695">
        <ele>432</ele>
        <time>2017-09-17T13:01:55Z</time>
      </trkpt>
      <trkpt lat="44.37257" lon="2.2168">
        <ele>432</ele>
        <time>2017-09-17T13:02:04Z</time>
      </trkpt>
      <trkpt lat="44.37256" lon="2.21673">
        <ele>431</ele>
        <time>2017-09-17T13:02:08Z</time>
      </trkpt>
      <trkpt lat="44.37258" lon="2.2166">
        <ele>432</ele>
        <time>2017-09-17T13:02:18Z</time>
      </trkpt>
      <trkpt lat="44.3726" lon="2.21654">
        <ele>432</ele>
        <time>2017-09-17T13:02:23Z</time>
      </trkpt>
      <trkpt lat="44.37277" lon="2.21625">
        <ele>433</ele>
        <time>2017-09-17T13:02:46Z</time>
      </trkpt>
      <trkpt lat="44.37292" lon="2.21619">
        <ele>434</ele>
        <time>2017-09-17T13:03:01Z</time>
      </trkpt>
      <trkpt lat="44.37298" lon="2.21616">
        <ele>434</ele>
        <time>2017-09-17T13:03:06Z</time>
      </trkpt>
      <trkpt lat="44.37303" lon="2.21616">
        <ele>435</ele>
        <time>2017-09-17T13:03:10Z</time>
      </trkpt>
      <trkpt lat="44.37318" lon="2.2162">
        <ele>436</ele>
        <time>2017-09-17T13:03:23Z</time>
      </trkpt>
      <trkpt lat="44.37338" lon="2.21629">
        <ele>446</ele>
        <time>2017-09-17T13:03:39Z</time>
      </trkpt>
      <trkpt lat="44.37349" lon="2.21634">
        <ele>446</ele>
        <time>2017-09-17T13:03:47Z</time>
      </trkpt>
      <trkpt lat="44.37353" lon="2.21635">
        <ele>447</ele>
        <time>2017-09-17T13:03:51Z</time>
      </trkpt>
      <trkpt lat="44.3736" lon="2.21641">
        <ele>447</ele>
        <time>2017-09-17T13:03:57Z</time>
      </trkpt>
      <trkpt lat="44.37365" lon="2.21648">
        <ele>448</ele>
        <time>2017-09-17T13:04:03Z</time>
      </trkpt>
      <trkpt lat="44.3737" lon="2.21655">
        <ele>448</ele>
        <time>2017-09-17T13:04:09Z</time>
      </trkpt>
      <trkpt lat="44.37371" lon="2.21657">
        <ele>448</ele>
        <time>2017-09-17T13:04:11Z</time>
      </trkpt>
      <trkpt lat="44.37378" lon="2.21668">
        <ele>448</ele>
        <time>2017-09-17T13:04:19Z</time>
      </trkpt>
      <trkpt lat="44.37384" lon="2.21674">
        <ele>449</ele>
        <time>2017-09-17T13:04:25Z</time>
      </trkpt>
      <trkpt lat="44.37386" lon="2.21678">
        <ele>449</ele>
        <time>2017-09-17T13:04:28Z</time>
      </trkpt>
      <trkpt lat="44.37397" lon="2.21695">
        <ele>449</ele>
        <time>2017-09-17T13:04:43Z</time>
      </trkpt>
      <trkpt lat="44.37401" lon="2.21702">
        <ele>449</ele>
        <time>2017-09-17T13:04:48Z</time>
      </trkpt>
      <trkpt lat="44.37427" lon="2.21726">
        <ele>453</ele>
        <time>2017-09-17T13:05:11Z</time>
      </trkpt>
      <trkpt lat="44.37436" lon="2.21733">
        <ele>453</ele>
        <time>2017-09-17T13:05:20Z</time>
      </trkpt>
      <trkpt lat="44.3744" lon="2.21737">
        <ele>453</ele>
        <time>2017-09-17T13:05:24Z</time>
      </trkpt>
      <trkpt lat="44.37459" lon="2.21751">
        <ele>453</ele>
        <time>2017-09-17T13:05:40Z</time>
      </trkpt>
      <trkpt lat="44.37464" lon="2.21753">
        <ele>453</ele>
        <time>2017-09-17T13:05:44Z</time>
      </trkpt>
      <trkpt lat="44.37475" lon="2.21763">
        <ele>454</ele>
        <time>2017-09-17T13:05:57Z</time>
      </trkpt>
      <trkpt lat="44.37489" lon="2.2177">
        <ele>454</ele>
        <time>2017-09-17T13:06:36Z</time>
      </trkpt>
      <trkpt lat="44.37493" lon="2.21775">
        <ele>454</ele>
        <time>2017-09-17T13:06:41Z</time>
      </trkpt>
      <trkpt lat="44.37501" lon="2.21778">
        <ele>460</ele>
        <time>2017-09-17T13:06:47Z</time>
      </trkpt>
      <trkpt lat="44.37516" lon="2.21788">
        <ele>460</ele>
        <time>2017-09-17T13:07:01Z</time>
      </trkpt>
      <trkpt lat="44.3752" lon="2.21789">
        <ele>460</ele>
        <time>2017-09-17T13:07:04Z</time>
      </trkpt>
      <trkpt lat="44.37527" lon="2.21792">
        <ele>460</ele>
        <time>2017-09-17T13:07:09Z</time>
      </trkpt>
      <trkpt lat="44.3753" lon="2.21793">
        <ele>461</ele>
        <time>2017-09-17T13:07:12Z</time>
      </trkpt>
      <trkpt lat="44.37556" lon="2.21806">
        <ele>462</ele>
        <time>2017-09-17T13:07:33Z</time>
      </trkpt>
      <trkpt lat="44.3756" lon="2.21807">
        <ele>462</ele>
        <time>2017-09-17T13:07:36Z</time>
      </trkpt>
      <trkpt lat="44.3757" lon="2.21811">
        <ele>463</ele>
        <time>2017-09-17T13:07:43Z</time>
      </trkpt>
      <trkpt lat="44.37573" lon="2.21814">
        <ele>463</ele>
        <time>2017-09-17T13:07:46Z</time>
      </trkpt>
      <trkpt lat="44.37575" lon="2.21817">
        <ele>464</ele>
        <time>2017-09-17T13:07:49Z</time>
      </trkpt>
      <trkpt lat="44.37579" lon="2.21818">
        <ele>464</ele>
        <time>2017-09-17T13:07:52Z</time>
      </trkpt>
      <trkpt lat="44.37582" lon="2.21818">
        <ele>464</ele>
        <time>2017-09-17T13:07:54Z</time>
      </trkpt>
      <trkpt lat="44.37584" lon="2.21819">
        <ele>466</ele>
        <time>2017-09-17T13:07:57Z</time>
      </trkpt>
      <trkpt lat="44.37584" lon="2.21822">
        <ele>466</ele>
        <time>2017-09-17T13:08:03Z</time>
      </trkpt>
      <trkpt lat="44.37583" lon="2.21824">
        <ele>466</ele>
        <time>2017-09-17T13:09:01Z</time>
      </trkpt>
      <trkpt lat="44.37584" lon="2.21827">
        <ele>467</ele>
        <time>2017-09-17T13:09:03Z</time>
      </trkpt>
      <trkpt lat="44.37587" lon="2.21833">
        <ele>467</ele>
        <time>2017-09-17T13:09:07Z</time>
      </trkpt>
      <trkpt lat="44.37593" lon="2.21837">
        <ele>468</ele>
        <time>2017-09-17T13:09:12Z</time>
      </trkpt>
      <trkpt lat="44.37601" lon="2.21844">
        <ele>468</ele>
        <time>2017-09-17T13:09:19Z</time>
      </trkpt>
      <trkpt lat="44.37635" lon="2.21858">
        <ele>470</ele>
        <time>2017-09-17T13:09:47Z</time>
      </trkpt>
      <trkpt lat="44.37637" lon="2.21859">
        <ele>470</ele>
        <time>2017-09-17T13:09:49Z</time>
      </trkpt>
      <trkpt lat="44.37639" lon="2.21861">
        <ele>470</ele>
        <time>2017-09-17T13:09:51Z</time>
      </trkpt>
      <trkpt lat="44.37641" lon="2.21874">
        <ele>470</ele>
        <time>2017-09-17T13:09:58Z</time>
      </trkpt>
      <trkpt lat="44.37641" lon="2.21882">
        <ele>470</ele>
        <time>2017-09-17T13:10:02Z</time>
      </trkpt>
      <trkpt lat="44.37642" lon="2.21889">
        <ele>471</ele>
        <time>2017-09-17T13:10:06Z</time>
      </trkpt>
      <trkpt lat="44.37642" lon="2.21896">
        <ele>471</ele>
        <time>2017-09-17T13:10:10Z</time>
      </trkpt>
      <trkpt lat="44.37649" lon="2.21924">
        <ele>472</ele>
        <time>2017-09-17T13:10:28Z</time>
      </trkpt>
      <trkpt lat="44.37654" lon="2.21931">
        <ele>473</ele>
        <time>2017-09-17T13:10:34Z</time>
      </trkpt>
      <trkpt lat="44.37658" lon="2.21935">
        <ele>473</ele>
        <time>2017-09-17T13:10:38Z</time>
      </trkpt>
      <trkpt lat="44.3767" lon="2.21957">
        <ele>473</ele>
        <time>2017-09-17T13:10:53Z</time>
      </trkpt>
      <trkpt lat="44.37677" lon="2.21961">
        <ele>473</ele>
        <time>2017-09-17T13:10:59Z</time>
      </trkpt>
      <trkpt lat="44.37679" lon="2.21962">
        <ele>473</ele>
        <time>2017-09-17T13:11:01Z</time>
      </trkpt>
      <trkpt lat="44.37684" lon="2.2196">
        <ele>473</ele>
        <time>2017-09-17T13:11:05Z</time>
      </trkpt>
      <trkpt lat="44.37691" lon="2.21959">
        <ele>473</ele>
        <time>2017-09-17T13:11:11Z</time>
      </trkpt>
      <trkpt lat="44.37701" lon="2.21952">
        <ele>473</ele>
        <time>2017-09-17T13:11:19Z</time>
      </trkpt>
      <trkpt lat="44.37707" lon="2.21944">
        <ele>472</ele>
        <time>2017-09-17T13:11:25Z</time>
      </trkpt>
      <trkpt lat="44.37721" lon="2.2194">
        <ele>472</ele>
        <time>2017-09-17T13:11:36Z</time>
      </trkpt>
      <trkpt lat="44.37756" lon="2.21962">
        <ele>466</ele>
        <time>2017-09-17T13:12:07Z</time>
      </trkpt>
      <trkpt lat="44.37757" lon="2.21963">
        <ele>466</ele>
        <time>2017-09-17T13:12:08Z</time>
      </trkpt>
      <trkpt lat="44.37761" lon="2.21966">
        <ele>466</ele>
        <time>2017-09-17T13:12:12Z</time>
      </trkpt>
      <trkpt lat="44.37764" lon="2.2197">
        <ele>465</ele>
        <time>2017-09-17T13:12:16Z</time>
      </trkpt>
      <trkpt lat="44.37773" lon="2.21981">
        <ele>465</ele>
        <time>2017-09-17T13:12:26Z</time>
      </trkpt>
      <trkpt lat="44.37774" lon="2.21984">
        <ele>465</ele>
        <time>2017-09-17T13:12:28Z</time>
      </trkpt>
      <trkpt lat="44.37793" lon="2.22004">
        <ele>462</ele>
        <time>2017-09-17T13:12:47Z</time>
      </trkpt>
      <trkpt lat="44.37798" lon="2.22007">
        <ele>461</ele>
        <time>2017-09-17T13:12:51Z</time>
      </trkpt>
      <trkpt lat="44.37808" lon="2.22022">
        <ele>461</ele>
        <time>2017-09-17T13:13:02Z</time>
      </trkpt>
      <trkpt lat="44.3781" lon="2.22023">
        <ele>461</ele>
        <time>2017-09-17T13:13:04Z</time>
      </trkpt>
      <trkpt lat="44.37812" lon="2.22024">
        <ele>461</ele>
        <time>2017-09-17T13:13:06Z</time>
      </trkpt>
      <trkpt lat="44.37818" lon="2.22035">
        <ele>460</ele>
        <time>2017-09-17T13:13:14Z</time>
      </trkpt>
      <trkpt lat="44.37832" lon="2.22048">
        <ele>460</ele>
        <time>2017-09-17T13:13:45Z</time>
      </trkpt>
      <trkpt lat="44.37834" lon="2.2205">
        <ele>456</ele>
        <time>2017-09-17T13:13:57Z</time>
      </trkpt>
      <trkpt lat="44.37856" lon="2.22082">
        <ele>455</ele>
        <time>2017-09-17T13:14:29Z</time>
      </trkpt>
      <trkpt lat="44.37879" lon="2.22118">
        <ele>452</ele>
        <time>2017-09-17T13:14:57Z</time>
      </trkpt>
      <trkpt lat="44.37883" lon="2.22123">
        <ele>451</ele>
        <time>2017-09-17T13:15:02Z</time>
      </trkpt>
      <trkpt lat="44.37885" lon="2.22126">
        <ele>451</ele>
        <time>2017-09-17T13:15:05Z</time>
      </trkpt>
      <trkpt lat="44.37893" lon="2.22134">
        <ele>451</ele>
        <time>2017-09-17T13:15:12Z</time>
      </trkpt>
      <trkpt lat="44.37904" lon="2.22151">
        <ele>450</ele>
        <time>2017-09-17T13:15:25Z</time>
      </trkpt>
      <trkpt lat="44.37907" lon="2.22159">
        <ele>449</ele>
        <time>2017-09-17T13:15:30Z</time>
      </trkpt>
      <trkpt lat="44.37908" lon="2.22166">
        <ele>449</ele>
        <time>2017-09-17T13:15:34Z</time>
      </trkpt>
      <trkpt lat="44.37911" lon="2.22203">
        <ele>447</ele>
        <time>2017-09-17T13:15:55Z</time>
      </trkpt>
      <trkpt lat="44.37913" lon="2.22221">
        <ele>446</ele>
        <time>2017-09-17T13:16:05Z</time>
      </trkpt>
      <trkpt lat="44.37915" lon="2.22229">
        <ele>446</ele>
        <time>2017-09-17T13:16:10Z</time>
      </trkpt>
      <trkpt lat="44.37937" lon="2.22266">
        <ele>441</ele>
        <time>2017-09-17T13:16:38Z</time>
      </trkpt>
      <trkpt lat="44.37951" lon="2.22287">
        <ele>441</ele>
        <time>2017-09-17T13:16:54Z</time>
      </trkpt>
      <trkpt lat="44.37959" lon="2.22294">
        <ele>440</ele>
        <time>2017-09-17T13:17:02Z</time>
      </trkpt>
      <trkpt lat="44.37964" lon="2.22296">
        <ele>441</ele>
        <time>2017-09-17T13:17:06Z</time>
      </trkpt>
      <trkpt lat="44.37969" lon="2.22295">
        <ele>441</ele>
        <time>2017-09-17T13:17:10Z</time>
      </trkpt>
      <trkpt lat="44.38" lon="2.22271">
        <ele>441</ele>
        <time>2017-09-17T13:17:40Z</time>
      </trkpt>
      <trkpt lat="44.38023" lon="2.2226">
        <ele>443</ele>
        <time>2017-09-17T13:17:59Z</time>
      </trkpt>
      <trkpt lat="44.38032" lon="2.22257">
        <ele>443</ele>
        <time>2017-09-17T13:18:06Z</time>
      </trkpt>
      <trkpt lat="44.38034" lon="2.22256">
        <ele>443</ele>
        <time>2017-09-17T13:18:08Z</time>
      </trkpt>
      <trkpt lat="44.38042" lon="2.22254">
        <ele>443</ele>
        <time>2017-09-17T13:18:14Z</time>
      </trkpt>
      <trkpt lat="44.38065" lon="2.22241">
        <ele>441</ele>
        <time>2017-09-17T13:18:33Z</time>
      </trkpt>
      <trkpt lat="44.38076" lon="2.22236">
        <ele>442</ele>
        <time>2017-09-17T13:18:41Z</time>
      </trkpt>
      <trkpt lat="44.38094" lon="2.2222">
        <ele>443</ele>
        <time>2017-09-17T13:18:56Z</time>
      </trkpt>
      <trkpt lat="44.38101" lon="2.22211">
        <ele>443</ele>
        <time>2017-09-17T13:19:03Z</time>
      </trkpt>
      <trkpt lat="44.38104" lon="2.22209">
        <ele>443</ele>
        <time>2017-09-17T13:19:05Z</time>
      </trkpt>
      <trkpt lat="44.3812" lon="2.22189">
        <ele>443</ele>
        <time>2017-09-17T13:19:22Z</time>
      </trkpt>
      <trkpt lat="44.38125" lon="2.22183">
        <ele>443</ele>
        <time>2017-09-17T13:19:28Z</time>
      </trkpt>
      <trkpt lat="44.38129" lon="2.2218">
        <ele>443</ele>
        <time>2017-09-17T13:19:31Z</time>
      </trkpt>
      <trkpt lat="44.38135" lon="2.22171">
        <ele>443</ele>
        <time>2017-09-17T13:19:39Z</time>
      </trkpt>
      <trkpt lat="44.38139" lon="2.22168">
        <ele>443</ele>
        <time>2017-09-17T13:19:42Z</time>
      </trkpt>
      <trkpt lat="44.38164" lon="2.22137">
        <ele>440</ele>
        <time>2017-09-17T13:20:07Z</time>
      </trkpt>
      <trkpt lat="44.38171" lon="2.22131">
        <ele>444</ele>
        <time>2017-09-17T13:20:13Z</time>
      </trkpt>
      <trkpt lat="44.38186" lon="2.22115">
        <ele>444</ele>
        <time>2017-09-17T13:20:27Z</time>
      </trkpt>
      <trkpt lat="44.38188" lon="2.22112">
        <ele>444</ele>
        <time>2017-09-17T13:20:30Z</time>
      </trkpt>
      <trkpt lat="44.38197" lon="2.22101">
        <ele>444</ele>
        <time>2017-09-17T13:20:40Z</time>
      </trkpt>
      <trkpt lat="44.382" lon="2.22097">
        <ele>444</ele>
        <time>2017-09-17T13:20:42Z</time>
      </trkpt>
      <trkpt lat="44.38203" lon="2.22094">
        <ele>444</ele>
        <time>2017-09-17T13:20:45Z</time>
      </trkpt>
      <trkpt lat="44.38212" lon="2.2208">
        <ele>440</ele>
        <time>2017-09-17T13:20:56Z</time>
      </trkpt>
      <trkpt lat="44.38219" lon="2.22048">
        <ele>439</ele>
        <time>2017-09-17T13:21:14Z</time>
      </trkpt>
      <trkpt lat="44.38223" lon="2.22019">
        <ele>437</ele>
        <time>2017-09-17T13:21:32Z</time>
      </trkpt>
      <trkpt lat="44.38231" lon="2.21997">
        <ele>434</ele>
        <time>2017-09-17T13:21:46Z</time>
      </trkpt>
      <trkpt lat="44.38233" lon="2.21989">
        <ele>434</ele>
        <time>2017-09-17T13:21:50Z</time>
      </trkpt>
      <trkpt lat="44.38237" lon="2.2198">
        <ele>433</ele>
        <time>2017-09-17T13:21:55Z</time>
      </trkpt>
      <trkpt lat="44.38244" lon="2.21965">
        <ele>433</ele>
        <time>2017-09-17T13:22:05Z</time>
      </trkpt>
      <trkpt lat="44.38251" lon="2.21948">
        <ele>435</ele>
        <time>2017-09-17T13:22:17Z</time>
      </trkpt>
      <trkpt lat="44.38261" lon="2.21926">
        <ele>433</ele>
        <time>2017-09-17T13:22:31Z</time>
      </trkpt>
      <trkpt lat="44.38263" lon="2.21921">
        <ele>433</ele>
        <time>2017-09-17T13:22:34Z</time>
      </trkpt>
      <trkpt lat="44.38265" lon="2.21914">
        <ele>432</ele>
        <time>2017-09-17T13:22:39Z</time>
      </trkpt>
      <trkpt lat="44.38275" lon="2.21884">
        <ele>434</ele>
        <time>2017-09-17T13:22:55Z</time>
      </trkpt>
      <trkpt lat="44.38277" lon="2.21873">
        <ele>434</ele>
        <time>2017-09-17T13:23:01Z</time>
      </trkpt>
      <trkpt lat="44.38278" lon="2.21855">
        <ele>434</ele>
        <time>2017-09-17T13:23:11Z</time>
      </trkpt>
      <trkpt lat="44.38279" lon="2.21851">
        <ele>434</ele>
        <time>2017-09-17T13:23:14Z</time>
      </trkpt>
      <trkpt lat="44.38281" lon="2.21839">
        <ele>434</ele>
        <time>2017-09-17T13:23:21Z</time>
      </trkpt>
      <trkpt lat="44.38281" lon="2.21835">
        <ele>434</ele>
        <time>2017-09-17T13:23:24Z</time>
      </trkpt>
      <trkpt lat="44.38283" lon="2.21794">
        <ele>434</ele>
        <time>2017-09-17T13:23:48Z</time>
      </trkpt>
      <trkpt lat="44.3829" lon="2.21746">
        <ele>432</ele>
        <time>2017-09-17T13:24:15Z</time>
      </trkpt>
      <trkpt lat="44.38291" lon="2.21742">
        <ele>432</ele>
        <time>2017-09-17T13:24:18Z</time>
      </trkpt>
      <trkpt lat="44.38292" lon="2.21738">
        <ele>432</ele>
        <time>2017-09-17T13:24:20Z</time>
      </trkpt>
      <trkpt lat="44.38293" lon="2.21731">
        <ele>432</ele>
        <time>2017-09-17T13:24:24Z</time>
      </trkpt>
      <trkpt lat="44.38302" lon="2.21711">
        <ele>432</ele>
        <time>2017-09-17T13:24:35Z</time>
      </trkpt>
      <trkpt lat="44.38307" lon="2.21706">
        <ele>432</ele>
        <time>2017-09-17T13:24:40Z</time>
      </trkpt>
      <trkpt lat="44.38313" lon="2.21704">
        <ele>432</ele>
        <time>2017-09-17T13:24:45Z</time>
      </trkpt>
      <trkpt lat="44.38318" lon="2.21703">
        <ele>432</ele>
        <time>2017-09-17T13:24:49Z</time>
      </trkpt>
      <trkpt lat="44.38327" lon="2.21703">
        <ele>433</ele>
        <time>2017-09-17T13:24:56Z</time>
      </trkpt>
      <trkpt lat="44.38331" lon="2.21701">
        <ele>433</ele>
        <time>2017-09-17T13:25:01Z</time>
      </trkpt>
      <trkpt lat="44.38341" lon="2.21696">
        <ele>437</ele>
        <time>2017-09-17T13:25:08Z</time>
      </trkpt>
      <trkpt lat="44.38343" lon="2.21694">
        <ele>437</ele>
        <time>2017-09-17T13:25:10Z</time>
      </trkpt>
      <trkpt lat="44.38348" lon="2.21689">
        <ele>436</ele>
        <time>2017-09-17T13:25:16Z</time>
      </trkpt>
      <trkpt lat="44.38354" lon="2.21679">
        <ele>436</ele>
        <time>2017-09-17T13:25:24Z</time>
      </trkpt>
      <trkpt lat="44.38357" lon="2.21662">
        <ele>435</ele>
        <time>2017-09-17T13:25:34Z</time>
      </trkpt>
      <trkpt lat="44.38358" lon="2.21636">
        <ele>435</ele>
        <time>2017-09-17T13:25:48Z</time>
      </trkpt>
      <trkpt lat="44.38361" lon="2.21612">
        <ele>434</ele>
        <time>2017-09-17T13:26:01Z</time>
      </trkpt>
      <trkpt lat="44.38378" lon="2.2156">
        <ele>432</ele>
        <time>2017-09-17T13:26:32Z</time>
      </trkpt>
      <trkpt lat="44.38381" lon="2.21552">
        <ele>432</ele>
        <time>2017-09-17T13:26:36Z</time>
      </trkpt>
      <trkpt lat="44.38392" lon="2.21521">
        <ele>432</ele>
        <time>2017-09-17T13:26:57Z</time>
      </trkpt>
      <trkpt lat="44.38394" lon="2.21513">
        <ele>432</ele>
        <time>2017-09-17T13:27:03Z</time>
      </trkpt>
      <trkpt lat="44.38406" lon="2.21467">
        <ele>429</ele>
        <time>2017-09-17T13:27:33Z</time>
      </trkpt>
      <trkpt lat="44.38407" lon="2.21463">
        <ele>428</ele>
        <time>2017-09-17T13:27:35Z</time>
      </trkpt>
      <trkpt lat="44.38415" lon="2.21435">
        <ele>427</ele>
        <time>2017-09-17T13:27:52Z</time>
      </trkpt>
      <trkpt lat="44.38416" lon="2.2143">
        <ele>427</ele>
        <time>2017-09-17T13:27:55Z</time>
      </trkpt>
      <trkpt lat="44.3843" lon="2.21379">
        <ele>429</ele>
        <time>2017-09-17T13:28:26Z</time>
      </trkpt>
      <trkpt lat="44.38444" lon="2.21328">
        <ele>424</ele>
        <time>2017-09-17T13:28:57Z</time>
      </trkpt>
      <trkpt lat="44.3845" lon="2.213">
        <ele>425</ele>
        <time>2017-09-17T13:29:13Z</time>
      </trkpt>
      <trkpt lat="44.38451" lon="2.21293">
        <ele>425</ele>
        <time>2017-09-17T13:29:18Z</time>
      </trkpt>
      <trkpt lat="44.38454" lon="2.21282">
        <ele>425</ele>
        <time>2017-09-17T13:29:25Z</time>
      </trkpt>
      <trkpt lat="44.38455" lon="2.21278">
        <ele>425</ele>
        <time>2017-09-17T13:29:27Z</time>
      </trkpt>
      <trkpt lat="44.38456" lon="2.21274">
        <ele>425</ele>
        <time>2017-09-17T13:29:30Z</time>
      </trkpt>
      <trkpt lat="44.38458" lon="2.2127">
        <ele>425</ele>
        <time>2017-09-17T13:29:33Z</time>
      </trkpt>
      <trkpt lat="44.38459" lon="2.21265">
        <ele>425</ele>
        <time>2017-09-17T13:29:36Z</time>
      </trkpt>
      <trkpt lat="44.3846" lon="2.21259">
        <ele>425</ele>
        <time>2017-09-17T13:29:40Z</time>
      </trkpt>
      <trkpt lat="44.38461" lon="2.21254">
        <ele>425</ele>
        <time>2017-09-17T13:29:43Z</time>
      </trkpt>
      <trkpt lat="44.38462" lon="2.21249">
        <ele>425</ele>
        <time>2017-09-17T13:29:47Z</time>
      </trkpt>
      <trkpt lat="44.38463" lon="2.21245">
        <ele>425</ele>
        <time>2017-09-17T13:29:49Z</time>
      </trkpt>
      <trkpt lat="44.38466" lon="2.21237">
        <ele>425</ele>
        <time>2017-09-17T13:29:54Z</time>
      </trkpt>
      <trkpt lat="44.38468" lon="2.21225">
        <ele>425</ele>
        <time>2017-09-17T13:30:00Z</time>
      </trkpt>
      <trkpt lat="44.38469" lon="2.21217">
        <ele>426</ele>
        <time>2017-09-17T13:30:04Z</time>
      </trkpt>
      <trkpt lat="44.3847" lon="2.21213">
        <ele>426</ele>
        <time>2017-09-17T13:30:07Z</time>
      </trkpt>
      <trkpt lat="44.3847" lon="2.21207">
        <ele>426</ele>
        <time>2017-09-17T13:30:10Z</time>
      </trkpt>
      <trkpt lat="44.38468" lon="2.21188">
        <ele>426</ele>
        <time>2017-09-17T13:30:20Z</time>
      </trkpt>
      <trkpt lat="44.38467" lon="2.21185">
        <ele>426</ele>
        <time>2017-09-17T13:30:22Z</time>
      </trkpt>
      <trkpt lat="44.38466" lon="2.21181">
        <ele>426</ele>
        <time>2017-09-17T13:30:25Z</time>
      </trkpt>
      <trkpt lat="44.38463" lon="2.21173">
        <ele>426</ele>
        <time>2017-09-17T13:30:30Z</time>
      </trkpt>
      <trkpt lat="44.38462" lon="2.21169">
        <ele>426</ele>
        <time>2017-09-17T13:30:33Z</time>
      </trkpt>
      <trkpt lat="44.38457" lon="2.21162">
        <ele>428</ele>
        <time>2017-09-17T13:30:38Z</time>
      </trkpt>
      <trkpt lat="44.38454" lon="2.2116">
        <ele>428</ele>
        <time>2017-09-17T13:30:41Z</time>
      </trkpt>
      <trkpt lat="44.38451" lon="2.21159">
        <ele>428</ele>
        <time>2017-09-17T13:30:44Z</time>
      </trkpt>
      <trkpt lat="44.38441" lon="2.21158">
        <ele>427</ele>
        <time>2017-09-17T13:30:52Z</time>
      </trkpt>
      <trkpt lat="44.38431" lon="2.21156">
        <ele>427</ele>
        <time>2017-09-17T13:31:00Z</time>
      </trkpt>
      <trkpt lat="44.3841" lon="2.21157">
        <ele>426</ele>
        <time>2017-09-17T13:31:20Z</time>
      </trkpt>
      <trkpt lat="44.38398" lon="2.21153">
        <ele>426</ele>
        <time>2017-09-17T13:31:31Z</time>
      </trkpt>
      <trkpt lat="44.38395" lon="2.21151">
        <ele>426</ele>
        <time>2017-09-17T13:31:34Z</time>
      </trkpt>
      <trkpt lat="44.38392" lon="2.21147">
        <ele>426</ele>
        <time>2017-09-17T13:31:38Z</time>
      </trkpt>
      <trkpt lat="44.38389" lon="2.21142">
        <ele>426</ele>
        <time>2017-09-17T13:31:42Z</time>
      </trkpt>
      <trkpt lat="44.38387" lon="2.21138">
        <ele>426</ele>
        <time>2017-09-17T13:31:45Z</time>
      </trkpt>
      <trkpt lat="44.38386" lon="2.21131">
        <ele>426</ele>
        <time>2017-09-17T13:31:49Z</time>
      </trkpt>
      <trkpt lat="44.38387" lon="2.21125">
        <ele>426</ele>
        <time>2017-09-17T13:31:52Z</time>
      </trkpt>
      <trkpt lat="44.38392" lon="2.21116">
        <ele>427</ele>
        <time>2017-09-17T13:31:58Z</time>
      </trkpt>
      <trkpt lat="44.38393" lon="2.21112">
        <ele>427</ele>
        <time>2017-09-17T13:32:01Z</time>
      </trkpt>
      <trkpt lat="44.38395" lon="2.21109">
        <ele>427</ele>
        <time>2017-09-17T13:32:03Z</time>
      </trkpt>
      <trkpt lat="44.38401" lon="2.21104">
        <ele>427</ele>
        <time>2017-09-17T13:32:09Z</time>
      </trkpt>
      <trkpt lat="44.38404" lon="2.21101">
        <ele>428</ele>
        <time>2017-09-17T13:32:12Z</time>
      </trkpt>
      <trkpt lat="44.38406" lon="2.21098">
        <ele>428</ele>
        <time>2017-09-17T13:32:15Z</time>
      </trkpt>
      <trkpt lat="44.38433" lon="2.21071">
        <ele>431</ele>
        <time>2017-09-17T13:32:48Z</time>
      </trkpt>
      <trkpt lat="44.38438" lon="2.21064">
        <ele>431</ele>
        <time>2017-09-17T13:32:53Z</time>
      </trkpt>
      <trkpt lat="44.38441" lon="2.21061">
        <ele>431</ele>
        <time>2017-09-17T13:32:56Z</time>
      </trkpt>
      <trkpt lat="44.3845" lon="2.2105">
        <ele>431</ele>
        <time>2017-09-17T13:33:07Z</time>
      </trkpt>
      <trkpt lat="44.38454" lon="2.21046">
        <ele>431</ele>
        <time>2017-09-17T13:33:10Z</time>
      </trkpt>
      <trkpt lat="44.38457" lon="2.21043">
        <ele>431</ele>
        <time>2017-09-17T13:33:13Z</time>
      </trkpt>
      <trkpt lat="44.38459" lon="2.21038">
        <ele>431</ele>
        <time>2017-09-17T13:33:16Z</time>
      </trkpt>
      <trkpt lat="44.38461" lon="2.21034">
        <ele>431</ele>
        <time>2017-09-17T13:33:19Z</time>
      </trkpt>
      <trkpt lat="44.38471" lon="2.21019">
        <ele>432</ele>
        <time>2017-09-17T13:33:30Z</time>
      </trkpt>
      <trkpt lat="44.38487" lon="2.20992">
        <ele>435</ele>
        <time>2017-09-17T13:33:52Z</time>
      </trkpt>
      <trkpt lat="44.38494" lon="2.20977">
        <ele>435</ele>
        <time>2017-09-17T13:34:02Z</time>
      </trkpt>
      <trkpt lat="44.38499" lon="2.20968">
        <ele>435</ele>
        <time>2017-09-17T13:34:09Z</time>
      </trkpt>
      <trkpt lat="44.3852" lon="2.20935">
        <ele>440</ele>
        <time>2017-09-17T13:34:36Z</time>
      </trkpt>
      <trkpt lat="44.38522" lon="2.20932">
        <ele>440</ele>
        <time>2017-09-17T13:34:39Z</time>
      </trkpt>
      <trkpt lat="44.38532" lon="2.20916">
        <ele>444</ele>
        <time>2017-09-17T13:34:51Z</time>
      </trkpt>
      <trkpt lat="44.38536" lon="2.20909">
        <ele>444</ele>
        <time>2017-09-17T13:34:56Z</time>
      </trkpt>
      <trkpt lat="44.3854" lon="2.20902">
        <ele>445</ele>
        <time>2017-09-17T13:35:02Z</time>
      </trkpt>
      <trkpt lat="44.38542" lon="2.20898">
        <ele>445</ele>
        <time>2017-09-17T13:35:05Z</time>
      </trkpt>
      <trkpt lat="44.38544" lon="2.20894">
        <ele>445</ele>
        <time>2017-09-17T13:35:08Z</time>
      </trkpt>
      <trkpt lat="44.38559" lon="2.20874">
        <ele>446</ele>
        <time>2017-09-17T13:35:26Z</time>
      </trkpt>
      <trkpt lat="44.38561" lon="2.2087">
        <ele>446</ele>
        <time>2017-09-17T13:35:31Z</time>
      </trkpt>
      <trkpt lat="44.38562" lon="2.20866">
        <ele>447</ele>
        <time>2017-09-17T13:35:34Z</time>
      </trkpt>
      <trkpt lat="44.38564" lon="2.20864">
        <ele>447</ele>
        <time>2017-09-17T13:35:36Z</time>
      </trkpt>
      <trkpt lat="44.38571" lon="2.20854">
        <ele>448</ele>
        <time>2017-09-17T13:35:45Z</time>
      </trkpt>
      <trkpt lat="44.38572" lon="2.20851">
        <ele>448</ele>
        <time>2017-09-17T13:35:47Z</time>
      </trkpt>
      <trkpt lat="44.38588" lon="2.20829">
        <ele>453</ele>
        <time>2017-09-17T13:36:07Z</time>
      </trkpt>
      <trkpt lat="44.38591" lon="2.20825">
        <ele>454</ele>
        <time>2017-09-17T13:36:10Z</time>
      </trkpt>
      <trkpt lat="44.38596" lon="2.20817">
        <ele>455</ele>
        <time>2017-09-17T13:36:17Z</time>
      </trkpt>
      <trkpt lat="44.38618" lon="2.20782">
        <ele>457</ele>
        <time>2017-09-17T13:36:46Z</time>
      </trkpt>
      <trkpt lat="44.38624" lon="2.20776">
        <ele>458</ele>
        <time>2017-09-17T13:36:52Z</time>
      </trkpt>
      <trkpt lat="44.38648" lon="2.20743">
        <ele>463</ele>
        <time>2017-09-17T13:37:22Z</time>
      </trkpt>
      <trkpt lat="44.38665" lon="2.20723">
        <ele>464</ele>
        <time>2017-09-17T13:37:41Z</time>
      </trkpt>
      <trkpt lat="44.38668" lon="2.2072">
        <ele>467</ele>
        <time>2017-09-17T13:37:44Z</time>
      </trkpt>
      <trkpt lat="44.38673" lon="2.20713">
        <ele>467</ele>
        <time>2017-09-17T13:37:50Z</time>
      </trkpt>
      <trkpt lat="44.38676" lon="2.20711">
        <ele>467</ele>
        <time>2017-09-17T13:37:53Z</time>
      </trkpt>
      <trkpt lat="44.38693" lon="2.20691">
        <ele>469</ele>
        <time>2017-09-17T13:38:14Z</time>
      </trkpt>
      <trkpt lat="44.38705" lon="2.20674">
        <ele>469</ele>
        <time>2017-09-17T13:38:29Z</time>
      </trkpt>
      <trkpt lat="44.38727" lon="2.20646">
        <ele>476</ele>
        <time>2017-09-17T13:38:56Z</time>
      </trkpt>
      <trkpt lat="44.38751" lon="2.20612">
        <ele>482</ele>
        <time>2017-09-17T13:39:25Z</time>
      </trkpt>
      <trkpt lat="44.38752" lon="2.20611">
        <ele>482</ele>
        <time>2017-09-17T13:39:27Z</time>
      </trkpt>
      <trkpt lat="44.38754" lon="2.20607">
        <ele>482</ele>
        <time>2017-09-17T13:39:36Z</time>
      </trkpt>
      <trkpt lat="44.38781" lon="2.20578">
        <ele>487</ele>
        <time>2017-09-17T13:40:06Z</time>
      </trkpt>
      <trkpt lat="44.38793" lon="2.20564">
        <ele>487</ele>
        <time>2017-09-17T13:40:20Z</time>
      </trkpt>
      <trkpt lat="44.38795" lon="2.20561">
        <ele>487</ele>
        <time>2017-09-17T13:40:23Z</time>
      </trkpt>
      <trkpt lat="44.38803" lon="2.20552">
        <ele>488</ele>
        <time>2017-09-17T13:40:32Z</time>
      </trkpt>
      <trkpt lat="44.38805" lon="2.20547">
        <ele>488</ele>
        <time>2017-09-17T13:40:35Z</time>
      </trkpt>
      <trkpt lat="44.38808" lon="2.20544">
        <ele>488</ele>
        <time>2017-09-17T13:40:39Z</time>
      </trkpt>
      <trkpt lat="44.38817" lon="2.20528">
        <ele>489</ele>
        <time>2017-09-17T13:40:52Z</time>
      </trkpt>
      <trkpt lat="44.38836" lon="2.20482">
        <ele>495</ele>
        <time>2017-09-17T13:41:23Z</time>
      </trkpt>
      <trkpt lat="44.38846" lon="2.20443">
        <ele>497</ele>
        <time>2017-09-17T13:41:49Z</time>
      </trkpt>
      <trkpt lat="44.38856" lon="2.20394">
        <ele>502</ele>
        <time>2017-09-17T13:42:21Z</time>
      </trkpt>
      <trkpt lat="44.38864" lon="2.20341">
        <ele>504</ele>
        <time>2017-09-17T13:42:53Z</time>
      </trkpt>
      <trkpt lat="44.38864" lon="2.20337">
        <ele>504</ele>
        <time>2017-09-17T13:42:55Z</time>
      </trkpt>
      <trkpt lat="44.38865" lon="2.20335">
        <ele>504</ele>
        <time>2017-09-17T13:42:57Z</time>
      </trkpt>
      <trkpt lat="44.38865" lon="2.20332">
        <ele>506</ele>
        <time>2017-09-17T13:42:59Z</time>
      </trkpt>
      <trkpt lat="44.38865" lon="2.20323">
        <ele>506</ele>
        <time>2017-09-17T13:43:05Z</time>
      </trkpt>
      <trkpt lat="44.38867" lon="2.20313">
        <ele>506</ele>
        <time>2017-09-17T13:43:11Z</time>
      </trkpt>
      <trkpt lat="44.38868" lon="2.20301">
        <ele>506</ele>
        <time>2017-09-17T13:43:17Z</time>
      </trkpt>
      <trkpt lat="44.38872" lon="2.20287">
        <ele>506</ele>
        <time>2017-09-17T13:43:25Z</time>
      </trkpt>
      <trkpt lat="44.38877" lon="2.20278">
        <ele>507</ele>
        <time>2017-09-17T13:43:31Z</time>
      </trkpt>
      <trkpt lat="44.38879" lon="2.20274">
        <ele>507</ele>
        <time>2017-09-17T13:43:34Z</time>
      </trkpt>
      <trkpt lat="44.38892" lon="2.20251">
        <ele>508</ele>
        <time>2017-09-17T13:43:49Z</time>
      </trkpt>
      <trkpt lat="44.38917" lon="2.20215">
        <ele>511</ele>
        <time>2017-09-17T13:44:19Z</time>
      </trkpt>
      <trkpt lat="44.38942" lon="2.20176">
        <ele>511</ele>
        <time>2017-09-17T13:44:49Z</time>
      </trkpt>
      <trkpt lat="44.38958" lon="2.20152">
        <ele>510</ele>
        <time>2017-09-17T13:45:08Z</time>
      </trkpt>
      <trkpt lat="44.38959" lon="2.2015">
        <ele>510</ele>
        <time>2017-09-17T13:45:10Z</time>
      </trkpt>
      <trkpt lat="44.38972" lon="2.2013">
        <ele>510</ele>
        <time>2017-09-17T13:45:25Z</time>
      </trkpt>
      <trkpt lat="44.38983" lon="2.20114">
        <ele>510</ele>
        <time>2017-09-17T13:45:38Z</time>
      </trkpt>
      <trkpt lat="44.38985" lon="2.20111">
        <ele>510</ele>
        <time>2017-09-17T13:45:41Z</time>
      </trkpt>
      <trkpt lat="44.38987" lon="2.20109">
        <ele>510</ele>
        <time>2017-09-17T13:45:43Z</time>
      </trkpt>
      <trkpt lat="44.38993" lon="2.20102">
        <ele>510</ele>
        <time>2017-09-17T13:45:49Z</time>
      </trkpt>
      <trkpt lat="44.39005" lon="2.2008">
        <ele>512</ele>
        <time>2017-09-17T13:46:05Z</time>
      </trkpt>
      <trkpt lat="44.3901" lon="2.20074">
        <ele>511</ele>
        <time>2017-09-17T13:46:10Z</time>
      </trkpt>
      <trkpt lat="44.39025" lon="2.2005">
        <ele>511</ele>
        <time>2017-09-17T13:46:28Z</time>
      </trkpt>
      <trkpt lat="44.39028" lon="2.20046">
        <ele>510</ele>
        <time>2017-09-17T13:46:31Z</time>
      </trkpt>
      <trkpt lat="44.39031" lon="2.20041">
        <ele>510</ele>
        <time>2017-09-17T13:46:34Z</time>
      </trkpt>
      <trkpt lat="44.39034" lon="2.2004">
        <ele>510</ele>
        <time>2017-09-17T13:46:37Z</time>
      </trkpt>
      <trkpt lat="44.39035" lon="2.20036">
        <ele>510</ele>
        <time>2017-09-17T13:46:40Z</time>
      </trkpt>
      <trkpt lat="44.39038" lon="2.20033">
        <ele>510</ele>
        <time>2017-09-17T13:46:43Z</time>
      </trkpt>
      <trkpt lat="44.39045" lon="2.20019">
        <ele>510</ele>
        <time>2017-09-17T13:46:53Z</time>
      </trkpt>
      <trkpt lat="44.39047" lon="2.20014">
        <ele>510</ele>
        <time>2017-09-17T13:46:57Z</time>
      </trkpt>
      <trkpt lat="44.39054" lon="2.19999">
        <ele>509</ele>
        <time>2017-09-17T13:47:06Z</time>
      </trkpt>
      <trkpt lat="44.39056" lon="2.19996">
        <ele>509</ele>
        <time>2017-09-17T13:47:09Z</time>
      </trkpt>
      <trkpt lat="44.39066" lon="2.19972">
        <ele>509</ele>
        <time>2017-09-17T13:47:24Z</time>
      </trkpt>
      <trkpt lat="44.39067" lon="2.1997">
        <ele>509</ele>
        <time>2017-09-17T13:47:26Z</time>
      </trkpt>
      <trkpt lat="44.39072" lon="2.19957">
        <ele>509</ele>
        <time>2017-09-17T13:47:34Z</time>
      </trkpt>
      <trkpt lat="44.39074" lon="2.19952">
        <ele>509</ele>
        <time>2017-09-17T13:47:37Z</time>
      </trkpt>
      <trkpt lat="44.39075" lon="2.19948">
        <ele>509</ele>
        <time>2017-09-17T13:47:40Z</time>
      </trkpt>
      <trkpt lat="44.39076" lon="2.19944">
        <ele>509</ele>
        <time>2017-09-17T13:47:43Z</time>
      </trkpt>
      <trkpt lat="44.39079" lon="2.19941">
        <ele>509</ele>
        <time>2017-09-17T13:47:46Z</time>
      </trkpt>
      <trkpt lat="44.39082" lon="2.19937">
        <ele>509</ele>
        <time>2017-09-17T13:47:49Z</time>
      </trkpt>
      <trkpt lat="44.39085" lon="2.19928">
        <ele>509</ele>
        <time>2017-09-17T13:47:54Z</time>
      </trkpt>
      <trkpt lat="44.39085" lon="2.19925">
        <ele>510</ele>
        <time>2017-09-17T13:47:56Z</time>
      </trkpt>
      <trkpt lat="44.39084" lon="2.19915">
        <ele>511</ele>
        <time>2017-09-17T13:48:03Z</time>
      </trkpt>
      <trkpt lat="44.39083" lon="2.19912">
        <ele>510</ele>
        <time>2017-09-17T13:48:05Z</time>
      </trkpt>
      <trkpt lat="44.39083" lon="2.19879">
        <ele>507</ele>
        <time>2017-09-17T13:48:26Z</time>
      </trkpt>
      <trkpt lat="44.39083" lon="2.19873">
        <ele>506</ele>
        <time>2017-09-17T13:48:30Z</time>
      </trkpt>
      <trkpt lat="44.39079" lon="2.19823">
        <ele>505</ele>
        <time>2017-09-17T13:49:01Z</time>
      </trkpt>
      <trkpt lat="44.39073" lon="2.19767">
        <ele>503</ele>
        <time>2017-09-17T13:49:32Z</time>
      </trkpt>
      <trkpt lat="44.39071" lon="2.19753">
        <ele>503</ele>
        <time>2017-09-17T13:49:42Z</time>
      </trkpt>
      <trkpt lat="44.39068" lon="2.19746">
        <ele>501</ele>
        <time>2017-09-17T13:49:47Z</time>
      </trkpt>
      <trkpt lat="44.39065" lon="2.19734">
        <ele>501</ele>
        <time>2017-09-17T13:49:55Z</time>
      </trkpt>
      <trkpt lat="44.39048" lon="2.19687">
        <ele>499</ele>
        <time>2017-09-17T13:50:25Z</time>
      </trkpt>
      <trkpt lat="44.39034" lon="2.19641">
        <ele>495</ele>
        <time>2017-09-17T13:50:55Z</time>
      </trkpt>
      <trkpt lat="44.39031" lon="2.19634">
        <ele>495</ele>
        <time>2017-09-17T13:50:59Z</time>
      </trkpt>
      <trkpt lat="44.3903" lon="2.19631">
        <ele>495</ele>
        <time>2017-09-17T13:51:01Z</time>
      </trkpt>
      <trkpt lat="44.39027" lon="2.19624">
        <ele>495</ele>
        <time>2017-09-17T13:51:06Z</time>
      </trkpt>
      <trkpt lat="44.39012" lon="2.19577">
        <ele>493</ele>
        <time>2017-09-17T13:51:36Z</time>
      </trkpt>
      <trkpt lat="44.38998" lon="2.19531">
        <ele>494</ele>
        <time>2017-09-17T13:52:06Z</time>
      </trkpt>
      <trkpt lat="44.38985" lon="2.19488">
        <ele>495</ele>
        <time>2017-09-17T13:52:32Z</time>
      </trkpt>
      <trkpt lat="44.3898" lon="2.19448">
        <ele>495</ele>
        <time>2017-09-17T13:52:55Z</time>
      </trkpt>
      <trkpt lat="44.3898" lon="2.19428">
        <ele>495</ele>
        <time>2017-09-17T13:53:07Z</time>
      </trkpt>
      <trkpt lat="44.38984" lon="2.19396">
        <ele>495</ele>
        <time>2017-09-17T13:53:28Z</time>
      </trkpt>
      <trkpt lat="44.38986" lon="2.19366">
        <ele>495</ele>
        <time>2017-09-17T13:53:45Z</time>
      </trkpt>
      <trkpt lat="44.38986" lon="2.19359">
        <ele>495</ele>
        <time>2017-09-17T13:53:49Z</time>
      </trkpt>
      <trkpt lat="44.38986" lon="2.19354">
        <ele>495</ele>
        <time>2017-09-17T13:53:51Z</time>
      </trkpt>
      <trkpt lat="44.38988" lon="2.19344">
        <ele>495</ele>
        <time>2017-09-17T13:53:57Z</time>
      </trkpt>
      <trkpt lat="44.38988" lon="2.19285">
        <ele>494</ele>
        <time>2017-09-17T13:54:28Z</time>
      </trkpt>
      <trkpt lat="44.38987" lon="2.19241">
        <ele>492</ele>
        <time>2017-09-17T13:54:52Z</time>
      </trkpt>
      <trkpt lat="44.38987" lon="2.19238">
        <ele>492</ele>
        <time>2017-09-17T13:54:54Z</time>
      </trkpt>
      <trkpt lat="44.38989" lon="2.19237">
        <ele>492</ele>
        <time>2017-09-17T13:54:56Z</time>
      </trkpt>
      <trkpt lat="44.3899" lon="2.19233">
        <ele>492</ele>
        <time>2017-09-17T13:55:02Z</time>
      </trkpt>
      <trkpt lat="44.38991" lon="2.19231">
        <ele>492</ele>
        <time>2017-09-17T13:55:07Z</time>
      </trkpt>
      <trkpt lat="44.38992" lon="2.19239">
        <ele>492</ele>
        <time>2017-09-17T13:55:28Z</time>
      </trkpt>
      <trkpt lat="44.3899" lon="2.19242">
        <ele>492</ele>
        <time>2017-09-17T13:55:38Z</time>
      </trkpt>
      <trkpt lat="44.38989" lon="2.19247">
        <ele>492</ele>
        <time>2017-09-17T13:55:42Z</time>
      </trkpt>
      <trkpt lat="44.3899" lon="2.19246">
        <ele>492</ele>
        <time>2017-09-17T13:57:32Z</time>
      </trkpt>
      <trkpt lat="44.3899" lon="2.1924">
        <ele>492</ele>
        <time>2017-09-17T13:57:35Z</time>
      </trkpt>
      <trkpt lat="44.38993" lon="2.19234">
        <ele>492</ele>
        <time>2017-09-17T13:57:40Z</time>
      </trkpt>
      <trkpt lat="44.38992" lon="2.19232">
        <ele>492</ele>
        <time>2017-09-17T13:58:26Z</time>
      </trkpt>
      <trkpt lat="44.38991" lon="2.19229">
        <ele>491</ele>
        <time>2017-09-17T13:58:38Z</time>
      </trkpt>
      <trkpt lat="44.38986" lon="2.19189">
        <ele>490</ele>
        <time>2017-09-17T13:59:09Z</time>
      </trkpt>
      <trkpt lat="44.38985" lon="2.19142">
        <ele>487</ele>
        <time>2017-09-17T13:59:39Z</time>
      </trkpt>
      <trkpt lat="44.38985" lon="2.1909">
        <ele>486</ele>
        <time>2017-09-17T14:00:10Z</time>
      </trkpt>
      <trkpt lat="44.38985" lon="2.19085">
        <ele>486</ele>
        <time>2017-09-17T14:00:13Z</time>
      </trkpt>
      <trkpt lat="44.38984" lon="2.19071">
        <ele>484</ele>
        <time>2017-09-17T14:00:22Z</time>
      </trkpt>
      <trkpt lat="44.38986" lon="2.19049">
        <ele>483</ele>
        <time>2017-09-17T14:00:35Z</time>
      </trkpt>
      <trkpt lat="44.38987" lon="2.19041">
        <ele>483</ele>
        <time>2017-09-17T14:00:43Z</time>
      </trkpt>
      <trkpt lat="44.38989" lon="2.19031">
        <ele>483</ele>
        <time>2017-09-17T14:00:51Z</time>
      </trkpt>
      <trkpt lat="44.38996" lon="2.19014">
        <ele>483</ele>
        <time>2017-09-17T14:01:02Z</time>
      </trkpt>
      <trkpt lat="44.39006" lon="2.18964">
        <ele>483</ele>
        <time>2017-09-17T14:01:30Z</time>
      </trkpt>
      <trkpt lat="44.39008" lon="2.18959">
        <ele>482</ele>
        <time>2017-09-17T14:01:33Z</time>
      </trkpt>
      <trkpt lat="44.3901" lon="2.18954">
        <ele>482</ele>
        <time>2017-09-17T14:01:36Z</time>
      </trkpt>
      <trkpt lat="44.39011" lon="2.1895">
        <ele>482</ele>
        <time>2017-09-17T14:01:39Z</time>
      </trkpt>
      <trkpt lat="44.39029" lon="2.18903">
        <ele>479</ele>
        <time>2017-09-17T14:02:10Z</time>
      </trkpt>
      <trkpt lat="44.39029" lon="2.18901">
        <ele>479</ele>
        <time>2017-09-17T14:02:11Z</time>
      </trkpt>
      <trkpt lat="44.3903" lon="2.18899">
        <ele>479</ele>
        <time>2017-09-17T14:02:12Z</time>
      </trkpt>
      <trkpt lat="44.39051" lon="2.18858">
        <ele>478</ele>
        <time>2017-09-17T14:02:42Z</time>
      </trkpt>
      <trkpt lat="44.3907" lon="2.18815">
        <ele>475</ele>
        <time>2017-09-17T14:03:12Z</time>
      </trkpt>
      <trkpt lat="44.39072" lon="2.18811">
        <ele>475</ele>
        <time>2017-09-17T14:03:15Z</time>
      </trkpt>
      <trkpt lat="44.39073" lon="2.18808">
        <ele>475</ele>
        <time>2017-09-17T14:03:17Z</time>
      </trkpt>
      <trkpt lat="44.39088" lon="2.18774">
        <ele>476</ele>
        <time>2017-09-17T14:03:39Z</time>
      </trkpt>
      <trkpt lat="44.3911" lon="2.18723">
        <ele>474</ele>
        <time>2017-09-17T14:04:11Z</time>
      </trkpt>
      <trkpt lat="44.39125" lon="2.18688">
        <ele>474</ele>
        <time>2017-09-17T14:04:38Z</time>
      </trkpt>
      <trkpt lat="44.39128" lon="2.18676">
        <ele>474</ele>
        <time>2017-09-17T14:04:45Z</time>
      </trkpt>
      <trkpt lat="44.39128" lon="2.18668">
        <ele>473</ele>
        <time>2017-09-17T14:04:49Z</time>
      </trkpt>
      <trkpt lat="44.39125" lon="2.18651">
        <ele>471</ele>
        <time>2017-09-17T14:05:00Z</time>
      </trkpt>
      <trkpt lat="44.39122" lon="2.18643">
        <ele>471</ele>
        <time>2017-09-17T14:05:05Z</time>
      </trkpt>
      <trkpt lat="44.39121" lon="2.1864">
        <ele>471</ele>
        <time>2017-09-17T14:05:07Z</time>
      </trkpt>
      <trkpt lat="44.39112" lon="2.18616">
        <ele>471</ele>
        <time>2017-09-17T14:05:22Z</time>
      </trkpt>
      <trkpt lat="44.3911" lon="2.18606">
        <ele>471</ele>
        <time>2017-09-17T14:05:30Z</time>
      </trkpt>
      <trkpt lat="44.39091" lon="2.18554">
        <ele>471</ele>
        <time>2017-09-17T14:06:02Z</time>
      </trkpt>
      <trkpt lat="44.39084" lon="2.18539">
        <ele>471</ele>
        <time>2017-09-17T14:06:12Z</time>
      </trkpt>
      <trkpt lat="44.3908" lon="2.18526">
        <ele>471</ele>
        <time>2017-09-17T14:06:21Z</time>
      </trkpt>
      <trkpt lat="44.39074" lon="2.18515">
        <ele>471</ele>
        <time>2017-09-17T14:06:30Z</time>
      </trkpt>
      <trkpt lat="44.39069" lon="2.18503">
        <ele>471</ele>
        <time>2017-09-17T14:06:38Z</time>
      </trkpt>
      <trkpt lat="44.39067" lon="2.185">
        <ele>471</ele>
        <time>2017-09-17T14:06:40Z</time>
      </trkpt>
      <trkpt lat="44.39059" lon="2.1849">
        <ele>472</ele>
        <time>2017-09-17T14:06:49Z</time>
      </trkpt>
      <trkpt lat="44.39053" lon="2.18483">
        <ele>472</ele>
        <time>2017-09-17T14:06:55Z</time>
      </trkpt>
      <trkpt lat="44.39045" lon="2.18471">
        <ele>472</ele>
        <time>2017-09-17T14:07:04Z</time>
      </trkpt>
      <trkpt lat="44.39017" lon="2.18429">
        <ele>473</ele>
        <time>2017-09-17T14:07:36Z</time>
      </trkpt>
      <trkpt lat="44.38991" lon="2.1839">
        <ele>475</ele>
        <time>2017-09-17T14:08:04Z</time>
      </trkpt>
      <trkpt lat="44.38989" lon="2.18389">
        <ele>475</ele>
        <time>2017-09-17T14:08:06Z</time>
      </trkpt>
      <trkpt lat="44.38988" lon="2.18387">
        <ele>475</ele>
        <time>2017-09-17T14:08:08Z</time>
      </trkpt>
      <trkpt lat="44.38985" lon="2.1838">
        <ele>475</ele>
        <time>2017-09-17T14:08:12Z</time>
      </trkpt>
      <trkpt lat="44.38986" lon="2.18328">
        <ele>476</ele>
        <time>2017-09-17T14:08:42Z</time>
      </trkpt>
      <trkpt lat="44.38986" lon="2.18303">
        <ele>477</ele>
        <time>2017-09-17T14:08:56Z</time>
      </trkpt>
      <trkpt lat="44.38987" lon="2.18298">
        <ele>477</ele>
        <time>2017-09-17T14:08:59Z</time>
      </trkpt>
      <trkpt lat="44.38987" lon="2.18281">
        <ele>476</ele>
        <time>2017-09-17T14:09:08Z</time>
      </trkpt>
      <trkpt lat="44.38991" lon="2.18262">
        <ele>476</ele>
        <time>2017-09-17T14:09:18Z</time>
      </trkpt>
      <trkpt lat="44.38993" lon="2.18257">
        <ele>475</ele>
        <time>2017-09-17T14:09:21Z</time>
      </trkpt>
      <trkpt lat="44.38995" lon="2.18251">
        <ele>475</ele>
        <time>2017-09-17T14:09:25Z</time>
      </trkpt>
      <trkpt lat="44.38999" lon="2.18237">
        <ele>475</ele>
        <time>2017-09-17T14:09:34Z</time>
      </trkpt>
      <trkpt lat="44.39001" lon="2.18232">
        <ele>473</ele>
        <time>2017-09-17T14:09:37Z</time>
      </trkpt>
      <trkpt lat="44.39003" lon="2.18229">
        <ele>473</ele>
        <time>2017-09-17T14:09:41Z</time>
      </trkpt>
      <trkpt lat="44.39003" lon="2.18224">
        <ele>473</ele>
        <time>2017-09-17T14:09:45Z</time>
      </trkpt>
      <trkpt lat="44.39003" lon="2.18219">
        <ele>472</ele>
        <time>2017-09-17T14:09:48Z</time>
      </trkpt>
      <trkpt lat="44.39005" lon="2.18215">
        <ele>472</ele>
        <time>2017-09-17T14:09:51Z</time>
      </trkpt>
      <trkpt lat="44.39009" lon="2.18206">
        <ele>472</ele>
        <time>2017-09-17T14:09:57Z</time>
      </trkpt>
      <trkpt lat="44.39011" lon="2.18202">
        <ele>472</ele>
        <time>2017-09-17T14:10:00Z</time>
      </trkpt>
      <trkpt lat="44.39017" lon="2.18195">
        <ele>472</ele>
        <time>2017-09-17T14:10:06Z</time>
      </trkpt>
      <trkpt lat="44.39051" lon="2.18163">
        <ele>472</ele>
        <time>2017-09-17T14:10:37Z</time>
      </trkpt>
      <trkpt lat="44.39081" lon="2.18146">
        <ele>471</ele>
        <time>2017-09-17T14:11:01Z</time>
      </trkpt>
      <trkpt lat="44.39119" lon="2.1813">
        <ele>466</ele>
        <time>2017-09-17T14:11:31Z</time>
      </trkpt>
      <trkpt lat="44.39127" lon="2.18126">
        <ele>465</ele>
        <time>2017-09-17T14:11:39Z</time>
      </trkpt>
      <trkpt lat="44.3913" lon="2.18124">
        <ele>465</ele>
        <time>2017-09-17T14:11:41Z</time>
      </trkpt>
      <trkpt lat="44.39131" lon="2.18122">
        <ele>465</ele>
        <time>2017-09-17T14:11:43Z</time>
      </trkpt>
      <trkpt lat="44.39132" lon="2.18118">
        <ele>465</ele>
        <time>2017-09-17T14:11:45Z</time>
      </trkpt>
      <trkpt lat="44.39136" lon="2.18098">
        <ele>465</ele>
        <time>2017-09-17T14:11:58Z</time>
      </trkpt>
      <trkpt lat="44.39142" lon="2.18081">
        <ele>464</ele>
        <time>2017-09-17T14:12:08Z</time>
      </trkpt>
      <trkpt lat="44.39148" lon="2.18076">
        <ele>463</ele>
        <time>2017-09-17T14:12:14Z</time>
      </trkpt>
      <trkpt lat="44.39153" lon="2.18072">
        <ele>463</ele>
        <time>2017-09-17T14:12:19Z</time>
      </trkpt>
      <trkpt lat="44.39158" lon="2.18066">
        <ele>463</ele>
        <time>2017-09-17T14:12:25Z</time>
      </trkpt>
      <trkpt lat="44.39164" lon="2.18053">
        <ele>463</ele>
        <time>2017-09-17T14:12:34Z</time>
      </trkpt>
      <trkpt lat="44.39166" lon="2.18048">
        <ele>463</ele>
        <time>2017-09-17T14:12:37Z</time>
      </trkpt>
      <trkpt lat="44.39168" lon="2.18044">
        <ele>459</ele>
        <time>2017-09-17T14:12:40Z</time>
      </trkpt>
      <trkpt lat="44.3917" lon="2.18038">
        <ele>459</ele>
        <time>2017-09-17T14:12:43Z</time>
      </trkpt>
      <trkpt lat="44.39171" lon="2.18033">
        <ele>458</ele>
        <time>2017-09-17T14:12:46Z</time>
      </trkpt>
      <trkpt lat="44.39186" lon="2.17979">
        <ele>456</ele>
        <time>2017-09-17T14:13:16Z</time>
      </trkpt>
      <trkpt lat="44.39196" lon="2.17932">
        <ele>456</ele>
        <time>2017-09-17T14:13:44Z</time>
      </trkpt>
      <trkpt lat="44.39208" lon="2.17883">
        <ele>456</ele>
        <time>2017-09-17T14:14:14Z</time>
      </trkpt>
      <trkpt lat="44.39211" lon="2.1787">
        <ele>456</ele>
        <time>2017-09-17T14:14:22Z</time>
      </trkpt>
      <trkpt lat="44.39213" lon="2.17855">
        <ele>456</ele>
        <time>2017-09-17T14:14:30Z</time>
      </trkpt>
      <trkpt lat="44.39214" lon="2.17852">
        <ele>456</ele>
        <time>2017-09-17T14:14:35Z</time>
      </trkpt>
      <trkpt lat="44.39215" lon="2.17846">
        <ele>456</ele>
        <time>2017-09-17T14:14:39Z</time>
      </trkpt>
      <trkpt lat="44.39217" lon="2.17837">
        <ele>456</ele>
        <time>2017-09-17T14:14:46Z</time>
      </trkpt>
      <trkpt lat="44.39217" lon="2.17827">
        <ele>458</ele>
        <time>2017-09-17T14:14:52Z</time>
      </trkpt>
      <trkpt lat="44.3922" lon="2.17814">
        <ele>458</ele>
        <time>2017-09-17T14:14:59Z</time>
      </trkpt>
      <trkpt lat="44.39219" lon="2.17793">
        <ele>458</ele>
        <time>2017-09-17T14:15:10Z</time>
      </trkpt>
      <trkpt lat="44.39219" lon="2.17789">
        <ele>458</ele>
        <time>2017-09-17T14:15:13Z</time>
      </trkpt>
      <trkpt lat="44.39218" lon="2.17776">
        <ele>459</ele>
        <time>2017-09-17T14:15:20Z</time>
      </trkpt>
      <trkpt lat="44.39219" lon="2.17771">
        <ele>459</ele>
        <time>2017-09-17T14:15:23Z</time>
      </trkpt>
      <trkpt lat="44.39219" lon="2.17761">
        <ele>459</ele>
        <time>2017-09-17T14:15:29Z</time>
      </trkpt>
      <trkpt lat="44.39218" lon="2.17755">
        <ele>459</ele>
        <time>2017-09-17T14:15:32Z</time>
      </trkpt>
      <trkpt lat="44.39217" lon="2.1775">
        <ele>460</ele>
        <time>2017-09-17T14:15:35Z</time>
      </trkpt>
      <trkpt lat="44.39218" lon="2.17746">
        <ele>460</ele>
        <time>2017-09-17T14:15:38Z</time>
      </trkpt>
      <trkpt lat="44.39217" lon="2.17741">
        <ele>460</ele>
        <time>2017-09-17T14:15:41Z</time>
      </trkpt>
      <trkpt lat="44.39218" lon="2.17736">
        <ele>461</ele>
        <time>2017-09-17T14:15:44Z</time>
      </trkpt>
      <trkpt lat="44.39216" lon="2.17708">
        <ele>461</ele>
        <time>2017-09-17T14:15:59Z</time>
      </trkpt>
      <trkpt lat="44.39216" lon="2.17704">
        <ele>461</ele>
        <time>2017-09-17T14:16:01Z</time>
      </trkpt>
      <trkpt lat="44.39216" lon="2.17701">
        <ele>461</ele>
        <time>2017-09-17T14:16:03Z</time>
      </trkpt>
      <trkpt lat="44.39215" lon="2.17693">
        <ele>461</ele>
        <time>2017-09-17T14:16:07Z</time>
      </trkpt>
      <trkpt lat="44.39212" lon="2.17646">
        <ele>463</ele>
        <time>2017-09-17T14:16:37Z</time>
      </trkpt>
      <trkpt lat="44.39212" lon="2.17595">
        <ele>464</ele>
        <time>2017-09-17T14:17:08Z</time>
      </trkpt>
      <trkpt lat="44.3921" lon="2.17559">
        <ele>466</ele>
        <time>2017-09-17T14:17:28Z</time>
      </trkpt>
      <trkpt lat="44.3921" lon="2.17548">
        <ele>466</ele>
        <time>2017-09-17T14:17:34Z</time>
      </trkpt>
      <trkpt lat="44.39209" lon="2.1753">
        <ele>467</ele>
        <time>2017-09-17T14:17:45Z</time>
      </trkpt>
      <trkpt lat="44.39208" lon="2.17526">
        <ele>467</ele>
        <time>2017-09-17T14:17:48Z</time>
      </trkpt>
      <trkpt lat="44.39208" lon="2.1752">
        <ele>467</ele>
        <time>2017-09-17T14:17:52Z</time>
      </trkpt>
      <trkpt lat="44.39203" lon="2.17493">
        <ele>470</ele>
        <time>2017-09-17T14:18:08Z</time>
      </trkpt>
      <trkpt lat="44.39195" lon="2.1745">
        <ele>472</ele>
        <time>2017-09-17T14:18:37Z</time>
      </trkpt>
      <trkpt lat="44.39194" lon="2.17442">
        <ele>472</ele>
        <time>2017-09-17T14:18:43Z</time>
      </trkpt>
      <trkpt lat="44.39196" lon="2.17433">
        <ele>472</ele>
        <time>2017-09-17T14:18:48Z</time>
      </trkpt>
      <trkpt lat="44.39205" lon="2.17417">
        <ele>472</ele>
        <time>2017-09-17T14:19:02Z</time>
      </trkpt>
      <trkpt lat="44.39208" lon="2.17414">
        <ele>477</ele>
        <time>2017-09-17T14:19:05Z</time>
      </trkpt>
      <trkpt lat="44.39224" lon="2.17394">
        <ele>478</ele>
        <time>2017-09-17T14:19:22Z</time>
      </trkpt>
      <trkpt lat="44.39233" lon="2.17387">
        <ele>478</ele>
        <time>2017-09-17T14:19:30Z</time>
      </trkpt>
      <trkpt lat="44.39236" lon="2.17385">
        <ele>478</ele>
        <time>2017-09-17T14:19:33Z</time>
      </trkpt>
      <trkpt lat="44.39243" lon="2.17382">
        <ele>478</ele>
        <time>2017-09-17T14:19:39Z</time>
      </trkpt>
      <trkpt lat="44.3928" lon="2.17371">
        <ele>479</ele>
        <time>2017-09-17T14:20:10Z</time>
      </trkpt>
      <trkpt lat="44.39313" lon="2.17355">
        <ele>480</ele>
        <time>2017-09-17T14:20:40Z</time>
      </trkpt>
      <trkpt lat="44.39318" lon="2.1735">
        <ele>480</ele>
        <time>2017-09-17T14:20:46Z</time>
      </trkpt>
      <trkpt lat="44.39321" lon="2.17346">
        <ele>481</ele>
        <time>2017-09-17T14:20:50Z</time>
      </trkpt>
      <trkpt lat="44.39324" lon="2.17337">
        <ele>482</ele>
        <time>2017-09-17T14:20:56Z</time>
      </trkpt>
      <trkpt lat="44.39325" lon="2.17328">
        <ele>483</ele>
        <time>2017-09-17T14:21:02Z</time>
      </trkpt>
      <trkpt lat="44.39324" lon="2.17318">
        <ele>484</ele>
        <time>2017-09-17T14:21:08Z</time>
      </trkpt>
      <trkpt lat="44.39322" lon="2.17309">
        <ele>484</ele>
        <time>2017-09-17T14:21:14Z</time>
      </trkpt>
      <trkpt lat="44.39314" lon="2.17279">
        <ele>484</ele>
        <time>2017-09-17T14:21:33Z</time>
      </trkpt>
      <trkpt lat="44.39313" lon="2.17275">
        <ele>484</ele>
        <time>2017-09-17T14:21:36Z</time>
      </trkpt>
      <trkpt lat="44.39295" lon="2.17228">
        <ele>486</ele>
        <time>2017-09-17T14:22:07Z</time>
      </trkpt>
      <trkpt lat="44.39292" lon="2.17219">
        <ele>487</ele>
        <time>2017-09-17T14:22:13Z</time>
      </trkpt>
      <trkpt lat="44.3928" lon="2.17164">
        <ele>489</ele>
        <time>2017-09-17T14:22:45Z</time>
      </trkpt>
      <trkpt lat="44.39273" lon="2.1711">
        <ele>490</ele>
        <time>2017-09-17T14:23:16Z</time>
      </trkpt>
      <trkpt lat="44.39272" lon="2.17104">
        <ele>490</ele>
        <time>2017-09-17T14:23:19Z</time>
      </trkpt>
      <trkpt lat="44.39271" lon="2.17098">
        <ele>490</ele>
        <time>2017-09-17T14:23:23Z</time>
      </trkpt>
      <trkpt lat="44.39271" lon="2.17093">
        <ele>490</ele>
        <time>2017-09-17T14:23:26Z</time>
      </trkpt>
      <trkpt lat="44.39269" lon="2.17087">
        <ele>491</ele>
        <time>2017-09-17T14:23:29Z</time>
      </trkpt>
      <trkpt lat="44.39267" lon="2.17071">
        <ele>490</ele>
        <time>2017-09-17T14:23:40Z</time>
      </trkpt>
      <trkpt lat="44.39267" lon="2.17064">
        <ele>490</ele>
        <time>2017-09-17T14:23:44Z</time>
      </trkpt>
      <trkpt lat="44.39266" lon="2.17058">
        <ele>490</ele>
        <time>2017-09-17T14:23:47Z</time>
      </trkpt>
      <trkpt lat="44.39263" lon="2.17053">
        <ele>490</ele>
        <time>2017-09-17T14:23:52Z</time>
      </trkpt>
      <trkpt lat="44.39262" lon="2.17047">
        <ele>490</ele>
        <time>2017-09-17T14:23:57Z</time>
      </trkpt>
      <trkpt lat="44.39261" lon="2.17042">
        <ele>490</ele>
        <time>2017-09-17T14:24:03Z</time>
      </trkpt>
      <trkpt lat="44.39257" lon="2.1703">
        <ele>490</ele>
        <time>2017-09-17T14:24:12Z</time>
      </trkpt>
      <trkpt lat="44.39253" lon="2.17007">
        <ele>492</ele>
        <time>2017-09-17T14:24:26Z</time>
      </trkpt>
      <trkpt lat="44.39253" lon="2.16991">
        <ele>491</ele>
        <time>2017-09-17T14:24:35Z</time>
      </trkpt>
      <trkpt lat="44.39252" lon="2.16986">
        <ele>490</ele>
        <time>2017-09-17T14:24:38Z</time>
      </trkpt>
      <trkpt lat="44.3925" lon="2.16976">
        <ele>489</ele>
        <time>2017-09-17T14:24:43Z</time>
      </trkpt>
      <trkpt lat="44.39249" lon="2.16969">
        <ele>490</ele>
        <time>2017-09-17T14:24:47Z</time>
      </trkpt>
      <trkpt lat="44.39248" lon="2.16964">
        <ele>490</ele>
        <time>2017-09-17T14:24:50Z</time>
      </trkpt>
      <trkpt lat="44.39242" lon="2.16929">
        <ele>489</ele>
        <time>2017-09-17T14:25:09Z</time>
      </trkpt>
      <trkpt lat="44.39241" lon="2.16923">
        <ele>489</ele>
        <time>2017-09-17T14:25:13Z</time>
      </trkpt>
      <trkpt lat="44.39241" lon="2.16919">
        <ele>489</ele>
        <time>2017-09-17T14:25:19Z</time>
      </trkpt>
      <trkpt lat="44.39241" lon="2.16908">
        <ele>487</ele>
        <time>2017-09-17T14:25:26Z</time>
      </trkpt>
      <trkpt lat="44.39241" lon="2.16904">
        <ele>487</ele>
        <time>2017-09-17T14:25:29Z</time>
      </trkpt>
      <trkpt lat="44.39242" lon="2.16883">
        <ele>485</ele>
        <time>2017-09-17T14:25:39Z</time>
      </trkpt>
      <trkpt lat="44.39244" lon="2.16865">
        <ele>485</ele>
        <time>2017-09-17T14:25:48Z</time>
      </trkpt>
      <trkpt lat="44.39249" lon="2.16816">
        <ele>483</ele>
        <time>2017-09-17T14:26:13Z</time>
      </trkpt>
      <trkpt lat="44.3925" lon="2.16813">
        <ele>483</ele>
        <time>2017-09-17T14:26:15Z</time>
      </trkpt>
      <trkpt lat="44.3925" lon="2.16801">
        <ele>482</ele>
        <time>2017-09-17T14:26:25Z</time>
      </trkpt>
      <trkpt lat="44.39259" lon="2.16755">
        <ele>480</ele>
        <time>2017-09-17T14:26:54Z</time>
      </trkpt>
      <trkpt lat="44.3926" lon="2.16751">
        <ele>480</ele>
        <time>2017-09-17T14:26:57Z</time>
      </trkpt>
      <trkpt lat="44.39262" lon="2.16737">
        <ele>478</ele>
        <time>2017-09-17T14:27:06Z</time>
      </trkpt>
      <trkpt lat="44.39262" lon="2.16732">
        <ele>477</ele>
        <time>2017-09-17T14:27:08Z</time>
      </trkpt>
      <trkpt lat="44.39263" lon="2.16718">
        <ele>477</ele>
        <time>2017-09-17T14:27:16Z</time>
      </trkpt>
      <trkpt lat="44.39263" lon="2.16713">
        <ele>476</ele>
        <time>2017-09-17T14:27:19Z</time>
      </trkpt>
      <trkpt lat="44.39262" lon="2.16698">
        <ele>476</ele>
        <time>2017-09-17T14:27:27Z</time>
      </trkpt>
      <trkpt lat="44.39262" lon="2.16691">
        <ele>476</ele>
        <time>2017-09-17T14:27:31Z</time>
      </trkpt>
      <trkpt lat="44.39262" lon="2.16688">
        <ele>475</ele>
        <time>2017-09-17T14:27:33Z</time>
      </trkpt>
      <trkpt lat="44.39261" lon="2.16658">
        <ele>474</ele>
        <time>2017-09-17T14:27:51Z</time>
      </trkpt>
      <trkpt lat="44.39262" lon="2.16652">
        <ele>473</ele>
        <time>2017-09-17T14:27:54Z</time>
      </trkpt>
      <trkpt lat="44.39262" lon="2.16645">
        <ele>473</ele>
        <time>2017-09-17T14:28:00Z</time>
      </trkpt>
      <trkpt lat="44.39261" lon="2.1663">
        <ele>472</ele>
        <time>2017-09-17T14:28:08Z</time>
      </trkpt>
      <trkpt lat="44.39259" lon="2.16586">
        <ele>472</ele>
        <time>2017-09-17T14:28:35Z</time>
      </trkpt>
      <trkpt lat="44.39259" lon="2.16581">
        <ele>471</ele>
        <time>2017-09-17T14:28:38Z</time>
      </trkpt>
      <trkpt lat="44.39259" lon="2.16572">
        <ele>471</ele>
        <time>2017-09-17T14:28:44Z</time>
      </trkpt>
      <trkpt lat="44.39256" lon="2.1655">
        <ele>470</ele>
        <time>2017-09-17T14:28:54Z</time>
      </trkpt>
      <trkpt lat="44.39256" lon="2.16514">
        <ele>470</ele>
        <time>2017-09-17T14:29:14Z</time>
      </trkpt>
      <trkpt lat="44.39255" lon="2.16479">
        <ele>468</ele>
        <time>2017-09-17T14:29:34Z</time>
      </trkpt>
      <trkpt lat="44.39254" lon="2.16468">
        <ele>467</ele>
        <time>2017-09-17T14:29:40Z</time>
      </trkpt>
      <trkpt lat="44.39254" lon="2.16465">
        <ele>467</ele>
        <time>2017-09-17T14:29:42Z</time>
      </trkpt>
      <trkpt lat="44.39254" lon="2.16462">
        <ele>467</ele>
        <time>2017-09-17T14:29:44Z</time>
      </trkpt>
      <trkpt lat="44.39254" lon="2.1645">
        <ele>467</ele>
        <time>2017-09-17T14:29:52Z</time>
      </trkpt>
      <trkpt lat="44.39246" lon="2.1641">
        <ele>465</ele>
        <time>2017-09-17T14:30:20Z</time>
      </trkpt>
      <trkpt lat="44.39246" lon="2.16399">
        <ele>464</ele>
        <time>2017-09-17T14:30:26Z</time>
      </trkpt>
      <trkpt lat="44.39248" lon="2.16381">
        <ele>463</ele>
        <time>2017-09-17T14:30:37Z</time>
      </trkpt>
      <trkpt lat="44.39257" lon="2.16369">
        <ele>462</ele>
        <time>2017-09-17T14:30:47Z</time>
      </trkpt>
      <trkpt lat="44.39259" lon="2.16365">
        <ele>462</ele>
        <time>2017-09-17T14:30:50Z</time>
      </trkpt>
      <trkpt lat="44.39276" lon="2.16334">
        <ele>461</ele>
        <time>2017-09-17T14:31:14Z</time>
      </trkpt>
      <trkpt lat="44.39278" lon="2.1633">
        <ele>458</ele>
        <time>2017-09-17T14:31:17Z</time>
      </trkpt>
      <trkpt lat="44.39279" lon="2.16318">
        <ele>457</ele>
        <time>2017-09-17T14:31:23Z</time>
      </trkpt>
      <trkpt lat="44.3928" lon="2.16302">
        <ele>456</ele>
        <time>2017-09-17T14:31:33Z</time>
      </trkpt>
      <trkpt lat="44.39281" lon="2.16296">
        <ele>456</ele>
        <time>2017-09-17T14:31:37Z</time>
      </trkpt>
      <trkpt lat="44.39281" lon="2.16291">
        <ele>455</ele>
        <time>2017-09-17T14:31:40Z</time>
      </trkpt>
      <trkpt lat="44.39279" lon="2.16277">
        <ele>455</ele>
        <time>2017-09-17T14:31:48Z</time>
      </trkpt>
      <trkpt lat="44.39278" lon="2.1627">
        <ele>455</ele>
        <time>2017-09-17T14:31:52Z</time>
      </trkpt>
      <trkpt lat="44.39277" lon="2.16264">
        <ele>454</ele>
        <time>2017-09-17T14:31:56Z</time>
      </trkpt>
      <trkpt lat="44.39276" lon="2.16262">
        <ele>454</ele>
        <time>2017-09-17T14:31:58Z</time>
      </trkpt>
      <trkpt lat="44.39274" lon="2.16259">
        <ele>454</ele>
        <time>2017-09-17T14:32:00Z</time>
      </trkpt>
      <trkpt lat="44.39272" lon="2.16257">
        <ele>454</ele>
        <time>2017-09-17T14:32:03Z</time>
      </trkpt>
      <trkpt lat="44.39269" lon="2.16254">
        <ele>454</ele>
        <time>2017-09-17T14:32:07Z</time>
      </trkpt>
      <trkpt lat="44.39267" lon="2.1625">
        <ele>451</ele>
        <time>2017-09-17T14:32:10Z</time>
      </trkpt>
      <trkpt lat="44.39264" lon="2.16245">
        <ele>451</ele>
        <time>2017-09-17T14:32:13Z</time>
      </trkpt>
      <trkpt lat="44.39263" lon="2.1624">
        <ele>451</ele>
        <time>2017-09-17T14:32:18Z</time>
      </trkpt>
      <trkpt lat="44.39264" lon="2.16234">
        <ele>451</ele>
        <time>2017-09-17T14:32:25Z</time>
      </trkpt>
      <trkpt lat="44.39266" lon="2.16228">
        <ele>450</ele>
        <time>2017-09-17T14:32:28Z</time>
      </trkpt>
      <trkpt lat="44.39269" lon="2.1621">
        <ele>449</ele>
        <time>2017-09-17T14:32:37Z</time>
      </trkpt>
      <trkpt lat="44.39274" lon="2.16184">
        <ele>449</ele>
        <time>2017-09-17T14:32:51Z</time>
      </trkpt>
      <trkpt lat="44.39275" lon="2.16178">
        <ele>449</ele>
        <time>2017-09-17T14:32:55Z</time>
      </trkpt>
      <trkpt lat="44.3928" lon="2.16149">
        <ele>446</ele>
        <time>2017-09-17T14:33:12Z</time>
      </trkpt>
      <trkpt lat="44.3928" lon="2.16145">
        <ele>446</ele>
        <time>2017-09-17T14:33:15Z</time>
      </trkpt>
      <trkpt lat="44.39282" lon="2.1614">
        <ele>445</ele>
        <time>2017-09-17T14:33:19Z</time>
      </trkpt>
      <trkpt lat="44.39284" lon="2.16136">
        <ele>445</ele>
        <time>2017-09-17T14:33:22Z</time>
      </trkpt>
      <trkpt lat="44.39286" lon="2.16132">
        <ele>445</ele>
        <time>2017-09-17T14:33:24Z</time>
      </trkpt>
      <trkpt lat="44.39289" lon="2.16129">
        <ele>445</ele>
        <time>2017-09-17T14:33:27Z</time>
      </trkpt>
      <trkpt lat="44.39323" lon="2.16107">
        <ele>444</ele>
        <time>2017-09-17T14:33:57Z</time>
      </trkpt>
      <trkpt lat="44.39348" lon="2.1609">
        <ele>442</ele>
        <time>2017-09-17T14:34:19Z</time>
      </trkpt>
      <trkpt lat="44.39381" lon="2.1607">
        <ele>445</ele>
        <time>2017-09-17T14:34:49Z</time>
      </trkpt>
      <trkpt lat="44.39383" lon="2.16069">
        <ele>445</ele>
        <time>2017-09-17T14:34:51Z</time>
      </trkpt>
      <trkpt lat="44.39384" lon="2.16065">
        <ele>445</ele>
        <time>2017-09-17T14:34:54Z</time>
      </trkpt>
      <trkpt lat="44.39386" lon="2.16062">
        <ele>445</ele>
        <time>2017-09-17T14:34:57Z</time>
      </trkpt>
      <trkpt lat="44.39386" lon="2.16059">
        <ele>445</ele>
        <time>2017-09-17T14:35:02Z</time>
      </trkpt>
      <trkpt lat="44.39386" lon="2.16055">
        <ele>445</ele>
        <time>2017-09-17T14:35:05Z</time>
      </trkpt>
      <trkpt lat="44.3938" lon="2.16045">
        <ele>446</ele>
        <time>2017-09-17T14:35:15Z</time>
      </trkpt>
      <trkpt lat="44.39373" lon="2.1603">
        <ele>446</ele>
        <time>2017-09-17T14:35:26Z</time>
      </trkpt>
      <trkpt lat="44.39371" lon="2.16026">
        <ele>446</ele>
        <time>2017-09-17T14:35:29Z</time>
      </trkpt>
      <trkpt lat="44.3937" lon="2.16022">
        <ele>446</ele>
        <time>2017-09-17T14:35:32Z</time>
      </trkpt>
      <trkpt lat="44.39368" lon="2.16018">
        <ele>447</ele>
        <time>2017-09-17T14:35:34Z</time>
      </trkpt>
      <trkpt lat="44.39359" lon="2.16007">
        <ele>447</ele>
        <time>2017-09-17T14:35:43Z</time>
      </trkpt>
      <trkpt lat="44.39358" lon="2.16002">
        <ele>447</ele>
        <time>2017-09-17T14:35:46Z</time>
      </trkpt>
      <trkpt lat="44.39357" lon="2.15995">
        <ele>450</ele>
        <time>2017-09-17T14:35:52Z</time>
      </trkpt>
      <trkpt lat="44.39352" lon="2.15978">
        <ele>450</ele>
        <time>2017-09-17T14:36:04Z</time>
      </trkpt>
      <trkpt lat="44.3935" lon="2.15973">
        <ele>451</ele>
        <time>2017-09-17T14:36:07Z</time>
      </trkpt>
      <trkpt lat="44.39341" lon="2.15947">
        <ele>451</ele>
        <time>2017-09-17T14:36:22Z</time>
      </trkpt>
      <trkpt lat="44.39337" lon="2.15941">
        <ele>451</ele>
        <time>2017-09-17T14:36:26Z</time>
      </trkpt>
      <trkpt lat="44.39335" lon="2.15938">
        <ele>451</ele>
        <time>2017-09-17T14:36:28Z</time>
      </trkpt>
      <trkpt lat="44.39335" lon="2.15932">
        <ele>451</ele>
        <time>2017-09-17T14:36:31Z</time>
      </trkpt>
      <trkpt lat="44.39331" lon="2.15918">
        <ele>451</ele>
        <time>2017-09-17T14:36:39Z</time>
      </trkpt>
      <trkpt lat="44.39331" lon="2.1591">
        <ele>451</ele>
        <time>2017-09-17T14:36:44Z</time>
      </trkpt>
      <trkpt lat="44.39328" lon="2.15893">
        <ele>452</ele>
        <time>2017-09-17T14:36:54Z</time>
      </trkpt>
      <trkpt lat="44.39337" lon="2.15859">
        <ele>457</ele>
        <time>2017-09-17T14:37:13Z</time>
      </trkpt>
      <trkpt lat="44.39341" lon="2.15852">
        <ele>457</ele>
        <time>2017-09-17T14:37:18Z</time>
      </trkpt>
      <trkpt lat="44.39344" lon="2.15848">
        <ele>457</ele>
        <time>2017-09-17T14:37:21Z</time>
      </trkpt>
      <trkpt lat="44.39351" lon="2.15837">
        <ele>457</ele>
        <time>2017-09-17T14:37:30Z</time>
      </trkpt>
      <trkpt lat="44.39354" lon="2.15832">
        <ele>459</ele>
        <time>2017-09-17T14:37:33Z</time>
      </trkpt>
      <trkpt lat="44.39356" lon="2.1583">
        <ele>460</ele>
        <time>2017-09-17T14:37:36Z</time>
      </trkpt>
      <trkpt lat="44.39359" lon="2.15826">
        <ele>460</ele>
        <time>2017-09-17T14:37:39Z</time>
      </trkpt>
      <trkpt lat="44.39362" lon="2.15823">
        <ele>460</ele>
        <time>2017-09-17T14:37:42Z</time>
      </trkpt>
      <trkpt lat="44.39388" lon="2.1578">
        <ele>463</ele>
        <time>2017-09-17T14:38:12Z</time>
      </trkpt>
      <trkpt lat="44.3941" lon="2.15736">
        <ele>468</ele>
        <time>2017-09-17T14:38:43Z</time>
      </trkpt>
      <trkpt lat="44.39413" lon="2.15731">
        <ele>468</ele>
        <time>2017-09-17T14:38:46Z</time>
      </trkpt>
      <trkpt lat="44.39416" lon="2.15727">
        <ele>467</ele>
        <time>2017-09-17T14:38:49Z</time>
      </trkpt>
      <trkpt lat="44.39419" lon="2.15724">
        <ele>471</ele>
        <time>2017-09-17T14:38:52Z</time>
      </trkpt>
      <trkpt lat="44.39426" lon="2.15714">
        <ele>471</ele>
        <time>2017-09-17T14:39:01Z</time>
      </trkpt>
      <trkpt lat="44.39433" lon="2.15699">
        <ele>471</ele>
        <time>2017-09-17T14:39:11Z</time>
      </trkpt>
      <trkpt lat="44.39444" lon="2.15676">
        <ele>472</ele>
        <time>2017-09-17T14:39:26Z</time>
      </trkpt>
      <trkpt lat="44.39445" lon="2.15673">
        <ele>472</ele>
        <time>2017-09-17T14:39:28Z</time>
      </trkpt>
      <trkpt lat="44.39447" lon="2.15666">
        <ele>474</ele>
        <time>2017-09-17T14:39:32Z</time>
      </trkpt>
      <trkpt lat="44.3945" lon="2.15646">
        <ele>474</ele>
        <time>2017-09-17T14:39:44Z</time>
      </trkpt>
      <trkpt lat="44.39445" lon="2.15614">
        <ele>475</ele>
        <time>2017-09-17T14:40:02Z</time>
      </trkpt>
      <trkpt lat="44.39436" lon="2.15586">
        <ele>476</ele>
        <time>2017-09-17T14:40:20Z</time>
      </trkpt>
      <trkpt lat="44.39434" lon="2.15581">
        <ele>479</ele>
        <time>2017-09-17T14:40:23Z</time>
      </trkpt>
      <trkpt lat="44.39428" lon="2.15567">
        <ele>479</ele>
        <time>2017-09-17T14:40:33Z</time>
      </trkpt>
      <trkpt lat="44.39423" lon="2.1556">
        <ele>480</ele>
        <time>2017-09-17T14:40:39Z</time>
      </trkpt>
      <trkpt lat="44.39408" lon="2.15544">
        <ele>478</ele>
        <time>2017-09-17T14:40:50Z</time>
      </trkpt>
      <trkpt lat="44.39397" lon="2.15538">
        <ele>478</ele>
        <time>2017-09-17T14:41:01Z</time>
      </trkpt>
      <trkpt lat="44.39399" lon="2.15538">
        <ele>478</ele>
        <time>2017-09-17T14:41:08Z</time>
      </trkpt>
      <trkpt lat="44.39401" lon="2.15539">
        <ele>478</ele>
        <time>2017-09-17T14:41:10Z</time>
      </trkpt>
      <trkpt lat="44.39411" lon="2.15541">
        <ele>478</ele>
        <time>2017-09-17T14:41:19Z</time>
      </trkpt>
      <trkpt lat="44.39414" lon="2.15542">
        <ele>478</ele>
        <time>2017-09-17T14:41:22Z</time>
      </trkpt>
      <trkpt lat="44.39419" lon="2.1554">
        <ele>481</ele>
        <time>2017-09-17T14:41:28Z</time>
      </trkpt>
      <trkpt lat="44.39426" lon="2.15537">
        <ele>481</ele>
        <time>2017-09-17T14:41:37Z</time>
      </trkpt>
      <trkpt lat="44.3943" lon="2.15536">
        <ele>481</ele>
        <time>2017-09-17T14:41:41Z</time>
      </trkpt>
      <trkpt lat="44.39435" lon="2.15536">
        <ele>481</ele>
        <time>2017-09-17T14:41:47Z</time>
      </trkpt>
      <trkpt lat="44.39438" lon="2.15535">
        <ele>481</ele>
        <time>2017-09-17T14:41:50Z</time>
      </trkpt>
      <trkpt lat="44.39446" lon="2.15535">
        <ele>481</ele>
        <time>2017-09-17T14:42:02Z</time>
      </trkpt>
      <trkpt lat="44.39453" lon="2.15533">
        <ele>482</ele>
        <time>2017-09-17T14:42:08Z</time>
      </trkpt>
      <trkpt lat="44.39468" lon="2.15527">
        <ele>482</ele>
        <time>2017-09-17T14:42:20Z</time>
      </trkpt>
      <trkpt lat="44.39481" lon="2.15521">
        <ele>483</ele>
        <time>2017-09-17T14:42:30Z</time>
      </trkpt>
      <trkpt lat="44.39485" lon="2.15519">
        <ele>484</ele>
        <time>2017-09-17T14:42:33Z</time>
      </trkpt>
      <trkpt lat="44.39492" lon="2.15516">
        <ele>485</ele>
        <time>2017-09-17T14:42:41Z</time>
      </trkpt>
      <trkpt lat="44.395" lon="2.15512">
        <ele>485</ele>
        <time>2017-09-17T14:42:48Z</time>
      </trkpt>
      <trkpt lat="44.39504" lon="2.15511">
        <ele>487</ele>
        <time>2017-09-17T14:42:51Z</time>
      </trkpt>
      <trkpt lat="44.39515" lon="2.15505">
        <ele>487</ele>
        <time>2017-09-17T14:43:00Z</time>
      </trkpt>
      <trkpt lat="44.39518" lon="2.15503">
        <ele>487</ele>
        <time>2017-09-17T14:43:02Z</time>
      </trkpt>
      <trkpt lat="44.39521" lon="2.15503">
        <ele>486</ele>
        <time>2017-09-17T14:43:04Z</time>
      </trkpt>
      <trkpt lat="44.39527" lon="2.15499">
        <ele>488</ele>
        <time>2017-09-17T14:43:10Z</time>
      </trkpt>
      <trkpt lat="44.39558" lon="2.15493">
        <ele>489</ele>
        <time>2017-09-17T14:43:40Z</time>
      </trkpt>
      <trkpt lat="44.39562" lon="2.15492">
        <ele>489</ele>
        <time>2017-09-17T14:43:43Z</time>
      </trkpt>
      <trkpt lat="44.39568" lon="2.15484">
        <ele>489</ele>
        <time>2017-09-17T14:43:49Z</time>
      </trkpt>
      <trkpt lat="44.39568" lon="2.15478">
        <ele>489</ele>
        <time>2017-09-17T14:43:53Z</time>
      </trkpt>
      <trkpt lat="44.39569" lon="2.15466">
        <ele>488</ele>
        <time>2017-09-18T07:43:36Z</time>
      </trkpt>
      <trkpt lat="44.3957" lon="2.15461">
        <ele>488</ele>
        <time>2017-09-17T14:44:04Z</time>
      </trkpt>
      <trkpt lat="44.3957" lon="2.15456">
        <ele>488</ele>
        <time>2017-09-17T14:44:08Z</time>
      </trkpt>
      <trkpt lat="44.3957" lon="2.15446">
        <ele>488</ele>
        <time>2017-09-17T14:44:14Z</time>
      </trkpt>
      <trkpt lat="44.39568" lon="2.15416">
        <ele>485</ele>
        <time>2017-09-17T14:44:30Z</time>
      </trkpt>
      <trkpt lat="44.39568" lon="2.15412">
        <ele>485</ele>
        <time>2017-09-17T14:44:33Z</time>
      </trkpt>
      <trkpt lat="44.39566" lon="2.1536">
        <ele>483</ele>
        <time>2017-09-17T14:45:05Z</time>
      </trkpt>
      <trkpt lat="44.39566" lon="2.15306">
        <ele>483</ele>
        <time>2017-09-17T14:45:36Z</time>
      </trkpt>
      <trkpt lat="44.39566" lon="2.15256">
        <ele>484</ele>
        <time>2017-09-17T14:46:07Z</time>
      </trkpt>
      <trkpt lat="44.39567" lon="2.15229">
        <ele>486</ele>
        <time>2017-09-17T14:46:24Z</time>
      </trkpt>
      <trkpt lat="44.39568" lon="2.15212">
        <ele>486</ele>
        <time>2017-09-17T14:46:34Z</time>
      </trkpt>
      <trkpt lat="44.3958" lon="2.15175">
        <ele>488</ele>
        <time>2017-09-17T14:46:58Z</time>
      </trkpt>
      <trkpt lat="44.39581" lon="2.15172">
        <ele>488</ele>
        <time>2017-09-17T14:47:00Z</time>
      </trkpt>
      <trkpt lat="44.39593" lon="2.1516">
        <ele>488</ele>
        <time>2017-09-17T14:47:13Z</time>
      </trkpt>
      <trkpt lat="44.39602" lon="2.15149">
        <ele>489</ele>
        <time>2017-09-17T14:47:23Z</time>
      </trkpt>
      <trkpt lat="44.39622" lon="2.15124">
        <ele>489</ele>
        <time>2017-09-17T14:47:46Z</time>
      </trkpt>
      <trkpt lat="44.39624" lon="2.1512">
        <ele>489</ele>
        <time>2017-09-17T14:47:48Z</time>
      </trkpt>
      <trkpt lat="44.39649" lon="2.15082">
        <ele>492</ele>
        <time>2017-09-17T14:48:20Z</time>
      </trkpt>
      <trkpt lat="44.39655" lon="2.15072">
        <ele>492</ele>
        <time>2017-09-17T14:48:28Z</time>
      </trkpt>
      <trkpt lat="44.39658" lon="2.15066">
        <ele>492</ele>
        <time>2017-09-17T14:48:32Z</time>
      </trkpt>
      <trkpt lat="44.39676" lon="2.15036">
        <ele>492</ele>
        <time>2017-09-17T14:48:55Z</time>
      </trkpt>
      <trkpt lat="44.39678" lon="2.15032">
        <ele>492</ele>
        <time>2017-09-17T14:48:58Z</time>
      </trkpt>
      <trkpt lat="44.3968" lon="2.15027">
        <ele>492</ele>
        <time>2017-09-17T14:49:02Z</time>
      </trkpt>
      <trkpt lat="44.39687" lon="2.15019">
        <ele>493</ele>
        <time>2017-09-17T14:49:09Z</time>
      </trkpt>
      <trkpt lat="44.39692" lon="2.15016">
        <ele>492</ele>
        <time>2017-09-17T14:49:13Z</time>
      </trkpt>
      <trkpt lat="44.39694" lon="2.15016">
        <ele>492</ele>
        <time>2017-09-17T14:49:15Z</time>
      </trkpt>
      <trkpt lat="44.39703" lon="2.15019">
        <ele>492</ele>
        <time>2017-09-17T14:49:22Z</time>
      </trkpt>
      <trkpt lat="44.39706" lon="2.15021">
        <ele>492</ele>
        <time>2017-09-17T14:49:25Z</time>
      </trkpt>
      <trkpt lat="44.39719" lon="2.15016">
        <ele>491</ele>
        <time>2017-09-17T14:49:36Z</time>
      </trkpt>
      <trkpt lat="44.39726" lon="2.15011">
        <ele>491</ele>
        <time>2017-09-17T14:49:42Z</time>
      </trkpt>
      <trkpt lat="44.39731" lon="2.1501">
        <ele>491</ele>
        <time>2017-09-17T14:49:46Z</time>
      </trkpt>
      <trkpt lat="44.39734" lon="2.15008">
        <ele>491</ele>
        <time>2017-09-17T14:49:51Z</time>
      </trkpt>
      <trkpt lat="44.39741" lon="2.15007">
        <ele>491</ele>
        <time>2017-09-17T14:50:01Z</time>
      </trkpt>
      <trkpt lat="44.39747" lon="2.15006">
        <ele>491</ele>
        <time>2017-09-17T14:50:08Z</time>
      </trkpt>
      <trkpt lat="44.39752" lon="2.15008">
        <ele>490</ele>
        <time>2017-09-17T14:50:32Z</time>
      </trkpt>
      <trkpt lat="44.3975" lon="2.15009">
        <ele>491</ele>
        <time>2017-09-17T14:51:05Z</time>
      </trkpt>
      <trkpt lat="44.39744" lon="2.15007">
        <ele>491</ele>
        <time>2017-09-17T14:51:22Z</time>
      </trkpt>
      <trkpt lat="44.39742" lon="2.15008">
        <ele>491</ele>
        <time>2017-09-17T14:51:29Z</time>
      </trkpt>
      <trkpt lat="44.39738" lon="2.15011">
        <ele>491</ele>
        <time>2017-09-17T14:51:34Z</time>
      </trkpt>
      <trkpt lat="44.39734" lon="2.15012">
        <ele>491</ele>
        <time>2017-09-17T14:51:37Z</time>
      </trkpt>
      <trkpt lat="44.39732" lon="2.15012">
        <ele>491</ele>
        <time>2017-09-17T14:51:40Z</time>
      </trkpt>
      <trkpt lat="44.39728" lon="2.15014">
        <ele>491</ele>
        <time>2017-09-17T14:51:43Z</time>
      </trkpt>
      <trkpt lat="44.39727" lon="2.15015">
        <ele>491</ele>
        <time>2017-09-17T14:51:48Z</time>
      </trkpt>
      <trkpt lat="44.39726" lon="2.15018">
        <ele>491</ele>
        <time>2017-09-17T14:51:49Z</time>
      </trkpt>
      <trkpt lat="44.39725" lon="2.15021">
        <ele>491</ele>
        <time>2017-09-17T14:52:00Z</time>
      </trkpt>
      <trkpt lat="44.39724" lon="2.15024">
        <ele>491</ele>
        <time>2017-09-17T14:52:09Z</time>
      </trkpt>
      <trkpt lat="44.39725" lon="2.15029">
        <ele>491</ele>
        <time>2017-09-17T14:53:55Z</time>
      </trkpt>
      <trkpt lat="44.39728" lon="2.1503">
        <ele>491</ele>
        <time>2017-09-17T14:52:37Z</time>
      </trkpt>
      <trkpt lat="44.39726" lon="2.15026">
        <ele>491</ele>
        <time>2017-09-17T14:52:49Z</time>
      </trkpt>
      <trkpt lat="44.39728" lon="2.15021">
        <ele>491</ele>
        <time>2017-09-17T14:52:52Z</time>
      </trkpt>
      <trkpt lat="44.39735" lon="2.15018">
        <ele>491</ele>
        <time>2017-09-17T14:53:01Z</time>
      </trkpt>
      <trkpt lat="44.39734" lon="2.15021">
        <ele>491</ele>
        <time>2017-09-17T14:53:43Z</time>
      </trkpt>
      <trkpt lat="44.39731" lon="2.15023">
        <ele>491</ele>
        <time>2017-09-17T14:53:46Z</time>
      </trkpt>
      <trkpt lat="44.39728" lon="2.15023">
        <ele>491</ele>
        <time>2017-09-17T14:53:49Z</time>
      </trkpt>
      <trkpt lat="44.39725" lon="2.15025">
        <ele>491</ele>
        <time>2017-09-17T14:53:51Z</time>
      </trkpt>
      <trkpt lat="44.39725" lon="2.15029">
        <ele>491</ele>
        <time>2017-09-17T14:53:55Z</time>
      </trkpt>
      <trkpt lat="44.39727" lon="2.1503">
        <ele>491</ele>
        <time>2017-09-17T14:53:59Z</time>
      </trkpt>
      <trkpt lat="44.3973" lon="2.15031">
        <ele>491</ele>
        <time>2017-09-17T14:54:04Z</time>
      </trkpt>
      <trkpt lat="44.39735" lon="2.1503">
        <ele>491</ele>
        <time>2017-09-17T14:54:28Z</time>
      </trkpt>
      <trkpt lat="44.39737" lon="2.1503">
        <ele>491</ele>
        <time>2017-09-17T14:54:30Z</time>
      </trkpt>
      <trkpt lat="44.39739" lon="2.15031">
        <ele>491</ele>
        <time>2017-09-17T14:54:34Z</time>
      </trkpt>
      <trkpt lat="44.39742" lon="2.15029">
        <ele>491</ele>
        <time>2017-09-17T14:54:36Z</time>
      </trkpt>
      <trkpt lat="44.39744" lon="2.15028">
        <ele>491</ele>
        <time>2017-09-17T14:54:39Z</time>
      </trkpt>
      <trkpt lat="44.39743" lon="2.15028">
        <ele>491</ele>
        <time>2017-09-17T14:55:29Z</time>
      </trkpt>
      <trkpt lat="44.39738" lon="2.15027">
        <ele>491</ele>
        <time>2017-09-17T14:55:41Z</time>
      </trkpt>
      <trkpt lat="44.397" lon="2.1502">
        <ele>492</ele>
        <time>2017-09-18T07:37:45Z</time>
      </trkpt>
      <trkpt lat="44.39699" lon="2.1502">
        <ele>492</ele>
        <time>2017-09-18T07:37:46Z</time>
      </trkpt>
      <trkpt lat="44.39697" lon="2.15018">
        <ele>492</ele>
        <time>2017-09-18T07:37:48Z</time>
      </trkpt>
      <trkpt lat="44.39695" lon="2.15017">
        <ele>492</ele>
        <time>2017-09-18T07:37:50Z</time>
      </trkpt>
      <trkpt lat="44.39693" lon="2.15017">
        <ele>492</ele>
        <time>2017-09-18T07:37:52Z</time>
      </trkpt>
      <trkpt lat="44.39691" lon="2.15018">
        <ele>492</ele>
        <time>2017-09-18T07:37:54Z</time>
      </trkpt>
      <trkpt lat="44.3969" lon="2.15018">
        <ele>492</ele>
        <time>2017-09-18T07:37:56Z</time>
      </trkpt>
      <trkpt lat="44.39684" lon="2.15022">
        <ele>493</ele>
        <time>2017-09-18T07:38:02Z</time>
      </trkpt>
      <trkpt lat="44.39679" lon="2.15029">
        <ele>492</ele>
        <time>2017-09-18T07:38:10Z</time>
      </trkpt>
      <trkpt lat="44.39673" lon="2.1504">
        <ele>492</ele>
        <time>2017-09-18T07:38:19Z</time>
      </trkpt>
      <trkpt lat="44.39672" lon="2.15042">
        <ele>492</ele>
        <time>2017-09-18T07:38:21Z</time>
      </trkpt>
      <trkpt lat="44.3967" lon="2.15044">
        <ele>492</ele>
        <time>2017-09-18T07:38:23Z</time>
      </trkpt>
      <trkpt lat="44.39656" lon="2.15068">
        <ele>492</ele>
        <time>2017-09-18T07:38:43Z</time>
      </trkpt>
      <trkpt lat="44.39654" lon="2.15071">
        <ele>492</ele>
        <time>2017-09-18T07:38:47Z</time>
      </trkpt>
      <trkpt lat="44.39651" lon="2.15078">
        <ele>492</ele>
        <time>2017-09-18T07:39:20Z</time>
      </trkpt>
      <trkpt lat="44.39648" lon="2.1508">
        <ele>492</ele>
        <time>2017-09-18T07:39:24Z</time>
      </trkpt>
      <trkpt lat="44.39637" lon="2.15098">
        <ele>490</ele>
        <time>2017-09-18T07:39:39Z</time>
      </trkpt>
      <trkpt lat="44.39635" lon="2.15102">
        <ele>490</ele>
        <time>2017-09-18T07:39:43Z</time>
      </trkpt>
      <trkpt lat="44.39619" lon="2.15129">
        <ele>489</ele>
        <time>2017-09-18T07:40:05Z</time>
      </trkpt>
      <trkpt lat="44.39591" lon="2.15161">
        <ele>488</ele>
        <time>2017-09-18T07:40:36Z</time>
      </trkpt>
      <trkpt lat="44.39587" lon="2.15164">
        <ele>488</ele>
        <time>2017-09-18T07:40:39Z</time>
      </trkpt>
      <trkpt lat="44.39579" lon="2.15176">
        <ele>488</ele>
        <time>2017-09-18T07:40:48Z</time>
      </trkpt>
      <trkpt lat="44.39573" lon="2.15196">
        <ele>487</ele>
        <time>2017-09-18T07:41:01Z</time>
      </trkpt>
      <trkpt lat="44.39569" lon="2.15211">
        <ele>486</ele>
        <time>2017-09-18T07:41:11Z</time>
      </trkpt>
      <trkpt lat="44.39569" lon="2.15216">
        <ele>486</ele>
        <time>2017-09-18T07:41:14Z</time>
      </trkpt>
      <trkpt lat="44.39569" lon="2.15225">
        <ele>486</ele>
        <time>2017-09-18T07:41:20Z</time>
      </trkpt>
      <trkpt lat="44.39568" lon="2.1528">
        <ele>484</ele>
        <time>2017-09-18T07:41:51Z</time>
      </trkpt>
      <trkpt lat="44.39568" lon="2.15339">
        <ele>482</ele>
        <time>2017-09-18T07:42:23Z</time>
      </trkpt>
      <trkpt lat="44.3957" lon="2.15387">
        <ele>484</ele>
        <time>2017-09-18T07:42:50Z</time>
      </trkpt>
      <trkpt lat="44.39571" lon="2.15416">
        <ele>485</ele>
        <time>2017-09-18T07:43:07Z</time>
      </trkpt>
      <trkpt lat="44.39572" lon="2.15421">
        <ele>487</ele>
        <time>2017-09-18T07:43:10Z</time>
      </trkpt>
      <trkpt lat="44.39572" lon="2.15431">
        <ele>487</ele>
        <time>2017-09-18T07:43:17Z</time>
      </trkpt>
      <trkpt lat="44.39572" lon="2.15438">
        <ele>487</ele>
        <time>2017-09-18T07:43:21Z</time>
      </trkpt>
      <trkpt lat="44.39573" lon="2.15445">
        <ele>487</ele>
        <time>2017-09-18T07:43:25Z</time>
      </trkpt>
      <trkpt lat="44.39568" lon="2.1546">
        <ele>488</ele>
        <time>2017-09-18T07:43:34Z</time>
      </trkpt>
      <trkpt lat="44.39569" lon="2.15466">
        <ele>488</ele>
        <time>2017-09-18T07:43:36Z</time>
      </trkpt>
      <trkpt lat="44.3957" lon="2.15473">
        <ele>489</ele>
        <time>2017-09-18T07:43:40Z</time>
      </trkpt>
      <trkpt lat="44.39573" lon="2.15478">
        <ele>489</ele>
        <time>2017-09-18T07:43:45Z</time>
      </trkpt>
      <trkpt lat="44.39576" lon="2.1548">
        <ele>489</ele>
        <time>2017-09-18T07:43:47Z</time>
      </trkpt>
      <trkpt lat="44.39579" lon="2.15483">
        <ele>489</ele>
        <time>2017-09-18T07:43:50Z</time>
      </trkpt>
      <trkpt lat="44.39591" lon="2.15495">
        <ele>489</ele>
        <time>2017-09-18T07:44:04Z</time>
      </trkpt>
      <trkpt lat="44.39602" lon="2.15499">
        <ele>488</ele>
        <time>2017-09-18T07:44:14Z</time>
      </trkpt>
      <trkpt lat="44.39606" lon="2.155">
        <ele>486</ele>
        <time>2017-09-18T07:44:17Z</time>
      </trkpt>
      <trkpt lat="44.39608" lon="2.15503">
        <ele>485</ele>
        <time>2017-09-18T07:44:20Z</time>
      </trkpt>
      <trkpt lat="44.39611" lon="2.1551">
        <ele>485</ele>
        <time>2017-09-18T07:44:25Z</time>
      </trkpt>
      <trkpt lat="44.39613" lon="2.15514">
        <ele>484</ele>
        <time>2017-09-18T07:44:28Z</time>
      </trkpt>
      <trkpt lat="44.39616" lon="2.15518">
        <ele>484</ele>
        <time>2017-09-18T07:44:32Z</time>
      </trkpt>
      <trkpt lat="44.39619" lon="2.15521">
        <ele>483</ele>
        <time>2017-09-18T07:44:35Z</time>
      </trkpt>
      <trkpt lat="44.39622" lon="2.1553">
        <ele>483</ele>
        <time>2017-09-18T07:44:44Z</time>
      </trkpt>
      <trkpt lat="44.39625" lon="2.15535">
        <ele>482</ele>
        <time>2017-09-18T07:44:48Z</time>
      </trkpt>
      <trkpt lat="44.39626" lon="2.1554">
        <ele>482</ele>
        <time>2017-09-18T07:44:52Z</time>
      </trkpt>
      <trkpt lat="44.3963" lon="2.15545">
        <ele>481</ele>
        <time>2017-09-18T07:44:56Z</time>
      </trkpt>
      <trkpt lat="44.39637" lon="2.1555">
        <ele>481</ele>
        <time>2017-09-18T07:45:02Z</time>
      </trkpt>
      <trkpt lat="44.39659" lon="2.15563">
        <ele>479</ele>
        <time>2017-09-18T07:45:23Z</time>
      </trkpt>
      <trkpt lat="44.39668" lon="2.15567">
        <ele>475</ele>
        <time>2017-09-18T07:45:32Z</time>
      </trkpt>
      <trkpt lat="44.39672" lon="2.15569">
        <ele>475</ele>
        <time>2017-09-18T07:45:36Z</time>
      </trkpt>
      <trkpt lat="44.39677" lon="2.15571">
        <ele>475</ele>
        <time>2017-09-18T07:45:40Z</time>
      </trkpt>
      <trkpt lat="44.39686" lon="2.15573">
        <ele>475</ele>
        <time>2017-09-18T07:45:48Z</time>
      </trkpt>
      <trkpt lat="44.3969" lon="2.15574">
        <ele>475</ele>
        <time>2017-09-18T07:45:52Z</time>
      </trkpt>
      <trkpt lat="44.39694" lon="2.15576">
        <ele>475</ele>
        <time>2017-09-18T07:45:56Z</time>
      </trkpt>
      <trkpt lat="44.39698" lon="2.15578">
        <ele>474</ele>
        <time>2017-09-18T07:46:01Z</time>
      </trkpt>
      <trkpt lat="44.39707" lon="2.15579">
        <ele>474</ele>
        <time>2017-09-18T07:46:12Z</time>
      </trkpt>
      <trkpt lat="44.39711" lon="2.15581">
        <ele>474</ele>
        <time>2017-09-18T07:46:16Z</time>
      </trkpt>
      <trkpt lat="44.39714" lon="2.15582">
        <ele>474</ele>
        <time>2017-09-18T07:46:19Z</time>
      </trkpt>
      <trkpt lat="44.39723" lon="2.15583">
        <ele>473</ele>
        <time>2017-09-18T07:46:30Z</time>
      </trkpt>
      <trkpt lat="44.3973" lon="2.15586">
        <ele>469</ele>
        <time>2017-09-18T07:46:37Z</time>
      </trkpt>
      <trkpt lat="44.39754" lon="2.15589">
        <ele>470</ele>
        <time>2017-09-18T07:47:04Z</time>
      </trkpt>
      <trkpt lat="44.39757" lon="2.15589">
        <ele>470</ele>
        <time>2017-09-18T07:47:06Z</time>
      </trkpt>
      <trkpt lat="44.39761" lon="2.1559">
        <ele>470</ele>
        <time>2017-09-18T07:47:09Z</time>
      </trkpt>
      <trkpt lat="44.39764" lon="2.15591">
        <ele>470</ele>
        <time>2017-09-18T07:47:12Z</time>
      </trkpt>
      <trkpt lat="44.39778" lon="2.15593">
        <ele>470</ele>
        <time>2017-09-18T07:47:25Z</time>
      </trkpt>
      <trkpt lat="44.39783" lon="2.15592">
        <ele>471</ele>
        <time>2017-09-18T07:47:31Z</time>
      </trkpt>
      <trkpt lat="44.39804" lon="2.15596">
        <ele>471</ele>
        <time>2017-09-18T07:48:01Z</time>
      </trkpt>
      <trkpt lat="44.39808" lon="2.15597">
        <ele>471</ele>
        <time>2017-09-18T07:48:08Z</time>
      </trkpt>
      <trkpt lat="44.39812" lon="2.15598">
        <ele>471</ele>
        <time>2017-09-18T07:48:13Z</time>
      </trkpt>
      <trkpt lat="44.39822" lon="2.156">
        <ele>472</ele>
        <time>2017-09-18T07:48:24Z</time>
      </trkpt>
      <trkpt lat="44.39827" lon="2.15601">
        <ele>472</ele>
        <time>2017-09-18T07:48:28Z</time>
      </trkpt>
      <trkpt lat="44.39831" lon="2.15602">
        <ele>472</ele>
        <time>2017-09-18T07:48:33Z</time>
      </trkpt>
      <trkpt lat="44.39838" lon="2.15603">
        <ele>475</ele>
        <time>2017-09-18T07:48:42Z</time>
      </trkpt>
      <trkpt lat="44.39844" lon="2.15605">
        <ele>475</ele>
        <time>2017-09-18T07:48:48Z</time>
      </trkpt>
      <trkpt lat="44.39849" lon="2.15606">
        <ele>475</ele>
        <time>2017-09-18T07:48:54Z</time>
      </trkpt>
      <trkpt lat="44.39854" lon="2.15608">
        <ele>475</ele>
        <time>2017-09-18T07:49:00Z</time>
      </trkpt>
      <trkpt lat="44.39858" lon="2.1561">
        <ele>476</ele>
        <time>2017-09-18T07:49:06Z</time>
      </trkpt>
      <trkpt lat="44.39863" lon="2.15612">
        <ele>476</ele>
        <time>2017-09-18T07:49:10Z</time>
      </trkpt>
      <trkpt lat="44.39869" lon="2.15614">
        <ele>476</ele>
        <time>2017-09-18T07:49:16Z</time>
      </trkpt>
      <trkpt lat="44.39875" lon="2.15617">
        <ele>476</ele>
        <time>2017-09-18T07:49:22Z</time>
      </trkpt>
      <trkpt lat="44.3988" lon="2.15621">
        <ele>477</ele>
        <time>2017-09-18T07:49:28Z</time>
      </trkpt>
      <trkpt lat="44.39883" lon="2.15624">
        <ele>477</ele>
        <time>2017-09-18T07:49:31Z</time>
      </trkpt>
      <trkpt lat="44.39887" lon="2.15627">
        <ele>477</ele>
        <time>2017-09-18T07:49:34Z</time>
      </trkpt>
      <trkpt lat="44.3989" lon="2.15629">
        <ele>477</ele>
        <time>2017-09-18T07:49:37Z</time>
      </trkpt>
      <trkpt lat="44.39894" lon="2.15631">
        <ele>477</ele>
        <time>2017-09-18T07:49:40Z</time>
      </trkpt>
      <trkpt lat="44.39897" lon="2.15633">
        <ele>478</ele>
        <time>2017-09-18T07:49:43Z</time>
      </trkpt>
      <trkpt lat="44.39906" lon="2.15637">
        <ele>478</ele>
        <time>2017-09-18T07:49:52Z</time>
      </trkpt>
      <trkpt lat="44.39918" lon="2.15644">
        <ele>481</ele>
        <time>2017-09-18T07:50:03Z</time>
      </trkpt>
      <trkpt lat="44.39926" lon="2.15647">
        <ele>481</ele>
        <time>2017-09-18T07:50:09Z</time>
      </trkpt>
      <trkpt lat="44.39936" lon="2.15651">
        <ele>482</ele>
        <time>2017-09-18T07:50:18Z</time>
      </trkpt>
      <trkpt lat="44.39942" lon="2.15651">
        <ele>482</ele>
        <time>2017-09-18T07:50:30Z</time>
      </trkpt>
      <trkpt lat="44.39946" lon="2.15652">
        <ele>482</ele>
        <time>2017-09-18T07:50:34Z</time>
      </trkpt>
      <trkpt lat="44.3995" lon="2.15652">
        <ele>482</ele>
        <time>2017-09-18T07:50:39Z</time>
      </trkpt>
      <trkpt lat="44.39956" lon="2.15652">
        <ele>482</ele>
        <time>2017-09-18T07:50:45Z</time>
      </trkpt>
      <trkpt lat="44.39964" lon="2.15649">
        <ele>482</ele>
        <time>2017-09-18T07:50:54Z</time>
      </trkpt>
      <trkpt lat="44.39977" lon="2.15642">
        <ele>483</ele>
        <time>2017-09-18T07:51:09Z</time>
      </trkpt>
      <trkpt lat="44.39981" lon="2.15642">
        <ele>483</ele>
        <time>2017-09-18T07:51:15Z</time>
      </trkpt>
      <trkpt lat="44.39987" lon="2.15641">
        <ele>483</ele>
        <time>2017-09-18T07:51:23Z</time>
      </trkpt>
      <trkpt lat="44.39992" lon="2.15641">
        <ele>483</ele>
        <time>2017-09-18T07:51:30Z</time>
      </trkpt>
      <trkpt lat="44.40005" lon="2.15642">
        <ele>486</ele>
        <time>2017-09-18T07:51:44Z</time>
      </trkpt>
      <trkpt lat="44.40011" lon="2.15642">
        <ele>486</ele>
        <time>2017-09-18T07:51:50Z</time>
      </trkpt>
      <trkpt lat="44.40016" lon="2.15644">
        <ele>486</ele>
        <time>2017-09-18T07:52:00Z</time>
      </trkpt>
      <trkpt lat="44.40022" lon="2.15642">
        <ele>487</ele>
        <time>2017-09-18T07:52:11Z</time>
      </trkpt>
      <trkpt lat="44.40028" lon="2.15639">
        <ele>487</ele>
        <time>2017-09-18T07:52:17Z</time>
      </trkpt>
      <trkpt lat="44.40034" lon="2.1564">
        <ele>487</ele>
        <time>2017-09-18T07:52:23Z</time>
      </trkpt>
      <trkpt lat="44.40038" lon="2.15637">
        <ele>487</ele>
        <time>2017-09-18T07:52:27Z</time>
      </trkpt>
      <trkpt lat="44.40043" lon="2.15635">
        <ele>488</ele>
        <time>2017-09-18T07:52:30Z</time>
      </trkpt>
      <trkpt lat="44.40048" lon="2.15632">
        <ele>488</ele>
        <time>2017-09-18T07:52:34Z</time>
      </trkpt>
      <trkpt lat="44.40055" lon="2.15626">
        <ele>488</ele>
        <time>2017-09-18T07:52:44Z</time>
      </trkpt>
      <trkpt lat="44.40059" lon="2.15624">
        <ele>488</ele>
        <time>2017-09-18T07:52:49Z</time>
      </trkpt>
      <trkpt lat="44.40063" lon="2.15621">
        <ele>488</ele>
        <time>2017-09-18T07:52:55Z</time>
      </trkpt>
      <trkpt lat="44.40068" lon="2.15618">
        <ele>489</ele>
        <time>2017-09-18T07:53:01Z</time>
      </trkpt>
      <trkpt lat="44.40073" lon="2.15615">
        <ele>489</ele>
        <time>2017-09-18T07:53:09Z</time>
      </trkpt>
      <trkpt lat="44.40078" lon="2.15613">
        <ele>489</ele>
        <time>2017-09-18T07:53:15Z</time>
      </trkpt>
      <trkpt lat="44.40084" lon="2.15609">
        <ele>493</ele>
        <time>2017-09-18T07:53:22Z</time>
      </trkpt>
      <trkpt lat="44.40089" lon="2.15606">
        <ele>493</ele>
        <time>2017-09-18T07:53:29Z</time>
      </trkpt>
      <trkpt lat="44.40092" lon="2.15604">
        <ele>493</ele>
        <time>2017-09-18T07:53:34Z</time>
      </trkpt>
      <trkpt lat="44.40093" lon="2.15599">
        <ele>493</ele>
        <time>2017-09-18T07:54:20Z</time>
      </trkpt>
      <trkpt lat="44.40097" lon="2.15594">
        <ele>493</ele>
        <time>2017-09-18T07:54:29Z</time>
      </trkpt>
      <trkpt lat="44.40109" lon="2.15583">
        <ele>493</ele>
        <time>2017-09-18T07:54:41Z</time>
      </trkpt>
      <trkpt lat="44.40118" lon="2.15576">
        <ele>494</ele>
        <time>2017-09-18T07:54:50Z</time>
      </trkpt>
      <trkpt lat="44.40121" lon="2.15575">
        <ele>494</ele>
        <time>2017-09-18T07:54:52Z</time>
      </trkpt>
      <trkpt lat="44.40125" lon="2.15573">
        <ele>494</ele>
        <time>2017-09-18T07:54:55Z</time>
      </trkpt>
      <trkpt lat="44.40129" lon="2.15571">
        <ele>494</ele>
        <time>2017-09-18T07:54:58Z</time>
      </trkpt>
      <trkpt lat="44.40132" lon="2.1557">
        <ele>494</ele>
        <time>2017-09-18T07:55:00Z</time>
      </trkpt>
      <trkpt lat="44.40137" lon="2.15567">
        <ele>495</ele>
        <time>2017-09-18T07:55:07Z</time>
      </trkpt>
      <trkpt lat="44.40146" lon="2.15562">
        <ele>495</ele>
        <time>2017-09-18T07:55:17Z</time>
      </trkpt>
      <trkpt lat="44.4015" lon="2.15559">
        <ele>495</ele>
        <time>2017-09-18T07:55:20Z</time>
      </trkpt>
      <trkpt lat="44.40152" lon="2.15557">
        <ele>495</ele>
        <time>2017-09-18T07:55:22Z</time>
      </trkpt>
      <trkpt lat="44.40155" lon="2.15555">
        <ele>495</ele>
        <time>2017-09-18T07:55:25Z</time>
      </trkpt>
      <trkpt lat="44.40165" lon="2.15549">
        <ele>495</ele>
        <time>2017-09-18T07:55:34Z</time>
      </trkpt>
      <trkpt lat="44.40179" lon="2.15541">
        <ele>499</ele>
        <time>2017-09-18T07:55:47Z</time>
      </trkpt>
      <trkpt lat="44.40184" lon="2.15538">
        <ele>499</ele>
        <time>2017-09-18T07:55:51Z</time>
      </trkpt>
      <trkpt lat="44.40193" lon="2.15535">
        <ele>499</ele>
        <time>2017-09-18T07:56:00Z</time>
      </trkpt>
      <trkpt lat="44.40201" lon="2.15527">
        <ele>500</ele>
        <time>2017-09-18T07:56:09Z</time>
      </trkpt>
      <trkpt lat="44.40204" lon="2.15525">
        <ele>500</ele>
        <time>2017-09-18T07:56:12Z</time>
      </trkpt>
      <trkpt lat="44.40208" lon="2.15523">
        <ele>500</ele>
        <time>2017-09-18T07:56:16Z</time>
      </trkpt>
      <trkpt lat="44.40212" lon="2.1552">
        <ele>500</ele>
        <time>2017-09-18T07:56:21Z</time>
      </trkpt>
      <trkpt lat="44.40216" lon="2.15515">
        <ele>500</ele>
        <time>2017-09-18T07:56:28Z</time>
      </trkpt>
      <trkpt lat="44.40222" lon="2.15512">
        <ele>500</ele>
        <time>2017-09-18T07:56:32Z</time>
      </trkpt>
      <trkpt lat="44.40224" lon="2.15507">
        <ele>500</ele>
        <time>2017-09-18T07:56:35Z</time>
      </trkpt>
      <trkpt lat="44.40231" lon="2.15501">
        <ele>501</ele>
        <time>2017-09-18T07:56:41Z</time>
      </trkpt>
      <trkpt lat="44.40234" lon="2.15498">
        <ele>501</ele>
        <time>2017-09-18T07:56:44Z</time>
      </trkpt>
      <trkpt lat="44.40237" lon="2.15495">
        <ele>501</ele>
        <time>2017-09-18T07:56:49Z</time>
      </trkpt>
      <trkpt lat="44.40247" lon="2.15484">
        <ele>501</ele>
        <time>2017-09-18T07:56:58Z</time>
      </trkpt>
      <trkpt lat="44.40249" lon="2.15481">
        <ele>501</ele>
        <time>2017-09-18T07:57:01Z</time>
      </trkpt>
      <trkpt lat="44.40252" lon="2.15478">
        <ele>504</ele>
        <time>2017-09-18T07:57:04Z</time>
      </trkpt>
      <trkpt lat="44.40255" lon="2.15474">
        <ele>505</ele>
        <time>2017-09-18T07:57:08Z</time>
      </trkpt>
      <trkpt lat="44.40263" lon="2.15466">
        <ele>505</ele>
        <time>2017-09-18T07:57:16Z</time>
      </trkpt>
      <trkpt lat="44.40266" lon="2.15462">
        <ele>505</ele>
        <time>2017-09-18T07:57:19Z</time>
      </trkpt>
      <trkpt lat="44.40269" lon="2.15458">
        <ele>505</ele>
        <time>2017-09-18T07:57:23Z</time>
      </trkpt>
      <trkpt lat="44.40271" lon="2.15454">
        <ele>505</ele>
        <time>2017-09-18T07:57:25Z</time>
      </trkpt>
      <trkpt lat="44.40277" lon="2.15446">
        <ele>506</ele>
        <time>2017-09-18T07:57:32Z</time>
      </trkpt>
      <trkpt lat="44.40278" lon="2.15441">
        <ele>506</ele>
        <time>2017-09-18T07:57:35Z</time>
      </trkpt>
      <trkpt lat="44.40281" lon="2.15436">
        <ele>506</ele>
        <time>2017-09-18T07:57:39Z</time>
      </trkpt>
      <trkpt lat="44.40284" lon="2.15432">
        <ele>506</ele>
        <time>2017-09-18T07:57:43Z</time>
      </trkpt>
      <trkpt lat="44.40289" lon="2.15428">
        <ele>506</ele>
        <time>2017-09-18T07:57:47Z</time>
      </trkpt>
      <trkpt lat="44.40291" lon="2.15425">
        <ele>506</ele>
        <time>2017-09-18T07:57:50Z</time>
      </trkpt>
      <trkpt lat="44.40301" lon="2.15413">
        <ele>506</ele>
        <time>2017-09-18T07:58:03Z</time>
      </trkpt>
      <trkpt lat="44.40309" lon="2.15408">
        <ele>506</ele>
        <time>2017-09-18T07:58:10Z</time>
      </trkpt>
      <trkpt lat="44.40315" lon="2.15401">
        <ele>506</ele>
        <time>2017-09-18T07:58:18Z</time>
      </trkpt>
      <trkpt lat="44.40326" lon="2.15392">
        <ele>506</ele>
        <time>2017-09-18T07:58:28Z</time>
      </trkpt>
      <trkpt lat="44.4034" lon="2.15374">
        <ele>510</ele>
        <time>2017-09-18T07:58:43Z</time>
      </trkpt>
      <trkpt lat="44.40343" lon="2.15372">
        <ele>510</ele>
        <time>2017-09-18T07:58:45Z</time>
      </trkpt>
      <trkpt lat="44.40351" lon="2.15359">
        <ele>510</ele>
        <time>2017-09-18T07:58:57Z</time>
      </trkpt>
      <trkpt lat="44.40354" lon="2.15357">
        <ele>510</ele>
        <time>2017-09-18T07:59:00Z</time>
      </trkpt>
      <trkpt lat="44.40371" lon="2.15357">
        <ele>510</ele>
        <time>2017-09-18T07:59:17Z</time>
      </trkpt>
      <trkpt lat="44.40377" lon="2.15359">
        <ele>511</ele>
        <time>2017-09-18T07:59:23Z</time>
      </trkpt>
      <trkpt lat="44.40381" lon="2.1536">
        <ele>511</ele>
        <time>2017-09-18T07:59:26Z</time>
      </trkpt>
      <trkpt lat="44.40385" lon="2.15363">
        <ele>511</ele>
        <time>2017-09-18T07:59:30Z</time>
      </trkpt>
      <trkpt lat="44.4039" lon="2.15364">
        <ele>511</ele>
        <time>2017-09-18T07:59:34Z</time>
      </trkpt>
      <trkpt lat="44.404" lon="2.15368">
        <ele>511</ele>
        <time>2017-09-18T07:59:44Z</time>
      </trkpt>
      <trkpt lat="44.4043" lon="2.1538">
        <ele>515</ele>
        <time>2017-09-18T08:00:11Z</time>
      </trkpt>
      <trkpt lat="44.40436" lon="2.15383">
        <ele>515</ele>
        <time>2017-09-18T08:00:17Z</time>
      </trkpt>
      <trkpt lat="44.40476" lon="2.15399">
        <ele>515</ele>
        <time>2017-09-18T08:00:47Z</time>
      </trkpt>
      <trkpt lat="44.40487" lon="2.15401">
        <ele>516</ele>
        <time>2017-09-18T08:00:55Z</time>
      </trkpt>
      <trkpt lat="44.40508" lon="2.154">
        <ele>516</ele>
        <time>2017-09-18T08:01:10Z</time>
      </trkpt>
      <trkpt lat="44.40516" lon="2.15396">
        <ele>516</ele>
        <time>2017-09-18T08:01:17Z</time>
      </trkpt>
      <trkpt lat="44.4052" lon="2.15396">
        <ele>516</ele>
        <time>2017-09-18T08:01:21Z</time>
      </trkpt>
      <trkpt lat="44.40524" lon="2.15395">
        <ele>517</ele>
        <time>2017-09-18T08:01:24Z</time>
      </trkpt>
      <trkpt lat="44.40527" lon="2.15394">
        <ele>517</ele>
        <time>2017-09-18T08:01:27Z</time>
      </trkpt>
      <trkpt lat="44.4054" lon="2.15391">
        <ele>517</ele>
        <time>2017-09-18T08:01:37Z</time>
      </trkpt>
      <trkpt lat="44.40543" lon="2.1539">
        <ele>517</ele>
        <time>2017-09-18T08:01:39Z</time>
      </trkpt>
      <trkpt lat="44.40567" lon="2.15388">
        <ele>517</ele>
        <time>2017-09-18T08:01:57Z</time>
      </trkpt>
      <trkpt lat="44.40573" lon="2.15387">
        <ele>517</ele>
        <time>2017-09-18T08:02:02Z</time>
      </trkpt>
      <trkpt lat="44.40604" lon="2.1538">
        <ele>516</ele>
        <time>2017-09-18T08:02:28Z</time>
      </trkpt>
      <trkpt lat="44.40608" lon="2.1538">
        <ele>516</ele>
        <time>2017-09-18T08:02:32Z</time>
      </trkpt>
      <trkpt lat="44.40627" lon="2.15377">
        <ele>515</ele>
        <time>2017-09-18T08:02:46Z</time>
      </trkpt>
      <trkpt lat="44.40656" lon="2.15363">
        <ele>515</ele>
        <time>2017-09-18T08:03:11Z</time>
      </trkpt>
      <trkpt lat="44.40658" lon="2.15363">
        <ele>515</ele>
        <time>2017-09-18T08:03:13Z</time>
      </trkpt>
      <trkpt lat="44.40663" lon="2.15356">
        <ele>515</ele>
        <time>2017-09-18T08:03:19Z</time>
      </trkpt>
      <trkpt lat="44.40666" lon="2.15355">
        <ele>515</ele>
        <time>2017-09-18T08:03:30Z</time>
      </trkpt>
      <trkpt lat="44.40672" lon="2.15355">
        <ele>513</ele>
        <time>2017-09-18T08:03:35Z</time>
      </trkpt>
      <trkpt lat="44.40683" lon="2.1535">
        <ele>513</ele>
        <time>2017-09-18T08:03:46Z</time>
      </trkpt>
      <trkpt lat="44.40685" lon="2.15348">
        <ele>513</ele>
        <time>2017-09-18T08:03:49Z</time>
      </trkpt>
      <trkpt lat="44.40691" lon="2.15345">
        <ele>513</ele>
        <time>2017-09-18T08:04:03Z</time>
      </trkpt>
      <trkpt lat="44.40695" lon="2.15343">
        <ele>513</ele>
        <time>2017-09-18T08:04:07Z</time>
      </trkpt>
      <trkpt lat="44.40698" lon="2.15342">
        <ele>513</ele>
        <time>2017-09-18T08:04:10Z</time>
      </trkpt>
      <trkpt lat="44.40701" lon="2.15341">
        <ele>513</ele>
        <time>2017-09-18T08:04:13Z</time>
      </trkpt>
      <trkpt lat="44.40732" lon="2.15322">
        <ele>512</ele>
        <time>2017-09-18T08:04:43Z</time>
      </trkpt>
      <trkpt lat="44.40743" lon="2.15316">
        <ele>512</ele>
        <time>2017-09-18T08:05:01Z</time>
      </trkpt>
      <trkpt lat="44.40748" lon="2.15312">
        <ele>512</ele>
        <time>2017-09-18T08:05:07Z</time>
      </trkpt>
      <trkpt lat="44.40749" lon="2.15311">
        <ele>512</ele>
        <time>2017-09-18T08:06:28Z</time>
      </trkpt>
      <trkpt lat="44.40749" lon="2.15309">
        <ele>512</ele>
        <time>2017-09-18T08:06:31Z</time>
      </trkpt>
      <trkpt lat="44.40752" lon="2.15308">
        <ele>510</ele>
        <time>2017-09-18T08:06:35Z</time>
      </trkpt>
      <trkpt lat="44.40753" lon="2.15308">
        <ele>510</ele>
        <time>2017-09-18T08:09:55Z</time>
      </trkpt>
      <trkpt lat="44.40755" lon="2.15307">
        <ele>510</ele>
        <time>2017-09-18T08:09:57Z</time>
      </trkpt>
      <trkpt lat="44.40759" lon="2.15304">
        <ele>510</ele>
        <time>2017-09-18T08:10:14Z</time>
      </trkpt>
      <trkpt lat="44.4076" lon="2.15302">
        <ele>510</ele>
        <time>2017-09-18T08:10:18Z</time>
      </trkpt>
      <trkpt lat="44.40764" lon="2.15299">
        <ele>510</ele>
        <time>2017-09-18T08:10:24Z</time>
      </trkpt>
      <trkpt lat="44.4077" lon="2.15296">
        <ele>509</ele>
        <time>2017-09-18T08:10:36Z</time>
      </trkpt>
      <trkpt lat="44.40775" lon="2.15293">
        <ele>509</ele>
        <time>2017-09-18T08:10:42Z</time>
      </trkpt>
      <trkpt lat="44.40779" lon="2.15289">
        <ele>509</ele>
        <time>2017-09-18T08:10:49Z</time>
      </trkpt>
      <trkpt lat="44.40784" lon="2.15286">
        <ele>509</ele>
        <time>2017-09-18T08:10:55Z</time>
      </trkpt>
      <trkpt lat="44.40786" lon="2.15286">
        <ele>509</ele>
        <time>2017-09-18T08:11:00Z</time>
      </trkpt>
      <trkpt lat="44.40788" lon="2.15284">
        <ele>509</ele>
        <time>2017-09-18T08:11:17Z</time>
      </trkpt>
      <trkpt lat="44.40789" lon="2.15281">
        <ele>509</ele>
        <time>2017-09-18T08:12:00Z</time>
      </trkpt>
      <trkpt lat="44.40792" lon="2.15281">
        <ele>509</ele>
        <time>2017-09-18T08:13:18Z</time>
      </trkpt>
      <trkpt lat="44.40794" lon="2.1528">
        <ele>509</ele>
        <time>2017-09-18T08:13:20Z</time>
      </trkpt>
      <trkpt lat="44.40797" lon="2.15279">
        <ele>509</ele>
        <time>2017-09-18T08:13:24Z</time>
      </trkpt>
      <trkpt lat="44.40798" lon="2.15277">
        <ele>509</ele>
        <time>2017-09-18T08:14:04Z</time>
      </trkpt>
      <trkpt lat="44.408" lon="2.15275">
        <ele>509</ele>
        <time>2017-09-18T08:14:07Z</time>
      </trkpt>
      <trkpt lat="44.40818" lon="2.15262">
        <ele>508</ele>
        <time>2017-09-18T08:14:33Z</time>
      </trkpt>
      <trkpt lat="44.40842" lon="2.15254">
        <ele>508</ele>
        <time>2017-09-18T08:14:55Z</time>
      </trkpt>
      <trkpt lat="44.40872" lon="2.15257">
        <ele>508</ele>
        <time>2017-09-18T08:15:21Z</time>
      </trkpt>
      <trkpt lat="44.40886" lon="2.15257">
        <ele>508</ele>
        <time>2017-09-18T08:15:32Z</time>
      </trkpt>
      <trkpt lat="44.40889" lon="2.15257">
        <ele>508</ele>
        <time>2017-09-18T08:15:44Z</time>
      </trkpt>
      <trkpt lat="44.40899" lon="2.15259">
        <ele>509</ele>
        <time>2017-09-18T08:15:52Z</time>
      </trkpt>
      <trkpt lat="44.40931" lon="2.1526">
        <ele>510</ele>
        <time>2017-09-18T08:16:18Z</time>
      </trkpt>
      <trkpt lat="44.40937" lon="2.15262">
        <ele>510</ele>
        <time>2017-09-18T08:16:24Z</time>
      </trkpt>
      <trkpt lat="44.4094" lon="2.15261">
        <ele>510</ele>
        <time>2017-09-18T08:16:26Z</time>
      </trkpt>
      <trkpt lat="44.40944" lon="2.15262">
        <ele>510</ele>
        <time>2017-09-18T08:16:30Z</time>
      </trkpt>
      <trkpt lat="44.40953" lon="2.1526">
        <ele>510</ele>
        <time>2017-09-18T08:16:36Z</time>
      </trkpt>
      <trkpt lat="44.40956" lon="2.1526">
        <ele>510</ele>
        <time>2017-09-18T08:16:39Z</time>
      </trkpt>
      <trkpt lat="44.40992" lon="2.15251">
        <ele>510</ele>
        <time>2017-09-18T08:17:09Z</time>
      </trkpt>
      <trkpt lat="44.4103" lon="2.15243">
        <ele>510</ele>
        <time>2017-09-18T08:17:40Z</time>
      </trkpt>
      <trkpt lat="44.41064" lon="2.1523">
        <ele>509</ele>
        <time>2017-09-18T08:18:11Z</time>
      </trkpt>
      <trkpt lat="44.41083" lon="2.15217">
        <ele>509</ele>
        <time>2017-09-18T08:18:29Z</time>
      </trkpt>
      <trkpt lat="44.41086" lon="2.15216">
        <ele>509</ele>
        <time>2017-09-18T08:18:32Z</time>
      </trkpt>
      <trkpt lat="44.41094" lon="2.15211">
        <ele>509</ele>
        <time>2017-09-18T08:18:39Z</time>
      </trkpt>
      <trkpt lat="44.41097" lon="2.1521">
        <ele>509</ele>
        <time>2017-09-18T08:18:43Z</time>
      </trkpt>
      <trkpt lat="44.41102" lon="2.15207">
        <ele>509</ele>
        <time>2017-09-18T08:18:47Z</time>
      </trkpt>
      <trkpt lat="44.41108" lon="2.15204">
        <ele>509</ele>
        <time>2017-09-18T08:18:53Z</time>
      </trkpt>
      <trkpt lat="44.41141" lon="2.15181">
        <ele>509</ele>
        <time>2017-09-18T08:19:23Z</time>
      </trkpt>
      <trkpt lat="44.41172" lon="2.15162">
        <ele>509</ele>
        <time>2017-09-18T08:19:52Z</time>
      </trkpt>
      <trkpt lat="44.41175" lon="2.15161">
        <ele>509</ele>
        <time>2017-09-18T08:19:55Z</time>
      </trkpt>
      <trkpt lat="44.41178" lon="2.1516">
        <ele>509</ele>
        <time>2017-09-18T08:19:58Z</time>
      </trkpt>
      <trkpt lat="44.41181" lon="2.15158">
        <ele>509</ele>
        <time>2017-09-18T08:20:01Z</time>
      </trkpt>
      <trkpt lat="44.41199" lon="2.15149">
        <ele>509</ele>
        <time>2017-09-18T08:20:14Z</time>
      </trkpt>
      <trkpt lat="44.41205" lon="2.15147">
        <ele>509</ele>
        <time>2017-09-18T08:20:19Z</time>
      </trkpt>
      <trkpt lat="44.41241" lon="2.15122">
        <ele>508</ele>
        <time>2017-09-18T08:20:49Z</time>
      </trkpt>
      <trkpt lat="44.41256" lon="2.15112">
        <ele>509</ele>
        <time>2017-09-18T08:21:03Z</time>
      </trkpt>
      <trkpt lat="44.41265" lon="2.15105">
        <ele>509</ele>
        <time>2017-09-18T08:21:11Z</time>
      </trkpt>
      <trkpt lat="44.41299" lon="2.15081">
        <ele>509</ele>
        <time>2017-09-18T08:21:41Z</time>
      </trkpt>
      <trkpt lat="44.41308" lon="2.15076">
        <ele>509</ele>
        <time>2017-09-18T08:21:48Z</time>
      </trkpt>
      <trkpt lat="44.41311" lon="2.15073">
        <ele>509</ele>
        <time>2017-09-18T08:21:51Z</time>
      </trkpt>
      <trkpt lat="44.41314" lon="2.1507">
        <ele>509</ele>
        <time>2017-09-18T08:21:54Z</time>
      </trkpt>
      <trkpt lat="44.4132" lon="2.15064">
        <ele>509</ele>
        <time>2017-09-18T08:22:00Z</time>
      </trkpt>
      <trkpt lat="44.41341" lon="2.15047">
        <ele>508</ele>
        <time>2017-09-18T08:22:19Z</time>
      </trkpt>
      <trkpt lat="44.41353" lon="2.15035">
        <ele>508</ele>
        <time>2017-09-18T08:22:29Z</time>
      </trkpt>
      <trkpt lat="44.4136" lon="2.15029">
        <ele>508</ele>
        <time>2017-09-18T08:22:36Z</time>
      </trkpt>
      <trkpt lat="44.41364" lon="2.15025">
        <ele>508</ele>
        <time>2017-09-18T08:22:40Z</time>
      </trkpt>
      <trkpt lat="44.41401" lon="2.14997">
        <ele>507</ele>
        <time>2017-09-18T08:23:13Z</time>
      </trkpt>
      <trkpt lat="44.41442" lon="2.14979">
        <ele>506</ele>
        <time>2017-09-18T08:23:44Z</time>
      </trkpt>
      <trkpt lat="44.41473" lon="2.14965">
        <ele>506</ele>
        <time>2017-09-18T08:24:10Z</time>
      </trkpt>
      <trkpt lat="44.41478" lon="2.14963">
        <ele>506</ele>
        <time>2017-09-18T08:24:14Z</time>
      </trkpt>
      <trkpt lat="44.41483" lon="2.14962">
        <ele>506</ele>
        <time>2017-09-18T08:24:17Z</time>
      </trkpt>
      <trkpt lat="44.41508" lon="2.14948">
        <ele>505</ele>
        <time>2017-09-18T08:24:39Z</time>
      </trkpt>
      <trkpt lat="44.4151" lon="2.14944">
        <ele>505</ele>
        <time>2017-09-18T08:24:42Z</time>
      </trkpt>
      <trkpt lat="44.41512" lon="2.1494">
        <ele>505</ele>
        <time>2017-09-18T08:24:45Z</time>
      </trkpt>
      <trkpt lat="44.41519" lon="2.14936">
        <ele>505</ele>
        <time>2017-09-18T08:24:51Z</time>
      </trkpt>
      <trkpt lat="44.41524" lon="2.1493">
        <ele>505</ele>
        <time>2017-09-18T08:24:56Z</time>
      </trkpt>
      <trkpt lat="44.41543" lon="2.14914">
        <ele>505</ele>
        <time>2017-09-18T08:25:14Z</time>
      </trkpt>
      <trkpt lat="44.41546" lon="2.14912">
        <ele>505</ele>
        <time>2017-09-18T08:25:18Z</time>
      </trkpt>
      <trkpt lat="44.41568" lon="2.14902">
        <ele>505</ele>
        <time>2017-09-18T08:25:35Z</time>
      </trkpt>
      <trkpt lat="44.41571" lon="2.14902">
        <ele>505</ele>
        <time>2017-09-18T08:25:38Z</time>
      </trkpt>
      <trkpt lat="44.41575" lon="2.14901">
        <ele>505</ele>
        <time>2017-09-18T08:25:41Z</time>
      </trkpt>
      <trkpt lat="44.41584" lon="2.149">
        <ele>505</ele>
        <time>2017-09-18T08:25:47Z</time>
      </trkpt>
      <trkpt lat="44.416" lon="2.149">
        <ele>506</ele>
        <time>2017-09-18T08:26:00Z</time>
      </trkpt>
      <trkpt lat="44.41612" lon="2.14904">
        <ele>506</ele>
        <time>2017-09-18T08:26:09Z</time>
      </trkpt>
      <trkpt lat="44.41616" lon="2.14903">
        <ele>506</ele>
        <time>2017-09-18T08:26:14Z</time>
      </trkpt>
      <trkpt lat="44.4162" lon="2.14905">
        <ele>506</ele>
        <time>2017-09-18T08:26:20Z</time>
      </trkpt>
      <trkpt lat="44.41632" lon="2.14923">
        <ele>507</ele>
        <time>2017-09-18T08:26:48Z</time>
      </trkpt>
      <trkpt lat="44.41638" lon="2.1493">
        <ele>507</ele>
        <time>2017-09-18T08:26:54Z</time>
      </trkpt>
      <trkpt lat="44.41642" lon="2.14937">
        <ele>507</ele>
        <time>2017-09-18T08:26:59Z</time>
      </trkpt>
      <trkpt lat="44.41644" lon="2.14939">
        <ele>507</ele>
        <time>2017-09-18T08:27:01Z</time>
      </trkpt>
      <trkpt lat="44.41646" lon="2.14942">
        <ele>507</ele>
        <time>2017-09-18T08:27:03Z</time>
      </trkpt>
      <trkpt lat="44.41656" lon="2.14955">
        <ele>507</ele>
        <time>2017-09-18T08:27:13Z</time>
      </trkpt>
      <trkpt lat="44.41664" lon="2.14959">
        <ele>507</ele>
        <time>2017-09-18T08:27:20Z</time>
      </trkpt>
      <trkpt lat="44.41669" lon="2.1496">
        <ele>506</ele>
        <time>2017-09-18T08:27:24Z</time>
      </trkpt>
      <trkpt lat="44.41676" lon="2.1496">
        <ele>506</ele>
        <time>2017-09-18T08:27:30Z</time>
      </trkpt>
      <trkpt lat="44.41682" lon="2.14953">
        <ele>506</ele>
        <time>2017-09-18T08:27:36Z</time>
      </trkpt>
      <trkpt lat="44.41689" lon="2.14937">
        <ele>507</ele>
        <time>2017-09-18T08:27:46Z</time>
      </trkpt>
      <trkpt lat="44.41705" lon="2.14891">
        <ele>506</ele>
        <time>2017-09-18T08:28:14Z</time>
      </trkpt>
      <trkpt lat="44.41707" lon="2.14889">
        <ele>506</ele>
        <time>2017-09-18T08:28:16Z</time>
      </trkpt>
      <trkpt lat="44.41709" lon="2.14886">
        <ele>506</ele>
        <time>2017-09-18T08:28:19Z</time>
      </trkpt>
      <trkpt lat="44.41711" lon="2.1488">
        <ele>506</ele>
        <time>2017-09-18T08:28:23Z</time>
      </trkpt>
      <trkpt lat="44.41712" lon="2.14877">
        <ele>506</ele>
        <time>2017-09-18T08:28:25Z</time>
      </trkpt>
      <trkpt lat="44.41725" lon="2.1484">
        <ele>506</ele>
        <time>2017-09-18T08:28:47Z</time>
      </trkpt>
      <trkpt lat="44.41727" lon="2.1483">
        <ele>505</ele>
        <time>2017-09-18T08:28:53Z</time>
      </trkpt>
      <trkpt lat="44.41734" lon="2.14814">
        <ele>505</ele>
        <time>2017-09-18T08:29:03Z</time>
      </trkpt>
      <trkpt lat="44.41749" lon="2.14781">
        <ele>505</ele>
        <time>2017-09-18T08:29:25Z</time>
      </trkpt>
      <trkpt lat="44.41754" lon="2.14772">
        <ele>505</ele>
        <time>2017-09-18T08:29:31Z</time>
      </trkpt>
      <trkpt lat="44.41779" lon="2.14731">
        <ele>504</ele>
        <time>2017-09-18T08:30:01Z</time>
      </trkpt>
      <trkpt lat="44.41789" lon="2.14715">
        <ele>504</ele>
        <time>2017-09-18T08:30:13Z</time>
      </trkpt>
      <trkpt lat="44.41794" lon="2.1471">
        <ele>504</ele>
        <time>2017-09-18T08:30:18Z</time>
      </trkpt>
      <trkpt lat="44.41797" lon="2.14703">
        <ele>505</ele>
        <time>2017-09-18T08:30:24Z</time>
      </trkpt>
      <trkpt lat="44.41799" lon="2.14699">
        <ele>505</ele>
        <time>2017-09-18T08:30:27Z</time>
      </trkpt>
      <trkpt lat="44.41816" lon="2.14675">
        <ele>505</ele>
        <time>2017-09-18T08:30:45Z</time>
      </trkpt>
      <trkpt lat="44.41818" lon="2.14671">
        <ele>505</ele>
        <time>2017-09-18T08:30:48Z</time>
      </trkpt>
      <trkpt lat="44.4185" lon="2.14625">
        <ele>506</ele>
        <time>2017-09-18T08:31:19Z</time>
      </trkpt>
      <trkpt lat="44.41877" lon="2.14583">
        <ele>506</ele>
        <time>2017-09-18T08:31:49Z</time>
      </trkpt>
      <trkpt lat="44.41909" lon="2.14538">
        <ele>506</ele>
        <time>2017-09-18T08:32:19Z</time>
      </trkpt>
      <trkpt lat="44.41918" lon="2.14526">
        <ele>507</ele>
        <time>2017-09-18T08:32:27Z</time>
      </trkpt>
      <trkpt lat="44.41919" lon="2.14523">
        <ele>507</ele>
        <time>2017-09-18T08:32:29Z</time>
      </trkpt>
      <trkpt lat="44.41922" lon="2.14522">
        <ele>507</ele>
        <time>2017-09-18T08:32:32Z</time>
      </trkpt>
      <trkpt lat="44.41924" lon="2.14519">
        <ele>507</ele>
        <time>2017-09-18T08:32:41Z</time>
      </trkpt>
      <trkpt lat="44.41933" lon="2.14506">
        <ele>507</ele>
        <time>2017-09-18T08:32:50Z</time>
      </trkpt>
      <trkpt lat="44.41936" lon="2.14496">
        <ele>508</ele>
        <time>2017-09-18T08:32:55Z</time>
      </trkpt>
      <trkpt lat="44.41938" lon="2.14493">
        <ele>508</ele>
        <time>2017-09-18T08:32:57Z</time>
      </trkpt>
      <trkpt lat="44.41944" lon="2.14482">
        <ele>509</ele>
        <time>2017-09-18T08:33:05Z</time>
      </trkpt>
      <trkpt lat="44.41945" lon="2.14477">
        <ele>509</ele>
        <time>2017-09-18T08:33:08Z</time>
      </trkpt>
      <trkpt lat="44.41948" lon="2.14472">
        <ele>509</ele>
        <time>2017-09-18T08:33:11Z</time>
      </trkpt>
      <trkpt lat="44.41952" lon="2.14466">
        <ele>509</ele>
        <time>2017-09-18T08:33:15Z</time>
      </trkpt>
      <trkpt lat="44.41957" lon="2.14459">
        <ele>509</ele>
        <time>2017-09-18T08:33:20Z</time>
      </trkpt>
      <trkpt lat="44.41971" lon="2.14434">
        <ele>510</ele>
        <time>2017-09-18T08:33:35Z</time>
      </trkpt>
      <trkpt lat="44.4199" lon="2.14412">
        <ele>512</ele>
        <time>2017-09-18T08:33:52Z</time>
      </trkpt>
      <trkpt lat="44.41993" lon="2.14409">
        <ele>512</ele>
        <time>2017-09-18T08:33:54Z</time>
      </trkpt>
      <trkpt lat="44.42" lon="2.14402">
        <ele>512</ele>
        <time>2017-09-18T08:34:03Z</time>
      </trkpt>
      <trkpt lat="44.42002" lon="2.14399">
        <ele>512</ele>
        <time>2017-09-18T08:34:05Z</time>
      </trkpt>
      <trkpt lat="44.42007" lon="2.14395">
        <ele>512</ele>
        <time>2017-09-18T08:34:10Z</time>
      </trkpt>
      <trkpt lat="44.42017" lon="2.14385">
        <ele>512</ele>
        <time>2017-09-18T08:34:28Z</time>
      </trkpt>
      <trkpt lat="44.42021" lon="2.14383">
        <ele>512</ele>
        <time>2017-09-18T08:34:33Z</time>
      </trkpt>
      <trkpt lat="44.42024" lon="2.1438">
        <ele>512</ele>
        <time>2017-09-18T08:34:42Z</time>
      </trkpt>
      <trkpt lat="44.4204" lon="2.14371">
        <ele>512</ele>
        <time>2017-09-18T08:34:55Z</time>
      </trkpt>
      <trkpt lat="44.42042" lon="2.14369">
        <ele>512</ele>
        <time>2017-09-18T08:34:58Z</time>
      </trkpt>
      <trkpt lat="44.42083" lon="2.14343">
        <ele>512</ele>
        <time>2017-09-18T08:35:29Z</time>
      </trkpt>
      <trkpt lat="44.42123" lon="2.14313">
        <ele>512</ele>
        <time>2017-09-18T08:36:00Z</time>
      </trkpt>
      <trkpt lat="44.42144" lon="2.14294">
        <ele>512</ele>
        <time>2017-09-18T08:36:20Z</time>
      </trkpt>
      <trkpt lat="44.42153" lon="2.14288">
        <ele>512</ele>
        <time>2017-09-18T08:36:26Z</time>
      </trkpt>
      <trkpt lat="44.42159" lon="2.14284">
        <ele>512</ele>
        <time>2017-09-18T08:36:31Z</time>
      </trkpt>
      <trkpt lat="44.42161" lon="2.14281">
        <ele>512</ele>
        <time>2017-09-18T08:36:34Z</time>
      </trkpt>
      <trkpt lat="44.4217" lon="2.14275">
        <ele>513</ele>
        <time>2017-09-18T08:36:41Z</time>
      </trkpt>
      <trkpt lat="44.42173" lon="2.14273">
        <ele>513</ele>
        <time>2017-09-18T08:36:43Z</time>
      </trkpt>
      <trkpt lat="44.42178" lon="2.14269">
        <ele>513</ele>
        <time>2017-09-18T08:36:47Z</time>
      </trkpt>
      <trkpt lat="44.4218" lon="2.14267">
        <ele>513</ele>
        <time>2017-09-18T08:36:49Z</time>
      </trkpt>
      <trkpt lat="44.42205" lon="2.14244">
        <ele>513</ele>
        <time>2017-09-18T08:37:10Z</time>
      </trkpt>
      <trkpt lat="44.42207" lon="2.14242">
        <ele>513</ele>
        <time>2017-09-18T08:37:12Z</time>
      </trkpt>
      <trkpt lat="44.4221" lon="2.14239">
        <ele>513</ele>
        <time>2017-09-18T08:37:15Z</time>
      </trkpt>
      <trkpt lat="44.42221" lon="2.14235">
        <ele>513</ele>
        <time>2017-09-18T08:37:22Z</time>
      </trkpt>
      <trkpt lat="44.42226" lon="2.14232">
        <ele>513</ele>
        <time>2017-09-18T08:37:28Z</time>
      </trkpt>
      <trkpt lat="44.42229" lon="2.14233">
        <ele>513</ele>
        <time>2017-09-18T08:37:35Z</time>
      </trkpt>
      <trkpt lat="44.42231" lon="2.14233">
        <ele>513</ele>
        <time>2017-09-18T08:38:04Z</time>
      </trkpt>
      <trkpt lat="44.42232" lon="2.14231">
        <ele>513</ele>
        <time>2017-09-18T08:38:42Z</time>
      </trkpt>
      <trkpt lat="44.42242" lon="2.1421">
        <ele>513</ele>
        <time>2017-09-18T08:38:54Z</time>
      </trkpt>
      <trkpt lat="44.42247" lon="2.14202">
        <ele>513</ele>
        <time>2017-09-18T08:39:00Z</time>
      </trkpt>
      <trkpt lat="44.4225" lon="2.14196">
        <ele>514</ele>
        <time>2017-09-18T08:39:05Z</time>
      </trkpt>
      <trkpt lat="44.42252" lon="2.14193">
        <ele>514</ele>
        <time>2017-09-18T08:39:07Z</time>
      </trkpt>
      <trkpt lat="44.42253" lon="2.1419">
        <ele>514</ele>
        <time>2017-09-18T08:39:09Z</time>
      </trkpt>
      <trkpt lat="44.42261" lon="2.1418">
        <ele>514</ele>
        <time>2017-09-18T08:39:17Z</time>
      </trkpt>
      <trkpt lat="44.42273" lon="2.1416">
        <ele>513</ele>
        <time>2017-09-18T08:39:33Z</time>
      </trkpt>
      <trkpt lat="44.42275" lon="2.14157">
        <ele>513</ele>
        <time>2017-09-18T08:39:35Z</time>
      </trkpt>
      <trkpt lat="44.4228" lon="2.14148">
        <ele>513</ele>
        <time>2017-09-18T08:39:43Z</time>
      </trkpt>
      <trkpt lat="44.42282" lon="2.14144">
        <ele>513</ele>
        <time>2017-09-18T08:39:46Z</time>
      </trkpt>
      <trkpt lat="44.42308" lon="2.14102">
        <ele>514</ele>
        <time>2017-09-18T08:40:16Z</time>
      </trkpt>
      <trkpt lat="44.42313" lon="2.14096">
        <ele>514</ele>
        <time>2017-09-18T08:40:21Z</time>
      </trkpt>
      <trkpt lat="44.42316" lon="2.14091">
        <ele>514</ele>
        <time>2017-09-18T08:40:25Z</time>
      </trkpt>
      <trkpt lat="44.42325" lon="2.14074">
        <ele>514</ele>
        <time>2017-09-18T08:40:37Z</time>
      </trkpt>
      <trkpt lat="44.42327" lon="2.1407">
        <ele>514</ele>
        <time>2017-09-18T08:40:40Z</time>
      </trkpt>
      <trkpt lat="44.4233" lon="2.14065">
        <ele>514</ele>
        <time>2017-09-18T08:40:44Z</time>
      </trkpt>
      <trkpt lat="44.42334" lon="2.14058">
        <ele>515</ele>
        <time>2017-09-18T08:40:50Z</time>
      </trkpt>
      <trkpt lat="44.42346" lon="2.14041">
        <ele>515</ele>
        <time>2017-09-18T08:41:02Z</time>
      </trkpt>
      <trkpt lat="44.42348" lon="2.14039">
        <ele>515</ele>
        <time>2017-09-18T08:41:05Z</time>
      </trkpt>
      <trkpt lat="44.4235" lon="2.14037">
        <ele>515</ele>
        <time>2017-09-18T08:41:10Z</time>
      </trkpt>
      <trkpt lat="44.42351" lon="2.14035">
        <ele>515</ele>
        <time>2017-09-18T08:41:18Z</time>
      </trkpt>
      <trkpt lat="44.42353" lon="2.14034">
        <ele>515</ele>
        <time>2017-09-18T08:41:41Z</time>
      </trkpt>
      <trkpt lat="44.42355" lon="2.14031">
        <ele>515</ele>
        <time>2017-09-18T08:41:44Z</time>
      </trkpt>
      <trkpt lat="44.4237" lon="2.14012">
        <ele>516</ele>
        <time>2017-09-18T08:42:01Z</time>
      </trkpt>
      <trkpt lat="44.42372" lon="2.1401">
        <ele>516</ele>
        <time>2017-09-18T08:42:03Z</time>
      </trkpt>
      <trkpt lat="44.42374" lon="2.14008">
        <ele>516</ele>
        <time>2017-09-18T08:42:17Z</time>
      </trkpt>
      <trkpt lat="44.42376" lon="2.14008">
        <ele>516</ele>
        <time>2017-09-18T08:42:20Z</time>
      </trkpt>
      <trkpt lat="44.42377" lon="2.14007">
        <ele>516</ele>
        <time>2017-09-18T08:42:25Z</time>
      </trkpt>
      <trkpt lat="44.42378" lon="2.14004">
        <ele>516</ele>
        <time>2017-09-18T08:42:33Z</time>
      </trkpt>
      <trkpt lat="44.42405" lon="2.13963">
        <ele>518</ele>
        <time>2017-09-18T08:43:03Z</time>
      </trkpt>
      <trkpt lat="44.42409" lon="2.13958">
        <ele>518</ele>
        <time>2017-09-18T08:43:07Z</time>
      </trkpt>
      <trkpt lat="44.42423" lon="2.13934">
        <ele>519</ele>
        <time>2017-09-18T08:43:23Z</time>
      </trkpt>
      <trkpt lat="44.42427" lon="2.13928">
        <ele>519</ele>
        <time>2017-09-18T08:43:27Z</time>
      </trkpt>
      <trkpt lat="44.42458" lon="2.13886">
        <ele>519</ele>
        <time>2017-09-18T08:43:57Z</time>
      </trkpt>
      <trkpt lat="44.42487" lon="2.13843">
        <ele>519</ele>
        <time>2017-09-18T08:44:27Z</time>
      </trkpt>
      <trkpt lat="44.42489" lon="2.13841">
        <ele>519</ele>
        <time>2017-09-18T08:44:29Z</time>
      </trkpt>
      <trkpt lat="44.42491" lon="2.13838">
        <ele>520</ele>
        <time>2017-09-18T08:44:31Z</time>
      </trkpt>
      <trkpt lat="44.42498" lon="2.1383">
        <ele>519</ele>
        <time>2017-09-18T08:44:39Z</time>
      </trkpt>
      <trkpt lat="44.42513" lon="2.1382">
        <ele>517</ele>
        <time>2017-09-18T08:44:53Z</time>
      </trkpt>
      <trkpt lat="44.42529" lon="2.13815">
        <ele>516</ele>
        <time>2017-09-18T08:45:06Z</time>
      </trkpt>
      <trkpt lat="44.42533" lon="2.13814">
        <ele>516</ele>
        <time>2017-09-18T08:45:10Z</time>
      </trkpt>
      <trkpt lat="44.42552" lon="2.1381">
        <ele>515</ele>
        <time>2017-09-18T08:45:24Z</time>
      </trkpt>
      <trkpt lat="44.42557" lon="2.13808">
        <ele>515</ele>
        <time>2017-09-18T08:45:29Z</time>
      </trkpt>
      <trkpt lat="44.4256" lon="2.1381">
        <ele>515</ele>
        <time>2017-09-18T08:46:10Z</time>
      </trkpt>
      <trkpt lat="44.42561" lon="2.13812">
        <ele>515</ele>
        <time>2017-09-18T08:46:13Z</time>
      </trkpt>
      <trkpt lat="44.42563" lon="2.13809">
        <ele>515</ele>
        <time>2017-09-18T08:46:36Z</time>
      </trkpt>
      <trkpt lat="44.42574" lon="2.1381">
        <ele>514</ele>
        <time>2017-09-18T08:46:43Z</time>
      </trkpt>
      <trkpt lat="44.42582" lon="2.13806">
        <ele>514</ele>
        <time>2017-09-18T08:46:49Z</time>
      </trkpt>
      <trkpt lat="44.42597" lon="2.13797">
        <ele>511</ele>
        <time>2017-09-18T08:47:01Z</time>
      </trkpt>
      <trkpt lat="44.42601" lon="2.13793">
        <ele>511</ele>
        <time>2017-09-18T08:47:05Z</time>
      </trkpt>
      <trkpt lat="44.42607" lon="2.13788">
        <ele>511</ele>
        <time>2017-09-18T08:47:10Z</time>
      </trkpt>
      <trkpt lat="44.42616" lon="2.13785">
        <ele>511</ele>
        <time>2017-09-18T08:47:17Z</time>
      </trkpt>
      <trkpt lat="44.42626" lon="2.13789">
        <ele>510</ele>
        <time>2017-09-18T08:47:24Z</time>
      </trkpt>
      <trkpt lat="44.42632" lon="2.13789">
        <ele>510</ele>
        <time>2017-09-18T08:47:28Z</time>
      </trkpt>
      <trkpt lat="44.42638" lon="2.13789">
        <ele>510</ele>
        <time>2017-09-18T08:47:33Z</time>
      </trkpt>
      <trkpt lat="44.4267" lon="2.13787">
        <ele>506</ele>
        <time>2017-09-18T08:47:55Z</time>
      </trkpt>
      <trkpt lat="44.42677" lon="2.13789">
        <ele>506</ele>
        <time>2017-09-18T08:48:00Z</time>
      </trkpt>
      <trkpt lat="44.42681" lon="2.13791">
        <ele>506</ele>
        <time>2017-09-18T08:48:03Z</time>
      </trkpt>
      <trkpt lat="44.42688" lon="2.13789">
        <ele>505</ele>
        <time>2017-09-18T08:48:08Z</time>
      </trkpt>
      <trkpt lat="44.42705" lon="2.13793">
        <ele>505</ele>
        <time>2017-09-18T08:48:24Z</time>
      </trkpt>
      <trkpt lat="44.4271" lon="2.13794">
        <ele>504</ele>
        <time>2017-09-18T08:48:28Z</time>
      </trkpt>
      <trkpt lat="44.4273" lon="2.13794">
        <ele>503</ele>
        <time>2017-09-18T08:48:41Z</time>
      </trkpt>
      <trkpt lat="44.42742" lon="2.13794">
        <ele>503</ele>
        <time>2017-09-18T08:48:49Z</time>
      </trkpt>
      <trkpt lat="44.42762" lon="2.13793">
        <ele>497</ele>
        <time>2017-09-18T08:49:03Z</time>
      </trkpt>
      <trkpt lat="44.42769" lon="2.13793">
        <ele>497</ele>
        <time>2017-09-18T08:49:09Z</time>
      </trkpt>
      <trkpt lat="44.42775" lon="2.13794">
        <ele>496</ele>
        <time>2017-09-18T08:49:13Z</time>
      </trkpt>
      <trkpt lat="44.4278" lon="2.13792">
        <ele>496</ele>
        <time>2017-09-18T08:49:17Z</time>
      </trkpt>
      <trkpt lat="44.428" lon="2.13792">
        <ele>495</ele>
        <time>2017-09-18T08:49:33Z</time>
      </trkpt>
      <trkpt lat="44.42807" lon="2.1379">
        <ele>494</ele>
        <time>2017-09-18T08:49:39Z</time>
      </trkpt>
      <trkpt lat="44.42843" lon="2.1379">
        <ele>489</ele>
        <time>2017-09-18T08:50:07Z</time>
      </trkpt>
      <trkpt lat="44.42856" lon="2.13798">
        <ele>488</ele>
        <time>2017-09-18T08:50:19Z</time>
      </trkpt>
      <trkpt lat="44.42859" lon="2.13801">
        <ele>488</ele>
        <time>2017-09-18T08:50:22Z</time>
      </trkpt>
      <trkpt lat="44.42861" lon="2.13803">
        <ele>488</ele>
        <time>2017-09-18T08:50:24Z</time>
      </trkpt>
      <trkpt lat="44.42865" lon="2.13805">
        <ele>488</ele>
        <time>2017-09-18T08:50:29Z</time>
      </trkpt>
      <trkpt lat="44.42871" lon="2.1381">
        <ele>488</ele>
        <time>2017-09-18T08:50:34Z</time>
      </trkpt>
      <trkpt lat="44.42878" lon="2.13812">
        <ele>488</ele>
        <time>2017-09-18T08:50:40Z</time>
      </trkpt>
      <trkpt lat="44.42887" lon="2.13812">
        <ele>488</ele>
        <time>2017-09-18T08:50:46Z</time>
      </trkpt>
      <trkpt lat="44.42891" lon="2.13813">
        <ele>488</ele>
        <time>2017-09-18T08:50:50Z</time>
      </trkpt>
      <trkpt lat="44.42903" lon="2.13808">
        <ele>488</ele>
        <time>2017-09-18T08:51:00Z</time>
      </trkpt>
      <trkpt lat="44.42906" lon="2.13806">
        <ele>487</ele>
        <time>2017-09-18T08:51:02Z</time>
      </trkpt>
      <trkpt lat="44.4291" lon="2.13799">
        <ele>487</ele>
        <time>2017-09-18T08:51:07Z</time>
      </trkpt>
      <trkpt lat="44.42914" lon="2.13795">
        <ele>487</ele>
        <time>2017-09-18T08:51:11Z</time>
      </trkpt>
      <trkpt lat="44.4292" lon="2.13786">
        <ele>485</ele>
        <time>2017-09-18T08:51:17Z</time>
      </trkpt>
      <trkpt lat="44.42922" lon="2.13785">
        <ele>485</ele>
        <time>2017-09-18T08:51:19Z</time>
      </trkpt>
      <trkpt lat="44.42924" lon="2.13783">
        <ele>485</ele>
        <time>2017-09-18T08:51:23Z</time>
      </trkpt>
      <trkpt lat="44.4293" lon="2.13776">
        <ele>485</ele>
        <time>2017-09-18T08:51:29Z</time>
      </trkpt>
      <trkpt lat="44.4294" lon="2.13765">
        <ele>485</ele>
        <time>2017-09-18T08:51:39Z</time>
      </trkpt>
      <trkpt lat="44.42943" lon="2.13766">
        <ele>485</ele>
        <time>2017-09-18T08:51:41Z</time>
      </trkpt>
      <trkpt lat="44.42946" lon="2.13766">
        <ele>485</ele>
        <time>2017-09-18T08:51:43Z</time>
      </trkpt>
      <trkpt lat="44.42955" lon="2.13759">
        <ele>484</ele>
        <time>2017-09-18T08:51:50Z</time>
      </trkpt>
      <trkpt lat="44.42995" lon="2.13743">
        <ele>481</ele>
        <time>2017-09-18T08:52:20Z</time>
      </trkpt>
      <trkpt lat="44.43017" lon="2.1373">
        <ele>480</ele>
        <time>2017-09-18T08:52:38Z</time>
      </trkpt>
      <trkpt lat="44.43061" lon="2.13709">
        <ele>479</ele>
        <time>2017-09-18T08:53:08Z</time>
      </trkpt>
      <trkpt lat="44.43064" lon="2.13707">
        <ele>479</ele>
        <time>2017-09-18T08:53:11Z</time>
      </trkpt>
      <trkpt lat="44.43066" lon="2.13706">
        <ele>479</ele>
        <time>2017-09-18T08:53:13Z</time>
      </trkpt>
      <trkpt lat="44.43074" lon="2.13703">
        <ele>479</ele>
        <time>2017-09-18T08:53:19Z</time>
      </trkpt>
      <trkpt lat="44.43102" lon="2.13691">
        <ele>478</ele>
        <time>2017-09-18T08:53:40Z</time>
      </trkpt>
      <trkpt lat="44.43104" lon="2.13689">
        <ele>478</ele>
        <time>2017-09-18T08:53:42Z</time>
      </trkpt>
      <trkpt lat="44.43114" lon="2.13679">
        <ele>478</ele>
        <time>2017-09-18T08:53:52Z</time>
      </trkpt>
      <trkpt lat="44.43116" lon="2.13677">
        <ele>478</ele>
        <time>2017-09-18T08:53:54Z</time>
      </trkpt>
      <trkpt lat="44.43121" lon="2.13665">
        <ele>478</ele>
        <time>2017-09-18T08:54:01Z</time>
      </trkpt>
      <trkpt lat="44.43124" lon="2.13661">
        <ele>478</ele>
        <time>2017-09-18T08:54:04Z</time>
      </trkpt>
      <trkpt lat="44.43149" lon="2.13614">
        <ele>477</ele>
        <time>2017-09-18T08:54:34Z</time>
      </trkpt>
      <trkpt lat="44.4315" lon="2.13611">
        <ele>477</ele>
        <time>2017-09-18T08:54:36Z</time>
      </trkpt>
      <trkpt lat="44.43164" lon="2.13594">
        <ele>477</ele>
        <time>2017-09-18T08:54:48Z</time>
      </trkpt>
      <trkpt lat="44.43173" lon="2.13585">
        <ele>477</ele>
        <time>2017-09-18T08:54:56Z</time>
      </trkpt>
      <trkpt lat="44.43178" lon="2.13584">
        <ele>478</ele>
        <time>2017-09-18T08:55:00Z</time>
      </trkpt>
      <trkpt lat="44.43221" lon="2.13585">
        <ele>479</ele>
        <time>2017-09-18T08:55:30Z</time>
      </trkpt>
      <trkpt lat="44.4325" lon="2.13584">
        <ele>480</ele>
        <time>2017-09-18T08:55:52Z</time>
      </trkpt>
      <trkpt lat="44.4329" lon="2.13576">
        <ele>483</ele>
        <time>2017-09-18T08:56:23Z</time>
      </trkpt>
      <trkpt lat="44.43333" lon="2.13568">
        <ele>484</ele>
        <time>2017-09-18T08:56:54Z</time>
      </trkpt>
      <trkpt lat="44.43374" lon="2.13565">
        <ele>487</ele>
        <time>2017-09-18T08:57:24Z</time>
      </trkpt>
      <trkpt lat="44.43415" lon="2.13562">
        <ele>488</ele>
        <time>2017-09-18T08:57:54Z</time>
      </trkpt>
      <trkpt lat="44.43436" lon="2.13558">
        <ele>488</ele>
        <time>2017-09-18T08:58:09Z</time>
      </trkpt>
      <trkpt lat="44.43449" lon="2.13551">
        <ele>488</ele>
        <time>2017-09-18T08:58:19Z</time>
      </trkpt>
      <trkpt lat="44.43459" lon="2.13543">
        <ele>488</ele>
        <time>2017-09-18T08:58:27Z</time>
      </trkpt>
      <trkpt lat="44.43461" lon="2.13542">
        <ele>488</ele>
        <time>2017-09-18T08:58:29Z</time>
      </trkpt>
      <trkpt lat="44.43476" lon="2.13528">
        <ele>488</ele>
        <time>2017-09-18T08:58:43Z</time>
      </trkpt>
      <trkpt lat="44.43479" lon="2.13528">
        <ele>488</ele>
        <time>2017-09-18T08:58:45Z</time>
      </trkpt>
      <trkpt lat="44.43481" lon="2.13528">
        <ele>488</ele>
        <time>2017-09-18T08:58:47Z</time>
      </trkpt>
      <trkpt lat="44.43484" lon="2.13529">
        <ele>488</ele>
        <time>2017-09-18T08:58:49Z</time>
      </trkpt>
      <trkpt lat="44.43486" lon="2.13528">
        <ele>487</ele>
        <time>2017-09-18T08:58:52Z</time>
      </trkpt>
      <trkpt lat="44.43488" lon="2.13526">
        <ele>487</ele>
        <time>2017-09-18T08:58:54Z</time>
      </trkpt>
      <trkpt lat="44.4349" lon="2.13523">
        <ele>487</ele>
        <time>2017-09-18T08:58:56Z</time>
      </trkpt>
      <trkpt lat="44.43491" lon="2.1352">
        <ele>487</ele>
        <time>2017-09-18T08:59:00Z</time>
      </trkpt>
      <trkpt lat="44.43492" lon="2.13521">
        <ele>487</ele>
        <time>2017-09-18T08:59:22Z</time>
      </trkpt>
      <trkpt lat="44.43494" lon="2.13518">
        <ele>487</ele>
        <time>2017-09-18T08:59:45Z</time>
      </trkpt>
      <trkpt lat="44.43502" lon="2.13512">
        <ele>487</ele>
        <time>2017-09-18T08:59:52Z</time>
      </trkpt>
      <trkpt lat="44.43504" lon="2.13512">
        <ele>487</ele>
        <time>2017-09-18T08:59:54Z</time>
      </trkpt>
      <trkpt lat="44.43507" lon="2.13512">
        <ele>487</ele>
        <time>2017-09-18T08:59:56Z</time>
      </trkpt>
      <trkpt lat="44.43517" lon="2.13512">
        <ele>487</ele>
        <time>2017-09-18T09:00:03Z</time>
      </trkpt>
      <trkpt lat="44.43522" lon="2.13513">
        <ele>487</ele>
        <time>2017-09-18T09:00:07Z</time>
      </trkpt>
      <trkpt lat="44.43566" lon="2.13512">
        <ele>488</ele>
        <time>2017-09-18T09:00:38Z</time>
      </trkpt>
      <trkpt lat="44.43578" lon="2.13511">
        <ele>488</ele>
        <time>2017-09-18T09:00:46Z</time>
      </trkpt>
      <trkpt lat="44.43595" lon="2.13509">
        <ele>489</ele>
        <time>2017-09-18T09:00:58Z</time>
      </trkpt>
      <trkpt lat="44.43605" lon="2.1351">
        <ele>489</ele>
        <time>2017-09-18T09:01:06Z</time>
      </trkpt>
      <trkpt lat="44.43646" lon="2.13512">
        <ele>490</ele>
        <time>2017-09-18T09:01:36Z</time>
      </trkpt>
      <trkpt lat="44.43689" lon="2.13516">
        <ele>493</ele>
        <time>2017-09-18T09:02:07Z</time>
      </trkpt>
      <trkpt lat="44.43733" lon="2.13521">
        <ele>494</ele>
        <time>2017-09-18T09:02:37Z</time>
      </trkpt>
      <trkpt lat="44.43765" lon="2.13527">
        <ele>496</ele>
        <time>2017-09-18T09:03:01Z</time>
      </trkpt>
      <trkpt lat="44.43771" lon="2.13527">
        <ele>496</ele>
        <time>2017-09-18T09:03:05Z</time>
      </trkpt>
      <trkpt lat="44.43795" lon="2.13527">
        <ele>497</ele>
        <time>2017-09-18T09:03:24Z</time>
      </trkpt>
      <trkpt lat="44.43809" lon="2.13524">
        <ele>497</ele>
        <time>2017-09-18T09:03:34Z</time>
      </trkpt>
      <trkpt lat="44.4382" lon="2.13521">
        <ele>497</ele>
        <time>2017-09-18T09:03:41Z</time>
      </trkpt>
      <trkpt lat="44.43825" lon="2.13521">
        <ele>497</ele>
        <time>2017-09-18T09:03:45Z</time>
      </trkpt>
      <trkpt lat="44.43827" lon="2.13522">
        <ele>497</ele>
        <time>2017-09-18T09:03:47Z</time>
      </trkpt>
      <trkpt lat="44.43832" lon="2.13523">
        <ele>497</ele>
        <time>2017-09-18T09:03:51Z</time>
      </trkpt>
      <trkpt lat="44.43834" lon="2.13522">
        <ele>498</ele>
        <time>2017-09-18T09:03:53Z</time>
      </trkpt>
      <trkpt lat="44.43842" lon="2.13522">
        <ele>498</ele>
        <time>2017-09-18T09:04:01Z</time>
      </trkpt>
      <trkpt lat="44.43852" lon="2.13522">
        <ele>498</ele>
        <time>2017-09-18T09:04:10Z</time>
      </trkpt>
      <trkpt lat="44.43856" lon="2.13523">
        <ele>498</ele>
        <time>2017-09-18T09:04:32Z</time>
      </trkpt>
      <trkpt lat="44.43859" lon="2.13521">
        <ele>498</ele>
        <time>2017-09-18T09:04:35Z</time>
      </trkpt>
      <trkpt lat="44.43867" lon="2.13518">
        <ele>498</ele>
        <time>2017-09-18T09:04:41Z</time>
      </trkpt>
      <trkpt lat="44.43869" lon="2.13517">
        <ele>498</ele>
        <time>2017-09-18T09:04:43Z</time>
      </trkpt>
      <trkpt lat="44.43871" lon="2.13517">
        <ele>498</ele>
        <time>2017-09-18T09:04:45Z</time>
      </trkpt>
      <trkpt lat="44.43892" lon="2.13498">
        <ele>499</ele>
        <time>2017-09-18T09:05:04Z</time>
      </trkpt>
      <trkpt lat="44.43896" lon="2.13497">
        <ele>499</ele>
        <time>2017-09-18T09:05:07Z</time>
      </trkpt>
      <trkpt lat="44.439" lon="2.13493">
        <ele>499</ele>
        <time>2017-09-18T09:05:11Z</time>
      </trkpt>
      <trkpt lat="44.43902" lon="2.13492">
        <ele>499</ele>
        <time>2017-09-18T09:05:13Z</time>
      </trkpt>
      <trkpt lat="44.43909" lon="2.13488">
        <ele>499</ele>
        <time>2017-09-18T09:05:20Z</time>
      </trkpt>
      <trkpt lat="44.4394" lon="2.13469">
        <ele>499</ele>
        <time>2017-09-18T09:05:44Z</time>
      </trkpt>
      <trkpt lat="44.43942" lon="2.13468">
        <ele>499</ele>
        <time>2017-09-18T09:05:46Z</time>
      </trkpt>
      <trkpt lat="44.43944" lon="2.13466">
        <ele>499</ele>
        <time>2017-09-18T09:05:48Z</time>
      </trkpt>
      <trkpt lat="44.43954" lon="2.13462">
        <ele>499</ele>
        <time>2017-09-18T09:05:55Z</time>
      </trkpt>
      <trkpt lat="44.43969" lon="2.13462">
        <ele>499</ele>
        <time>2017-09-18T09:06:06Z</time>
      </trkpt>
      <trkpt lat="44.4397" lon="2.13462">
        <ele>499</ele>
        <time>2017-09-18T09:06:07Z</time>
      </trkpt>
      <trkpt lat="44.43975" lon="2.13459">
        <ele>499</ele>
        <time>2017-09-18T09:06:11Z</time>
      </trkpt>
      <trkpt lat="44.43977" lon="2.13459">
        <ele>499</ele>
        <time>2017-09-18T09:06:16Z</time>
      </trkpt>
      <trkpt lat="44.43979" lon="2.13458">
        <ele>499</ele>
        <time>2017-09-18T09:06:18Z</time>
      </trkpt>
      <trkpt lat="44.4398" lon="2.13455">
        <ele>499</ele>
        <time>2017-09-18T09:06:20Z</time>
      </trkpt>
      <trkpt lat="44.43983" lon="2.13442">
        <ele>499</ele>
        <time>2017-09-18T09:06:28Z</time>
      </trkpt>
      <trkpt lat="44.43982" lon="2.13413">
        <ele>499</ele>
        <time>2017-09-18T09:06:44Z</time>
      </trkpt>
      <trkpt lat="44.43991" lon="2.13366">
        <ele>498</ele>
        <time>2017-09-18T09:07:10Z</time>
      </trkpt>
      <trkpt lat="44.43999" lon="2.13356">
        <ele>498</ele>
        <time>2017-09-18T09:07:18Z</time>
      </trkpt>
      <trkpt lat="44.44" lon="2.13352">
        <ele>498</ele>
        <time>2017-09-18T09:07:21Z</time>
      </trkpt>
      <trkpt lat="44.44001" lon="2.13348">
        <ele>498</ele>
        <time>2017-09-18T09:07:23Z</time>
      </trkpt>
      <trkpt lat="44.44002" lon="2.13344">
        <ele>498</ele>
        <time>2017-09-18T09:07:25Z</time>
      </trkpt>
      <trkpt lat="44.44005" lon="2.13325">
        <ele>498</ele>
        <time>2017-09-18T09:07:35Z</time>
      </trkpt>
      <trkpt lat="44.44005" lon="2.13321">
        <ele>498</ele>
        <time>2017-09-18T09:07:37Z</time>
      </trkpt>
      <trkpt lat="44.44008" lon="2.13305">
        <ele>498</ele>
        <time>2017-09-18T09:07:45Z</time>
      </trkpt>
      <trkpt lat="44.44009" lon="2.13291">
        <ele>497</ele>
        <time>2017-09-18T09:07:52Z</time>
      </trkpt>
      <trkpt lat="44.44012" lon="2.13258">
        <ele>497</ele>
        <time>2017-09-18T09:08:11Z</time>
      </trkpt>
      <trkpt lat="44.44009" lon="2.13242">
        <ele>497</ele>
        <time>2017-09-18T09:08:19Z</time>
      </trkpt>
      <trkpt lat="44.44004" lon="2.13233">
        <ele>498</ele>
        <time>2017-09-18T09:08:25Z</time>
      </trkpt>
      <trkpt lat="44.44" lon="2.13225">
        <ele>496</ele>
        <time>2017-09-18T09:08:30Z</time>
      </trkpt>
      <trkpt lat="44.43993" lon="2.13211">
        <ele>497</ele>
        <time>2017-09-18T09:08:40Z</time>
      </trkpt>
      <trkpt lat="44.4399" lon="2.13207">
        <ele>497</ele>
        <time>2017-09-18T09:08:43Z</time>
      </trkpt>
      <trkpt lat="44.43985" lon="2.13198">
        <ele>497</ele>
        <time>2017-09-18T09:08:49Z</time>
      </trkpt>
      <trkpt lat="44.43958" lon="2.13155">
        <ele>499</ele>
        <time>2017-09-18T09:09:19Z</time>
      </trkpt>
      <trkpt lat="44.43956" lon="2.13152">
        <ele>499</ele>
        <time>2017-09-18T09:09:21Z</time>
      </trkpt>
      <trkpt lat="44.43953" lon="2.13144">
        <ele>499</ele>
        <time>2017-09-18T09:09:26Z</time>
      </trkpt>
      <trkpt lat="44.43951" lon="2.13124">
        <ele>499</ele>
        <time>2017-09-18T09:09:36Z</time>
      </trkpt>
      <trkpt lat="44.43951" lon="2.13108">
        <ele>500</ele>
        <time>2017-09-18T09:09:45Z</time>
      </trkpt>
      <trkpt lat="44.43952" lon="2.13103">
        <ele>500</ele>
        <time>2017-09-18T09:09:49Z</time>
      </trkpt>
      <trkpt lat="44.4395" lon="2.13041">
        <ele>503</ele>
        <time>2017-09-18T09:10:21Z</time>
      </trkpt>
      <trkpt lat="44.43951" lon="2.13037">
        <ele>503</ele>
        <time>2017-09-18T09:10:24Z</time>
      </trkpt>
      <trkpt lat="44.43952" lon="2.13026">
        <ele>503</ele>
        <time>2017-09-18T09:10:30Z</time>
      </trkpt>
      <trkpt lat="44.43952" lon="2.13023">
        <ele>503</ele>
        <time>2017-09-18T09:10:32Z</time>
      </trkpt>
      <trkpt lat="44.43953" lon="2.1299">
        <ele>505</ele>
        <time>2017-09-18T09:10:49Z</time>
      </trkpt>
      <trkpt lat="44.43953" lon="2.12985">
        <ele>505</ele>
        <time>2017-09-18T09:10:52Z</time>
      </trkpt>
      <trkpt lat="44.43952" lon="2.12964">
        <ele>505</ele>
        <time>2017-09-18T09:11:02Z</time>
      </trkpt>
      <trkpt lat="44.43954" lon="2.1296">
        <ele>506</ele>
        <time>2017-09-18T09:11:04Z</time>
      </trkpt>
      <trkpt lat="44.43954" lon="2.12954">
        <ele>506</ele>
        <time>2017-09-18T09:11:07Z</time>
      </trkpt>
      <trkpt lat="44.43956" lon="2.12934">
        <ele>506</ele>
        <time>2017-09-18T09:11:17Z</time>
      </trkpt>
      <trkpt lat="44.43956" lon="2.12916">
        <ele>505</ele>
        <time>2017-09-18T09:11:26Z</time>
      </trkpt>
      <trkpt lat="44.43957" lon="2.12912">
        <ele>505</ele>
        <time>2017-09-18T09:11:28Z</time>
      </trkpt>
      <trkpt lat="44.43958" lon="2.12908">
        <ele>505</ele>
        <time>2017-09-18T09:11:30Z</time>
      </trkpt>
      <trkpt lat="44.43958" lon="2.12907">
        <ele>505</ele>
        <time>2017-09-18T09:12:16Z</time>
      </trkpt>
      <trkpt lat="44.43958" lon="2.12903">
        <ele>505</ele>
        <time>2017-09-18T09:12:46Z</time>
      </trkpt>
      <trkpt lat="44.43958" lon="2.12901">
        <ele>505</ele>
        <time>2017-09-18T09:12:48Z</time>
      </trkpt>
      <trkpt lat="44.43957" lon="2.12898">
        <ele>505</ele>
        <time>2017-09-18T09:12:50Z</time>
      </trkpt>
      <trkpt lat="44.43955" lon="2.12896">
        <ele>505</ele>
        <time>2017-09-18T09:12:52Z</time>
      </trkpt>
      <trkpt lat="44.4393" lon="2.12883">
        <ele>505</ele>
        <time>2017-09-18T09:13:10Z</time>
      </trkpt>
      <trkpt lat="44.43928" lon="2.12882">
        <ele>505</ele>
        <time>2017-09-18T09:13:12Z</time>
      </trkpt>
      <trkpt lat="44.43925" lon="2.12881">
        <ele>505</ele>
        <time>2017-09-18T09:13:15Z</time>
      </trkpt>
      <trkpt lat="44.43919" lon="2.12879">
        <ele>505</ele>
        <time>2017-09-18T09:13:20Z</time>
      </trkpt>
      <trkpt lat="44.439" lon="2.1287">
        <ele>505</ele>
        <time>2017-09-18T09:13:33Z</time>
      </trkpt>
      <trkpt lat="44.43898" lon="2.12869">
        <ele>505</ele>
        <time>2017-09-18T09:13:35Z</time>
      </trkpt>
      <trkpt lat="44.43866" lon="2.12853">
        <ele>505</ele>
        <time>2017-09-18T09:14:00Z</time>
      </trkpt>
      <trkpt lat="44.43864" lon="2.12853">
        <ele>505</ele>
        <time>2017-09-18T09:14:01Z</time>
      </trkpt>
      <trkpt lat="44.4386" lon="2.12852">
        <ele>505</ele>
        <time>2017-09-18T09:14:04Z</time>
      </trkpt>
      <trkpt lat="44.43835" lon="2.12835">
        <ele>505</ele>
        <time>2017-09-18T09:14:23Z</time>
      </trkpt>
      <trkpt lat="44.43832" lon="2.1283">
        <ele>505</ele>
        <time>2017-09-18T09:14:27Z</time>
      </trkpt>
      <trkpt lat="44.43824" lon="2.12822">
        <ele>505</ele>
        <time>2017-09-18T09:14:33Z</time>
      </trkpt>
      <trkpt lat="44.43822" lon="2.12821">
        <ele>505</ele>
        <time>2017-09-18T09:14:35Z</time>
      </trkpt>
      <trkpt lat="44.43818" lon="2.12817">
        <ele>505</ele>
        <time>2017-09-18T09:14:39Z</time>
      </trkpt>
      <trkpt lat="44.43816" lon="2.12811">
        <ele>505</ele>
        <time>2017-09-18T09:14:43Z</time>
      </trkpt>
      <trkpt lat="44.43789" lon="2.12763">
        <ele>505</ele>
        <time>2017-09-18T09:15:13Z</time>
      </trkpt>
      <trkpt lat="44.43778" lon="2.1273">
        <ele>504</ele>
        <time>2017-09-18T09:15:32Z</time>
      </trkpt>
      <trkpt lat="44.4377" lon="2.12705">
        <ele>503</ele>
        <time>2017-09-18T09:15:46Z</time>
      </trkpt>
      <trkpt lat="44.43769" lon="2.127">
        <ele>503</ele>
        <time>2017-09-18T09:15:49Z</time>
      </trkpt>
      <trkpt lat="44.43768" lon="2.12696">
        <ele>503</ele>
        <time>2017-09-18T09:15:51Z</time>
      </trkpt>
      <trkpt lat="44.43766" lon="2.12687">
        <ele>503</ele>
        <time>2017-09-18T09:15:56Z</time>
      </trkpt>
      <trkpt lat="44.43765" lon="2.12682">
        <ele>503</ele>
        <time>2017-09-18T09:15:59Z</time>
      </trkpt>
      <trkpt lat="44.43762" lon="2.12671">
        <ele>503</ele>
        <time>2017-09-18T09:16:05Z</time>
      </trkpt>
      <trkpt lat="44.43757" lon="2.12657">
        <ele>503</ele>
        <time>2017-09-18T09:16:12Z</time>
      </trkpt>
      <trkpt lat="44.43755" lon="2.12653">
        <ele>502</ele>
        <time>2017-09-18T09:16:14Z</time>
      </trkpt>
      <trkpt lat="44.43752" lon="2.12647">
        <ele>502</ele>
        <time>2017-09-18T09:16:17Z</time>
      </trkpt>
      <trkpt lat="44.4375" lon="2.1264">
        <ele>502</ele>
        <time>2017-09-18T09:16:21Z</time>
      </trkpt>
      <trkpt lat="44.43747" lon="2.12631">
        <ele>502</ele>
        <time>2017-09-18T09:16:26Z</time>
      </trkpt>
      <trkpt lat="44.43746" lon="2.12626">
        <ele>502</ele>
        <time>2017-09-18T09:16:29Z</time>
      </trkpt>
      <trkpt lat="44.43738" lon="2.12608">
        <ele>502</ele>
        <time>2017-09-18T09:16:41Z</time>
      </trkpt>
      <trkpt lat="44.43736" lon="2.12604">
        <ele>502</ele>
        <time>2017-09-18T09:16:44Z</time>
      </trkpt>
      <trkpt lat="44.43732" lon="2.12594">
        <ele>502</ele>
        <time>2017-09-18T09:16:49Z</time>
      </trkpt>
      <trkpt lat="44.43724" lon="2.12578">
        <ele>501</ele>
        <time>2017-09-18T09:16:57Z</time>
      </trkpt>
      <trkpt lat="44.43718" lon="2.12564">
        <ele>501</ele>
        <time>2017-09-18T09:17:07Z</time>
      </trkpt>
      <trkpt lat="44.43713" lon="2.12553">
        <ele>500</ele>
        <time>2017-09-18T09:17:14Z</time>
      </trkpt>
      <trkpt lat="44.43691" lon="2.12497">
        <ele>499</ele>
        <time>2017-09-18T09:17:44Z</time>
      </trkpt>
      <trkpt lat="44.43675" lon="2.12438">
        <ele>498</ele>
        <time>2017-09-18T09:18:15Z</time>
      </trkpt>
      <trkpt lat="44.43667" lon="2.12401">
        <ele>497</ele>
        <time>2017-09-18T09:18:34Z</time>
      </trkpt>
      <trkpt lat="44.43666" lon="2.12388">
        <ele>498</ele>
        <time>2017-09-18T09:18:41Z</time>
      </trkpt>
      <trkpt lat="44.43651" lon="2.12333">
        <ele>497</ele>
        <time>2017-09-18T09:19:11Z</time>
      </trkpt>
      <trkpt lat="44.43647" lon="2.12322">
        <ele>497</ele>
        <time>2017-09-18T09:19:17Z</time>
      </trkpt>
      <trkpt lat="44.43641" lon="2.12281">
        <ele>497</ele>
        <time>2017-09-18T09:19:37Z</time>
      </trkpt>
      <trkpt lat="44.4364" lon="2.12272">
        <ele>497</ele>
        <time>2017-09-18T09:19:42Z</time>
      </trkpt>
      <trkpt lat="44.43635" lon="2.1223">
        <ele>497</ele>
        <time>2017-09-18T09:20:05Z</time>
      </trkpt>
      <trkpt lat="44.43635" lon="2.12227">
        <ele>497</ele>
        <time>2017-09-18T09:20:07Z</time>
      </trkpt>
      <trkpt lat="44.43635" lon="2.12219">
        <ele>497</ele>
        <time>2017-09-18T09:20:11Z</time>
      </trkpt>
      <trkpt lat="44.4363" lon="2.12196">
        <ele>497</ele>
        <time>2017-09-18T09:20:23Z</time>
      </trkpt>
      <trkpt lat="44.4363" lon="2.12185">
        <ele>497</ele>
        <time>2017-09-18T09:20:29Z</time>
      </trkpt>
      <trkpt lat="44.43628" lon="2.12174">
        <ele>497</ele>
        <time>2017-09-18T09:20:35Z</time>
      </trkpt>
      <trkpt lat="44.43626" lon="2.12159">
        <ele>496</ele>
        <time>2017-09-18T09:20:43Z</time>
      </trkpt>
      <trkpt lat="44.43624" lon="2.12147">
        <ele>496</ele>
        <time>2017-09-18T09:20:49Z</time>
      </trkpt>
      <trkpt lat="44.43624" lon="2.12144">
        <ele>496</ele>
        <time>2017-09-18T09:20:51Z</time>
      </trkpt>
      <trkpt lat="44.43625" lon="2.12141">
        <ele>496</ele>
        <time>2017-09-18T09:20:54Z</time>
      </trkpt>
      <trkpt lat="44.43625" lon="2.12137">
        <ele>496</ele>
        <time>2017-09-18T09:20:57Z</time>
      </trkpt>
      <trkpt lat="44.43621" lon="2.12118">
        <ele>496</ele>
        <time>2017-09-18T09:21:07Z</time>
      </trkpt>
      <trkpt lat="44.43621" lon="2.12114">
        <ele>496</ele>
        <time>2017-09-18T09:21:09Z</time>
      </trkpt>
      <trkpt lat="44.43623" lon="2.12107">
        <ele>496</ele>
        <time>2017-09-18T09:21:14Z</time>
      </trkpt>
      <trkpt lat="44.43631" lon="2.12099">
        <ele>495</ele>
        <time>2017-09-18T09:21:23Z</time>
      </trkpt>
      <trkpt lat="44.43633" lon="2.12097">
        <ele>495</ele>
        <time>2017-09-18T09:21:25Z</time>
      </trkpt>
      <trkpt lat="44.43636" lon="2.12095">
        <ele>495</ele>
        <time>2017-09-18T09:21:27Z</time>
      </trkpt>
      <trkpt lat="44.43641" lon="2.12096">
        <ele>495</ele>
        <time>2017-09-18T09:21:32Z</time>
      </trkpt>
      <trkpt lat="44.43643" lon="2.12094">
        <ele>495</ele>
        <time>2017-09-18T09:22:21Z</time>
      </trkpt>
      <trkpt lat="44.43643" lon="2.12091">
        <ele>495</ele>
        <time>2017-09-18T09:22:24Z</time>
      </trkpt>
      <trkpt lat="44.43645" lon="2.12091">
        <ele>495</ele>
        <time>2017-09-18T09:23:02Z</time>
      </trkpt>
      <trkpt lat="44.43646" lon="2.12089">
        <ele>495</ele>
        <time>2017-09-18T09:23:05Z</time>
      </trkpt>
      <trkpt lat="44.43647" lon="2.12087">
        <ele>495</ele>
        <time>2017-09-18T09:23:08Z</time>
      </trkpt>
      <trkpt lat="44.43652" lon="2.12084">
        <ele>495</ele>
        <time>2017-09-18T09:23:19Z</time>
      </trkpt>
      <trkpt lat="44.43655" lon="2.12083">
        <ele>495</ele>
        <time>2017-09-18T09:23:23Z</time>
      </trkpt>
      <trkpt lat="44.43659" lon="2.12078">
        <ele>495</ele>
        <time>2017-09-18T09:23:34Z</time>
      </trkpt>
      <trkpt lat="44.43661" lon="2.12076">
        <ele>495</ele>
        <time>2017-09-18T09:23:37Z</time>
      </trkpt>
      <trkpt lat="44.43664" lon="2.12073">
        <ele>495</ele>
        <time>2017-09-18T09:23:40Z</time>
      </trkpt>
      <trkpt lat="44.43667" lon="2.12071">
        <ele>493</ele>
        <time>2017-09-18T09:23:42Z</time>
      </trkpt>
      <trkpt lat="44.43669" lon="2.12068">
        <ele>493</ele>
        <time>2017-09-18T09:23:47Z</time>
      </trkpt>
      <trkpt lat="44.43671" lon="2.12066">
        <ele>493</ele>
        <time>2017-09-18T09:23:55Z</time>
      </trkpt>
      <trkpt lat="44.43687" lon="2.12053">
        <ele>492</ele>
        <time>2017-09-18T09:24:16Z</time>
      </trkpt>
      <trkpt lat="44.43694" lon="2.1205">
        <ele>492</ele>
        <time>2017-09-18T09:24:22Z</time>
      </trkpt>
      <trkpt lat="44.43699" lon="2.12044">
        <ele>492</ele>
        <time>2017-09-18T09:24:26Z</time>
      </trkpt>
      <trkpt lat="44.43709" lon="2.12037">
        <ele>491</ele>
        <time>2017-09-18T09:24:36Z</time>
      </trkpt>
      <trkpt lat="44.43712" lon="2.12034">
        <ele>491</ele>
        <time>2017-09-18T09:24:40Z</time>
      </trkpt>
      <trkpt lat="44.43714" lon="2.12032">
        <ele>491</ele>
        <time>2017-09-18T09:24:45Z</time>
      </trkpt>
      <trkpt lat="44.43716" lon="2.1203">
        <ele>491</ele>
        <time>2017-09-18T09:24:48Z</time>
      </trkpt>
      <trkpt lat="44.43722" lon="2.12027">
        <ele>491</ele>
        <time>2017-09-18T09:24:53Z</time>
      </trkpt>
      <trkpt lat="44.43735" lon="2.12015">
        <ele>490</ele>
        <time>2017-09-18T09:25:03Z</time>
      </trkpt>
      <trkpt lat="44.43768" lon="2.1199">
        <ele>489</ele>
        <time>2017-09-18T09:25:29Z</time>
      </trkpt>
      <trkpt lat="44.43792" lon="2.11968">
        <ele>488</ele>
        <time>2017-09-18T09:25:52Z</time>
      </trkpt>
      <trkpt lat="44.43795" lon="2.11964">
        <ele>488</ele>
        <time>2017-09-18T09:25:55Z</time>
      </trkpt>
      <trkpt lat="44.43798" lon="2.11961">
        <ele>488</ele>
        <time>2017-09-18T09:25:57Z</time>
      </trkpt>
      <trkpt lat="44.43811" lon="2.11926">
        <ele>489</ele>
        <time>2017-09-18T09:26:18Z</time>
      </trkpt>
      <trkpt lat="44.43812" lon="2.11921">
        <ele>489</ele>
        <time>2017-09-18T09:26:21Z</time>
      </trkpt>
      <trkpt lat="44.43824" lon="2.11887">
        <ele>490</ele>
        <time>2017-09-18T09:26:39Z</time>
      </trkpt>
      <trkpt lat="44.43827" lon="2.1188">
        <ele>491</ele>
        <time>2017-09-18T09:26:43Z</time>
      </trkpt>
      <trkpt lat="44.43829" lon="2.11876">
        <ele>491</ele>
        <time>2017-09-18T09:26:45Z</time>
      </trkpt>
      <trkpt lat="44.43835" lon="2.11863">
        <ele>489</ele>
        <time>2017-09-18T09:26:53Z</time>
      </trkpt>
      <trkpt lat="44.43835" lon="2.11859">
        <ele>489</ele>
        <time>2017-09-18T09:26:55Z</time>
      </trkpt>
      <trkpt lat="44.43836" lon="2.11856">
        <ele>489</ele>
        <time>2017-09-18T09:26:57Z</time>
      </trkpt>
      <trkpt lat="44.43839" lon="2.11849">
        <ele>489</ele>
        <time>2017-09-18T09:27:01Z</time>
      </trkpt>
      <trkpt lat="44.43847" lon="2.11826">
        <ele>490</ele>
        <time>2017-09-18T09:27:15Z</time>
      </trkpt>
      <trkpt lat="44.43854" lon="2.11803">
        <ele>490</ele>
        <time>2017-09-18T09:27:29Z</time>
      </trkpt>
      <trkpt lat="44.43854" lon="2.11799">
        <ele>490</ele>
        <time>2017-09-18T09:27:32Z</time>
      </trkpt>
      <trkpt lat="44.43858" lon="2.11784">
        <ele>491</ele>
        <time>2017-09-18T09:27:41Z</time>
      </trkpt>
      <trkpt lat="44.43859" lon="2.11781">
        <ele>491</ele>
        <time>2017-09-18T09:27:43Z</time>
      </trkpt>
      <trkpt lat="44.43861" lon="2.11766">
        <ele>491</ele>
        <time>2017-09-18T09:27:51Z</time>
      </trkpt>
      <trkpt lat="44.43863" lon="2.11763">
        <ele>491</ele>
        <time>2017-09-18T09:27:53Z</time>
      </trkpt>
      <trkpt lat="44.43864" lon="2.11759">
        <ele>491</ele>
        <time>2017-09-18T09:27:55Z</time>
      </trkpt>
      <trkpt lat="44.43865" lon="2.11756">
        <ele>491</ele>
        <time>2017-09-18T09:27:57Z</time>
      </trkpt>
      <trkpt lat="44.43867" lon="2.11748">
        <ele>492</ele>
        <time>2017-09-18T09:28:02Z</time>
      </trkpt>
      <trkpt lat="44.43869" lon="2.11743">
        <ele>492</ele>
        <time>2017-09-18T09:28:05Z</time>
      </trkpt>
      <trkpt lat="44.4387" lon="2.1174">
        <ele>492</ele>
        <time>2017-09-18T09:28:07Z</time>
      </trkpt>
      <trkpt lat="44.43872" lon="2.11736">
        <ele>492</ele>
        <time>2017-09-18T09:28:10Z</time>
      </trkpt>
      <trkpt lat="44.43874" lon="2.11729">
        <ele>492</ele>
        <time>2017-09-18T09:28:15Z</time>
      </trkpt>
      <trkpt lat="44.43878" lon="2.11722">
        <ele>492</ele>
        <time>2017-09-18T09:28:21Z</time>
      </trkpt>
      <trkpt lat="44.43879" lon="2.11717">
        <ele>492</ele>
        <time>2017-09-18T09:28:26Z</time>
      </trkpt>
      <trkpt lat="44.4388" lon="2.11715">
        <ele>492</ele>
        <time>2017-09-18T09:28:30Z</time>
      </trkpt>
      <trkpt lat="44.43882" lon="2.11711">
        <ele>492</ele>
        <time>2017-09-18T09:28:34Z</time>
      </trkpt>
      <trkpt lat="44.43882" lon="2.11707">
        <ele>492</ele>
        <time>2017-09-18T09:28:37Z</time>
      </trkpt>
      <trkpt lat="44.43882" lon="2.11704">
        <ele>492</ele>
        <time>2017-09-18T09:28:40Z</time>
      </trkpt>
      <trkpt lat="44.43884" lon="2.117">
        <ele>492</ele>
        <time>2017-09-18T09:29:13Z</time>
      </trkpt>
      <trkpt lat="44.43889" lon="2.11689">
        <ele>492</ele>
        <time>2017-09-18T09:29:22Z</time>
      </trkpt>
      <trkpt lat="44.43893" lon="2.11681">
        <ele>492</ele>
        <time>2017-09-18T09:29:28Z</time>
      </trkpt>
      <trkpt lat="44.43897" lon="2.11665">
        <ele>493</ele>
        <time>2017-09-18T09:29:38Z</time>
      </trkpt>
      <trkpt lat="44.43898" lon="2.1166">
        <ele>493</ele>
        <time>2017-09-18T09:29:41Z</time>
      </trkpt>
      <trkpt lat="44.43901" lon="2.11656">
        <ele>493</ele>
        <time>2017-09-18T09:29:44Z</time>
      </trkpt>
      <trkpt lat="44.4391" lon="2.11636">
        <ele>493</ele>
        <time>2017-09-18T09:29:57Z</time>
      </trkpt>
      <trkpt lat="44.43919" lon="2.11607">
        <ele>492</ele>
        <time>2017-09-18T09:30:13Z</time>
      </trkpt>
      <trkpt lat="44.43927" lon="2.11578">
        <ele>493</ele>
        <time>2017-09-18T09:30:30Z</time>
      </trkpt>
      <trkpt lat="44.43929" lon="2.11575">
        <ele>493</ele>
        <time>2017-09-18T09:30:32Z</time>
      </trkpt>
      <trkpt lat="44.43935" lon="2.11557">
        <ele>492</ele>
        <time>2017-09-18T09:30:43Z</time>
      </trkpt>
      <trkpt lat="44.43936" lon="2.11552">
        <ele>492</ele>
        <time>2017-09-18T09:30:46Z</time>
      </trkpt>
      <trkpt lat="44.43939" lon="2.11548">
        <ele>492</ele>
        <time>2017-09-18T09:30:49Z</time>
      </trkpt>
      <trkpt lat="44.43939" lon="2.11542">
        <ele>492</ele>
        <time>2017-09-18T09:31:12Z</time>
      </trkpt>
      <trkpt lat="44.43941" lon="2.11516">
        <ele>492</ele>
        <time>2017-09-18T09:31:26Z</time>
      </trkpt>
      <trkpt lat="44.43945" lon="2.11494">
        <ele>490</ele>
        <time>2017-09-18T09:31:40Z</time>
      </trkpt>
      <trkpt lat="44.43946" lon="2.11473">
        <ele>490</ele>
        <time>2017-09-18T09:31:51Z</time>
      </trkpt>
      <trkpt lat="44.43948" lon="2.11447">
        <ele>489</ele>
        <time>2017-09-18T09:32:06Z</time>
      </trkpt>
      <trkpt lat="44.43949" lon="2.11443">
        <ele>489</ele>
        <time>2017-09-18T09:32:09Z</time>
      </trkpt>
      <trkpt lat="44.43951" lon="2.11433">
        <ele>489</ele>
        <time>2017-09-18T09:32:15Z</time>
      </trkpt>
      <trkpt lat="44.43958" lon="2.11416">
        <ele>486</ele>
        <time>2017-09-18T09:32:25Z</time>
      </trkpt>
      <trkpt lat="44.43961" lon="2.11407">
        <ele>486</ele>
        <time>2017-09-18T09:32:30Z</time>
      </trkpt>
      <trkpt lat="44.43963" lon="2.11399">
        <ele>486</ele>
        <time>2017-09-18T09:32:35Z</time>
      </trkpt>
      <trkpt lat="44.43967" lon="2.11384">
        <ele>486</ele>
        <time>2017-09-18T09:32:44Z</time>
      </trkpt>
      <trkpt lat="44.43972" lon="2.11375">
        <ele>486</ele>
        <time>2017-09-18T09:32:50Z</time>
      </trkpt>
      <trkpt lat="44.43973" lon="2.11363">
        <ele>486</ele>
        <time>2017-09-18T09:32:58Z</time>
      </trkpt>
      <trkpt lat="44.43976" lon="2.11358">
        <ele>486</ele>
        <time>2017-09-18T09:33:02Z</time>
      </trkpt>
      <trkpt lat="44.43976" lon="2.11355">
        <ele>486</ele>
        <time>2017-09-18T09:33:04Z</time>
      </trkpt>
      <trkpt lat="44.4398" lon="2.11326">
        <ele>484</ele>
        <time>2017-09-18T09:33:25Z</time>
      </trkpt>
      <trkpt lat="44.43981" lon="2.11323">
        <ele>483</ele>
        <time>2017-09-18T09:33:28Z</time>
      </trkpt>
      <trkpt lat="44.43979" lon="2.11315">
        <ele>483</ele>
        <time>2017-09-18T09:33:32Z</time>
      </trkpt>
      <trkpt lat="44.43979" lon="2.11312">
        <ele>483</ele>
        <time>2017-09-18T09:33:34Z</time>
      </trkpt>
      <trkpt lat="44.4398" lon="2.11308">
        <ele>483</ele>
        <time>2017-09-18T09:33:36Z</time>
      </trkpt>
      <trkpt lat="44.43985" lon="2.11251">
        <ele>481</ele>
        <time>2017-09-18T09:34:06Z</time>
      </trkpt>
      <trkpt lat="44.43985" lon="2.11247">
        <ele>480</ele>
        <time>2017-09-18T09:34:08Z</time>
      </trkpt>
      <trkpt lat="44.43986" lon="2.11245">
        <ele>480</ele>
        <time>2017-09-18T09:34:10Z</time>
      </trkpt>
      <trkpt lat="44.43986" lon="2.11237">
        <ele>480</ele>
        <time>2017-09-18T09:34:15Z</time>
      </trkpt>
      <trkpt lat="44.43988" lon="2.11229">
        <ele>479</ele>
        <time>2017-09-18T09:34:20Z</time>
      </trkpt>
      <trkpt lat="44.43989" lon="2.11213">
        <ele>479</ele>
        <time>2017-09-18T09:34:29Z</time>
      </trkpt>
      <trkpt lat="44.43989" lon="2.1121">
        <ele>478</ele>
        <time>2017-09-18T09:34:31Z</time>
      </trkpt>
      <trkpt lat="44.43994" lon="2.11188">
        <ele>477</ele>
        <time>2017-09-18T09:34:41Z</time>
      </trkpt>
      <trkpt lat="44.43995" lon="2.11182">
        <ele>477</ele>
        <time>2017-09-18T09:34:44Z</time>
      </trkpt>
      <trkpt lat="44.43999" lon="2.11164">
        <ele>475</ele>
        <time>2017-09-18T09:34:56Z</time>
      </trkpt>
      <trkpt lat="44.44002" lon="2.11152">
        <ele>474</ele>
        <time>2017-09-18T09:35:03Z</time>
      </trkpt>
      <trkpt lat="44.44" lon="2.11149">
        <ele>474</ele>
        <time>2017-09-18T09:35:10Z</time>
      </trkpt>
      <trkpt lat="44.43998" lon="2.11147">
        <ele>475</ele>
        <time>2017-09-18T09:35:16Z</time>
      </trkpt>
      <trkpt lat="44.43997" lon="2.11137">
        <ele>475</ele>
        <time>2017-09-18T09:35:21Z</time>
      </trkpt>
      <trkpt lat="44.43995" lon="2.11105">
        <ele>474</ele>
        <time>2017-09-18T09:35:40Z</time>
      </trkpt>
      <trkpt lat="44.43997" lon="2.11078">
        <ele>472</ele>
        <time>2017-09-18T09:35:56Z</time>
      </trkpt>
      <trkpt lat="44.44013" lon="2.11027">
        <ele>472</ele>
        <time>2017-09-18T09:36:28Z</time>
      </trkpt>
      <trkpt lat="44.44023" lon="2.10991">
        <ele>474</ele>
        <time>2017-09-18T09:36:51Z</time>
      </trkpt>
      <trkpt lat="44.44024" lon="2.10986">
        <ele>474</ele>
        <time>2017-09-18T09:36:54Z</time>
      </trkpt>
      <trkpt lat="44.44026" lon="2.10979">
        <ele>474</ele>
        <time>2017-09-18T09:36:59Z</time>
      </trkpt>
      <trkpt lat="44.44032" lon="2.10952">
        <ele>474</ele>
        <time>2017-09-18T09:37:15Z</time>
      </trkpt>
      <trkpt lat="44.44033" lon="2.10947">
        <ele>474</ele>
        <time>2017-09-18T09:37:18Z</time>
      </trkpt>
      <trkpt lat="44.44043" lon="2.10896">
        <ele>475</ele>
        <time>2017-09-18T09:37:48Z</time>
      </trkpt>
      <trkpt lat="44.4405" lon="2.10842">
        <ele>474</ele>
        <time>2017-09-18T09:38:19Z</time>
      </trkpt>
      <trkpt lat="44.44055" lon="2.10795">
        <ele>474</ele>
        <time>2017-09-18T09:38:44Z</time>
      </trkpt>
      <trkpt lat="44.44056" lon="2.10791">
        <ele>474</ele>
        <time>2017-09-18T09:38:47Z</time>
      </trkpt>
      <trkpt lat="44.44056" lon="2.10788">
        <ele>474</ele>
        <time>2017-09-18T09:38:49Z</time>
      </trkpt>
      <trkpt lat="44.44057" lon="2.10736">
        <ele>473</ele>
        <time>2017-09-18T09:39:21Z</time>
      </trkpt>
      <trkpt lat="44.44058" lon="2.10722">
        <ele>473</ele>
        <time>2017-09-18T09:39:30Z</time>
      </trkpt>
      <trkpt lat="44.44059" lon="2.10718">
        <ele>472</ele>
        <time>2017-09-18T09:39:33Z</time>
      </trkpt>
      <trkpt lat="44.44059" lon="2.1071">
        <ele>472</ele>
        <time>2017-09-18T09:39:38Z</time>
      </trkpt>
      <trkpt lat="44.4406" lon="2.10695">
        <ele>472</ele>
        <time>2017-09-18T09:39:46Z</time>
      </trkpt>
      <trkpt lat="44.44061" lon="2.10688">
        <ele>472</ele>
        <time>2017-09-18T09:39:50Z</time>
      </trkpt>
      <trkpt lat="44.44063" lon="2.10674">
        <ele>471</ele>
        <time>2017-09-18T09:39:58Z</time>
      </trkpt>
      <trkpt lat="44.44064" lon="2.10668">
        <ele>471</ele>
        <time>2017-09-18T09:40:02Z</time>
      </trkpt>
      <trkpt lat="44.44066" lon="2.10665">
        <ele>471</ele>
        <time>2017-09-18T09:40:05Z</time>
      </trkpt>
      <trkpt lat="44.44067" lon="2.1066">
        <ele>471</ele>
        <time>2017-09-18T09:40:08Z</time>
      </trkpt>
      <trkpt lat="44.44077" lon="2.10604">
        <ele>471</ele>
        <time>2017-09-18T09:40:38Z</time>
      </trkpt>
      <trkpt lat="44.44079" lon="2.10597">
        <ele>470</ele>
        <time>2017-09-18T09:40:42Z</time>
      </trkpt>
      <trkpt lat="44.44084" lon="2.10584">
        <ele>469</ele>
        <time>2017-09-18T09:40:50Z</time>
      </trkpt>
      <trkpt lat="44.44087" lon="2.10575">
        <ele>469</ele>
        <time>2017-09-18T09:41:04Z</time>
      </trkpt>
      <trkpt lat="44.4409" lon="2.10569">
        <ele>469</ele>
        <time>2017-09-18T09:41:11Z</time>
      </trkpt>
      <trkpt lat="44.44091" lon="2.10566">
        <ele>469</ele>
        <time>2017-09-18T09:41:13Z</time>
      </trkpt>
      <trkpt lat="44.44091" lon="2.10563">
        <ele>469</ele>
        <time>2017-09-18T09:41:15Z</time>
      </trkpt>
      <trkpt lat="44.44093" lon="2.10553">
        <ele>468</ele>
        <time>2017-09-18T09:41:21Z</time>
      </trkpt>
      <trkpt lat="44.44094" lon="2.1055">
        <ele>468</ele>
        <time>2017-09-18T09:41:23Z</time>
      </trkpt>
      <trkpt lat="44.44094" lon="2.10547">
        <ele>468</ele>
        <time>2017-09-18T09:41:25Z</time>
      </trkpt>
      <trkpt lat="44.44095" lon="2.10544">
        <ele>468</ele>
        <time>2017-09-18T09:41:27Z</time>
      </trkpt>
      <trkpt lat="44.44097" lon="2.10521">
        <ele>468</ele>
        <time>2017-09-18T09:41:39Z</time>
      </trkpt>
      <trkpt lat="44.44097" lon="2.10504">
        <ele>468</ele>
        <time>2017-09-18T09:41:49Z</time>
      </trkpt>
      <trkpt lat="44.44097" lon="2.10499">
        <ele>469</ele>
        <time>2017-09-18T09:41:51Z</time>
      </trkpt>
      <trkpt lat="44.44101" lon="2.10488">
        <ele>469</ele>
        <time>2017-09-18T09:41:57Z</time>
      </trkpt>
      <trkpt lat="44.44102" lon="2.10484">
        <ele>469</ele>
        <time>2017-09-18T09:41:59Z</time>
      </trkpt>
      <trkpt lat="44.44104" lon="2.10482">
        <ele>469</ele>
        <time>2017-09-18T09:42:01Z</time>
      </trkpt>
      <trkpt lat="44.44105" lon="2.10478">
        <ele>470</ele>
        <time>2017-09-18T09:42:03Z</time>
      </trkpt>
      <trkpt lat="44.4411" lon="2.10468">
        <ele>470</ele>
        <time>2017-09-18T09:42:10Z</time>
      </trkpt>
      <trkpt lat="44.4411" lon="2.10464">
        <ele>470</ele>
        <time>2017-09-18T09:42:13Z</time>
      </trkpt>
      <trkpt lat="44.44123" lon="2.10429">
        <ele>471</ele>
        <time>2017-09-18T09:42:37Z</time>
      </trkpt>
      <trkpt lat="44.4413" lon="2.10413">
        <ele>474</ele>
        <time>2017-09-18T09:42:47Z</time>
      </trkpt>
      <trkpt lat="44.44132" lon="2.10407">
        <ele>474</ele>
        <time>2017-09-18T09:42:51Z</time>
      </trkpt>
      <trkpt lat="44.44136" lon="2.10397">
        <ele>474</ele>
        <time>2017-09-18T09:42:57Z</time>
      </trkpt>
      <trkpt lat="44.44138" lon="2.10394">
        <ele>474</ele>
        <time>2017-09-18T09:42:59Z</time>
      </trkpt>
      <trkpt lat="44.44139" lon="2.10391">
        <ele>474</ele>
        <time>2017-09-18T09:43:01Z</time>
      </trkpt>
      <trkpt lat="44.44142" lon="2.10383">
        <ele>474</ele>
        <time>2017-09-18T09:43:06Z</time>
      </trkpt>
      <trkpt lat="44.44144" lon="2.1038">
        <ele>474</ele>
        <time>2017-09-18T09:43:08Z</time>
      </trkpt>
      <trkpt lat="44.44149" lon="2.10359">
        <ele>475</ele>
        <time>2017-09-18T09:43:21Z</time>
      </trkpt>
      <trkpt lat="44.44158" lon="2.10336">
        <ele>476</ele>
        <time>2017-09-18T09:43:36Z</time>
      </trkpt>
      <trkpt lat="44.4416" lon="2.10313">
        <ele>477</ele>
        <time>2017-09-18T09:43:49Z</time>
      </trkpt>
      <trkpt lat="44.4416" lon="2.10299">
        <ele>477</ele>
        <time>2017-09-18T09:43:57Z</time>
      </trkpt>
      <trkpt lat="44.44159" lon="2.10292">
        <ele>477</ele>
        <time>2017-09-18T09:44:01Z</time>
      </trkpt>
      <trkpt lat="44.44159" lon="2.10288">
        <ele>478</ele>
        <time>2017-09-18T09:44:04Z</time>
      </trkpt>
      <trkpt lat="44.44158" lon="2.10281">
        <ele>478</ele>
        <time>2017-09-18T09:44:09Z</time>
      </trkpt>
      <trkpt lat="44.44157" lon="2.1027">
        <ele>478</ele>
        <time>2017-09-18T09:44:15Z</time>
      </trkpt>
      <trkpt lat="44.44157" lon="2.10266">
        <ele>478</ele>
        <time>2017-09-18T09:44:17Z</time>
      </trkpt>
      <trkpt lat="44.44157" lon="2.10263">
        <ele>478</ele>
        <time>2017-09-18T09:44:19Z</time>
      </trkpt>
      <trkpt lat="44.44156" lon="2.10251">
        <ele>478</ele>
        <time>2017-09-18T09:44:25Z</time>
      </trkpt>
      <trkpt lat="44.44156" lon="2.10244">
        <ele>480</ele>
        <time>2017-09-18T09:44:29Z</time>
      </trkpt>
      <trkpt lat="44.44154" lon="2.10231">
        <ele>481</ele>
        <time>2017-09-18T09:44:35Z</time>
      </trkpt>
      <trkpt lat="44.44154" lon="2.10228">
        <ele>481</ele>
        <time>2017-09-18T09:44:37Z</time>
      </trkpt>
      <trkpt lat="44.44154" lon="2.10211">
        <ele>482</ele>
        <time>2017-09-18T09:44:45Z</time>
      </trkpt>
      <trkpt lat="44.44156" lon="2.10186">
        <ele>483</ele>
        <time>2017-09-18T09:44:57Z</time>
      </trkpt>
      <trkpt lat="44.44156" lon="2.10182">
        <ele>483</ele>
        <time>2017-09-18T09:44:59Z</time>
      </trkpt>
      <trkpt lat="44.44156" lon="2.10178">
        <ele>483</ele>
        <time>2017-09-18T09:45:01Z</time>
      </trkpt>
      <trkpt lat="44.44159" lon="2.10161">
        <ele>484</ele>
        <time>2017-09-18T09:45:11Z</time>
      </trkpt>
      <trkpt lat="44.44161" lon="2.10149">
        <ele>485</ele>
        <time>2017-09-18T09:45:18Z</time>
      </trkpt>
      <trkpt lat="44.44163" lon="2.10146">
        <ele>486</ele>
        <time>2017-09-18T09:45:21Z</time>
      </trkpt>
      <trkpt lat="44.44163" lon="2.10134">
        <ele>486</ele>
        <time>2017-09-18T09:45:28Z</time>
      </trkpt>
      <trkpt lat="44.44165" lon="2.10128">
        <ele>487</ele>
        <time>2017-09-18T09:45:32Z</time>
      </trkpt>
      <trkpt lat="44.44168" lon="2.10117">
        <ele>486</ele>
        <time>2017-09-18T09:45:38Z</time>
      </trkpt>
      <trkpt lat="44.44171" lon="2.10103">
        <ele>487</ele>
        <time>2017-09-18T09:45:46Z</time>
      </trkpt>
      <trkpt lat="44.44172" lon="2.10092">
        <ele>487</ele>
        <time>2017-09-18T09:45:52Z</time>
      </trkpt>
      <trkpt lat="44.44178" lon="2.10065">
        <ele>490</ele>
        <time>2017-09-18T09:46:09Z</time>
      </trkpt>
      <trkpt lat="44.4418" lon="2.1005">
        <ele>491</ele>
        <time>2017-09-18T09:46:18Z</time>
      </trkpt>
      <trkpt lat="44.44179" lon="2.10028">
        <ele>492</ele>
        <time>2017-09-18T09:46:30Z</time>
      </trkpt>
      <trkpt lat="44.44179" lon="2.10021">
        <ele>492</ele>
        <time>2017-09-18T09:46:34Z</time>
      </trkpt>
      <trkpt lat="44.4418" lon="2.10017">
        <ele>493</ele>
        <time>2017-09-18T09:46:36Z</time>
      </trkpt>
      <trkpt lat="44.44178" lon="2.1001">
        <ele>493</ele>
        <time>2017-09-18T09:46:40Z</time>
      </trkpt>
      <trkpt lat="44.44177" lon="2.10007">
        <ele>493</ele>
        <time>2017-09-18T09:46:43Z</time>
      </trkpt>
      <trkpt lat="44.44178" lon="2.10005">
        <ele>493</ele>
        <time>2017-09-18T09:47:25Z</time>
      </trkpt>
      <trkpt lat="44.44179" lon="2.10007">
        <ele>493</ele>
        <time>2017-09-18T09:48:00Z</time>
      </trkpt>
      <trkpt lat="44.44181" lon="2.10014">
        <ele>493</ele>
        <time>2017-09-18T09:48:07Z</time>
      </trkpt>
      <trkpt lat="44.44183" lon="2.10015">
        <ele>493</ele>
        <time>2017-09-18T09:48:42Z</time>
      </trkpt>
      <trkpt lat="44.44182" lon="2.10012">
        <ele>493</ele>
        <time>2017-09-18T09:48:53Z</time>
      </trkpt>
      <trkpt lat="44.4418" lon="2.10007">
        <ele>493</ele>
        <time>2017-09-18T09:49:11Z</time>
      </trkpt>
      <trkpt lat="44.44179" lon="2.10004">
        <ele>493</ele>
        <time>2017-09-18T09:49:13Z</time>
      </trkpt>
      <trkpt lat="44.4418" lon="2.09999">
        <ele>494</ele>
        <time>2017-09-18T09:49:19Z</time>
      </trkpt>
      <trkpt lat="44.4418" lon="2.09995">
        <ele>494</ele>
        <time>2017-09-18T09:49:24Z</time>
      </trkpt>
      <trkpt lat="44.4418" lon="2.09993">
        <ele>494</ele>
        <time>2017-09-18T09:49:29Z</time>
      </trkpt>
      <trkpt lat="44.44179" lon="2.0999">
        <ele>494</ele>
        <time>2017-09-18T09:49:32Z</time>
      </trkpt>
      <trkpt lat="44.44176" lon="2.09978">
        <ele>495</ele>
        <time>2017-09-18T09:49:42Z</time>
      </trkpt>
      <trkpt lat="44.44176" lon="2.0997">
        <ele>495</ele>
        <time>2017-09-18T09:49:48Z</time>
      </trkpt>
      <trkpt lat="44.44175" lon="2.09967">
        <ele>495</ele>
        <time>2017-09-18T09:49:50Z</time>
      </trkpt>
      <trkpt lat="44.44176" lon="2.09964">
        <ele>495</ele>
        <time>2017-09-18T09:49:53Z</time>
      </trkpt>
      <trkpt lat="44.44175" lon="2.09956">
        <ele>495</ele>
        <time>2017-09-18T09:49:57Z</time>
      </trkpt>
      <trkpt lat="44.44175" lon="2.09952">
        <ele>495</ele>
        <time>2017-09-18T09:49:59Z</time>
      </trkpt>
      <trkpt lat="44.44175" lon="2.09937">
        <ele>495</ele>
        <time>2017-09-18T09:50:07Z</time>
      </trkpt>
      <trkpt lat="44.44177" lon="2.09896">
        <ele>494</ele>
        <time>2017-09-18T09:50:30Z</time>
      </trkpt>
      <trkpt lat="44.44176" lon="2.09879">
        <ele>493</ele>
        <time>2017-09-18T09:50:40Z</time>
      </trkpt>
      <trkpt lat="44.44175" lon="2.09857">
        <ele>492</ele>
        <time>2017-09-18T09:50:53Z</time>
      </trkpt>
      <trkpt lat="44.44175" lon="2.09839">
        <ele>491</ele>
        <time>2017-09-18T09:51:06Z</time>
      </trkpt>
      <trkpt lat="44.44176" lon="2.09833">
        <ele>490</ele>
        <time>2017-09-18T09:51:11Z</time>
      </trkpt>
      <trkpt lat="44.44173" lon="2.09799">
        <ele>489</ele>
        <time>2017-09-18T09:51:26Z</time>
      </trkpt>
      <trkpt lat="44.44174" lon="2.09793">
        <ele>489</ele>
        <time>2017-09-18T09:51:30Z</time>
      </trkpt>
      <trkpt lat="44.44174" lon="2.09788">
        <ele>489</ele>
        <time>2017-09-18T09:51:33Z</time>
      </trkpt>
      <trkpt lat="44.44173" lon="2.0977">
        <ele>488</ele>
        <time>2017-09-18T09:51:43Z</time>
      </trkpt>
      <trkpt lat="44.44172" lon="2.09762">
        <ele>487</ele>
        <time>2017-09-18T09:51:49Z</time>
      </trkpt>
      <trkpt lat="44.4417" lon="2.09739">
        <ele>486</ele>
        <time>2017-09-18T09:52:01Z</time>
      </trkpt>
      <trkpt lat="44.44169" lon="2.09732">
        <ele>486</ele>
        <time>2017-09-18T09:52:04Z</time>
      </trkpt>
      <trkpt lat="44.44165" lon="2.09684">
        <ele>481</ele>
        <time>2017-09-18T09:52:29Z</time>
      </trkpt>
      <trkpt lat="44.44164" lon="2.09671">
        <ele>482</ele>
        <time>2017-09-18T09:52:36Z</time>
      </trkpt>
      <trkpt lat="44.44163" lon="2.09646">
        <ele>478</ele>
        <time>2017-09-18T09:52:49Z</time>
      </trkpt>
      <trkpt lat="44.44163" lon="2.09643">
        <ele>477</ele>
        <time>2017-09-18T09:52:51Z</time>
      </trkpt>
      <trkpt lat="44.44166" lon="2.09621">
        <ele>475</ele>
        <time>2017-09-18T09:53:05Z</time>
      </trkpt>
      <trkpt lat="44.44169" lon="2.09604">
        <ele>478</ele>
        <time>2017-09-18T09:53:16Z</time>
      </trkpt>
      <trkpt lat="44.4417" lon="2.09599">
        <ele>478</ele>
        <time>2017-09-18T09:53:20Z</time>
      </trkpt>
      <trkpt lat="44.44172" lon="2.0959">
        <ele>477</ele>
        <time>2017-09-18T09:53:26Z</time>
      </trkpt>
      <trkpt lat="44.44173" lon="2.09582">
        <ele>474</ele>
        <time>2017-09-18T09:53:31Z</time>
      </trkpt>
      <trkpt lat="44.44173" lon="2.09579">
        <ele>474</ele>
        <time>2017-09-18T09:53:34Z</time>
      </trkpt>
      <trkpt lat="44.44173" lon="2.09575">
        <ele>474</ele>
        <time>2017-09-18T09:53:37Z</time>
      </trkpt>
      <trkpt lat="44.4418" lon="2.09552">
        <ele>472</ele>
        <time>2017-09-18T09:54:00Z</time>
      </trkpt>
      <trkpt lat="44.4418" lon="2.09546">
        <ele>471</ele>
        <time>2017-09-18T09:54:03Z</time>
      </trkpt>
      <trkpt lat="44.44181" lon="2.09542">
        <ele>471</ele>
        <time>2017-09-18T09:54:06Z</time>
      </trkpt>
      <trkpt lat="44.44181" lon="2.09538">
        <ele>470</ele>
        <time>2017-09-18T09:54:08Z</time>
      </trkpt>
      <trkpt lat="44.44184" lon="2.09534">
        <ele>470</ele>
        <time>2017-09-18T09:54:11Z</time>
      </trkpt>
      <trkpt lat="44.44185" lon="2.0953">
        <ele>470</ele>
        <time>2017-09-18T09:54:13Z</time>
      </trkpt>
      <trkpt lat="44.44193" lon="2.09502">
        <ele>468</ele>
        <time>2017-09-18T09:54:30Z</time>
      </trkpt>
      <trkpt lat="44.44195" lon="2.09487">
        <ele>461</ele>
        <time>2017-09-18T09:54:39Z</time>
      </trkpt>
      <trkpt lat="44.44197" lon="2.0948">
        <ele>461</ele>
        <time>2017-09-18T09:54:44Z</time>
      </trkpt>
      <trkpt lat="44.44198" lon="2.09471">
        <ele>460</ele>
        <time>2017-09-18T09:54:51Z</time>
      </trkpt>
      <trkpt lat="44.44198" lon="2.09467">
        <ele>460</ele>
        <time>2017-09-18T09:54:58Z</time>
      </trkpt>
      <trkpt lat="44.442" lon="2.09439">
        <ele>457</ele>
        <time>2017-09-18T09:55:30Z</time>
      </trkpt>
      <trkpt lat="44.44198" lon="2.09429">
        <ele>457</ele>
        <time>2017-09-18T09:55:38Z</time>
      </trkpt>
      <trkpt lat="44.44197" lon="2.09423">
        <ele>456</ele>
        <time>2017-09-18T09:55:44Z</time>
      </trkpt>
      <trkpt lat="44.44193" lon="2.09411">
        <ele>449</ele>
        <time>2017-09-18T09:55:56Z</time>
      </trkpt>
      <trkpt lat="44.4419" lon="2.09409">
        <ele>449</ele>
        <time>2017-09-18T09:56:01Z</time>
      </trkpt>
      <trkpt lat="44.4419" lon="2.09404">
        <ele>449</ele>
        <time>2017-09-18T09:56:06Z</time>
      </trkpt>
      <trkpt lat="44.4419" lon="2.09401">
        <ele>449</ele>
        <time>2017-09-18T09:56:09Z</time>
      </trkpt>
      <trkpt lat="44.4419" lon="2.09398">
        <ele>449</ele>
        <time>2017-09-18T09:56:12Z</time>
      </trkpt>
      <trkpt lat="44.44192" lon="2.09396">
        <ele>449</ele>
        <time>2017-09-18T09:56:14Z</time>
      </trkpt>
      <trkpt lat="44.44195" lon="2.09391">
        <ele>448</ele>
        <time>2017-09-18T09:56:18Z</time>
      </trkpt>
      <trkpt lat="44.44205" lon="2.09377">
        <ele>448</ele>
        <time>2017-09-18T09:56:28Z</time>
      </trkpt>
      <trkpt lat="44.4421" lon="2.09367">
        <ele>447</ele>
        <time>2017-09-18T09:56:35Z</time>
      </trkpt>
      <trkpt lat="44.44214" lon="2.09363">
        <ele>447</ele>
        <time>2017-09-18T09:56:39Z</time>
      </trkpt>
      <trkpt lat="44.44216" lon="2.09362">
        <ele>447</ele>
        <time>2017-09-18T09:56:41Z</time>
      </trkpt>
      <trkpt lat="44.44228" lon="2.09345">
        <ele>447</ele>
        <time>2017-09-18T09:56:54Z</time>
      </trkpt>
      <trkpt lat="44.44238" lon="2.09328">
        <ele>445</ele>
        <time>2017-09-18T09:57:07Z</time>
      </trkpt>
      <trkpt lat="44.4424" lon="2.09327">
        <ele>445</ele>
        <time>2017-09-18T09:57:09Z</time>
      </trkpt>
      <trkpt lat="44.44243" lon="2.09326">
        <ele>446</ele>
        <time>2017-09-18T09:57:11Z</time>
      </trkpt>
      <trkpt lat="44.44254" lon="2.09328">
        <ele>448</ele>
        <time>2017-09-18T09:57:21Z</time>
      </trkpt>
      <trkpt lat="44.44278" lon="2.09349">
        <ele>449</ele>
        <time>2017-09-18T09:57:51Z</time>
      </trkpt>
      <trkpt lat="44.44281" lon="2.09353">
        <ele>449</ele>
        <time>2017-09-18T09:57:55Z</time>
      </trkpt>
      <trkpt lat="44.44289" lon="2.09367">
        <ele>449</ele>
        <time>2017-09-18T09:58:06Z</time>
      </trkpt>
      <trkpt lat="44.44291" lon="2.09371">
        <ele>449</ele>
        <time>2017-09-18T09:58:09Z</time>
      </trkpt>
      <trkpt lat="44.44294" lon="2.09378">
        <ele>449</ele>
        <time>2017-09-18T09:58:15Z</time>
      </trkpt>
      <trkpt lat="44.44297" lon="2.09388">
        <ele>449</ele>
        <time>2017-09-18T09:58:24Z</time>
      </trkpt>
      <trkpt lat="44.44307" lon="2.09404">
        <ele>449</ele>
        <time>2017-09-18T09:58:37Z</time>
      </trkpt>
      <trkpt lat="44.4431" lon="2.09413">
        <ele>449</ele>
        <time>2017-09-18T09:58:44Z</time>
      </trkpt>
      <trkpt lat="44.44315" lon="2.0942">
        <ele>451</ele>
        <time>2017-09-18T09:58:50Z</time>
      </trkpt>
      <trkpt lat="44.44314" lon="2.09428">
        <ele>452</ele>
        <time>2017-09-18T09:58:58Z</time>
      </trkpt>
      <trkpt lat="44.44319" lon="2.09434">
        <ele>452</ele>
        <time>2017-09-18T09:59:03Z</time>
      </trkpt>
      <trkpt lat="44.44325" lon="2.09441">
        <ele>452</ele>
        <time>2017-09-18T09:59:09Z</time>
      </trkpt>
      <trkpt lat="44.44334" lon="2.09445">
        <ele>445</ele>
        <time>2017-09-18T09:59:13Z</time>
      </trkpt>
      <trkpt lat="44.44336" lon="2.09449">
        <ele>445</ele>
        <time>2017-09-18T09:59:15Z</time>
      </trkpt>
      <trkpt lat="44.44341" lon="2.09454">
        <ele>445</ele>
        <time>2017-09-18T09:59:19Z</time>
      </trkpt>
      <trkpt lat="44.44359" lon="2.09487">
        <ele>446</ele>
        <time>2017-09-18T09:59:39Z</time>
      </trkpt>
      <trkpt lat="44.44361" lon="2.0949">
        <ele>446</ele>
        <time>2017-09-18T09:59:41Z</time>
      </trkpt>
      <trkpt lat="44.44374" lon="2.09498">
        <ele>443</ele>
        <time>2017-09-18T09:59:52Z</time>
      </trkpt>
      <trkpt lat="44.44389" lon="2.09514">
        <ele>448</ele>
        <time>2017-09-18T10:00:04Z</time>
      </trkpt>
      <trkpt lat="44.44391" lon="2.09517">
        <ele>448</ele>
        <time>2017-09-18T10:00:06Z</time>
      </trkpt>
      <trkpt lat="44.44398" lon="2.09547">
        <ele>450</ele>
        <time>2017-09-18T10:00:22Z</time>
      </trkpt>
      <trkpt lat="44.44403" lon="2.09556">
        <ele>451</ele>
        <time>2017-09-18T10:00:32Z</time>
      </trkpt>
      <trkpt lat="44.44407" lon="2.09555">
        <ele>451</ele>
        <time>2017-09-18T10:00:35Z</time>
      </trkpt>
      <trkpt lat="44.44409" lon="2.09554">
        <ele>450</ele>
        <time>2017-09-18T10:00:38Z</time>
      </trkpt>
      <trkpt lat="44.44413" lon="2.09551">
        <ele>450</ele>
        <time>2017-09-18T10:00:42Z</time>
      </trkpt>
      <trkpt lat="44.44416" lon="2.09548">
        <ele>450</ele>
        <time>2017-09-18T10:00:45Z</time>
      </trkpt>
      <trkpt lat="44.44419" lon="2.09546">
        <ele>441</ele>
        <time>2017-09-18T10:00:47Z</time>
      </trkpt>
      <trkpt lat="44.44422" lon="2.09545">
        <ele>441</ele>
        <time>2017-09-18T10:00:51Z</time>
      </trkpt>
      <trkpt lat="44.44426" lon="2.09544">
        <ele>440</ele>
        <time>2017-09-18T10:00:54Z</time>
      </trkpt>
      <trkpt lat="44.4443" lon="2.09541">
        <ele>440</ele>
        <time>2017-09-18T10:00:59Z</time>
      </trkpt>
      <trkpt lat="44.44434" lon="2.09539">
        <ele>440</ele>
        <time>2017-09-18T10:01:05Z</time>
      </trkpt>
      <trkpt lat="44.44438" lon="2.09539">
        <ele>439</ele>
        <time>2017-09-18T10:01:08Z</time>
      </trkpt>
      <trkpt lat="44.44442" lon="2.09541">
        <ele>439</ele>
        <time>2017-09-18T10:01:11Z</time>
      </trkpt>
      <trkpt lat="44.44448" lon="2.09543">
        <ele>439</ele>
        <time>2017-09-18T10:01:15Z</time>
      </trkpt>
      <trkpt lat="44.44452" lon="2.09545">
        <ele>439</ele>
        <time>2017-09-18T10:01:18Z</time>
      </trkpt>
      <trkpt lat="44.44469" lon="2.09559">
        <ele>440</ele>
        <time>2017-09-18T10:01:32Z</time>
      </trkpt>
      <trkpt lat="44.44481" lon="2.09573">
        <ele>440</ele>
        <time>2017-09-18T10:01:45Z</time>
      </trkpt>
      <trkpt lat="44.44492" lon="2.09601">
        <ele>448</ele>
        <time>2017-09-18T10:02:02Z</time>
      </trkpt>
      <trkpt lat="44.44493" lon="2.09606">
        <ele>449</ele>
        <time>2017-09-18T10:02:05Z</time>
      </trkpt>
      <trkpt lat="44.44497" lon="2.09611">
        <ele>449</ele>
        <time>2017-09-18T10:02:08Z</time>
      </trkpt>
      <trkpt lat="44.44505" lon="2.0962">
        <ele>445</ele>
        <time>2017-09-18T10:02:16Z</time>
      </trkpt>
      <trkpt lat="44.44508" lon="2.09622">
        <ele>445</ele>
        <time>2017-09-18T10:02:19Z</time>
      </trkpt>
      <trkpt lat="44.44512" lon="2.09624">
        <ele>445</ele>
        <time>2017-09-18T10:02:25Z</time>
      </trkpt>
      <trkpt lat="44.44521" lon="2.09625">
        <ele>445</ele>
        <time>2017-09-18T10:02:31Z</time>
      </trkpt>
      <trkpt lat="44.44536" lon="2.09619">
        <ele>444</ele>
        <time>2017-09-18T10:02:43Z</time>
      </trkpt>
      <trkpt lat="44.4454" lon="2.09619">
        <ele>444</ele>
        <time>2017-09-18T10:02:46Z</time>
      </trkpt>
      <trkpt lat="44.44578" lon="2.09601">
        <ele>439</ele>
        <time>2017-09-18T10:03:16Z</time>
      </trkpt>
      <trkpt lat="44.44583" lon="2.09598">
        <ele>438</ele>
        <time>2017-09-18T10:03:20Z</time>
      </trkpt>
      <trkpt lat="44.44595" lon="2.09599">
        <ele>436</ele>
        <time>2017-09-18T10:03:30Z</time>
      </trkpt>
      <trkpt lat="44.44605" lon="2.09598">
        <ele>436</ele>
        <time>2017-09-18T10:03:39Z</time>
      </trkpt>
      <trkpt lat="44.44606" lon="2.09597">
        <ele>436</ele>
        <time>2017-09-18T10:03:43Z</time>
      </trkpt>
      <trkpt lat="44.44612" lon="2.09595">
        <ele>436</ele>
        <time>2017-09-18T10:03:49Z</time>
      </trkpt>
      <trkpt lat="44.44614" lon="2.09595">
        <ele>436</ele>
        <time>2017-09-18T10:03:51Z</time>
      </trkpt>
      <trkpt lat="44.44652" lon="2.09595">
        <ele>436</ele>
        <time>2017-09-18T10:04:23Z</time>
      </trkpt>
      <trkpt lat="44.44656" lon="2.09594">
        <ele>436</ele>
        <time>2017-09-18T10:04:26Z</time>
      </trkpt>
      <trkpt lat="44.44679" lon="2.09598">
        <ele>432</ele>
        <time>2017-09-18T10:04:45Z</time>
      </trkpt>
      <trkpt lat="44.44717" lon="2.09589">
        <ele>430</ele>
        <time>2017-09-18T10:05:16Z</time>
      </trkpt>
      <trkpt lat="44.44751" lon="2.09583">
        <ele>430</ele>
        <time>2017-09-18T10:05:45Z</time>
      </trkpt>
      <trkpt lat="44.44754" lon="2.09582">
        <ele>429</ele>
        <time>2017-09-18T10:05:48Z</time>
      </trkpt>
      <trkpt lat="44.4476" lon="2.09581">
        <ele>429</ele>
        <time>2017-09-18T10:05:53Z</time>
      </trkpt>
      <trkpt lat="44.44765" lon="2.0958">
        <ele>428</ele>
        <time>2017-09-18T10:05:57Z</time>
      </trkpt>
      <trkpt lat="44.4477" lon="2.09579">
        <ele>428</ele>
        <time>2017-09-18T10:06:01Z</time>
      </trkpt>
      <trkpt lat="44.44801" lon="2.09572">
        <ele>425</ele>
        <time>2017-09-18T10:06:20Z</time>
      </trkpt>
      <trkpt lat="44.44804" lon="2.09571">
        <ele>424</ele>
        <time>2017-09-18T10:06:23Z</time>
      </trkpt>
      <trkpt lat="44.44829" lon="2.09557">
        <ele>423</ele>
        <time>2017-09-18T10:06:51Z</time>
      </trkpt>
      <trkpt lat="44.44833" lon="2.09555">
        <ele>424</ele>
        <time>2017-09-18T10:06:54Z</time>
      </trkpt>
      <trkpt lat="44.4485" lon="2.09544">
        <ele>419</ele>
        <time>2017-09-18T10:07:08Z</time>
      </trkpt>
      <trkpt lat="44.44853" lon="2.09542">
        <ele>419</ele>
        <time>2017-09-18T10:07:10Z</time>
      </trkpt>
      <trkpt lat="44.4486" lon="2.09534">
        <ele>419</ele>
        <time>2017-09-18T10:07:19Z</time>
      </trkpt>
      <trkpt lat="44.44869" lon="2.09531">
        <ele>419</ele>
        <time>2017-09-18T10:07:27Z</time>
      </trkpt>
      <trkpt lat="44.44873" lon="2.09531">
        <ele>419</ele>
        <time>2017-09-18T10:07:31Z</time>
      </trkpt>
      <trkpt lat="44.44885" lon="2.0953">
        <ele>419</ele>
        <time>2017-09-18T10:07:38Z</time>
      </trkpt>
      <trkpt lat="44.44901" lon="2.09532">
        <ele>418</ele>
        <time>2017-09-18T10:07:52Z</time>
      </trkpt>
      <trkpt lat="44.44906" lon="2.09534">
        <ele>418</ele>
        <time>2017-09-18T10:07:57Z</time>
      </trkpt>
      <trkpt lat="44.44928" lon="2.09542">
        <ele>411</ele>
        <time>2017-09-18T10:08:11Z</time>
      </trkpt>
      <trkpt lat="44.44943" lon="2.09542">
        <ele>410</ele>
        <time>2017-09-18T10:08:23Z</time>
      </trkpt>
      <trkpt lat="44.44947" lon="2.09538">
        <ele>410</ele>
        <time>2017-09-18T10:08:27Z</time>
      </trkpt>
      <trkpt lat="44.4495" lon="2.09536">
        <ele>410</ele>
        <time>2017-09-18T10:08:30Z</time>
      </trkpt>
      <trkpt lat="44.44953" lon="2.09534">
        <ele>410</ele>
        <time>2017-09-18T10:08:33Z</time>
      </trkpt>
      <trkpt lat="44.44957" lon="2.09531">
        <ele>410</ele>
        <time>2017-09-18T10:08:36Z</time>
      </trkpt>
      <trkpt lat="44.44961" lon="2.09529">
        <ele>410</ele>
        <time>2017-09-18T10:08:39Z</time>
      </trkpt>
      <trkpt lat="44.44965" lon="2.09527">
        <ele>410</ele>
        <time>2017-09-18T10:08:42Z</time>
      </trkpt>
      <trkpt lat="44.44968" lon="2.09523">
        <ele>410</ele>
        <time>2017-09-18T10:08:46Z</time>
      </trkpt>
      <trkpt lat="44.44975" lon="2.09518">
        <ele>409</ele>
        <time>2017-09-18T10:08:53Z</time>
      </trkpt>
      <trkpt lat="44.44978" lon="2.09513">
        <ele>409</ele>
        <time>2017-09-18T10:08:57Z</time>
      </trkpt>
      <trkpt lat="44.44985" lon="2.09505">
        <ele>409</ele>
        <time>2017-09-18T10:09:03Z</time>
      </trkpt>
      <trkpt lat="44.4499" lon="2.09502">
        <ele>408</ele>
        <time>2017-09-18T10:09:09Z</time>
      </trkpt>
      <trkpt lat="44.44994" lon="2.09503">
        <ele>408</ele>
        <time>2017-09-18T10:09:13Z</time>
      </trkpt>
      <trkpt lat="44.44997" lon="2.09501">
        <ele>407</ele>
        <time>2017-09-18T10:09:20Z</time>
      </trkpt>
      <trkpt lat="44.45002" lon="2.09492">
        <ele>406</ele>
        <time>2017-09-18T10:09:26Z</time>
      </trkpt>
      <trkpt lat="44.45005" lon="2.09484">
        <ele>405</ele>
        <time>2017-09-18T10:09:31Z</time>
      </trkpt>
      <trkpt lat="44.4501" lon="2.09478">
        <ele>404</ele>
        <time>2017-09-18T10:09:35Z</time>
      </trkpt>
      <trkpt lat="44.45017" lon="2.09457">
        <ele>404</ele>
        <time>2017-09-18T10:09:51Z</time>
      </trkpt>
      <trkpt lat="44.45029" lon="2.09434">
        <ele>404</ele>
        <time>2017-09-18T10:10:07Z</time>
      </trkpt>
      <trkpt lat="44.45035" lon="2.09429">
        <ele>403</ele>
        <time>2017-09-18T10:10:12Z</time>
      </trkpt>
      <trkpt lat="44.45037" lon="2.09425">
        <ele>403</ele>
        <time>2017-09-18T10:10:15Z</time>
      </trkpt>
      <trkpt lat="44.45058" lon="2.09402">
        <ele>401</ele>
        <time>2017-09-18T10:10:34Z</time>
      </trkpt>
      <trkpt lat="44.45069" lon="2.09396">
        <ele>401</ele>
        <time>2017-09-18T10:10:42Z</time>
      </trkpt>
      <trkpt lat="44.45081" lon="2.09396">
        <ele>400</ele>
        <time>2017-09-18T10:10:50Z</time>
      </trkpt>
      <trkpt lat="44.45086" lon="2.09393">
        <ele>395</ele>
        <time>2017-09-18T10:10:56Z</time>
      </trkpt>
      <trkpt lat="44.4509" lon="2.09393">
        <ele>395</ele>
        <time>2017-09-18T10:10:59Z</time>
      </trkpt>
      <trkpt lat="44.45093" lon="2.09395">
        <ele>395</ele>
        <time>2017-09-18T10:11:02Z</time>
      </trkpt>
      <trkpt lat="44.45097" lon="2.09394">
        <ele>395</ele>
        <time>2017-09-18T10:11:06Z</time>
      </trkpt>
      <trkpt lat="44.45101" lon="2.09393">
        <ele>395</ele>
        <time>2017-09-18T10:11:09Z</time>
      </trkpt>
      <trkpt lat="44.45106" lon="2.09393">
        <ele>394</ele>
        <time>2017-09-18T10:11:15Z</time>
      </trkpt>
      <trkpt lat="44.45118" lon="2.09396">
        <ele>394</ele>
        <time>2017-09-18T10:11:26Z</time>
      </trkpt>
      <trkpt lat="44.45121" lon="2.09398">
        <ele>393</ele>
        <time>2017-09-18T10:11:31Z</time>
      </trkpt>
      <trkpt lat="44.45125" lon="2.094">
        <ele>393</ele>
        <time>2017-09-18T10:11:35Z</time>
      </trkpt>
      <trkpt lat="44.45128" lon="2.09399">
        <ele>393</ele>
        <time>2017-09-18T10:11:38Z</time>
      </trkpt>
      <trkpt lat="44.45132" lon="2.09402">
        <ele>393</ele>
        <time>2017-09-18T10:11:41Z</time>
      </trkpt>
      <trkpt lat="44.45149" lon="2.09406">
        <ele>391</ele>
        <time>2017-09-18T10:11:55Z</time>
      </trkpt>
      <trkpt lat="44.45152" lon="2.09407">
        <ele>391</ele>
        <time>2017-09-18T10:11:58Z</time>
      </trkpt>
      <trkpt lat="44.45156" lon="2.09407">
        <ele>391</ele>
        <time>2017-09-18T10:12:01Z</time>
      </trkpt>
      <trkpt lat="44.45159" lon="2.09408">
        <ele>390</ele>
        <time>2017-09-18T10:12:04Z</time>
      </trkpt>
      <trkpt lat="44.45177" lon="2.09411">
        <ele>388</ele>
        <time>2017-09-18T10:12:18Z</time>
      </trkpt>
      <trkpt lat="44.4518" lon="2.09412">
        <ele>387</ele>
        <time>2017-09-18T10:12:20Z</time>
      </trkpt>
      <trkpt lat="44.45183" lon="2.09414">
        <ele>387</ele>
        <time>2017-09-18T10:12:24Z</time>
      </trkpt>
      <trkpt lat="44.45225" lon="2.09424">
        <ele>385</ele>
        <time>2017-09-18T10:12:55Z</time>
      </trkpt>
      <trkpt lat="44.45228" lon="2.09426">
        <ele>385</ele>
        <time>2017-09-18T10:12:58Z</time>
      </trkpt>
      <trkpt lat="44.45268" lon="2.09431">
        <ele>383</ele>
        <time>2017-09-18T10:13:27Z</time>
      </trkpt>
      <trkpt lat="44.45271" lon="2.09432">
        <ele>383</ele>
        <time>2017-09-18T10:13:29Z</time>
      </trkpt>
      <trkpt lat="44.45287" lon="2.09436">
        <ele>382</ele>
        <time>2017-09-18T10:13:43Z</time>
      </trkpt>
      <trkpt lat="44.45302" lon="2.0944">
        <ele>382</ele>
        <time>2017-09-18T10:13:56Z</time>
      </trkpt>
      <trkpt lat="44.45305" lon="2.09441">
        <ele>381</ele>
        <time>2017-09-18T10:13:58Z</time>
      </trkpt>
      <trkpt lat="44.45309" lon="2.09443">
        <ele>381</ele>
        <time>2017-09-18T10:14:01Z</time>
      </trkpt>
      <trkpt lat="44.45322" lon="2.09447">
        <ele>381</ele>
        <time>2017-09-18T10:14:11Z</time>
      </trkpt>
      <trkpt lat="44.45326" lon="2.09449">
        <ele>381</ele>
        <time>2017-09-18T10:14:14Z</time>
      </trkpt>
      <trkpt lat="44.45346" lon="2.09453">
        <ele>376</ele>
        <time>2017-09-18T10:14:30Z</time>
      </trkpt>
      <trkpt lat="44.45353" lon="2.09454">
        <ele>376</ele>
        <time>2017-09-18T10:14:36Z</time>
      </trkpt>
      <trkpt lat="44.45356" lon="2.09454">
        <ele>376</ele>
        <time>2017-09-18T10:14:39Z</time>
      </trkpt>
      <trkpt lat="44.4538" lon="2.09452">
        <ele>375</ele>
        <time>2017-09-18T10:14:57Z</time>
      </trkpt>
      <trkpt lat="44.45421" lon="2.09444">
        <ele>370</ele>
        <time>2017-09-18T10:15:27Z</time>
      </trkpt>
      <trkpt lat="44.45464" lon="2.09432">
        <ele>369</ele>
        <time>2017-09-18T10:15:59Z</time>
      </trkpt>
      <trkpt lat="44.45492" lon="2.09422">
        <ele>367</ele>
        <time>2017-09-18T10:16:24Z</time>
      </trkpt>
      <trkpt lat="44.45504" lon="2.09416">
        <ele>366</ele>
        <time>2017-09-18T10:16:34Z</time>
      </trkpt>
      <trkpt lat="44.45527" lon="2.09406">
        <ele>364</ele>
        <time>2017-09-18T10:16:53Z</time>
      </trkpt>
      <trkpt lat="44.45551" lon="2.09393">
        <ele>364</ele>
        <time>2017-09-18T10:17:14Z</time>
      </trkpt>
      <trkpt lat="44.45554" lon="2.0939">
        <ele>364</ele>
        <time>2017-09-18T10:17:18Z</time>
      </trkpt>
      <trkpt lat="44.45575" lon="2.09373">
        <ele>363</ele>
        <time>2017-09-18T10:17:39Z</time>
      </trkpt>
      <trkpt lat="44.45578" lon="2.09372">
        <ele>363</ele>
        <time>2017-09-18T10:17:42Z</time>
      </trkpt>
      <trkpt lat="44.45593" lon="2.09359">
        <ele>362</ele>
        <time>2017-09-18T10:17:58Z</time>
      </trkpt>
      <trkpt lat="44.45599" lon="2.09355">
        <ele>362</ele>
        <time>2017-09-18T10:18:04Z</time>
      </trkpt>
      <trkpt lat="44.45617" lon="2.09342">
        <ele>362</ele>
        <time>2017-09-18T10:18:21Z</time>
      </trkpt>
      <trkpt lat="44.4562" lon="2.0934">
        <ele>362</ele>
        <time>2017-09-18T10:18:23Z</time>
      </trkpt>
      <trkpt lat="44.45646" lon="2.09323">
        <ele>360</ele>
        <time>2017-09-18T10:18:46Z</time>
      </trkpt>
      <trkpt lat="44.45654" lon="2.09317">
        <ele>360</ele>
        <time>2017-09-18T10:18:53Z</time>
      </trkpt>
      <trkpt lat="44.45668" lon="2.09311">
        <ele>362</ele>
        <time>2017-09-18T10:19:03Z</time>
      </trkpt>
      <trkpt lat="44.45673" lon="2.0931">
        <ele>361</ele>
        <time>2017-09-18T10:19:08Z</time>
      </trkpt>
      <trkpt lat="44.45675" lon="2.09309">
        <ele>361</ele>
        <time>2017-09-18T10:19:10Z</time>
      </trkpt>
      <trkpt lat="44.45713" lon="2.09296">
        <ele>360</ele>
        <time>2017-09-18T10:19:40Z</time>
      </trkpt>
      <trkpt lat="44.4575" lon="2.09283">
        <ele>360</ele>
        <time>2017-09-18T10:20:12Z</time>
      </trkpt>
      <trkpt lat="44.45788" lon="2.0927">
        <ele>358</ele>
        <time>2017-09-18T10:20:43Z</time>
      </trkpt>
      <trkpt lat="44.45799" lon="2.09266">
        <ele>358</ele>
        <time>2017-09-18T10:20:52Z</time>
      </trkpt>
      <trkpt lat="44.45802" lon="2.09266">
        <ele>357</ele>
        <time>2017-09-18T10:20:55Z</time>
      </trkpt>
      <trkpt lat="44.45838" lon="2.09258">
        <ele>355</ele>
        <time>2017-09-18T10:21:27Z</time>
      </trkpt>
      <trkpt lat="44.45861" lon="2.09253">
        <ele>353</ele>
        <time>2017-09-18T10:21:46Z</time>
      </trkpt>
      <trkpt lat="44.45864" lon="2.09253">
        <ele>353</ele>
        <time>2017-09-18T10:21:49Z</time>
      </trkpt>
      <trkpt lat="44.45903" lon="2.09237">
        <ele>350</ele>
        <time>2017-09-18T10:22:21Z</time>
      </trkpt>
      <trkpt lat="44.45942" lon="2.0922">
        <ele>347</ele>
        <time>2017-09-18T10:22:53Z</time>
      </trkpt>
      <trkpt lat="44.45952" lon="2.09214">
        <ele>346</ele>
        <time>2017-09-18T10:23:01Z</time>
      </trkpt>
      <trkpt lat="44.45955" lon="2.09212">
        <ele>346</ele>
        <time>2017-09-18T10:23:04Z</time>
      </trkpt>
      <trkpt lat="44.45962" lon="2.09209">
        <ele>346</ele>
        <time>2017-09-18T10:23:10Z</time>
      </trkpt>
      <trkpt lat="44.45986" lon="2.09184">
        <ele>345</ele>
        <time>2017-09-18T10:23:35Z</time>
      </trkpt>
      <trkpt lat="44.46007" lon="2.09168">
        <ele>343</ele>
        <time>2017-09-18T10:23:56Z</time>
      </trkpt>
      <trkpt lat="44.4601" lon="2.09165">
        <ele>342</ele>
        <time>2017-09-18T10:23:59Z</time>
      </trkpt>
      <trkpt lat="44.46015" lon="2.09158">
        <ele>341</ele>
        <time>2017-09-18T10:24:06Z</time>
      </trkpt>
      <trkpt lat="44.46018" lon="2.09156">
        <ele>341</ele>
        <time>2017-09-18T10:24:09Z</time>
      </trkpt>
      <trkpt lat="44.4603" lon="2.09149">
        <ele>340</ele>
        <time>2017-09-18T10:24:21Z</time>
      </trkpt>
      <trkpt lat="44.46052" lon="2.09137">
        <ele>339</ele>
        <time>2017-09-18T10:24:42Z</time>
      </trkpt>
      <trkpt lat="44.46057" lon="2.09135">
        <ele>339</ele>
        <time>2017-09-18T10:24:46Z</time>
      </trkpt>
      <trkpt lat="44.46072" lon="2.09128">
        <ele>338</ele>
        <time>2017-09-18T10:25:04Z</time>
      </trkpt>
      <trkpt lat="44.46096" lon="2.09121">
        <ele>334</ele>
        <time>2017-09-18T10:25:25Z</time>
      </trkpt>
      <trkpt lat="44.46099" lon="2.09119">
        <ele>334</ele>
        <time>2017-09-18T10:25:28Z</time>
      </trkpt>
      <trkpt lat="44.46111" lon="2.09117">
        <ele>333</ele>
        <time>2017-09-18T10:25:38Z</time>
      </trkpt>
      <trkpt lat="44.46114" lon="2.09115">
        <ele>333</ele>
        <time>2017-09-18T10:25:42Z</time>
      </trkpt>
      <trkpt lat="44.46117" lon="2.09113">
        <ele>333</ele>
        <time>2017-09-18T10:25:45Z</time>
      </trkpt>
      <trkpt lat="44.4612" lon="2.09112">
        <ele>333</ele>
        <time>2017-09-18T10:25:49Z</time>
      </trkpt>
      <trkpt lat="44.46124" lon="2.0911">
        <ele>332</ele>
        <time>2017-09-18T10:25:54Z</time>
      </trkpt>
      <trkpt lat="44.46139" lon="2.09107">
        <ele>332</ele>
        <time>2017-09-18T10:26:07Z</time>
      </trkpt>
      <trkpt lat="44.46146" lon="2.09108">
        <ele>331</ele>
        <time>2017-09-18T10:26:11Z</time>
      </trkpt>
      <trkpt lat="44.4615" lon="2.09108">
        <ele>331</ele>
        <time>2017-09-18T10:26:14Z</time>
      </trkpt>
      <trkpt lat="44.46168" lon="2.09116">
        <ele>326</ele>
        <time>2017-09-18T10:26:27Z</time>
      </trkpt>
      <trkpt lat="44.4617" lon="2.09121">
        <ele>326</ele>
        <time>2017-09-18T10:26:31Z</time>
      </trkpt>
      <trkpt lat="44.46173" lon="2.09124">
        <ele>326</ele>
        <time>2017-09-18T10:26:34Z</time>
      </trkpt>
      <trkpt lat="44.46176" lon="2.09128">
        <ele>326</ele>
        <time>2017-09-18T10:26:37Z</time>
      </trkpt>
      <trkpt lat="44.46179" lon="2.09133">
        <ele>327</ele>
        <time>2017-09-18T10:26:41Z</time>
      </trkpt>
      <trkpt lat="44.46182" lon="2.09138">
        <ele>327</ele>
        <time>2017-09-18T10:26:45Z</time>
      </trkpt>
      <trkpt lat="44.46186" lon="2.09141">
        <ele>327</ele>
        <time>2017-09-18T10:26:49Z</time>
      </trkpt>
      <trkpt lat="44.46203" lon="2.09152">
        <ele>326</ele>
        <time>2017-09-18T10:27:02Z</time>
      </trkpt>
      <trkpt lat="44.46206" lon="2.09156">
        <ele>326</ele>
        <time>2017-09-18T10:27:07Z</time>
      </trkpt>
      <trkpt lat="44.46225" lon="2.09163">
        <ele>325</ele>
        <time>2017-09-18T10:27:24Z</time>
      </trkpt>
      <trkpt lat="44.46234" lon="2.09165">
        <ele>325</ele>
        <time>2017-09-18T10:27:31Z</time>
      </trkpt>
      <trkpt lat="44.4627" lon="2.09167">
        <ele>323</ele>
        <time>2017-09-18T10:28:02Z</time>
      </trkpt>
      <trkpt lat="44.4631" lon="2.09159">
        <ele>321</ele>
        <time>2017-09-18T10:28:33Z</time>
      </trkpt>
      <trkpt lat="44.46323" lon="2.09158">
        <ele>321</ele>
        <time>2017-09-18T10:28:44Z</time>
      </trkpt>
      <trkpt lat="44.46327" lon="2.09158">
        <ele>321</ele>
        <time>2017-09-18T10:28:47Z</time>
      </trkpt>
      <trkpt lat="44.46331" lon="2.09159">
        <ele>321</ele>
        <time>2017-09-18T10:28:50Z</time>
      </trkpt>
      <trkpt lat="44.46335" lon="2.09159">
        <ele>320</ele>
        <time>2017-09-18T10:28:53Z</time>
      </trkpt>
      <trkpt lat="44.46366" lon="2.09163">
        <ele>318</ele>
        <time>2017-09-18T10:29:19Z</time>
      </trkpt>
      <trkpt lat="44.46378" lon="2.09161">
        <ele>318</ele>
        <time>2017-09-18T10:29:31Z</time>
      </trkpt>
      <trkpt lat="44.46399" lon="2.0916">
        <ele>318</ele>
        <time>2017-09-18T10:29:47Z</time>
      </trkpt>
      <trkpt lat="44.46417" lon="2.0916">
        <ele>317</ele>
        <time>2017-09-18T10:30:01Z</time>
      </trkpt>
      <trkpt lat="44.46434" lon="2.09162">
        <ele>316</ele>
        <time>2017-09-18T10:30:15Z</time>
      </trkpt>
      <trkpt lat="44.46439" lon="2.09162">
        <ele>316</ele>
        <time>2017-09-18T10:30:19Z</time>
      </trkpt>
      <trkpt lat="44.46449" lon="2.09164">
        <ele>315</ele>
        <time>2017-09-18T10:30:30Z</time>
      </trkpt>
      <trkpt lat="44.4647" lon="2.09161">
        <ele>315</ele>
        <time>2017-09-18T10:30:44Z</time>
      </trkpt>
      <trkpt lat="44.4648" lon="2.09164">
        <ele>315</ele>
        <time>2017-09-18T10:30:51Z</time>
      </trkpt>
      <trkpt lat="44.46488" lon="2.09163">
        <ele>315</ele>
        <time>2017-09-18T10:30:58Z</time>
      </trkpt>
      <trkpt lat="44.46491" lon="2.09161">
        <ele>315</ele>
        <time>2017-09-18T10:31:01Z</time>
      </trkpt>
      <trkpt lat="44.46494" lon="2.09159">
        <ele>315</ele>
        <time>2017-09-18T10:31:14Z</time>
      </trkpt>
      <trkpt lat="44.46503" lon="2.09154">
        <ele>315</ele>
        <time>2017-09-18T10:31:23Z</time>
      </trkpt>
      <trkpt lat="44.46509" lon="2.09148">
        <ele>314</ele>
        <time>2017-09-18T10:31:30Z</time>
      </trkpt>
      <trkpt lat="44.46523" lon="2.09144">
        <ele>313</ele>
        <time>2017-09-18T10:32:39Z</time>
      </trkpt>
      <trkpt lat="44.46527" lon="2.09139">
        <ele>313</ele>
        <time>2017-09-18T10:32:44Z</time>
      </trkpt>
      <trkpt lat="44.46535" lon="2.09132">
        <ele>313</ele>
        <time>2017-09-18T10:32:51Z</time>
      </trkpt>
      <trkpt lat="44.46539" lon="2.09129">
        <ele>313</ele>
        <time>2017-09-18T10:32:54Z</time>
      </trkpt>
      <trkpt lat="44.46549" lon="2.0912">
        <ele>313</ele>
        <time>2017-09-18T10:33:04Z</time>
      </trkpt>
      <trkpt lat="44.4656" lon="2.0911">
        <ele>312</ele>
        <time>2017-09-18T10:33:15Z</time>
      </trkpt>
      <trkpt lat="44.46568" lon="2.09104">
        <ele>312</ele>
        <time>2017-09-18T10:33:23Z</time>
      </trkpt>
      <trkpt lat="44.46571" lon="2.09102">
        <ele>312</ele>
        <time>2017-09-18T10:33:27Z</time>
      </trkpt>
      <trkpt lat="44.46574" lon="2.091">
        <ele>312</ele>
        <time>2017-09-18T10:33:32Z</time>
      </trkpt>
      <trkpt lat="44.46577" lon="2.09096">
        <ele>312</ele>
        <time>2017-09-18T10:33:36Z</time>
      </trkpt>
      <trkpt lat="44.4661" lon="2.09072">
        <ele>311</ele>
        <time>2017-09-18T10:34:06Z</time>
      </trkpt>
      <trkpt lat="44.46626" lon="2.09061">
        <ele>311</ele>
        <time>2017-09-18T10:34:19Z</time>
      </trkpt>
      <trkpt lat="44.46658" lon="2.09046">
        <ele>311</ele>
        <time>2017-09-18T10:34:50Z</time>
      </trkpt>
      <trkpt lat="44.46673" lon="2.0904">
        <ele>310</ele>
        <time>2017-09-18T10:35:03Z</time>
      </trkpt>
      <trkpt lat="44.46675" lon="2.09039">
        <ele>310</ele>
        <time>2017-09-18T10:35:06Z</time>
      </trkpt>
      <trkpt lat="44.4668" lon="2.09038">
        <ele>310</ele>
        <time>2017-09-18T10:35:11Z</time>
      </trkpt>
      <trkpt lat="44.46684" lon="2.09033">
        <ele>310</ele>
        <time>2017-09-18T10:35:15Z</time>
      </trkpt>
      <trkpt lat="44.46691" lon="2.09029">
        <ele>310</ele>
        <time>2017-09-18T10:35:23Z</time>
      </trkpt>
      <trkpt lat="44.46693" lon="2.09027">
        <ele>310</ele>
        <time>2017-09-18T10:35:25Z</time>
      </trkpt>
      <trkpt lat="44.46712" lon="2.09008">
        <ele>310</ele>
        <time>2017-09-18T10:35:44Z</time>
      </trkpt>
      <trkpt lat="44.46725" lon="2.08987">
        <ele>309</ele>
        <time>2017-09-18T10:36:01Z</time>
      </trkpt>
      <trkpt lat="44.46733" lon="2.08964">
        <ele>309</ele>
        <time>2017-09-18T10:36:16Z</time>
      </trkpt>
      <trkpt lat="44.46734" lon="2.08961">
        <ele>309</ele>
        <time>2017-09-18T10:36:18Z</time>
      </trkpt>
      <trkpt lat="44.46736" lon="2.08952">
        <ele>309</ele>
        <time>2017-09-18T10:36:24Z</time>
      </trkpt>
      <trkpt lat="44.46743" lon="2.08937">
        <ele>309</ele>
        <time>2017-09-18T10:36:35Z</time>
      </trkpt>
      <trkpt lat="44.46745" lon="2.08935">
        <ele>309</ele>
        <time>2017-09-18T10:36:37Z</time>
      </trkpt>
      <trkpt lat="44.46747" lon="2.08929">
        <ele>308</ele>
        <time>2017-09-18T10:36:41Z</time>
      </trkpt>
      <trkpt lat="44.46758" lon="2.08914">
        <ele>307</ele>
        <time>2017-09-18T10:36:55Z</time>
      </trkpt>
      <trkpt lat="44.46787" lon="2.08886">
        <ele>305</ele>
        <time>2017-09-18T10:37:26Z</time>
      </trkpt>
      <trkpt lat="44.46801" lon="2.08868">
        <ele>305</ele>
        <time>2017-09-18T10:37:41Z</time>
      </trkpt>
      <trkpt lat="44.46802" lon="2.08865">
        <ele>305</ele>
        <time>2017-09-18T10:37:43Z</time>
      </trkpt>
      <trkpt lat="44.46805" lon="2.0886">
        <ele>305</ele>
        <time>2017-09-18T10:37:47Z</time>
      </trkpt>
      <trkpt lat="44.46815" lon="2.0884">
        <ele>305</ele>
        <time>2017-09-18T10:38:02Z</time>
      </trkpt>
      <trkpt lat="44.46818" lon="2.08835">
        <ele>305</ele>
        <time>2017-09-18T10:38:05Z</time>
      </trkpt>
      <trkpt lat="44.46821" lon="2.08828">
        <ele>303</ele>
        <time>2017-09-18T10:38:10Z</time>
      </trkpt>
      <trkpt lat="44.46832" lon="2.08801">
        <ele>301</ele>
        <time>2017-09-18T10:38:27Z</time>
      </trkpt>
      <trkpt lat="44.46836" lon="2.08789">
        <ele>304</ele>
        <time>2017-09-18T10:38:35Z</time>
      </trkpt>
      <trkpt lat="44.46837" lon="2.08784">
        <ele>304</ele>
        <time>2017-09-18T10:38:38Z</time>
      </trkpt>
      <trkpt lat="44.46838" lon="2.08779">
        <ele>304</ele>
        <time>2017-09-18T10:38:41Z</time>
      </trkpt>
      <trkpt lat="44.4684" lon="2.08775">
        <ele>304</ele>
        <time>2017-09-18T10:38:44Z</time>
      </trkpt>
      <trkpt lat="44.46842" lon="2.08766">
        <ele>303</ele>
        <time>2017-09-18T10:38:50Z</time>
      </trkpt>
      <trkpt lat="44.46847" lon="2.08714">
        <ele>300</ele>
        <time>2017-09-18T10:39:20Z</time>
      </trkpt>
      <trkpt lat="44.46847" lon="2.0871">
        <ele>300</ele>
        <time>2017-09-18T10:39:22Z</time>
      </trkpt>
      <trkpt lat="44.4685" lon="2.08702">
        <ele>300</ele>
        <time>2017-09-18T10:39:28Z</time>
      </trkpt>
      <trkpt lat="44.46851" lon="2.08689">
        <ele>298</ele>
        <time>2017-09-18T10:39:35Z</time>
      </trkpt>
      <trkpt lat="44.46851" lon="2.0868">
        <ele>298</ele>
        <time>2017-09-18T10:39:40Z</time>
      </trkpt>
      <trkpt lat="44.46854" lon="2.08642">
        <ele>293</ele>
        <time>2017-09-18T10:40:02Z</time>
      </trkpt>
      <trkpt lat="44.46854" lon="2.08639">
        <ele>293</ele>
        <time>2017-09-18T10:40:04Z</time>
      </trkpt>
      <trkpt lat="44.46855" lon="2.08632">
        <ele>293</ele>
        <time>2017-09-18T10:40:08Z</time>
      </trkpt>
      <trkpt lat="44.46856" lon="2.08627">
        <ele>293</ele>
        <time>2017-09-18T10:40:11Z</time>
      </trkpt>
      <trkpt lat="44.46859" lon="2.08609">
        <ele>292</ele>
        <time>2017-09-18T10:40:22Z</time>
      </trkpt>
      <trkpt lat="44.46861" lon="2.0859">
        <ele>291</ele>
        <time>2017-09-18T10:40:34Z</time>
      </trkpt>
      <trkpt lat="44.46863" lon="2.08588">
        <ele>291</ele>
        <time>2017-09-18T10:40:37Z</time>
      </trkpt>
      <trkpt lat="44.46863" lon="2.08584">
        <ele>291</ele>
        <time>2017-09-18T10:40:39Z</time>
      </trkpt>
      <trkpt lat="44.46864" lon="2.08581">
        <ele>287</ele>
        <time>2017-09-18T10:40:42Z</time>
      </trkpt>
      <trkpt lat="44.46872" lon="2.08527">
        <ele>286</ele>
        <time>2017-09-18T10:41:13Z</time>
      </trkpt>
      <trkpt lat="44.46875" lon="2.08501">
        <ele>286</ele>
        <time>2017-09-18T10:41:28Z</time>
      </trkpt>
      <trkpt lat="44.46875" lon="2.08466">
        <ele>282</ele>
        <time>2017-09-18T10:41:49Z</time>
      </trkpt>
      <trkpt lat="44.4687" lon="2.08434">
        <ele>282</ele>
        <time>2017-09-18T10:42:05Z</time>
      </trkpt>
      <trkpt lat="44.46873" lon="2.08417">
        <ele>281</ele>
        <time>2017-09-18T10:42:15Z</time>
      </trkpt>
      <trkpt lat="44.46874" lon="2.08412">
        <ele>278</ele>
        <time>2017-09-18T10:42:18Z</time>
      </trkpt>
      <trkpt lat="44.46876" lon="2.08409">
        <ele>278</ele>
        <time>2017-09-18T10:42:21Z</time>
      </trkpt>
      <trkpt lat="44.46879" lon="2.08401">
        <ele>278</ele>
        <time>2017-09-18T10:42:27Z</time>
      </trkpt>
      <trkpt lat="44.46881" lon="2.08393">
        <ele>278</ele>
        <time>2017-09-18T10:42:32Z</time>
      </trkpt>
      <trkpt lat="44.46883" lon="2.08384">
        <ele>278</ele>
        <time>2017-09-18T10:42:39Z</time>
      </trkpt>
      <trkpt lat="44.46885" lon="2.08379">
        <ele>278</ele>
        <time>2017-09-18T10:42:42Z</time>
      </trkpt>
      <trkpt lat="44.46893" lon="2.08351">
        <ele>276</ele>
        <time>2017-09-18T10:43:01Z</time>
      </trkpt>
      <trkpt lat="44.46894" lon="2.08344">
        <ele>276</ele>
        <time>2017-09-18T10:43:04Z</time>
      </trkpt>
      <trkpt lat="44.46896" lon="2.0834">
        <ele>276</ele>
        <time>2017-09-18T10:43:07Z</time>
      </trkpt>
      <trkpt lat="44.46898" lon="2.08336">
        <ele>276</ele>
        <time>2017-09-18T10:43:10Z</time>
      </trkpt>
      <trkpt lat="44.46899" lon="2.08331">
        <ele>273</ele>
        <time>2017-09-18T10:43:14Z</time>
      </trkpt>
      <trkpt lat="44.46901" lon="2.08326">
        <ele>273</ele>
        <time>2017-09-18T10:43:18Z</time>
      </trkpt>
      <trkpt lat="44.46901" lon="2.08321">
        <ele>273</ele>
        <time>2017-09-18T10:43:21Z</time>
      </trkpt>
      <trkpt lat="44.46905" lon="2.08313">
        <ele>273</ele>
        <time>2017-09-18T10:43:26Z</time>
      </trkpt>
      <trkpt lat="44.46907" lon="2.08308">
        <ele>273</ele>
        <time>2017-09-18T10:43:34Z</time>
      </trkpt>
      <trkpt lat="44.46911" lon="2.08301">
        <ele>272</ele>
        <time>2017-09-18T10:43:41Z</time>
      </trkpt>
      <trkpt lat="44.46908" lon="2.08303">
        <ele>272</ele>
        <time>2017-09-18T10:43:45Z</time>
      </trkpt>
      <trkpt lat="44.46904" lon="2.08303">
        <ele>272</ele>
        <time>2017-09-18T10:46:54Z</time>
      </trkpt>
      <trkpt lat="44.46902" lon="2.08305">
        <ele>272</ele>
        <time>2017-09-18T10:45:44Z</time>
      </trkpt>
      <trkpt lat="44.46901" lon="2.08307">
        <ele>272</ele>
        <time>2017-09-18T10:45:47Z</time>
      </trkpt>
      <trkpt lat="44.469" lon="2.08305">
        <ele>272</ele>
        <time>2017-09-18T10:46:21Z</time>
      </trkpt>
      <trkpt lat="44.46902" lon="2.08302">
        <ele>272</ele>
        <time>2017-09-18T10:46:28Z</time>
      </trkpt>
      <trkpt lat="44.46904" lon="2.08303">
        <ele>272</ele>
        <time>2017-09-18T10:46:54Z</time>
      </trkpt>
      <trkpt lat="44.46907" lon="2.083">
        <ele>272</ele>
        <time>2017-09-18T10:47:15Z</time>
      </trkpt>
      <trkpt lat="44.46908" lon="2.08298">
        <ele>272</ele>
        <time>2017-09-18T10:47:19Z</time>
      </trkpt>
      <trkpt lat="44.46913" lon="2.08294">
        <ele>272</ele>
        <time>2017-09-18T10:47:30Z</time>
      </trkpt>
      <trkpt lat="44.46917" lon="2.08288">
        <ele>272</ele>
        <time>2017-09-18T10:47:37Z</time>
      </trkpt>
      <trkpt lat="44.4692" lon="2.08281">
        <ele>272</ele>
        <time>2017-09-18T10:47:42Z</time>
      </trkpt>
      <trkpt lat="44.46922" lon="2.08274">
        <ele>271</ele>
        <time>2017-09-18T10:47:46Z</time>
      </trkpt>
      <trkpt lat="44.46924" lon="2.0827">
        <ele>271</ele>
        <time>2017-09-18T10:47:49Z</time>
      </trkpt>
      <trkpt lat="44.46931" lon="2.08264">
        <ele>271</ele>
        <time>2017-09-18T10:47:55Z</time>
      </trkpt>
      <trkpt lat="44.46935" lon="2.08253">
        <ele>271</ele>
        <time>2017-09-18T10:48:01Z</time>
      </trkpt>
      <trkpt lat="44.46946" lon="2.08235">
        <ele>269</ele>
        <time>2017-09-18T10:48:14Z</time>
      </trkpt>
      <trkpt lat="44.46949" lon="2.08226">
        <ele>269</ele>
        <time>2017-09-18T10:48:20Z</time>
      </trkpt>
      <trkpt lat="44.46951" lon="2.08221">
        <ele>269</ele>
        <time>2017-09-18T10:48:23Z</time>
      </trkpt>
      <trkpt lat="44.46954" lon="2.08218">
        <ele>269</ele>
        <time>2017-09-18T10:48:39Z</time>
      </trkpt>
      <trkpt lat="44.46958" lon="2.0821">
        <ele>269</ele>
        <time>2017-09-18T10:48:45Z</time>
      </trkpt>
      <trkpt lat="44.46961" lon="2.0821">
        <ele>269</ele>
        <time>2017-09-18T10:48:52Z</time>
      </trkpt>
      <trkpt lat="44.46967" lon="2.08192">
        <ele>269</ele>
        <time>2017-09-18T10:49:02Z</time>
      </trkpt>
      <trkpt lat="44.46973" lon="2.08174">
        <ele>269</ele>
        <time>2017-09-18T10:49:13Z</time>
      </trkpt>
      <trkpt lat="44.46978" lon="2.08152">
        <ele>268</ele>
        <time>2017-09-18T10:49:43Z</time>
      </trkpt>
      <trkpt lat="44.46979" lon="2.08146">
        <ele>269</ele>
        <time>2017-09-18T10:49:46Z</time>
      </trkpt>
      <trkpt lat="44.46981" lon="2.08141">
        <ele>269</ele>
        <time>2017-09-18T10:49:50Z</time>
      </trkpt>
      <trkpt lat="44.46983" lon="2.08131">
        <ele>269</ele>
        <time>2017-09-18T10:49:57Z</time>
      </trkpt>
      <trkpt lat="44.46986" lon="2.08115">
        <ele>269</ele>
        <time>2017-09-18T10:50:07Z</time>
      </trkpt>
      <trkpt lat="44.46986" lon="2.08111">
        <ele>269</ele>
        <time>2017-09-18T10:50:11Z</time>
      </trkpt>
      <trkpt lat="44.46987" lon="2.08106">
        <ele>269</ele>
        <time>2017-09-18T10:50:14Z</time>
      </trkpt>
      <trkpt lat="44.46988" lon="2.08101">
        <ele>269</ele>
        <time>2017-09-18T10:50:17Z</time>
      </trkpt>
      <trkpt lat="44.4699" lon="2.08098">
        <ele>269</ele>
        <time>2017-09-18T10:50:20Z</time>
      </trkpt>
      <trkpt lat="44.46992" lon="2.08094">
        <ele>269</ele>
        <time>2017-09-18T10:50:25Z</time>
      </trkpt>
      <trkpt lat="44.47001" lon="2.08092">
        <ele>270</ele>
        <time>2017-09-18T10:50:33Z</time>
      </trkpt>
      <trkpt lat="44.47017" lon="2.08091">
        <ele>269</ele>
        <time>2017-09-18T10:50:48Z</time>
      </trkpt>
      <trkpt lat="44.4702" lon="2.08092">
        <ele>269</ele>
        <time>2017-09-18T10:50:51Z</time>
      </trkpt>
      <trkpt lat="44.47021" lon="2.08094">
        <ele>269</ele>
        <time>2017-09-18T10:50:54Z</time>
      </trkpt>
      <trkpt lat="44.47044" lon="2.08089">
        <ele>269</ele>
        <time>2017-09-18T10:51:25Z</time>
      </trkpt>
      <trkpt lat="44.4705" lon="2.08087">
        <ele>269</ele>
        <time>2017-09-18T10:51:30Z</time>
      </trkpt>
      <trkpt lat="44.47055" lon="2.08084">
        <ele>269</ele>
        <time>2017-09-18T10:51:35Z</time>
      </trkpt>
      <trkpt lat="44.47058" lon="2.08084">
        <ele>269</ele>
        <time>2017-09-18T10:51:38Z</time>
      </trkpt>
      <trkpt lat="44.47061" lon="2.08083">
        <ele>270</ele>
        <time>2017-09-18T10:51:41Z</time>
      </trkpt>
      <trkpt lat="44.47065" lon="2.08081">
        <ele>270</ele>
        <time>2017-09-18T10:51:44Z</time>
      </trkpt>
      <trkpt lat="44.47067" lon="2.08079">
        <ele>270</ele>
        <time>2017-09-18T10:51:49Z</time>
      </trkpt>
      <trkpt lat="44.47068" lon="2.08076">
        <ele>270</ele>
        <time>2017-09-18T10:51:56Z</time>
      </trkpt>
      <trkpt lat="44.47081" lon="2.08064">
        <ele>270</ele>
        <time>2017-09-18T10:52:23Z</time>
      </trkpt>
      <trkpt lat="44.47085" lon="2.08058">
        <ele>271</ele>
        <time>2017-09-18T10:52:29Z</time>
      </trkpt>
      <trkpt lat="44.47105" lon="2.08037">
        <ele>272</ele>
        <time>2017-09-18T10:52:49Z</time>
      </trkpt>
      <trkpt lat="44.4711" lon="2.08033">
        <ele>273</ele>
        <time>2017-09-18T10:52:56Z</time>
      </trkpt>
      <trkpt lat="44.47121" lon="2.08017">
        <ele>273</ele>
        <time>2017-09-18T10:53:10Z</time>
      </trkpt>
      <trkpt lat="44.47129" lon="2.08006">
        <ele>273</ele>
        <time>2017-09-18T10:53:20Z</time>
      </trkpt>
      <trkpt lat="44.47135" lon="2.07999">
        <ele>277</ele>
        <time>2017-09-18T10:53:26Z</time>
      </trkpt>
      <trkpt lat="44.47137" lon="2.07992">
        <ele>277</ele>
        <time>2017-09-18T10:53:31Z</time>
      </trkpt>
      <trkpt lat="44.47138" lon="2.07984">
        <ele>278</ele>
        <time>2017-09-18T10:53:36Z</time>
      </trkpt>
      <trkpt lat="44.4714" lon="2.07977">
        <ele>278</ele>
        <time>2017-09-18T10:53:41Z</time>
      </trkpt>
      <trkpt lat="44.47143" lon="2.07971">
        <ele>278</ele>
        <time>2017-09-18T10:53:46Z</time>
      </trkpt>
      <trkpt lat="44.47146" lon="2.07962">
        <ele>279</ele>
        <time>2017-09-18T10:53:53Z</time>
      </trkpt>
      <trkpt lat="44.47153" lon="2.07957">
        <ele>279</ele>
        <time>2017-09-18T10:53:59Z</time>
      </trkpt>
      <trkpt lat="44.47156" lon="2.07955">
        <ele>279</ele>
        <time>2017-09-18T10:54:02Z</time>
      </trkpt>
      <trkpt lat="44.47155" lon="2.07949">
        <ele>279</ele>
        <time>2017-09-18T10:54:09Z</time>
      </trkpt>
      <trkpt lat="44.47153" lon="2.07943">
        <ele>280</ele>
        <time>2017-09-18T10:54:15Z</time>
      </trkpt>
      <trkpt lat="44.47154" lon="2.07938">
        <ele>280</ele>
        <time>2017-09-18T10:54:21Z</time>
      </trkpt>
      <trkpt lat="44.47146" lon="2.07917">
        <ele>284</ele>
        <time>2017-09-18T10:54:35Z</time>
      </trkpt>
      <trkpt lat="44.47144" lon="2.07911">
        <ele>284</ele>
        <time>2017-09-18T10:54:38Z</time>
      </trkpt>
      <trkpt lat="44.47141" lon="2.07907">
        <ele>284</ele>
        <time>2017-09-18T10:54:42Z</time>
      </trkpt>
      <trkpt lat="44.47139" lon="2.079">
        <ele>284</ele>
        <time>2017-09-18T10:54:47Z</time>
      </trkpt>
      <trkpt lat="44.47138" lon="2.07895">
        <ele>284</ele>
        <time>2017-09-18T10:54:50Z</time>
      </trkpt>
      <trkpt lat="44.47134" lon="2.0789">
        <ele>285</ele>
        <time>2017-09-18T10:54:54Z</time>
      </trkpt>
      <trkpt lat="44.47131" lon="2.07883">
        <ele>285</ele>
        <time>2017-09-18T10:55:00Z</time>
      </trkpt>
      <trkpt lat="44.47128" lon="2.07877">
        <ele>285</ele>
        <time>2017-09-18T10:55:04Z</time>
      </trkpt>
      <trkpt lat="44.47124" lon="2.07871">
        <ele>285</ele>
        <time>2017-09-18T10:55:08Z</time>
      </trkpt>
      <trkpt lat="44.47123" lon="2.07864">
        <ele>285</ele>
        <time>2017-09-18T10:55:13Z</time>
      </trkpt>
      <trkpt lat="44.47123" lon="2.07859">
        <ele>286</ele>
        <time>2017-09-18T10:55:21Z</time>
      </trkpt>
      <trkpt lat="44.47121" lon="2.0785">
        <ele>286</ele>
        <time>2017-09-18T10:55:36Z</time>
      </trkpt>
      <trkpt lat="44.47121" lon="2.07843">
        <ele>286</ele>
        <time>2017-09-18T10:55:46Z</time>
      </trkpt>
      <trkpt lat="44.47119" lon="2.07836">
        <ele>286</ele>
        <time>2017-09-18T10:55:50Z</time>
      </trkpt>
      <trkpt lat="44.47118" lon="2.0783">
        <ele>289</ele>
        <time>2017-09-18T10:55:54Z</time>
      </trkpt>
      <trkpt lat="44.47121" lon="2.07825">
        <ele>289</ele>
        <time>2017-09-18T10:55:58Z</time>
      </trkpt>
      <trkpt lat="44.47123" lon="2.07818">
        <ele>290</ele>
        <time>2017-09-18T10:56:03Z</time>
      </trkpt>
      <trkpt lat="44.47123" lon="2.07809">
        <ele>290</ele>
        <time>2017-09-18T10:56:08Z</time>
      </trkpt>
      <trkpt lat="44.47125" lon="2.078">
        <ele>290</ele>
        <time>2017-09-18T10:56:15Z</time>
      </trkpt>
      <trkpt lat="44.47128" lon="2.07793">
        <ele>290</ele>
        <time>2017-09-18T10:56:21Z</time>
      </trkpt>
      <trkpt lat="44.47132" lon="2.0779">
        <ele>290</ele>
        <time>2017-09-18T10:56:25Z</time>
      </trkpt>
      <trkpt lat="44.47128" lon="2.07787">
        <ele>290</ele>
        <time>2017-09-18T10:56:33Z</time>
      </trkpt>
      <trkpt lat="44.47125" lon="2.07784">
        <ele>290</ele>
        <time>2017-09-18T10:56:36Z</time>
      </trkpt>
      <trkpt lat="44.47122" lon="2.07782">
        <ele>291</ele>
        <time>2017-09-18T10:56:39Z</time>
      </trkpt>
      <trkpt lat="44.47109" lon="2.0777">
        <ele>291</ele>
        <time>2017-09-18T10:56:52Z</time>
      </trkpt>
      <trkpt lat="44.47103" lon="2.0777">
        <ele>291</ele>
        <time>2017-09-18T10:57:00Z</time>
      </trkpt>
      <trkpt lat="44.47096" lon="2.07769">
        <ele>291</ele>
        <time>2017-09-18T10:57:06Z</time>
      </trkpt>
      <trkpt lat="44.4709" lon="2.07769">
        <ele>291</ele>
        <time>2017-09-18T10:57:10Z</time>
      </trkpt>
      <trkpt lat="44.47084" lon="2.07773">
        <ele>291</ele>
        <time>2017-09-18T10:57:14Z</time>
      </trkpt>
      <trkpt lat="44.47078" lon="2.07772">
        <ele>291</ele>
        <time>2017-09-18T10:57:19Z</time>
      </trkpt>
      <trkpt lat="44.47074" lon="2.07773">
        <ele>291</ele>
        <time>2017-09-18T10:57:22Z</time>
      </trkpt>
      <trkpt lat="44.47067" lon="2.07775">
        <ele>290</ele>
        <time>2017-09-18T10:57:27Z</time>
      </trkpt>
      <trkpt lat="44.47064" lon="2.07778">
        <ele>290</ele>
        <time>2017-09-18T10:57:30Z</time>
      </trkpt>
      <trkpt lat="44.47067" lon="2.07781">
        <ele>290</ele>
        <time>2017-09-18T10:58:21Z</time>
      </trkpt>
      <trkpt lat="44.47069" lon="2.07779">
        <ele>290</ele>
        <time>2017-09-18T10:58:47Z</time>
      </trkpt>
      <trkpt lat="44.47069" lon="2.07776">
        <ele>290</ele>
        <time>2017-09-18T11:00:33Z</time>
      </trkpt>
      <trkpt lat="44.47073" lon="2.07777">
        <ele>290</ele>
        <time>2017-09-18T11:00:55Z</time>
      </trkpt>
      <trkpt lat="44.47075" lon="2.07777">
        <ele>290</ele>
        <time>2017-09-18T11:01:25Z</time>
      </trkpt>
      <trkpt lat="44.47078" lon="2.07781">
        <ele>290</ele>
        <time>2017-09-18T11:01:46Z</time>
      </trkpt>
      <trkpt lat="44.47088" lon="2.07779">
        <ele>291</ele>
        <time>2017-09-18T11:01:56Z</time>
      </trkpt>
      <trkpt lat="44.47097" lon="2.07778">
        <ele>291</ele>
        <time>2017-09-18T11:02:03Z</time>
      </trkpt>
      <trkpt lat="44.47109" lon="2.07775">
        <ele>291</ele>
        <time>2017-09-18T11:02:14Z</time>
      </trkpt>
      <trkpt lat="44.47114" lon="2.07775">
        <ele>291</ele>
        <time>2017-09-18T11:02:22Z</time>
      </trkpt>
      <trkpt lat="44.47128" lon="2.07784">
        <ele>290</ele>
        <time>2017-09-18T11:02:37Z</time>
      </trkpt>
      <trkpt lat="44.47131" lon="2.07786">
        <ele>290</ele>
        <time>2017-09-18T11:02:42Z</time>
      </trkpt>
      <trkpt lat="44.47135" lon="2.07788">
        <ele>290</ele>
        <time>2017-09-18T11:02:44Z</time>
      </trkpt>
      <trkpt lat="44.47139" lon="2.07788">
        <ele>290</ele>
        <time>2017-09-18T11:02:53Z</time>
      </trkpt>
      <trkpt lat="44.47145" lon="2.0779">
        <ele>290</ele>
        <time>2017-09-18T11:02:58Z</time>
      </trkpt>
      <trkpt lat="44.47156" lon="2.07789">
        <ele>290</ele>
        <time>2017-09-18T11:03:05Z</time>
      </trkpt>
      <trkpt lat="44.47166" lon="2.07778">
        <ele>291</ele>
        <time>2017-09-18T11:03:19Z</time>
      </trkpt>
      <trkpt lat="44.47167" lon="2.0777">
        <ele>292</ele>
        <time>2017-09-18T11:03:28Z</time>
      </trkpt>
      <trkpt lat="44.4717" lon="2.07764">
        <ele>292</ele>
        <time>2017-09-18T11:03:35Z</time>
      </trkpt>
      <trkpt lat="44.47173" lon="2.07763">
        <ele>292</ele>
        <time>2017-09-18T11:03:41Z</time>
      </trkpt>
      <trkpt lat="44.47173" lon="2.07754">
        <ele>292</ele>
        <time>2017-09-18T11:03:47Z</time>
      </trkpt>
      <trkpt lat="44.47173" lon="2.07751">
        <ele>292</ele>
        <time>2017-09-18T12:22:45Z</time>
      </trkpt>
      <trkpt lat="44.47174" lon="2.07748">
        <ele>293</ele>
        <time>2017-09-18T11:03:51Z</time>
      </trkpt>
      <trkpt lat="44.47174" lon="2.07742">
        <ele>293</ele>
        <time>2017-09-18T11:03:54Z</time>
      </trkpt>
      <trkpt lat="44.47169" lon="2.07723">
        <ele>294</ele>
        <time>2017-09-18T11:04:06Z</time>
      </trkpt>
      <trkpt lat="44.47169" lon="2.07707">
        <ele>294</ele>
        <time>2017-09-18T11:04:15Z</time>
      </trkpt>
      <trkpt lat="44.47169" lon="2.07699">
        <ele>294</ele>
        <time>2017-09-18T11:04:19Z</time>
      </trkpt>
      <trkpt lat="44.4717" lon="2.07695">
        <ele>294</ele>
        <time>2017-09-18T11:04:22Z</time>
      </trkpt>
      <trkpt lat="44.47169" lon="2.07691">
        <ele>294</ele>
        <time>2017-09-18T11:04:34Z</time>
      </trkpt>
      <trkpt lat="44.47169" lon="2.07687">
        <ele>294</ele>
        <time>2017-09-18T11:04:37Z</time>
      </trkpt>
      <trkpt lat="44.47171" lon="2.07682">
        <ele>294</ele>
        <time>2017-09-18T11:04:42Z</time>
      </trkpt>
      <trkpt lat="44.47174" lon="2.0767">
        <ele>294</ele>
        <time>2017-09-18T11:04:51Z</time>
      </trkpt>
      <trkpt lat="44.47174" lon="2.07665">
        <ele>294</ele>
        <time>2017-09-18T11:04:57Z</time>
      </trkpt>
      <trkpt lat="44.47175" lon="2.07661">
        <ele>295</ele>
        <time>2017-09-18T11:05:04Z</time>
      </trkpt>
      <trkpt lat="44.47176" lon="2.07657">
        <ele>295</ele>
        <time>2017-09-18T11:05:10Z</time>
      </trkpt>
      <trkpt lat="44.47175" lon="2.07654">
        <ele>295</ele>
        <time>2017-09-18T11:05:25Z</time>
      </trkpt>
      <trkpt lat="44.47173" lon="2.07652">
        <ele>295</ele>
        <time>2017-09-18T11:05:29Z</time>
      </trkpt>
      <trkpt lat="44.47173" lon="2.07648">
        <ele>296</ele>
        <time>2017-09-18T11:05:32Z</time>
      </trkpt>
      <trkpt lat="44.47172" lon="2.07645">
        <ele>296</ele>
        <time>2017-09-18T11:05:38Z</time>
      </trkpt>
      <trkpt lat="44.47169" lon="2.07642">
        <ele>296</ele>
        <time>2017-09-18T11:05:41Z</time>
      </trkpt>
      <trkpt lat="44.47167" lon="2.07639">
        <ele>296</ele>
        <time>2017-09-18T11:05:43Z</time>
      </trkpt>
      <trkpt lat="44.47167" lon="2.07636">
        <ele>296</ele>
        <time>2017-09-18T11:05:46Z</time>
      </trkpt>
      <trkpt lat="44.47166" lon="2.07632">
        <ele>295</ele>
        <time>2017-09-18T11:05:49Z</time>
      </trkpt>
      <trkpt lat="44.47167" lon="2.07629">
        <ele>295</ele>
        <time>2017-09-18T11:05:52Z</time>
      </trkpt>
      <trkpt lat="44.47171" lon="2.07619">
        <ele>297</ele>
        <time>2017-09-18T11:05:59Z</time>
      </trkpt>
      <trkpt lat="44.47172" lon="2.07615">
        <ele>297</ele>
        <time>2017-09-18T11:06:03Z</time>
      </trkpt>
      <trkpt lat="44.47175" lon="2.07613">
        <ele>298</ele>
        <time>2017-09-18T11:41:52Z</time>
      </trkpt>
      <trkpt lat="44.47179" lon="2.07607">
        <ele>298</ele>
        <time>2017-09-18T11:06:38Z</time>
      </trkpt>
      <trkpt lat="44.47182" lon="2.07607">
        <ele>298</ele>
        <time>2017-09-18T11:11:08Z</time>
      </trkpt>
      <trkpt lat="44.47182" lon="2.07607">
        <ele>298</ele>
        <time>2017-09-18T11:11:08Z</time>
      </trkpt>
      <trkpt lat="44.47181" lon="2.07608">
        <ele>298</ele>
        <time>2017-09-18T11:12:33Z</time>
      </trkpt>
      <trkpt lat="44.47179" lon="2.07611">
        <ele>298</ele>
        <time>2017-09-18T11:12:37Z</time>
      </trkpt>
      <trkpt lat="44.47177" lon="2.07615">
        <ele>298</ele>
        <time>2017-09-18T11:12:40Z</time>
      </trkpt>
      <trkpt lat="44.47176" lon="2.07612">
        <ele>298</ele>
        <time>2017-09-18T11:13:04Z</time>
      </trkpt>
      <trkpt lat="44.47177" lon="2.0761">
        <ele>298</ele>
        <time>2017-09-18T11:13:08Z</time>
      </trkpt>
      <trkpt lat="44.4718" lon="2.07608">
        <ele>298</ele>
        <time>2017-09-18T11:42:49Z</time>
      </trkpt>
      <trkpt lat="44.47183" lon="2.07609">
        <ele>298</ele>
        <time>2017-09-18T11:13:35Z</time>
      </trkpt>
      <trkpt lat="44.47179" lon="2.07609">
        <ele>298</ele>
        <time>2017-09-18T11:18:05Z</time>
      </trkpt>
      <trkpt lat="44.47176" lon="2.07613">
        <ele>298</ele>
        <time>2017-09-18T11:18:11Z</time>
      </trkpt>
      <trkpt lat="44.47176" lon="2.07617">
        <ele>297</ele>
        <time>2017-09-18T11:18:15Z</time>
      </trkpt>
      <trkpt lat="44.47176" lon="2.07618">
        <ele>297</ele>
        <time>2017-09-18T11:18:37Z</time>
      </trkpt>
      <trkpt lat="44.47177" lon="2.07614">
        <ele>298</ele>
        <time>2017-09-18T11:18:40Z</time>
      </trkpt>
      <trkpt lat="44.47175" lon="2.07616">
        <ele>297</ele>
        <time>2017-09-18T11:18:59Z</time>
      </trkpt>
      <trkpt lat="44.47178" lon="2.07622">
        <ele>297</ele>
        <time>2017-09-18T11:20:05Z</time>
      </trkpt>
      <trkpt lat="44.47178" lon="2.07624">
        <ele>297</ele>
        <time>2017-09-18T11:27:45Z</time>
      </trkpt>
      <trkpt lat="44.47177" lon="2.07623">
        <ele>297</ele>
        <time>2017-09-18T11:28:42Z</time>
      </trkpt>
      <trkpt lat="44.47175" lon="2.0762">
        <ele>297</ele>
        <time>2017-09-18T11:28:50Z</time>
      </trkpt>
      <trkpt lat="44.47175" lon="2.07618">
        <ele>297</ele>
        <time>2017-09-18T11:34:35Z</time>
      </trkpt>
      <trkpt lat="44.47178" lon="2.07618">
        <ele>297</ele>
        <time>2017-09-18T11:41:39Z</time>
      </trkpt>
      <trkpt lat="44.47175" lon="2.07613">
        <ele>298</ele>
        <time>2017-09-18T11:41:52Z</time>
      </trkpt>
      <trkpt lat="44.4718" lon="2.07608">
        <ele>298</ele>
        <time>2017-09-18T11:42:49Z</time>
      </trkpt>
      <trkpt lat="44.47182" lon="2.07602">
        <ele>298</ele>
        <time>2017-09-18T11:43:25Z</time>
      </trkpt>
      <trkpt lat="44.47186" lon="2.07603">
        <ele>298</ele>
        <time>2017-09-18T11:43:33Z</time>
      </trkpt>
      <trkpt lat="44.47187" lon="2.07605">
        <ele>298</ele>
        <time>2017-09-18T11:43:51Z</time>
      </trkpt>
      <trkpt lat="44.47186" lon="2.0761">
        <ele>298</ele>
        <time>2017-09-18T11:43:58Z</time>
      </trkpt>
      <trkpt lat="44.47182" lon="2.0761">
        <ele>298</ele>
        <time>2017-09-18T11:44:06Z</time>
      </trkpt>
      <trkpt lat="44.47179" lon="2.07614">
        <ele>298</ele>
        <time>2017-09-18T11:44:13Z</time>
      </trkpt>
      <trkpt lat="44.47182" lon="2.07617">
        <ele>298</ele>
        <time>2017-09-18T11:44:46Z</time>
      </trkpt>
      <trkpt lat="44.47185" lon="2.07619">
        <ele>298</ele>
        <time>2017-09-18T11:44:54Z</time>
      </trkpt>
      <trkpt lat="44.47194" lon="2.07595">
        <ele>298</ele>
        <time>2017-09-18T11:45:11Z</time>
      </trkpt>
      <trkpt lat="44.47199" lon="2.07587">
        <ele>298</ele>
        <time>2017-09-18T11:45:18Z</time>
      </trkpt>
      <trkpt lat="44.472" lon="2.07581">
        <ele>300</ele>
        <time>2017-09-18T11:45:22Z</time>
      </trkpt>
      <trkpt lat="44.47201" lon="2.07577">
        <ele>300</ele>
        <time>2017-09-18T11:45:26Z</time>
      </trkpt>
      <trkpt lat="44.47204" lon="2.07573">
        <ele>300</ele>
        <time>2017-09-18T12:01:29Z</time>
      </trkpt>
      <trkpt lat="44.47206" lon="2.07563">
        <ele>301</ele>
        <time>2017-09-18T11:45:40Z</time>
      </trkpt>
      <trkpt lat="44.47207" lon="2.07555">
        <ele>301</ele>
        <time>2017-09-18T11:45:45Z</time>
      </trkpt>
      <trkpt lat="44.47212" lon="2.07556">
        <ele>301</ele>
        <time>2017-09-18T11:45:56Z</time>
      </trkpt>
      <trkpt lat="44.47214" lon="2.07558">
        <ele>301</ele>
        <time>2017-09-18T11:46:00Z</time>
      </trkpt>
      <trkpt lat="44.47212" lon="2.07558">
        <ele>301</ele>
        <time>2017-09-18T11:46:12Z</time>
      </trkpt>
      <trkpt lat="44.47209" lon="2.07559">
        <ele>301</ele>
        <time>2017-09-18T11:46:19Z</time>
      </trkpt>
      <trkpt lat="44.47206" lon="2.07566">
        <ele>301</ele>
        <time>2017-09-18T11:46:34Z</time>
      </trkpt>
      <trkpt lat="44.47205" lon="2.07574">
        <ele>300</ele>
        <time>2017-09-18T11:46:39Z</time>
      </trkpt>
      <trkpt lat="44.47203" lon="2.07578">
        <ele>300</ele>
        <time>2017-09-18T11:46:43Z</time>
      </trkpt>
      <trkpt lat="44.47203" lon="2.07579">
        <ele>300</ele>
        <time>2017-09-18T11:46:56Z</time>
      </trkpt>
      <trkpt lat="44.47206" lon="2.07576">
        <ele>300</ele>
        <time>2017-09-18T11:46:59Z</time>
      </trkpt>
      <trkpt lat="44.47212" lon="2.07574">
        <ele>301</ele>
        <time>2017-09-18T11:47:08Z</time>
      </trkpt>
      <trkpt lat="44.47205" lon="2.07571">
        <ele>300</ele>
        <time>2017-09-18T11:56:08Z</time>
      </trkpt>
      <trkpt lat="44.47204" lon="2.07577">
        <ele>300</ele>
        <time>2017-09-18T11:56:13Z</time>
      </trkpt>
      <trkpt lat="44.47202" lon="2.0758">
        <ele>300</ele>
        <time>2017-09-18T11:56:16Z</time>
      </trkpt>
      <trkpt lat="44.47201" lon="2.07584">
        <ele>298</ele>
        <time>2017-09-18T11:56:20Z</time>
      </trkpt>
      <trkpt lat="44.47197" lon="2.0759">
        <ele>298</ele>
        <time>2017-09-18T11:56:28Z</time>
      </trkpt>
      <trkpt lat="44.47191" lon="2.07595">
        <ele>298</ele>
        <time>2017-09-18T11:56:36Z</time>
      </trkpt>
      <trkpt lat="44.47192" lon="2.07596">
        <ele>298</ele>
        <time>2017-09-18T11:56:58Z</time>
      </trkpt>
      <trkpt lat="44.47197" lon="2.07588">
        <ele>298</ele>
        <time>2017-09-18T11:57:06Z</time>
      </trkpt>
      <trkpt lat="44.47198" lon="2.07585">
        <ele>298</ele>
        <time>2017-09-18T11:57:10Z</time>
      </trkpt>
      <trkpt lat="44.47198" lon="2.0758">
        <ele>300</ele>
        <time>2017-09-18T11:57:13Z</time>
      </trkpt>
      <trkpt lat="44.472" lon="2.07576">
        <ele>300</ele>
        <time>2017-09-18T11:57:16Z</time>
      </trkpt>
      <trkpt lat="44.47205" lon="2.07573">
        <ele>300</ele>
        <time>2017-09-18T11:57:22Z</time>
      </trkpt>
      <trkpt lat="44.47204" lon="2.07573">
        <ele>300</ele>
        <time>2017-09-18T12:01:29Z</time>
      </trkpt>
      <trkpt lat="44.47197" lon="2.07591">
        <ele>298</ele>
        <time>2017-09-18T12:01:47Z</time>
      </trkpt>
      <trkpt lat="44.47196" lon="2.07594">
        <ele>298</ele>
        <time>2017-09-18T12:01:52Z</time>
      </trkpt>
      <trkpt lat="44.47193" lon="2.07598">
        <ele>298</ele>
        <time>2017-09-18T12:02:04Z</time>
      </trkpt>
      <trkpt lat="44.47191" lon="2.07599">
        <ele>298</ele>
        <time>2017-09-18T12:02:09Z</time>
      </trkpt>
      <trkpt lat="44.4719" lon="2.07601">
        <ele>298</ele>
        <time>2017-09-18T12:02:11Z</time>
      </trkpt>
      <trkpt lat="44.47187" lon="2.07602">
        <ele>298</ele>
        <time>2017-09-18T12:02:16Z</time>
      </trkpt>
      <trkpt lat="44.47185" lon="2.07602">
        <ele>298</ele>
        <time>2017-09-18T12:02:19Z</time>
      </trkpt>
      <trkpt lat="44.47183" lon="2.07604">
        <ele>298</ele>
        <time>2017-09-18T12:06:55Z</time>
      </trkpt>
      <trkpt lat="44.47183" lon="2.07606">
        <ele>298</ele>
        <time>2017-09-18T12:05:41Z</time>
      </trkpt>
      <trkpt lat="44.47183" lon="2.07604">
        <ele>298</ele>
        <time>2017-09-18T12:06:55Z</time>
      </trkpt>
      <trkpt lat="44.47179" lon="2.07608">
        <ele>298</ele>
        <time>2017-09-18T12:07:18Z</time>
      </trkpt>
      <trkpt lat="44.47177" lon="2.07612">
        <ele>298</ele>
        <time>2017-09-18T12:07:25Z</time>
      </trkpt>
      <trkpt lat="44.47175" lon="2.07616">
        <ele>297</ele>
        <time>2017-09-18T12:07:29Z</time>
      </trkpt>
      <trkpt lat="44.47176" lon="2.07622">
        <ele>297</ele>
        <time>2017-09-18T12:07:34Z</time>
      </trkpt>
      <trkpt lat="44.47175" lon="2.07627">
        <ele>297</ele>
        <time>2017-09-18T12:08:56Z</time>
      </trkpt>
      <trkpt lat="44.47176" lon="2.07631">
        <ele>297</ele>
        <time>2017-09-18T12:09:00Z</time>
      </trkpt>
      <trkpt lat="44.47172" lon="2.07641">
        <ele>296</ele>
        <time>2017-09-18T12:09:09Z</time>
      </trkpt>
      <trkpt lat="44.47165" lon="2.07654">
        <ele>294</ele>
        <time>2017-09-18T12:09:20Z</time>
      </trkpt>
      <trkpt lat="44.47161" lon="2.0766">
        <ele>294</ele>
        <time>2017-09-18T12:09:39Z</time>
      </trkpt>
      <trkpt lat="44.4716" lon="2.07662">
        <ele>294</ele>
        <time>2017-09-18T12:09:42Z</time>
      </trkpt>
      <trkpt lat="44.47159" lon="2.07659">
        <ele>294</ele>
        <time>2017-09-18T12:10:24Z</time>
      </trkpt>
      <trkpt lat="44.47161" lon="2.07658">
        <ele>294</ele>
        <time>2017-09-18T12:11:03Z</time>
      </trkpt>
      <trkpt lat="44.47164" lon="2.07662">
        <ele>293</ele>
        <time>2017-09-18T12:11:10Z</time>
      </trkpt>
      <trkpt lat="44.47167" lon="2.07667">
        <ele>293</ele>
        <time>2017-09-18T12:11:15Z</time>
      </trkpt>
      <trkpt lat="44.47169" lon="2.07673">
        <ele>293</ele>
        <time>2017-09-18T12:11:22Z</time>
      </trkpt>
      <trkpt lat="44.47172" lon="2.07672">
        <ele>294</ele>
        <time>2017-09-18T12:11:37Z</time>
      </trkpt>
      <trkpt lat="44.47176" lon="2.07649">
        <ele>296</ele>
        <time>2017-09-18T12:11:51Z</time>
      </trkpt>
      <trkpt lat="44.47177" lon="2.07644">
        <ele>296</ele>
        <time>2017-09-18T12:11:54Z</time>
      </trkpt>
      <trkpt lat="44.47177" lon="2.0764">
        <ele>296</ele>
        <time>2017-09-18T12:11:57Z</time>
      </trkpt>
      <trkpt lat="44.47177" lon="2.07636">
        <ele>297</ele>
        <time>2017-09-18T12:12:00Z</time>
      </trkpt>
      <trkpt lat="44.47177" lon="2.07631">
        <ele>297</ele>
        <time>2017-09-18T12:12:04Z</time>
      </trkpt>
      <trkpt lat="44.47178" lon="2.07626">
        <ele>297</ele>
        <time>2017-09-18T12:12:10Z</time>
      </trkpt>
      <trkpt lat="44.47175" lon="2.07624">
        <ele>297</ele>
        <time>2017-09-18T12:12:12Z</time>
      </trkpt>
      <trkpt lat="44.47174" lon="2.07619">
        <ele>297</ele>
        <time>2017-09-18T12:13:29Z</time>
      </trkpt>
      <trkpt lat="44.47175" lon="2.07614">
        <ele>298</ele>
        <time>2017-09-18T12:13:32Z</time>
      </trkpt>
      <trkpt lat="44.47178" lon="2.07611">
        <ele>298</ele>
        <time>2017-09-18T12:13:36Z</time>
      </trkpt>
      <trkpt lat="44.47181" lon="2.07608">
        <ele>298</ele>
        <time>2017-09-18T12:14:30Z</time>
      </trkpt>
      <trkpt lat="44.47181" lon="2.07608">
        <ele>298</ele>
        <time>2017-09-18T12:14:30Z</time>
      </trkpt>
      <trkpt lat="44.47178" lon="2.07609">
        <ele>298</ele>
        <time>2017-09-18T12:18:25Z</time>
      </trkpt>
      <trkpt lat="44.47175" lon="2.07611">
        <ele>298</ele>
        <time>2017-09-18T12:14:39Z</time>
      </trkpt>
      <trkpt lat="44.47178" lon="2.07609">
        <ele>298</ele>
        <time>2017-09-18T12:18:25Z</time>
      </trkpt>
      <trkpt lat="44.47178" lon="2.07609">
        <ele>298</ele>
        <time>2017-09-18T12:18:25Z</time>
      </trkpt>
      <trkpt lat="44.47176" lon="2.07612">
        <ele>298</ele>
        <time>2017-09-18T12:18:31Z</time>
      </trkpt>
      <trkpt lat="44.47174" lon="2.07614">
        <ele>297</ele>
        <time>2017-09-18T12:20:04Z</time>
      </trkpt>
      <trkpt lat="44.47173" lon="2.0762">
        <ele>297</ele>
        <time>2017-09-18T12:21:01Z</time>
      </trkpt>
      <trkpt lat="44.47172" lon="2.07623">
        <ele>297</ele>
        <time>2017-09-18T12:21:06Z</time>
      </trkpt>
      <trkpt lat="44.47161" lon="2.07645">
        <ele>294</ele>
        <time>2017-09-18T12:21:24Z</time>
      </trkpt>
      <trkpt lat="44.47159" lon="2.07648">
        <ele>294</ele>
        <time>2017-09-18T12:21:27Z</time>
      </trkpt>
      <trkpt lat="44.4716" lon="2.07655">
        <ele>294</ele>
        <time>2017-09-18T12:21:32Z</time>
      </trkpt>
      <trkpt lat="44.47165" lon="2.07678">
        <ele>293</ele>
        <time>2017-09-18T12:21:51Z</time>
      </trkpt>
      <trkpt lat="44.4717" lon="2.07721">
        <ele>294</ele>
        <time>2017-09-18T12:22:23Z</time>
      </trkpt>
      <trkpt lat="44.47173" lon="2.07751">
        <ele>292</ele>
        <time>2017-09-18T12:22:45Z</time>
      </trkpt>
      <trkpt lat="44.47173" lon="2.07756">
        <ele>292</ele>
        <time>2017-09-18T12:22:48Z</time>
      </trkpt>
      <trkpt lat="44.47169" lon="2.07763">
        <ele>292</ele>
        <time>2017-09-18T12:22:56Z</time>
      </trkpt>
      <trkpt lat="44.47162" lon="2.07769">
        <ele>291</ele>
        <time>2017-09-18T12:23:04Z</time>
      </trkpt>
      <trkpt lat="44.47158" lon="2.07771">
        <ele>291</ele>
        <time>2017-09-18T12:23:09Z</time>
      </trkpt>
      <trkpt lat="44.47154" lon="2.07778">
        <ele>291</ele>
        <time>2017-09-18T12:23:15Z</time>
      </trkpt>
      <trkpt lat="44.47148" lon="2.07779">
        <ele>291</ele>
        <time>2017-09-18T12:23:25Z</time>
      </trkpt>
      <trkpt lat="44.47141" lon="2.07779">
        <ele>291</ele>
        <time>2017-09-18T12:23:30Z</time>
      </trkpt>
      <trkpt lat="44.47137" lon="2.07782">
        <ele>291</ele>
        <time>2017-09-18T12:23:36Z</time>
      </trkpt>
      <trkpt lat="44.47133" lon="2.07781">
        <ele>291</ele>
        <time>2017-09-18T12:23:40Z</time>
      </trkpt>
      <trkpt lat="44.47119" lon="2.07773">
        <ele>291</ele>
        <time>2017-09-18T12:23:56Z</time>
      </trkpt>
      <trkpt lat="44.47102" lon="2.07771">
        <ele>291</ele>
        <time>2017-09-18T12:24:19Z</time>
      </trkpt>
      <trkpt lat="44.47094" lon="2.0777">
        <ele>291</ele>
        <time>2017-09-18T12:24:25Z</time>
      </trkpt>
      <trkpt lat="44.47074" lon="2.07772">
        <ele>291</ele>
        <time>2017-09-18T12:24:43Z</time>
      </trkpt>
      <trkpt lat="44.4706" lon="2.07769">
        <ele>291</ele>
        <time>2017-09-18T12:24:54Z</time>
      </trkpt>
      <trkpt lat="44.47055" lon="2.07771">
        <ele>290</ele>
        <time>2017-09-18T12:24:59Z</time>
      </trkpt>
      <trkpt lat="44.47046" lon="2.07763">
        <ele>290</ele>
        <time>2017-09-18T12:25:09Z</time>
      </trkpt>
      <trkpt lat="44.47039" lon="2.07758">
        <ele>291</ele>
        <time>2017-09-18T12:25:16Z</time>
      </trkpt>
      <trkpt lat="44.47034" lon="2.07752">
        <ele>291</ele>
        <time>2017-09-18T12:25:22Z</time>
      </trkpt>
      <trkpt lat="44.4701" lon="2.07728">
        <ele>293</ele>
        <time>2017-09-18T12:25:48Z</time>
      </trkpt>
      <trkpt lat="44.47007" lon="2.07725">
        <ele>293</ele>
        <time>2017-09-18T12:25:52Z</time>
      </trkpt>
      <trkpt lat="44.46995" lon="2.0772">
        <ele>292</ele>
        <time>2017-09-18T12:26:03Z</time>
      </trkpt>
      <trkpt lat="44.46991" lon="2.07715">
        <ele>292</ele>
        <time>2017-09-18T12:26:07Z</time>
      </trkpt>
      <trkpt lat="44.4699" lon="2.0771">
        <ele>292</ele>
        <time>2017-09-18T12:26:10Z</time>
      </trkpt>
      <trkpt lat="44.4699" lon="2.07697">
        <ele>292</ele>
        <time>2017-09-18T12:26:21Z</time>
      </trkpt>
      <trkpt lat="44.46992" lon="2.07692">
        <ele>293</ele>
        <time>2017-09-18T12:26:28Z</time>
      </trkpt>
      <trkpt lat="44.46994" lon="2.07686">
        <ele>293</ele>
        <time>2017-09-18T12:26:34Z</time>
      </trkpt>
      <trkpt lat="44.46996" lon="2.07681">
        <ele>293</ele>
        <time>2017-09-18T12:26:40Z</time>
      </trkpt>
      <trkpt lat="44.46999" lon="2.07681">
        <ele>293</ele>
        <time>2017-09-18T12:27:14Z</time>
      </trkpt>
      <trkpt lat="44.47002" lon="2.07686">
        <ele>294</ele>
        <time>2017-09-18T12:27:31Z</time>
      </trkpt>
      <trkpt lat="44.47003" lon="2.07691">
        <ele>293</ele>
        <time>2017-09-18T12:31:27Z</time>
      </trkpt>
      <trkpt lat="44.47007" lon="2.07692">
        <ele>293</ele>
        <time>2017-09-18T12:31:32Z</time>
      </trkpt>
      <trkpt lat="44.47007" lon="2.07687">
        <ele>294</ele>
        <time>2017-09-18T12:31:57Z</time>
      </trkpt>
      <trkpt lat="44.47002" lon="2.07681">
        <ele>294</ele>
        <time>2017-09-18T12:32:08Z</time>
      </trkpt>
      <trkpt lat="44.46998" lon="2.0768">
        <ele>293</ele>
        <time>2017-09-18T12:32:14Z</time>
      </trkpt>
      <trkpt lat="44.46995" lon="2.07674">
        <ele>293</ele>
        <time>2017-09-18T12:32:18Z</time>
      </trkpt>
      <trkpt lat="44.46992" lon="2.07671">
        <ele>293</ele>
        <time>2017-09-18T12:32:35Z</time>
      </trkpt>
      <trkpt lat="44.46993" lon="2.07673">
        <ele>293</ele>
        <time>2017-09-18T12:33:44Z</time>
      </trkpt>
      <trkpt lat="44.46994" lon="2.07672">
        <ele>293</ele>
        <time>2017-09-18T12:34:43Z</time>
      </trkpt>
      <trkpt lat="44.46995" lon="2.07673">
        <ele>293</ele>
        <time>2017-09-18T12:36:27Z</time>
      </trkpt>
      <trkpt lat="44.4699" lon="2.07699">
        <ele>292</ele>
        <time>2017-09-19T08:02:26Z</time>
      </trkpt>
      <trkpt lat="44.46989" lon="2.07702">
        <ele>292</ele>
        <time>2017-09-19T08:02:27Z</time>
      </trkpt>
      <trkpt lat="44.4699" lon="2.07705">
        <ele>292</ele>
        <time>2017-09-19T08:02:34Z</time>
      </trkpt>
      <trkpt lat="44.4699" lon="2.07708">
        <ele>292</ele>
        <time>2017-09-19T08:02:37Z</time>
      </trkpt>
      <trkpt lat="44.46991" lon="2.07711">
        <ele>292</ele>
        <time>2017-09-19T08:02:41Z</time>
      </trkpt>
      <trkpt lat="44.46995" lon="2.07714">
        <ele>292</ele>
        <time>2017-09-19T08:02:46Z</time>
      </trkpt>
      <trkpt lat="44.46997" lon="2.07716">
        <ele>292</ele>
        <time>2017-09-19T08:02:48Z</time>
      </trkpt>
      <trkpt lat="44.47014" lon="2.07733">
        <ele>293</ele>
        <time>2017-09-19T08:03:06Z</time>
      </trkpt>
      <trkpt lat="44.47018" lon="2.07738">
        <ele>293</ele>
        <time>2017-09-19T08:03:11Z</time>
      </trkpt>
      <trkpt lat="44.47022" lon="2.07745">
        <ele>293</ele>
        <time>2017-09-19T08:03:17Z</time>
      </trkpt>
      <trkpt lat="44.47038" lon="2.0776">
        <ele>290</ele>
        <time>2017-09-19T08:03:34Z</time>
      </trkpt>
      <trkpt lat="44.47042" lon="2.07762">
        <ele>290</ele>
        <time>2017-09-19T08:03:37Z</time>
      </trkpt>
      <trkpt lat="44.47044" lon="2.07765">
        <ele>290</ele>
        <time>2017-09-19T08:03:40Z</time>
      </trkpt>
      <trkpt lat="44.4706" lon="2.0777">
        <ele>291</ele>
        <time>2017-09-19T08:03:56Z</time>
      </trkpt>
      <trkpt lat="44.47063" lon="2.07771">
        <ele>291</ele>
        <time>2017-09-19T08:04:00Z</time>
      </trkpt>
      <trkpt lat="44.47067" lon="2.07768">
        <ele>291</ele>
        <time>2017-09-19T08:04:04Z</time>
      </trkpt>
      <trkpt lat="44.4707" lon="2.07767">
        <ele>291</ele>
        <time>2017-09-19T08:04:09Z</time>
      </trkpt>
      <trkpt lat="44.47078" lon="2.07767">
        <ele>291</ele>
        <time>2017-09-19T08:04:21Z</time>
      </trkpt>
      <trkpt lat="44.47083" lon="2.07766">
        <ele>291</ele>
        <time>2017-09-19T08:04:25Z</time>
      </trkpt>
      <trkpt lat="44.47087" lon="2.07766">
        <ele>292</ele>
        <time>2017-09-19T08:04:30Z</time>
      </trkpt>
      <trkpt lat="44.47092" lon="2.07764">
        <ele>292</ele>
        <time>2017-09-19T08:04:37Z</time>
      </trkpt>
      <trkpt lat="44.47103" lon="2.07771">
        <ele>291</ele>
        <time>2017-09-19T08:04:44Z</time>
      </trkpt>
      <trkpt lat="44.47109" lon="2.07772">
        <ele>291</ele>
        <time>2017-09-19T08:04:47Z</time>
      </trkpt>
      <trkpt lat="44.47114" lon="2.07776">
        <ele>291</ele>
        <time>2017-09-19T08:04:51Z</time>
      </trkpt>
      <trkpt lat="44.47118" lon="2.07779">
        <ele>291</ele>
        <time>2017-09-19T08:04:54Z</time>
      </trkpt>
      <trkpt lat="44.47126" lon="2.0778">
        <ele>291</ele>
        <time>2017-09-19T08:04:58Z</time>
      </trkpt>
      <trkpt lat="44.47135" lon="2.0778">
        <ele>291</ele>
        <time>2017-09-19T08:05:03Z</time>
      </trkpt>
      <trkpt lat="44.47138" lon="2.07781">
        <ele>291</ele>
        <time>2017-09-19T08:05:07Z</time>
      </trkpt>
      <trkpt lat="44.47142" lon="2.07781">
        <ele>291</ele>
        <time>2017-09-19T08:05:10Z</time>
      </trkpt>
      <trkpt lat="44.47146" lon="2.07781">
        <ele>291</ele>
        <time>2017-09-19T08:05:13Z</time>
      </trkpt>
      <trkpt lat="44.4716" lon="2.0777">
        <ele>291</ele>
        <time>2017-09-19T08:05:25Z</time>
      </trkpt>
      <trkpt lat="44.47162" lon="2.07768">
        <ele>291</ele>
        <time>2017-09-19T08:05:27Z</time>
      </trkpt>
      <trkpt lat="44.4717" lon="2.07766">
        <ele>292</ele>
        <time>2017-09-19T08:05:37Z</time>
      </trkpt>
      <trkpt lat="44.47174" lon="2.07759">
        <ele>292</ele>
        <time>2017-09-19T08:05:41Z</time>
      </trkpt>
      <trkpt lat="44.47177" lon="2.07751">
        <ele>292</ele>
        <time>2017-09-19T08:05:47Z</time>
      </trkpt>
      <trkpt lat="44.4718" lon="2.07748">
        <ele>293</ele>
        <time>2017-09-19T08:05:59Z</time>
      </trkpt>
      <trkpt lat="44.47181" lon="2.07744">
        <ele>293</ele>
        <time>2017-09-19T08:06:05Z</time>
      </trkpt>
      <trkpt lat="44.47189" lon="2.07738">
        <ele>294</ele>
        <time>2017-09-19T08:06:15Z</time>
      </trkpt>
      <trkpt lat="44.47195" lon="2.07726">
        <ele>294</ele>
        <time>2017-09-19T08:06:24Z</time>
      </trkpt>
      <trkpt lat="44.47197" lon="2.0772">
        <ele>294</ele>
        <time>2017-09-19T08:06:27Z</time>
      </trkpt>
      <trkpt lat="44.47209" lon="2.07702">
        <ele>295</ele>
        <time>2017-09-19T08:06:42Z</time>
      </trkpt>
      <trkpt lat="44.47214" lon="2.07698">
        <ele>295</ele>
        <time>2017-09-19T08:06:46Z</time>
      </trkpt>
      <trkpt lat="44.47222" lon="2.07689">
        <ele>296</ele>
        <time>2017-09-19T08:06:54Z</time>
      </trkpt>
      <trkpt lat="44.47234" lon="2.0768">
        <ele>297</ele>
        <time>2017-09-19T08:07:04Z</time>
      </trkpt>
      <trkpt lat="44.47238" lon="2.07674">
        <ele>298</ele>
        <time>2017-09-19T08:07:09Z</time>
      </trkpt>
      <trkpt lat="44.47254" lon="2.07655">
        <ele>301</ele>
        <time>2017-09-19T08:07:27Z</time>
      </trkpt>
      <trkpt lat="44.47256" lon="2.07653">
        <ele>301</ele>
        <time>2017-09-19T08:07:29Z</time>
      </trkpt>
      <trkpt lat="44.47263" lon="2.07642">
        <ele>302</ele>
        <time>2017-09-19T08:07:38Z</time>
      </trkpt>
      <trkpt lat="44.47266" lon="2.07638">
        <ele>302</ele>
        <time>2017-09-19T08:07:41Z</time>
      </trkpt>
      <trkpt lat="44.47267" lon="2.07635">
        <ele>302</ele>
        <time>2017-09-19T08:07:47Z</time>
      </trkpt>
      <trkpt lat="44.47269" lon="2.07631">
        <ele>302</ele>
        <time>2017-09-19T08:07:51Z</time>
      </trkpt>
      <trkpt lat="44.47275" lon="2.07628">
        <ele>302</ele>
        <time>2017-09-19T08:07:57Z</time>
      </trkpt>
      <trkpt lat="44.47277" lon="2.07626">
        <ele>302</ele>
        <time>2017-09-19T08:07:59Z</time>
      </trkpt>
      <trkpt lat="44.47282" lon="2.07615">
        <ele>302</ele>
        <time>2017-09-19T08:08:05Z</time>
      </trkpt>
      <trkpt lat="44.47283" lon="2.07612">
        <ele>302</ele>
        <time>2017-09-19T08:08:07Z</time>
      </trkpt>
      <trkpt lat="44.47285" lon="2.07608">
        <ele>303</ele>
        <time>2017-09-19T08:08:10Z</time>
      </trkpt>
      <trkpt lat="44.47287" lon="2.07604">
        <ele>303</ele>
        <time>2017-09-19T08:08:13Z</time>
      </trkpt>
      <trkpt lat="44.47292" lon="2.07599">
        <ele>303</ele>
        <time>2017-09-19T08:08:19Z</time>
      </trkpt>
      <trkpt lat="44.47297" lon="2.07592">
        <ele>303</ele>
        <time>2017-09-19T08:08:25Z</time>
      </trkpt>
      <trkpt lat="44.47312" lon="2.07566">
        <ele>306</ele>
        <time>2017-09-19T08:08:43Z</time>
      </trkpt>
      <trkpt lat="44.47316" lon="2.07562">
        <ele>306</ele>
        <time>2017-09-19T08:08:48Z</time>
      </trkpt>
      <trkpt lat="44.47319" lon="2.0756">
        <ele>306</ele>
        <time>2017-09-19T08:08:50Z</time>
      </trkpt>
      <trkpt lat="44.4732" lon="2.07557">
        <ele>306</ele>
        <time>2017-09-19T08:08:54Z</time>
      </trkpt>
      <trkpt lat="44.47324" lon="2.07552">
        <ele>306</ele>
        <time>2017-09-19T08:09:20Z</time>
      </trkpt>
      <trkpt lat="44.47325" lon="2.0755">
        <ele>307</ele>
        <time>2017-09-19T08:09:26Z</time>
      </trkpt>
      <trkpt lat="44.47341" lon="2.07533">
        <ele>312</ele>
        <time>2017-09-19T08:09:44Z</time>
      </trkpt>
      <trkpt lat="44.47375" lon="2.07516">
        <ele>313</ele>
        <time>2017-09-19T08:10:15Z</time>
      </trkpt>
      <trkpt lat="44.47378" lon="2.07514">
        <ele>313</ele>
        <time>2017-09-19T08:10:18Z</time>
      </trkpt>
      <trkpt lat="44.47384" lon="2.07512">
        <ele>314</ele>
        <time>2017-09-19T08:10:24Z</time>
      </trkpt>
      <trkpt lat="44.47387" lon="2.07511">
        <ele>314</ele>
        <time>2017-09-19T08:10:26Z</time>
      </trkpt>
      <trkpt lat="44.47394" lon="2.07508">
        <ele>315</ele>
        <time>2017-09-19T08:10:33Z</time>
      </trkpt>
      <trkpt lat="44.47421" lon="2.07501">
        <ele>320</ele>
        <time>2017-09-19T08:10:56Z</time>
      </trkpt>
      <trkpt lat="44.47424" lon="2.07499">
        <ele>322</ele>
        <time>2017-09-19T08:10:59Z</time>
      </trkpt>
      <trkpt lat="44.47427" lon="2.07497">
        <ele>322</ele>
        <time>2017-09-19T08:11:02Z</time>
      </trkpt>
      <trkpt lat="44.47432" lon="2.07494">
        <ele>323</ele>
        <time>2017-09-19T08:11:08Z</time>
      </trkpt>
      <trkpt lat="44.47442" lon="2.07488">
        <ele>324</ele>
        <time>2017-09-19T08:11:18Z</time>
      </trkpt>
      <trkpt lat="44.47445" lon="2.07486">
        <ele>324</ele>
        <time>2017-09-19T08:11:21Z</time>
      </trkpt>
      <trkpt lat="44.47449" lon="2.07485">
        <ele>324</ele>
        <time>2017-09-19T08:11:24Z</time>
      </trkpt>
      <trkpt lat="44.47456" lon="2.0748">
        <ele>324</ele>
        <time>2017-09-19T08:11:30Z</time>
      </trkpt>
      <trkpt lat="44.47459" lon="2.07479">
        <ele>325</ele>
        <time>2017-09-19T08:11:33Z</time>
      </trkpt>
      <trkpt lat="44.47461" lon="2.07478">
        <ele>325</ele>
        <time>2017-09-19T08:11:37Z</time>
      </trkpt>
      <trkpt lat="44.47464" lon="2.07477">
        <ele>325</ele>
        <time>2017-09-19T08:11:40Z</time>
      </trkpt>
      <trkpt lat="44.47478" lon="2.07466">
        <ele>325</ele>
        <time>2017-09-19T08:11:54Z</time>
      </trkpt>
      <trkpt lat="44.4748" lon="2.07464">
        <ele>326</ele>
        <time>2017-09-19T08:11:56Z</time>
      </trkpt>
      <trkpt lat="44.47482" lon="2.07463">
        <ele>326</ele>
        <time>2017-09-19T08:11:58Z</time>
      </trkpt>
      <trkpt lat="44.47484" lon="2.07462">
        <ele>326</ele>
        <time>2017-09-19T08:12:00Z</time>
      </trkpt>
      <trkpt lat="44.47486" lon="2.07459">
        <ele>326</ele>
        <time>2017-09-19T08:12:02Z</time>
      </trkpt>
      <trkpt lat="44.47491" lon="2.07455">
        <ele>327</ele>
        <time>2017-09-19T08:12:07Z</time>
      </trkpt>
      <trkpt lat="44.47493" lon="2.07453">
        <ele>327</ele>
        <time>2017-09-19T08:12:10Z</time>
      </trkpt>
      <trkpt lat="44.47497" lon="2.07449">
        <ele>327</ele>
        <time>2017-09-19T08:12:15Z</time>
      </trkpt>
      <trkpt lat="44.47518" lon="2.07433">
        <ele>332</ele>
        <time>2017-09-19T08:12:36Z</time>
      </trkpt>
      <trkpt lat="44.47526" lon="2.0743">
        <ele>332</ele>
        <time>2017-09-19T08:12:44Z</time>
      </trkpt>
      <trkpt lat="44.47535" lon="2.07429">
        <ele>332</ele>
        <time>2017-09-19T08:12:55Z</time>
      </trkpt>
      <trkpt lat="44.4754" lon="2.07428">
        <ele>332</ele>
        <time>2017-09-19T08:13:01Z</time>
      </trkpt>
      <trkpt lat="44.47576" lon="2.07424">
        <ele>336</ele>
        <time>2017-09-19T08:13:32Z</time>
      </trkpt>
      <trkpt lat="44.47585" lon="2.07423">
        <ele>337</ele>
        <time>2017-09-19T08:13:42Z</time>
      </trkpt>
      <trkpt lat="44.47588" lon="2.07422">
        <ele>337</ele>
        <time>2017-09-19T08:13:45Z</time>
      </trkpt>
      <trkpt lat="44.47599" lon="2.0742">
        <ele>336</ele>
        <time>2017-09-19T08:13:55Z</time>
      </trkpt>
      <trkpt lat="44.47605" lon="2.07416">
        <ele>338</ele>
        <time>2017-09-19T08:14:01Z</time>
      </trkpt>
      <trkpt lat="44.4761" lon="2.07411">
        <ele>337</ele>
        <time>2017-09-19T08:14:07Z</time>
      </trkpt>
      <trkpt lat="44.47613" lon="2.07409">
        <ele>337</ele>
        <time>2017-09-19T08:14:09Z</time>
      </trkpt>
      <trkpt lat="44.47614" lon="2.07405">
        <ele>337</ele>
        <time>2017-09-19T08:14:12Z</time>
      </trkpt>
      <trkpt lat="44.47617" lon="2.07401">
        <ele>337</ele>
        <time>2017-09-19T08:14:15Z</time>
      </trkpt>
      <trkpt lat="44.47619" lon="2.07398">
        <ele>337</ele>
        <time>2017-09-19T08:14:18Z</time>
      </trkpt>
      <trkpt lat="44.47624" lon="2.07388">
        <ele>337</ele>
        <time>2017-09-19T08:14:26Z</time>
      </trkpt>
      <trkpt lat="44.47625" lon="2.07384">
        <ele>337</ele>
        <time>2017-09-19T08:14:28Z</time>
      </trkpt>
      <trkpt lat="44.47626" lon="2.07381">
        <ele>337</ele>
        <time>2017-09-19T08:14:30Z</time>
      </trkpt>
      <trkpt lat="44.47631" lon="2.07368">
        <ele>337</ele>
        <time>2017-09-19T08:14:39Z</time>
      </trkpt>
      <trkpt lat="44.47631" lon="2.07365">
        <ele>338</ele>
        <time>2017-09-19T08:14:41Z</time>
      </trkpt>
      <trkpt lat="44.47635" lon="2.07355">
        <ele>338</ele>
        <time>2017-09-19T08:14:47Z</time>
      </trkpt>
      <trkpt lat="44.47636" lon="2.07351">
        <ele>338</ele>
        <time>2017-09-19T08:14:51Z</time>
      </trkpt>
      <trkpt lat="44.4764" lon="2.07343">
        <ele>337</ele>
        <time>2017-09-19T08:14:58Z</time>
      </trkpt>
      <trkpt lat="44.47642" lon="2.07338">
        <ele>337</ele>
        <time>2017-09-19T08:15:02Z</time>
      </trkpt>
      <trkpt lat="44.47649" lon="2.07315">
        <ele>339</ele>
        <time>2017-09-19T08:15:18Z</time>
      </trkpt>
      <trkpt lat="44.47651" lon="2.0731">
        <ele>339</ele>
        <time>2017-09-19T08:15:22Z</time>
      </trkpt>
      <trkpt lat="44.47656" lon="2.07301">
        <ele>339</ele>
        <time>2017-09-19T08:15:29Z</time>
      </trkpt>
      <trkpt lat="44.47663" lon="2.07289">
        <ele>339</ele>
        <time>2017-09-19T08:15:40Z</time>
      </trkpt>
      <trkpt lat="44.47675" lon="2.07268">
        <ele>340</ele>
        <time>2017-09-19T08:15:55Z</time>
      </trkpt>
      <trkpt lat="44.47677" lon="2.07265">
        <ele>340</ele>
        <time>2017-09-19T08:15:58Z</time>
      </trkpt>
      <trkpt lat="44.4768" lon="2.07261">
        <ele>340</ele>
        <time>2017-09-19T08:16:01Z</time>
      </trkpt>
      <trkpt lat="44.47687" lon="2.0725">
        <ele>340</ele>
        <time>2017-09-19T08:16:10Z</time>
      </trkpt>
      <trkpt lat="44.4769" lon="2.07247">
        <ele>342</ele>
        <time>2017-09-19T08:16:13Z</time>
      </trkpt>
      <trkpt lat="44.47695" lon="2.0724">
        <ele>342</ele>
        <time>2017-09-19T08:16:19Z</time>
      </trkpt>
      <trkpt lat="44.47709" lon="2.07229">
        <ele>343</ele>
        <time>2017-09-19T08:16:35Z</time>
      </trkpt>
      <trkpt lat="44.47712" lon="2.07227">
        <ele>343</ele>
        <time>2017-09-19T08:16:38Z</time>
      </trkpt>
      <trkpt lat="44.47728" lon="2.07219">
        <ele>344</ele>
        <time>2017-09-19T08:16:51Z</time>
      </trkpt>
      <trkpt lat="44.47764" lon="2.07202">
        <ele>349</ele>
        <time>2017-09-19T08:17:23Z</time>
      </trkpt>
      <trkpt lat="44.47786" lon="2.07196">
        <ele>350</ele>
        <time>2017-09-19T08:17:43Z</time>
      </trkpt>
      <trkpt lat="44.47796" lon="2.07192">
        <ele>351</ele>
        <time>2017-09-19T08:17:56Z</time>
      </trkpt>
      <trkpt lat="44.47803" lon="2.0719">
        <ele>351</ele>
        <time>2017-09-19T08:18:06Z</time>
      </trkpt>
      <trkpt lat="44.47816" lon="2.07185">
        <ele>352</ele>
        <time>2017-09-19T08:18:19Z</time>
      </trkpt>
      <trkpt lat="44.47822" lon="2.07184">
        <ele>353</ele>
        <time>2017-09-19T08:18:26Z</time>
      </trkpt>
      <trkpt lat="44.47825" lon="2.07183">
        <ele>353</ele>
        <time>2017-09-19T08:18:29Z</time>
      </trkpt>
      <trkpt lat="44.47827" lon="2.07181">
        <ele>353</ele>
        <time>2017-09-19T08:18:32Z</time>
      </trkpt>
      <trkpt lat="44.4783" lon="2.07179">
        <ele>354</ele>
        <time>2017-09-19T08:18:34Z</time>
      </trkpt>
      <trkpt lat="44.47832" lon="2.07179">
        <ele>354</ele>
        <time>2017-09-19T08:18:36Z</time>
      </trkpt>
      <trkpt lat="44.47846" lon="2.07173">
        <ele>356</ele>
        <time>2017-09-19T08:18:50Z</time>
      </trkpt>
      <trkpt lat="44.47854" lon="2.07169">
        <ele>356</ele>
        <time>2017-09-19T08:18:59Z</time>
      </trkpt>
      <trkpt lat="44.47861" lon="2.07165">
        <ele>356</ele>
        <time>2017-09-19T08:19:05Z</time>
      </trkpt>
      <trkpt lat="44.47863" lon="2.07164">
        <ele>356</ele>
        <time>2017-09-19T08:19:07Z</time>
      </trkpt>
      <trkpt lat="44.47866" lon="2.07162">
        <ele>356</ele>
        <time>2017-09-19T08:19:10Z</time>
      </trkpt>
      <trkpt lat="44.47871" lon="2.07158">
        <ele>356</ele>
        <time>2017-09-19T08:19:16Z</time>
      </trkpt>
      <trkpt lat="44.47877" lon="2.07157">
        <ele>356</ele>
        <time>2017-09-19T08:19:24Z</time>
      </trkpt>
      <trkpt lat="44.47882" lon="2.07155">
        <ele>356</ele>
        <time>2017-09-19T08:19:28Z</time>
      </trkpt>
      <trkpt lat="44.47895" lon="2.07154">
        <ele>357</ele>
        <time>2017-09-19T08:19:40Z</time>
      </trkpt>
      <trkpt lat="44.47901" lon="2.07153">
        <ele>358</ele>
        <time>2017-09-19T08:19:45Z</time>
      </trkpt>
      <trkpt lat="44.4791" lon="2.07151">
        <ele>358</ele>
        <time>2017-09-19T08:19:53Z</time>
      </trkpt>
      <trkpt lat="44.4792" lon="2.07149">
        <ele>360</ele>
        <time>2017-09-19T08:20:00Z</time>
      </trkpt>
      <trkpt lat="44.4794" lon="2.07142">
        <ele>360</ele>
        <time>2017-09-19T08:20:15Z</time>
      </trkpt>
      <trkpt lat="44.47958" lon="2.07133">
        <ele>360</ele>
        <time>2017-09-19T08:20:31Z</time>
      </trkpt>
      <trkpt lat="44.47982" lon="2.07114">
        <ele>360</ele>
        <time>2017-09-19T08:20:55Z</time>
      </trkpt>
      <trkpt lat="44.47985" lon="2.07111">
        <ele>360</ele>
        <time>2017-09-19T08:20:59Z</time>
      </trkpt>
      <trkpt lat="44.48011" lon="2.07077">
        <ele>363</ele>
        <time>2017-09-19T08:21:29Z</time>
      </trkpt>
      <trkpt lat="44.48015" lon="2.07074">
        <ele>364</ele>
        <time>2017-09-19T08:21:32Z</time>
      </trkpt>
      <trkpt lat="44.48018" lon="2.0707">
        <ele>364</ele>
        <time>2017-09-19T08:21:36Z</time>
      </trkpt>
      <trkpt lat="44.48045" lon="2.07043">
        <ele>365</ele>
        <time>2017-09-19T08:22:04Z</time>
      </trkpt>
      <trkpt lat="44.48055" lon="2.07029">
        <ele>366</ele>
        <time>2017-09-19T08:22:16Z</time>
      </trkpt>
      <trkpt lat="44.4806" lon="2.07021">
        <ele>367</ele>
        <time>2017-09-19T08:22:23Z</time>
      </trkpt>
      <trkpt lat="44.48077" lon="2.07001">
        <ele>370</ele>
        <time>2017-09-19T08:22:42Z</time>
      </trkpt>
      <trkpt lat="44.48081" lon="2.06999">
        <ele>371</ele>
        <time>2017-09-19T08:22:46Z</time>
      </trkpt>
      <trkpt lat="44.48082" lon="2.06993">
        <ele>370</ele>
        <time>2017-09-19T08:22:50Z</time>
      </trkpt>
      <trkpt lat="44.48085" lon="2.06988">
        <ele>372</ele>
        <time>2017-09-19T08:22:53Z</time>
      </trkpt>
      <trkpt lat="44.48087" lon="2.06985">
        <ele>372</ele>
        <time>2017-09-19T08:22:59Z</time>
      </trkpt>
      <trkpt lat="44.48101" lon="2.06957">
        <ele>372</ele>
        <time>2017-09-19T08:23:24Z</time>
      </trkpt>
      <trkpt lat="44.48103" lon="2.06954">
        <ele>372</ele>
        <time>2017-09-19T08:23:27Z</time>
      </trkpt>
      <trkpt lat="44.48105" lon="2.06951">
        <ele>372</ele>
        <time>2017-09-19T08:23:30Z</time>
      </trkpt>
      <trkpt lat="44.48118" lon="2.06927">
        <ele>373</ele>
        <time>2017-09-19T08:23:49Z</time>
      </trkpt>
      <trkpt lat="44.48124" lon="2.06919">
        <ele>373</ele>
        <time>2017-09-19T08:23:56Z</time>
      </trkpt>
      <trkpt lat="44.48127" lon="2.06914">
        <ele>373</ele>
        <time>2017-09-19T08:23:59Z</time>
      </trkpt>
      <trkpt lat="44.48147" lon="2.06888">
        <ele>374</ele>
        <time>2017-09-19T08:24:21Z</time>
      </trkpt>
      <trkpt lat="44.48165" lon="2.06869">
        <ele>374</ele>
        <time>2017-09-19T08:24:43Z</time>
      </trkpt>
      <trkpt lat="44.48169" lon="2.06865">
        <ele>378</ele>
        <time>2017-09-19T08:24:48Z</time>
      </trkpt>
      <trkpt lat="44.4817" lon="2.0686">
        <ele>378</ele>
        <time>2017-09-19T08:24:58Z</time>
      </trkpt>
      <trkpt lat="44.48176" lon="2.06856">
        <ele>378</ele>
        <time>2017-09-19T08:25:04Z</time>
      </trkpt>
      <trkpt lat="44.48192" lon="2.0683">
        <ele>377</ele>
        <time>2017-09-19T08:25:26Z</time>
      </trkpt>
      <trkpt lat="44.48194" lon="2.06826">
        <ele>377</ele>
        <time>2017-09-19T08:25:29Z</time>
      </trkpt>
      <trkpt lat="44.48194" lon="2.06816">
        <ele>377</ele>
        <time>2017-09-19T08:25:35Z</time>
      </trkpt>
      <trkpt lat="44.48195" lon="2.06811">
        <ele>377</ele>
        <time>2017-09-19T08:25:38Z</time>
      </trkpt>
      <trkpt lat="44.48196" lon="2.06806">
        <ele>377</ele>
        <time>2017-09-19T08:25:41Z</time>
      </trkpt>
      <trkpt lat="44.48197" lon="2.06801">
        <ele>377</ele>
        <time>2017-09-19T08:25:44Z</time>
      </trkpt>
      <trkpt lat="44.482" lon="2.06787">
        <ele>377</ele>
        <time>2017-09-19T08:25:53Z</time>
      </trkpt>
      <trkpt lat="44.48202" lon="2.06779">
        <ele>377</ele>
        <time>2017-09-19T08:25:59Z</time>
      </trkpt>
      <trkpt lat="44.48215" lon="2.06732">
        <ele>376</ele>
        <time>2017-09-19T08:26:30Z</time>
      </trkpt>
      <trkpt lat="44.48225" lon="2.06688">
        <ele>376</ele>
        <time>2017-09-19T08:26:57Z</time>
      </trkpt>
      <trkpt lat="44.48226" lon="2.06683">
        <ele>376</ele>
        <time>2017-09-19T08:27:00Z</time>
      </trkpt>
      <trkpt lat="44.48226" lon="2.06679">
        <ele>376</ele>
        <time>2017-09-19T08:27:04Z</time>
      </trkpt>
      <trkpt lat="44.48223" lon="2.06667">
        <ele>376</ele>
        <time>2017-09-19T08:27:15Z</time>
      </trkpt>
      <trkpt lat="44.48221" lon="2.06656">
        <ele>376</ele>
        <time>2017-09-19T08:27:21Z</time>
      </trkpt>
      <trkpt lat="44.48206" lon="2.06606">
        <ele>376</ele>
        <time>2017-09-19T08:27:53Z</time>
      </trkpt>
      <trkpt lat="44.48197" lon="2.06562">
        <ele>376</ele>
        <time>2017-09-19T08:28:19Z</time>
      </trkpt>
      <trkpt lat="44.48196" lon="2.06557">
        <ele>376</ele>
        <time>2017-09-19T08:28:22Z</time>
      </trkpt>
      <trkpt lat="44.48195" lon="2.06551">
        <ele>376</ele>
        <time>2017-09-19T08:28:26Z</time>
      </trkpt>
      <trkpt lat="44.48193" lon="2.06537">
        <ele>376</ele>
        <time>2017-09-19T08:28:35Z</time>
      </trkpt>
      <trkpt lat="44.48184" lon="2.06498">
        <ele>377</ele>
        <time>2017-09-19T08:28:59Z</time>
      </trkpt>
      <trkpt lat="44.48167" lon="2.06448">
        <ele>377</ele>
        <time>2017-09-19T08:29:31Z</time>
      </trkpt>
      <trkpt lat="44.48149" lon="2.06402">
        <ele>378</ele>
        <time>2017-09-19T08:30:03Z</time>
      </trkpt>
      <trkpt lat="44.48147" lon="2.06394">
        <ele>378</ele>
        <time>2017-09-19T08:30:08Z</time>
      </trkpt>
      <trkpt lat="44.48145" lon="2.0639">
        <ele>378</ele>
        <time>2017-09-19T08:30:11Z</time>
      </trkpt>
      <trkpt lat="44.48143" lon="2.06387">
        <ele>378</ele>
        <time>2017-09-19T08:30:28Z</time>
      </trkpt>
      <trkpt lat="44.48142" lon="2.06386">
        <ele>378</ele>
        <time>2017-09-19T08:30:53Z</time>
      </trkpt>
      <trkpt lat="44.4814" lon="2.06382">
        <ele>379</ele>
        <time>2017-09-19T08:31:13Z</time>
      </trkpt>
      <trkpt lat="44.48138" lon="2.0638">
        <ele>379</ele>
        <time>2017-09-19T08:31:29Z</time>
      </trkpt>
      <trkpt lat="44.48137" lon="2.06376">
        <ele>379</ele>
        <time>2017-09-19T08:31:35Z</time>
      </trkpt>
      <trkpt lat="44.48136" lon="2.06373">
        <ele>379</ele>
        <time>2017-09-19T08:31:38Z</time>
      </trkpt>
      <trkpt lat="44.48134" lon="2.0637">
        <ele>379</ele>
        <time>2017-09-19T08:31:41Z</time>
      </trkpt>
      <trkpt lat="44.48112" lon="2.0633">
        <ele>379</ele>
        <time>2017-09-19T08:32:12Z</time>
      </trkpt>
      <trkpt lat="44.48094" lon="2.06295">
        <ele>379</ele>
        <time>2017-09-19T08:32:43Z</time>
      </trkpt>
      <trkpt lat="44.48091" lon="2.06286">
        <ele>379</ele>
        <time>2017-09-19T08:32:50Z</time>
      </trkpt>
      <trkpt lat="44.48088" lon="2.06286">
        <ele>379</ele>
        <time>2017-09-19T08:33:08Z</time>
      </trkpt>
      <trkpt lat="44.48083" lon="2.06279">
        <ele>378</ele>
        <time>2017-09-19T08:33:18Z</time>
      </trkpt>
      <trkpt lat="44.48067" lon="2.06238">
        <ele>378</ele>
        <time>2017-09-19T08:33:47Z</time>
      </trkpt>
      <trkpt lat="44.48066" lon="2.06231">
        <ele>378</ele>
        <time>2017-09-19T08:33:51Z</time>
      </trkpt>
      <trkpt lat="44.48065" lon="2.06228">
        <ele>378</ele>
        <time>2017-09-19T08:33:53Z</time>
      </trkpt>
      <trkpt lat="44.48066" lon="2.06218">
        <ele>378</ele>
        <time>2017-09-19T08:34:00Z</time>
      </trkpt>
      <trkpt lat="44.4806" lon="2.06174">
        <ele>379</ele>
        <time>2017-09-19T08:34:30Z</time>
      </trkpt>
      <trkpt lat="44.48059" lon="2.06169">
        <ele>379</ele>
        <time>2017-09-19T08:34:34Z</time>
      </trkpt>
      <trkpt lat="44.48058" lon="2.06162">
        <ele>380</ele>
        <time>2017-09-19T08:34:39Z</time>
      </trkpt>
      <trkpt lat="44.48058" lon="2.06158">
        <ele>380</ele>
        <time>2017-09-19T08:34:42Z</time>
      </trkpt>
      <trkpt lat="44.48057" lon="2.06147">
        <ele>380</ele>
        <time>2017-09-19T08:34:51Z</time>
      </trkpt>
      <trkpt lat="44.48064" lon="2.061">
        <ele>380</ele>
        <time>2017-09-19T08:35:21Z</time>
      </trkpt>
      <trkpt lat="44.48064" lon="2.06095">
        <ele>381</ele>
        <time>2017-09-19T08:35:25Z</time>
      </trkpt>
      <trkpt lat="44.48067" lon="2.06081">
        <ele>381</ele>
        <time>2017-09-19T08:35:37Z</time>
      </trkpt>
      <trkpt lat="44.48068" lon="2.06075">
        <ele>381</ele>
        <time>2017-09-19T08:35:41Z</time>
      </trkpt>
      <trkpt lat="44.48077" lon="2.06029">
        <ele>380</ele>
        <time>2017-09-19T08:36:12Z</time>
      </trkpt>
      <trkpt lat="44.4808" lon="2.06015">
        <ele>380</ele>
        <time>2017-09-19T08:36:22Z</time>
      </trkpt>
      <trkpt lat="44.48081" lon="2.06011">
        <ele>381</ele>
        <time>2017-09-19T08:36:25Z</time>
      </trkpt>
      <trkpt lat="44.48082" lon="2.06005">
        <ele>381</ele>
        <time>2017-09-19T08:36:29Z</time>
      </trkpt>
      <trkpt lat="44.48087" lon="2.05957">
        <ele>381</ele>
        <time>2017-09-19T08:36:59Z</time>
      </trkpt>
      <trkpt lat="44.48091" lon="2.05937">
        <ele>381</ele>
        <time>2017-09-19T08:37:11Z</time>
      </trkpt>
      <trkpt lat="44.48092" lon="2.05931">
        <ele>381</ele>
        <time>2017-09-19T08:37:15Z</time>
      </trkpt>
      <trkpt lat="44.48091" lon="2.05926">
        <ele>381</ele>
        <time>2017-09-19T08:37:23Z</time>
      </trkpt>
      <trkpt lat="44.48099" lon="2.05877">
        <ele>381</ele>
        <time>2017-09-19T08:37:54Z</time>
      </trkpt>
      <trkpt lat="44.48101" lon="2.05867">
        <ele>380</ele>
        <time>2017-09-19T08:38:01Z</time>
      </trkpt>
      <trkpt lat="44.48102" lon="2.05857">
        <ele>380</ele>
        <time>2017-09-19T08:38:07Z</time>
      </trkpt>
      <trkpt lat="44.48111" lon="2.05814">
        <ele>380</ele>
        <time>2017-09-19T08:38:36Z</time>
      </trkpt>
      <trkpt lat="44.48112" lon="2.05808">
        <ele>380</ele>
        <time>2017-09-19T08:38:40Z</time>
      </trkpt>
      <trkpt lat="44.48112" lon="2.05802">
        <ele>380</ele>
        <time>2017-09-19T08:38:43Z</time>
      </trkpt>
      <trkpt lat="44.48112" lon="2.05797">
        <ele>380</ele>
        <time>2017-09-19T08:38:47Z</time>
      </trkpt>
      <trkpt lat="44.48122" lon="2.05746">
        <ele>379</ele>
        <time>2017-09-19T08:39:17Z</time>
      </trkpt>
      <trkpt lat="44.48122" lon="2.05741">
        <ele>379</ele>
        <time>2017-09-19T08:39:20Z</time>
      </trkpt>
      <trkpt lat="44.48123" lon="2.05735">
        <ele>379</ele>
        <time>2017-09-19T08:39:25Z</time>
      </trkpt>
      <trkpt lat="44.4813" lon="2.05695">
        <ele>379</ele>
        <time>2017-09-19T08:39:52Z</time>
      </trkpt>
      <trkpt lat="44.48132" lon="2.05683">
        <ele>379</ele>
        <time>2017-09-19T08:40:00Z</time>
      </trkpt>
      <trkpt lat="44.48136" lon="2.0566">
        <ele>377</ele>
        <time>2017-09-19T08:40:15Z</time>
      </trkpt>
      <trkpt lat="44.48138" lon="2.05648">
        <ele>377</ele>
        <time>2017-09-19T08:40:22Z</time>
      </trkpt>
      <trkpt lat="44.48139" lon="2.05627">
        <ele>376</ele>
        <time>2017-09-19T08:40:34Z</time>
      </trkpt>
      <trkpt lat="44.48141" lon="2.05622">
        <ele>376</ele>
        <time>2017-09-19T08:40:38Z</time>
      </trkpt>
      <trkpt lat="44.48141" lon="2.05617">
        <ele>376</ele>
        <time>2017-09-19T08:40:41Z</time>
      </trkpt>
      <trkpt lat="44.48148" lon="2.05581">
        <ele>375</ele>
        <time>2017-09-19T08:41:04Z</time>
      </trkpt>
      <trkpt lat="44.48149" lon="2.05569">
        <ele>375</ele>
        <time>2017-09-19T08:41:11Z</time>
      </trkpt>
      <trkpt lat="44.48153" lon="2.05535">
        <ele>374</ele>
        <time>2017-09-19T08:41:32Z</time>
      </trkpt>
      <trkpt lat="44.48154" lon="2.05527">
        <ele>374</ele>
        <time>2017-09-19T08:42:11Z</time>
      </trkpt>
      <trkpt lat="44.48158" lon="2.05505">
        <ele>374</ele>
        <time>2017-09-19T08:42:40Z</time>
      </trkpt>
      <trkpt lat="44.48159" lon="2.05499">
        <ele>374</ele>
        <time>2017-09-19T08:42:45Z</time>
      </trkpt>
      <trkpt lat="44.48162" lon="2.05487">
        <ele>373</ele>
        <time>2017-09-19T08:42:52Z</time>
      </trkpt>
      <trkpt lat="44.48162" lon="2.05468">
        <ele>373</ele>
        <time>2017-09-19T08:43:03Z</time>
      </trkpt>
      <trkpt lat="44.48164" lon="2.05463">
        <ele>373</ele>
        <time>2017-09-19T08:43:08Z</time>
      </trkpt>
      <trkpt lat="44.48166" lon="2.05458">
        <ele>373</ele>
        <time>2017-09-19T08:43:11Z</time>
      </trkpt>
      <trkpt lat="44.4817" lon="2.0541">
        <ele>372</ele>
        <time>2017-09-19T08:43:39Z</time>
      </trkpt>
      <trkpt lat="44.48171" lon="2.05403">
        <ele>371</ele>
        <time>2017-09-19T08:43:43Z</time>
      </trkpt>
      <trkpt lat="44.48173" lon="2.05397">
        <ele>371</ele>
        <time>2017-09-19T08:43:48Z</time>
      </trkpt>
      <trkpt lat="44.48176" lon="2.05385">
        <ele>371</ele>
        <time>2017-09-19T08:43:55Z</time>
      </trkpt>
      <trkpt lat="44.48176" lon="2.0538">
        <ele>371</ele>
        <time>2017-09-19T08:43:58Z</time>
      </trkpt>
      <trkpt lat="44.4818" lon="2.05358">
        <ele>371</ele>
        <time>2017-09-19T08:44:11Z</time>
      </trkpt>
      <trkpt lat="44.48184" lon="2.05329">
        <ele>370</ele>
        <time>2017-09-19T08:44:28Z</time>
      </trkpt>
      <trkpt lat="44.48185" lon="2.05324">
        <ele>370</ele>
        <time>2017-09-19T08:44:31Z</time>
      </trkpt>
      <trkpt lat="44.48189" lon="2.0529">
        <ele>371</ele>
        <time>2017-09-19T08:44:52Z</time>
      </trkpt>
      <trkpt lat="44.4819" lon="2.05284">
        <ele>371</ele>
        <time>2017-09-19T08:44:55Z</time>
      </trkpt>
      <trkpt lat="44.48192" lon="2.05276">
        <ele>371</ele>
        <time>2017-09-19T08:45:00Z</time>
      </trkpt>
      <trkpt lat="44.48194" lon="2.0527">
        <ele>371</ele>
        <time>2017-09-19T08:45:03Z</time>
      </trkpt>
      <trkpt lat="44.48196" lon="2.05263">
        <ele>371</ele>
        <time>2017-09-19T08:45:07Z</time>
      </trkpt>
      <trkpt lat="44.48196" lon="2.05255">
        <ele>371</ele>
        <time>2017-09-19T08:45:11Z</time>
      </trkpt>
      <trkpt lat="44.48197" lon="2.05235">
        <ele>372</ele>
        <time>2017-09-19T08:45:26Z</time>
      </trkpt>
      <trkpt lat="44.48199" lon="2.05229">
        <ele>372</ele>
        <time>2017-09-19T08:45:30Z</time>
      </trkpt>
      <trkpt lat="44.482" lon="2.05223">
        <ele>372</ele>
        <time>2017-09-19T08:45:33Z</time>
      </trkpt>
      <trkpt lat="44.48202" lon="2.05217">
        <ele>372</ele>
        <time>2017-09-19T08:45:36Z</time>
      </trkpt>
      <trkpt lat="44.48205" lon="2.05206">
        <ele>372</ele>
        <time>2017-09-19T08:45:42Z</time>
      </trkpt>
      <trkpt lat="44.48205" lon="2.05199">
        <ele>372</ele>
        <time>2017-09-19T08:45:45Z</time>
      </trkpt>
      <trkpt lat="44.48207" lon="2.05192">
        <ele>372</ele>
        <time>2017-09-19T08:45:49Z</time>
      </trkpt>
      <trkpt lat="44.48208" lon="2.05184">
        <ele>372</ele>
        <time>2017-09-19T08:45:53Z</time>
      </trkpt>
      <trkpt lat="44.4821" lon="2.05178">
        <ele>372</ele>
        <time>2017-09-19T08:45:57Z</time>
      </trkpt>
      <trkpt lat="44.48212" lon="2.05162">
        <ele>373</ele>
        <time>2017-09-19T08:46:07Z</time>
      </trkpt>
      <trkpt lat="44.48214" lon="2.05155">
        <ele>373</ele>
        <time>2017-09-19T08:46:12Z</time>
      </trkpt>
      <trkpt lat="44.48215" lon="2.05148">
        <ele>373</ele>
        <time>2017-09-19T08:46:16Z</time>
      </trkpt>
      <trkpt lat="44.48216" lon="2.0514">
        <ele>373</ele>
        <time>2017-09-19T08:46:20Z</time>
      </trkpt>
      <trkpt lat="44.48218" lon="2.05132">
        <ele>373</ele>
        <time>2017-09-19T08:46:24Z</time>
      </trkpt>
      <trkpt lat="44.48223" lon="2.05073">
        <ele>373</ele>
        <time>2017-09-19T08:46:54Z</time>
      </trkpt>
      <trkpt lat="44.48224" lon="2.05068">
        <ele>373</ele>
        <time>2017-09-19T08:46:58Z</time>
      </trkpt>
      <trkpt lat="44.48228" lon="2.05057">
        <ele>373</ele>
        <time>2017-09-19T08:47:07Z</time>
      </trkpt>
      <trkpt lat="44.48229" lon="2.05044">
        <ele>373</ele>
        <time>2017-09-19T08:47:15Z</time>
      </trkpt>
      <trkpt lat="44.48235" lon="2.05013">
        <ele>372</ele>
        <time>2017-09-19T08:47:33Z</time>
      </trkpt>
      <trkpt lat="44.48238" lon="2.04994">
        <ele>372</ele>
        <time>2017-09-19T08:47:43Z</time>
      </trkpt>
      <trkpt lat="44.48238" lon="2.04989">
        <ele>372</ele>
        <time>2017-09-19T08:47:47Z</time>
      </trkpt>
      <trkpt lat="44.48244" lon="2.04945">
        <ele>372</ele>
        <time>2017-09-19T08:48:12Z</time>
      </trkpt>
      <trkpt lat="44.48248" lon="2.04929">
        <ele>372</ele>
        <time>2017-09-19T08:48:21Z</time>
      </trkpt>
      <trkpt lat="44.48252" lon="2.04891">
        <ele>371</ele>
        <time>2017-09-19T08:48:43Z</time>
      </trkpt>
      <trkpt lat="44.48252" lon="2.04885">
        <ele>371</ele>
        <time>2017-09-19T08:48:46Z</time>
      </trkpt>
      <trkpt lat="44.4826" lon="2.04827">
        <ele>371</ele>
        <time>2017-09-19T08:49:17Z</time>
      </trkpt>
      <trkpt lat="44.48267" lon="2.04782">
        <ele>372</ele>
        <time>2017-09-19T08:49:45Z</time>
      </trkpt>
      <trkpt lat="44.48267" lon="2.04777">
        <ele>372</ele>
        <time>2017-09-19T08:49:47Z</time>
      </trkpt>
      <trkpt lat="44.48267" lon="2.04772">
        <ele>372</ele>
        <time>2017-09-19T08:49:50Z</time>
      </trkpt>
      <trkpt lat="44.48268" lon="2.04766">
        <ele>372</ele>
        <time>2017-09-19T08:49:53Z</time>
      </trkpt>
      <trkpt lat="44.48275" lon="2.04712">
        <ele>373</ele>
        <time>2017-09-19T08:50:23Z</time>
      </trkpt>
      <trkpt lat="44.48276" lon="2.04702">
        <ele>373</ele>
        <time>2017-09-19T08:50:29Z</time>
      </trkpt>
      <trkpt lat="44.48279" lon="2.04686">
        <ele>374</ele>
        <time>2017-09-19T08:50:38Z</time>
      </trkpt>
      <trkpt lat="44.48291" lon="2.04628">
        <ele>375</ele>
        <time>2017-09-19T08:51:10Z</time>
      </trkpt>
      <trkpt lat="44.48295" lon="2.04592">
        <ele>375</ele>
        <time>2017-09-19T08:51:30Z</time>
      </trkpt>
      <trkpt lat="44.48296" lon="2.04588">
        <ele>375</ele>
        <time>2017-09-19T08:51:33Z</time>
      </trkpt>
      <trkpt lat="44.48298" lon="2.04585">
        <ele>375</ele>
        <time>2017-09-19T08:51:41Z</time>
      </trkpt>
      <trkpt lat="44.48299" lon="2.04575">
        <ele>375</ele>
        <time>2017-09-19T08:51:47Z</time>
      </trkpt>
      <trkpt lat="44.48309" lon="2.04528">
        <ele>374</ele>
        <time>2017-09-19T08:52:15Z</time>
      </trkpt>
      <trkpt lat="44.48317" lon="2.04488">
        <ele>373</ele>
        <time>2017-09-19T08:52:39Z</time>
      </trkpt>
      <trkpt lat="44.48317" lon="2.04476">
        <ele>373</ele>
        <time>2017-09-19T08:52:46Z</time>
      </trkpt>
      <trkpt lat="44.48318" lon="2.0447">
        <ele>373</ele>
        <time>2017-09-19T08:52:49Z</time>
      </trkpt>
      <trkpt lat="44.48326" lon="2.04413">
        <ele>373</ele>
        <time>2017-09-19T08:53:21Z</time>
      </trkpt>
      <trkpt lat="44.4833" lon="2.0439">
        <ele>372</ele>
        <time>2017-09-19T08:53:34Z</time>
      </trkpt>
      <trkpt lat="44.48339" lon="2.04343">
        <ele>371</ele>
        <time>2017-09-19T08:54:02Z</time>
      </trkpt>
      <trkpt lat="44.48349" lon="2.04286">
        <ele>371</ele>
        <time>2017-09-19T08:54:33Z</time>
      </trkpt>
      <trkpt lat="44.48352" lon="2.04238">
        <ele>372</ele>
        <time>2017-09-19T08:55:00Z</time>
      </trkpt>
      <trkpt lat="44.48355" lon="2.04224">
        <ele>372</ele>
        <time>2017-09-19T08:55:09Z</time>
      </trkpt>
      <trkpt lat="44.48358" lon="2.04203">
        <ele>372</ele>
        <time>2017-09-19T08:55:21Z</time>
      </trkpt>
      <trkpt lat="44.48359" lon="2.04199">
        <ele>372</ele>
        <time>2017-09-19T08:55:24Z</time>
      </trkpt>
      <trkpt lat="44.48363" lon="2.04142">
        <ele>374</ele>
        <time>2017-09-19T08:55:56Z</time>
      </trkpt>
      <trkpt lat="44.48363" lon="2.04136">
        <ele>374</ele>
        <time>2017-09-19T08:55:59Z</time>
      </trkpt>
      <trkpt lat="44.4837" lon="2.04093">
        <ele>375</ele>
        <time>2017-09-19T08:56:25Z</time>
      </trkpt>
      <trkpt lat="44.48371" lon="2.04082">
        <ele>376</ele>
        <time>2017-09-19T08:56:31Z</time>
      </trkpt>
      <trkpt lat="44.48379" lon="2.04048">
        <ele>376</ele>
        <time>2017-09-19T08:56:51Z</time>
      </trkpt>
      <trkpt lat="44.4838" lon="2.04043">
        <ele>376</ele>
        <time>2017-09-19T08:56:54Z</time>
      </trkpt>
      <trkpt lat="44.48382" lon="2.04024">
        <ele>375</ele>
        <time>2017-09-19T08:57:04Z</time>
      </trkpt>
      <trkpt lat="44.48383" lon="2.04019">
        <ele>375</ele>
        <time>2017-09-19T08:57:07Z</time>
      </trkpt>
      <trkpt lat="44.48383" lon="2.04014">
        <ele>375</ele>
        <time>2017-09-19T08:57:10Z</time>
      </trkpt>
      <trkpt lat="44.48386" lon="2.04002">
        <ele>375</ele>
        <time>2017-09-19T08:57:17Z</time>
      </trkpt>
      <trkpt lat="44.48388" lon="2.03983">
        <ele>374</ele>
        <time>2017-09-19T08:57:28Z</time>
      </trkpt>
      <trkpt lat="44.48389" lon="2.03977">
        <ele>374</ele>
        <time>2017-09-19T08:57:31Z</time>
      </trkpt>
      <trkpt lat="44.48396" lon="2.03952">
        <ele>373</ele>
        <time>2017-09-19T08:57:48Z</time>
      </trkpt>
      <trkpt lat="44.48396" lon="2.03945">
        <ele>373</ele>
        <time>2017-09-19T08:57:52Z</time>
      </trkpt>
      <trkpt lat="44.48397" lon="2.03939">
        <ele>373</ele>
        <time>2017-09-19T08:57:55Z</time>
      </trkpt>
      <trkpt lat="44.48398" lon="2.03926">
        <ele>373</ele>
        <time>2017-09-19T08:58:02Z</time>
      </trkpt>
      <trkpt lat="44.48398" lon="2.03921">
        <ele>373</ele>
        <time>2017-09-19T08:58:09Z</time>
      </trkpt>
      <trkpt lat="44.48396" lon="2.03915">
        <ele>371</ele>
        <time>2017-09-19T08:58:14Z</time>
      </trkpt>
      <trkpt lat="44.48397" lon="2.0391">
        <ele>371</ele>
        <time>2017-09-19T08:58:19Z</time>
      </trkpt>
      <trkpt lat="44.48396" lon="2.03904">
        <ele>371</ele>
        <time>2017-09-19T08:58:23Z</time>
      </trkpt>
      <trkpt lat="44.484" lon="2.03883">
        <ele>371</ele>
        <time>2017-09-19T08:58:35Z</time>
      </trkpt>
      <trkpt lat="44.48401" lon="2.03877">
        <ele>370</ele>
        <time>2017-09-19T08:58:38Z</time>
      </trkpt>
      <trkpt lat="44.48404" lon="2.03853">
        <ele>370</ele>
        <time>2017-09-19T08:58:54Z</time>
      </trkpt>
      <trkpt lat="44.48411" lon="2.03799">
        <ele>368</ele>
        <time>2017-09-19T08:59:26Z</time>
      </trkpt>
      <trkpt lat="44.48413" lon="2.03772">
        <ele>367</ele>
        <time>2017-09-19T08:59:43Z</time>
      </trkpt>
      <trkpt lat="44.48414" lon="2.03766">
        <ele>367</ele>
        <time>2017-09-19T08:59:47Z</time>
      </trkpt>
      <trkpt lat="44.48415" lon="2.0376">
        <ele>367</ele>
        <time>2017-09-19T08:59:51Z</time>
      </trkpt>
      <trkpt lat="44.48416" lon="2.03752">
        <ele>366</ele>
        <time>2017-09-19T08:59:55Z</time>
      </trkpt>
      <trkpt lat="44.48419" lon="2.03747">
        <ele>366</ele>
        <time>2017-09-19T08:59:59Z</time>
      </trkpt>
      <trkpt lat="44.4842" lon="2.03742">
        <ele>365</ele>
        <time>2017-09-19T09:00:04Z</time>
      </trkpt>
      <trkpt lat="44.4842" lon="2.03736">
        <ele>365</ele>
        <time>2017-09-19T09:00:08Z</time>
      </trkpt>
      <trkpt lat="44.48419" lon="2.03732">
        <ele>364</ele>
        <time>2017-09-19T09:00:11Z</time>
      </trkpt>
      <trkpt lat="44.4842" lon="2.03728">
        <ele>364</ele>
        <time>2017-09-19T09:00:14Z</time>
      </trkpt>
      <trkpt lat="44.48421" lon="2.03722">
        <ele>364</ele>
        <time>2017-09-19T09:00:18Z</time>
      </trkpt>
      <trkpt lat="44.48423" lon="2.03717">
        <ele>364</ele>
        <time>2017-09-19T09:00:22Z</time>
      </trkpt>
      <trkpt lat="44.48423" lon="2.03712">
        <ele>363</ele>
        <time>2017-09-19T09:00:25Z</time>
      </trkpt>
      <trkpt lat="44.48422" lon="2.03708">
        <ele>363</ele>
        <time>2017-09-19T09:00:28Z</time>
      </trkpt>
      <trkpt lat="44.48424" lon="2.03684">
        <ele>363</ele>
        <time>2017-09-19T09:00:43Z</time>
      </trkpt>
      <trkpt lat="44.48426" lon="2.03674">
        <ele>362</ele>
        <time>2017-09-19T09:00:49Z</time>
      </trkpt>
      <trkpt lat="44.48429" lon="2.0365">
        <ele>361</ele>
        <time>2017-09-19T09:01:05Z</time>
      </trkpt>
      <trkpt lat="44.4843" lon="2.03628">
        <ele>360</ele>
        <time>2017-09-19T09:01:17Z</time>
      </trkpt>
      <trkpt lat="44.48431" lon="2.03623">
        <ele>360</ele>
        <time>2017-09-19T09:01:20Z</time>
      </trkpt>
      <trkpt lat="44.48436" lon="2.0358">
        <ele>358</ele>
        <time>2017-09-19T09:01:44Z</time>
      </trkpt>
      <trkpt lat="44.48437" lon="2.03576">
        <ele>358</ele>
        <time>2017-09-19T09:01:47Z</time>
      </trkpt>
      <trkpt lat="44.48437" lon="2.03571">
        <ele>358</ele>
        <time>2017-09-19T09:01:51Z</time>
      </trkpt>
      <trkpt lat="44.48438" lon="2.03556">
        <ele>358</ele>
        <time>2017-09-19T09:02:00Z</time>
      </trkpt>
      <trkpt lat="44.48441" lon="2.03536">
        <ele>358</ele>
        <time>2017-09-19T09:02:11Z</time>
      </trkpt>
      <trkpt lat="44.48445" lon="2.03509">
        <ele>357</ele>
        <time>2017-09-19T09:02:28Z</time>
      </trkpt>
      <trkpt lat="44.48445" lon="2.03503">
        <ele>357</ele>
        <time>2017-09-19T09:02:31Z</time>
      </trkpt>
      <trkpt lat="44.48446" lon="2.03492">
        <ele>356</ele>
        <time>2017-09-19T09:02:38Z</time>
      </trkpt>
      <trkpt lat="44.48446" lon="2.03488">
        <ele>356</ele>
        <time>2017-09-19T09:02:41Z</time>
      </trkpt>
      <trkpt lat="44.48447" lon="2.03466">
        <ele>356</ele>
        <time>2017-09-19T09:02:53Z</time>
      </trkpt>
      <trkpt lat="44.48447" lon="2.03431">
        <ele>355</ele>
        <time>2017-09-19T09:03:12Z</time>
      </trkpt>
      <trkpt lat="44.4845" lon="2.03399">
        <ele>353</ele>
        <time>2017-09-19T09:03:31Z</time>
      </trkpt>
      <trkpt lat="44.48451" lon="2.03393">
        <ele>353</ele>
        <time>2017-09-19T09:03:35Z</time>
      </trkpt>
      <trkpt lat="44.48453" lon="2.03375">
        <ele>352</ele>
        <time>2017-09-19T09:03:47Z</time>
      </trkpt>
      <trkpt lat="44.48455" lon="2.03368">
        <ele>352</ele>
        <time>2017-09-19T09:03:51Z</time>
      </trkpt>
      <trkpt lat="44.48457" lon="2.03364">
        <ele>352</ele>
        <time>2017-09-19T09:03:55Z</time>
      </trkpt>
      <trkpt lat="44.48462" lon="2.03353">
        <ele>352</ele>
        <time>2017-09-19T09:04:02Z</time>
      </trkpt>
      <trkpt lat="44.48463" lon="2.03348">
        <ele>352</ele>
        <time>2017-09-19T09:04:05Z</time>
      </trkpt>
      <trkpt lat="44.48478" lon="2.03311">
        <ele>350</ele>
        <time>2017-09-19T09:04:30Z</time>
      </trkpt>
      <trkpt lat="44.48481" lon="2.03305">
        <ele>350</ele>
        <time>2017-09-19T09:04:33Z</time>
      </trkpt>
      <trkpt lat="44.48487" lon="2.03291">
        <ele>350</ele>
        <time>2017-09-19T09:04:42Z</time>
      </trkpt>
      <trkpt lat="44.48499" lon="2.03243">
        <ele>349</ele>
        <time>2017-09-19T09:05:12Z</time>
      </trkpt>
      <trkpt lat="44.48508" lon="2.03197">
        <ele>347</ele>
        <time>2017-09-19T09:05:40Z</time>
      </trkpt>
      <trkpt lat="44.48513" lon="2.03191">
        <ele>347</ele>
        <time>2017-09-19T09:05:46Z</time>
      </trkpt>
      <trkpt lat="44.48514" lon="2.03189">
        <ele>347</ele>
        <time>2017-09-19T09:05:49Z</time>
      </trkpt>
      <trkpt lat="44.4852" lon="2.03163">
        <ele>346</ele>
        <time>2017-09-19T09:06:14Z</time>
      </trkpt>
      <trkpt lat="44.48532" lon="2.03134">
        <ele>345</ele>
        <time>2017-09-19T09:06:34Z</time>
      </trkpt>
      <trkpt lat="44.48533" lon="2.03132">
        <ele>345</ele>
        <time>2017-09-19T09:06:36Z</time>
      </trkpt>
      <trkpt lat="44.48535" lon="2.0313">
        <ele>345</ele>
        <time>2017-09-19T09:06:40Z</time>
      </trkpt>
      <trkpt lat="44.48543" lon="2.03117">
        <ele>344</ele>
        <time>2017-09-19T09:06:49Z</time>
      </trkpt>
      <trkpt lat="44.48544" lon="2.03115">
        <ele>344</ele>
        <time>2017-09-19T09:06:51Z</time>
      </trkpt>
      <trkpt lat="44.48545" lon="2.03112">
        <ele>344</ele>
        <time>2017-09-19T09:06:53Z</time>
      </trkpt>
      <trkpt lat="44.48547" lon="2.0311">
        <ele>344</ele>
        <time>2017-09-19T09:06:57Z</time>
      </trkpt>
      <trkpt lat="44.48548" lon="2.03108">
        <ele>344</ele>
        <time>2017-09-19T09:07:01Z</time>
      </trkpt>
      <trkpt lat="44.48549" lon="2.0311">
        <ele>344</ele>
        <time>2017-09-19T09:07:07Z</time>
      </trkpt>
      <trkpt lat="44.48549" lon="2.03109">
        <ele>344</ele>
        <time>2017-09-19T09:07:51Z</time>
      </trkpt>
      <trkpt lat="44.48553" lon="2.03105">
        <ele>344</ele>
        <time>2017-09-19T09:08:00Z</time>
      </trkpt>
      <trkpt lat="44.48562" lon="2.031">
        <ele>344</ele>
        <time>2017-09-19T09:08:09Z</time>
      </trkpt>
      <trkpt lat="44.48569" lon="2.03097">
        <ele>344</ele>
        <time>2017-09-19T09:08:16Z</time>
      </trkpt>
      <trkpt lat="44.48573" lon="2.03095">
        <ele>344</ele>
        <time>2017-09-19T09:08:20Z</time>
      </trkpt>
      <trkpt lat="44.48576" lon="2.03093">
        <ele>344</ele>
        <time>2017-09-19T09:08:23Z</time>
      </trkpt>
      <trkpt lat="44.48578" lon="2.0309">
        <ele>344</ele>
        <time>2017-09-19T09:08:25Z</time>
      </trkpt>
      <trkpt lat="44.48591" lon="2.03078">
        <ele>343</ele>
        <time>2017-09-19T09:08:41Z</time>
      </trkpt>
      <trkpt lat="44.48595" lon="2.03074">
        <ele>343</ele>
        <time>2017-09-19T09:08:46Z</time>
      </trkpt>
      <trkpt lat="44.48597" lon="2.03073">
        <ele>343</ele>
        <time>2017-09-19T09:08:48Z</time>
      </trkpt>
      <trkpt lat="44.48606" lon="2.03076">
        <ele>342</ele>
        <time>2017-09-19T09:08:55Z</time>
      </trkpt>
      <trkpt lat="44.48625" lon="2.03078">
        <ele>342</ele>
        <time>2017-09-19T09:09:15Z</time>
      </trkpt>
      <trkpt lat="44.48632" lon="2.03079">
        <ele>342</ele>
        <time>2017-09-19T09:09:20Z</time>
      </trkpt>
      <trkpt lat="44.48635" lon="2.03081">
        <ele>342</ele>
        <time>2017-09-19T09:09:23Z</time>
      </trkpt>
      <trkpt lat="44.48647" lon="2.03086">
        <ele>342</ele>
        <time>2017-09-19T09:09:33Z</time>
      </trkpt>
      <trkpt lat="44.48659" lon="2.03096">
        <ele>342</ele>
        <time>2017-09-19T09:09:45Z</time>
      </trkpt>
      <trkpt lat="44.48661" lon="2.03099">
        <ele>342</ele>
        <time>2017-09-19T09:09:49Z</time>
      </trkpt>
      <trkpt lat="44.4867" lon="2.03103">
        <ele>341</ele>
        <time>2017-09-19T09:09:59Z</time>
      </trkpt>
      <trkpt lat="44.48677" lon="2.03109">
        <ele>341</ele>
        <time>2017-09-19T09:10:06Z</time>
      </trkpt>
      <trkpt lat="44.48693" lon="2.03115">
        <ele>341</ele>
        <time>2017-09-19T09:10:17Z</time>
      </trkpt>
      <trkpt lat="44.48696" lon="2.03116">
        <ele>341</ele>
        <time>2017-09-19T09:10:20Z</time>
      </trkpt>
      <trkpt lat="44.48699" lon="2.03118">
        <ele>341</ele>
        <time>2017-09-19T09:10:24Z</time>
      </trkpt>
      <trkpt lat="44.48706" lon="2.03121">
        <ele>341</ele>
        <time>2017-09-19T09:10:30Z</time>
      </trkpt>
      <trkpt lat="44.48709" lon="2.03121">
        <ele>341</ele>
        <time>2017-09-19T09:10:32Z</time>
      </trkpt>
      <trkpt lat="44.48714" lon="2.03122">
        <ele>341</ele>
        <time>2017-09-19T09:10:37Z</time>
      </trkpt>
      <trkpt lat="44.48718" lon="2.03124">
        <ele>341</ele>
        <time>2017-09-19T09:10:42Z</time>
      </trkpt>
      <trkpt lat="44.48723" lon="2.03124">
        <ele>341</ele>
        <time>2017-09-19T09:10:47Z</time>
      </trkpt>
      <trkpt lat="44.48733" lon="2.03126">
        <ele>341</ele>
        <time>2017-09-19T09:10:57Z</time>
      </trkpt>
      <trkpt lat="44.48736" lon="2.03127">
        <ele>341</ele>
        <time>2017-09-19T09:11:00Z</time>
      </trkpt>
      <trkpt lat="44.48745" lon="2.03131">
        <ele>341</ele>
        <time>2017-09-19T09:11:17Z</time>
      </trkpt>
      <trkpt lat="44.48778" lon="2.03147">
        <ele>341</ele>
        <time>2017-09-19T09:11:47Z</time>
      </trkpt>
      <trkpt lat="44.4881" lon="2.03177">
        <ele>343</ele>
        <time>2017-09-19T09:12:18Z</time>
      </trkpt>
      <trkpt lat="44.48828" lon="2.03209">
        <ele>344</ele>
        <time>2017-09-19T09:12:43Z</time>
      </trkpt>
      <trkpt lat="44.48832" lon="2.03214">
        <ele>344</ele>
        <time>2017-09-19T09:12:48Z</time>
      </trkpt>
      <trkpt lat="44.48835" lon="2.03214">
        <ele>344</ele>
        <time>2017-09-19T09:12:53Z</time>
      </trkpt>
      <trkpt lat="44.48838" lon="2.03214">
        <ele>344</ele>
        <time>2017-09-19T09:12:57Z</time>
      </trkpt>
      <trkpt lat="44.48851" lon="2.03213">
        <ele>344</ele>
        <time>2017-09-19T09:13:09Z</time>
      </trkpt>
      <trkpt lat="44.48854" lon="2.03213">
        <ele>344</ele>
        <time>2017-09-19T09:13:11Z</time>
      </trkpt>
      <trkpt lat="44.48861" lon="2.03212">
        <ele>344</ele>
        <time>2017-09-19T09:13:16Z</time>
      </trkpt>
      <trkpt lat="44.48868" lon="2.03205">
        <ele>343</ele>
        <time>2017-09-19T09:13:23Z</time>
      </trkpt>
      <trkpt lat="44.48876" lon="2.0319">
        <ele>343</ele>
        <time>2017-09-19T09:13:36Z</time>
      </trkpt>
      <trkpt lat="44.4888" lon="2.03187">
        <ele>343</ele>
        <time>2017-09-19T09:13:39Z</time>
      </trkpt>
      <trkpt lat="44.48883" lon="2.03185">
        <ele>343</ele>
        <time>2017-09-19T09:13:42Z</time>
      </trkpt>
      <trkpt lat="44.48887" lon="2.03175">
        <ele>342</ele>
        <time>2017-09-19T09:13:49Z</time>
      </trkpt>
      <trkpt lat="44.48888" lon="2.03171">
        <ele>342</ele>
        <time>2017-09-19T09:13:52Z</time>
      </trkpt>
      <trkpt lat="44.48894" lon="2.03163">
        <ele>340</ele>
        <time>2017-09-19T09:13:59Z</time>
      </trkpt>
      <trkpt lat="44.48897" lon="2.0316">
        <ele>340</ele>
        <time>2017-09-19T09:14:02Z</time>
      </trkpt>
      <trkpt lat="44.48899" lon="2.03155">
        <ele>340</ele>
        <time>2017-09-19T09:14:07Z</time>
      </trkpt>
      <trkpt lat="44.48903" lon="2.0315">
        <ele>340</ele>
        <time>2017-09-19T09:14:10Z</time>
      </trkpt>
      <trkpt lat="44.48911" lon="2.03134">
        <ele>340</ele>
        <time>2017-09-19T09:14:24Z</time>
      </trkpt>
      <trkpt lat="44.48913" lon="2.03131">
        <ele>340</ele>
        <time>2017-09-19T09:14:30Z</time>
      </trkpt>
      <trkpt lat="44.48918" lon="2.03121">
        <ele>338</ele>
        <time>2017-09-19T09:14:35Z</time>
      </trkpt>
      <trkpt lat="44.48921" lon="2.03116">
        <ele>338</ele>
        <time>2017-09-19T09:14:39Z</time>
      </trkpt>
      <trkpt lat="44.48925" lon="2.03112">
        <ele>338</ele>
        <time>2017-09-19T09:14:43Z</time>
      </trkpt>
      <trkpt lat="44.48932" lon="2.03102">
        <ele>338</ele>
        <time>2017-09-19T09:14:53Z</time>
      </trkpt>
      <trkpt lat="44.48935" lon="2.03098">
        <ele>338</ele>
        <time>2017-09-19T09:14:57Z</time>
      </trkpt>
      <trkpt lat="44.48939" lon="2.03092">
        <ele>338</ele>
        <time>2017-09-19T09:15:04Z</time>
      </trkpt>
      <trkpt lat="44.48944" lon="2.03087">
        <ele>338</ele>
        <time>2017-09-19T09:15:13Z</time>
      </trkpt>
      <trkpt lat="44.48949" lon="2.03083">
        <ele>337</ele>
        <time>2017-09-19T09:15:18Z</time>
      </trkpt>
      <trkpt lat="44.48955" lon="2.03072">
        <ele>337</ele>
        <time>2017-09-19T09:15:27Z</time>
      </trkpt>
      <trkpt lat="44.48959" lon="2.03059">
        <ele>336</ele>
        <time>2017-09-19T09:15:38Z</time>
      </trkpt>
      <trkpt lat="44.48963" lon="2.03053">
        <ele>336</ele>
        <time>2017-09-19T09:15:43Z</time>
      </trkpt>
      <trkpt lat="44.48967" lon="2.03047">
        <ele>336</ele>
        <time>2017-09-19T09:15:48Z</time>
      </trkpt>
      <trkpt lat="44.4897" lon="2.0304">
        <ele>336</ele>
        <time>2017-09-19T09:15:53Z</time>
      </trkpt>
      <trkpt lat="44.48973" lon="2.03034">
        <ele>336</ele>
        <time>2017-09-19T09:15:57Z</time>
      </trkpt>
      <trkpt lat="44.48976" lon="2.0303">
        <ele>336</ele>
        <time>2017-09-19T09:16:01Z</time>
      </trkpt>
      <trkpt lat="44.48979" lon="2.03023">
        <ele>336</ele>
        <time>2017-09-19T09:16:17Z</time>
      </trkpt>
      <trkpt lat="44.48989" lon="2.03">
        <ele>336</ele>
        <time>2017-09-19T09:16:33Z</time>
      </trkpt>
      <trkpt lat="44.48991" lon="2.02996">
        <ele>336</ele>
        <time>2017-09-19T09:16:37Z</time>
      </trkpt>
      <trkpt lat="44.48994" lon="2.02989">
        <ele>336</ele>
        <time>2017-09-19T09:16:42Z</time>
      </trkpt>
      <trkpt lat="44.49005" lon="2.02964">
        <ele>338</ele>
        <time>2017-09-19T09:16:58Z</time>
      </trkpt>
      <trkpt lat="44.49007" lon="2.02959">
        <ele>338</ele>
        <time>2017-09-19T09:17:02Z</time>
      </trkpt>
      <trkpt lat="44.49011" lon="2.02953">
        <ele>338</ele>
        <time>2017-09-19T09:17:07Z</time>
      </trkpt>
      <trkpt lat="44.49019" lon="2.02926">
        <ele>338</ele>
        <time>2017-09-19T09:17:24Z</time>
      </trkpt>
      <trkpt lat="44.49021" lon="2.02919">
        <ele>338</ele>
        <time>2017-09-19T09:17:29Z</time>
      </trkpt>
      <trkpt lat="44.49027" lon="2.02909">
        <ele>339</ele>
        <time>2017-09-19T09:17:37Z</time>
      </trkpt>
      <trkpt lat="44.49028" lon="2.02901">
        <ele>339</ele>
        <time>2017-09-19T09:17:42Z</time>
      </trkpt>
      <trkpt lat="44.49031" lon="2.02888">
        <ele>339</ele>
        <time>2017-09-19T09:17:50Z</time>
      </trkpt>
      <trkpt lat="44.49033" lon="2.02882">
        <ele>339</ele>
        <time>2017-09-19T09:17:53Z</time>
      </trkpt>
      <trkpt lat="44.49036" lon="2.02878">
        <ele>339</ele>
        <time>2017-09-19T09:17:57Z</time>
      </trkpt>
      <trkpt lat="44.49038" lon="2.02872">
        <ele>339</ele>
        <time>2017-09-19T09:18:03Z</time>
      </trkpt>
      <trkpt lat="44.49042" lon="2.02867">
        <ele>339</ele>
        <time>2017-09-19T09:18:06Z</time>
      </trkpt>
      <trkpt lat="44.49047" lon="2.02863">
        <ele>339</ele>
        <time>2017-09-19T09:18:11Z</time>
      </trkpt>
      <trkpt lat="44.4905" lon="2.02861">
        <ele>339</ele>
        <time>2017-09-19T09:18:14Z</time>
      </trkpt>
      <trkpt lat="44.49054" lon="2.02856">
        <ele>339</ele>
        <time>2017-09-19T09:18:20Z</time>
      </trkpt>
      <trkpt lat="44.49058" lon="2.02856">
        <ele>339</ele>
        <time>2017-09-19T09:18:24Z</time>
      </trkpt>
      <trkpt lat="44.4905" lon="2.02836">
        <ele>339</ele>
        <time>2017-09-19T09:18:47Z</time>
      </trkpt>
      <trkpt lat="44.49057" lon="2.0283">
        <ele>339</ele>
        <time>2017-09-19T09:18:52Z</time>
      </trkpt>
      <trkpt lat="44.49058" lon="2.02822">
        <ele>339</ele>
        <time>2017-09-19T09:18:57Z</time>
      </trkpt>
      <trkpt lat="44.49064" lon="2.02807">
        <ele>339</ele>
        <time>2017-09-19T09:19:21Z</time>
      </trkpt>
      <trkpt lat="44.49066" lon="2.02804">
        <ele>339</ele>
        <time>2017-09-19T09:19:23Z</time>
      </trkpt>
      <trkpt lat="44.49067" lon="2.028">
        <ele>339</ele>
        <time>2017-09-19T09:19:26Z</time>
      </trkpt>
      <trkpt lat="44.49065" lon="2.02798">
        <ele>339</ele>
        <time>2017-09-19T09:19:29Z</time>
      </trkpt>
      <trkpt lat="44.49063" lon="2.02799">
        <ele>339</ele>
        <time>2017-09-19T09:19:32Z</time>
      </trkpt>
      <trkpt lat="44.4906" lon="2.028">
        <ele>339</ele>
        <time>2017-09-19T09:19:35Z</time>
      </trkpt>
      <trkpt lat="44.49074" lon="2.02805">
        <ele>339</ele>
        <time>2017-09-19T09:21:33Z</time>
      </trkpt>
      <trkpt lat="44.49071" lon="2.02805">
        <ele>339</ele>
        <time>2017-09-19T09:20:27Z</time>
      </trkpt>
      <trkpt lat="44.49071" lon="2.02804">
        <ele>339</ele>
        <time>2017-09-19T09:21:06Z</time>
      </trkpt>
      <trkpt lat="44.49074" lon="2.02806">
        <ele>339</ele>
        <time>2017-09-19T09:21:33Z</time>
      </trkpt>
      <trkpt lat="44.49077" lon="2.02804">
        <ele>339</ele>
        <time>2017-09-19T09:21:36Z</time>
      </trkpt>
      <trkpt lat="44.49086" lon="2.02798">
        <ele>340</ele>
        <time>2017-09-19T09:21:48Z</time>
      </trkpt>
      <trkpt lat="44.4909" lon="2.02795">
        <ele>340</ele>
        <time>2017-09-19T09:21:51Z</time>
      </trkpt>
      <trkpt lat="44.49094" lon="2.02793">
        <ele>340</ele>
        <time>2017-09-19T09:22:11Z</time>
      </trkpt>
      <trkpt lat="44.49099" lon="2.02792">
        <ele>340</ele>
        <time>2017-09-19T09:22:15Z</time>
      </trkpt>
      <trkpt lat="44.49105" lon="2.02789">
        <ele>340</ele>
        <time>2017-09-19T09:22:22Z</time>
      </trkpt>
      <trkpt lat="44.49111" lon="2.02785">
        <ele>340</ele>
        <time>2017-09-19T09:22:30Z</time>
      </trkpt>
      <trkpt lat="44.49131" lon="2.02779">
        <ele>340</ele>
        <time>2017-09-19T09:22:43Z</time>
      </trkpt>
      <trkpt lat="44.49143" lon="2.02773">
        <ele>340</ele>
        <time>2017-09-19T09:22:49Z</time>
      </trkpt>
      <trkpt lat="44.49147" lon="2.02771">
        <ele>340</ele>
        <time>2017-09-19T09:22:53Z</time>
      </trkpt>
      <trkpt lat="44.4915" lon="2.02769">
        <ele>340</ele>
        <time>2017-09-19T09:22:55Z</time>
      </trkpt>
      <trkpt lat="44.49152" lon="2.02767">
        <ele>340</ele>
        <time>2017-09-19T09:22:57Z</time>
      </trkpt>
      <trkpt lat="44.49153" lon="2.02765">
        <ele>340</ele>
        <time>2017-09-19T09:22:59Z</time>
      </trkpt>
      <trkpt lat="44.49153" lon="2.02762">
        <ele>340</ele>
        <time>2017-09-19T09:23:01Z</time>
      </trkpt>
      <trkpt lat="44.49154" lon="2.02759">
        <ele>340</ele>
        <time>2017-09-19T09:23:03Z</time>
      </trkpt>
      <trkpt lat="44.49143" lon="2.02706">
        <ele>339</ele>
        <time>2017-09-19T09:23:34Z</time>
      </trkpt>
      <trkpt lat="44.49143" lon="2.02704">
        <ele>339</ele>
        <time>2017-09-19T09:23:35Z</time>
      </trkpt>
      <trkpt lat="44.49142" lon="2.02695">
        <ele>339</ele>
        <time>2017-09-19T09:23:40Z</time>
      </trkpt>
      <trkpt lat="44.49135" lon="2.02661">
        <ele>337</ele>
        <time>2017-09-19T09:23:59Z</time>
      </trkpt>
      <trkpt lat="44.49134" lon="2.02657">
        <ele>337</ele>
        <time>2017-09-19T09:24:01Z</time>
      </trkpt>
      <trkpt lat="44.49131" lon="2.02651">
        <ele>337</ele>
        <time>2017-09-19T09:24:13Z</time>
      </trkpt>
      <trkpt lat="44.49129" lon="2.02647">
        <ele>337</ele>
        <time>2017-09-19T09:24:17Z</time>
      </trkpt>
      <trkpt lat="44.49123" lon="2.02644">
        <ele>337</ele>
        <time>2017-09-19T09:24:22Z</time>
      </trkpt>
      <trkpt lat="44.49119" lon="2.02635">
        <ele>337</ele>
        <time>2017-09-19T09:24:35Z</time>
      </trkpt>
      <trkpt lat="44.49118" lon="2.02633">
        <ele>337</ele>
        <time>2017-09-19T09:24:55Z</time>
      </trkpt>
      <trkpt lat="44.49116" lon="2.02633">
        <ele>337</ele>
        <time>2017-09-19T09:25:27Z</time>
      </trkpt>
      <trkpt lat="44.49118" lon="2.02636">
        <ele>337</ele>
        <time>2017-09-19T09:25:33Z</time>
      </trkpt>
      <trkpt lat="44.4912" lon="2.0264">
        <ele>337</ele>
        <time>2017-09-19T09:25:37Z</time>
      </trkpt>
      <trkpt lat="44.49126" lon="2.02644">
        <ele>337</ele>
        <time>2017-09-19T09:25:42Z</time>
      </trkpt>
      <trkpt lat="44.49129" lon="2.02642">
        <ele>337</ele>
        <time>2017-09-19T09:25:46Z</time>
      </trkpt>
      <trkpt lat="44.49129" lon="2.02637">
        <ele>337</ele>
        <time>2017-09-19T09:25:49Z</time>
      </trkpt>
      <trkpt lat="44.49123" lon="2.02608">
        <ele>337</ele>
        <time>2017-09-19T09:26:08Z</time>
      </trkpt>
      <trkpt lat="44.49119" lon="2.02597">
        <ele>337</ele>
        <time>2017-09-19T09:26:20Z</time>
      </trkpt>
      <trkpt lat="44.49117" lon="2.0258">
        <ele>336</ele>
        <time>2017-09-19T09:26:30Z</time>
      </trkpt>
      <trkpt lat="44.49117" lon="2.02575">
        <ele>336</ele>
        <time>2017-09-19T09:26:33Z</time>
      </trkpt>
      <trkpt lat="44.49123" lon="2.02548">
        <ele>336</ele>
        <time>2017-09-19T09:26:54Z</time>
      </trkpt>
      <trkpt lat="44.49128" lon="2.02537">
        <ele>336</ele>
        <time>2017-09-19T09:27:02Z</time>
      </trkpt>
      <trkpt lat="44.4913" lon="2.02531">
        <ele>336</ele>
        <time>2017-09-19T09:27:06Z</time>
      </trkpt>
      <trkpt lat="44.49145" lon="2.0249">
        <ele>335</ele>
        <time>2017-09-19T09:27:38Z</time>
      </trkpt>
      <trkpt lat="44.49147" lon="2.02485">
        <ele>335</ele>
        <time>2017-09-19T09:27:42Z</time>
      </trkpt>
      <trkpt lat="44.49159" lon="2.02449">
        <ele>335</ele>
        <time>2017-09-19T09:28:07Z</time>
      </trkpt>
      <trkpt lat="44.49162" lon="2.02442">
        <ele>335</ele>
        <time>2017-09-19T09:28:12Z</time>
      </trkpt>
      <trkpt lat="44.49165" lon="2.02437">
        <ele>335</ele>
        <time>2017-09-19T09:28:16Z</time>
      </trkpt>
      <trkpt lat="44.49166" lon="2.0243">
        <ele>335</ele>
        <time>2017-09-19T09:28:19Z</time>
      </trkpt>
      <trkpt lat="44.49167" lon="2.02424">
        <ele>335</ele>
        <time>2017-09-19T09:28:23Z</time>
      </trkpt>
      <trkpt lat="44.49174" lon="2.02401">
        <ele>334</ele>
        <time>2017-09-19T09:28:37Z</time>
      </trkpt>
      <trkpt lat="44.49173" lon="2.02383">
        <ele>334</ele>
        <time>2017-09-19T09:28:47Z</time>
      </trkpt>
      <trkpt lat="44.49168" lon="2.02366">
        <ele>334</ele>
        <time>2017-09-19T09:28:56Z</time>
      </trkpt>
      <trkpt lat="44.49159" lon="2.02332">
        <ele>336</ele>
        <time>2017-09-19T09:29:16Z</time>
      </trkpt>
      <trkpt lat="44.49157" lon="2.02328">
        <ele>336</ele>
        <time>2017-09-19T09:29:19Z</time>
      </trkpt>
      <trkpt lat="44.49151" lon="2.02275">
        <ele>336</ele>
        <time>2017-09-19T09:29:50Z</time>
      </trkpt>
      <trkpt lat="44.4915" lon="2.02269">
        <ele>336</ele>
        <time>2017-09-19T09:29:53Z</time>
      </trkpt>
      <trkpt lat="44.4915" lon="2.02263">
        <ele>336</ele>
        <time>2017-09-19T09:29:57Z</time>
      </trkpt>
      <trkpt lat="44.49144" lon="2.02245">
        <ele>336</ele>
        <time>2017-09-19T09:30:06Z</time>
      </trkpt>
      <trkpt lat="44.49118" lon="2.02226">
        <ele>335</ele>
        <time>2017-09-19T09:30:29Z</time>
      </trkpt>
      <trkpt lat="44.49113" lon="2.02224">
        <ele>335</ele>
        <time>2017-09-19T09:30:33Z</time>
      </trkpt>
      <trkpt lat="44.491" lon="2.02216">
        <ele>335</ele>
        <time>2017-09-19T09:30:43Z</time>
      </trkpt>
      <trkpt lat="44.49094" lon="2.02215">
        <ele>335</ele>
        <time>2017-09-19T09:30:46Z</time>
      </trkpt>
      <trkpt lat="44.49091" lon="2.02215">
        <ele>335</ele>
        <time>2017-09-19T09:32:33Z</time>
      </trkpt>
      <trkpt lat="44.49089" lon="2.02211">
        <ele>335</ele>
        <time>2017-09-19T09:32:38Z</time>
      </trkpt>
      <trkpt lat="44.49086" lon="2.02207">
        <ele>335</ele>
        <time>2017-09-19T09:32:41Z</time>
      </trkpt>
      <trkpt lat="44.49082" lon="2.02205">
        <ele>333</ele>
        <time>2017-09-19T09:32:46Z</time>
      </trkpt>
      <trkpt lat="44.49078" lon="2.022">
        <ele>333</ele>
        <time>2017-09-19T09:32:50Z</time>
      </trkpt>
      <trkpt lat="44.49075" lon="2.02196">
        <ele>333</ele>
        <time>2017-09-19T09:32:54Z</time>
      </trkpt>
      <trkpt lat="44.49071" lon="2.02191">
        <ele>333</ele>
        <time>2017-09-19T09:32:59Z</time>
      </trkpt>
      <trkpt lat="44.49068" lon="2.02186">
        <ele>333</ele>
        <time>2017-09-19T09:33:03Z</time>
      </trkpt>
      <trkpt lat="44.49061" lon="2.02174">
        <ele>333</ele>
        <time>2017-09-19T09:33:10Z</time>
      </trkpt>
      <trkpt lat="44.49057" lon="2.02167">
        <ele>332</ele>
        <time>2017-09-19T09:33:14Z</time>
      </trkpt>
      <trkpt lat="44.49056" lon="2.02162">
        <ele>331</ele>
        <time>2017-09-19T09:33:17Z</time>
      </trkpt>
      <trkpt lat="44.49031" lon="2.02116">
        <ele>330</ele>
        <time>2017-09-19T09:33:47Z</time>
      </trkpt>
      <trkpt lat="44.49022" lon="2.021">
        <ele>329</ele>
        <time>2017-09-19T09:33:58Z</time>
      </trkpt>
      <trkpt lat="44.49021" lon="2.02099">
        <ele>329</ele>
        <time>2017-09-19T09:33:59Z</time>
      </trkpt>
      <trkpt lat="44.49017" lon="2.02091">
        <ele>329</ele>
        <time>2017-09-19T09:34:05Z</time>
      </trkpt>
      <trkpt lat="44.49013" lon="2.02083">
        <ele>327</ele>
        <time>2017-09-19T09:34:10Z</time>
      </trkpt>
      <trkpt lat="44.49012" lon="2.02081">
        <ele>327</ele>
        <time>2017-09-19T09:34:11Z</time>
      </trkpt>
      <trkpt lat="44.49012" lon="2.02078">
        <ele>327</ele>
        <time>2017-09-19T09:34:13Z</time>
      </trkpt>
      <trkpt lat="44.49013" lon="2.02076">
        <ele>327</ele>
        <time>2017-09-19T09:34:16Z</time>
      </trkpt>
      <trkpt lat="44.49013" lon="2.02074">
        <ele>327</ele>
        <time>2017-09-19T09:34:18Z</time>
      </trkpt>
      <trkpt lat="44.49013" lon="2.02071">
        <ele>327</ele>
        <time>2017-09-19T09:34:20Z</time>
      </trkpt>
      <trkpt lat="44.49021" lon="2.02053">
        <ele>327</ele>
        <time>2017-09-19T09:34:32Z</time>
      </trkpt>
      <trkpt lat="44.49029" lon="2.02045">
        <ele>327</ele>
        <time>2017-09-19T09:34:40Z</time>
      </trkpt>
      <trkpt lat="44.49037" lon="2.02033">
        <ele>327</ele>
        <time>2017-09-19T09:34:50Z</time>
      </trkpt>
      <trkpt lat="44.49051" lon="2.02014">
        <ele>327</ele>
        <time>2017-09-19T09:35:08Z</time>
      </trkpt>
      <trkpt lat="44.49058" lon="2.02004">
        <ele>327</ele>
        <time>2017-09-19T09:35:18Z</time>
      </trkpt>
      <trkpt lat="44.49064" lon="2.01996">
        <ele>326</ele>
        <time>2017-09-19T09:35:24Z</time>
      </trkpt>
      <trkpt lat="44.49066" lon="2.01993">
        <ele>326</ele>
        <time>2017-09-19T09:35:26Z</time>
      </trkpt>
      <trkpt lat="44.49069" lon="2.01989">
        <ele>326</ele>
        <time>2017-09-19T09:35:29Z</time>
      </trkpt>
      <trkpt lat="44.49077" lon="2.01974">
        <ele>325</ele>
        <time>2017-09-19T09:35:40Z</time>
      </trkpt>
      <trkpt lat="44.4908" lon="2.01971">
        <ele>325</ele>
        <time>2017-09-19T09:35:43Z</time>
      </trkpt>
      <trkpt lat="44.4909" lon="2.01955">
        <ele>327</ele>
        <time>2017-09-19T09:35:57Z</time>
      </trkpt>
      <trkpt lat="44.49109" lon="2.01909">
        <ele>324</ele>
        <time>2017-09-19T09:36:25Z</time>
      </trkpt>
      <trkpt lat="44.49113" lon="2.01895">
        <ele>324</ele>
        <time>2017-09-19T09:36:33Z</time>
      </trkpt>
      <trkpt lat="44.4912" lon="2.01876">
        <ele>324</ele>
        <time>2017-09-19T09:36:52Z</time>
      </trkpt>
      <trkpt lat="44.49124" lon="2.01868">
        <ele>324</ele>
        <time>2017-09-19T09:36:58Z</time>
      </trkpt>
      <trkpt lat="44.49132" lon="2.01852">
        <ele>324</ele>
        <time>2017-09-19T09:37:47Z</time>
      </trkpt>
      <trkpt lat="44.49137" lon="2.0184">
        <ele>324</ele>
        <time>2017-09-19T09:37:57Z</time>
      </trkpt>
      <trkpt lat="44.49142" lon="2.01834">
        <ele>324</ele>
        <time>2017-09-19T09:38:53Z</time>
      </trkpt>
      <trkpt lat="44.49145" lon="2.0183">
        <ele>323</ele>
        <time>2017-09-19T09:38:56Z</time>
      </trkpt>
      <trkpt lat="44.49149" lon="2.01826">
        <ele>323</ele>
        <time>2017-09-19T09:39:00Z</time>
      </trkpt>
      <trkpt lat="44.49153" lon="2.01815">
        <ele>323</ele>
        <time>2017-09-19T09:39:06Z</time>
      </trkpt>
      <trkpt lat="44.49156" lon="2.01811">
        <ele>323</ele>
        <time>2017-09-19T09:39:09Z</time>
      </trkpt>
      <trkpt lat="44.49157" lon="2.01806">
        <ele>323</ele>
        <time>2017-09-19T09:39:12Z</time>
      </trkpt>
      <trkpt lat="44.49166" lon="2.0179">
        <ele>323</ele>
        <time>2017-09-19T09:39:24Z</time>
      </trkpt>
      <trkpt lat="44.4917" lon="2.01784">
        <ele>324</ele>
        <time>2017-09-19T09:39:29Z</time>
      </trkpt>
      <trkpt lat="44.49175" lon="2.01773">
        <ele>324</ele>
        <time>2017-09-19T09:39:36Z</time>
      </trkpt>
      <trkpt lat="44.49178" lon="2.0177">
        <ele>324</ele>
        <time>2017-09-19T09:39:39Z</time>
      </trkpt>
      <trkpt lat="44.49185" lon="2.01756">
        <ele>324</ele>
        <time>2017-09-19T09:39:51Z</time>
      </trkpt>
      <trkpt lat="44.49192" lon="2.01744">
        <ele>325</ele>
        <time>2017-09-19T09:40:00Z</time>
      </trkpt>
      <trkpt lat="44.49194" lon="2.01739">
        <ele>325</ele>
        <time>2017-09-19T09:40:03Z</time>
      </trkpt>
      <trkpt lat="44.492" lon="2.0173">
        <ele>325</ele>
        <time>2017-09-19T09:40:10Z</time>
      </trkpt>
      <trkpt lat="44.49203" lon="2.01724">
        <ele>325</ele>
        <time>2017-09-19T09:40:15Z</time>
      </trkpt>
      <trkpt lat="44.49212" lon="2.01714">
        <ele>326</ele>
        <time>2017-09-19T09:40:24Z</time>
      </trkpt>
      <trkpt lat="44.49217" lon="2.01709">
        <ele>326</ele>
        <time>2017-09-19T09:40:28Z</time>
      </trkpt>
      <trkpt lat="44.4922" lon="2.01704">
        <ele>326</ele>
        <time>2017-09-19T09:40:32Z</time>
      </trkpt>
      <trkpt lat="44.49229" lon="2.01694">
        <ele>326</ele>
        <time>2017-09-19T09:40:41Z</time>
      </trkpt>
      <trkpt lat="44.49238" lon="2.01685">
        <ele>327</ele>
        <time>2017-09-19T09:40:48Z</time>
      </trkpt>
      <trkpt lat="44.49242" lon="2.01681">
        <ele>328</ele>
        <time>2017-09-19T09:40:52Z</time>
      </trkpt>
      <trkpt lat="44.49245" lon="2.01676">
        <ele>328</ele>
        <time>2017-09-19T09:40:55Z</time>
      </trkpt>
      <trkpt lat="44.49249" lon="2.01672">
        <ele>329</ele>
        <time>2017-09-19T09:40:58Z</time>
      </trkpt>
      <trkpt lat="44.49256" lon="2.01659">
        <ele>331</ele>
        <time>2017-09-19T09:41:08Z</time>
      </trkpt>
      <trkpt lat="44.49265" lon="2.01649">
        <ele>332</ele>
        <time>2017-09-19T09:41:18Z</time>
      </trkpt>
      <trkpt lat="44.49267" lon="2.01646">
        <ele>332</ele>
        <time>2017-09-19T09:41:21Z</time>
      </trkpt>
      <trkpt lat="44.49269" lon="2.01642">
        <ele>332</ele>
        <time>2017-09-19T09:41:24Z</time>
      </trkpt>
      <trkpt lat="44.49274" lon="2.01635">
        <ele>332</ele>
        <time>2017-09-19T09:41:30Z</time>
      </trkpt>
      <trkpt lat="44.49276" lon="2.01631">
        <ele>333</ele>
        <time>2017-09-19T09:41:47Z</time>
      </trkpt>
      <trkpt lat="44.49278" lon="2.01628">
        <ele>333</ele>
        <time>2017-09-19T09:42:11Z</time>
      </trkpt>
      <trkpt lat="44.49282" lon="2.01623">
        <ele>333</ele>
        <time>2017-09-19T09:42:16Z</time>
      </trkpt>
      <trkpt lat="44.49285" lon="2.01618">
        <ele>333</ele>
        <time>2017-09-19T09:42:20Z</time>
      </trkpt>
      <trkpt lat="44.49302" lon="2.01595">
        <ele>333</ele>
        <time>2017-09-19T09:42:40Z</time>
      </trkpt>
      <trkpt lat="44.49304" lon="2.01595">
        <ele>333</ele>
        <time>2017-09-19T09:44:30Z</time>
      </trkpt>
      <trkpt lat="44.49309" lon="2.01588">
        <ele>334</ele>
        <time>2017-09-19T09:44:36Z</time>
      </trkpt>
      <trkpt lat="44.49313" lon="2.0158">
        <ele>333</ele>
        <time>2017-09-19T09:44:42Z</time>
      </trkpt>
      <trkpt lat="44.49315" lon="2.01573">
        <ele>333</ele>
        <time>2017-09-19T09:44:48Z</time>
      </trkpt>
      <trkpt lat="44.49336" lon="2.01527">
        <ele>335</ele>
        <time>2017-09-19T09:45:18Z</time>
      </trkpt>
      <trkpt lat="44.4934" lon="2.01522">
        <ele>335</ele>
        <time>2017-09-19T09:45:23Z</time>
      </trkpt>
      <trkpt lat="44.49342" lon="2.01515">
        <ele>335</ele>
        <time>2017-09-19T09:45:28Z</time>
      </trkpt>
      <trkpt lat="44.49347" lon="2.01512">
        <ele>335</ele>
        <time>2017-09-19T09:45:32Z</time>
      </trkpt>
      <trkpt lat="44.4935" lon="2.01506">
        <ele>335</ele>
        <time>2017-09-19T09:45:35Z</time>
      </trkpt>
      <trkpt lat="44.49351" lon="2.015">
        <ele>335</ele>
        <time>2017-09-19T09:45:38Z</time>
      </trkpt>
      <trkpt lat="44.49355" lon="2.01493">
        <ele>335</ele>
        <time>2017-09-19T09:45:43Z</time>
      </trkpt>
      <trkpt lat="44.49362" lon="2.01472">
        <ele>335</ele>
        <time>2017-09-19T09:45:55Z</time>
      </trkpt>
      <trkpt lat="44.49365" lon="2.01467">
        <ele>335</ele>
        <time>2017-09-19T09:45:59Z</time>
      </trkpt>
      <trkpt lat="44.49385" lon="2.01418">
        <ele>335</ele>
        <time>2017-09-19T09:46:29Z</time>
      </trkpt>
      <trkpt lat="44.49387" lon="2.01365">
        <ele>335</ele>
        <time>2017-09-19T09:47:02Z</time>
      </trkpt>
      <trkpt lat="44.49389" lon="2.01348">
        <ele>335</ele>
        <time>2017-09-19T09:47:10Z</time>
      </trkpt>
      <trkpt lat="44.4939" lon="2.01341">
        <ele>335</ele>
        <time>2017-09-19T09:47:13Z</time>
      </trkpt>
      <trkpt lat="44.4939" lon="2.01337">
        <ele>335</ele>
        <time>2017-09-19T09:47:15Z</time>
      </trkpt>
      <trkpt lat="44.4939" lon="2.01331">
        <ele>334</ele>
        <time>2017-09-19T09:47:18Z</time>
      </trkpt>
      <trkpt lat="44.49393" lon="2.01326">
        <ele>334</ele>
        <time>2017-09-19T09:47:22Z</time>
      </trkpt>
      <trkpt lat="44.49396" lon="2.01321">
        <ele>334</ele>
        <time>2017-09-19T09:47:25Z</time>
      </trkpt>
      <trkpt lat="44.49398" lon="2.01302">
        <ele>333</ele>
        <time>2017-09-19T09:47:35Z</time>
      </trkpt>
      <trkpt lat="44.49398" lon="2.01296">
        <ele>333</ele>
        <time>2017-09-19T09:47:38Z</time>
      </trkpt>
      <trkpt lat="44.49409" lon="2.01238">
        <ele>334</ele>
        <time>2017-09-19T09:48:11Z</time>
      </trkpt>
      <trkpt lat="44.49418" lon="2.01191">
        <ele>335</ele>
        <time>2017-09-19T09:48:36Z</time>
      </trkpt>
      <trkpt lat="44.49419" lon="2.01186">
        <ele>335</ele>
        <time>2017-09-19T09:48:39Z</time>
      </trkpt>
      <trkpt lat="44.49422" lon="2.01168">
        <ele>334</ele>
        <time>2017-09-19T09:48:50Z</time>
      </trkpt>
      <trkpt lat="44.49424" lon="2.01155">
        <ele>334</ele>
        <time>2017-09-19T09:48:58Z</time>
      </trkpt>
      <trkpt lat="44.49437" lon="2.01102">
        <ele>335</ele>
        <time>2017-09-19T09:49:29Z</time>
      </trkpt>
      <trkpt lat="44.49438" lon="2.0109">
        <ele>335</ele>
        <time>2017-09-19T09:49:36Z</time>
      </trkpt>
      <trkpt lat="44.49447" lon="2.01051">
        <ele>334</ele>
        <time>2017-09-19T09:49:59Z</time>
      </trkpt>
      <trkpt lat="44.4945" lon="2.01047">
        <ele>334</ele>
        <time>2017-09-19T09:50:04Z</time>
      </trkpt>
      <trkpt lat="44.49453" lon="2.01043">
        <ele>335</ele>
        <time>2017-09-19T09:50:08Z</time>
      </trkpt>
      <trkpt lat="44.49462" lon="2.01032">
        <ele>335</ele>
        <time>2017-09-19T09:50:20Z</time>
      </trkpt>
      <trkpt lat="44.49465" lon="2.01027">
        <ele>335</ele>
        <time>2017-09-19T09:50:24Z</time>
      </trkpt>
      <trkpt lat="44.49467" lon="2.01021">
        <ele>335</ele>
        <time>2017-09-19T09:50:28Z</time>
      </trkpt>
      <trkpt lat="44.49472" lon="2.01016">
        <ele>335</ele>
        <time>2017-09-19T09:50:33Z</time>
      </trkpt>
      <trkpt lat="44.49486" lon="2.00989">
        <ele>335</ele>
        <time>2017-09-19T09:50:53Z</time>
      </trkpt>
      <trkpt lat="44.49489" lon="2.00985">
        <ele>335</ele>
        <time>2017-09-19T09:50:56Z</time>
      </trkpt>
      <trkpt lat="44.49492" lon="2.00981">
        <ele>335</ele>
        <time>2017-09-19T09:50:59Z</time>
      </trkpt>
      <trkpt lat="44.49497" lon="2.00976">
        <ele>335</ele>
        <time>2017-09-19T09:51:03Z</time>
      </trkpt>
      <trkpt lat="44.49501" lon="2.00972">
        <ele>338</ele>
        <time>2017-09-19T09:51:06Z</time>
      </trkpt>
      <trkpt lat="44.49517" lon="2.00949">
        <ele>337</ele>
        <time>2017-09-19T09:51:22Z</time>
      </trkpt>
      <trkpt lat="44.49519" lon="2.00944">
        <ele>337</ele>
        <time>2017-09-19T09:51:25Z</time>
      </trkpt>
      <trkpt lat="44.49521" lon="2.00933">
        <ele>337</ele>
        <time>2017-09-19T09:51:32Z</time>
      </trkpt>
      <trkpt lat="44.49528" lon="2.00924">
        <ele>337</ele>
        <time>2017-09-19T09:51:39Z</time>
      </trkpt>
      <trkpt lat="44.4953" lon="2.0092">
        <ele>337</ele>
        <time>2017-09-19T09:51:42Z</time>
      </trkpt>
      <trkpt lat="44.49532" lon="2.00915">
        <ele>335</ele>
        <time>2017-09-19T09:51:45Z</time>
      </trkpt>
      <trkpt lat="44.49541" lon="2.00907">
        <ele>335</ele>
        <time>2017-09-19T09:51:53Z</time>
      </trkpt>
      <trkpt lat="44.49547" lon="2.009">
        <ele>335</ele>
        <time>2017-09-19T09:51:59Z</time>
      </trkpt>
      <trkpt lat="44.4955" lon="2.00898">
        <ele>335</ele>
        <time>2017-09-19T09:52:03Z</time>
      </trkpt>
      <trkpt lat="44.49554" lon="2.00894">
        <ele>335</ele>
        <time>2017-09-19T09:52:07Z</time>
      </trkpt>
      <trkpt lat="44.49564" lon="2.00887">
        <ele>336</ele>
        <time>2017-09-19T09:52:17Z</time>
      </trkpt>
      <trkpt lat="44.49605" lon="2.0087">
        <ele>337</ele>
        <time>2017-09-19T09:52:47Z</time>
      </trkpt>
      <trkpt lat="44.49613" lon="2.00866">
        <ele>337</ele>
        <time>2017-09-19T09:52:53Z</time>
      </trkpt>
      <trkpt lat="44.49617" lon="2.00864">
        <ele>337</ele>
        <time>2017-09-19T09:52:57Z</time>
      </trkpt>
      <trkpt lat="44.49621" lon="2.00862">
        <ele>337</ele>
        <time>2017-09-19T09:53:01Z</time>
      </trkpt>
      <trkpt lat="44.49625" lon="2.00861">
        <ele>337</ele>
        <time>2017-09-19T09:53:04Z</time>
      </trkpt>
      <trkpt lat="44.49631" lon="2.00854">
        <ele>337</ele>
        <time>2017-09-19T09:53:10Z</time>
      </trkpt>
      <trkpt lat="44.49634" lon="2.0085">
        <ele>337</ele>
        <time>2017-09-19T09:53:13Z</time>
      </trkpt>
      <trkpt lat="44.49633" lon="2.00792">
        <ele>336</ele>
        <time>2017-09-19T09:53:43Z</time>
      </trkpt>
      <trkpt lat="44.4963" lon="2.00734">
        <ele>335</ele>
        <time>2017-09-19T09:54:12Z</time>
      </trkpt>
      <trkpt lat="44.4963" lon="2.00732">
        <ele>335</ele>
        <time>2017-09-19T09:54:13Z</time>
      </trkpt>
      <trkpt lat="44.49632" lon="2.00728">
        <ele>334</ele>
        <time>2017-09-19T09:54:15Z</time>
      </trkpt>
      <trkpt lat="44.49631" lon="2.00668">
        <ele>334</ele>
        <time>2017-09-19T09:54:46Z</time>
      </trkpt>
      <trkpt lat="44.49631" lon="2.00646">
        <ele>332</ele>
        <time>2017-09-19T09:54:57Z</time>
      </trkpt>
      <trkpt lat="44.49631" lon="2.00629">
        <ele>332</ele>
        <time>2017-09-19T09:55:07Z</time>
      </trkpt>
      <trkpt lat="44.49632" lon="2.00618">
        <ele>332</ele>
        <time>2017-09-19T09:55:13Z</time>
      </trkpt>
      <trkpt lat="44.49631" lon="2.00604">
        <ele>332</ele>
        <time>2017-09-19T09:55:21Z</time>
      </trkpt>
      <trkpt lat="44.4963" lon="2.00586">
        <ele>332</ele>
        <time>2017-09-19T09:55:31Z</time>
      </trkpt>
      <trkpt lat="44.4963" lon="2.00583">
        <ele>330</ele>
        <time>2017-09-19T09:55:33Z</time>
      </trkpt>
      <trkpt lat="44.49632" lon="2.00549">
        <ele>329</ele>
        <time>2017-09-19T09:55:52Z</time>
      </trkpt>
      <trkpt lat="44.49631" lon="2.00543">
        <ele>329</ele>
        <time>2017-09-19T09:55:55Z</time>
      </trkpt>
      <trkpt lat="44.49631" lon="2.00538">
        <ele>329</ele>
        <time>2017-09-19T09:55:58Z</time>
      </trkpt>
      <trkpt lat="44.49624" lon="2.00484">
        <ele>326</ele>
        <time>2017-09-19T09:56:28Z</time>
      </trkpt>
      <trkpt lat="44.49616" lon="2.00441">
        <ele>326</ele>
        <time>2017-09-19T09:56:51Z</time>
      </trkpt>
      <trkpt lat="44.49616" lon="2.00437">
        <ele>325</ele>
        <time>2017-09-19T09:56:53Z</time>
      </trkpt>
      <trkpt lat="44.49617" lon="2.00431">
        <ele>325</ele>
        <time>2017-09-19T09:56:56Z</time>
      </trkpt>
      <trkpt lat="44.49617" lon="2.00426">
        <ele>325</ele>
        <time>2017-09-19T09:56:59Z</time>
      </trkpt>
      <trkpt lat="44.49609" lon="2.00371">
        <ele>325</ele>
        <time>2017-09-19T09:57:32Z</time>
      </trkpt>
      <trkpt lat="44.49608" lon="2.00356">
        <ele>324</ele>
        <time>2017-09-19T09:57:40Z</time>
      </trkpt>
      <trkpt lat="44.49607" lon="2.00344">
        <ele>324</ele>
        <time>2017-09-19T09:57:46Z</time>
      </trkpt>
      <trkpt lat="44.49603" lon="2.0033">
        <ele>324</ele>
        <time>2017-09-19T09:57:52Z</time>
      </trkpt>
      <trkpt lat="44.49602" lon="2.00324">
        <ele>324</ele>
        <time>2017-09-19T09:57:55Z</time>
      </trkpt>
      <trkpt lat="44.49597" lon="2.00296">
        <ele>324</ele>
        <time>2017-09-19T09:58:10Z</time>
      </trkpt>
      <trkpt lat="44.49597" lon="2.0029">
        <ele>324</ele>
        <time>2017-09-19T09:58:13Z</time>
      </trkpt>
      <trkpt lat="44.49593" lon="2.00256">
        <ele>322</ele>
        <time>2017-09-19T09:58:30Z</time>
      </trkpt>
      <trkpt lat="44.49589" lon="2.00241">
        <ele>322</ele>
        <time>2017-09-19T09:58:39Z</time>
      </trkpt>
      <trkpt lat="44.49589" lon="2.00236">
        <ele>323</ele>
        <time>2017-09-19T09:58:43Z</time>
      </trkpt>
      <trkpt lat="44.49588" lon="2.00229">
        <ele>324</ele>
        <time>2017-09-19T09:58:46Z</time>
      </trkpt>
      <trkpt lat="44.49583" lon="2.0022">
        <ele>320</ele>
        <time>2017-09-19T09:58:52Z</time>
      </trkpt>
      <trkpt lat="44.49563" lon="2.00171">
        <ele>322</ele>
        <time>2017-09-19T09:59:21Z</time>
      </trkpt>
      <trkpt lat="44.49548" lon="2.00144">
        <ele>322</ele>
        <time>2017-09-19T09:59:38Z</time>
      </trkpt>
      <trkpt lat="44.49547" lon="2.0014">
        <ele>322</ele>
        <time>2017-09-19T09:59:41Z</time>
      </trkpt>
      <trkpt lat="44.49545" lon="2.00136">
        <ele>322</ele>
        <time>2017-09-19T09:59:44Z</time>
      </trkpt>
      <trkpt lat="44.49543" lon="2.00127">
        <ele>322</ele>
        <time>2017-09-19T09:59:50Z</time>
      </trkpt>
      <trkpt lat="44.49542" lon="2.00111">
        <ele>322</ele>
        <time>2017-09-19T09:59:59Z</time>
      </trkpt>
      <trkpt lat="44.49544" lon="2.00101">
        <ele>322</ele>
        <time>2017-09-19T10:00:05Z</time>
      </trkpt>
      <trkpt lat="44.49545" lon="2.00089">
        <ele>322</ele>
        <time>2017-09-19T10:00:12Z</time>
      </trkpt>
      <trkpt lat="44.49543" lon="2.00069">
        <ele>323</ele>
        <time>2017-09-19T10:00:24Z</time>
      </trkpt>
      <trkpt lat="44.49539" lon="2.00058">
        <ele>322</ele>
        <time>2017-09-19T10:00:30Z</time>
      </trkpt>
      <trkpt lat="44.49539" lon="2.00051">
        <ele>322</ele>
        <time>2017-09-19T10:00:34Z</time>
      </trkpt>
      <trkpt lat="44.4954" lon="2.00045">
        <ele>322</ele>
        <time>2017-09-19T10:00:38Z</time>
      </trkpt>
      <trkpt lat="44.49541" lon="2.00034">
        <ele>322</ele>
        <time>2017-09-19T10:00:45Z</time>
      </trkpt>
      <trkpt lat="44.49544" lon="1.99979">
        <ele>322</ele>
        <time>2017-09-19T10:01:16Z</time>
      </trkpt>
      <trkpt lat="44.49544" lon="1.99975">
        <ele>322</ele>
        <time>2017-09-19T10:01:19Z</time>
      </trkpt>
      <trkpt lat="44.49544" lon="1.99967">
        <ele>322</ele>
        <time>2017-09-19T10:01:24Z</time>
      </trkpt>
      <trkpt lat="44.49545" lon="1.9996">
        <ele>322</ele>
        <time>2017-09-19T10:01:27Z</time>
      </trkpt>
      <trkpt lat="44.49544" lon="1.99948">
        <ele>322</ele>
        <time>2017-09-19T10:01:33Z</time>
      </trkpt>
      <trkpt lat="44.49545" lon="1.99942">
        <ele>322</ele>
        <time>2017-09-19T10:01:36Z</time>
      </trkpt>
      <trkpt lat="44.49546" lon="1.99928">
        <ele>322</ele>
        <time>2017-09-19T10:01:43Z</time>
      </trkpt>
      <trkpt lat="44.49547" lon="1.99921">
        <ele>322</ele>
        <time>2017-09-19T10:01:47Z</time>
      </trkpt>
      <trkpt lat="44.4955" lon="1.99909">
        <ele>321</ele>
        <time>2017-09-19T10:01:55Z</time>
      </trkpt>
      <trkpt lat="44.49549" lon="1.99903">
        <ele>321</ele>
        <time>2017-09-19T10:01:59Z</time>
      </trkpt>
      <trkpt lat="44.49549" lon="1.99899">
        <ele>321</ele>
        <time>2017-09-19T10:02:02Z</time>
      </trkpt>
      <trkpt lat="44.4955" lon="1.99893">
        <ele>321</ele>
        <time>2017-09-19T10:02:06Z</time>
      </trkpt>
      <trkpt lat="44.49553" lon="1.99883">
        <ele>321</ele>
        <time>2017-09-19T10:02:16Z</time>
      </trkpt>
      <trkpt lat="44.49554" lon="1.99868">
        <ele>321</ele>
        <time>2017-09-19T10:02:26Z</time>
      </trkpt>
      <trkpt lat="44.49555" lon="1.99863">
        <ele>321</ele>
        <time>2017-09-19T10:02:29Z</time>
      </trkpt>
      <trkpt lat="44.49558" lon="1.99845">
        <ele>320</ele>
        <time>2017-09-19T10:02:39Z</time>
      </trkpt>
      <trkpt lat="44.49565" lon="1.99829">
        <ele>319</ele>
        <time>2017-09-19T10:02:50Z</time>
      </trkpt>
      <trkpt lat="44.49567" lon="1.99816">
        <ele>319</ele>
        <time>2017-09-19T10:02:57Z</time>
      </trkpt>
      <trkpt lat="44.49569" lon="1.9981">
        <ele>319</ele>
        <time>2017-09-19T10:03:00Z</time>
      </trkpt>
      <trkpt lat="44.49571" lon="1.99799">
        <ele>319</ele>
        <time>2017-09-19T10:03:08Z</time>
      </trkpt>
      <trkpt lat="44.49574" lon="1.99789">
        <ele>319</ele>
        <time>2017-09-19T10:03:14Z</time>
      </trkpt>
      <trkpt lat="44.49581" lon="1.99762">
        <ele>319</ele>
        <time>2017-09-19T10:03:29Z</time>
      </trkpt>
      <trkpt lat="44.49582" lon="1.99757">
        <ele>319</ele>
        <time>2017-09-19T10:03:32Z</time>
      </trkpt>
      <trkpt lat="44.49584" lon="1.99751">
        <ele>319</ele>
        <time>2017-09-19T10:03:36Z</time>
      </trkpt>
      <trkpt lat="44.4959" lon="1.99734">
        <ele>320</ele>
        <time>2017-09-19T10:03:47Z</time>
      </trkpt>
      <trkpt lat="44.49592" lon="1.99727">
        <ele>320</ele>
        <time>2017-09-19T10:03:51Z</time>
      </trkpt>
      <trkpt lat="44.49607" lon="1.99703">
        <ele>320</ele>
        <time>2017-09-19T10:04:09Z</time>
      </trkpt>
      <trkpt lat="44.49612" lon="1.99689">
        <ele>320</ele>
        <time>2017-09-19T10:04:19Z</time>
      </trkpt>
      <trkpt lat="44.49612" lon="1.99682">
        <ele>320</ele>
        <time>2017-09-19T10:04:23Z</time>
      </trkpt>
      <trkpt lat="44.49615" lon="1.99677">
        <ele>320</ele>
        <time>2017-09-19T10:04:26Z</time>
      </trkpt>
      <trkpt lat="44.49619" lon="1.99667">
        <ele>320</ele>
        <time>2017-09-19T10:04:33Z</time>
      </trkpt>
      <trkpt lat="44.49622" lon="1.99661">
        <ele>321</ele>
        <time>2017-09-19T10:04:37Z</time>
      </trkpt>
      <trkpt lat="44.49625" lon="1.9965">
        <ele>321</ele>
        <time>2017-09-19T10:04:43Z</time>
      </trkpt>
      <trkpt lat="44.49633" lon="1.99613">
        <ele>322</ele>
        <time>2017-09-19T10:05:04Z</time>
      </trkpt>
      <trkpt lat="44.49637" lon="1.99601">
        <ele>322</ele>
        <time>2017-09-19T10:05:11Z</time>
      </trkpt>
      <trkpt lat="44.49637" lon="1.99594">
        <ele>322</ele>
        <time>2017-09-19T10:05:16Z</time>
      </trkpt>
      <trkpt lat="44.49642" lon="1.99581">
        <ele>322</ele>
        <time>2017-09-19T10:05:24Z</time>
      </trkpt>
      <trkpt lat="44.49644" lon="1.99575">
        <ele>322</ele>
        <time>2017-09-19T10:05:27Z</time>
      </trkpt>
      <trkpt lat="44.49648" lon="1.99565">
        <ele>322</ele>
        <time>2017-09-19T10:05:33Z</time>
      </trkpt>
      <trkpt lat="44.49652" lon="1.99561">
        <ele>322</ele>
        <time>2017-09-19T10:05:36Z</time>
      </trkpt>
      <trkpt lat="44.49653" lon="1.99554">
        <ele>322</ele>
        <time>2017-09-19T10:05:40Z</time>
      </trkpt>
      <trkpt lat="44.49655" lon="1.99548">
        <ele>322</ele>
        <time>2017-09-19T10:05:43Z</time>
      </trkpt>
      <trkpt lat="44.49658" lon="1.99542">
        <ele>322</ele>
        <time>2017-09-19T10:05:47Z</time>
      </trkpt>
      <trkpt lat="44.49662" lon="1.99537">
        <ele>322</ele>
        <time>2017-09-19T10:05:52Z</time>
      </trkpt>
      <trkpt lat="44.49663" lon="1.99531">
        <ele>321</ele>
        <time>2017-09-19T10:05:56Z</time>
      </trkpt>
      <trkpt lat="44.49666" lon="1.99512">
        <ele>321</ele>
        <time>2017-09-19T10:06:05Z</time>
      </trkpt>
      <trkpt lat="44.49667" lon="1.99507">
        <ele>322</ele>
        <time>2017-09-19T10:06:08Z</time>
      </trkpt>
      <trkpt lat="44.49674" lon="1.99499">
        <ele>321</ele>
        <time>2017-09-19T10:06:23Z</time>
      </trkpt>
      <trkpt lat="44.49676" lon="1.99495">
        <ele>322</ele>
        <time>2017-09-19T10:06:26Z</time>
      </trkpt>
      <trkpt lat="44.4968" lon="1.99484">
        <ele>322</ele>
        <time>2017-09-19T10:06:33Z</time>
      </trkpt>
      <trkpt lat="44.49682" lon="1.99472">
        <ele>322</ele>
        <time>2017-09-19T10:06:41Z</time>
      </trkpt>
      <trkpt lat="44.49684" lon="1.99466">
        <ele>322</ele>
        <time>2017-09-19T10:06:44Z</time>
      </trkpt>
      <trkpt lat="44.49691" lon="1.99456">
        <ele>322</ele>
        <time>2017-09-19T10:06:51Z</time>
      </trkpt>
      <trkpt lat="44.49694" lon="1.9945">
        <ele>322</ele>
        <time>2017-09-19T10:06:56Z</time>
      </trkpt>
      <trkpt lat="44.49705" lon="1.99417">
        <ele>322</ele>
        <time>2017-09-19T10:07:15Z</time>
      </trkpt>
      <trkpt lat="44.4971" lon="1.99398">
        <ele>320</ele>
        <time>2017-09-19T10:07:26Z</time>
      </trkpt>
      <trkpt lat="44.49712" lon="1.99392">
        <ele>320</ele>
        <time>2017-09-19T10:07:31Z</time>
      </trkpt>
      <trkpt lat="44.49714" lon="1.99384">
        <ele>320</ele>
        <time>2017-09-19T10:07:36Z</time>
      </trkpt>
      <trkpt lat="44.49722" lon="1.99373">
        <ele>320</ele>
        <time>2017-09-19T10:07:44Z</time>
      </trkpt>
      <trkpt lat="44.49725" lon="1.99366">
        <ele>320</ele>
        <time>2017-09-19T10:07:47Z</time>
      </trkpt>
      <trkpt lat="44.4973" lon="1.99355">
        <ele>320</ele>
        <time>2017-09-19T10:07:53Z</time>
      </trkpt>
      <trkpt lat="44.49732" lon="1.99341">
        <ele>320</ele>
        <time>2017-09-19T10:07:59Z</time>
      </trkpt>
      <trkpt lat="44.49733" lon="1.99336">
        <ele>320</ele>
        <time>2017-09-19T10:08:01Z</time>
      </trkpt>
      <trkpt lat="44.49735" lon="1.99329">
        <ele>319</ele>
        <time>2017-09-19T10:08:05Z</time>
      </trkpt>
      <trkpt lat="44.49739" lon="1.99312">
        <ele>319</ele>
        <time>2017-09-19T10:08:14Z</time>
      </trkpt>
      <trkpt lat="44.49741" lon="1.99305">
        <ele>318</ele>
        <time>2017-09-19T10:08:18Z</time>
      </trkpt>
      <trkpt lat="44.49742" lon="1.99293">
        <ele>318</ele>
        <time>2017-09-19T10:08:24Z</time>
      </trkpt>
      <trkpt lat="44.49741" lon="1.99284">
        <ele>318</ele>
        <time>2017-09-19T10:08:28Z</time>
      </trkpt>
      <trkpt lat="44.49738" lon="1.99276">
        <ele>318</ele>
        <time>2017-09-19T10:08:34Z</time>
      </trkpt>
      <trkpt lat="44.49737" lon="1.99275">
        <ele>318</ele>
        <time>2017-09-19T10:08:36Z</time>
      </trkpt>
      <trkpt lat="44.49734" lon="1.99275">
        <ele>318</ele>
        <time>2017-09-19T10:08:38Z</time>
      </trkpt>
      <trkpt lat="44.49726" lon="1.99267">
        <ele>318</ele>
        <time>2017-09-19T10:08:47Z</time>
      </trkpt>
      <trkpt lat="44.49724" lon="1.99264">
        <ele>318</ele>
        <time>2017-09-19T10:08:49Z</time>
      </trkpt>
      <trkpt lat="44.49722" lon="1.99262">
        <ele>318</ele>
        <time>2017-09-19T10:08:52Z</time>
      </trkpt>
      <trkpt lat="44.4972" lon="1.99258">
        <ele>318</ele>
        <time>2017-09-19T10:08:54Z</time>
      </trkpt>
      <trkpt lat="44.49719" lon="1.99249">
        <ele>317</ele>
        <time>2017-09-19T10:09:00Z</time>
      </trkpt>
      <trkpt lat="44.49721" lon="1.99226">
        <ele>317</ele>
        <time>2017-09-19T10:09:11Z</time>
      </trkpt>
      <trkpt lat="44.49722" lon="1.99202">
        <ele>317</ele>
        <time>2017-09-19T10:09:24Z</time>
      </trkpt>
      <trkpt lat="44.49723" lon="1.99197">
        <ele>317</ele>
        <time>2017-09-19T10:09:27Z</time>
      </trkpt>
      <trkpt lat="44.49724" lon="1.99191">
        <ele>317</ele>
        <time>2017-09-19T10:09:31Z</time>
      </trkpt>
      <trkpt lat="44.49726" lon="1.99186">
        <ele>317</ele>
        <time>2017-09-19T10:09:35Z</time>
      </trkpt>
      <trkpt lat="44.49727" lon="1.99179">
        <ele>317</ele>
        <time>2017-09-19T10:09:40Z</time>
      </trkpt>
      <trkpt lat="44.49728" lon="1.99173">
        <ele>317</ele>
        <time>2017-09-19T10:09:43Z</time>
      </trkpt>
      <trkpt lat="44.49732" lon="1.99149">
        <ele>317</ele>
        <time>2017-09-19T10:09:55Z</time>
      </trkpt>
      <trkpt lat="44.49732" lon="1.99136">
        <ele>317</ele>
        <time>2017-09-19T10:10:01Z</time>
      </trkpt>
      <trkpt lat="44.49735" lon="1.99122">
        <ele>316</ele>
        <time>2017-09-19T10:10:07Z</time>
      </trkpt>
      <trkpt lat="44.49743" lon="1.99064">
        <ele>315</ele>
        <time>2017-09-19T10:10:37Z</time>
      </trkpt>
      <trkpt lat="44.49746" lon="1.99052">
        <ele>315</ele>
        <time>2017-09-19T10:10:43Z</time>
      </trkpt>
      <trkpt lat="44.49746" lon="1.99041">
        <ele>315</ele>
        <time>2017-09-19T10:10:50Z</time>
      </trkpt>
      <trkpt lat="44.49747" lon="1.9903">
        <ele>315</ele>
        <time>2017-09-19T10:10:56Z</time>
      </trkpt>
      <trkpt lat="44.49748" lon="1.99024">
        <ele>315</ele>
        <time>2017-09-19T10:11:00Z</time>
      </trkpt>
      <trkpt lat="44.49748" lon="1.99018">
        <ele>315</ele>
        <time>2017-09-19T10:11:03Z</time>
      </trkpt>
      <trkpt lat="44.4975" lon="1.99004">
        <ele>315</ele>
        <time>2017-09-19T10:11:11Z</time>
      </trkpt>
      <trkpt lat="44.49748" lon="1.98945">
        <ele>313</ele>
        <time>2017-09-19T10:11:41Z</time>
      </trkpt>
      <trkpt lat="44.49746" lon="1.98931">
        <ele>312</ele>
        <time>2017-09-19T10:11:49Z</time>
      </trkpt>
      <trkpt lat="44.49745" lon="1.9892">
        <ele>312</ele>
        <time>2017-09-19T10:11:55Z</time>
      </trkpt>
      <trkpt lat="44.49744" lon="1.98916">
        <ele>311</ele>
        <time>2017-09-19T10:11:57Z</time>
      </trkpt>
      <trkpt lat="44.49742" lon="1.98907">
        <ele>311</ele>
        <time>2017-09-19T10:12:02Z</time>
      </trkpt>
      <trkpt lat="44.49743" lon="1.98893">
        <ele>311</ele>
        <time>2017-09-19T10:12:09Z</time>
      </trkpt>
      <trkpt lat="44.49743" lon="1.98854">
        <ele>311</ele>
        <time>2017-09-19T10:12:31Z</time>
      </trkpt>
      <trkpt lat="44.49744" lon="1.98837">
        <ele>310</ele>
        <time>2017-09-19T10:12:41Z</time>
      </trkpt>
      <trkpt lat="44.49743" lon="1.98825">
        <ele>310</ele>
        <time>2017-09-19T10:12:47Z</time>
      </trkpt>
      <trkpt lat="44.49741" lon="1.98777">
        <ele>310</ele>
        <time>2017-09-19T10:13:12Z</time>
      </trkpt>
      <trkpt lat="44.4974" lon="1.98762">
        <ele>309</ele>
        <time>2017-09-19T10:13:19Z</time>
      </trkpt>
      <trkpt lat="44.49741" lon="1.98752">
        <ele>309</ele>
        <time>2017-09-19T10:13:25Z</time>
      </trkpt>
      <trkpt lat="44.49739" lon="1.98737">
        <ele>309</ele>
        <time>2017-09-19T10:13:33Z</time>
      </trkpt>
      <trkpt lat="44.49735" lon="1.98695">
        <ele>309</ele>
        <time>2017-09-19T10:13:55Z</time>
      </trkpt>
      <trkpt lat="44.49734" lon="1.9869">
        <ele>309</ele>
        <time>2017-09-19T10:13:58Z</time>
      </trkpt>
      <trkpt lat="44.49731" lon="1.98638">
        <ele>311</ele>
        <time>2017-09-19T10:14:28Z</time>
      </trkpt>
      <trkpt lat="44.49728" lon="1.98629">
        <ele>311</ele>
        <time>2017-09-19T10:14:32Z</time>
      </trkpt>
      <trkpt lat="44.49727" lon="1.98621">
        <ele>311</ele>
        <time>2017-09-19T10:14:36Z</time>
      </trkpt>
      <trkpt lat="44.49727" lon="1.98618">
        <ele>311</ele>
        <time>2017-09-19T10:14:39Z</time>
      </trkpt>
      <trkpt lat="44.49726" lon="1.98614">
        <ele>311</ele>
        <time>2017-09-19T10:14:41Z</time>
      </trkpt>
      <trkpt lat="44.49725" lon="1.9861">
        <ele>311</ele>
        <time>2017-09-19T10:14:44Z</time>
      </trkpt>
      <trkpt lat="44.49722" lon="1.98595">
        <ele>311</ele>
        <time>2017-09-19T10:14:51Z</time>
      </trkpt>
      <trkpt lat="44.49719" lon="1.98585">
        <ele>312</ele>
        <time>2017-09-19T10:14:58Z</time>
      </trkpt>
      <trkpt lat="44.49718" lon="1.98579">
        <ele>314</ele>
        <time>2017-09-19T10:15:01Z</time>
      </trkpt>
      <trkpt lat="44.49715" lon="1.98562">
        <ele>314</ele>
        <time>2017-09-19T10:15:14Z</time>
      </trkpt>
      <trkpt lat="44.49713" lon="1.98557">
        <ele>314</ele>
        <time>2017-09-19T10:15:17Z</time>
      </trkpt>
      <trkpt lat="44.49711" lon="1.98546">
        <ele>314</ele>
        <time>2017-09-19T10:15:23Z</time>
      </trkpt>
      <trkpt lat="44.49708" lon="1.98536">
        <ele>314</ele>
        <time>2017-09-19T10:15:29Z</time>
      </trkpt>
      <trkpt lat="44.49704" lon="1.98503">
        <ele>314</ele>
        <time>2017-09-19T10:15:48Z</time>
      </trkpt>
      <trkpt lat="44.49699" lon="1.98489">
        <ele>317</ele>
        <time>2017-09-19T10:15:56Z</time>
      </trkpt>
      <trkpt lat="44.49697" lon="1.98484">
        <ele>317</ele>
        <time>2017-09-19T10:15:59Z</time>
      </trkpt>
      <trkpt lat="44.49686" lon="1.98444">
        <ele>317</ele>
        <time>2017-09-19T10:16:21Z</time>
      </trkpt>
      <trkpt lat="44.49684" lon="1.98438">
        <ele>317</ele>
        <time>2017-09-19T10:16:24Z</time>
      </trkpt>
      <trkpt lat="44.49684" lon="1.98432">
        <ele>317</ele>
        <time>2017-09-19T10:16:28Z</time>
      </trkpt>
      <trkpt lat="44.49684" lon="1.98393">
        <ele>318</ele>
        <time>2017-09-19T10:16:52Z</time>
      </trkpt>
      <trkpt lat="44.49691" lon="1.98349">
        <ele>317</ele>
        <time>2017-09-19T10:17:15Z</time>
      </trkpt>
      <trkpt lat="44.49693" lon="1.98344">
        <ele>317</ele>
        <time>2017-09-19T10:17:18Z</time>
      </trkpt>
      <trkpt lat="44.49696" lon="1.98341">
        <ele>318</ele>
        <time>2017-09-19T10:17:21Z</time>
      </trkpt>
      <trkpt lat="44.49698" lon="1.98339">
        <ele>318</ele>
        <time>2017-09-19T10:17:23Z</time>
      </trkpt>
      <trkpt lat="44.49706" lon="1.98339">
        <ele>318</ele>
        <time>2017-09-19T10:17:30Z</time>
      </trkpt>
      <trkpt lat="44.49709" lon="1.98338">
        <ele>319</ele>
        <time>2017-09-19T10:18:41Z</time>
      </trkpt>
      <trkpt lat="44.49709" lon="1.98339">
        <ele>319</ele>
        <time>2017-09-19T10:19:44Z</time>
      </trkpt>
      <trkpt lat="44.49712" lon="1.98343">
        <ele>319</ele>
        <time>2017-09-19T10:20:47Z</time>
      </trkpt>
      <trkpt lat="44.49715" lon="1.98341">
        <ele>319</ele>
        <time>2017-09-19T10:21:05Z</time>
      </trkpt>
      <trkpt lat="44.49731" lon="1.98343">
        <ele>320</ele>
        <time>2017-09-19T10:21:19Z</time>
      </trkpt>
      <trkpt lat="44.49734" lon="1.98342">
        <ele>320</ele>
        <time>2017-09-19T10:21:22Z</time>
      </trkpt>
      <trkpt lat="44.49743" lon="1.98338">
        <ele>321</ele>
        <time>2017-09-19T10:21:30Z</time>
      </trkpt>
      <trkpt lat="44.49751" lon="1.98333">
        <ele>322</ele>
        <time>2017-09-19T10:21:38Z</time>
      </trkpt>
      <trkpt lat="44.49765" lon="1.98305">
        <ele>325</ele>
        <time>2017-09-19T10:22:02Z</time>
      </trkpt>
      <trkpt lat="44.4978" lon="1.98272">
        <ele>325</ele>
        <time>2017-09-19T10:22:30Z</time>
      </trkpt>
      <trkpt lat="44.49782" lon="1.98262">
        <ele>325</ele>
        <time>2017-09-19T10:22:37Z</time>
      </trkpt>
      <trkpt lat="44.49786" lon="1.98252">
        <ele>326</ele>
        <time>2017-09-19T10:22:44Z</time>
      </trkpt>
      <trkpt lat="44.49787" lon="1.98245">
        <ele>326</ele>
        <time>2017-09-19T10:22:49Z</time>
      </trkpt>
      <trkpt lat="44.49791" lon="1.9822">
        <ele>327</ele>
        <time>2017-09-19T10:23:06Z</time>
      </trkpt>
      <trkpt lat="44.49793" lon="1.98214">
        <ele>327</ele>
        <time>2017-09-19T10:23:10Z</time>
      </trkpt>
      <trkpt lat="44.49796" lon="1.98199">
        <ele>327</ele>
        <time>2017-09-19T10:23:20Z</time>
      </trkpt>
      <trkpt lat="44.49797" lon="1.98193">
        <ele>327</ele>
        <time>2017-09-19T10:23:24Z</time>
      </trkpt>
      <trkpt lat="44.49798" lon="1.98187">
        <ele>328</ele>
        <time>2017-09-19T10:23:27Z</time>
      </trkpt>
      <trkpt lat="44.49799" lon="1.9818">
        <ele>328</ele>
        <time>2017-09-19T10:23:33Z</time>
      </trkpt>
      <trkpt lat="44.498" lon="1.98172">
        <ele>328</ele>
        <time>2017-09-19T10:23:38Z</time>
      </trkpt>
      <trkpt lat="44.49801" lon="1.98164">
        <ele>329</ele>
        <time>2017-09-19T10:23:42Z</time>
      </trkpt>
      <trkpt lat="44.49803" lon="1.9815">
        <ele>329</ele>
        <time>2017-09-19T10:23:50Z</time>
      </trkpt>
      <trkpt lat="44.49806" lon="1.98144">
        <ele>329</ele>
        <time>2017-09-19T10:23:54Z</time>
      </trkpt>
      <trkpt lat="44.49809" lon="1.98138">
        <ele>330</ele>
        <time>2017-09-19T10:23:58Z</time>
      </trkpt>
      <trkpt lat="44.49816" lon="1.98125">
        <ele>330</ele>
        <time>2017-09-19T10:24:08Z</time>
      </trkpt>
      <trkpt lat="44.49821" lon="1.9812">
        <ele>330</ele>
        <time>2017-09-19T10:24:12Z</time>
      </trkpt>
      <trkpt lat="44.4983" lon="1.98107">
        <ele>332</ele>
        <time>2017-09-19T10:24:24Z</time>
      </trkpt>
      <trkpt lat="44.49837" lon="1.98093">
        <ele>338</ele>
        <time>2017-09-19T10:24:35Z</time>
      </trkpt>
      <trkpt lat="44.49842" lon="1.98088">
        <ele>338</ele>
        <time>2017-09-19T10:24:39Z</time>
      </trkpt>
      <trkpt lat="44.49848" lon="1.98077">
        <ele>339</ele>
        <time>2017-09-19T10:24:48Z</time>
      </trkpt>
      <trkpt lat="44.49848" lon="1.98072">
        <ele>339</ele>
        <time>2017-09-19T10:25:05Z</time>
      </trkpt>
      <trkpt lat="44.4985" lon="1.98065">
        <ele>339</ele>
        <time>2017-09-19T10:25:12Z</time>
      </trkpt>
      <trkpt lat="44.49853" lon="1.98057">
        <ele>339</ele>
        <time>2017-09-19T10:25:18Z</time>
      </trkpt>
      <trkpt lat="44.49857" lon="1.98047">
        <ele>340</ele>
        <time>2017-09-19T10:25:25Z</time>
      </trkpt>
      <trkpt lat="44.4986" lon="1.9804">
        <ele>340</ele>
        <time>2017-09-19T10:25:29Z</time>
      </trkpt>
      <trkpt lat="44.49863" lon="1.98032">
        <ele>340</ele>
        <time>2017-09-19T10:25:35Z</time>
      </trkpt>
      <trkpt lat="44.49871" lon="1.98015">
        <ele>340</ele>
        <time>2017-09-19T10:25:47Z</time>
      </trkpt>
      <trkpt lat="44.49872" lon="1.98008">
        <ele>340</ele>
        <time>2017-09-19T10:25:52Z</time>
      </trkpt>
      <trkpt lat="44.49874" lon="1.98">
        <ele>340</ele>
        <time>2017-09-19T10:25:56Z</time>
      </trkpt>
      <trkpt lat="44.49878" lon="1.97992">
        <ele>340</ele>
        <time>2017-09-19T10:26:00Z</time>
      </trkpt>
      <trkpt lat="44.49879" lon="1.97984">
        <ele>340</ele>
        <time>2017-09-19T10:26:04Z</time>
      </trkpt>
      <trkpt lat="44.49883" lon="1.97964">
        <ele>340</ele>
        <time>2017-09-19T10:26:14Z</time>
      </trkpt>
      <trkpt lat="44.49882" lon="1.97948">
        <ele>340</ele>
        <time>2017-09-19T10:26:22Z</time>
      </trkpt>
      <trkpt lat="44.49883" lon="1.97941">
        <ele>340</ele>
        <time>2017-09-19T10:26:27Z</time>
      </trkpt>
      <trkpt lat="44.49885" lon="1.97933">
        <ele>340</ele>
        <time>2017-09-19T10:26:31Z</time>
      </trkpt>
      <trkpt lat="44.49886" lon="1.97927">
        <ele>340</ele>
        <time>2017-09-19T10:26:34Z</time>
      </trkpt>
      <trkpt lat="44.49886" lon="1.97919">
        <ele>340</ele>
        <time>2017-09-19T10:26:38Z</time>
      </trkpt>
      <trkpt lat="44.49889" lon="1.97906">
        <ele>339</ele>
        <time>2017-09-19T10:26:45Z</time>
      </trkpt>
      <trkpt lat="44.49894" lon="1.97893">
        <ele>339</ele>
        <time>2017-09-19T10:26:53Z</time>
      </trkpt>
      <trkpt lat="44.49901" lon="1.97861">
        <ele>339</ele>
        <time>2017-09-19T10:27:13Z</time>
      </trkpt>
      <trkpt lat="44.4991" lon="1.97835">
        <ele>339</ele>
        <time>2017-09-19T10:27:31Z</time>
      </trkpt>
      <trkpt lat="44.49912" lon="1.97827">
        <ele>339</ele>
        <time>2017-09-19T10:27:35Z</time>
      </trkpt>
      <trkpt lat="44.49917" lon="1.97805">
        <ele>340</ele>
        <time>2017-09-19T10:27:49Z</time>
      </trkpt>
      <trkpt lat="44.49919" lon="1.978">
        <ele>340</ele>
        <time>2017-09-19T10:27:52Z</time>
      </trkpt>
      <trkpt lat="44.49922" lon="1.97793">
        <ele>340</ele>
        <time>2017-09-19T10:27:56Z</time>
      </trkpt>
      <trkpt lat="44.49924" lon="1.97788">
        <ele>339</ele>
        <time>2017-09-19T10:28:00Z</time>
      </trkpt>
      <trkpt lat="44.49927" lon="1.97773">
        <ele>339</ele>
        <time>2017-09-19T10:28:08Z</time>
      </trkpt>
      <trkpt lat="44.49929" lon="1.97767">
        <ele>339</ele>
        <time>2017-09-19T10:28:11Z</time>
      </trkpt>
      <trkpt lat="44.4993" lon="1.97761">
        <ele>338</ele>
        <time>2017-09-19T10:28:14Z</time>
      </trkpt>
      <trkpt lat="44.49932" lon="1.97756">
        <ele>338</ele>
        <time>2017-09-19T10:28:18Z</time>
      </trkpt>
      <trkpt lat="44.49936" lon="1.97744">
        <ele>337</ele>
        <time>2017-09-19T10:28:25Z</time>
      </trkpt>
      <trkpt lat="44.49938" lon="1.97739">
        <ele>337</ele>
        <time>2017-09-19T10:28:28Z</time>
      </trkpt>
      <trkpt lat="44.49944" lon="1.97722">
        <ele>337</ele>
        <time>2017-09-19T10:28:38Z</time>
      </trkpt>
      <trkpt lat="44.49946" lon="1.97718">
        <ele>337</ele>
        <time>2017-09-19T10:28:41Z</time>
      </trkpt>
      <trkpt lat="44.49948" lon="1.97712">
        <ele>336</ele>
        <time>2017-09-19T10:28:45Z</time>
      </trkpt>
      <trkpt lat="44.4995" lon="1.97706">
        <ele>336</ele>
        <time>2017-09-19T10:28:49Z</time>
      </trkpt>
      <trkpt lat="44.4996" lon="1.97674">
        <ele>336</ele>
        <time>2017-09-19T10:29:09Z</time>
      </trkpt>
      <trkpt lat="44.49964" lon="1.97663">
        <ele>334</ele>
        <time>2017-09-19T10:29:17Z</time>
      </trkpt>
      <trkpt lat="44.49965" lon="1.97657">
        <ele>334</ele>
        <time>2017-09-19T10:29:21Z</time>
      </trkpt>
      <trkpt lat="44.49972" lon="1.97636">
        <ele>334</ele>
        <time>2017-09-19T10:29:35Z</time>
      </trkpt>
      <trkpt lat="44.49977" lon="1.97609">
        <ele>334</ele>
        <time>2017-09-19T10:29:52Z</time>
      </trkpt>
      <trkpt lat="44.49981" lon="1.97594">
        <ele>333</ele>
        <time>2017-09-19T10:30:01Z</time>
      </trkpt>
      <trkpt lat="44.49987" lon="1.97582">
        <ele>332</ele>
        <time>2017-09-19T10:30:10Z</time>
      </trkpt>
      <trkpt lat="44.49993" lon="1.97563">
        <ele>332</ele>
        <time>2017-09-19T10:30:24Z</time>
      </trkpt>
      <trkpt lat="44.49993" lon="1.9756">
        <ele>332</ele>
        <time>2017-09-19T10:30:26Z</time>
      </trkpt>
      <trkpt lat="44.49997" lon="1.97547">
        <ele>332</ele>
        <time>2017-09-19T10:30:35Z</time>
      </trkpt>
      <trkpt lat="44.5" lon="1.97533">
        <ele>332</ele>
        <time>2017-09-19T10:30:43Z</time>
      </trkpt>
      <trkpt lat="44.50002" lon="1.97519">
        <ele>332</ele>
        <time>2017-09-19T10:30:52Z</time>
      </trkpt>
      <trkpt lat="44.50012" lon="1.97476">
        <ele>332</ele>
        <time>2017-09-19T10:31:18Z</time>
      </trkpt>
      <trkpt lat="44.50016" lon="1.97468">
        <ele>333</ele>
        <time>2017-09-19T10:31:24Z</time>
      </trkpt>
      <trkpt lat="44.50048" lon="1.97446">
        <ele>333</ele>
        <time>2017-09-19T10:31:54Z</time>
      </trkpt>
      <trkpt lat="44.50052" lon="1.97445">
        <ele>333</ele>
        <time>2017-09-19T10:31:58Z</time>
      </trkpt>
      <trkpt lat="44.50054" lon="1.97443">
        <ele>333</ele>
        <time>2017-09-19T10:32:03Z</time>
      </trkpt>
      <trkpt lat="44.50078" lon="1.97443">
        <ele>333</ele>
        <time>2017-09-19T10:32:28Z</time>
      </trkpt>
      <trkpt lat="44.5008" lon="1.97442">
        <ele>333</ele>
        <time>2017-09-19T10:32:30Z</time>
      </trkpt>
      <trkpt lat="44.50104" lon="1.9743">
        <ele>336</ele>
        <time>2017-09-19T10:32:52Z</time>
      </trkpt>
      <trkpt lat="44.50133" lon="1.9741">
        <ele>337</ele>
        <time>2017-09-19T10:33:21Z</time>
      </trkpt>
      <trkpt lat="44.50138" lon="1.97407">
        <ele>338</ele>
        <time>2017-09-19T10:33:25Z</time>
      </trkpt>
      <trkpt lat="44.50141" lon="1.97405">
        <ele>338</ele>
        <time>2017-09-19T10:33:28Z</time>
      </trkpt>
      <trkpt lat="44.50148" lon="1.97397">
        <ele>338</ele>
        <time>2017-09-19T10:33:36Z</time>
      </trkpt>
      <trkpt lat="44.50169" lon="1.97378">
        <ele>342</ele>
        <time>2017-09-19T10:33:57Z</time>
      </trkpt>
      <trkpt lat="44.5018" lon="1.97363">
        <ele>342</ele>
        <time>2017-09-19T10:34:10Z</time>
      </trkpt>
      <trkpt lat="44.50183" lon="1.97359">
        <ele>342</ele>
        <time>2017-09-19T10:34:14Z</time>
      </trkpt>
      <trkpt lat="44.50192" lon="1.97348">
        <ele>342</ele>
        <time>2017-09-19T10:34:23Z</time>
      </trkpt>
      <trkpt lat="44.50195" lon="1.97344">
        <ele>342</ele>
        <time>2017-09-19T10:34:26Z</time>
      </trkpt>
      <trkpt lat="44.50218" lon="1.97308">
        <ele>341</ele>
        <time>2017-09-19T10:34:58Z</time>
      </trkpt>
      <trkpt lat="44.50222" lon="1.97305">
        <ele>341</ele>
        <time>2017-09-19T10:35:01Z</time>
      </trkpt>
      <trkpt lat="44.50225" lon="1.97301">
        <ele>341</ele>
        <time>2017-09-19T10:35:04Z</time>
      </trkpt>
      <trkpt lat="44.50229" lon="1.97296">
        <ele>341</ele>
        <time>2017-09-19T10:35:08Z</time>
      </trkpt>
      <trkpt lat="44.50235" lon="1.97287">
        <ele>341</ele>
        <time>2017-09-19T10:35:14Z</time>
      </trkpt>
      <trkpt lat="44.50244" lon="1.97274">
        <ele>341</ele>
        <time>2017-09-19T10:35:24Z</time>
      </trkpt>
      <trkpt lat="44.50247" lon="1.97269">
        <ele>341</ele>
        <time>2017-09-19T10:35:28Z</time>
      </trkpt>
      <trkpt lat="44.50253" lon="1.97261">
        <ele>344</ele>
        <time>2017-09-19T10:35:34Z</time>
      </trkpt>
      <trkpt lat="44.50271" lon="1.97245">
        <ele>343</ele>
        <time>2017-09-19T10:35:50Z</time>
      </trkpt>
      <trkpt lat="44.50275" lon="1.9724">
        <ele>343</ele>
        <time>2017-09-19T10:35:54Z</time>
      </trkpt>
      <trkpt lat="44.50281" lon="1.97229">
        <ele>344</ele>
        <time>2017-09-19T10:36:02Z</time>
      </trkpt>
      <trkpt lat="44.50285" lon="1.97227">
        <ele>344</ele>
        <time>2017-09-19T10:36:06Z</time>
      </trkpt>
      <trkpt lat="44.50289" lon="1.97223">
        <ele>344</ele>
        <time>2017-09-19T10:36:09Z</time>
      </trkpt>
      <trkpt lat="44.50324" lon="1.97196">
        <ele>345</ele>
        <time>2017-09-19T10:36:39Z</time>
      </trkpt>
      <trkpt lat="44.50327" lon="1.97193">
        <ele>345</ele>
        <time>2017-09-19T10:36:43Z</time>
      </trkpt>
      <trkpt lat="44.5033" lon="1.97191">
        <ele>345</ele>
        <time>2017-09-19T10:36:46Z</time>
      </trkpt>
      <trkpt lat="44.50332" lon="1.97188">
        <ele>345</ele>
        <time>2017-09-19T10:36:49Z</time>
      </trkpt>
      <trkpt lat="44.50357" lon="1.97164">
        <ele>343</ele>
        <time>2017-09-19T10:37:14Z</time>
      </trkpt>
      <trkpt lat="44.5036" lon="1.97161">
        <ele>343</ele>
        <time>2017-09-19T10:37:17Z</time>
      </trkpt>
      <trkpt lat="44.50395" lon="1.97134">
        <ele>342</ele>
        <time>2017-09-19T10:37:48Z</time>
      </trkpt>
      <trkpt lat="44.50424" lon="1.97117">
        <ele>340</ele>
        <time>2017-09-19T10:38:17Z</time>
      </trkpt>
      <trkpt lat="44.5046" lon="1.97109">
        <ele>339</ele>
        <time>2017-09-19T10:38:48Z</time>
      </trkpt>
      <trkpt lat="44.50473" lon="1.97108">
        <ele>339</ele>
        <time>2017-09-19T10:38:58Z</time>
      </trkpt>
      <trkpt lat="44.50476" lon="1.97108">
        <ele>339</ele>
        <time>2017-09-19T10:39:01Z</time>
      </trkpt>
      <trkpt lat="44.50491" lon="1.97107">
        <ele>338</ele>
        <time>2017-09-19T10:39:14Z</time>
      </trkpt>
      <trkpt lat="44.50494" lon="1.97108">
        <ele>338</ele>
        <time>2017-09-19T10:39:17Z</time>
      </trkpt>
      <trkpt lat="44.505" lon="1.97109">
        <ele>338</ele>
        <time>2017-09-19T10:39:23Z</time>
      </trkpt>
      <trkpt lat="44.50537" lon="1.97109">
        <ele>339</ele>
        <time>2017-09-19T10:39:54Z</time>
      </trkpt>
      <trkpt lat="44.50552" lon="1.9711">
        <ele>339</ele>
        <time>2017-09-19T10:40:07Z</time>
      </trkpt>
      <trkpt lat="44.50556" lon="1.97111">
        <ele>339</ele>
        <time>2017-09-19T10:40:11Z</time>
      </trkpt>
      <trkpt lat="44.5056" lon="1.97112">
        <ele>339</ele>
        <time>2017-09-19T10:40:15Z</time>
      </trkpt>
      <trkpt lat="44.50568" lon="1.97114">
        <ele>339</ele>
        <time>2017-09-19T10:40:23Z</time>
      </trkpt>
      <trkpt lat="44.50575" lon="1.97114">
        <ele>340</ele>
        <time>2017-09-19T10:40:31Z</time>
      </trkpt>
      <trkpt lat="44.50578" lon="1.97113">
        <ele>340</ele>
        <time>2017-09-19T10:40:34Z</time>
      </trkpt>
      <trkpt lat="44.50582" lon="1.97112">
        <ele>340</ele>
        <time>2017-09-19T10:40:37Z</time>
      </trkpt>
      <trkpt lat="44.50607" lon="1.97105">
        <ele>341</ele>
        <time>2017-09-19T10:40:58Z</time>
      </trkpt>
      <trkpt lat="44.5061" lon="1.97104">
        <ele>341</ele>
        <time>2017-09-19T10:41:02Z</time>
      </trkpt>
      <trkpt lat="44.50642" lon="1.971">
        <ele>340</ele>
        <time>2017-09-19T10:41:29Z</time>
      </trkpt>
      <trkpt lat="44.50651" lon="1.97098">
        <ele>340</ele>
        <time>2017-09-19T10:41:38Z</time>
      </trkpt>
      <trkpt lat="44.50655" lon="1.97097">
        <ele>340</ele>
        <time>2017-09-19T10:41:41Z</time>
      </trkpt>
      <trkpt lat="44.50659" lon="1.97096">
        <ele>340</ele>
        <time>2017-09-19T10:41:44Z</time>
      </trkpt>
      <trkpt lat="44.50681" lon="1.97088">
        <ele>339</ele>
        <time>2017-09-19T10:42:04Z</time>
      </trkpt>
      <trkpt lat="44.50693" lon="1.97083">
        <ele>339</ele>
        <time>2017-09-19T10:42:16Z</time>
      </trkpt>
      <trkpt lat="44.50701" lon="1.9708">
        <ele>339</ele>
        <time>2017-09-19T10:42:24Z</time>
      </trkpt>
      <trkpt lat="44.50713" lon="1.97073">
        <ele>338</ele>
        <time>2017-09-19T10:42:36Z</time>
      </trkpt>
      <trkpt lat="44.50718" lon="1.97071">
        <ele>338</ele>
        <time>2017-09-19T10:42:40Z</time>
      </trkpt>
      <trkpt lat="44.50727" lon="1.97066">
        <ele>338</ele>
        <time>2017-09-19T10:42:48Z</time>
      </trkpt>
      <trkpt lat="44.50731" lon="1.97064">
        <ele>338</ele>
        <time>2017-09-19T10:42:52Z</time>
      </trkpt>
      <trkpt lat="44.50736" lon="1.97062">
        <ele>338</ele>
        <time>2017-09-19T10:42:56Z</time>
      </trkpt>
      <trkpt lat="44.5074" lon="1.97061">
        <ele>338</ele>
        <time>2017-09-19T10:43:00Z</time>
      </trkpt>
      <trkpt lat="44.50753" lon="1.97054">
        <ele>336</ele>
        <time>2017-09-19T10:43:12Z</time>
      </trkpt>
      <trkpt lat="44.50761" lon="1.97049">
        <ele>335</ele>
        <time>2017-09-19T10:43:20Z</time>
      </trkpt>
      <trkpt lat="44.50769" lon="1.97046">
        <ele>335</ele>
        <time>2017-09-19T10:43:26Z</time>
      </trkpt>
      <trkpt lat="44.50785" lon="1.97039">
        <ele>335</ele>
        <time>2017-09-19T10:43:37Z</time>
      </trkpt>
      <trkpt lat="44.50788" lon="1.97037">
        <ele>335</ele>
        <time>2017-09-19T10:43:41Z</time>
      </trkpt>
      <trkpt lat="44.50804" lon="1.97028">
        <ele>334</ele>
        <time>2017-09-19T10:43:52Z</time>
      </trkpt>
      <trkpt lat="44.50807" lon="1.97027">
        <ele>334</ele>
        <time>2017-09-19T10:43:56Z</time>
      </trkpt>
      <trkpt lat="44.5081" lon="1.97023">
        <ele>334</ele>
        <time>2017-09-19T10:43:59Z</time>
      </trkpt>
      <trkpt lat="44.50822" lon="1.97011">
        <ele>333</ele>
        <time>2017-09-19T10:44:12Z</time>
      </trkpt>
      <trkpt lat="44.50831" lon="1.97006">
        <ele>332</ele>
        <time>2017-09-19T10:44:17Z</time>
      </trkpt>
      <trkpt lat="44.50843" lon="1.96994">
        <ele>331</ele>
        <time>2017-09-19T10:44:29Z</time>
      </trkpt>
      <trkpt lat="44.50846" lon="1.96992">
        <ele>330</ele>
        <time>2017-09-19T10:44:32Z</time>
      </trkpt>
      <trkpt lat="44.5085" lon="1.96989">
        <ele>330</ele>
        <time>2017-09-19T10:44:37Z</time>
      </trkpt>
      <trkpt lat="44.50853" lon="1.96984">
        <ele>330</ele>
        <time>2017-09-19T10:44:43Z</time>
      </trkpt>
      <trkpt lat="44.50857" lon="1.9698">
        <ele>330</ele>
        <time>2017-09-19T10:44:48Z</time>
      </trkpt>
      <trkpt lat="44.50861" lon="1.96975">
        <ele>330</ele>
        <time>2017-09-19T10:44:53Z</time>
      </trkpt>
      <trkpt lat="44.50871" lon="1.96967">
        <ele>330</ele>
        <time>2017-09-19T10:45:00Z</time>
      </trkpt>
      <trkpt lat="44.50887" lon="1.96959">
        <ele>330</ele>
        <time>2017-09-19T10:45:16Z</time>
      </trkpt>
      <trkpt lat="44.50909" lon="1.96957">
        <ele>330</ele>
        <time>2017-09-19T10:45:34Z</time>
      </trkpt>
      <trkpt lat="44.50914" lon="1.96956">
        <ele>330</ele>
        <time>2017-09-19T10:45:38Z</time>
      </trkpt>
      <trkpt lat="44.50918" lon="1.96951">
        <ele>329</ele>
        <time>2017-09-19T10:45:42Z</time>
      </trkpt>
      <trkpt lat="44.50921" lon="1.96946">
        <ele>329</ele>
        <time>2017-09-19T10:45:46Z</time>
      </trkpt>
      <trkpt lat="44.50921" lon="1.96938">
        <ele>329</ele>
        <time>2017-09-19T10:45:52Z</time>
      </trkpt>
      <trkpt lat="44.50915" lon="1.9692">
        <ele>328</ele>
        <time>2017-09-19T10:46:03Z</time>
      </trkpt>
      <trkpt lat="44.50913" lon="1.96916">
        <ele>328</ele>
        <time>2017-09-19T10:46:06Z</time>
      </trkpt>
      <trkpt lat="44.50901" lon="1.96886">
        <ele>327</ele>
        <time>2017-09-19T10:46:24Z</time>
      </trkpt>
      <trkpt lat="44.509" lon="1.96882">
        <ele>327</ele>
        <time>2017-09-19T10:46:27Z</time>
      </trkpt>
      <trkpt lat="44.50898" lon="1.96883">
        <ele>327</ele>
        <time>2017-09-19T10:47:35Z</time>
      </trkpt>
      <trkpt lat="44.50898" lon="1.96888">
        <ele>327</ele>
        <time>2017-09-19T10:48:10Z</time>
      </trkpt>
      <trkpt lat="44.50898" lon="1.96892">
        <ele>328</ele>
        <time>2017-09-19T10:48:14Z</time>
      </trkpt>
      <trkpt lat="44.509" lon="1.96896">
        <ele>328</ele>
        <time>2017-09-19T10:48:27Z</time>
      </trkpt>
      <trkpt lat="44.50901" lon="1.969">
        <ele>328</ele>
        <time>2017-09-19T10:48:30Z</time>
      </trkpt>
      <trkpt lat="44.50899" lon="1.96903">
        <ele>328</ele>
        <time>2017-09-19T10:48:32Z</time>
      </trkpt>
      <trkpt lat="44.50896" lon="1.96912">
        <ele>328</ele>
        <time>2017-09-19T10:48:41Z</time>
      </trkpt>
      <trkpt lat="44.50894" lon="1.96916">
        <ele>328</ele>
        <time>2017-09-19T10:48:47Z</time>
      </trkpt>
      <trkpt lat="44.50893" lon="1.96923">
        <ele>329</ele>
        <time>2017-09-19T10:52:45Z</time>
      </trkpt>
      <trkpt lat="44.50892" lon="1.96927">
        <ele>329</ele>
        <time>2017-09-19T10:49:25Z</time>
      </trkpt>
      <trkpt lat="44.50892" lon="1.96928">
        <ele>329</ele>
        <time>2017-09-19T10:50:33Z</time>
      </trkpt>
      <trkpt lat="44.50896" lon="1.9693">
        <ele>329</ele>
        <time>2017-09-19T10:51:07Z</time>
      </trkpt>
      <trkpt lat="44.50894" lon="1.96929">
        <ele>329</ele>
        <time>2017-09-19T10:51:47Z</time>
      </trkpt>
      <trkpt lat="44.50892" lon="1.96931">
        <ele>329</ele>
        <time>2017-09-19T10:52:08Z</time>
      </trkpt>
      <trkpt lat="44.50891" lon="1.96934">
        <ele>329</ele>
        <time>2017-09-19T10:52:14Z</time>
      </trkpt>
      <trkpt lat="44.50895" lon="1.96933">
        <ele>329</ele>
        <time>2017-09-19T10:52:34Z</time>
      </trkpt>
      <trkpt lat="44.50895" lon="1.9693">
        <ele>329</ele>
        <time>2017-09-19T10:52:37Z</time>
      </trkpt>
      <trkpt lat="44.50893" lon="1.96926">
        <ele>329</ele>
        <time>2017-09-19T10:54:52Z</time>
      </trkpt>
      <trkpt lat="44.50893" lon="1.96923">
        <ele>329</ele>
        <time>2017-09-19T10:52:45Z</time>
      </trkpt>
      <trkpt lat="44.50893" lon="1.96917">
        <ele>329</ele>
        <time>2017-09-19T10:53:47Z</time>
      </trkpt>
      <trkpt lat="44.50897" lon="1.96906">
        <ele>328</ele>
        <time>2017-09-19T10:53:57Z</time>
      </trkpt>
      <trkpt lat="44.50897" lon="1.96902">
        <ele>328</ele>
        <time>2017-09-19T10:54:14Z</time>
      </trkpt>
      <trkpt lat="44.50889" lon="1.96901">
        <ele>328</ele>
        <time>2017-09-19T10:54:22Z</time>
      </trkpt>
      <trkpt lat="44.50891" lon="1.96903">
        <ele>328</ele>
        <time>2017-09-19T10:54:35Z</time>
      </trkpt>
      <trkpt lat="44.50893" lon="1.96906">
        <ele>328</ele>
        <time>2017-09-19T10:54:38Z</time>
      </trkpt>
      <trkpt lat="44.50893" lon="1.96916">
        <ele>328</ele>
        <time>2017-09-19T10:54:45Z</time>
      </trkpt>
      <trkpt lat="44.50892" lon="1.96921">
        <ele>329</ele>
        <time>2017-09-19T10:54:48Z</time>
      </trkpt>
      <trkpt lat="44.50893" lon="1.96926">
        <ele>329</ele>
        <time>2017-09-19T10:54:52Z</time>
      </trkpt>
      <trkpt lat="44.50891" lon="1.96923">
        <ele>329</ele>
        <time>2017-09-19T10:55:49Z</time>
      </trkpt>
      <trkpt lat="44.50891" lon="1.96919">
        <ele>329</ele>
        <time>2017-09-19T10:55:53Z</time>
      </trkpt>
      <trkpt lat="44.50892" lon="1.96914">
        <ele>328</ele>
        <time>2017-09-19T11:21:45Z</time>
      </trkpt>
      <trkpt lat="44.50896" lon="1.96905">
        <ele>328</ele>
        <time>2017-09-19T10:56:05Z</time>
      </trkpt>
      <trkpt lat="44.50895" lon="1.969">
        <ele>328</ele>
        <time>2017-09-19T10:56:09Z</time>
      </trkpt>
      <trkpt lat="44.50891" lon="1.96901">
        <ele>328</ele>
        <time>2017-09-19T10:56:13Z</time>
      </trkpt>
      <trkpt lat="44.50887" lon="1.969">
        <ele>328</ele>
        <time>2017-09-19T10:56:17Z</time>
      </trkpt>
      <trkpt lat="44.50888" lon="1.96898">
        <ele>328</ele>
        <time>2017-09-19T10:56:34Z</time>
      </trkpt>
      <trkpt lat="44.50892" lon="1.969">
        <ele>328</ele>
        <time>2017-09-19T10:56:38Z</time>
      </trkpt>
      <trkpt lat="44.50894" lon="1.96903">
        <ele>328</ele>
        <time>2017-09-19T10:56:41Z</time>
      </trkpt>
      <trkpt lat="44.50895" lon="1.96908">
        <ele>328</ele>
        <time>2017-09-19T10:56:45Z</time>
      </trkpt>
      <trkpt lat="44.50893" lon="1.96912">
        <ele>328</ele>
        <time>2017-09-19T10:56:50Z</time>
      </trkpt>
      <trkpt lat="44.50892" lon="1.96916">
        <ele>328</ele>
        <time>2017-09-19T11:39:17Z</time>
      </trkpt>
      <trkpt lat="44.5089" lon="1.96918">
        <ele>329</ele>
        <time>2017-09-19T10:57:35Z</time>
      </trkpt>
      <trkpt lat="44.50894" lon="1.96913">
        <ele>328</ele>
        <time>2017-09-19T10:57:46Z</time>
      </trkpt>
      <trkpt lat="44.50896" lon="1.96907">
        <ele>328</ele>
        <time>2017-09-19T10:57:50Z</time>
      </trkpt>
      <trkpt lat="44.50893" lon="1.96902">
        <ele>328</ele>
        <time>2017-09-19T10:57:55Z</time>
      </trkpt>
      <trkpt lat="44.50889" lon="1.96899">
        <ele>328</ele>
        <time>2017-09-19T10:58:00Z</time>
      </trkpt>
      <trkpt lat="44.50887" lon="1.96895">
        <ele>328</ele>
        <time>2017-09-19T10:58:14Z</time>
      </trkpt>
      <trkpt lat="44.50886" lon="1.96895">
        <ele>328</ele>
        <time>2017-09-19T11:11:12Z</time>
      </trkpt>
      <trkpt lat="44.50885" lon="1.96893">
        <ele>328</ele>
        <time>2017-09-19T11:17:00Z</time>
      </trkpt>
      <trkpt lat="44.5089" lon="1.96898">
        <ele>328</ele>
        <time>2017-09-19T11:20:36Z</time>
      </trkpt>
      <trkpt lat="44.50887" lon="1.96899">
        <ele>328</ele>
        <time>2017-09-19T11:21:28Z</time>
      </trkpt>
      <trkpt lat="44.5089" lon="1.96902">
        <ele>328</ele>
        <time>2017-09-19T11:21:32Z</time>
      </trkpt>
      <trkpt lat="44.50893" lon="1.96903">
        <ele>328</ele>
        <time>2017-09-19T11:21:35Z</time>
      </trkpt>
      <trkpt lat="44.50895" lon="1.96906">
        <ele>328</ele>
        <time>2017-09-19T11:21:39Z</time>
      </trkpt>
      <trkpt lat="44.50894" lon="1.9691">
        <ele>328</ele>
        <time>2017-09-19T11:21:42Z</time>
      </trkpt>
      <trkpt lat="44.50892" lon="1.96914">
        <ele>328</ele>
        <time>2017-09-19T11:21:45Z</time>
      </trkpt>
      <trkpt lat="44.5089" lon="1.96916">
        <ele>328</ele>
        <time>2017-09-19T11:21:47Z</time>
      </trkpt>
      <trkpt lat="44.50889" lon="1.96918">
        <ele>329</ele>
        <time>2017-09-19T11:22:50Z</time>
      </trkpt>
      <trkpt lat="44.50892" lon="1.96916">
        <ele>328</ele>
        <time>2017-09-19T11:39:17Z</time>
      </trkpt>
      <trkpt lat="44.50893" lon="1.96913">
        <ele>328</ele>
        <time>2017-09-19T11:39:23Z</time>
      </trkpt>
      <trkpt lat="44.50894" lon="1.96908">
        <ele>328</ele>
        <time>2017-09-19T11:39:43Z</time>
      </trkpt>
      <trkpt lat="44.50896" lon="1.96903">
        <ele>328</ele>
        <time>2017-09-19T11:39:49Z</time>
      </trkpt>
      <trkpt lat="44.50898" lon="1.96898">
        <ele>328</ele>
        <time>2017-09-19T11:39:57Z</time>
      </trkpt>
      <trkpt lat="44.509" lon="1.96893">
        <ele>328</ele>
        <time>2017-09-19T11:40:03Z</time>
      </trkpt>
      <trkpt lat="44.50902" lon="1.96887">
        <ele>327</ele>
        <time>2017-09-19T11:40:09Z</time>
      </trkpt>
      <trkpt lat="44.50901" lon="1.96881">
        <ele>327</ele>
        <time>2017-09-19T11:40:13Z</time>
      </trkpt>
      <trkpt lat="44.50898" lon="1.96878">
        <ele>327</ele>
        <time>2017-09-19T11:40:16Z</time>
      </trkpt>
      <trkpt lat="44.50895" lon="1.96868">
        <ele>327</ele>
        <time>2017-09-19T11:40:25Z</time>
      </trkpt>
      <trkpt lat="44.50893" lon="1.96862">
        <ele>327</ele>
        <time>2017-09-19T11:40:31Z</time>
      </trkpt>
      <trkpt lat="44.50893" lon="1.96858">
        <ele>327</ele>
        <time>2017-09-19T11:40:34Z</time>
      </trkpt>
      <trkpt lat="44.50891" lon="1.96853">
        <ele>327</ele>
        <time>2017-09-19T11:40:37Z</time>
      </trkpt>
      <trkpt lat="44.5089" lon="1.9685">
        <ele>327</ele>
        <time>2017-09-19T11:40:41Z</time>
      </trkpt>
      <trkpt lat="44.5089" lon="1.96845">
        <ele>327</ele>
        <time>2017-09-19T11:40:44Z</time>
      </trkpt>
      <trkpt lat="44.50886" lon="1.96833">
        <ele>325</ele>
        <time>2017-09-19T11:40:55Z</time>
      </trkpt>
      <trkpt lat="44.50885" lon="1.96828">
        <ele>325</ele>
        <time>2017-09-19T11:40:58Z</time>
      </trkpt>
      <trkpt lat="44.50883" lon="1.96817">
        <ele>325</ele>
        <time>2017-09-19T11:41:07Z</time>
      </trkpt>
      <trkpt lat="44.50882" lon="1.96813">
        <ele>325</ele>
        <time>2017-09-19T11:41:10Z</time>
      </trkpt>
      <trkpt lat="44.5088" lon="1.96805">
        <ele>325</ele>
        <time>2017-09-19T11:41:15Z</time>
      </trkpt>
      <trkpt lat="44.5088" lon="1.96802">
        <ele>325</ele>
        <time>2017-09-19T11:41:17Z</time>
      </trkpt>
      <trkpt lat="44.50879" lon="1.96796">
        <ele>325</ele>
        <time>2017-09-19T11:41:20Z</time>
      </trkpt>
      <trkpt lat="44.50878" lon="1.96792">
        <ele>325</ele>
        <time>2017-09-19T11:41:23Z</time>
      </trkpt>
      <trkpt lat="44.50877" lon="1.96789">
        <ele>325</ele>
        <time>2017-09-19T11:41:26Z</time>
      </trkpt>
      <trkpt lat="44.50876" lon="1.96784">
        <ele>325</ele>
        <time>2017-09-19T11:41:28Z</time>
      </trkpt>
      <trkpt lat="44.50876" lon="1.9678">
        <ele>325</ele>
        <time>2017-09-19T11:41:31Z</time>
      </trkpt>
      <trkpt lat="44.50873" lon="1.96768">
        <ele>325</ele>
        <time>2017-09-19T11:41:40Z</time>
      </trkpt>
      <trkpt lat="44.50872" lon="1.96763">
        <ele>325</ele>
        <time>2017-09-19T11:41:43Z</time>
      </trkpt>
      <trkpt lat="44.50871" lon="1.96758">
        <ele>325</ele>
        <time>2017-09-19T11:41:48Z</time>
      </trkpt>
      <trkpt lat="44.5087" lon="1.96752">
        <ele>325</ele>
        <time>2017-09-19T11:41:52Z</time>
      </trkpt>
      <trkpt lat="44.50869" lon="1.96748">
        <ele>323</ele>
        <time>2017-09-19T11:41:55Z</time>
      </trkpt>
      <trkpt lat="44.50868" lon="1.96745">
        <ele>323</ele>
        <time>2017-09-19T11:41:58Z</time>
      </trkpt>
      <trkpt lat="44.50867" lon="1.96741">
        <ele>323</ele>
        <time>2017-09-19T11:42:01Z</time>
      </trkpt>
      <trkpt lat="44.50866" lon="1.96731">
        <ele>323</ele>
        <time>2017-09-19T11:42:10Z</time>
      </trkpt>
      <trkpt lat="44.50864" lon="1.96726">
        <ele>323</ele>
        <time>2017-09-19T11:42:13Z</time>
      </trkpt>
      <trkpt lat="44.50863" lon="1.96721">
        <ele>323</ele>
        <time>2017-09-19T11:42:17Z</time>
      </trkpt>
      <trkpt lat="44.50862" lon="1.96717">
        <ele>323</ele>
        <time>2017-09-19T11:42:22Z</time>
      </trkpt>
      <trkpt lat="44.5086" lon="1.96708">
        <ele>323</ele>
        <time>2017-09-19T11:42:28Z</time>
      </trkpt>
      <trkpt lat="44.50858" lon="1.96706">
        <ele>323</ele>
        <time>2017-09-19T11:42:33Z</time>
      </trkpt>
      <trkpt lat="44.50858" lon="1.96702">
        <ele>322</ele>
        <time>2017-09-19T11:42:34Z</time>
      </trkpt>
      <trkpt lat="44.50857" lon="1.96699">
        <ele>322</ele>
        <time>2017-09-19T11:42:36Z</time>
      </trkpt>
      <trkpt lat="44.50856" lon="1.96695">
        <ele>322</ele>
        <time>2017-09-19T11:42:40Z</time>
      </trkpt>
      <trkpt lat="44.50856" lon="1.96692">
        <ele>322</ele>
        <time>2017-09-19T11:42:43Z</time>
      </trkpt>
      <trkpt lat="44.50854" lon="1.96688">
        <ele>322</ele>
        <time>2017-09-19T11:42:46Z</time>
      </trkpt>
      <trkpt lat="44.50853" lon="1.96684">
        <ele>322</ele>
        <time>2017-09-19T11:42:49Z</time>
      </trkpt>
      <trkpt lat="44.50853" lon="1.9668">
        <ele>322</ele>
        <time>2017-09-19T11:42:52Z</time>
      </trkpt>
      <trkpt lat="44.50851" lon="1.96676">
        <ele>322</ele>
        <time>2017-09-19T11:42:55Z</time>
      </trkpt>
      <trkpt lat="44.50851" lon="1.96672">
        <ele>322</ele>
        <time>2017-09-19T11:42:58Z</time>
      </trkpt>
      <trkpt lat="44.5085" lon="1.96668">
        <ele>322</ele>
        <time>2017-09-19T11:43:01Z</time>
      </trkpt>
      <trkpt lat="44.50848" lon="1.96651">
        <ele>321</ele>
        <time>2017-09-19T11:43:16Z</time>
      </trkpt>
      <trkpt lat="44.50848" lon="1.96646">
        <ele>321</ele>
        <time>2017-09-19T11:43:19Z</time>
      </trkpt>
      <trkpt lat="44.50848" lon="1.96641">
        <ele>320</ele>
        <time>2017-09-19T11:43:22Z</time>
      </trkpt>
      <trkpt lat="44.50847" lon="1.96637">
        <ele>320</ele>
        <time>2017-09-19T11:43:25Z</time>
      </trkpt>
      <trkpt lat="44.50846" lon="1.96633">
        <ele>320</ele>
        <time>2017-09-19T11:43:28Z</time>
      </trkpt>
      <trkpt lat="44.50845" lon="1.96628">
        <ele>320</ele>
        <time>2017-09-19T11:43:31Z</time>
      </trkpt>
      <trkpt lat="44.50845" lon="1.96624">
        <ele>320</ele>
        <time>2017-09-19T11:43:35Z</time>
      </trkpt>
      <trkpt lat="44.50845" lon="1.96616">
        <ele>320</ele>
        <time>2017-09-19T11:43:40Z</time>
      </trkpt>
      <trkpt lat="44.50845" lon="1.96611">
        <ele>320</ele>
        <time>2017-09-19T11:43:43Z</time>
      </trkpt>
      <trkpt lat="44.50845" lon="1.96601">
        <ele>319</ele>
        <time>2017-09-19T11:43:49Z</time>
      </trkpt>
      <trkpt lat="44.50846" lon="1.96597">
        <ele>319</ele>
        <time>2017-09-19T11:43:52Z</time>
      </trkpt>
      <trkpt lat="44.50846" lon="1.96592">
        <ele>319</ele>
        <time>2017-09-19T11:43:56Z</time>
      </trkpt>
      <trkpt lat="44.50847" lon="1.96587">
        <ele>319</ele>
        <time>2017-09-19T11:44:02Z</time>
      </trkpt>
      <trkpt lat="44.50848" lon="1.96584">
        <ele>319</ele>
        <time>2017-09-19T11:44:04Z</time>
      </trkpt>
      <trkpt lat="44.5085" lon="1.96575">
        <ele>318</ele>
        <time>2017-09-19T11:44:11Z</time>
      </trkpt>
      <trkpt lat="44.5085" lon="1.96571">
        <ele>318</ele>
        <time>2017-09-19T11:44:14Z</time>
      </trkpt>
      <trkpt lat="44.50853" lon="1.96564">
        <ele>318</ele>
        <time>2017-09-19T11:44:19Z</time>
      </trkpt>
      <trkpt lat="44.50854" lon="1.9656">
        <ele>318</ele>
        <time>2017-09-19T11:44:21Z</time>
      </trkpt>
      <trkpt lat="44.50856" lon="1.96558">
        <ele>318</ele>
        <time>2017-09-19T11:44:24Z</time>
      </trkpt>
      <trkpt lat="44.50865" lon="1.96549">
        <ele>318</ele>
        <time>2017-09-19T11:44:33Z</time>
      </trkpt>
      <trkpt lat="44.50868" lon="1.96548">
        <ele>318</ele>
        <time>2017-09-19T11:44:36Z</time>
      </trkpt>
      <trkpt lat="44.50871" lon="1.96545">
        <ele>318</ele>
        <time>2017-09-19T11:44:40Z</time>
      </trkpt>
      <trkpt lat="44.50873" lon="1.96544">
        <ele>318</ele>
        <time>2017-09-19T11:44:43Z</time>
      </trkpt>
      <trkpt lat="44.50877" lon="1.96542">
        <ele>317</ele>
        <time>2017-09-19T11:44:46Z</time>
      </trkpt>
      <trkpt lat="44.50881" lon="1.96539">
        <ele>317</ele>
        <time>2017-09-19T11:44:49Z</time>
      </trkpt>
      <trkpt lat="44.50885" lon="1.96536">
        <ele>317</ele>
        <time>2017-09-19T11:44:53Z</time>
      </trkpt>
      <trkpt lat="44.50893" lon="1.96532">
        <ele>317</ele>
        <time>2017-09-19T11:44:59Z</time>
      </trkpt>
      <trkpt lat="44.50897" lon="1.9653">
        <ele>317</ele>
        <time>2017-09-19T11:45:07Z</time>
      </trkpt>
      <trkpt lat="44.50901" lon="1.96528">
        <ele>317</ele>
        <time>2017-09-19T11:45:19Z</time>
      </trkpt>
      <trkpt lat="44.50905" lon="1.96526">
        <ele>317</ele>
        <time>2017-09-19T11:45:23Z</time>
      </trkpt>
      <trkpt lat="44.50916" lon="1.96517">
        <ele>317</ele>
        <time>2017-09-19T11:45:33Z</time>
      </trkpt>
      <trkpt lat="44.50929" lon="1.96508">
        <ele>317</ele>
        <time>2017-09-19T11:45:48Z</time>
      </trkpt>
      <trkpt lat="44.50933" lon="1.96503">
        <ele>317</ele>
        <time>2017-09-19T11:45:55Z</time>
      </trkpt>
      <trkpt lat="44.50936" lon="1.96499">
        <ele>317</ele>
        <time>2017-09-19T11:45:58Z</time>
      </trkpt>
      <trkpt lat="44.50941" lon="1.96489">
        <ele>317</ele>
        <time>2017-09-19T11:46:04Z</time>
      </trkpt>
      <trkpt lat="44.50943" lon="1.96482">
        <ele>317</ele>
        <time>2017-09-19T11:46:09Z</time>
      </trkpt>
      <trkpt lat="44.50943" lon="1.96477">
        <ele>317</ele>
        <time>2017-09-19T11:46:12Z</time>
      </trkpt>
      <trkpt lat="44.50943" lon="1.96471">
        <ele>318</ele>
        <time>2017-09-19T11:46:16Z</time>
      </trkpt>
      <trkpt lat="44.50943" lon="1.96465">
        <ele>318</ele>
        <time>2017-09-19T11:46:21Z</time>
      </trkpt>
      <trkpt lat="44.50942" lon="1.96458">
        <ele>318</ele>
        <time>2017-09-19T11:46:27Z</time>
      </trkpt>
      <trkpt lat="44.5094" lon="1.96451">
        <ele>318</ele>
        <time>2017-09-19T11:46:33Z</time>
      </trkpt>
      <trkpt lat="44.50938" lon="1.96446">
        <ele>318</ele>
        <time>2017-09-19T11:46:36Z</time>
      </trkpt>
      <trkpt lat="44.50935" lon="1.96441">
        <ele>317</ele>
        <time>2017-09-19T11:46:41Z</time>
      </trkpt>
      <trkpt lat="44.5093" lon="1.96428">
        <ele>317</ele>
        <time>2017-09-19T11:46:51Z</time>
      </trkpt>
      <trkpt lat="44.50925" lon="1.96409">
        <ele>318</ele>
        <time>2017-09-19T11:47:02Z</time>
      </trkpt>
      <trkpt lat="44.50925" lon="1.96406">
        <ele>318</ele>
        <time>2017-09-19T11:47:04Z</time>
      </trkpt>
      <trkpt lat="44.50919" lon="1.96387">
        <ele>319</ele>
        <time>2017-09-19T11:47:17Z</time>
      </trkpt>
      <trkpt lat="44.50917" lon="1.96378">
        <ele>320</ele>
        <time>2017-09-19T11:47:26Z</time>
      </trkpt>
      <trkpt lat="44.50911" lon="1.96366">
        <ele>318</ele>
        <time>2017-09-19T11:47:31Z</time>
      </trkpt>
      <trkpt lat="44.5091" lon="1.96361">
        <ele>318</ele>
        <time>2017-09-19T11:47:35Z</time>
      </trkpt>
      <trkpt lat="44.50894" lon="1.96319">
        <ele>318</ele>
        <time>2017-09-19T11:48:05Z</time>
      </trkpt>
      <trkpt lat="44.50889" lon="1.96301">
        <ele>318</ele>
        <time>2017-09-19T11:48:17Z</time>
      </trkpt>
      <trkpt lat="44.50887" lon="1.96292">
        <ele>318</ele>
        <time>2017-09-19T11:48:22Z</time>
      </trkpt>
      <trkpt lat="44.5088" lon="1.96268">
        <ele>318</ele>
        <time>2017-09-19T11:48:37Z</time>
      </trkpt>
      <trkpt lat="44.50879" lon="1.96264">
        <ele>318</ele>
        <time>2017-09-19T11:48:40Z</time>
      </trkpt>
      <trkpt lat="44.50878" lon="1.96261">
        <ele>318</ele>
        <time>2017-09-19T11:48:43Z</time>
      </trkpt>
      <trkpt lat="44.50877" lon="1.96257">
        <ele>318</ele>
        <time>2017-09-19T11:48:46Z</time>
      </trkpt>
      <trkpt lat="44.50876" lon="1.96252">
        <ele>318</ele>
        <time>2017-09-19T11:48:50Z</time>
      </trkpt>
      <trkpt lat="44.50874" lon="1.96246">
        <ele>317</ele>
        <time>2017-09-19T11:48:55Z</time>
      </trkpt>
      <trkpt lat="44.50872" lon="1.9624">
        <ele>317</ele>
        <time>2017-09-19T11:48:58Z</time>
      </trkpt>
      <trkpt lat="44.50872" lon="1.96235">
        <ele>317</ele>
        <time>2017-09-19T11:49:02Z</time>
      </trkpt>
      <trkpt lat="44.50871" lon="1.96229">
        <ele>317</ele>
        <time>2017-09-19T11:49:05Z</time>
      </trkpt>
      <trkpt lat="44.5087" lon="1.96223">
        <ele>317</ele>
        <time>2017-09-19T11:49:08Z</time>
      </trkpt>
      <trkpt lat="44.50867" lon="1.96215">
        <ele>317</ele>
        <time>2017-09-19T11:49:14Z</time>
      </trkpt>
      <trkpt lat="44.50866" lon="1.96209">
        <ele>317</ele>
        <time>2017-09-19T11:49:18Z</time>
      </trkpt>
      <trkpt lat="44.50862" lon="1.96198">
        <ele>316</ele>
        <time>2017-09-19T11:49:25Z</time>
      </trkpt>
      <trkpt lat="44.50861" lon="1.96193">
        <ele>316</ele>
        <time>2017-09-19T11:49:28Z</time>
      </trkpt>
      <trkpt lat="44.5086" lon="1.96191">
        <ele>316</ele>
        <time>2017-09-19T11:49:30Z</time>
      </trkpt>
      <trkpt lat="44.50858" lon="1.96185">
        <ele>316</ele>
        <time>2017-09-19T11:49:34Z</time>
      </trkpt>
      <trkpt lat="44.50855" lon="1.96169">
        <ele>316</ele>
        <time>2017-09-19T11:49:43Z</time>
      </trkpt>
      <trkpt lat="44.50854" lon="1.96166">
        <ele>316</ele>
        <time>2017-09-19T11:49:45Z</time>
      </trkpt>
      <trkpt lat="44.50853" lon="1.96162">
        <ele>316</ele>
        <time>2017-09-19T11:49:48Z</time>
      </trkpt>
      <trkpt lat="44.50853" lon="1.96159">
        <ele>316</ele>
        <time>2017-09-19T11:49:50Z</time>
      </trkpt>
      <trkpt lat="44.50852" lon="1.96153">
        <ele>316</ele>
        <time>2017-09-19T11:49:55Z</time>
      </trkpt>
      <trkpt lat="44.50847" lon="1.96138">
        <ele>316</ele>
        <time>2017-09-19T11:50:05Z</time>
      </trkpt>
      <trkpt lat="44.50846" lon="1.96134">
        <ele>317</ele>
        <time>2017-09-19T11:50:08Z</time>
      </trkpt>
      <trkpt lat="44.50845" lon="1.9613">
        <ele>317</ele>
        <time>2017-09-19T11:50:11Z</time>
      </trkpt>
      <trkpt lat="44.50841" lon="1.96119">
        <ele>317</ele>
        <time>2017-09-19T11:50:18Z</time>
      </trkpt>
      <trkpt lat="44.5084" lon="1.96114">
        <ele>317</ele>
        <time>2017-09-19T11:50:21Z</time>
      </trkpt>
      <trkpt lat="44.50839" lon="1.96109">
        <ele>317</ele>
        <time>2017-09-19T11:50:24Z</time>
      </trkpt>
      <trkpt lat="44.50837" lon="1.96103">
        <ele>317</ele>
        <time>2017-09-19T11:50:29Z</time>
      </trkpt>
      <trkpt lat="44.50835" lon="1.96099">
        <ele>317</ele>
        <time>2017-09-19T11:50:32Z</time>
      </trkpt>
      <trkpt lat="44.50833" lon="1.96095">
        <ele>316</ele>
        <time>2017-09-19T11:50:35Z</time>
      </trkpt>
      <trkpt lat="44.50828" lon="1.96079">
        <ele>317</ele>
        <time>2017-09-19T11:50:44Z</time>
      </trkpt>
      <trkpt lat="44.50826" lon="1.96074">
        <ele>317</ele>
        <time>2017-09-19T11:50:47Z</time>
      </trkpt>
      <trkpt lat="44.50824" lon="1.9607">
        <ele>318</ele>
        <time>2017-09-19T11:50:50Z</time>
      </trkpt>
      <trkpt lat="44.50817" lon="1.9605">
        <ele>318</ele>
        <time>2017-09-19T11:51:04Z</time>
      </trkpt>
      <trkpt lat="44.50816" lon="1.96046">
        <ele>318</ele>
        <time>2017-09-19T11:51:07Z</time>
      </trkpt>
      <trkpt lat="44.50814" lon="1.96043">
        <ele>319</ele>
        <time>2017-09-19T11:51:10Z</time>
      </trkpt>
      <trkpt lat="44.50812" lon="1.96038">
        <ele>319</ele>
        <time>2017-09-19T11:51:14Z</time>
      </trkpt>
      <trkpt lat="44.50811" lon="1.96033">
        <ele>319</ele>
        <time>2017-09-19T11:51:17Z</time>
      </trkpt>
      <trkpt lat="44.5081" lon="1.96029">
        <ele>319</ele>
        <time>2017-09-19T11:51:20Z</time>
      </trkpt>
      <trkpt lat="44.50809" lon="1.96024">
        <ele>319</ele>
        <time>2017-09-19T11:51:23Z</time>
      </trkpt>
      <trkpt lat="44.50808" lon="1.96019">
        <ele>320</ele>
        <time>2017-09-19T11:51:26Z</time>
      </trkpt>
      <trkpt lat="44.50808" lon="1.96015">
        <ele>320</ele>
        <time>2017-09-19T11:51:29Z</time>
      </trkpt>
      <trkpt lat="44.50806" lon="1.9601">
        <ele>320</ele>
        <time>2017-09-19T11:51:33Z</time>
      </trkpt>
      <trkpt lat="44.50804" lon="1.96004">
        <ele>320</ele>
        <time>2017-09-19T11:51:38Z</time>
      </trkpt>
      <trkpt lat="44.50802" lon="1.95999">
        <ele>322</ele>
        <time>2017-09-19T11:51:41Z</time>
      </trkpt>
      <trkpt lat="44.50799" lon="1.95995">
        <ele>322</ele>
        <time>2017-09-19T11:51:45Z</time>
      </trkpt>
      <trkpt lat="44.50798" lon="1.95987">
        <ele>322</ele>
        <time>2017-09-19T11:51:50Z</time>
      </trkpt>
      <trkpt lat="44.50795" lon="1.9598">
        <ele>322</ele>
        <time>2017-09-19T11:51:56Z</time>
      </trkpt>
      <trkpt lat="44.50793" lon="1.95976">
        <ele>322</ele>
        <time>2017-09-19T11:51:59Z</time>
      </trkpt>
      <trkpt lat="44.5079" lon="1.95969">
        <ele>322</ele>
        <time>2017-09-19T11:52:03Z</time>
      </trkpt>
      <trkpt lat="44.50789" lon="1.95966">
        <ele>322</ele>
        <time>2017-09-19T11:52:08Z</time>
      </trkpt>
      <trkpt lat="44.50787" lon="1.95961">
        <ele>322</ele>
        <time>2017-09-19T11:52:10Z</time>
      </trkpt>
      <trkpt lat="44.50783" lon="1.95947">
        <ele>322</ele>
        <time>2017-09-19T11:52:18Z</time>
      </trkpt>
      <trkpt lat="44.50781" lon="1.95942">
        <ele>322</ele>
        <time>2017-09-19T11:52:21Z</time>
      </trkpt>
      <trkpt lat="44.50776" lon="1.95929">
        <ele>322</ele>
        <time>2017-09-19T11:52:30Z</time>
      </trkpt>
      <trkpt lat="44.50775" lon="1.95925">
        <ele>322</ele>
        <time>2017-09-19T11:52:32Z</time>
      </trkpt>
      <trkpt lat="44.50773" lon="1.95921">
        <ele>322</ele>
        <time>2017-09-19T11:52:35Z</time>
      </trkpt>
      <trkpt lat="44.50769" lon="1.95909">
        <ele>323</ele>
        <time>2017-09-19T11:52:43Z</time>
      </trkpt>
      <trkpt lat="44.50765" lon="1.95902">
        <ele>323</ele>
        <time>2017-09-19T11:52:49Z</time>
      </trkpt>
      <trkpt lat="44.50755" lon="1.9588">
        <ele>324</ele>
        <time>2017-09-19T11:53:04Z</time>
      </trkpt>
      <trkpt lat="44.50752" lon="1.95876">
        <ele>324</ele>
        <time>2017-09-19T11:53:07Z</time>
      </trkpt>
      <trkpt lat="44.50748" lon="1.95865">
        <ele>321</ele>
        <time>2017-09-19T11:53:15Z</time>
      </trkpt>
      <trkpt lat="44.50746" lon="1.9586">
        <ele>321</ele>
        <time>2017-09-19T11:53:18Z</time>
      </trkpt>
      <trkpt lat="44.50745" lon="1.95856">
        <ele>321</ele>
        <time>2017-09-19T11:53:21Z</time>
      </trkpt>
      <trkpt lat="44.50743" lon="1.95852">
        <ele>321</ele>
        <time>2017-09-19T11:53:24Z</time>
      </trkpt>
      <trkpt lat="44.50732" lon="1.95831">
        <ele>322</ele>
        <time>2017-09-19T11:53:41Z</time>
      </trkpt>
      <trkpt lat="44.5073" lon="1.95823">
        <ele>322</ele>
        <time>2017-09-19T11:53:47Z</time>
      </trkpt>
      <trkpt lat="44.50729" lon="1.95819">
        <ele>321</ele>
        <time>2017-09-19T11:53:51Z</time>
      </trkpt>
      <trkpt lat="44.50726" lon="1.95802">
        <ele>321</ele>
        <time>2017-09-19T11:54:01Z</time>
      </trkpt>
      <trkpt lat="44.50725" lon="1.95797">
        <ele>321</ele>
        <time>2017-09-19T11:54:04Z</time>
      </trkpt>
      <trkpt lat="44.50725" lon="1.95786">
        <ele>321</ele>
        <time>2017-09-19T11:54:13Z</time>
      </trkpt>
      <trkpt lat="44.50725" lon="1.95782">
        <ele>321</ele>
        <time>2017-09-19T11:54:18Z</time>
      </trkpt>
      <trkpt lat="44.50724" lon="1.95776">
        <ele>321</ele>
        <time>2017-09-19T11:54:20Z</time>
      </trkpt>
      <trkpt lat="44.50724" lon="1.95769">
        <ele>321</ele>
        <time>2017-09-19T11:54:25Z</time>
      </trkpt>
      <trkpt lat="44.50726" lon="1.95759">
        <ele>321</ele>
        <time>2017-09-19T11:54:31Z</time>
      </trkpt>
      <trkpt lat="44.50727" lon="1.95754">
        <ele>321</ele>
        <time>2017-09-19T11:54:34Z</time>
      </trkpt>
      <trkpt lat="44.50727" lon="1.9575">
        <ele>320</ele>
        <time>2017-09-19T11:54:37Z</time>
      </trkpt>
      <trkpt lat="44.50728" lon="1.95738">
        <ele>320</ele>
        <time>2017-09-19T11:54:46Z</time>
      </trkpt>
      <trkpt lat="44.50728" lon="1.95724">
        <ele>319</ele>
        <time>2017-09-19T11:54:56Z</time>
      </trkpt>
      <trkpt lat="44.50729" lon="1.95716">
        <ele>319</ele>
        <time>2017-09-19T11:55:00Z</time>
      </trkpt>
      <trkpt lat="44.50728" lon="1.9571">
        <ele>319</ele>
        <time>2017-09-19T11:55:03Z</time>
      </trkpt>
      <trkpt lat="44.50727" lon="1.95707">
        <ele>319</ele>
        <time>2017-09-19T11:55:06Z</time>
      </trkpt>
      <trkpt lat="44.50727" lon="1.95702">
        <ele>319</ele>
        <time>2017-09-19T11:55:09Z</time>
      </trkpt>
      <trkpt lat="44.50726" lon="1.95696">
        <ele>319</ele>
        <time>2017-09-19T11:55:14Z</time>
      </trkpt>
      <trkpt lat="44.50725" lon="1.95692">
        <ele>318</ele>
        <time>2017-09-19T11:55:18Z</time>
      </trkpt>
      <trkpt lat="44.50721" lon="1.95668">
        <ele>318</ele>
        <time>2017-09-19T11:55:32Z</time>
      </trkpt>
      <trkpt lat="44.50721" lon="1.95661">
        <ele>316</ele>
        <time>2017-09-19T11:55:36Z</time>
      </trkpt>
      <trkpt lat="44.50721" lon="1.95656">
        <ele>316</ele>
        <time>2017-09-19T11:55:40Z</time>
      </trkpt>
      <trkpt lat="44.50721" lon="1.95651">
        <ele>316</ele>
        <time>2017-09-19T11:55:45Z</time>
      </trkpt>
      <trkpt lat="44.50721" lon="1.95641">
        <ele>316</ele>
        <time>2017-09-19T11:55:52Z</time>
      </trkpt>
      <trkpt lat="44.50722" lon="1.95635">
        <ele>316</ele>
        <time>2017-09-19T11:55:56Z</time>
      </trkpt>
      <trkpt lat="44.5072" lon="1.95626">
        <ele>316</ele>
        <time>2017-09-19T11:56:02Z</time>
      </trkpt>
      <trkpt lat="44.5072" lon="1.9562">
        <ele>315</ele>
        <time>2017-09-19T11:56:05Z</time>
      </trkpt>
      <trkpt lat="44.5072" lon="1.95615">
        <ele>315</ele>
        <time>2017-09-19T11:56:09Z</time>
      </trkpt>
      <trkpt lat="44.50721" lon="1.95609">
        <ele>315</ele>
        <time>2017-09-19T11:56:14Z</time>
      </trkpt>
      <trkpt lat="44.5072" lon="1.95604">
        <ele>315</ele>
        <time>2017-09-19T11:56:17Z</time>
      </trkpt>
      <trkpt lat="44.5072" lon="1.95563">
        <ele>314</ele>
        <time>2017-09-19T11:56:43Z</time>
      </trkpt>
      <trkpt lat="44.50719" lon="1.95558">
        <ele>314</ele>
        <time>2017-09-19T11:56:45Z</time>
      </trkpt>
      <trkpt lat="44.50719" lon="1.95552">
        <ele>314</ele>
        <time>2017-09-19T11:56:49Z</time>
      </trkpt>
      <trkpt lat="44.50719" lon="1.95548">
        <ele>314</ele>
        <time>2017-09-19T11:56:52Z</time>
      </trkpt>
      <trkpt lat="44.5072" lon="1.95543">
        <ele>314</ele>
        <time>2017-09-19T11:56:55Z</time>
      </trkpt>
      <trkpt lat="44.5072" lon="1.95538">
        <ele>313</ele>
        <time>2017-09-19T11:56:58Z</time>
      </trkpt>
      <trkpt lat="44.50721" lon="1.95534">
        <ele>313</ele>
        <time>2017-09-19T11:57:00Z</time>
      </trkpt>
      <trkpt lat="44.50722" lon="1.95521">
        <ele>313</ele>
        <time>2017-09-19T11:57:08Z</time>
      </trkpt>
      <trkpt lat="44.50725" lon="1.95509">
        <ele>313</ele>
        <time>2017-09-19T11:57:16Z</time>
      </trkpt>
      <trkpt lat="44.50726" lon="1.95506">
        <ele>313</ele>
        <time>2017-09-19T11:57:18Z</time>
      </trkpt>
      <trkpt lat="44.50727" lon="1.95502">
        <ele>313</ele>
        <time>2017-09-19T11:57:21Z</time>
      </trkpt>
      <trkpt lat="44.50733" lon="1.95477">
        <ele>312</ele>
        <time>2017-09-19T11:57:38Z</time>
      </trkpt>
      <trkpt lat="44.50735" lon="1.95472">
        <ele>312</ele>
        <time>2017-09-19T11:57:41Z</time>
      </trkpt>
      <trkpt lat="44.50744" lon="1.9542">
        <ele>311</ele>
        <time>2017-09-19T11:58:13Z</time>
      </trkpt>
      <trkpt lat="44.50746" lon="1.95416">
        <ele>310</ele>
        <time>2017-09-19T11:58:15Z</time>
      </trkpt>
      <trkpt lat="44.50749" lon="1.95407">
        <ele>310</ele>
        <time>2017-09-19T11:58:21Z</time>
      </trkpt>
      <trkpt lat="44.5075" lon="1.95403">
        <ele>310</ele>
        <time>2017-09-19T11:58:24Z</time>
      </trkpt>
      <trkpt lat="44.50753" lon="1.95399">
        <ele>310</ele>
        <time>2017-09-19T11:58:28Z</time>
      </trkpt>
      <trkpt lat="44.50757" lon="1.95389">
        <ele>310</ele>
        <time>2017-09-19T11:58:37Z</time>
      </trkpt>
      <trkpt lat="44.50768" lon="1.95364">
        <ele>310</ele>
        <time>2017-09-19T11:58:57Z</time>
      </trkpt>
      <trkpt lat="44.50779" lon="1.95346">
        <ele>310</ele>
        <time>2017-09-19T11:59:11Z</time>
      </trkpt>
      <trkpt lat="44.50781" lon="1.95341">
        <ele>310</ele>
        <time>2017-09-19T11:59:15Z</time>
      </trkpt>
      <trkpt lat="44.50784" lon="1.95336">
        <ele>310</ele>
        <time>2017-09-19T11:59:19Z</time>
      </trkpt>
      <trkpt lat="44.50787" lon="1.95327">
        <ele>309</ele>
        <time>2017-09-19T11:59:27Z</time>
      </trkpt>
      <trkpt lat="44.50788" lon="1.95322">
        <ele>309</ele>
        <time>2017-09-19T11:59:30Z</time>
      </trkpt>
      <trkpt lat="44.50789" lon="1.95317">
        <ele>309</ele>
        <time>2017-09-19T11:59:33Z</time>
      </trkpt>
      <trkpt lat="44.5079" lon="1.9531">
        <ele>309</ele>
        <time>2017-09-19T11:59:38Z</time>
      </trkpt>
      <trkpt lat="44.5079" lon="1.95305">
        <ele>309</ele>
        <time>2017-09-19T11:59:41Z</time>
      </trkpt>
      <trkpt lat="44.50791" lon="1.953">
        <ele>309</ele>
        <time>2017-09-19T11:59:44Z</time>
      </trkpt>
      <trkpt lat="44.50792" lon="1.95294">
        <ele>309</ele>
        <time>2017-09-19T11:59:47Z</time>
      </trkpt>
      <trkpt lat="44.50794" lon="1.95282">
        <ele>309</ele>
        <time>2017-09-19T11:59:53Z</time>
      </trkpt>
      <trkpt lat="44.50795" lon="1.95276">
        <ele>309</ele>
        <time>2017-09-19T11:59:56Z</time>
      </trkpt>
      <trkpt lat="44.50803" lon="1.95252">
        <ele>309</ele>
        <time>2017-09-19T12:00:11Z</time>
      </trkpt>
      <trkpt lat="44.50804" lon="1.95243">
        <ele>308</ele>
        <time>2017-09-19T12:00:17Z</time>
      </trkpt>
      <trkpt lat="44.50807" lon="1.95235">
        <ele>308</ele>
        <time>2017-09-19T12:00:23Z</time>
      </trkpt>
      <trkpt lat="44.50811" lon="1.95219">
        <ele>308</ele>
        <time>2017-09-19T12:00:33Z</time>
      </trkpt>
      <trkpt lat="44.50815" lon="1.95204">
        <ele>308</ele>
        <time>2017-09-19T12:00:42Z</time>
      </trkpt>
      <trkpt lat="44.50816" lon="1.95199">
        <ele>308</ele>
        <time>2017-09-19T12:00:45Z</time>
      </trkpt>
      <trkpt lat="44.50818" lon="1.95195">
        <ele>308</ele>
        <time>2017-09-19T12:00:49Z</time>
      </trkpt>
      <trkpt lat="44.50827" lon="1.95174">
        <ele>308</ele>
        <time>2017-09-19T12:01:01Z</time>
      </trkpt>
      <trkpt lat="44.50828" lon="1.95169">
        <ele>308</ele>
        <time>2017-09-19T12:01:04Z</time>
      </trkpt>
      <trkpt lat="44.50831" lon="1.95164">
        <ele>308</ele>
        <time>2017-09-19T12:01:08Z</time>
      </trkpt>
      <trkpt lat="44.50833" lon="1.95159">
        <ele>308</ele>
        <time>2017-09-19T12:01:11Z</time>
      </trkpt>
      <trkpt lat="44.50834" lon="1.95153">
        <ele>309</ele>
        <time>2017-09-19T12:01:15Z</time>
      </trkpt>
      <trkpt lat="44.50835" lon="1.95147">
        <ele>309</ele>
        <time>2017-09-19T12:01:19Z</time>
      </trkpt>
      <trkpt lat="44.50848" lon="1.95125">
        <ele>309</ele>
        <time>2017-09-19T12:01:34Z</time>
      </trkpt>
      <trkpt lat="44.5085" lon="1.95121">
        <ele>309</ele>
        <time>2017-09-19T12:01:37Z</time>
      </trkpt>
      <trkpt lat="44.50852" lon="1.95115">
        <ele>309</ele>
        <time>2017-09-19T12:01:41Z</time>
      </trkpt>
      <trkpt lat="44.50854" lon="1.95111">
        <ele>309</ele>
        <time>2017-09-19T12:01:43Z</time>
      </trkpt>
      <trkpt lat="44.50856" lon="1.95109">
        <ele>309</ele>
        <time>2017-09-19T12:01:56Z</time>
      </trkpt>
      <trkpt lat="44.50857" lon="1.95103">
        <ele>309</ele>
        <time>2017-09-19T12:02:02Z</time>
      </trkpt>
      <trkpt lat="44.50859" lon="1.95098">
        <ele>309</ele>
        <time>2017-09-19T12:02:05Z</time>
      </trkpt>
      <trkpt lat="44.50863" lon="1.95092">
        <ele>309</ele>
        <time>2017-09-19T12:02:11Z</time>
      </trkpt>
      <trkpt lat="44.50868" lon="1.95085">
        <ele>309</ele>
        <time>2017-09-19T12:02:17Z</time>
      </trkpt>
      <trkpt lat="44.50881" lon="1.95069">
        <ele>307</ele>
        <time>2017-09-19T12:02:33Z</time>
      </trkpt>
      <trkpt lat="44.50884" lon="1.95061">
        <ele>307</ele>
        <time>2017-09-19T12:02:38Z</time>
      </trkpt>
      <trkpt lat="44.50886" lon="1.95057">
        <ele>307</ele>
        <time>2017-09-19T12:02:40Z</time>
      </trkpt>
      <trkpt lat="44.50886" lon="1.95053">
        <ele>307</ele>
        <time>2017-09-19T12:02:42Z</time>
      </trkpt>
      <trkpt lat="44.50889" lon="1.95049">
        <ele>307</ele>
        <time>2017-09-19T12:02:46Z</time>
      </trkpt>
      <trkpt lat="44.50892" lon="1.95045">
        <ele>307</ele>
        <time>2017-09-19T12:02:49Z</time>
      </trkpt>
      <trkpt lat="44.50894" lon="1.95041">
        <ele>307</ele>
        <time>2017-09-19T12:02:52Z</time>
      </trkpt>
      <trkpt lat="44.50907" lon="1.95018">
        <ele>306</ele>
        <time>2017-09-19T12:03:10Z</time>
      </trkpt>
      <trkpt lat="44.50909" lon="1.95014">
        <ele>305</ele>
        <time>2017-09-19T12:03:13Z</time>
      </trkpt>
      <trkpt lat="44.50911" lon="1.95009">
        <ele>305</ele>
        <time>2017-09-19T12:03:16Z</time>
      </trkpt>
      <trkpt lat="44.50913" lon="1.95005">
        <ele>305</ele>
        <time>2017-09-19T12:03:19Z</time>
      </trkpt>
      <trkpt lat="44.50915" lon="1.95001">
        <ele>304</ele>
        <time>2017-09-19T12:03:23Z</time>
      </trkpt>
      <trkpt lat="44.50919" lon="1.9499">
        <ele>303</ele>
        <time>2017-09-19T12:03:33Z</time>
      </trkpt>
      <trkpt lat="44.5092" lon="1.94987">
        <ele>303</ele>
        <time>2017-09-19T12:03:36Z</time>
      </trkpt>
      <trkpt lat="44.50921" lon="1.94983">
        <ele>303</ele>
        <time>2017-09-19T12:03:39Z</time>
      </trkpt>
      <trkpt lat="44.50924" lon="1.94975">
        <ele>303</ele>
        <time>2017-09-19T12:03:44Z</time>
      </trkpt>
      <trkpt lat="44.50925" lon="1.94971">
        <ele>303</ele>
        <time>2017-09-19T12:03:47Z</time>
      </trkpt>
      <trkpt lat="44.50925" lon="1.94967">
        <ele>302</ele>
        <time>2017-09-19T12:03:50Z</time>
      </trkpt>
      <trkpt lat="44.50926" lon="1.94962">
        <ele>302</ele>
        <time>2017-09-19T12:03:53Z</time>
      </trkpt>
      <trkpt lat="44.50927" lon="1.94954">
        <ele>302</ele>
        <time>2017-09-19T12:03:58Z</time>
      </trkpt>
      <trkpt lat="44.50928" lon="1.94949">
        <ele>302</ele>
        <time>2017-09-19T12:04:02Z</time>
      </trkpt>
      <trkpt lat="44.50928" lon="1.94945">
        <ele>301</ele>
        <time>2017-09-19T12:04:05Z</time>
      </trkpt>
      <trkpt lat="44.50929" lon="1.94941">
        <ele>301</ele>
        <time>2017-09-19T12:04:08Z</time>
      </trkpt>
      <trkpt lat="44.5093" lon="1.94937">
        <ele>301</ele>
        <time>2017-09-19T12:04:11Z</time>
      </trkpt>
      <trkpt lat="44.50931" lon="1.94929">
        <ele>301</ele>
        <time>2017-09-19T12:04:16Z</time>
      </trkpt>
      <trkpt lat="44.50932" lon="1.94923">
        <ele>301</ele>
        <time>2017-09-19T12:04:19Z</time>
      </trkpt>
      <trkpt lat="44.50933" lon="1.94916">
        <ele>297</ele>
        <time>2017-09-19T12:04:23Z</time>
      </trkpt>
      <trkpt lat="44.50934" lon="1.94913">
        <ele>297</ele>
        <time>2017-09-19T12:04:25Z</time>
      </trkpt>
      <trkpt lat="44.50937" lon="1.94901">
        <ele>296</ele>
        <time>2017-09-19T12:04:34Z</time>
      </trkpt>
      <trkpt lat="44.50939" lon="1.94897">
        <ele>296</ele>
        <time>2017-09-19T12:04:37Z</time>
      </trkpt>
      <trkpt lat="44.50945" lon="1.94883">
        <ele>295</ele>
        <time>2017-09-19T12:04:49Z</time>
      </trkpt>
      <trkpt lat="44.5095" lon="1.9487">
        <ele>294</ele>
        <time>2017-09-19T12:04:58Z</time>
      </trkpt>
      <trkpt lat="44.50956" lon="1.94852">
        <ele>293</ele>
        <time>2017-09-19T12:05:09Z</time>
      </trkpt>
      <trkpt lat="44.50965" lon="1.94811">
        <ele>282</ele>
        <time>2017-09-19T12:05:32Z</time>
      </trkpt>
      <trkpt lat="44.50965" lon="1.94807">
        <ele>281</ele>
        <time>2017-09-19T12:05:34Z</time>
      </trkpt>
      <trkpt lat="44.50965" lon="1.94802">
        <ele>281</ele>
        <time>2017-09-19T12:05:37Z</time>
      </trkpt>
      <trkpt lat="44.50965" lon="1.94794">
        <ele>280</ele>
        <time>2017-09-19T12:05:42Z</time>
      </trkpt>
      <trkpt lat="44.50963" lon="1.94787">
        <ele>279</ele>
        <time>2017-09-19T12:05:45Z</time>
      </trkpt>
      <trkpt lat="44.50959" lon="1.94776">
        <ele>279</ele>
        <time>2017-09-19T12:05:51Z</time>
      </trkpt>
      <trkpt lat="44.50958" lon="1.94773">
        <ele>279</ele>
        <time>2017-09-19T12:05:53Z</time>
      </trkpt>
      <trkpt lat="44.50945" lon="1.94758">
        <ele>279</ele>
        <time>2017-09-19T12:06:05Z</time>
      </trkpt>
      <trkpt lat="44.50936" lon="1.94751">
        <ele>280</ele>
        <time>2017-09-19T12:06:14Z</time>
      </trkpt>
      <trkpt lat="44.50934" lon="1.9475">
        <ele>269</ele>
        <time>2017-09-19T12:06:17Z</time>
      </trkpt>
      <trkpt lat="44.50927" lon="1.94746">
        <ele>272</ele>
        <time>2017-09-19T12:06:23Z</time>
      </trkpt>
      <trkpt lat="44.50924" lon="1.94745">
        <ele>273</ele>
        <time>2017-09-19T12:06:25Z</time>
      </trkpt>
      <trkpt lat="44.50922" lon="1.94742">
        <ele>273</ele>
        <time>2017-09-19T12:06:28Z</time>
      </trkpt>
      <trkpt lat="44.50919" lon="1.9474">
        <ele>272</ele>
        <time>2017-09-19T12:06:31Z</time>
      </trkpt>
      <trkpt lat="44.50916" lon="1.94737">
        <ele>275</ele>
        <time>2017-09-19T12:06:35Z</time>
      </trkpt>
      <trkpt lat="44.5091" lon="1.94734">
        <ele>274</ele>
        <time>2017-09-19T12:06:42Z</time>
      </trkpt>
      <trkpt lat="44.50904" lon="1.94731">
        <ele>272</ele>
        <time>2017-09-19T12:06:47Z</time>
      </trkpt>
      <trkpt lat="44.50899" lon="1.94727">
        <ele>271</ele>
        <time>2017-09-19T12:06:51Z</time>
      </trkpt>
      <trkpt lat="44.50872" lon="1.94712">
        <ele>269</ele>
        <time>2017-09-19T12:07:15Z</time>
      </trkpt>
      <trkpt lat="44.50869" lon="1.9471">
        <ele>268</ele>
        <time>2017-09-19T12:07:18Z</time>
      </trkpt>
      <trkpt lat="44.50853" lon="1.94699">
        <ele>267</ele>
        <time>2017-09-19T12:07:33Z</time>
      </trkpt>
      <trkpt lat="44.5085" lon="1.94697">
        <ele>266</ele>
        <time>2017-09-19T12:07:36Z</time>
      </trkpt>
      <trkpt lat="44.50839" lon="1.94695">
        <ele>266</ele>
        <time>2017-09-19T12:07:46Z</time>
      </trkpt>
      <trkpt lat="44.50837" lon="1.94694">
        <ele>266</ele>
        <time>2017-09-19T12:07:49Z</time>
      </trkpt>
      <trkpt lat="44.50834" lon="1.94693">
        <ele>265</ele>
        <time>2017-09-19T12:07:51Z</time>
      </trkpt>
      <trkpt lat="44.50833" lon="1.94691">
        <ele>267</ele>
        <time>2017-09-19T12:07:53Z</time>
      </trkpt>
      <trkpt lat="44.50834" lon="1.94688">
        <ele>264</ele>
        <time>2017-09-19T12:07:55Z</time>
      </trkpt>
      <trkpt lat="44.50835" lon="1.94686">
        <ele>264</ele>
        <time>2017-09-19T12:07:57Z</time>
      </trkpt>
      <trkpt lat="44.50868" lon="1.94684">
        <ele>264</ele>
        <time>2017-09-19T12:08:27Z</time>
      </trkpt>
      <trkpt lat="44.50877" lon="1.94685">
        <ele>264</ele>
        <time>2017-09-19T12:08:34Z</time>
      </trkpt>
      <trkpt lat="44.50888" lon="1.94694">
        <ele>264</ele>
        <time>2017-09-19T12:08:44Z</time>
      </trkpt>
      <trkpt lat="44.50891" lon="1.94695">
        <ele>264</ele>
        <time>2017-09-19T12:08:47Z</time>
      </trkpt>
      <trkpt lat="44.50894" lon="1.94693">
        <ele>263</ele>
        <time>2017-09-19T12:08:50Z</time>
      </trkpt>
      <trkpt lat="44.50893" lon="1.9469">
        <ele>262</ele>
        <time>2017-09-19T12:08:52Z</time>
      </trkpt>
      <trkpt lat="44.50891" lon="1.94688">
        <ele>262</ele>
        <time>2017-09-19T12:08:54Z</time>
      </trkpt>
      <trkpt lat="44.50884" lon="1.94683">
        <ele>262</ele>
        <time>2017-09-19T12:09:01Z</time>
      </trkpt>
      <trkpt lat="44.50882" lon="1.94681">
        <ele>262</ele>
        <time>2017-09-19T12:09:04Z</time>
      </trkpt>
      <trkpt lat="44.5088" lon="1.94679">
        <ele>262</ele>
        <time>2017-09-19T12:09:06Z</time>
      </trkpt>
      <trkpt lat="44.50865" lon="1.94669">
        <ele>263</ele>
        <time>2017-09-19T12:09:21Z</time>
      </trkpt>
      <trkpt lat="44.50862" lon="1.94667">
        <ele>262</ele>
        <time>2017-09-19T12:09:24Z</time>
      </trkpt>
      <trkpt lat="44.50859" lon="1.94665">
        <ele>244</ele>
        <time>2017-09-19T12:09:27Z</time>
      </trkpt>
      <trkpt lat="44.50853" lon="1.94662">
        <ele>246</ele>
        <time>2017-09-19T12:09:33Z</time>
      </trkpt>
      <trkpt lat="44.50847" lon="1.9466">
        <ele>248</ele>
        <time>2017-09-19T12:09:40Z</time>
      </trkpt>
      <trkpt lat="44.50844" lon="1.94658">
        <ele>248</ele>
        <time>2017-09-19T12:09:43Z</time>
      </trkpt>
      <trkpt lat="44.50841" lon="1.94656">
        <ele>249</ele>
        <time>2017-09-19T12:09:46Z</time>
      </trkpt>
      <trkpt lat="44.50838" lon="1.94655">
        <ele>249</ele>
        <time>2017-09-19T12:09:49Z</time>
      </trkpt>
      <trkpt lat="44.50835" lon="1.94654">
        <ele>249</ele>
        <time>2017-09-19T12:09:52Z</time>
      </trkpt>
      <trkpt lat="44.50831" lon="1.94653">
        <ele>251</ele>
        <time>2017-09-19T12:09:55Z</time>
      </trkpt>
      <trkpt lat="44.50825" lon="1.94651">
        <ele>250</ele>
        <time>2017-09-19T12:10:00Z</time>
      </trkpt>
      <trkpt lat="44.50821" lon="1.94651">
        <ele>249</ele>
        <time>2017-09-19T12:10:04Z</time>
      </trkpt>
      <trkpt lat="44.50812" lon="1.94648">
        <ele>247</ele>
        <time>2017-09-19T12:10:13Z</time>
      </trkpt>
      <trkpt lat="44.50805" lon="1.94647">
        <ele>246</ele>
        <time>2017-09-19T12:10:19Z</time>
      </trkpt>
      <trkpt lat="44.50802" lon="1.94646">
        <ele>246</ele>
        <time>2017-09-19T12:10:21Z</time>
      </trkpt>
      <trkpt lat="44.5078" lon="1.9464">
        <ele>245</ele>
        <time>2017-09-19T12:10:40Z</time>
      </trkpt>
      <trkpt lat="44.50777" lon="1.9464">
        <ele>245</ele>
        <time>2017-09-19T12:10:43Z</time>
      </trkpt>
      <trkpt lat="44.50774" lon="1.94639">
        <ele>245</ele>
        <time>2017-09-19T12:10:46Z</time>
      </trkpt>
      <trkpt lat="44.5077" lon="1.94638">
        <ele>245</ele>
        <time>2017-09-19T12:10:49Z</time>
      </trkpt>
      <trkpt lat="44.50767" lon="1.94637">
        <ele>245</ele>
        <time>2017-09-19T12:10:52Z</time>
      </trkpt>
      <trkpt lat="44.50764" lon="1.94637">
        <ele>245</ele>
        <time>2017-09-19T12:10:55Z</time>
      </trkpt>
      <trkpt lat="44.50755" lon="1.94635">
        <ele>244</ele>
        <time>2017-09-19T12:11:03Z</time>
      </trkpt>
      <trkpt lat="44.50752" lon="1.94633">
        <ele>244</ele>
        <time>2017-09-19T12:11:06Z</time>
      </trkpt>
      <trkpt lat="44.50746" lon="1.94632">
        <ele>242</ele>
        <time>2017-09-19T12:11:11Z</time>
      </trkpt>
      <trkpt lat="44.50743" lon="1.94632">
        <ele>242</ele>
        <time>2017-09-19T12:11:13Z</time>
      </trkpt>
      <trkpt lat="44.50728" lon="1.9463">
        <ele>241</ele>
        <time>2017-09-19T12:11:27Z</time>
      </trkpt>
      <trkpt lat="44.50725" lon="1.9463">
        <ele>241</ele>
        <time>2017-09-19T12:11:30Z</time>
      </trkpt>
      <trkpt lat="44.50715" lon="1.94628">
        <ele>241</ele>
        <time>2017-09-19T12:11:38Z</time>
      </trkpt>
      <trkpt lat="44.50712" lon="1.94627">
        <ele>240</ele>
        <time>2017-09-19T12:11:42Z</time>
      </trkpt>
      <trkpt lat="44.50702" lon="1.94626">
        <ele>240</ele>
        <time>2017-09-19T12:11:51Z</time>
      </trkpt>
      <trkpt lat="44.50698" lon="1.94627">
        <ele>240</ele>
        <time>2017-09-19T12:11:55Z</time>
      </trkpt>
      <trkpt lat="44.50694" lon="1.94625">
        <ele>240</ele>
        <time>2017-09-19T12:11:59Z</time>
      </trkpt>
      <trkpt lat="44.50691" lon="1.94626">
        <ele>240</ele>
        <time>2017-09-19T12:12:02Z</time>
      </trkpt>
      <trkpt lat="44.50688" lon="1.94626">
        <ele>240</ele>
        <time>2017-09-19T12:12:05Z</time>
      </trkpt>
      <trkpt lat="44.50685" lon="1.94626">
        <ele>240</ele>
        <time>2017-09-19T12:12:08Z</time>
      </trkpt>
      <trkpt lat="44.50682" lon="1.94625">
        <ele>239</ele>
        <time>2017-09-19T12:12:10Z</time>
      </trkpt>
      <trkpt lat="44.50672" lon="1.94624">
        <ele>239</ele>
        <time>2017-09-19T12:12:18Z</time>
      </trkpt>
      <trkpt lat="44.50657" lon="1.94624">
        <ele>238</ele>
        <time>2017-09-19T12:12:30Z</time>
      </trkpt>
      <trkpt lat="44.50654" lon="1.94624">
        <ele>238</ele>
        <time>2017-09-19T12:12:34Z</time>
      </trkpt>
      <trkpt lat="44.50631" lon="1.9462">
        <ele>237</ele>
        <time>2017-09-19T12:12:54Z</time>
      </trkpt>
      <trkpt lat="44.50627" lon="1.9462">
        <ele>237</ele>
        <time>2017-09-19T12:12:57Z</time>
      </trkpt>
      <trkpt lat="44.50625" lon="1.94619">
        <ele>237</ele>
        <time>2017-09-19T12:12:59Z</time>
      </trkpt>
      <trkpt lat="44.50622" lon="1.94618">
        <ele>237</ele>
        <time>2017-09-19T12:13:01Z</time>
      </trkpt>
      <trkpt lat="44.50617" lon="1.94618">
        <ele>237</ele>
        <time>2017-09-19T12:13:05Z</time>
      </trkpt>
      <trkpt lat="44.50612" lon="1.94617">
        <ele>236</ele>
        <time>2017-09-19T12:13:09Z</time>
      </trkpt>
      <trkpt lat="44.50607" lon="1.94617">
        <ele>236</ele>
        <time>2017-09-19T12:13:13Z</time>
      </trkpt>
      <trkpt lat="44.50601" lon="1.94615">
        <ele>235</ele>
        <time>2017-09-19T12:13:18Z</time>
      </trkpt>
      <trkpt lat="44.50599" lon="1.94615">
        <ele>235</ele>
        <time>2017-09-19T12:13:20Z</time>
      </trkpt>
      <trkpt lat="44.50596" lon="1.94614">
        <ele>235</ele>
        <time>2017-09-19T12:13:23Z</time>
      </trkpt>
      <trkpt lat="44.50582" lon="1.94612">
        <ele>233</ele>
        <time>2017-09-19T12:13:35Z</time>
      </trkpt>
      <trkpt lat="44.50574" lon="1.94614">
        <ele>234</ele>
        <time>2017-09-19T12:13:45Z</time>
      </trkpt>
      <trkpt lat="44.50571" lon="1.94614">
        <ele>234</ele>
        <time>2017-09-19T12:13:48Z</time>
      </trkpt>
      <trkpt lat="44.50567" lon="1.94614">
        <ele>234</ele>
        <time>2017-09-19T12:13:51Z</time>
      </trkpt>
      <trkpt lat="44.50566" lon="1.94611">
        <ele>233</ele>
        <time>2017-09-19T12:13:53Z</time>
      </trkpt>
      <trkpt lat="44.50566" lon="1.94609">
        <ele>232</ele>
        <time>2017-09-19T12:13:55Z</time>
      </trkpt>
      <trkpt lat="44.50568" lon="1.94606">
        <ele>231</ele>
        <time>2017-09-19T12:13:57Z</time>
      </trkpt>
      <trkpt lat="44.50585" lon="1.94598">
        <ele>228</ele>
        <time>2017-09-19T12:14:13Z</time>
      </trkpt>
      <trkpt lat="44.50595" lon="1.94598">
        <ele>229</ele>
        <time>2017-09-19T12:14:22Z</time>
      </trkpt>
      <trkpt lat="44.50601" lon="1.94597">
        <ele>230</ele>
        <time>2017-09-19T12:14:27Z</time>
      </trkpt>
      <trkpt lat="44.50606" lon="1.94596">
        <ele>231</ele>
        <time>2017-09-19T12:14:32Z</time>
      </trkpt>
      <trkpt lat="44.50609" lon="1.94594">
        <ele>231</ele>
        <time>2017-09-19T12:14:34Z</time>
      </trkpt>
      <trkpt lat="44.50636" lon="1.94586">
        <ele>231</ele>
        <time>2017-09-19T12:14:57Z</time>
      </trkpt>
      <trkpt lat="44.50642" lon="1.94585">
        <ele>231</ele>
        <time>2017-09-19T12:15:03Z</time>
      </trkpt>
      <trkpt lat="44.50645" lon="1.94583">
        <ele>230</ele>
        <time>2017-09-19T12:15:06Z</time>
      </trkpt>
      <trkpt lat="44.50663" lon="1.94577">
        <ele>218</ele>
        <time>2017-09-19T12:15:20Z</time>
      </trkpt>
      <trkpt lat="44.50665" lon="1.94576">
        <ele>218</ele>
        <time>2017-09-19T12:15:22Z</time>
      </trkpt>
      <trkpt lat="44.50668" lon="1.94574">
        <ele>218</ele>
        <time>2017-09-19T12:15:25Z</time>
      </trkpt>
      <trkpt lat="44.50671" lon="1.94572">
        <ele>218</ele>
        <time>2017-09-19T12:15:28Z</time>
      </trkpt>
      <trkpt lat="44.50674" lon="1.9457">
        <ele>217</ele>
        <time>2017-09-19T12:15:31Z</time>
      </trkpt>
      <trkpt lat="44.50694" lon="1.9456">
        <ele>214</ele>
        <time>2017-09-19T12:15:53Z</time>
      </trkpt>
      <trkpt lat="44.507" lon="1.94558">
        <ele>214</ele>
        <time>2017-09-19T12:15:59Z</time>
      </trkpt>
      <trkpt lat="44.50704" lon="1.94555">
        <ele>213</ele>
        <time>2017-09-19T12:16:02Z</time>
      </trkpt>
      <trkpt lat="44.50709" lon="1.94551">
        <ele>213</ele>
        <time>2017-09-19T12:16:09Z</time>
      </trkpt>
      <trkpt lat="44.50734" lon="1.94539">
        <ele>212</ele>
        <time>2017-09-19T12:16:34Z</time>
      </trkpt>
      <trkpt lat="44.50747" lon="1.94532">
        <ele>210</ele>
        <time>2017-09-19T12:16:47Z</time>
      </trkpt>
      <trkpt lat="44.5076" lon="1.94528">
        <ele>211</ele>
        <time>2017-09-19T12:16:59Z</time>
      </trkpt>
      <trkpt lat="44.50768" lon="1.94523">
        <ele>211</ele>
        <time>2017-09-19T12:17:08Z</time>
      </trkpt>
      <trkpt lat="44.50786" lon="1.94517">
        <ele>210</ele>
        <time>2017-09-19T12:17:23Z</time>
      </trkpt>
      <trkpt lat="44.50788" lon="1.94515">
        <ele>210</ele>
        <time>2017-09-19T12:17:27Z</time>
      </trkpt>
      <trkpt lat="44.50792" lon="1.94514">
        <ele>210</ele>
        <time>2017-09-19T12:17:30Z</time>
      </trkpt>
      <trkpt lat="44.50798" lon="1.9451">
        <ele>210</ele>
        <time>2017-09-19T12:17:38Z</time>
      </trkpt>
      <trkpt lat="44.50811" lon="1.94507">
        <ele>208</ele>
        <time>2017-09-19T12:17:51Z</time>
      </trkpt>
      <trkpt lat="44.50814" lon="1.94504">
        <ele>207</ele>
        <time>2017-09-19T12:17:54Z</time>
      </trkpt>
      <trkpt lat="44.50818" lon="1.94503">
        <ele>206</ele>
        <time>2017-09-19T12:17:57Z</time>
      </trkpt>
      <trkpt lat="44.5083" lon="1.94505">
        <ele>203</ele>
        <time>2017-09-19T12:18:06Z</time>
      </trkpt>
      <trkpt lat="44.50835" lon="1.94507">
        <ele>202</ele>
        <time>2017-09-19T12:18:11Z</time>
      </trkpt>
      <trkpt lat="44.50852" lon="1.94514">
        <ele>204</ele>
        <time>2017-09-19T12:18:29Z</time>
      </trkpt>
      <trkpt lat="44.50856" lon="1.94516">
        <ele>205</ele>
        <time>2017-09-19T12:18:35Z</time>
      </trkpt>
      <trkpt lat="44.50858" lon="1.94519">
        <ele>205</ele>
        <time>2017-09-19T12:18:40Z</time>
      </trkpt>
      <trkpt lat="44.5086" lon="1.9452">
        <ele>205</ele>
        <time>2017-09-19T12:19:49Z</time>
      </trkpt>
      <trkpt lat="44.50863" lon="1.94518">
        <ele>205</ele>
        <time>2017-09-19T12:19:52Z</time>
      </trkpt>
      <trkpt lat="44.50866" lon="1.94514">
        <ele>204</ele>
        <time>2017-09-19T12:20:10Z</time>
      </trkpt>
      <trkpt lat="44.50869" lon="1.94514">
        <ele>204</ele>
        <time>2017-09-19T12:21:00Z</time>
      </trkpt>
      <trkpt lat="44.50873" lon="1.94512">
        <ele>204</ele>
        <time>2017-09-19T12:21:48Z</time>
      </trkpt>
      <trkpt lat="44.50876" lon="1.94513">
        <ele>204</ele>
        <time>2017-09-19T12:21:51Z</time>
      </trkpt>
      <trkpt lat="44.50881" lon="1.94514">
        <ele>203</ele>
        <time>2017-09-19T12:21:57Z</time>
      </trkpt>
      <trkpt lat="44.50886" lon="1.94515">
        <ele>203</ele>
        <time>2017-09-19T12:22:02Z</time>
      </trkpt>
      <trkpt lat="44.5089" lon="1.94515">
        <ele>202</ele>
        <time>2017-09-19T12:22:11Z</time>
      </trkpt>
      <trkpt lat="44.50893" lon="1.94517">
        <ele>202</ele>
        <time>2017-09-19T12:22:21Z</time>
      </trkpt>
      <trkpt lat="44.50897" lon="1.94519">
        <ele>202</ele>
        <time>2017-09-19T12:22:23Z</time>
      </trkpt>
      <trkpt lat="44.50914" lon="1.94513">
        <ele>198</ele>
        <time>2017-09-19T12:22:41Z</time>
      </trkpt>
      <trkpt lat="44.50921" lon="1.94507">
        <ele>193</ele>
        <time>2017-09-19T12:22:48Z</time>
      </trkpt>
      <trkpt lat="44.50924" lon="1.94503">
        <ele>193</ele>
        <time>2017-09-19T12:22:52Z</time>
      </trkpt>
      <trkpt lat="44.50926" lon="1.945">
        <ele>189</ele>
        <time>2017-09-19T12:22:55Z</time>
      </trkpt>
      <trkpt lat="44.50932" lon="1.94494">
        <ele>188</ele>
        <time>2017-09-19T12:23:04Z</time>
      </trkpt>
      <trkpt lat="44.50934" lon="1.94492">
        <ele>188</ele>
        <time>2017-09-19T12:23:07Z</time>
      </trkpt>
      <trkpt lat="44.50938" lon="1.94486">
        <ele>187</ele>
        <time>2017-09-19T12:23:12Z</time>
      </trkpt>
      <trkpt lat="44.50945" lon="1.9448">
        <ele>186</ele>
        <time>2017-09-19T12:23:18Z</time>
      </trkpt>
      <trkpt lat="44.50954" lon="1.94473">
        <ele>185</ele>
        <time>2017-09-19T12:23:31Z</time>
      </trkpt>
      <trkpt lat="44.50955" lon="1.94471">
        <ele>185</ele>
        <time>2017-09-19T12:23:34Z</time>
      </trkpt>
      <trkpt lat="44.50957" lon="1.94469">
        <ele>185</ele>
        <time>2017-09-19T12:23:37Z</time>
      </trkpt>
      <trkpt lat="44.50962" lon="1.94468">
        <ele>184</ele>
        <time>2017-09-19T12:23:42Z</time>
      </trkpt>
      <trkpt lat="44.50968" lon="1.94466">
        <ele>184</ele>
        <time>2017-09-19T12:23:49Z</time>
      </trkpt>
      <trkpt lat="44.5097" lon="1.94465">
        <ele>184</ele>
        <time>2017-09-19T12:23:52Z</time>
      </trkpt>
      <trkpt lat="44.50972" lon="1.9446">
        <ele>184</ele>
        <time>2017-09-19T12:23:57Z</time>
      </trkpt>
      <trkpt lat="44.50997" lon="1.94459">
        <ele>183</ele>
        <time>2017-09-19T12:24:23Z</time>
      </trkpt>
      <trkpt lat="44.51006" lon="1.94457">
        <ele>178</ele>
        <time>2017-09-19T12:24:33Z</time>
      </trkpt>
      <trkpt lat="44.51008" lon="1.94457">
        <ele>178</ele>
        <time>2017-09-19T12:24:36Z</time>
      </trkpt>
      <trkpt lat="44.5101" lon="1.94456">
        <ele>178</ele>
        <time>2017-09-19T12:24:41Z</time>
      </trkpt>
      <trkpt lat="44.51012" lon="1.94455">
        <ele>178</ele>
        <time>2017-09-19T12:24:43Z</time>
      </trkpt>
      <trkpt lat="44.51017" lon="1.94455">
        <ele>178</ele>
        <time>2017-09-19T12:24:49Z</time>
      </trkpt>
      <trkpt lat="44.51023" lon="1.94454">
        <ele>177</ele>
        <time>2017-09-19T12:24:58Z</time>
      </trkpt>
      <trkpt lat="44.51025" lon="1.9445">
        <ele>177</ele>
        <time>2017-09-19T12:25:02Z</time>
      </trkpt>
      <trkpt lat="44.5103" lon="1.94441">
        <ele>176</ele>
        <time>2017-09-19T12:25:11Z</time>
      </trkpt>
      <trkpt lat="44.51032" lon="1.94439">
        <ele>176</ele>
        <time>2017-09-19T12:25:14Z</time>
      </trkpt>
      <trkpt lat="44.51046" lon="1.94408">
        <ele>170</ele>
        <time>2017-09-19T12:25:37Z</time>
      </trkpt>
      <trkpt lat="44.51047" lon="1.94405">
        <ele>169</ele>
        <time>2017-09-19T12:25:40Z</time>
      </trkpt>
      <trkpt lat="44.51051" lon="1.94393">
        <ele>169</ele>
        <time>2017-09-19T12:25:50Z</time>
      </trkpt>
      <trkpt lat="44.51052" lon="1.9439">
        <ele>169</ele>
        <time>2017-09-19T12:25:53Z</time>
      </trkpt>
      <trkpt lat="44.51061" lon="1.94369">
        <ele>167</ele>
        <time>2017-09-19T12:26:11Z</time>
      </trkpt>
      <trkpt lat="44.51074" lon="1.94348">
        <ele>165</ele>
        <time>2017-09-19T12:26:29Z</time>
      </trkpt>
      <trkpt lat="44.51087" lon="1.94334">
        <ele>161</ele>
        <time>2017-09-19T12:26:45Z</time>
      </trkpt>
      <trkpt lat="44.5109" lon="1.94331">
        <ele>160</ele>
        <time>2017-09-19T12:26:48Z</time>
      </trkpt>
      <trkpt lat="44.51108" lon="1.94312">
        <ele>159</ele>
        <time>2017-09-19T12:27:09Z</time>
      </trkpt>
      <trkpt lat="44.5111" lon="1.9431">
        <ele>159</ele>
        <time>2017-09-19T12:27:12Z</time>
      </trkpt>
      <trkpt lat="44.51127" lon="1.94293">
        <ele>158</ele>
        <time>2017-09-19T12:27:30Z</time>
      </trkpt>
      <trkpt lat="44.51133" lon="1.94287">
        <ele>158</ele>
        <time>2017-09-19T12:27:36Z</time>
      </trkpt>
      <trkpt lat="44.51135" lon="1.94286">
        <ele>158</ele>
        <time>2017-09-19T12:27:38Z</time>
      </trkpt>
      <trkpt lat="44.51139" lon="1.94283">
        <ele>158</ele>
        <time>2017-09-19T12:27:41Z</time>
      </trkpt>
      <trkpt lat="44.51143" lon="1.94282">
        <ele>157</ele>
        <time>2017-09-19T12:27:45Z</time>
      </trkpt>
      <trkpt lat="44.51149" lon="1.94286">
        <ele>157</ele>
        <time>2017-09-19T12:27:52Z</time>
      </trkpt>
      <trkpt lat="44.51155" lon="1.94291">
        <ele>158</ele>
        <time>2017-09-19T12:27:57Z</time>
      </trkpt>
      <trkpt lat="44.51157" lon="1.94293">
        <ele>158</ele>
        <time>2017-09-19T12:27:59Z</time>
      </trkpt>
      <trkpt lat="44.51173" lon="1.94322">
        <ele>157</ele>
        <time>2017-09-19T12:28:30Z</time>
      </trkpt>
      <trkpt lat="44.51198" lon="1.94359">
        <ele>157</ele>
        <time>2017-09-19T12:29:01Z</time>
      </trkpt>
      <trkpt lat="44.51204" lon="1.94367">
        <ele>157</ele>
        <time>2017-09-19T12:29:07Z</time>
      </trkpt>
      <trkpt lat="44.51229" lon="1.94395">
        <ele>157</ele>
        <time>2017-09-19T12:29:35Z</time>
      </trkpt>
      <trkpt lat="44.51233" lon="1.94398">
        <ele>157</ele>
        <time>2017-09-19T12:29:39Z</time>
      </trkpt>
      <trkpt lat="44.51241" lon="1.94409">
        <ele>156</ele>
        <time>2017-09-19T12:29:50Z</time>
      </trkpt>
      <trkpt lat="44.51244" lon="1.9441">
        <ele>156</ele>
        <time>2017-09-19T12:29:53Z</time>
      </trkpt>
      <trkpt lat="44.51259" lon="1.94429">
        <ele>156</ele>
        <time>2017-09-19T12:30:13Z</time>
      </trkpt>
      <trkpt lat="44.51282" lon="1.94454">
        <ele>157</ele>
        <time>2017-09-19T12:30:39Z</time>
      </trkpt>
      <trkpt lat="44.51298" lon="1.94472">
        <ele>157</ele>
        <time>2017-09-19T12:30:56Z</time>
      </trkpt>
      <trkpt lat="44.51326" lon="1.94505">
        <ele>157</ele>
        <time>2017-09-19T12:31:28Z</time>
      </trkpt>
      <trkpt lat="44.51354" lon="1.94538">
        <ele>157</ele>
        <time>2017-09-19T12:31:59Z</time>
      </trkpt>
      <trkpt lat="44.51383" lon="1.94575">
        <ele>157</ele>
        <time>2017-09-19T12:32:29Z</time>
      </trkpt>
      <trkpt lat="44.51409" lon="1.94614">
        <ele>160</ele>
        <time>2017-09-19T12:33:00Z</time>
      </trkpt>
      <trkpt lat="44.51435" lon="1.94656">
        <ele>158</ele>
        <time>2017-09-19T12:33:31Z</time>
      </trkpt>
      <trkpt lat="44.51455" lon="1.94689">
        <ele>159</ele>
        <time>2017-09-19T12:33:58Z</time>
      </trkpt>
      <trkpt lat="44.51457" lon="1.94692">
        <ele>159</ele>
        <time>2017-09-19T12:34:00Z</time>
      </trkpt>
      <trkpt lat="44.51461" lon="1.94698">
        <ele>159</ele>
        <time>2017-09-19T12:34:06Z</time>
      </trkpt>
      <trkpt lat="44.51485" lon="1.9474">
        <ele>158</ele>
        <time>2017-09-19T12:34:38Z</time>
      </trkpt>
      <trkpt lat="44.51498" lon="1.94759">
        <ele>159</ele>
        <time>2017-09-19T12:34:54Z</time>
      </trkpt>
      <trkpt lat="44.51501" lon="1.94762">
        <ele>157</ele>
        <time>2017-09-19T12:34:57Z</time>
      </trkpt>
      <trkpt lat="44.51527" lon="1.94796">
        <ele>158</ele>
        <time>2017-09-19T12:35:28Z</time>
      </trkpt>
      <trkpt lat="44.51548" lon="1.94824">
        <ele>159</ele>
        <time>2017-09-19T12:35:52Z</time>
      </trkpt>
      <trkpt lat="44.51559" lon="1.94844">
        <ele>159</ele>
        <time>2017-09-19T12:36:12Z</time>
      </trkpt>
      <trkpt lat="44.51578" lon="1.94867">
        <ele>159</ele>
        <time>2017-09-19T12:36:32Z</time>
      </trkpt>
      <trkpt lat="44.51583" lon="1.94871">
        <ele>159</ele>
        <time>2017-09-19T12:36:36Z</time>
      </trkpt>
      <trkpt lat="44.51603" lon="1.94901">
        <ele>158</ele>
        <time>2017-09-19T12:36:57Z</time>
      </trkpt>
      <trkpt lat="44.51608" lon="1.94906">
        <ele>158</ele>
        <time>2017-09-19T12:37:03Z</time>
      </trkpt>
      <trkpt lat="44.51611" lon="1.94909">
        <ele>158</ele>
        <time>2017-09-19T12:37:06Z</time>
      </trkpt>
      <trkpt lat="44.51623" lon="1.94929">
        <ele>158</ele>
        <time>2017-09-19T12:37:21Z</time>
      </trkpt>
      <trkpt lat="44.5164" lon="1.94973">
        <ele>158</ele>
        <time>2017-09-19T12:37:51Z</time>
      </trkpt>
      <trkpt lat="44.51643" lon="1.9498">
        <ele>158</ele>
        <time>2017-09-19T12:37:56Z</time>
      </trkpt>
      <trkpt lat="44.51658" lon="1.95033">
        <ele>158</ele>
        <time>2017-09-19T12:38:27Z</time>
      </trkpt>
      <trkpt lat="44.51676" lon="1.9509">
        <ele>159</ele>
        <time>2017-09-19T12:38:59Z</time>
      </trkpt>
      <trkpt lat="44.51696" lon="1.95138">
        <ele>159</ele>
        <time>2017-09-19T12:39:31Z</time>
      </trkpt>
      <trkpt lat="44.51697" lon="1.95144">
        <ele>159</ele>
        <time>2017-09-19T12:39:35Z</time>
      </trkpt>
      <trkpt lat="44.51699" lon="1.95151">
        <ele>159</ele>
        <time>2017-09-19T12:39:40Z</time>
      </trkpt>
      <trkpt lat="44.51702" lon="1.95157">
        <ele>159</ele>
        <time>2017-09-19T12:39:45Z</time>
      </trkpt>
      <trkpt lat="44.51705" lon="1.95164">
        <ele>159</ele>
        <time>2017-09-19T12:39:49Z</time>
      </trkpt>
      <trkpt lat="44.51709" lon="1.95179">
        <ele>160</ele>
        <time>2017-09-19T12:39:57Z</time>
      </trkpt>
      <trkpt lat="44.51715" lon="1.95192">
        <ele>160</ele>
        <time>2017-09-19T12:40:06Z</time>
      </trkpt>
      <trkpt lat="44.51716" lon="1.95198">
        <ele>160</ele>
        <time>2017-09-19T12:40:10Z</time>
      </trkpt>
      <trkpt lat="44.51715" lon="1.95202">
        <ele>161</ele>
        <time>2017-09-19T12:40:14Z</time>
      </trkpt>
      <trkpt lat="44.51709" lon="1.95207">
        <ele>161</ele>
        <time>2017-09-19T12:40:20Z</time>
      </trkpt>
      <trkpt lat="44.51705" lon="1.95208">
        <ele>161</ele>
        <time>2017-09-19T12:40:23Z</time>
      </trkpt>
      <trkpt lat="44.51701" lon="1.95209">
        <ele>161</ele>
        <time>2017-09-19T12:40:26Z</time>
      </trkpt>
      <trkpt lat="44.51698" lon="1.9521">
        <ele>161</ele>
        <time>2017-09-19T12:40:30Z</time>
      </trkpt>
      <trkpt lat="44.51694" lon="1.95213">
        <ele>161</ele>
        <time>2017-09-19T12:40:35Z</time>
      </trkpt>
      <trkpt lat="44.51682" lon="1.95215">
        <ele>161</ele>
        <time>2017-09-19T12:40:47Z</time>
      </trkpt>
      <trkpt lat="44.51677" lon="1.95216">
        <ele>162</ele>
        <time>2017-09-19T12:40:50Z</time>
      </trkpt>
      <trkpt lat="44.51648" lon="1.9523">
        <ele>167</ele>
        <time>2017-09-19T12:41:13Z</time>
      </trkpt>
      <trkpt lat="44.51645" lon="1.95232">
        <ele>167</ele>
        <time>2017-09-19T12:41:30Z</time>
      </trkpt>
      <trkpt lat="44.51646" lon="1.95234">
        <ele>167</ele>
        <time>2017-09-19T12:41:44Z</time>
      </trkpt>
      <trkpt lat="44.51647" lon="1.95245">
        <ele>167</ele>
        <time>2017-09-19T12:41:51Z</time>
      </trkpt>
      <trkpt lat="44.51651" lon="1.95255">
        <ele>170</ele>
        <time>2017-09-19T12:41:57Z</time>
      </trkpt>
      <trkpt lat="44.51653" lon="1.95261">
        <ele>171</ele>
        <time>2017-09-19T12:42:00Z</time>
      </trkpt>
      <trkpt lat="44.51668" lon="1.95308">
        <ele>166</ele>
        <time>2017-09-19T12:42:29Z</time>
      </trkpt>
      <trkpt lat="44.51671" lon="1.95323">
        <ele>168</ele>
        <time>2017-09-19T12:42:38Z</time>
      </trkpt>
      <trkpt lat="44.51674" lon="1.95334">
        <ele>169</ele>
        <time>2017-09-19T12:42:45Z</time>
      </trkpt>
      <trkpt lat="44.51679" lon="1.95349">
        <ele>169</ele>
        <time>2017-09-19T12:42:54Z</time>
      </trkpt>
      <trkpt lat="44.51681" lon="1.95362">
        <ele>169</ele>
        <time>2017-09-19T12:43:02Z</time>
      </trkpt>
      <trkpt lat="44.51688" lon="1.95384">
        <ele>169</ele>
        <time>2017-09-19T12:43:15Z</time>
      </trkpt>
      <trkpt lat="44.51696" lon="1.95406">
        <ele>170</ele>
        <time>2017-09-19T12:43:27Z</time>
      </trkpt>
      <trkpt lat="44.51698" lon="1.95411">
        <ele>170</ele>
        <time>2017-09-19T12:43:32Z</time>
      </trkpt>
      <trkpt lat="44.51705" lon="1.95428">
        <ele>171</ele>
        <time>2017-09-19T12:43:46Z</time>
      </trkpt>
      <trkpt lat="44.51709" lon="1.95439">
        <ele>171</ele>
        <time>2017-09-19T12:43:53Z</time>
      </trkpt>
      <trkpt lat="44.51711" lon="1.95445">
        <ele>171</ele>
        <time>2017-09-19T12:43:58Z</time>
      </trkpt>
      <trkpt lat="44.51712" lon="1.95451">
        <ele>171</ele>
        <time>2017-09-19T12:44:02Z</time>
      </trkpt>
      <trkpt lat="44.51713" lon="1.95456">
        <ele>171</ele>
        <time>2017-09-19T12:44:06Z</time>
      </trkpt>
      <trkpt lat="44.51718" lon="1.95469">
        <ele>171</ele>
        <time>2017-09-19T12:44:16Z</time>
      </trkpt>
      <trkpt lat="44.51721" lon="1.95474">
        <ele>170</ele>
        <time>2017-09-19T12:44:19Z</time>
      </trkpt>
      <trkpt lat="44.51727" lon="1.95487">
        <ele>169</ele>
        <time>2017-09-19T12:44:27Z</time>
      </trkpt>
      <trkpt lat="44.51733" lon="1.95498">
        <ele>168</ele>
        <time>2017-09-19T12:44:34Z</time>
      </trkpt>
      <trkpt lat="44.51735" lon="1.95504">
        <ele>170</ele>
        <time>2017-09-19T12:44:38Z</time>
      </trkpt>
      <trkpt lat="44.51741" lon="1.95516">
        <ele>170</ele>
        <time>2017-09-19T12:44:46Z</time>
      </trkpt>
      <trkpt lat="44.51746" lon="1.95526">
        <ele>171</ele>
        <time>2017-09-19T12:44:52Z</time>
      </trkpt>
      <trkpt lat="44.5175" lon="1.95535">
        <ele>164</ele>
        <time>2017-09-19T12:44:59Z</time>
      </trkpt>
      <trkpt lat="44.51754" lon="1.95546">
        <ele>164</ele>
        <time>2017-09-19T12:45:05Z</time>
      </trkpt>
      <trkpt lat="44.5176" lon="1.95568">
        <ele>165</ele>
        <time>2017-09-19T12:45:18Z</time>
      </trkpt>
      <trkpt lat="44.51769" lon="1.95593">
        <ele>166</ele>
        <time>2017-09-19T12:45:33Z</time>
      </trkpt>
      <trkpt lat="44.51775" lon="1.95614">
        <ele>166</ele>
        <time>2017-09-19T12:45:46Z</time>
      </trkpt>
      <trkpt lat="44.51775" lon="1.9562">
        <ele>166</ele>
        <time>2017-09-19T12:45:50Z</time>
      </trkpt>
      <trkpt lat="44.5178" lon="1.95631">
        <ele>166</ele>
        <time>2017-09-19T12:45:57Z</time>
      </trkpt>
      <trkpt lat="44.51782" lon="1.95636">
        <ele>167</ele>
        <time>2017-09-19T12:46:00Z</time>
      </trkpt>
      <trkpt lat="44.51785" lon="1.95646">
        <ele>167</ele>
        <time>2017-09-19T12:46:07Z</time>
      </trkpt>
      <trkpt lat="44.51797" lon="1.95695">
        <ele>170</ele>
        <time>2017-09-19T12:46:36Z</time>
      </trkpt>
      <trkpt lat="44.51801" lon="1.95709">
        <ele>171</ele>
        <time>2017-09-19T12:46:45Z</time>
      </trkpt>
      <trkpt lat="44.51802" lon="1.95715">
        <ele>171</ele>
        <time>2017-09-19T12:46:49Z</time>
      </trkpt>
      <trkpt lat="44.51803" lon="1.95721">
        <ele>171</ele>
        <time>2017-09-19T12:46:54Z</time>
      </trkpt>
      <trkpt lat="44.51804" lon="1.95727">
        <ele>171</ele>
        <time>2017-09-19T12:46:58Z</time>
      </trkpt>
      <trkpt lat="44.51807" lon="1.95733">
        <ele>171</ele>
        <time>2017-09-19T12:47:02Z</time>
      </trkpt>
      <trkpt lat="44.51815" lon="1.95753">
        <ele>173</ele>
        <time>2017-09-19T12:47:16Z</time>
      </trkpt>
      <trkpt lat="44.51818" lon="1.9576">
        <ele>172</ele>
        <time>2017-09-19T12:47:20Z</time>
      </trkpt>
      <trkpt lat="44.51822" lon="1.95772">
        <ele>173</ele>
        <time>2017-09-19T12:47:28Z</time>
      </trkpt>
      <trkpt lat="44.51826" lon="1.95786">
        <ele>174</ele>
        <time>2017-09-19T12:47:34Z</time>
      </trkpt>
      <trkpt lat="44.51833" lon="1.958">
        <ele>174</ele>
        <time>2017-09-19T12:47:44Z</time>
      </trkpt>
      <trkpt lat="44.51836" lon="1.95804">
        <ele>165</ele>
        <time>2017-09-19T12:47:47Z</time>
      </trkpt>
      <trkpt lat="44.51841" lon="1.95811">
        <ele>166</ele>
        <time>2017-09-19T12:47:53Z</time>
      </trkpt>
      <trkpt lat="44.51843" lon="1.95814">
        <ele>166</ele>
        <time>2017-09-19T12:48:12Z</time>
      </trkpt>
      <trkpt lat="44.51841" lon="1.95816">
        <ele>166</ele>
        <time>2017-09-19T12:48:36Z</time>
      </trkpt>
      <trkpt lat="44.51843" lon="1.95833">
        <ele>167</ele>
        <time>2017-09-19T12:48:48Z</time>
      </trkpt>
      <trkpt lat="44.51845" lon="1.95842">
        <ele>168</ele>
        <time>2017-09-19T12:48:53Z</time>
      </trkpt>
      <trkpt lat="44.51847" lon="1.95847">
        <ele>168</ele>
        <time>2017-09-19T12:48:56Z</time>
      </trkpt>
      <trkpt lat="44.5185" lon="1.9585">
        <ele>168</ele>
        <time>2017-09-19T12:48:59Z</time>
      </trkpt>
      <trkpt lat="44.51854" lon="1.9585">
        <ele>168</ele>
        <time>2017-09-19T12:49:02Z</time>
      </trkpt>
      <trkpt lat="44.51873" lon="1.95837">
        <ele>166</ele>
        <time>2017-09-19T12:49:17Z</time>
      </trkpt>
      <trkpt lat="44.51908" lon="1.95812">
        <ele>161</ele>
        <time>2017-09-19T12:49:48Z</time>
      </trkpt>
      <trkpt lat="44.51941" lon="1.95789">
        <ele>158</ele>
        <time>2017-09-19T12:50:19Z</time>
      </trkpt>
      <trkpt lat="44.51959" lon="1.95776">
        <ele>158</ele>
        <time>2017-09-19T12:50:35Z</time>
      </trkpt>
      <trkpt lat="44.51963" lon="1.95778">
        <ele>158</ele>
        <time>2017-09-19T12:50:41Z</time>
      </trkpt>
      <trkpt lat="44.5197" lon="1.95775">
        <ele>158</ele>
        <time>2017-09-19T12:50:48Z</time>
      </trkpt>
      <trkpt lat="44.51973" lon="1.95774">
        <ele>158</ele>
        <time>2017-09-19T12:50:51Z</time>
      </trkpt>
      <trkpt lat="44.51975" lon="1.95772">
        <ele>158</ele>
        <time>2017-09-19T12:50:53Z</time>
      </trkpt>
      <trkpt lat="44.51977" lon="1.95769">
        <ele>158</ele>
        <time>2017-09-19T12:50:55Z</time>
      </trkpt>
      <trkpt lat="44.51979" lon="1.95767">
        <ele>158</ele>
        <time>2017-09-19T12:50:58Z</time>
      </trkpt>
      <trkpt lat="44.5198" lon="1.95764">
        <ele>159</ele>
        <time>2017-09-19T12:51:02Z</time>
      </trkpt>
      <trkpt lat="44.51983" lon="1.95764">
        <ele>159</ele>
        <time>2017-09-19T12:51:05Z</time>
      </trkpt>
      <trkpt lat="44.51986" lon="1.95763">
        <ele>159</ele>
        <time>2017-09-19T12:51:08Z</time>
      </trkpt>
      <trkpt lat="44.51993" lon="1.95756">
        <ele>159</ele>
        <time>2017-09-19T12:51:15Z</time>
      </trkpt>
      <trkpt lat="44.51995" lon="1.95752">
        <ele>159</ele>
        <time>2017-09-19T12:51:18Z</time>
      </trkpt>
      <trkpt lat="44.52" lon="1.95745">
        <ele>159</ele>
        <time>2017-09-19T12:51:23Z</time>
      </trkpt>
      <trkpt lat="44.52005" lon="1.95742">
        <ele>159</ele>
        <time>2017-09-19T12:51:27Z</time>
      </trkpt>
      <trkpt lat="44.52025" lon="1.95712">
        <ele>158</ele>
        <time>2017-09-19T12:51:50Z</time>
      </trkpt>
      <trkpt lat="44.52031" lon="1.95695">
        <ele>158</ele>
        <time>2017-09-19T12:52:00Z</time>
      </trkpt>
      <trkpt lat="44.52039" lon="1.95685">
        <ele>158</ele>
        <time>2017-09-19T12:52:09Z</time>
      </trkpt>
      <trkpt lat="44.5206" lon="1.9564">
        <ele>158</ele>
        <time>2017-09-19T12:52:39Z</time>
      </trkpt>
      <trkpt lat="44.52074" lon="1.95616">
        <ele>158</ele>
        <time>2017-09-19T12:52:56Z</time>
      </trkpt>
      <trkpt lat="44.52098" lon="1.95579">
        <ele>159</ele>
        <time>2017-09-19T12:53:24Z</time>
      </trkpt>
      <trkpt lat="44.52119" lon="1.95546">
        <ele>159</ele>
        <time>2017-09-19T12:53:49Z</time>
      </trkpt>
      <trkpt lat="44.52121" lon="1.95543">
        <ele>159</ele>
        <time>2017-09-19T12:53:52Z</time>
      </trkpt>
      <trkpt lat="44.52124" lon="1.95537">
        <ele>159</ele>
        <time>2017-09-19T12:53:58Z</time>
      </trkpt>
      <trkpt lat="44.52125" lon="1.95534">
        <ele>159</ele>
        <time>2017-09-19T12:54:00Z</time>
      </trkpt>
      <trkpt lat="44.52127" lon="1.95531">
        <ele>159</ele>
        <time>2017-09-19T12:54:02Z</time>
      </trkpt>
      <trkpt lat="44.52134" lon="1.95518">
        <ele>159</ele>
        <time>2017-09-19T12:54:11Z</time>
      </trkpt>
      <trkpt lat="44.52135" lon="1.95515">
        <ele>159</ele>
        <time>2017-09-19T12:54:13Z</time>
      </trkpt>
      <trkpt lat="44.5214" lon="1.95507">
        <ele>159</ele>
        <time>2017-09-19T12:54:19Z</time>
      </trkpt>
      <trkpt lat="44.52144" lon="1.95498">
        <ele>159</ele>
        <time>2017-09-19T12:54:25Z</time>
      </trkpt>
      <trkpt lat="44.52157" lon="1.95466">
        <ele>159</ele>
        <time>2017-09-19T12:54:48Z</time>
      </trkpt>
      <trkpt lat="44.52166" lon="1.95437">
        <ele>159</ele>
        <time>2017-09-19T12:55:06Z</time>
      </trkpt>
      <trkpt lat="44.52188" lon="1.95391">
        <ele>159</ele>
        <time>2017-09-19T12:55:38Z</time>
      </trkpt>
      <trkpt lat="44.52197" lon="1.95375">
        <ele>159</ele>
        <time>2017-09-19T12:55:50Z</time>
      </trkpt>
      <trkpt lat="44.52199" lon="1.95371">
        <ele>159</ele>
        <time>2017-09-19T12:55:53Z</time>
      </trkpt>
      <trkpt lat="44.52223" lon="1.95326">
        <ele>159</ele>
        <time>2017-09-19T12:56:23Z</time>
      </trkpt>
      <trkpt lat="44.52225" lon="1.95322">
        <ele>159</ele>
        <time>2017-09-19T12:56:26Z</time>
      </trkpt>
      <trkpt lat="44.52229" lon="1.95314">
        <ele>159</ele>
        <time>2017-09-19T12:56:32Z</time>
      </trkpt>
      <trkpt lat="44.52244" lon="1.95282">
        <ele>159</ele>
        <time>2017-09-19T12:56:54Z</time>
      </trkpt>
      <trkpt lat="44.52252" lon="1.95271">
        <ele>159</ele>
        <time>2017-09-19T12:57:02Z</time>
      </trkpt>
      <trkpt lat="44.52269" lon="1.95238">
        <ele>159</ele>
        <time>2017-09-19T12:57:24Z</time>
      </trkpt>
      <trkpt lat="44.52271" lon="1.95235">
        <ele>159</ele>
        <time>2017-09-19T12:57:27Z</time>
      </trkpt>
      <trkpt lat="44.52277" lon="1.95232">
        <ele>159</ele>
        <time>2017-09-19T12:57:33Z</time>
      </trkpt>
      <trkpt lat="44.5228" lon="1.9523">
        <ele>159</ele>
        <time>2017-09-19T12:57:59Z</time>
      </trkpt>
      <trkpt lat="44.52281" lon="1.95225">
        <ele>159</ele>
        <time>2017-09-19T12:58:02Z</time>
      </trkpt>
      <trkpt lat="44.523" lon="1.9519">
        <ele>159</ele>
        <time>2017-09-19T12:58:23Z</time>
      </trkpt>
      <trkpt lat="44.52303" lon="1.95188">
        <ele>159</ele>
        <time>2017-09-19T12:58:25Z</time>
      </trkpt>
      <trkpt lat="44.52311" lon="1.95178">
        <ele>159</ele>
        <time>2017-09-19T12:58:32Z</time>
      </trkpt>
      <trkpt lat="44.52343" lon="1.95139">
        <ele>160</ele>
        <time>2017-09-19T12:59:03Z</time>
      </trkpt>
      <trkpt lat="44.5236" lon="1.9512">
        <ele>161</ele>
        <time>2017-09-19T12:59:19Z</time>
      </trkpt>
      <trkpt lat="44.52378" lon="1.95088">
        <ele>161</ele>
        <time>2017-09-19T12:59:41Z</time>
      </trkpt>
      <trkpt lat="44.5239" lon="1.95072">
        <ele>161</ele>
        <time>2017-09-19T12:59:55Z</time>
      </trkpt>
      <trkpt lat="44.52393" lon="1.95064">
        <ele>162</ele>
        <time>2017-09-19T13:00:00Z</time>
      </trkpt>
      <trkpt lat="44.52395" lon="1.9506">
        <ele>162</ele>
        <time>2017-09-19T13:00:03Z</time>
      </trkpt>
      <trkpt lat="44.52397" lon="1.95058">
        <ele>162</ele>
        <time>2017-09-19T13:00:05Z</time>
      </trkpt>
      <trkpt lat="44.524" lon="1.95057">
        <ele>162</ele>
        <time>2017-09-19T13:00:07Z</time>
      </trkpt>
      <trkpt lat="44.52403" lon="1.95058">
        <ele>162</ele>
        <time>2017-09-19T13:00:10Z</time>
      </trkpt>
      <trkpt lat="44.52419" lon="1.9507">
        <ele>164</ele>
        <time>2017-09-19T13:00:24Z</time>
      </trkpt>
      <trkpt lat="44.52421" lon="1.95073">
        <ele>164</ele>
        <time>2017-09-19T13:00:26Z</time>
      </trkpt>
      <trkpt lat="44.52453" lon="1.95104">
        <ele>166</ele>
        <time>2017-09-19T13:00:57Z</time>
      </trkpt>
      <trkpt lat="44.52472" lon="1.95128">
        <ele>167</ele>
        <time>2017-09-19T13:01:17Z</time>
      </trkpt>
      <trkpt lat="44.52475" lon="1.95134">
        <ele>167</ele>
        <time>2017-09-19T13:01:21Z</time>
      </trkpt>
      <trkpt lat="44.52488" lon="1.95152">
        <ele>169</ele>
        <time>2017-09-19T13:01:35Z</time>
      </trkpt>
      <trkpt lat="44.52491" lon="1.95156">
        <ele>169</ele>
        <time>2017-09-19T13:01:38Z</time>
      </trkpt>
      <trkpt lat="44.52492" lon="1.95159">
        <ele>169</ele>
        <time>2017-09-19T13:02:15Z</time>
      </trkpt>
      <trkpt lat="44.52494" lon="1.95163">
        <ele>170</ele>
        <time>2017-09-19T13:02:32Z</time>
      </trkpt>
      <trkpt lat="44.52497" lon="1.95166">
        <ele>170</ele>
        <time>2017-09-19T13:02:35Z</time>
      </trkpt>
      <trkpt lat="44.5252" lon="1.95189">
        <ele>174</ele>
        <time>2017-09-19T13:02:58Z</time>
      </trkpt>
      <trkpt lat="44.52548" lon="1.95222">
        <ele>175</ele>
        <time>2017-09-19T13:03:26Z</time>
      </trkpt>
      <trkpt lat="44.52556" lon="1.9523">
        <ele>176</ele>
        <time>2017-09-19T13:03:33Z</time>
      </trkpt>
      <trkpt lat="44.52571" lon="1.9525">
        <ele>177</ele>
        <time>2017-09-19T13:03:49Z</time>
      </trkpt>
      <trkpt lat="44.52575" lon="1.95255">
        <ele>178</ele>
        <time>2017-09-19T13:03:53Z</time>
      </trkpt>
      <trkpt lat="44.52589" lon="1.95282">
        <ele>182</ele>
        <time>2017-09-19T13:04:14Z</time>
      </trkpt>
      <trkpt lat="44.52601" lon="1.95303">
        <ele>184</ele>
        <time>2017-09-19T13:04:30Z</time>
      </trkpt>
      <trkpt lat="44.52608" lon="1.95318">
        <ele>185</ele>
        <time>2017-09-19T13:04:40Z</time>
      </trkpt>
      <trkpt lat="44.52611" lon="1.95325">
        <ele>185</ele>
        <time>2017-09-19T13:04:46Z</time>
      </trkpt>
      <trkpt lat="44.52611" lon="1.95328">
        <ele>185</ele>
        <time>2017-09-19T13:04:50Z</time>
      </trkpt>
      <trkpt lat="44.52616" lon="1.95331">
        <ele>185</ele>
        <time>2017-09-19T13:04:54Z</time>
      </trkpt>
      <trkpt lat="44.52618" lon="1.95334">
        <ele>188</ele>
        <time>2017-09-19T13:04:56Z</time>
      </trkpt>
      <trkpt lat="44.52629" lon="1.95337">
        <ele>189</ele>
        <time>2017-09-19T13:05:05Z</time>
      </trkpt>
      <trkpt lat="44.52636" lon="1.95338">
        <ele>190</ele>
        <time>2017-09-19T13:05:10Z</time>
      </trkpt>
      <trkpt lat="44.52645" lon="1.95341">
        <ele>190</ele>
        <time>2017-09-19T13:05:19Z</time>
      </trkpt>
      <trkpt lat="44.52662" lon="1.95362">
        <ele>191</ele>
        <time>2017-09-19T13:05:37Z</time>
      </trkpt>
      <trkpt lat="44.52666" lon="1.95365">
        <ele>191</ele>
        <time>2017-09-19T13:05:41Z</time>
      </trkpt>
      <trkpt lat="44.52672" lon="1.95365">
        <ele>193</ele>
        <time>2017-09-19T13:05:45Z</time>
      </trkpt>
      <trkpt lat="44.52674" lon="1.95365">
        <ele>193</ele>
        <time>2017-09-19T13:05:47Z</time>
      </trkpt>
      <trkpt lat="44.52677" lon="1.95367">
        <ele>193</ele>
        <time>2017-09-19T13:05:50Z</time>
      </trkpt>
      <trkpt lat="44.52681" lon="1.9537">
        <ele>193</ele>
        <time>2017-09-19T13:05:54Z</time>
      </trkpt>
      <trkpt lat="44.52684" lon="1.9537">
        <ele>193</ele>
        <time>2017-09-19T13:05:56Z</time>
      </trkpt>
      <trkpt lat="44.52694" lon="1.95368">
        <ele>193</ele>
        <time>2017-09-19T13:06:04Z</time>
      </trkpt>
      <trkpt lat="44.52697" lon="1.95368">
        <ele>193</ele>
        <time>2017-09-19T13:06:06Z</time>
      </trkpt>
      <trkpt lat="44.52699" lon="1.95369">
        <ele>193</ele>
        <time>2017-09-19T13:06:08Z</time>
      </trkpt>
      <trkpt lat="44.52704" lon="1.95378">
        <ele>194</ele>
        <time>2017-09-19T13:06:14Z</time>
      </trkpt>
      <trkpt lat="44.52705" lon="1.9538">
        <ele>194</ele>
        <time>2017-09-19T13:06:16Z</time>
      </trkpt>
      <trkpt lat="44.52707" lon="1.95381">
        <ele>194</ele>
        <time>2017-09-19T13:06:18Z</time>
      </trkpt>
      <trkpt lat="44.52712" lon="1.95378">
        <ele>194</ele>
        <time>2017-09-19T13:06:23Z</time>
      </trkpt>
      <trkpt lat="44.52715" lon="1.95378">
        <ele>194</ele>
        <time>2017-09-19T13:06:25Z</time>
      </trkpt>
      <trkpt lat="44.52747" lon="1.95363">
        <ele>193</ele>
        <time>2017-09-19T13:06:51Z</time>
      </trkpt>
      <trkpt lat="44.52762" lon="1.9536">
        <ele>194</ele>
        <time>2017-09-19T13:07:03Z</time>
      </trkpt>
      <trkpt lat="44.52769" lon="1.95358">
        <ele>194</ele>
        <time>2017-09-19T13:07:11Z</time>
      </trkpt>
      <trkpt lat="44.52796" lon="1.95358">
        <ele>195</ele>
        <time>2017-09-19T13:07:34Z</time>
      </trkpt>
      <trkpt lat="44.52814" lon="1.95363">
        <ele>195</ele>
        <time>2017-09-19T13:07:50Z</time>
      </trkpt>
      <trkpt lat="44.52836" lon="1.95365">
        <ele>196</ele>
        <time>2017-09-19T13:08:09Z</time>
      </trkpt>
      <trkpt lat="44.52841" lon="1.95364">
        <ele>196</ele>
        <time>2017-09-19T13:08:13Z</time>
      </trkpt>
      <trkpt lat="44.52857" lon="1.95366">
        <ele>196</ele>
        <time>2017-09-19T13:08:27Z</time>
      </trkpt>
      <trkpt lat="44.52859" lon="1.95366">
        <ele>196</ele>
        <time>2017-09-19T13:08:29Z</time>
      </trkpt>
      <trkpt lat="44.52876" lon="1.95368">
        <ele>196</ele>
        <time>2017-09-19T13:08:50Z</time>
      </trkpt>
      <trkpt lat="44.52882" lon="1.95372">
        <ele>196</ele>
        <time>2017-09-19T13:08:56Z</time>
      </trkpt>
      <trkpt lat="44.52886" lon="1.95376">
        <ele>197</ele>
        <time>2017-09-19T13:09:00Z</time>
      </trkpt>
      <trkpt lat="44.52897" lon="1.95395">
        <ele>197</ele>
        <time>2017-09-19T13:09:14Z</time>
      </trkpt>
      <trkpt lat="44.5291" lon="1.95414">
        <ele>198</ele>
        <time>2017-09-19T13:09:30Z</time>
      </trkpt>
      <trkpt lat="44.52912" lon="1.95418">
        <ele>199</ele>
        <time>2017-09-19T13:09:33Z</time>
      </trkpt>
      <trkpt lat="44.52913" lon="1.9542">
        <ele>199</ele>
        <time>2017-09-19T13:09:35Z</time>
      </trkpt>
      <trkpt lat="44.5292" lon="1.95435">
        <ele>202</ele>
        <time>2017-09-19T13:09:46Z</time>
      </trkpt>
      <trkpt lat="44.52922" lon="1.95441">
        <ele>203</ele>
        <time>2017-09-19T13:09:56Z</time>
      </trkpt>
      <trkpt lat="44.52934" lon="1.95465">
        <ele>205</ele>
        <time>2017-09-19T13:10:14Z</time>
      </trkpt>
      <trkpt lat="44.52937" lon="1.95468">
        <ele>205</ele>
        <time>2017-09-19T13:10:17Z</time>
      </trkpt>
      <trkpt lat="44.52938" lon="1.95471">
        <ele>205</ele>
        <time>2017-09-19T13:10:20Z</time>
      </trkpt>
      <trkpt lat="44.52947" lon="1.9549">
        <ele>206</ele>
        <time>2017-09-19T13:10:34Z</time>
      </trkpt>
      <trkpt lat="44.52949" lon="1.95493">
        <ele>206</ele>
        <time>2017-09-19T13:10:36Z</time>
      </trkpt>
      <trkpt lat="44.52954" lon="1.955">
        <ele>213</ele>
        <time>2017-09-19T13:10:42Z</time>
      </trkpt>
      <trkpt lat="44.52955" lon="1.95504">
        <ele>213</ele>
        <time>2017-09-19T13:10:44Z</time>
      </trkpt>
      <trkpt lat="44.52959" lon="1.95512">
        <ele>213</ele>
        <time>2017-09-19T13:10:51Z</time>
      </trkpt>
      <trkpt lat="44.52961" lon="1.95515">
        <ele>214</ele>
        <time>2017-09-19T13:10:53Z</time>
      </trkpt>
      <trkpt lat="44.52964" lon="1.9552">
        <ele>214</ele>
        <time>2017-09-19T13:10:58Z</time>
      </trkpt>
      <trkpt lat="44.52967" lon="1.95525">
        <ele>214</ele>
        <time>2017-09-19T13:11:02Z</time>
      </trkpt>
      <trkpt lat="44.52977" lon="1.95537">
        <ele>216</ele>
        <time>2017-09-19T13:11:12Z</time>
      </trkpt>
      <trkpt lat="44.52981" lon="1.95547">
        <ele>217</ele>
        <time>2017-09-19T13:11:19Z</time>
      </trkpt>
      <trkpt lat="44.52983" lon="1.95549">
        <ele>217</ele>
        <time>2017-09-19T13:11:21Z</time>
      </trkpt>
      <trkpt lat="44.52984" lon="1.9555">
        <ele>218</ele>
        <time>2017-09-19T13:11:23Z</time>
      </trkpt>
      <trkpt lat="44.52992" lon="1.95559">
        <ele>220</ele>
        <time>2017-09-19T13:11:42Z</time>
      </trkpt>
      <trkpt lat="44.53005" lon="1.95566">
        <ele>229</ele>
        <time>2017-09-19T13:12:00Z</time>
      </trkpt>
      <trkpt lat="44.53008" lon="1.95569">
        <ele>229</ele>
        <time>2017-09-19T13:12:03Z</time>
      </trkpt>
      <trkpt lat="44.53007" lon="1.9557">
        <ele>229</ele>
        <time>2017-09-19T13:12:16Z</time>
      </trkpt>
      <trkpt lat="44.53007" lon="1.95573">
        <ele>229</ele>
        <time>2017-09-19T13:12:27Z</time>
      </trkpt>
      <trkpt lat="44.53005" lon="1.95577">
        <ele>229</ele>
        <time>2017-09-19T13:12:30Z</time>
      </trkpt>
      <trkpt lat="44.53003" lon="1.9558">
        <ele>229</ele>
        <time>2017-09-19T13:12:33Z</time>
      </trkpt>
      <trkpt lat="44.52995" lon="1.95587">
        <ele>228</ele>
        <time>2017-09-19T13:12:43Z</time>
      </trkpt>
      <trkpt lat="44.52992" lon="1.9559">
        <ele>228</ele>
        <time>2017-09-19T13:12:46Z</time>
      </trkpt>
      <trkpt lat="44.52987" lon="1.95598">
        <ele>228</ele>
        <time>2017-09-19T13:12:53Z</time>
      </trkpt>
      <trkpt lat="44.52985" lon="1.95602">
        <ele>228</ele>
        <time>2017-09-19T13:12:56Z</time>
      </trkpt>
      <trkpt lat="44.52985" lon="1.95607">
        <ele>228</ele>
        <time>2017-09-19T13:12:59Z</time>
      </trkpt>
      <trkpt lat="44.52985" lon="1.95611">
        <ele>228</ele>
        <time>2017-09-19T13:13:02Z</time>
      </trkpt>
      <trkpt lat="44.52984" lon="1.95616">
        <ele>228</ele>
        <time>2017-09-19T13:13:05Z</time>
      </trkpt>
      <trkpt lat="44.5298" lon="1.95622">
        <ele>228</ele>
        <time>2017-09-19T13:13:11Z</time>
      </trkpt>
      <trkpt lat="44.52978" lon="1.95629">
        <ele>229</ele>
        <time>2017-09-19T13:13:16Z</time>
      </trkpt>
      <trkpt lat="44.52976" lon="1.9563">
        <ele>229</ele>
        <time>2017-09-19T13:13:20Z</time>
      </trkpt>
      <trkpt lat="44.52977" lon="1.95633">
        <ele>229</ele>
        <time>2017-09-19T13:13:27Z</time>
      </trkpt>
      <trkpt lat="44.52981" lon="1.95635">
        <ele>230</ele>
        <time>2017-09-19T13:13:59Z</time>
      </trkpt>
      <trkpt lat="44.52985" lon="1.9563">
        <ele>230</ele>
        <time>2017-09-19T13:14:07Z</time>
      </trkpt>
      <trkpt lat="44.52988" lon="1.95625">
        <ele>229</ele>
        <time>2017-09-19T13:14:19Z</time>
      </trkpt>
      <trkpt lat="44.52995" lon="1.95622">
        <ele>229</ele>
        <time>2017-09-19T13:14:25Z</time>
      </trkpt>
      <trkpt lat="44.52998" lon="1.95621">
        <ele>229</ele>
        <time>2017-09-19T13:14:28Z</time>
      </trkpt>
      <trkpt lat="44.53" lon="1.95617">
        <ele>229</ele>
        <time>2017-09-19T13:14:33Z</time>
      </trkpt>
      <trkpt lat="44.53014" lon="1.95611">
        <ele>242</ele>
        <time>2017-09-19T13:14:44Z</time>
      </trkpt>
      <trkpt lat="44.53035" lon="1.95601">
        <ele>244</ele>
        <time>2017-09-19T13:15:02Z</time>
      </trkpt>
      <trkpt lat="44.53059" lon="1.95594">
        <ele>247</ele>
        <time>2017-09-19T13:15:24Z</time>
      </trkpt>
      <trkpt lat="44.53082" lon="1.95579">
        <ele>247</ele>
        <time>2017-09-19T13:15:45Z</time>
      </trkpt>
      <trkpt lat="44.53089" lon="1.9558">
        <ele>250</ele>
        <time>2017-09-19T13:15:52Z</time>
      </trkpt>
      <trkpt lat="44.5309" lon="1.95585">
        <ele>254</ele>
        <time>2017-09-19T13:15:59Z</time>
      </trkpt>
      <trkpt lat="44.53081" lon="1.956">
        <ele>249</ele>
        <time>2017-09-19T13:16:13Z</time>
      </trkpt>
      <trkpt lat="44.53073" lon="1.95616">
        <ele>250</ele>
        <time>2017-09-19T13:16:24Z</time>
      </trkpt>
      <trkpt lat="44.53071" lon="1.9562">
        <ele>250</ele>
        <time>2017-09-19T13:16:27Z</time>
      </trkpt>
      <trkpt lat="44.53057" lon="1.95648">
        <ele>252</ele>
        <time>2017-09-19T13:16:46Z</time>
      </trkpt>
      <trkpt lat="44.53054" lon="1.95652">
        <ele>252</ele>
        <time>2017-09-19T13:16:49Z</time>
      </trkpt>
      <trkpt lat="44.53046" lon="1.95672">
        <ele>259</ele>
        <time>2017-09-19T13:17:02Z</time>
      </trkpt>
      <trkpt lat="44.53042" lon="1.95681">
        <ele>259</ele>
        <time>2017-09-19T13:17:09Z</time>
      </trkpt>
      <trkpt lat="44.53033" lon="1.95709">
        <ele>259</ele>
        <time>2017-09-19T13:17:25Z</time>
      </trkpt>
      <trkpt lat="44.53027" lon="1.95737">
        <ele>259</ele>
        <time>2017-09-19T13:17:44Z</time>
      </trkpt>
      <trkpt lat="44.53029" lon="1.9576">
        <ele>264</ele>
        <time>2017-09-19T13:17:57Z</time>
      </trkpt>
      <trkpt lat="44.53031" lon="1.95778">
        <ele>265</ele>
        <time>2017-09-19T13:18:08Z</time>
      </trkpt>
      <trkpt lat="44.53031" lon="1.95784">
        <ele>266</ele>
        <time>2017-09-19T13:18:11Z</time>
      </trkpt>
      <trkpt lat="44.53032" lon="1.95794">
        <ele>266</ele>
        <time>2017-09-19T13:18:17Z</time>
      </trkpt>
      <trkpt lat="44.53039" lon="1.95839">
        <ele>269</ele>
        <time>2017-09-19T13:18:42Z</time>
      </trkpt>
      <trkpt lat="44.53043" lon="1.95854">
        <ele>270</ele>
        <time>2017-09-19T13:18:51Z</time>
      </trkpt>
      <trkpt lat="44.53044" lon="1.9586">
        <ele>271</ele>
        <time>2017-09-19T13:18:55Z</time>
      </trkpt>
      <trkpt lat="44.53046" lon="1.95864">
        <ele>271</ele>
        <time>2017-09-19T13:18:58Z</time>
      </trkpt>
      <trkpt lat="44.53051" lon="1.9587">
        <ele>272</ele>
        <time>2017-09-19T13:19:03Z</time>
      </trkpt>
      <trkpt lat="44.53054" lon="1.95871">
        <ele>272</ele>
        <time>2017-09-19T13:19:06Z</time>
      </trkpt>
      <trkpt lat="44.53056" lon="1.9587">
        <ele>272</ele>
        <time>2017-09-19T13:19:08Z</time>
      </trkpt>
      <trkpt lat="44.53059" lon="1.95866">
        <ele>273</ele>
        <time>2017-09-19T13:19:11Z</time>
      </trkpt>
      <trkpt lat="44.53063" lon="1.95837">
        <ele>275</ele>
        <time>2017-09-19T13:19:31Z</time>
      </trkpt>
      <trkpt lat="44.53081" lon="1.95797">
        <ele>272</ele>
        <time>2017-09-19T13:19:57Z</time>
      </trkpt>
      <trkpt lat="44.53085" lon="1.95795">
        <ele>283</ele>
        <time>2017-09-19T13:20:01Z</time>
      </trkpt>
      <trkpt lat="44.53089" lon="1.95795">
        <ele>283</ele>
        <time>2017-09-19T13:20:04Z</time>
      </trkpt>
      <trkpt lat="44.53092" lon="1.95796">
        <ele>284</ele>
        <time>2017-09-19T13:20:07Z</time>
      </trkpt>
      <trkpt lat="44.53097" lon="1.95804">
        <ele>284</ele>
        <time>2017-09-19T13:20:15Z</time>
      </trkpt>
      <trkpt lat="44.53103" lon="1.95829">
        <ele>284</ele>
        <time>2017-09-19T13:20:32Z</time>
      </trkpt>
      <trkpt lat="44.53104" lon="1.95834">
        <ele>288</ele>
        <time>2017-09-19T13:20:35Z</time>
      </trkpt>
      <trkpt lat="44.53105" lon="1.95838">
        <ele>288</ele>
        <time>2017-09-19T13:20:38Z</time>
      </trkpt>
      <trkpt lat="44.53106" lon="1.9585">
        <ele>289</ele>
        <time>2017-09-19T13:20:44Z</time>
      </trkpt>
      <trkpt lat="44.53113" lon="1.95879">
        <ele>291</ele>
        <time>2017-09-19T13:21:02Z</time>
      </trkpt>
      <trkpt lat="44.53113" lon="1.95883">
        <ele>291</ele>
        <time>2017-09-19T13:21:05Z</time>
      </trkpt>
      <trkpt lat="44.53115" lon="1.95887">
        <ele>292</ele>
        <time>2017-09-19T13:21:08Z</time>
      </trkpt>
      <trkpt lat="44.53118" lon="1.95892">
        <ele>292</ele>
        <time>2017-09-19T13:21:13Z</time>
      </trkpt>
      <trkpt lat="44.53126" lon="1.95911">
        <ele>294</ele>
        <time>2017-09-19T13:21:27Z</time>
      </trkpt>
      <trkpt lat="44.53128" lon="1.95915">
        <ele>294</ele>
        <time>2017-09-19T13:21:31Z</time>
      </trkpt>
      <trkpt lat="44.53144" lon="1.95943">
        <ele>297</ele>
        <time>2017-09-19T13:21:55Z</time>
      </trkpt>
      <trkpt lat="44.53148" lon="1.95947">
        <ele>297</ele>
        <time>2017-09-19T13:21:59Z</time>
      </trkpt>
      <trkpt lat="44.53151" lon="1.95951">
        <ele>298</ele>
        <time>2017-09-19T13:22:03Z</time>
      </trkpt>
      <trkpt lat="44.53154" lon="1.95954">
        <ele>298</ele>
        <time>2017-09-19T13:22:08Z</time>
      </trkpt>
      <trkpt lat="44.53159" lon="1.95955">
        <ele>298</ele>
        <time>2017-09-19T13:22:12Z</time>
      </trkpt>
      <trkpt lat="44.53164" lon="1.95954">
        <ele>298</ele>
        <time>2017-09-19T13:22:15Z</time>
      </trkpt>
      <trkpt lat="44.53173" lon="1.95947">
        <ele>308</ele>
        <time>2017-09-19T13:22:23Z</time>
      </trkpt>
      <trkpt lat="44.53175" lon="1.95939">
        <ele>308</ele>
        <time>2017-09-19T13:22:29Z</time>
      </trkpt>
      <trkpt lat="44.53176" lon="1.95934">
        <ele>308</ele>
        <time>2017-09-19T13:22:32Z</time>
      </trkpt>
      <trkpt lat="44.53179" lon="1.95927">
        <ele>308</ele>
        <time>2017-09-19T13:22:37Z</time>
      </trkpt>
      <trkpt lat="44.53181" lon="1.95922">
        <ele>308</ele>
        <time>2017-09-19T13:22:40Z</time>
      </trkpt>
      <trkpt lat="44.53193" lon="1.95909">
        <ele>307</ele>
        <time>2017-09-19T13:22:52Z</time>
      </trkpt>
      <trkpt lat="44.53197" lon="1.95907">
        <ele>308</ele>
        <time>2017-09-19T13:22:56Z</time>
      </trkpt>
      <trkpt lat="44.532" lon="1.95905">
        <ele>308</ele>
        <time>2017-09-19T13:23:00Z</time>
      </trkpt>
      <trkpt lat="44.53208" lon="1.95903">
        <ele>309</ele>
        <time>2017-09-19T13:23:07Z</time>
      </trkpt>
      <trkpt lat="44.53212" lon="1.95902">
        <ele>309</ele>
        <time>2017-09-19T13:23:10Z</time>
      </trkpt>
      <trkpt lat="44.53215" lon="1.95899">
        <ele>309</ele>
        <time>2017-09-19T13:23:15Z</time>
      </trkpt>
      <trkpt lat="44.53217" lon="1.95896">
        <ele>309</ele>
        <time>2017-09-19T13:23:18Z</time>
      </trkpt>
      <trkpt lat="44.53229" lon="1.95887">
        <ele>310</ele>
        <time>2017-09-19T13:23:30Z</time>
      </trkpt>
      <trkpt lat="44.53237" lon="1.95885">
        <ele>310</ele>
        <time>2017-09-19T13:23:38Z</time>
      </trkpt>
      <trkpt lat="44.5324" lon="1.95884">
        <ele>310</ele>
        <time>2017-09-19T13:23:41Z</time>
      </trkpt>
      <trkpt lat="44.53243" lon="1.95881">
        <ele>310</ele>
        <time>2017-09-19T13:23:43Z</time>
      </trkpt>
      <trkpt lat="44.53256" lon="1.95869">
        <ele>316</ele>
        <time>2017-09-19T13:23:56Z</time>
      </trkpt>
      <trkpt lat="44.5326" lon="1.95867">
        <ele>316</ele>
        <time>2017-09-19T13:23:59Z</time>
      </trkpt>
      <trkpt lat="44.53263" lon="1.95866">
        <ele>316</ele>
        <time>2017-09-19T13:24:02Z</time>
      </trkpt>
      <trkpt lat="44.53267" lon="1.95867">
        <ele>316</ele>
        <time>2017-09-19T13:24:08Z</time>
      </trkpt>
      <trkpt lat="44.5327" lon="1.95871">
        <ele>317</ele>
        <time>2017-09-19T13:24:11Z</time>
      </trkpt>
      <trkpt lat="44.53281" lon="1.95885">
        <ele>318</ele>
        <time>2017-09-19T13:24:24Z</time>
      </trkpt>
      <trkpt lat="44.53292" lon="1.95906">
        <ele>318</ele>
        <time>2017-09-19T13:24:59Z</time>
      </trkpt>
      <trkpt lat="44.53295" lon="1.9591">
        <ele>319</ele>
        <time>2017-09-19T13:25:03Z</time>
      </trkpt>
      <trkpt lat="44.53314" lon="1.95946">
        <ele>320</ele>
        <time>2017-09-19T13:25:27Z</time>
      </trkpt>
      <trkpt lat="44.53324" lon="1.95956">
        <ele>320</ele>
        <time>2017-09-19T13:25:36Z</time>
      </trkpt>
      <trkpt lat="44.53334" lon="1.95961">
        <ele>323</ele>
        <time>2017-09-19T13:25:44Z</time>
      </trkpt>
      <trkpt lat="44.53339" lon="1.95961">
        <ele>323</ele>
        <time>2017-09-19T13:25:49Z</time>
      </trkpt>
      <trkpt lat="44.53354" lon="1.95969">
        <ele>323</ele>
        <time>2017-09-19T13:26:03Z</time>
      </trkpt>
      <trkpt lat="44.53359" lon="1.95972">
        <ele>323</ele>
        <time>2017-09-19T13:26:07Z</time>
      </trkpt>
      <trkpt lat="44.53363" lon="1.95976">
        <ele>323</ele>
        <time>2017-09-19T13:26:10Z</time>
      </trkpt>
      <trkpt lat="44.53394" lon="1.95985">
        <ele>324</ele>
        <time>2017-09-19T13:26:33Z</time>
      </trkpt>
      <trkpt lat="44.53402" lon="1.95985">
        <ele>324</ele>
        <time>2017-09-19T13:26:44Z</time>
      </trkpt>
      <trkpt lat="44.5342" lon="1.95988">
        <ele>326</ele>
        <time>2017-09-19T13:26:59Z</time>
      </trkpt>
      <trkpt lat="44.53428" lon="1.95988">
        <ele>326</ele>
        <time>2017-09-19T13:27:05Z</time>
      </trkpt>
      <trkpt lat="44.53433" lon="1.95987">
        <ele>326</ele>
        <time>2017-09-19T13:27:10Z</time>
      </trkpt>
      <trkpt lat="44.5345" lon="1.95989">
        <ele>327</ele>
        <time>2017-09-19T13:27:25Z</time>
      </trkpt>
      <trkpt lat="44.53454" lon="1.95989">
        <ele>327</ele>
        <time>2017-09-19T13:27:28Z</time>
      </trkpt>
      <trkpt lat="44.53459" lon="1.9599">
        <ele>327</ele>
        <time>2017-09-19T13:27:31Z</time>
      </trkpt>
      <trkpt lat="44.53463" lon="1.95991">
        <ele>327</ele>
        <time>2017-09-19T13:27:37Z</time>
      </trkpt>
      <trkpt lat="44.53468" lon="1.95993">
        <ele>327</ele>
        <time>2017-09-19T13:27:41Z</time>
      </trkpt>
      <trkpt lat="44.53506" lon="1.96009">
        <ele>326</ele>
        <time>2017-09-19T13:28:12Z</time>
      </trkpt>
      <trkpt lat="44.53519" lon="1.96015">
        <ele>326</ele>
        <time>2017-09-19T13:28:23Z</time>
      </trkpt>
      <trkpt lat="44.53553" lon="1.96032">
        <ele>326</ele>
        <time>2017-09-19T13:28:54Z</time>
      </trkpt>
      <trkpt lat="44.53566" lon="1.96035">
        <ele>326</ele>
        <time>2017-09-19T13:29:04Z</time>
      </trkpt>
      <trkpt lat="44.53578" lon="1.96041">
        <ele>326</ele>
        <time>2017-09-19T13:29:13Z</time>
      </trkpt>
      <trkpt lat="44.53591" lon="1.96052">
        <ele>327</ele>
        <time>2017-09-19T13:29:27Z</time>
      </trkpt>
      <trkpt lat="44.536" lon="1.96058">
        <ele>327</ele>
        <time>2017-09-19T13:29:35Z</time>
      </trkpt>
      <trkpt lat="44.53641" lon="1.96078">
        <ele>327</ele>
        <time>2017-09-19T13:30:07Z</time>
      </trkpt>
      <trkpt lat="44.53645" lon="1.9608">
        <ele>327</ele>
        <time>2017-09-19T13:30:11Z</time>
      </trkpt>
      <trkpt lat="44.53658" lon="1.96085">
        <ele>325</ele>
        <time>2017-09-19T13:30:22Z</time>
      </trkpt>
      <trkpt lat="44.53672" lon="1.96087">
        <ele>326</ele>
        <time>2017-09-19T13:30:31Z</time>
      </trkpt>
      <trkpt lat="44.5368" lon="1.9609">
        <ele>326</ele>
        <time>2017-09-19T13:30:38Z</time>
      </trkpt>
      <trkpt lat="44.53688" lon="1.96092">
        <ele>326</ele>
        <time>2017-09-19T13:30:45Z</time>
      </trkpt>
      <trkpt lat="44.53701" lon="1.96096">
        <ele>326</ele>
        <time>2017-09-19T13:30:55Z</time>
      </trkpt>
      <trkpt lat="44.53722" lon="1.96107">
        <ele>326</ele>
        <time>2017-09-19T13:31:12Z</time>
      </trkpt>
      <trkpt lat="44.5373" lon="1.9611">
        <ele>326</ele>
        <time>2017-09-19T13:31:23Z</time>
      </trkpt>
      <trkpt lat="44.53741" lon="1.96115">
        <ele>326</ele>
        <time>2017-09-19T13:31:32Z</time>
      </trkpt>
      <trkpt lat="44.5375" lon="1.96121">
        <ele>326</ele>
        <time>2017-09-19T13:31:39Z</time>
      </trkpt>
      <trkpt lat="44.53758" lon="1.96124">
        <ele>328</ele>
        <time>2017-09-19T13:31:45Z</time>
      </trkpt>
      <trkpt lat="44.53761" lon="1.96126">
        <ele>328</ele>
        <time>2017-09-19T13:31:48Z</time>
      </trkpt>
      <trkpt lat="44.53765" lon="1.96128">
        <ele>328</ele>
        <time>2017-09-19T13:31:51Z</time>
      </trkpt>
      <trkpt lat="44.53778" lon="1.96134">
        <ele>328</ele>
        <time>2017-09-19T13:32:01Z</time>
      </trkpt>
      <trkpt lat="44.53798" lon="1.96137">
        <ele>328</ele>
        <time>2017-09-19T13:32:17Z</time>
      </trkpt>
      <trkpt lat="44.53802" lon="1.96137">
        <ele>328</ele>
        <time>2017-09-19T13:32:20Z</time>
      </trkpt>
      <trkpt lat="44.53827" lon="1.9614">
        <ele>329</ele>
        <time>2017-09-19T13:32:39Z</time>
      </trkpt>
      <trkpt lat="44.53831" lon="1.9614">
        <ele>329</ele>
        <time>2017-09-19T13:32:43Z</time>
      </trkpt>
      <trkpt lat="44.53844" lon="1.96139">
        <ele>329</ele>
        <time>2017-09-19T13:32:55Z</time>
      </trkpt>
      <trkpt lat="44.53852" lon="1.96138">
        <ele>329</ele>
        <time>2017-09-19T13:33:03Z</time>
      </trkpt>
      <trkpt lat="44.53856" lon="1.96136">
        <ele>329</ele>
        <time>2017-09-19T13:33:06Z</time>
      </trkpt>
      <trkpt lat="44.53879" lon="1.96124">
        <ele>329</ele>
        <time>2017-09-19T13:33:23Z</time>
      </trkpt>
      <trkpt lat="44.53883" lon="1.96122">
        <ele>330</ele>
        <time>2017-09-19T13:33:26Z</time>
      </trkpt>
      <trkpt lat="44.53887" lon="1.9612">
        <ele>330</ele>
        <time>2017-09-19T13:33:29Z</time>
      </trkpt>
      <trkpt lat="44.53921" lon="1.96108">
        <ele>330</ele>
        <time>2017-09-19T13:33:54Z</time>
      </trkpt>
      <trkpt lat="44.53924" lon="1.96108">
        <ele>330</ele>
        <time>2017-09-19T13:33:56Z</time>
      </trkpt>
      <trkpt lat="44.53964" lon="1.96105">
        <ele>329</ele>
        <time>2017-09-19T13:34:28Z</time>
      </trkpt>
      <trkpt lat="44.5397" lon="1.96104">
        <ele>329</ele>
        <time>2017-09-19T13:34:34Z</time>
      </trkpt>
      <trkpt lat="44.54007" lon="1.96098">
        <ele>330</ele>
        <time>2017-09-19T13:35:00Z</time>
      </trkpt>
      <trkpt lat="44.54011" lon="1.96096">
        <ele>330</ele>
        <time>2017-09-19T13:35:03Z</time>
      </trkpt>
      <trkpt lat="44.54025" lon="1.96092">
        <ele>329</ele>
        <time>2017-09-19T13:35:14Z</time>
      </trkpt>
      <trkpt lat="44.54061" lon="1.96077">
        <ele>333</ele>
        <time>2017-09-19T13:35:47Z</time>
      </trkpt>
      <trkpt lat="44.54065" lon="1.96075">
        <ele>333</ele>
        <time>2017-09-19T13:35:51Z</time>
      </trkpt>
      <trkpt lat="44.54092" lon="1.96069">
        <ele>332</ele>
        <time>2017-09-19T13:36:13Z</time>
      </trkpt>
      <trkpt lat="44.54096" lon="1.96067">
        <ele>332</ele>
        <time>2017-09-19T13:36:16Z</time>
      </trkpt>
      <trkpt lat="44.54131" lon="1.96057">
        <ele>332</ele>
        <time>2017-09-19T13:36:42Z</time>
      </trkpt>
      <trkpt lat="44.54139" lon="1.96052">
        <ele>332</ele>
        <time>2017-09-19T13:36:48Z</time>
      </trkpt>
      <trkpt lat="44.54143" lon="1.96051">
        <ele>332</ele>
        <time>2017-09-19T13:36:52Z</time>
      </trkpt>
      <trkpt lat="44.5417" lon="1.96033">
        <ele>332</ele>
        <time>2017-09-19T13:37:13Z</time>
      </trkpt>
      <trkpt lat="44.54175" lon="1.96028">
        <ele>333</ele>
        <time>2017-09-19T13:37:20Z</time>
      </trkpt>
      <trkpt lat="44.54215" lon="1.95994">
        <ele>336</ele>
        <time>2017-09-19T13:37:50Z</time>
      </trkpt>
      <trkpt lat="44.54223" lon="1.95986">
        <ele>336</ele>
        <time>2017-09-19T13:37:57Z</time>
      </trkpt>
      <trkpt lat="44.54236" lon="1.95979">
        <ele>336</ele>
        <time>2017-09-19T13:38:08Z</time>
      </trkpt>
      <trkpt lat="44.54254" lon="1.95979">
        <ele>335</ele>
        <time>2017-09-19T13:38:23Z</time>
      </trkpt>
      <trkpt lat="44.54288" lon="1.95966">
        <ele>335</ele>
        <time>2017-09-19T13:38:49Z</time>
      </trkpt>
      <trkpt lat="44.54297" lon="1.95959">
        <ele>334</ele>
        <time>2017-09-19T13:38:59Z</time>
      </trkpt>
      <trkpt lat="44.54305" lon="1.95956">
        <ele>334</ele>
        <time>2017-09-19T13:39:05Z</time>
      </trkpt>
      <trkpt lat="44.54313" lon="1.95952">
        <ele>334</ele>
        <time>2017-09-19T13:39:52Z</time>
      </trkpt>
      <trkpt lat="44.54329" lon="1.95953">
        <ele>334</ele>
        <time>2017-09-19T13:40:18Z</time>
      </trkpt>
      <trkpt lat="44.54332" lon="1.95951">
        <ele>334</ele>
        <time>2017-09-19T13:40:21Z</time>
      </trkpt>
      <trkpt lat="44.54335" lon="1.9595">
        <ele>333</ele>
        <time>2017-09-19T13:40:24Z</time>
      </trkpt>
      <trkpt lat="44.54346" lon="1.95946">
        <ele>333</ele>
        <time>2017-09-19T13:40:33Z</time>
      </trkpt>
      <trkpt lat="44.54351" lon="1.95943">
        <ele>333</ele>
        <time>2017-09-19T13:40:38Z</time>
      </trkpt>
      <trkpt lat="44.54354" lon="1.95941">
        <ele>333</ele>
        <time>2017-09-19T13:40:41Z</time>
      </trkpt>
      <trkpt lat="44.54357" lon="1.95941">
        <ele>333</ele>
        <time>2017-09-19T13:40:44Z</time>
      </trkpt>
      <trkpt lat="44.54364" lon="1.95938">
        <ele>333</ele>
        <time>2017-09-19T13:40:49Z</time>
      </trkpt>
      <trkpt lat="44.54397" lon="1.95917">
        <ele>333</ele>
        <time>2017-09-19T13:41:19Z</time>
      </trkpt>
      <trkpt lat="44.54427" lon="1.95897">
        <ele>332</ele>
        <time>2017-09-19T13:41:49Z</time>
      </trkpt>
      <trkpt lat="44.54441" lon="1.95888">
        <ele>332</ele>
        <time>2017-09-19T13:42:02Z</time>
      </trkpt>
      <trkpt lat="44.54444" lon="1.95887">
        <ele>332</ele>
        <time>2017-09-19T13:42:05Z</time>
      </trkpt>
      <trkpt lat="44.5445" lon="1.95882">
        <ele>332</ele>
        <time>2017-09-19T13:42:11Z</time>
      </trkpt>
      <trkpt lat="44.54453" lon="1.9588">
        <ele>332</ele>
        <time>2017-09-19T13:42:15Z</time>
      </trkpt>
      <trkpt lat="44.54457" lon="1.95879">
        <ele>333</ele>
        <time>2017-09-19T13:42:18Z</time>
      </trkpt>
      <trkpt lat="44.5446" lon="1.95877">
        <ele>333</ele>
        <time>2017-09-19T13:42:20Z</time>
      </trkpt>
      <trkpt lat="44.54466" lon="1.95871">
        <ele>333</ele>
        <time>2017-09-19T13:42:24Z</time>
      </trkpt>
      <trkpt lat="44.54485" lon="1.95857">
        <ele>333</ele>
        <time>2017-09-19T13:42:43Z</time>
      </trkpt>
      <trkpt lat="44.54487" lon="1.95854">
        <ele>333</ele>
        <time>2017-09-19T13:42:46Z</time>
      </trkpt>
      <trkpt lat="44.5449" lon="1.95851">
        <ele>333</ele>
        <time>2017-09-19T13:42:50Z</time>
      </trkpt>
      <trkpt lat="44.54494" lon="1.95848">
        <ele>333</ele>
        <time>2017-09-19T13:42:55Z</time>
      </trkpt>
      <trkpt lat="44.54509" lon="1.95835">
        <ele>334</ele>
        <time>2017-09-19T13:43:10Z</time>
      </trkpt>
      <trkpt lat="44.54513" lon="1.95832">
        <ele>334</ele>
        <time>2017-09-19T13:43:14Z</time>
      </trkpt>
      <trkpt lat="44.54516" lon="1.95827">
        <ele>334</ele>
        <time>2017-09-19T13:43:19Z</time>
      </trkpt>
      <trkpt lat="44.54523" lon="1.95813">
        <ele>334</ele>
        <time>2017-09-19T13:43:29Z</time>
      </trkpt>
      <trkpt lat="44.54524" lon="1.95808">
        <ele>334</ele>
        <time>2017-09-19T13:43:32Z</time>
      </trkpt>
      <trkpt lat="44.54525" lon="1.95803">
        <ele>334</ele>
        <time>2017-09-19T13:43:35Z</time>
      </trkpt>
      <trkpt lat="44.5453" lon="1.95793">
        <ele>335</ele>
        <time>2017-09-19T13:43:42Z</time>
      </trkpt>
      <trkpt lat="44.54532" lon="1.95789">
        <ele>335</ele>
        <time>2017-09-19T13:43:44Z</time>
      </trkpt>
      <trkpt lat="44.54534" lon="1.95779">
        <ele>335</ele>
        <time>2017-09-19T13:43:51Z</time>
      </trkpt>
      <trkpt lat="44.54536" lon="1.95771">
        <ele>335</ele>
        <time>2017-09-19T13:43:55Z</time>
      </trkpt>
      <trkpt lat="44.54539" lon="1.95759">
        <ele>335</ele>
        <time>2017-09-19T13:44:03Z</time>
      </trkpt>
      <trkpt lat="44.54544" lon="1.95749">
        <ele>334</ele>
        <time>2017-09-19T13:44:09Z</time>
      </trkpt>
      <trkpt lat="44.54549" lon="1.95746">
        <ele>334</ele>
        <time>2017-09-19T13:44:12Z</time>
      </trkpt>
      <trkpt lat="44.54555" lon="1.95747">
        <ele>335</ele>
        <time>2017-09-19T13:44:23Z</time>
      </trkpt>
      <trkpt lat="44.54559" lon="1.95748">
        <ele>335</ele>
        <time>2017-09-19T13:44:27Z</time>
      </trkpt>
      <trkpt lat="44.54572" lon="1.95741">
        <ele>336</ele>
        <time>2017-09-19T13:44:38Z</time>
      </trkpt>
      <trkpt lat="44.54584" lon="1.95731">
        <ele>340</ele>
        <time>2017-09-19T13:44:50Z</time>
      </trkpt>
      <trkpt lat="44.54587" lon="1.95727">
        <ele>340</ele>
        <time>2017-09-19T13:44:53Z</time>
      </trkpt>
      <trkpt lat="44.54594" lon="1.95718">
        <ele>340</ele>
        <time>2017-09-19T13:45:00Z</time>
      </trkpt>
      <trkpt lat="44.54597" lon="1.95714">
        <ele>341</ele>
        <time>2017-09-19T13:45:03Z</time>
      </trkpt>
      <trkpt lat="44.54603" lon="1.95707">
        <ele>341</ele>
        <time>2017-09-19T13:45:09Z</time>
      </trkpt>
      <trkpt lat="44.54606" lon="1.95703">
        <ele>341</ele>
        <time>2017-09-19T13:45:13Z</time>
      </trkpt>
      <trkpt lat="44.5461" lon="1.95701">
        <ele>341</ele>
        <time>2017-09-19T13:45:17Z</time>
      </trkpt>
      <trkpt lat="44.54627" lon="1.95711">
        <ele>342</ele>
        <time>2017-09-19T13:45:34Z</time>
      </trkpt>
      <trkpt lat="44.54636" lon="1.95715">
        <ele>342</ele>
        <time>2017-09-19T13:45:42Z</time>
      </trkpt>
      <trkpt lat="44.54659" lon="1.95703">
        <ele>343</ele>
        <time>2017-09-19T13:46:05Z</time>
      </trkpt>
      <trkpt lat="44.54671" lon="1.95688">
        <ele>346</ele>
        <time>2017-09-19T13:46:21Z</time>
      </trkpt>
      <trkpt lat="44.54679" lon="1.95681">
        <ele>346</ele>
        <time>2017-09-19T13:46:30Z</time>
      </trkpt>
      <trkpt lat="44.54686" lon="1.95672">
        <ele>346</ele>
        <time>2017-09-19T13:46:41Z</time>
      </trkpt>
      <trkpt lat="44.54702" lon="1.95657">
        <ele>348</ele>
        <time>2017-09-19T13:46:58Z</time>
      </trkpt>
      <trkpt lat="44.54717" lon="1.95647">
        <ele>348</ele>
        <time>2017-09-19T13:47:12Z</time>
      </trkpt>
      <trkpt lat="44.54721" lon="1.95644">
        <ele>348</ele>
        <time>2017-09-19T13:47:16Z</time>
      </trkpt>
      <trkpt lat="44.54725" lon="1.9564">
        <ele>349</ele>
        <time>2017-09-19T13:47:19Z</time>
      </trkpt>
      <trkpt lat="44.54728" lon="1.95638">
        <ele>349</ele>
        <time>2017-09-19T13:47:23Z</time>
      </trkpt>
      <trkpt lat="44.54732" lon="1.95634">
        <ele>349</ele>
        <time>2017-09-19T13:47:27Z</time>
      </trkpt>
      <trkpt lat="44.54745" lon="1.95616">
        <ele>350</ele>
        <time>2017-09-19T13:47:41Z</time>
      </trkpt>
      <trkpt lat="44.54756" lon="1.95605">
        <ele>352</ele>
        <time>2017-09-19T13:47:53Z</time>
      </trkpt>
      <trkpt lat="44.54759" lon="1.95601">
        <ele>352</ele>
        <time>2017-09-19T13:47:58Z</time>
      </trkpt>
      <trkpt lat="44.54766" lon="1.95594">
        <ele>352</ele>
        <time>2017-09-19T13:48:04Z</time>
      </trkpt>
      <trkpt lat="44.54769" lon="1.95591">
        <ele>352</ele>
        <time>2017-09-19T13:48:08Z</time>
      </trkpt>
      <trkpt lat="44.54776" lon="1.95586">
        <ele>352</ele>
        <time>2017-09-19T13:48:14Z</time>
      </trkpt>
      <trkpt lat="44.54783" lon="1.95576">
        <ele>356</ele>
        <time>2017-09-19T13:48:22Z</time>
      </trkpt>
      <trkpt lat="44.54793" lon="1.95557">
        <ele>357</ele>
        <time>2017-09-19T13:48:37Z</time>
      </trkpt>
      <trkpt lat="44.54796" lon="1.95554">
        <ele>358</ele>
        <time>2017-09-19T13:48:41Z</time>
      </trkpt>
      <trkpt lat="44.54805" lon="1.95551">
        <ele>358</ele>
        <time>2017-09-19T13:48:49Z</time>
      </trkpt>
      <trkpt lat="44.54844" lon="1.95536">
        <ele>360</ele>
        <time>2017-09-19T13:49:22Z</time>
      </trkpt>
      <trkpt lat="44.54881" lon="1.95522">
        <ele>360</ele>
        <time>2017-09-19T13:49:52Z</time>
      </trkpt>
      <trkpt lat="44.54885" lon="1.9552">
        <ele>360</ele>
        <time>2017-09-19T13:49:57Z</time>
      </trkpt>
      <trkpt lat="44.5489" lon="1.95518">
        <ele>360</ele>
        <time>2017-09-19T13:50:02Z</time>
      </trkpt>
      <trkpt lat="44.54895" lon="1.95516">
        <ele>360</ele>
        <time>2017-09-19T13:50:06Z</time>
      </trkpt>
      <trkpt lat="44.54898" lon="1.95513">
        <ele>360</ele>
        <time>2017-09-19T13:50:09Z</time>
      </trkpt>
      <trkpt lat="44.54911" lon="1.95506">
        <ele>361</ele>
        <time>2017-09-19T13:50:19Z</time>
      </trkpt>
      <trkpt lat="44.54931" lon="1.95496">
        <ele>364</ele>
        <time>2017-09-19T13:50:35Z</time>
      </trkpt>
      <trkpt lat="44.54934" lon="1.95495">
        <ele>365</ele>
        <time>2017-09-19T13:50:39Z</time>
      </trkpt>
      <trkpt lat="44.54938" lon="1.95493">
        <ele>365</ele>
        <time>2017-09-19T13:50:43Z</time>
      </trkpt>
      <trkpt lat="44.54952" lon="1.95491">
        <ele>365</ele>
        <time>2017-09-19T13:50:54Z</time>
      </trkpt>
      <trkpt lat="44.54957" lon="1.95492">
        <ele>365</ele>
        <time>2017-09-19T13:50:58Z</time>
      </trkpt>
      <trkpt lat="44.54977" lon="1.9549">
        <ele>365</ele>
        <time>2017-09-19T13:51:14Z</time>
      </trkpt>
      <trkpt lat="44.54982" lon="1.9549">
        <ele>365</ele>
        <time>2017-09-19T13:51:18Z</time>
      </trkpt>
      <trkpt lat="44.54986" lon="1.95489">
        <ele>365</ele>
        <time>2017-09-19T13:51:22Z</time>
      </trkpt>
      <trkpt lat="44.55001" lon="1.95488">
        <ele>364</ele>
        <time>2017-09-19T13:51:34Z</time>
      </trkpt>
      <trkpt lat="44.5501" lon="1.95487">
        <ele>364</ele>
        <time>2017-09-19T13:51:41Z</time>
      </trkpt>
      <trkpt lat="44.55014" lon="1.95487">
        <ele>365</ele>
        <time>2017-09-19T13:51:45Z</time>
      </trkpt>
      <trkpt lat="44.55018" lon="1.95488">
        <ele>365</ele>
        <time>2017-09-19T13:51:48Z</time>
      </trkpt>
      <trkpt lat="44.55024" lon="1.95485">
        <ele>365</ele>
        <time>2017-09-19T13:51:53Z</time>
      </trkpt>
      <trkpt lat="44.55028" lon="1.95484">
        <ele>365</ele>
        <time>2017-09-19T13:51:56Z</time>
      </trkpt>
      <trkpt lat="44.55058" lon="1.9547">
        <ele>366</ele>
        <time>2017-09-19T13:52:21Z</time>
      </trkpt>
      <trkpt lat="44.55063" lon="1.95469">
        <ele>366</ele>
        <time>2017-09-19T13:52:25Z</time>
      </trkpt>
      <trkpt lat="44.55071" lon="1.95469">
        <ele>366</ele>
        <time>2017-09-19T13:52:33Z</time>
      </trkpt>
      <trkpt lat="44.55076" lon="1.95473">
        <ele>366</ele>
        <time>2017-09-19T13:52:38Z</time>
      </trkpt>
      <trkpt lat="44.55119" lon="1.95502">
        <ele>366</ele>
        <time>2017-09-19T13:53:10Z</time>
      </trkpt>
      <trkpt lat="44.55121" lon="1.95507">
        <ele>366</ele>
        <time>2017-09-19T13:53:14Z</time>
      </trkpt>
      <trkpt lat="44.55124" lon="1.9551">
        <ele>366</ele>
        <time>2017-09-19T13:53:17Z</time>
      </trkpt>
      <trkpt lat="44.55126" lon="1.95515">
        <ele>366</ele>
        <time>2017-09-19T13:53:20Z</time>
      </trkpt>
      <trkpt lat="44.55146" lon="1.95536">
        <ele>366</ele>
        <time>2017-09-19T13:53:40Z</time>
      </trkpt>
      <trkpt lat="44.55151" lon="1.95541">
        <ele>366</ele>
        <time>2017-09-19T13:53:45Z</time>
      </trkpt>
      <trkpt lat="44.55155" lon="1.95542">
        <ele>366</ele>
        <time>2017-09-19T13:53:49Z</time>
      </trkpt>
      <trkpt lat="44.55159" lon="1.95542">
        <ele>366</ele>
        <time>2017-09-19T13:53:52Z</time>
      </trkpt>
      <trkpt lat="44.55164" lon="1.95539">
        <ele>366</ele>
        <time>2017-09-19T13:53:56Z</time>
      </trkpt>
      <trkpt lat="44.55167" lon="1.95537">
        <ele>369</ele>
        <time>2017-09-19T13:53:59Z</time>
      </trkpt>
      <trkpt lat="44.55182" lon="1.9553">
        <ele>369</ele>
        <time>2017-09-19T13:54:13Z</time>
      </trkpt>
      <trkpt lat="44.55184" lon="1.9553">
        <ele>369</ele>
        <time>2017-09-19T13:54:33Z</time>
      </trkpt>
      <trkpt lat="44.55186" lon="1.95528">
        <ele>369</ele>
        <time>2017-09-19T13:54:44Z</time>
      </trkpt>
      <trkpt lat="44.55192" lon="1.95524">
        <ele>369</ele>
        <time>2017-09-19T13:54:51Z</time>
      </trkpt>
      <trkpt lat="44.55194" lon="1.95523">
        <ele>369</ele>
        <time>2017-09-19T13:54:53Z</time>
      </trkpt>
      <trkpt lat="44.55196" lon="1.95523">
        <ele>369</ele>
        <time>2017-09-19T13:54:55Z</time>
      </trkpt>
      <trkpt lat="44.55216" lon="1.95524">
        <ele>369</ele>
        <time>2017-09-19T13:55:12Z</time>
      </trkpt>
      <trkpt lat="44.5522" lon="1.95525">
        <ele>370</ele>
        <time>2017-09-19T13:55:16Z</time>
      </trkpt>
      <trkpt lat="44.55229" lon="1.9553">
        <ele>370</ele>
        <time>2017-09-19T13:55:26Z</time>
      </trkpt>
      <trkpt lat="44.55233" lon="1.95528">
        <ele>370</ele>
        <time>2017-09-19T13:55:28Z</time>
      </trkpt>
      <trkpt lat="44.55241" lon="1.95527">
        <ele>370</ele>
        <time>2017-09-19T13:55:34Z</time>
      </trkpt>
      <trkpt lat="44.5526" lon="1.95531">
        <ele>370</ele>
        <time>2017-09-19T13:55:50Z</time>
      </trkpt>
      <trkpt lat="44.55268" lon="1.9553">
        <ele>370</ele>
        <time>2017-09-19T13:55:56Z</time>
      </trkpt>
      <trkpt lat="44.55278" lon="1.95533">
        <ele>371</ele>
        <time>2017-09-19T13:56:04Z</time>
      </trkpt>
      <trkpt lat="44.55292" lon="1.95533">
        <ele>370</ele>
        <time>2017-09-19T13:56:16Z</time>
      </trkpt>
      <trkpt lat="44.55295" lon="1.95534">
        <ele>370</ele>
        <time>2017-09-19T13:56:19Z</time>
      </trkpt>
      <trkpt lat="44.55299" lon="1.95535">
        <ele>370</ele>
        <time>2017-09-19T13:56:22Z</time>
      </trkpt>
      <trkpt lat="44.55302" lon="1.95536">
        <ele>370</ele>
        <time>2017-09-19T13:56:25Z</time>
      </trkpt>
      <trkpt lat="44.55305" lon="1.95537">
        <ele>370</ele>
        <time>2017-09-19T13:56:28Z</time>
      </trkpt>
      <trkpt lat="44.55309" lon="1.95538">
        <ele>371</ele>
        <time>2017-09-19T13:56:32Z</time>
      </trkpt>
      <trkpt lat="44.55313" lon="1.95539">
        <ele>371</ele>
        <time>2017-09-19T13:56:35Z</time>
      </trkpt>
      <trkpt lat="44.55325" lon="1.95543">
        <ele>371</ele>
        <time>2017-09-19T13:56:45Z</time>
      </trkpt>
      <trkpt lat="44.55329" lon="1.95544">
        <ele>371</ele>
        <time>2017-09-19T13:56:48Z</time>
      </trkpt>
      <trkpt lat="44.55333" lon="1.95546">
        <ele>371</ele>
        <time>2017-09-19T13:56:52Z</time>
      </trkpt>
      <trkpt lat="44.55341" lon="1.95551">
        <ele>370</ele>
        <time>2017-09-19T13:57:00Z</time>
      </trkpt>
      <trkpt lat="44.55358" lon="1.95556">
        <ele>370</ele>
        <time>2017-09-19T13:57:14Z</time>
      </trkpt>
      <trkpt lat="44.55366" lon="1.95559">
        <ele>369</ele>
        <time>2017-09-19T13:57:24Z</time>
      </trkpt>
      <trkpt lat="44.55375" lon="1.95558">
        <ele>369</ele>
        <time>2017-09-19T13:57:34Z</time>
      </trkpt>
      <trkpt lat="44.55396" lon="1.95557">
        <ele>369</ele>
        <time>2017-09-19T13:57:49Z</time>
      </trkpt>
      <trkpt lat="44.55399" lon="1.95557">
        <ele>369</ele>
        <time>2017-09-19T13:57:51Z</time>
      </trkpt>
      <trkpt lat="44.55403" lon="1.95558">
        <ele>369</ele>
        <time>2017-09-19T13:57:54Z</time>
      </trkpt>
      <trkpt lat="44.55404" lon="1.95559">
        <ele>369</ele>
        <time>2017-09-19T13:57:57Z</time>
      </trkpt>
      <trkpt lat="44.55412" lon="1.95557">
        <ele>368</ele>
        <time>2017-09-19T13:58:03Z</time>
      </trkpt>
      <trkpt lat="44.55424" lon="1.95547">
        <ele>365</ele>
        <time>2017-09-19T13:58:13Z</time>
      </trkpt>
      <trkpt lat="44.55427" lon="1.95545">
        <ele>365</ele>
        <time>2017-09-19T13:58:15Z</time>
      </trkpt>
      <trkpt lat="44.55447" lon="1.95529">
        <ele>364</ele>
        <time>2017-09-19T13:58:34Z</time>
      </trkpt>
      <trkpt lat="44.55449" lon="1.95526">
        <ele>364</ele>
        <time>2017-09-19T13:58:36Z</time>
      </trkpt>
      <trkpt lat="44.55453" lon="1.95516">
        <ele>364</ele>
        <time>2017-09-19T13:58:43Z</time>
      </trkpt>
      <trkpt lat="44.5547" lon="1.95487">
        <ele>364</ele>
        <time>2017-09-19T13:59:05Z</time>
      </trkpt>
      <trkpt lat="44.55473" lon="1.95483">
        <ele>364</ele>
        <time>2017-09-19T13:59:15Z</time>
      </trkpt>
      <trkpt lat="44.55476" lon="1.95479">
        <ele>364</ele>
        <time>2017-09-19T13:59:19Z</time>
      </trkpt>
      <trkpt lat="44.55483" lon="1.95472">
        <ele>364</ele>
        <time>2017-09-19T13:59:27Z</time>
      </trkpt>
      <trkpt lat="44.55486" lon="1.95468">
        <ele>364</ele>
        <time>2017-09-19T13:59:30Z</time>
      </trkpt>
      <trkpt lat="44.55488" lon="1.95464">
        <ele>364</ele>
        <time>2017-09-19T13:59:34Z</time>
      </trkpt>
      <trkpt lat="44.55492" lon="1.95457">
        <ele>364</ele>
        <time>2017-09-19T13:59:39Z</time>
      </trkpt>
      <trkpt lat="44.55495" lon="1.9545">
        <ele>364</ele>
        <time>2017-09-19T13:59:43Z</time>
      </trkpt>
      <trkpt lat="44.55499" lon="1.95446">
        <ele>365</ele>
        <time>2017-09-19T13:59:47Z</time>
      </trkpt>
      <trkpt lat="44.55508" lon="1.95426">
        <ele>366</ele>
        <time>2017-09-19T14:00:00Z</time>
      </trkpt>
      <trkpt lat="44.55512" lon="1.95422">
        <ele>366</ele>
        <time>2017-09-19T14:00:04Z</time>
      </trkpt>
      <trkpt lat="44.55515" lon="1.95417">
        <ele>366</ele>
        <time>2017-09-19T14:00:08Z</time>
      </trkpt>
      <trkpt lat="44.55518" lon="1.9541">
        <ele>368</ele>
        <time>2017-09-19T14:00:12Z</time>
      </trkpt>
      <trkpt lat="44.55521" lon="1.95404">
        <ele>369</ele>
        <time>2017-09-19T14:00:17Z</time>
      </trkpt>
      <trkpt lat="44.55537" lon="1.95384">
        <ele>369</ele>
        <time>2017-09-19T14:00:37Z</time>
      </trkpt>
      <trkpt lat="44.55542" lon="1.95372">
        <ele>370</ele>
        <time>2017-09-19T14:00:46Z</time>
      </trkpt>
      <trkpt lat="44.55546" lon="1.95368">
        <ele>370</ele>
        <time>2017-09-19T14:00:50Z</time>
      </trkpt>
      <trkpt lat="44.55549" lon="1.95364">
        <ele>370</ele>
        <time>2017-09-19T14:00:54Z</time>
      </trkpt>
      <trkpt lat="44.55556" lon="1.95356">
        <ele>371</ele>
        <time>2017-09-19T14:01:01Z</time>
      </trkpt>
      <trkpt lat="44.55558" lon="1.9535">
        <ele>371</ele>
        <time>2017-09-19T14:01:05Z</time>
      </trkpt>
      <trkpt lat="44.55564" lon="1.95339">
        <ele>372</ele>
        <time>2017-09-19T14:01:13Z</time>
      </trkpt>
      <trkpt lat="44.55589" lon="1.95311">
        <ele>376</ele>
        <time>2017-09-19T14:01:41Z</time>
      </trkpt>
      <trkpt lat="44.55618" lon="1.95283">
        <ele>376</ele>
        <time>2017-09-19T14:02:09Z</time>
      </trkpt>
      <trkpt lat="44.55621" lon="1.95279">
        <ele>376</ele>
        <time>2017-09-19T14:02:12Z</time>
      </trkpt>
      <trkpt lat="44.55634" lon="1.95269">
        <ele>376</ele>
        <time>2017-09-19T14:02:26Z</time>
      </trkpt>
      <trkpt lat="44.55641" lon="1.95264">
        <ele>377</ele>
        <time>2017-09-19T14:02:32Z</time>
      </trkpt>
      <trkpt lat="44.55648" lon="1.95257">
        <ele>377</ele>
        <time>2017-09-19T14:02:39Z</time>
      </trkpt>
      <trkpt lat="44.55658" lon="1.95249">
        <ele>378</ele>
        <time>2017-09-19T14:02:47Z</time>
      </trkpt>
      <trkpt lat="44.5566" lon="1.95243">
        <ele>378</ele>
        <time>2017-09-19T14:02:52Z</time>
      </trkpt>
      <trkpt lat="44.55674" lon="1.95232">
        <ele>377</ele>
        <time>2017-09-19T14:03:05Z</time>
      </trkpt>
      <trkpt lat="44.55679" lon="1.95227">
        <ele>376</ele>
        <time>2017-09-19T14:03:15Z</time>
      </trkpt>
      <trkpt lat="44.5569" lon="1.95219">
        <ele>376</ele>
        <time>2017-09-19T14:03:25Z</time>
      </trkpt>
      <trkpt lat="44.55695" lon="1.95214">
        <ele>375</ele>
        <time>2017-09-19T14:03:29Z</time>
      </trkpt>
      <trkpt lat="44.55705" lon="1.95208">
        <ele>375</ele>
        <time>2017-09-19T14:03:38Z</time>
      </trkpt>
      <trkpt lat="44.55723" lon="1.9519">
        <ele>374</ele>
        <time>2017-09-19T14:03:55Z</time>
      </trkpt>
      <trkpt lat="44.5573" lon="1.95186">
        <ele>374</ele>
        <time>2017-09-19T14:04:00Z</time>
      </trkpt>
      <trkpt lat="44.55747" lon="1.9517">
        <ele>373</ele>
        <time>2017-09-19T14:04:15Z</time>
      </trkpt>
      <trkpt lat="44.55752" lon="1.95164">
        <ele>373</ele>
        <time>2017-09-19T14:04:18Z</time>
      </trkpt>
      <trkpt lat="44.55768" lon="1.95151">
        <ele>371</ele>
        <time>2017-09-19T14:04:31Z</time>
      </trkpt>
      <trkpt lat="44.55771" lon="1.9515">
        <ele>371</ele>
        <time>2017-09-19T14:04:35Z</time>
      </trkpt>
      <trkpt lat="44.55777" lon="1.95144">
        <ele>371</ele>
        <time>2017-09-19T14:04:41Z</time>
      </trkpt>
      <trkpt lat="44.5578" lon="1.95142">
        <ele>371</ele>
        <time>2017-09-19T14:04:43Z</time>
      </trkpt>
      <trkpt lat="44.55782" lon="1.9514">
        <ele>371</ele>
        <time>2017-09-19T14:04:45Z</time>
      </trkpt>
      <trkpt lat="44.55784" lon="1.95137">
        <ele>371</ele>
        <time>2017-09-19T14:04:47Z</time>
      </trkpt>
      <trkpt lat="44.55786" lon="1.95131">
        <ele>371</ele>
        <time>2017-09-19T14:04:51Z</time>
      </trkpt>
      <trkpt lat="44.55787" lon="1.95129">
        <ele>371</ele>
        <time>2017-09-19T14:04:55Z</time>
      </trkpt>
      <trkpt lat="44.55789" lon="1.95126">
        <ele>371</ele>
        <time>2017-09-19T14:04:57Z</time>
      </trkpt>
      <trkpt lat="44.5579" lon="1.9512">
        <ele>371</ele>
        <time>2017-09-19T14:05:01Z</time>
      </trkpt>
      <trkpt lat="44.55793" lon="1.95114">
        <ele>371</ele>
        <time>2017-09-19T14:05:05Z</time>
      </trkpt>
      <trkpt lat="44.55796" lon="1.95109">
        <ele>371</ele>
        <time>2017-09-19T14:05:10Z</time>
      </trkpt>
      <trkpt lat="44.55801" lon="1.95104">
        <ele>371</ele>
        <time>2017-09-19T14:05:16Z</time>
      </trkpt>
      <trkpt lat="44.55803" lon="1.95101">
        <ele>371</ele>
        <time>2017-09-19T14:05:18Z</time>
      </trkpt>
      <trkpt lat="44.55804" lon="1.95099">
        <ele>371</ele>
        <time>2017-09-19T14:05:20Z</time>
      </trkpt>
      <trkpt lat="44.55804" lon="1.95095">
        <ele>371</ele>
        <time>2017-09-19T14:05:29Z</time>
      </trkpt>
      <trkpt lat="44.55807" lon="1.95092">
        <ele>371</ele>
        <time>2017-09-19T14:05:32Z</time>
      </trkpt>
      <trkpt lat="44.5581" lon="1.95089">
        <ele>371</ele>
        <time>2017-09-19T14:05:35Z</time>
      </trkpt>
      <trkpt lat="44.55816" lon="1.95077">
        <ele>370</ele>
        <time>2017-09-19T14:05:43Z</time>
      </trkpt>
      <trkpt lat="44.55826" lon="1.95057">
        <ele>370</ele>
        <time>2017-09-19T14:05:57Z</time>
      </trkpt>
      <trkpt lat="44.55836" lon="1.9504">
        <ele>369</ele>
        <time>2017-09-19T14:06:10Z</time>
      </trkpt>
      <trkpt lat="44.55842" lon="1.95028">
        <ele>369</ele>
        <time>2017-09-19T14:06:18Z</time>
      </trkpt>
      <trkpt lat="44.55848" lon="1.95016">
        <ele>369</ele>
        <time>2017-09-19T14:06:27Z</time>
      </trkpt>
      <trkpt lat="44.55865" lon="1.94988">
        <ele>368</ele>
        <time>2017-09-19T14:06:49Z</time>
      </trkpt>
      <trkpt lat="44.55874" lon="1.94946">
        <ele>367</ele>
        <time>2017-09-19T14:07:14Z</time>
      </trkpt>
      <trkpt lat="44.55877" lon="1.94935">
        <ele>367</ele>
        <time>2017-09-19T14:07:21Z</time>
      </trkpt>
      <trkpt lat="44.55884" lon="1.94908">
        <ele>365</ele>
        <time>2017-09-19T14:07:36Z</time>
      </trkpt>
      <trkpt lat="44.55885" lon="1.94903">
        <ele>365</ele>
        <time>2017-09-19T14:07:39Z</time>
      </trkpt>
      <trkpt lat="44.55888" lon="1.94899">
        <ele>365</ele>
        <time>2017-09-19T14:07:42Z</time>
      </trkpt>
      <trkpt lat="44.55897" lon="1.94877">
        <ele>365</ele>
        <time>2017-09-19T14:07:56Z</time>
      </trkpt>
      <trkpt lat="44.55903" lon="1.94849">
        <ele>364</ele>
        <time>2017-09-19T14:08:12Z</time>
      </trkpt>
      <trkpt lat="44.55904" lon="1.94839">
        <ele>364</ele>
        <time>2017-09-19T14:08:18Z</time>
      </trkpt>
      <trkpt lat="44.55903" lon="1.94813">
        <ele>363</ele>
        <time>2017-09-19T14:08:34Z</time>
      </trkpt>
      <trkpt lat="44.55902" lon="1.94804">
        <ele>363</ele>
        <time>2017-09-19T14:08:41Z</time>
      </trkpt>
      <trkpt lat="44.55902" lon="1.94799">
        <ele>363</ele>
        <time>2017-09-19T14:08:44Z</time>
      </trkpt>
      <trkpt lat="44.559" lon="1.94769">
        <ele>364</ele>
        <time>2017-09-19T14:09:06Z</time>
      </trkpt>
      <trkpt lat="44.55903" lon="1.94729">
        <ele>365</ele>
        <time>2017-09-19T14:09:31Z</time>
      </trkpt>
      <trkpt lat="44.55904" lon="1.94724">
        <ele>365</ele>
        <time>2017-09-19T14:09:34Z</time>
      </trkpt>
      <trkpt lat="44.55907" lon="1.94716">
        <ele>365</ele>
        <time>2017-09-19T14:09:39Z</time>
      </trkpt>
      <trkpt lat="44.55908" lon="1.94711">
        <ele>365</ele>
        <time>2017-09-19T14:09:43Z</time>
      </trkpt>
      <trkpt lat="44.55909" lon="1.94706">
        <ele>365</ele>
        <time>2017-09-19T14:09:46Z</time>
      </trkpt>
      <trkpt lat="44.55912" lon="1.94702">
        <ele>365</ele>
        <time>2017-09-19T14:09:49Z</time>
      </trkpt>
      <trkpt lat="44.55923" lon="1.94703">
        <ele>365</ele>
        <time>2017-09-19T14:10:01Z</time>
      </trkpt>
      <trkpt lat="44.55928" lon="1.94702">
        <ele>365</ele>
        <time>2017-09-19T14:10:05Z</time>
      </trkpt>
      <trkpt lat="44.5593" lon="1.94697">
        <ele>365</ele>
        <time>2017-09-19T14:10:09Z</time>
      </trkpt>
      <trkpt lat="44.55934" lon="1.94692">
        <ele>366</ele>
        <time>2017-09-19T14:10:13Z</time>
      </trkpt>
      <trkpt lat="44.55936" lon="1.94688">
        <ele>366</ele>
        <time>2017-09-19T14:10:17Z</time>
      </trkpt>
      <trkpt lat="44.55962" lon="1.94648">
        <ele>367</ele>
        <time>2017-09-19T14:10:47Z</time>
      </trkpt>
      <trkpt lat="44.55967" lon="1.9464">
        <ele>367</ele>
        <time>2017-09-19T14:10:53Z</time>
      </trkpt>
      <trkpt lat="44.55985" lon="1.94607">
        <ele>367</ele>
        <time>2017-09-19T14:11:20Z</time>
      </trkpt>
      <trkpt lat="44.55991" lon="1.94598">
        <ele>367</ele>
        <time>2017-09-19T14:11:34Z</time>
      </trkpt>
      <trkpt lat="44.55994" lon="1.94594">
        <ele>368</ele>
        <time>2017-09-19T14:11:38Z</time>
      </trkpt>
      <trkpt lat="44.55997" lon="1.94591">
        <ele>368</ele>
        <time>2017-09-19T14:11:42Z</time>
      </trkpt>
      <trkpt lat="44.56" lon="1.94588">
        <ele>368</ele>
        <time>2017-09-19T14:11:46Z</time>
      </trkpt>
      <trkpt lat="44.56002" lon="1.94585">
        <ele>367</ele>
        <time>2017-09-19T14:11:49Z</time>
      </trkpt>
      <trkpt lat="44.56012" lon="1.94577">
        <ele>367</ele>
        <time>2017-09-19T14:12:02Z</time>
      </trkpt>
      <trkpt lat="44.56015" lon="1.94576">
        <ele>367</ele>
        <time>2017-09-19T14:12:05Z</time>
      </trkpt>
      <trkpt lat="44.56022" lon="1.9457">
        <ele>367</ele>
        <time>2017-09-19T14:12:14Z</time>
      </trkpt>
      <trkpt lat="44.56035" lon="1.94556">
        <ele>366</ele>
        <time>2017-09-19T14:12:28Z</time>
      </trkpt>
      <trkpt lat="44.56038" lon="1.94552">
        <ele>366</ele>
        <time>2017-09-19T14:12:32Z</time>
      </trkpt>
      <trkpt lat="44.56041" lon="1.94549">
        <ele>366</ele>
        <time>2017-09-19T14:12:35Z</time>
      </trkpt>
      <trkpt lat="44.56045" lon="1.94546">
        <ele>366</ele>
        <time>2017-09-19T14:12:39Z</time>
      </trkpt>
      <trkpt lat="44.56052" lon="1.94539">
        <ele>366</ele>
        <time>2017-09-19T14:12:46Z</time>
      </trkpt>
      <trkpt lat="44.56056" lon="1.94535">
        <ele>366</ele>
        <time>2017-09-19T14:12:50Z</time>
      </trkpt>
      <trkpt lat="44.56061" lon="1.94528">
        <ele>367</ele>
        <time>2017-09-19T14:12:56Z</time>
      </trkpt>
      <trkpt lat="44.56064" lon="1.94523">
        <ele>367</ele>
        <time>2017-09-19T14:13:00Z</time>
      </trkpt>
      <trkpt lat="44.56067" lon="1.9452">
        <ele>367</ele>
        <time>2017-09-19T14:13:03Z</time>
      </trkpt>
      <trkpt lat="44.56082" lon="1.94505">
        <ele>368</ele>
        <time>2017-09-19T14:13:20Z</time>
      </trkpt>
      <trkpt lat="44.56101" lon="1.94489">
        <ele>366</ele>
        <time>2017-09-19T14:13:38Z</time>
      </trkpt>
      <trkpt lat="44.56104" lon="1.94486">
        <ele>366</ele>
        <time>2017-09-19T14:13:41Z</time>
      </trkpt>
      <trkpt lat="44.56107" lon="1.94483">
        <ele>366</ele>
        <time>2017-09-19T14:13:44Z</time>
      </trkpt>
      <trkpt lat="44.56111" lon="1.9448">
        <ele>366</ele>
        <time>2017-09-19T14:13:47Z</time>
      </trkpt>
      <trkpt lat="44.56113" lon="1.94477">
        <ele>365</ele>
        <time>2017-09-19T14:13:50Z</time>
      </trkpt>
      <trkpt lat="44.56117" lon="1.94473">
        <ele>365</ele>
        <time>2017-09-19T14:13:53Z</time>
      </trkpt>
      <trkpt lat="44.5612" lon="1.94469">
        <ele>365</ele>
        <time>2017-09-19T14:13:57Z</time>
      </trkpt>
      <trkpt lat="44.56125" lon="1.94462">
        <ele>365</ele>
        <time>2017-09-19T14:14:04Z</time>
      </trkpt>
      <trkpt lat="44.56127" lon="1.94458">
        <ele>365</ele>
        <time>2017-09-19T14:14:07Z</time>
      </trkpt>
      <trkpt lat="44.56131" lon="1.94454">
        <ele>365</ele>
        <time>2017-09-19T14:14:10Z</time>
      </trkpt>
      <trkpt lat="44.56142" lon="1.94453">
        <ele>365</ele>
        <time>2017-09-19T14:14:22Z</time>
      </trkpt>
      <trkpt lat="44.56158" lon="1.94445">
        <ele>365</ele>
        <time>2017-09-19T14:14:36Z</time>
      </trkpt>
      <trkpt lat="44.56164" lon="1.94439">
        <ele>365</ele>
        <time>2017-09-19T14:14:42Z</time>
      </trkpt>
      <trkpt lat="44.56173" lon="1.94421">
        <ele>364</ele>
        <time>2017-09-19T14:14:56Z</time>
      </trkpt>
      <trkpt lat="44.56176" lon="1.94411">
        <ele>365</ele>
        <time>2017-09-19T14:15:03Z</time>
      </trkpt>
      <trkpt lat="44.56178" lon="1.94406">
        <ele>365</ele>
        <time>2017-09-19T14:15:06Z</time>
      </trkpt>
      <trkpt lat="44.5618" lon="1.94401">
        <ele>364</ele>
        <time>2017-09-19T14:15:10Z</time>
      </trkpt>
      <trkpt lat="44.56182" lon="1.94397">
        <ele>364</ele>
        <time>2017-09-19T14:15:14Z</time>
      </trkpt>
      <trkpt lat="44.56185" lon="1.94392">
        <ele>364</ele>
        <time>2017-09-19T14:15:17Z</time>
      </trkpt>
      <trkpt lat="44.56188" lon="1.94382">
        <ele>364</ele>
        <time>2017-09-19T14:15:22Z</time>
      </trkpt>
      <trkpt lat="44.5619" lon="1.94378">
        <ele>364</ele>
        <time>2017-09-19T14:15:25Z</time>
      </trkpt>
      <trkpt lat="44.56193" lon="1.94376">
        <ele>364</ele>
        <time>2017-09-19T14:15:29Z</time>
      </trkpt>
      <trkpt lat="44.56196" lon="1.94373">
        <ele>364</ele>
        <time>2017-09-19T14:15:33Z</time>
      </trkpt>
      <trkpt lat="44.56198" lon="1.9437">
        <ele>364</ele>
        <time>2017-09-19T14:15:37Z</time>
      </trkpt>
      <trkpt lat="44.562" lon="1.94366">
        <ele>364</ele>
        <time>2017-09-19T14:15:43Z</time>
      </trkpt>
      <trkpt lat="44.56202" lon="1.94361">
        <ele>364</ele>
        <time>2017-09-19T14:15:45Z</time>
      </trkpt>
      <trkpt lat="44.56203" lon="1.94355">
        <ele>364</ele>
        <time>2017-09-19T14:15:48Z</time>
      </trkpt>
      <trkpt lat="44.56205" lon="1.94349">
        <ele>364</ele>
        <time>2017-09-19T14:15:53Z</time>
      </trkpt>
      <trkpt lat="44.56205" lon="1.94343">
        <ele>364</ele>
        <time>2017-09-19T14:15:56Z</time>
      </trkpt>
      <trkpt lat="44.56207" lon="1.94329">
        <ele>365</ele>
        <time>2017-09-19T14:16:03Z</time>
      </trkpt>
      <trkpt lat="44.56214" lon="1.94302">
        <ele>364</ele>
        <time>2017-09-19T14:16:21Z</time>
      </trkpt>
      <trkpt lat="44.56215" lon="1.94298">
        <ele>364</ele>
        <time>2017-09-19T14:16:24Z</time>
      </trkpt>
      <trkpt lat="44.56216" lon="1.94293">
        <ele>364</ele>
        <time>2017-09-19T14:16:27Z</time>
      </trkpt>
      <trkpt lat="44.56217" lon="1.94289">
        <ele>364</ele>
        <time>2017-09-19T14:16:30Z</time>
      </trkpt>
      <trkpt lat="44.56219" lon="1.94279">
        <ele>364</ele>
        <time>2017-09-19T14:16:37Z</time>
      </trkpt>
      <trkpt lat="44.5622" lon="1.94275">
        <ele>364</ele>
        <time>2017-09-19T14:16:40Z</time>
      </trkpt>
      <trkpt lat="44.56221" lon="1.94269">
        <ele>364</ele>
        <time>2017-09-19T14:16:43Z</time>
      </trkpt>
      <trkpt lat="44.56222" lon="1.94264">
        <ele>364</ele>
        <time>2017-09-19T14:16:46Z</time>
      </trkpt>
      <trkpt lat="44.56225" lon="1.94248">
        <ele>364</ele>
        <time>2017-09-19T14:16:55Z</time>
      </trkpt>
      <trkpt lat="44.56226" lon="1.94244">
        <ele>364</ele>
        <time>2017-09-19T14:16:57Z</time>
      </trkpt>
      <trkpt lat="44.56226" lon="1.9424">
        <ele>364</ele>
        <time>2017-09-19T14:17:00Z</time>
      </trkpt>
      <trkpt lat="44.56236" lon="1.94212">
        <ele>364</ele>
        <time>2017-09-19T14:17:18Z</time>
      </trkpt>
      <trkpt lat="44.56236" lon="1.94207">
        <ele>364</ele>
        <time>2017-09-19T14:17:21Z</time>
      </trkpt>
      <trkpt lat="44.56236" lon="1.94203">
        <ele>364</ele>
        <time>2017-09-19T14:17:25Z</time>
      </trkpt>
      <trkpt lat="44.56235" lon="1.94197">
        <ele>364</ele>
        <time>2017-09-19T14:17:29Z</time>
      </trkpt>
      <trkpt lat="44.56234" lon="1.94193">
        <ele>364</ele>
        <time>2017-09-19T14:17:31Z</time>
      </trkpt>
      <trkpt lat="44.56232" lon="1.94181">
        <ele>364</ele>
        <time>2017-09-19T14:17:37Z</time>
      </trkpt>
      <trkpt lat="44.56229" lon="1.94172">
        <ele>364</ele>
        <time>2017-09-19T14:17:43Z</time>
      </trkpt>
      <trkpt lat="44.56229" lon="1.94169">
        <ele>364</ele>
        <time>2017-09-19T14:17:45Z</time>
      </trkpt>
      <trkpt lat="44.56229" lon="1.94164">
        <ele>364</ele>
        <time>2017-09-19T14:17:48Z</time>
      </trkpt>
      <trkpt lat="44.56229" lon="1.94159">
        <ele>364</ele>
        <time>2017-09-19T14:17:51Z</time>
      </trkpt>
      <trkpt lat="44.5623" lon="1.94155">
        <ele>364</ele>
        <time>2017-09-19T14:17:54Z</time>
      </trkpt>
      <trkpt lat="44.56232" lon="1.94151">
        <ele>364</ele>
        <time>2017-09-19T14:17:57Z</time>
      </trkpt>
      <trkpt lat="44.56233" lon="1.94146">
        <ele>364</ele>
        <time>2017-09-19T14:18:00Z</time>
      </trkpt>
      <trkpt lat="44.56235" lon="1.94132">
        <ele>364</ele>
        <time>2017-09-19T14:18:08Z</time>
      </trkpt>
      <trkpt lat="44.56237" lon="1.94128">
        <ele>365</ele>
        <time>2017-09-19T14:18:11Z</time>
      </trkpt>
      <trkpt lat="44.5624" lon="1.94123">
        <ele>365</ele>
        <time>2017-09-19T14:18:15Z</time>
      </trkpt>
      <trkpt lat="44.56241" lon="1.94117">
        <ele>365</ele>
        <time>2017-09-19T14:18:19Z</time>
      </trkpt>
      <trkpt lat="44.56245" lon="1.94097">
        <ele>366</ele>
        <time>2017-09-19T14:18:31Z</time>
      </trkpt>
      <trkpt lat="44.56249" lon="1.94071">
        <ele>366</ele>
        <time>2017-09-19T14:18:44Z</time>
      </trkpt>
      <trkpt lat="44.5625" lon="1.94068">
        <ele>366</ele>
        <time>2017-09-19T14:18:46Z</time>
      </trkpt>
      <trkpt lat="44.56251" lon="1.94062">
        <ele>366</ele>
        <time>2017-09-19T14:18:50Z</time>
      </trkpt>
      <trkpt lat="44.56251" lon="1.94058">
        <ele>366</ele>
        <time>2017-09-19T14:18:53Z</time>
      </trkpt>
      <trkpt lat="44.56251" lon="1.94053">
        <ele>366</ele>
        <time>2017-09-19T14:18:56Z</time>
      </trkpt>
      <trkpt lat="44.56252" lon="1.94049">
        <ele>366</ele>
        <time>2017-09-19T14:18:59Z</time>
      </trkpt>
      <trkpt lat="44.56253" lon="1.94044">
        <ele>366</ele>
        <time>2017-09-19T14:19:02Z</time>
      </trkpt>
      <trkpt lat="44.56254" lon="1.94041">
        <ele>366</ele>
        <time>2017-09-19T14:19:04Z</time>
      </trkpt>
      <trkpt lat="44.56255" lon="1.94036">
        <ele>366</ele>
        <time>2017-09-19T14:19:07Z</time>
      </trkpt>
      <trkpt lat="44.56256" lon="1.94032">
        <ele>366</ele>
        <time>2017-09-19T14:19:10Z</time>
      </trkpt>
      <trkpt lat="44.56256" lon="1.94028">
        <ele>366</ele>
        <time>2017-09-19T14:19:12Z</time>
      </trkpt>
      <trkpt lat="44.56263" lon="1.93986">
        <ele>368</ele>
        <time>2017-09-19T14:19:38Z</time>
      </trkpt>
      <trkpt lat="44.56265" lon="1.93981">
        <ele>368</ele>
        <time>2017-09-19T14:19:43Z</time>
      </trkpt>
      <trkpt lat="44.56266" lon="1.93976">
        <ele>368</ele>
        <time>2017-09-19T14:19:47Z</time>
      </trkpt>
      <trkpt lat="44.56268" lon="1.9397">
        <ele>368</ele>
        <time>2017-09-19T14:19:50Z</time>
      </trkpt>
      <trkpt lat="44.56273" lon="1.93947">
        <ele>368</ele>
        <time>2017-09-19T14:20:05Z</time>
      </trkpt>
      <trkpt lat="44.56274" lon="1.93941">
        <ele>368</ele>
        <time>2017-09-19T14:20:08Z</time>
      </trkpt>
      <trkpt lat="44.56276" lon="1.93937">
        <ele>368</ele>
        <time>2017-09-19T14:20:11Z</time>
      </trkpt>
      <trkpt lat="44.56277" lon="1.9393">
        <ele>368</ele>
        <time>2017-09-19T14:20:15Z</time>
      </trkpt>
      <trkpt lat="44.56279" lon="1.93926">
        <ele>368</ele>
        <time>2017-09-19T14:20:18Z</time>
      </trkpt>
      <trkpt lat="44.56281" lon="1.93921">
        <ele>368</ele>
        <time>2017-09-19T14:20:22Z</time>
      </trkpt>
      <trkpt lat="44.56284" lon="1.9391">
        <ele>368</ele>
        <time>2017-09-19T14:20:28Z</time>
      </trkpt>
      <trkpt lat="44.56286" lon="1.93905">
        <ele>368</ele>
        <time>2017-09-19T14:20:31Z</time>
      </trkpt>
      <trkpt lat="44.56288" lon="1.93901">
        <ele>368</ele>
        <time>2017-09-19T14:20:35Z</time>
      </trkpt>
      <trkpt lat="44.56295" lon="1.93884">
        <ele>368</ele>
        <time>2017-09-19T14:20:48Z</time>
      </trkpt>
      <trkpt lat="44.56296" lon="1.93878">
        <ele>368</ele>
        <time>2017-09-19T14:20:52Z</time>
      </trkpt>
      <trkpt lat="44.56298" lon="1.93871">
        <ele>368</ele>
        <time>2017-09-19T14:20:59Z</time>
      </trkpt>
      <trkpt lat="44.563" lon="1.93863">
        <ele>368</ele>
        <time>2017-09-19T14:21:04Z</time>
      </trkpt>
      <trkpt lat="44.56306" lon="1.93845">
        <ele>368</ele>
        <time>2017-09-19T14:21:15Z</time>
      </trkpt>
      <trkpt lat="44.56309" lon="1.93832">
        <ele>367</ele>
        <time>2017-09-19T14:21:24Z</time>
      </trkpt>
      <trkpt lat="44.56312" lon="1.93826">
        <ele>367</ele>
        <time>2017-09-19T14:21:31Z</time>
      </trkpt>
      <trkpt lat="44.56317" lon="1.93812">
        <ele>367</ele>
        <time>2017-09-19T14:21:49Z</time>
      </trkpt>
      <trkpt lat="44.56318" lon="1.93806">
        <ele>367</ele>
        <time>2017-09-19T14:21:52Z</time>
      </trkpt>
      <trkpt lat="44.56339" lon="1.93769">
        <ele>369</ele>
        <time>2017-09-19T14:22:22Z</time>
      </trkpt>
      <trkpt lat="44.56342" lon="1.93764">
        <ele>369</ele>
        <time>2017-09-19T14:22:26Z</time>
      </trkpt>
      <trkpt lat="44.56347" lon="1.93753">
        <ele>369</ele>
        <time>2017-09-19T14:22:34Z</time>
      </trkpt>
      <trkpt lat="44.56349" lon="1.93747">
        <ele>368</ele>
        <time>2017-09-19T14:22:38Z</time>
      </trkpt>
      <trkpt lat="44.56351" lon="1.93742">
        <ele>368</ele>
        <time>2017-09-19T14:22:42Z</time>
      </trkpt>
      <trkpt lat="44.56355" lon="1.93723">
        <ele>368</ele>
        <time>2017-09-19T14:22:53Z</time>
      </trkpt>
      <trkpt lat="44.56356" lon="1.93718">
        <ele>368</ele>
        <time>2017-09-19T14:22:57Z</time>
      </trkpt>
      <trkpt lat="44.56359" lon="1.93712">
        <ele>368</ele>
        <time>2017-09-19T14:23:01Z</time>
      </trkpt>
      <trkpt lat="44.56361" lon="1.93707">
        <ele>368</ele>
        <time>2017-09-19T14:23:05Z</time>
      </trkpt>
      <trkpt lat="44.56364" lon="1.93693">
        <ele>367</ele>
        <time>2017-09-19T14:23:13Z</time>
      </trkpt>
      <trkpt lat="44.56374" lon="1.93668">
        <ele>367</ele>
        <time>2017-09-19T14:23:31Z</time>
      </trkpt>
      <trkpt lat="44.56381" lon="1.93645">
        <ele>367</ele>
        <time>2017-09-19T14:23:46Z</time>
      </trkpt>
      <trkpt lat="44.56384" lon="1.9364">
        <ele>367</ele>
        <time>2017-09-19T14:23:50Z</time>
      </trkpt>
      <trkpt lat="44.56386" lon="1.93635">
        <ele>367</ele>
        <time>2017-09-19T14:23:54Z</time>
      </trkpt>
      <trkpt lat="44.56388" lon="1.93629">
        <ele>367</ele>
        <time>2017-09-19T14:23:58Z</time>
      </trkpt>
      <trkpt lat="44.56391" lon="1.93616">
        <ele>367</ele>
        <time>2017-09-19T14:24:06Z</time>
      </trkpt>
      <trkpt lat="44.56391" lon="1.9361">
        <ele>367</ele>
        <time>2017-09-19T14:24:10Z</time>
      </trkpt>
      <trkpt lat="44.56391" lon="1.93604">
        <ele>367</ele>
        <time>2017-09-19T14:24:13Z</time>
      </trkpt>
      <trkpt lat="44.56391" lon="1.93595">
        <ele>367</ele>
        <time>2017-09-19T14:24:19Z</time>
      </trkpt>
      <trkpt lat="44.56394" lon="1.9357">
        <ele>367</ele>
        <time>2017-09-19T14:24:35Z</time>
      </trkpt>
      <trkpt lat="44.56394" lon="1.93563">
        <ele>366</ele>
        <time>2017-09-19T14:24:40Z</time>
      </trkpt>
      <trkpt lat="44.56392" lon="1.93541">
        <ele>366</ele>
        <time>2017-09-19T14:24:51Z</time>
      </trkpt>
      <trkpt lat="44.56392" lon="1.93527">
        <ele>366</ele>
        <time>2017-09-19T14:24:59Z</time>
      </trkpt>
      <trkpt lat="44.56393" lon="1.93522">
        <ele>366</ele>
        <time>2017-09-19T14:25:03Z</time>
      </trkpt>
      <trkpt lat="44.56395" lon="1.93496">
        <ele>366</ele>
        <time>2017-09-19T14:25:18Z</time>
      </trkpt>
      <trkpt lat="44.56395" lon="1.93492">
        <ele>366</ele>
        <time>2017-09-19T14:25:20Z</time>
      </trkpt>
      <trkpt lat="44.56398" lon="1.93469">
        <ele>366</ele>
        <time>2017-09-19T14:25:34Z</time>
      </trkpt>
      <trkpt lat="44.56407" lon="1.93439">
        <ele>366</ele>
        <time>2017-09-19T14:25:54Z</time>
      </trkpt>
      <trkpt lat="44.56427" lon="1.93392">
        <ele>364</ele>
        <time>2017-09-19T14:26:25Z</time>
      </trkpt>
      <trkpt lat="44.56431" lon="1.93385">
        <ele>363</ele>
        <time>2017-09-19T14:26:31Z</time>
      </trkpt>
      <trkpt lat="44.56432" lon="1.93379">
        <ele>363</ele>
        <time>2017-09-19T14:26:34Z</time>
      </trkpt>
      <trkpt lat="44.56434" lon="1.93369">
        <ele>362</ele>
        <time>2017-09-19T14:26:41Z</time>
      </trkpt>
      <trkpt lat="44.56436" lon="1.93365">
        <ele>362</ele>
        <time>2017-09-19T14:26:44Z</time>
      </trkpt>
      <trkpt lat="44.5644" lon="1.93353">
        <ele>362</ele>
        <time>2017-09-19T14:26:51Z</time>
      </trkpt>
      <trkpt lat="44.56441" lon="1.93348">
        <ele>362</ele>
        <time>2017-09-19T14:26:54Z</time>
      </trkpt>
      <trkpt lat="44.56442" lon="1.93343">
        <ele>362</ele>
        <time>2017-09-19T14:26:57Z</time>
      </trkpt>
      <trkpt lat="44.56445" lon="1.93336">
        <ele>362</ele>
        <time>2017-09-19T14:27:02Z</time>
      </trkpt>
      <trkpt lat="44.56447" lon="1.93332">
        <ele>361</ele>
        <time>2017-09-19T14:27:04Z</time>
      </trkpt>
      <trkpt lat="44.56449" lon="1.93324">
        <ele>360</ele>
        <time>2017-09-19T14:27:09Z</time>
      </trkpt>
      <trkpt lat="44.56458" lon="1.93306">
        <ele>360</ele>
        <time>2017-09-19T14:27:22Z</time>
      </trkpt>
      <trkpt lat="44.56465" lon="1.93298">
        <ele>359</ele>
        <time>2017-09-19T14:27:32Z</time>
      </trkpt>
      <trkpt lat="44.56467" lon="1.93295">
        <ele>359</ele>
        <time>2017-09-19T14:27:39Z</time>
      </trkpt>
      <trkpt lat="44.5647" lon="1.93292">
        <ele>359</ele>
        <time>2017-09-19T14:27:43Z</time>
      </trkpt>
      <trkpt lat="44.56474" lon="1.93289">
        <ele>359</ele>
        <time>2017-09-19T14:27:47Z</time>
      </trkpt>
      <trkpt lat="44.56477" lon="1.93286">
        <ele>359</ele>
        <time>2017-09-19T14:27:51Z</time>
      </trkpt>
      <trkpt lat="44.56484" lon="1.93279">
        <ele>359</ele>
        <time>2017-09-19T14:28:00Z</time>
      </trkpt>
      <trkpt lat="44.56489" lon="1.93277">
        <ele>358</ele>
        <time>2017-09-19T14:28:06Z</time>
      </trkpt>
      <trkpt lat="44.56492" lon="1.93274">
        <ele>358</ele>
        <time>2017-09-19T14:28:09Z</time>
      </trkpt>
      <trkpt lat="44.56499" lon="1.93275">
        <ele>358</ele>
        <time>2017-09-19T14:28:15Z</time>
      </trkpt>
      <trkpt lat="44.56507" lon="1.93273">
        <ele>354</ele>
        <time>2017-09-19T14:28:23Z</time>
      </trkpt>
      <trkpt lat="44.5652" lon="1.9327">
        <ele>353</ele>
        <time>2017-09-19T14:28:35Z</time>
      </trkpt>
      <trkpt lat="44.56527" lon="1.93268">
        <ele>353</ele>
        <time>2017-09-19T14:28:49Z</time>
      </trkpt>
      <trkpt lat="44.56535" lon="1.93264">
        <ele>353</ele>
        <time>2017-09-19T14:29:00Z</time>
      </trkpt>
      <trkpt lat="44.56553" lon="1.93264">
        <ele>352</ele>
        <time>2017-09-19T14:29:17Z</time>
      </trkpt>
      <trkpt lat="44.56555" lon="1.93266">
        <ele>352</ele>
        <time>2017-09-19T14:29:41Z</time>
      </trkpt>
      <trkpt lat="44.56558" lon="1.93269">
        <ele>352</ele>
        <time>2017-09-19T14:30:52Z</time>
      </trkpt>
      <trkpt lat="44.5656" lon="1.93266">
        <ele>352</ele>
        <time>2017-09-19T14:30:58Z</time>
      </trkpt>
      <trkpt lat="44.5656" lon="1.93268">
        <ele>352</ele>
        <time>2017-09-19T14:31:48Z</time>
      </trkpt>
      <trkpt lat="44.56557" lon="1.93267">
        <ele>352</ele>
        <time>2017-09-19T14:31:50Z</time>
      </trkpt>
      <trkpt lat="44.56555" lon="1.93265">
        <ele>352</ele>
        <time>2017-09-19T14:32:03Z</time>
      </trkpt>
      <trkpt lat="44.56557" lon="1.93268">
        <ele>352</ele>
        <time>2017-09-19T14:33:46Z</time>
      </trkpt>
      <trkpt lat="44.56557" lon="1.93271">
        <ele>352</ele>
        <time>2017-09-19T14:33:49Z</time>
      </trkpt>
      <trkpt lat="44.56558" lon="1.93273">
        <ele>352</ele>
        <time>2017-09-19T14:33:51Z</time>
      </trkpt>
      <trkpt lat="44.56559" lon="1.93275">
        <ele>352</ele>
        <time>2017-09-19T14:33:54Z</time>
      </trkpt>
      <trkpt lat="44.56561" lon="1.93276">
        <ele>352</ele>
        <time>2017-09-19T14:33:58Z</time>
      </trkpt>
      <trkpt lat="44.56563" lon="1.93277">
        <ele>352</ele>
        <time>2017-09-19T14:34:01Z</time>
      </trkpt>
      <trkpt lat="44.56566" lon="1.93276">
        <ele>351</ele>
        <time>2017-09-19T14:34:04Z</time>
      </trkpt>
      <trkpt lat="44.56568" lon="1.93277">
        <ele>351</ele>
        <time>2017-09-19T14:34:07Z</time>
      </trkpt>
      <trkpt lat="44.56587" lon="1.93271">
        <ele>350</ele>
        <time>2017-09-19T14:34:26Z</time>
      </trkpt>
      <trkpt lat="44.56591" lon="1.9327">
        <ele>350</ele>
        <time>2017-09-19T14:34:29Z</time>
      </trkpt>
      <trkpt lat="44.56597" lon="1.93268">
        <ele>350</ele>
        <time>2017-09-19T14:34:35Z</time>
      </trkpt>
      <trkpt lat="44.56614" lon="1.93262">
        <ele>350</ele>
        <time>2017-09-19T14:34:50Z</time>
      </trkpt>
      <trkpt lat="44.56619" lon="1.93261">
        <ele>350</ele>
        <time>2017-09-19T14:34:54Z</time>
      </trkpt>
      <trkpt lat="44.56639" lon="1.9326">
        <ele>351</ele>
        <time>2017-09-19T14:35:10Z</time>
      </trkpt>
      <trkpt lat="44.56642" lon="1.9326">
        <ele>351</ele>
        <time>2017-09-19T14:35:14Z</time>
      </trkpt>
      <trkpt lat="44.56646" lon="1.9326">
        <ele>351</ele>
        <time>2017-09-19T14:35:17Z</time>
      </trkpt>
      <trkpt lat="44.56653" lon="1.93262">
        <ele>351</ele>
        <time>2017-09-19T14:35:24Z</time>
      </trkpt>
      <trkpt lat="44.5668" lon="1.93277">
        <ele>351</ele>
        <time>2017-09-19T14:35:47Z</time>
      </trkpt>
      <trkpt lat="44.56683" lon="1.9328">
        <ele>351</ele>
        <time>2017-09-19T14:35:50Z</time>
      </trkpt>
      <trkpt lat="44.56686" lon="1.93282">
        <ele>350</ele>
        <time>2017-09-19T14:35:53Z</time>
      </trkpt>
      <trkpt lat="44.56689" lon="1.93284">
        <ele>350</ele>
        <time>2017-09-19T14:35:56Z</time>
      </trkpt>
      <trkpt lat="44.56692" lon="1.93287">
        <ele>350</ele>
        <time>2017-09-19T14:35:59Z</time>
      </trkpt>
      <trkpt lat="44.56714" lon="1.93308">
        <ele>349</ele>
        <time>2017-09-19T14:36:20Z</time>
      </trkpt>
      <trkpt lat="44.56717" lon="1.93312">
        <ele>349</ele>
        <time>2017-09-19T14:36:23Z</time>
      </trkpt>
      <trkpt lat="44.56719" lon="1.93315">
        <ele>348</ele>
        <time>2017-09-19T14:36:26Z</time>
      </trkpt>
      <trkpt lat="44.56739" lon="1.93338">
        <ele>344</ele>
        <time>2017-09-19T14:36:48Z</time>
      </trkpt>
      <trkpt lat="44.56744" lon="1.93344">
        <ele>344</ele>
        <time>2017-09-19T14:36:56Z</time>
      </trkpt>
      <trkpt lat="44.56747" lon="1.93347">
        <ele>344</ele>
        <time>2017-09-19T14:36:59Z</time>
      </trkpt>
      <trkpt lat="44.56751" lon="1.9335">
        <ele>342</ele>
        <time>2017-09-19T14:37:03Z</time>
      </trkpt>
      <trkpt lat="44.56766" lon="1.93365">
        <ele>340</ele>
        <time>2017-09-19T14:37:22Z</time>
      </trkpt>
      <trkpt lat="44.56774" lon="1.93371">
        <ele>340</ele>
        <time>2017-09-19T14:37:30Z</time>
      </trkpt>
      <trkpt lat="44.56783" lon="1.93378">
        <ele>339</ele>
        <time>2017-09-19T14:37:41Z</time>
      </trkpt>
      <trkpt lat="44.56786" lon="1.9338">
        <ele>339</ele>
        <time>2017-09-19T14:37:44Z</time>
      </trkpt>
      <trkpt lat="44.56788" lon="1.93381">
        <ele>339</ele>
        <time>2017-09-19T14:37:49Z</time>
      </trkpt>
      <trkpt lat="44.5679" lon="1.93383">
        <ele>339</ele>
        <time>2017-09-19T14:37:53Z</time>
      </trkpt>
      <trkpt lat="44.56817" lon="1.934">
        <ele>337</ele>
        <time>2017-09-19T14:38:25Z</time>
      </trkpt>
      <trkpt lat="44.56821" lon="1.93403">
        <ele>336</ele>
        <time>2017-09-19T14:38:29Z</time>
      </trkpt>
      <trkpt lat="44.56824" lon="1.93407">
        <ele>336</ele>
        <time>2017-09-19T14:38:33Z</time>
      </trkpt>
      <trkpt lat="44.56828" lon="1.93408">
        <ele>336</ele>
        <time>2017-09-19T14:38:36Z</time>
      </trkpt>
      <trkpt lat="44.56832" lon="1.9341">
        <ele>335</ele>
        <time>2017-09-19T14:38:39Z</time>
      </trkpt>
      <trkpt lat="44.56836" lon="1.93411">
        <ele>334</ele>
        <time>2017-09-19T14:38:42Z</time>
      </trkpt>
      <trkpt lat="44.56839" lon="1.93412">
        <ele>334</ele>
        <time>2017-09-19T14:38:45Z</time>
      </trkpt>
      <trkpt lat="44.56868" lon="1.93411">
        <ele>333</ele>
        <time>2017-09-19T14:39:06Z</time>
      </trkpt>
      <trkpt lat="44.56871" lon="1.93411">
        <ele>333</ele>
        <time>2017-09-19T14:39:10Z</time>
      </trkpt>
      <trkpt lat="44.56875" lon="1.93413">
        <ele>333</ele>
        <time>2017-09-19T14:39:14Z</time>
      </trkpt>
      <trkpt lat="44.5689" lon="1.93416">
        <ele>332</ele>
        <time>2017-09-19T14:39:25Z</time>
      </trkpt>
      <trkpt lat="44.56898" lon="1.93418">
        <ele>329</ele>
        <time>2017-09-19T14:39:30Z</time>
      </trkpt>
      <trkpt lat="44.56927" lon="1.93436">
        <ele>326</ele>
        <time>2017-09-19T14:39:57Z</time>
      </trkpt>
      <trkpt lat="44.56931" lon="1.93439">
        <ele>326</ele>
        <time>2017-09-19T14:40:00Z</time>
      </trkpt>
      <trkpt lat="44.56952" lon="1.93457">
        <ele>324</ele>
        <time>2017-09-19T14:40:19Z</time>
      </trkpt>
      <trkpt lat="44.56957" lon="1.93463">
        <ele>324</ele>
        <time>2017-09-19T14:40:25Z</time>
      </trkpt>
      <trkpt lat="44.56993" lon="1.9348">
        <ele>323</ele>
        <time>2017-09-19T14:40:58Z</time>
      </trkpt>
      <trkpt lat="44.57011" lon="1.93486">
        <ele>321</ele>
        <time>2017-09-19T14:41:13Z</time>
      </trkpt>
      <trkpt lat="44.57033" lon="1.93487">
        <ele>320</ele>
        <time>2017-09-19T14:41:31Z</time>
      </trkpt>
      <trkpt lat="44.57042" lon="1.93488">
        <ele>320</ele>
        <time>2017-09-19T14:41:38Z</time>
      </trkpt>
      <trkpt lat="44.57053" lon="1.93488">
        <ele>320</ele>
        <time>2017-09-19T14:41:46Z</time>
      </trkpt>
      <trkpt lat="44.57058" lon="1.93487">
        <ele>320</ele>
        <time>2017-09-19T14:41:50Z</time>
      </trkpt>
      <trkpt lat="44.57078" lon="1.93486">
        <ele>319</ele>
        <time>2017-09-19T14:42:06Z</time>
      </trkpt>
      <trkpt lat="44.57087" lon="1.93488">
        <ele>320</ele>
        <time>2017-09-19T14:42:12Z</time>
      </trkpt>
      <trkpt lat="44.5709" lon="1.93488">
        <ele>320</ele>
        <time>2017-09-19T14:42:15Z</time>
      </trkpt>
      <trkpt lat="44.57094" lon="1.9349">
        <ele>320</ele>
        <time>2017-09-19T14:42:18Z</time>
      </trkpt>
      <trkpt lat="44.57098" lon="1.93491">
        <ele>320</ele>
        <time>2017-09-19T14:42:23Z</time>
      </trkpt>
      <trkpt lat="44.57129" lon="1.93506">
        <ele>320</ele>
        <time>2017-09-19T14:42:53Z</time>
      </trkpt>
      <trkpt lat="44.57165" lon="1.9352">
        <ele>321</ele>
        <time>2017-09-19T14:43:24Z</time>
      </trkpt>
      <trkpt lat="44.57175" lon="1.93524">
        <ele>321</ele>
        <time>2017-09-19T14:43:30Z</time>
      </trkpt>
      <trkpt lat="44.57179" lon="1.93526">
        <ele>321</ele>
        <time>2017-09-19T14:43:33Z</time>
      </trkpt>
      <trkpt lat="44.57183" lon="1.93528">
        <ele>320</ele>
        <time>2017-09-19T14:43:36Z</time>
      </trkpt>
      <trkpt lat="44.57187" lon="1.93529">
        <ele>320</ele>
        <time>2017-09-19T14:43:39Z</time>
      </trkpt>
      <trkpt lat="44.57191" lon="1.93531">
        <ele>320</ele>
        <time>2017-09-19T14:43:43Z</time>
      </trkpt>
      <trkpt lat="44.57212" lon="1.93538">
        <ele>320</ele>
        <time>2017-09-19T14:44:00Z</time>
      </trkpt>
      <trkpt lat="44.57215" lon="1.9354">
        <ele>320</ele>
        <time>2017-09-19T14:44:03Z</time>
      </trkpt>
      <trkpt lat="44.57219" lon="1.93542">
        <ele>320</ele>
        <time>2017-09-19T14:44:07Z</time>
      </trkpt>
      <trkpt lat="44.57224" lon="1.93546">
        <ele>320</ele>
        <time>2017-09-19T14:44:12Z</time>
      </trkpt>
      <trkpt lat="44.57227" lon="1.93549">
        <ele>319</ele>
        <time>2017-09-19T14:44:15Z</time>
      </trkpt>
      <trkpt lat="44.57232" lon="1.93551">
        <ele>319</ele>
        <time>2017-09-19T14:44:19Z</time>
      </trkpt>
      <trkpt lat="44.57235" lon="1.93555">
        <ele>319</ele>
        <time>2017-09-19T14:44:24Z</time>
      </trkpt>
      <trkpt lat="44.57238" lon="1.93557">
        <ele>319</ele>
        <time>2017-09-19T14:44:28Z</time>
      </trkpt>
      <trkpt lat="44.57243" lon="1.93558">
        <ele>319</ele>
        <time>2017-09-19T14:44:31Z</time>
      </trkpt>
      <trkpt lat="44.57245" lon="1.93561">
        <ele>318</ele>
        <time>2017-09-19T14:44:33Z</time>
      </trkpt>
      <trkpt lat="44.57255" lon="1.9357">
        <ele>316</ele>
        <time>2017-09-19T14:44:51Z</time>
      </trkpt>
      <trkpt lat="44.57257" lon="1.93574">
        <ele>316</ele>
        <time>2017-09-19T14:44:57Z</time>
      </trkpt>
      <trkpt lat="44.57261" lon="1.93579">
        <ele>316</ele>
        <time>2017-09-19T14:45:05Z</time>
      </trkpt>
      <trkpt lat="44.57264" lon="1.93584">
        <ele>313</ele>
        <time>2017-09-19T14:45:10Z</time>
      </trkpt>
      <trkpt lat="44.57265" lon="1.93588">
        <ele>313</ele>
        <time>2017-09-19T14:45:13Z</time>
      </trkpt>
      <trkpt lat="44.5727" lon="1.93593">
        <ele>312</ele>
        <time>2017-09-19T14:45:21Z</time>
      </trkpt>
      <trkpt lat="44.57273" lon="1.93596">
        <ele>311</ele>
        <time>2017-09-19T14:45:26Z</time>
      </trkpt>
      <trkpt lat="44.57275" lon="1.936">
        <ele>311</ele>
        <time>2017-09-19T14:45:29Z</time>
      </trkpt>
      <trkpt lat="44.57278" lon="1.93603">
        <ele>311</ele>
        <time>2017-09-19T14:45:33Z</time>
      </trkpt>
      <trkpt lat="44.57304" lon="1.93638">
        <ele>309</ele>
        <time>2017-09-19T14:46:04Z</time>
      </trkpt>
      <trkpt lat="44.57309" lon="1.93647">
        <ele>308</ele>
        <time>2017-09-19T14:46:12Z</time>
      </trkpt>
      <trkpt lat="44.57311" lon="1.93651">
        <ele>308</ele>
        <time>2017-09-19T14:46:15Z</time>
      </trkpt>
      <trkpt lat="44.57313" lon="1.93656">
        <ele>308</ele>
        <time>2017-09-19T14:46:19Z</time>
      </trkpt>
      <trkpt lat="44.57334" lon="1.93686">
        <ele>304</ele>
        <time>2017-09-19T14:46:44Z</time>
      </trkpt>
      <trkpt lat="44.57336" lon="1.93688">
        <ele>303</ele>
        <time>2017-09-19T14:46:46Z</time>
      </trkpt>
      <trkpt lat="44.57337" lon="1.9369">
        <ele>303</ele>
        <time>2017-09-19T14:46:49Z</time>
      </trkpt>
      <trkpt lat="44.57339" lon="1.93691">
        <ele>303</ele>
        <time>2017-09-19T14:46:52Z</time>
      </trkpt>
      <trkpt lat="44.5734" lon="1.93692">
        <ele>303</ele>
        <time>2017-09-19T14:46:55Z</time>
      </trkpt>
      <trkpt lat="44.57343" lon="1.93692">
        <ele>303</ele>
        <time>2017-09-19T14:47:00Z</time>
      </trkpt>
      <trkpt lat="44.57346" lon="1.93692">
        <ele>303</ele>
        <time>2017-09-19T14:47:03Z</time>
      </trkpt>
      <trkpt lat="44.5735" lon="1.93689">
        <ele>303</ele>
        <time>2017-09-19T14:47:08Z</time>
      </trkpt>
      <trkpt lat="44.57355" lon="1.93687">
        <ele>303</ele>
        <time>2017-09-19T14:47:14Z</time>
      </trkpt>
      <trkpt lat="44.57362" lon="1.93686">
        <ele>302</ele>
        <time>2017-09-19T14:47:21Z</time>
      </trkpt>
      <trkpt lat="44.57366" lon="1.93686">
        <ele>302</ele>
        <time>2017-09-19T14:47:24Z</time>
      </trkpt>
      <trkpt lat="44.57384" lon="1.93666">
        <ele>302</ele>
        <time>2017-09-19T14:47:50Z</time>
      </trkpt>
      <trkpt lat="44.57386" lon="1.93662">
        <ele>302</ele>
        <time>2017-09-19T14:47:54Z</time>
      </trkpt>
      <trkpt lat="44.57396" lon="1.93648">
        <ele>302</ele>
        <time>2017-09-19T14:48:07Z</time>
      </trkpt>
      <trkpt lat="44.57399" lon="1.93646">
        <ele>302</ele>
        <time>2017-09-19T14:48:09Z</time>
      </trkpt>
      <trkpt lat="44.57404" lon="1.93639">
        <ele>302</ele>
        <time>2017-09-19T14:48:15Z</time>
      </trkpt>
      <trkpt lat="44.57408" lon="1.93637">
        <ele>302</ele>
        <time>2017-09-19T14:48:18Z</time>
      </trkpt>
      <trkpt lat="44.57424" lon="1.93631">
        <ele>299</ele>
        <time>2017-09-19T14:48:33Z</time>
      </trkpt>
      <trkpt lat="44.57431" lon="1.93632">
        <ele>299</ele>
        <time>2017-09-19T14:48:40Z</time>
      </trkpt>
      <trkpt lat="44.57458" lon="1.93641">
        <ele>298</ele>
        <time>2017-09-19T14:49:06Z</time>
      </trkpt>
      <trkpt lat="44.57462" lon="1.93641">
        <ele>298</ele>
        <time>2017-09-19T14:49:09Z</time>
      </trkpt>
      <trkpt lat="44.57473" lon="1.93643">
        <ele>298</ele>
        <time>2017-09-19T14:49:21Z</time>
      </trkpt>
      <trkpt lat="44.57485" lon="1.9364">
        <ele>298</ele>
        <time>2017-09-19T14:49:32Z</time>
      </trkpt>
      <trkpt lat="44.57489" lon="1.93638">
        <ele>298</ele>
        <time>2017-09-19T14:49:36Z</time>
      </trkpt>
      <trkpt lat="44.57496" lon="1.93637">
        <ele>298</ele>
        <time>2017-09-19T14:49:52Z</time>
      </trkpt>
      <trkpt lat="44.57504" lon="1.93634">
        <ele>297</ele>
        <time>2017-09-19T14:50:00Z</time>
      </trkpt>
      <trkpt lat="44.57506" lon="1.93633">
        <ele>297</ele>
        <time>2017-09-19T14:50:02Z</time>
      </trkpt>
      <trkpt lat="44.57533" lon="1.93626">
        <ele>298</ele>
        <time>2017-09-19T14:50:27Z</time>
      </trkpt>
      <trkpt lat="44.57572" lon="1.93626">
        <ele>297</ele>
        <time>2017-09-19T14:50:59Z</time>
      </trkpt>
      <trkpt lat="44.57589" lon="1.93624">
        <ele>299</ele>
        <time>2017-09-19T14:51:12Z</time>
      </trkpt>
      <trkpt lat="44.57603" lon="1.93622">
        <ele>299</ele>
        <time>2017-09-19T14:51:24Z</time>
      </trkpt>
      <trkpt lat="44.57606" lon="1.93619">
        <ele>299</ele>
        <time>2017-09-19T14:51:30Z</time>
      </trkpt>
      <trkpt lat="44.57608" lon="1.93621">
        <ele>299</ele>
        <time>2017-09-19T14:51:46Z</time>
      </trkpt>
      <trkpt lat="44.57611" lon="1.93623">
        <ele>300</ele>
        <time>2017-09-19T14:51:55Z</time>
      </trkpt>
      <trkpt lat="44.57615" lon="1.93623">
        <ele>300</ele>
        <time>2017-09-19T14:51:58Z</time>
      </trkpt>
      <trkpt lat="44.57628" lon="1.93615">
        <ele>300</ele>
        <time>2017-09-19T14:52:10Z</time>
      </trkpt>
      <trkpt lat="44.57662" lon="1.93608">
        <ele>301</ele>
        <time>2017-09-19T14:52:40Z</time>
      </trkpt>
      <trkpt lat="44.57666" lon="1.93608">
        <ele>301</ele>
        <time>2017-09-19T14:52:43Z</time>
      </trkpt>
      <trkpt lat="44.57669" lon="1.93609">
        <ele>305</ele>
        <time>2017-09-19T14:52:46Z</time>
      </trkpt>
      <trkpt lat="44.57695" lon="1.93609">
        <ele>307</ele>
        <time>2017-09-19T14:53:08Z</time>
      </trkpt>
      <trkpt lat="44.57698" lon="1.9361">
        <ele>307</ele>
        <time>2017-09-19T14:53:11Z</time>
      </trkpt>
      <trkpt lat="44.57714" lon="1.93607">
        <ele>308</ele>
        <time>2017-09-19T14:53:24Z</time>
      </trkpt>
      <trkpt lat="44.57716" lon="1.93607">
        <ele>308</ele>
        <time>2017-09-19T14:53:26Z</time>
      </trkpt>
      <trkpt lat="44.57719" lon="1.93605">
        <ele>308</ele>
        <time>2017-09-19T14:53:29Z</time>
      </trkpt>
      <trkpt lat="44.5775" lon="1.93587">
        <ele>311</ele>
        <time>2017-09-19T14:54:00Z</time>
      </trkpt>
      <trkpt lat="44.57753" lon="1.93588">
        <ele>312</ele>
        <time>2017-09-19T14:54:03Z</time>
      </trkpt>
      <trkpt lat="44.57755" lon="1.93591">
        <ele>313</ele>
        <time>2017-09-19T14:54:07Z</time>
      </trkpt>
      <trkpt lat="44.57757" lon="1.93598">
        <ele>313</ele>
        <time>2017-09-19T14:54:12Z</time>
      </trkpt>
      <trkpt lat="44.57757" lon="1.93602">
        <ele>313</ele>
        <time>2017-09-19T14:54:15Z</time>
      </trkpt>
      <trkpt lat="44.57759" lon="1.93614">
        <ele>314</ele>
        <time>2017-09-19T14:54:22Z</time>
      </trkpt>
      <trkpt lat="44.57761" lon="1.93621">
        <ele>314</ele>
        <time>2017-09-19T14:54:27Z</time>
      </trkpt>
      <trkpt lat="44.57763" lon="1.93631">
        <ele>314</ele>
        <time>2017-09-19T14:54:34Z</time>
      </trkpt>
      <trkpt lat="44.57765" lon="1.93631">
        <ele>314</ele>
        <time>2017-09-19T14:54:39Z</time>
      </trkpt>
      <trkpt lat="44.57767" lon="1.93629">
        <ele>314</ele>
        <time>2017-09-19T14:54:57Z</time>
      </trkpt>
      <trkpt lat="44.57768" lon="1.93626">
        <ele>314</ele>
        <time>2017-09-19T14:55:22Z</time>
      </trkpt>
      <trkpt lat="44.57768" lon="1.93625">
        <ele>314</ele>
        <time>2017-09-19T14:57:47Z</time>
      </trkpt>
      <trkpt lat="44.57762" lon="1.93629">
        <ele>314</ele>
        <time>2017-09-19T14:57:55Z</time>
      </trkpt>
      <trkpt lat="44.57756" lon="1.93633">
        <ele>314</ele>
        <time>2017-09-19T14:58:03Z</time>
      </trkpt>
      <trkpt lat="44.57753" lon="1.93635">
        <ele>314</ele>
        <time>2017-09-19T14:58:07Z</time>
      </trkpt>
      <trkpt lat="44.57751" lon="1.93639">
        <ele>314</ele>
        <time>2017-09-19T15:00:25Z</time>
      </trkpt>
      <trkpt lat="44.57748" lon="1.9365">
        <ele>311</ele>
        <time>2017-09-19T14:58:22Z</time>
      </trkpt>
      <trkpt lat="44.5775" lon="1.93648">
        <ele>310</ele>
        <time>2017-09-19T14:59:10Z</time>
      </trkpt>
      <trkpt lat="44.57751" lon="1.93636">
        <ele>314</ele>
        <time>2017-09-19T14:59:16Z</time>
      </trkpt>
      <trkpt lat="44.57751" lon="1.93639">
        <ele>314</ele>
        <time>2017-09-19T15:00:25Z</time>
      </trkpt>
      <trkpt lat="44.5775" lon="1.93642">
        <ele>310</ele>
        <time>2017-09-19T15:00:27Z</time>
      </trkpt>
      <trkpt lat="44.57748" lon="1.93646">
        <ele>310</ele>
        <time>2017-09-19T15:00:32Z</time>
      </trkpt>
      <trkpt lat="44.57749" lon="1.9365">
        <ele>311</ele>
        <time>2017-09-19T15:00:38Z</time>
      </trkpt>
      <trkpt lat="44.57747" lon="1.93649">
        <ele>311</ele>
        <time>2017-09-19T15:01:45Z</time>
      </trkpt>
      <trkpt lat="44.57747" lon="1.93652">
        <ele>311</ele>
        <time>2017-09-19T15:01:59Z</time>
      </trkpt>
      <trkpt lat="44.57751" lon="1.93631">
        <ele>314</ele>
        <time>2017-09-20T07:27:18Z</time>
      </trkpt>
      <trkpt lat="44.57756" lon="1.93598">
        <ele>313</ele>
        <time>2017-09-20T07:38:25Z</time>
      </trkpt>
      <trkpt lat="44.57754" lon="1.93589">
        <ele>313</ele>
        <time>2017-09-20T07:38:37Z</time>
      </trkpt>
      <trkpt lat="44.5794" lon="1.93212">
        <ele>323</ele>
        <time>2017-09-20T07:44:00Z</time>
      </trkpt>
      <trkpt lat="44.5793" lon="1.93205">
        <ele>324</ele>
        <time>2017-09-20T07:44:03Z</time>
      </trkpt>
      <trkpt lat="44.5793" lon="1.93197">
        <ele>324</ele>
        <time>2017-09-20T07:44:08Z</time>
      </trkpt>
      <trkpt lat="44.57928" lon="1.93191">
        <ele>325</ele>
        <time>2017-09-20T07:44:14Z</time>
      </trkpt>
      <trkpt lat="44.57925" lon="1.93178">
        <ele>326</ele>
        <time>2017-09-20T07:44:23Z</time>
      </trkpt>
      <trkpt lat="44.57923" lon="1.9317">
        <ele>327</ele>
        <time>2017-09-20T07:44:28Z</time>
      </trkpt>
      <trkpt lat="44.57921" lon="1.93154">
        <ele>326</ele>
        <time>2017-09-20T07:44:40Z</time>
      </trkpt>
      <trkpt lat="44.57922" lon="1.9315">
        <ele>326</ele>
        <time>2017-09-20T07:44:42Z</time>
      </trkpt>
      <trkpt lat="44.5792" lon="1.93132">
        <ele>325</ele>
        <time>2017-09-20T07:44:54Z</time>
      </trkpt>
      <trkpt lat="44.57917" lon="1.93121">
        <ele>324</ele>
        <time>2017-09-20T07:45:00Z</time>
      </trkpt>
      <trkpt lat="44.57917" lon="1.93116">
        <ele>331</ele>
        <time>2017-09-20T07:45:03Z</time>
      </trkpt>
      <trkpt lat="44.57916" lon="1.93111">
        <ele>331</ele>
        <time>2017-09-20T07:45:06Z</time>
      </trkpt>
      <trkpt lat="44.57913" lon="1.93093">
        <ele>330</ele>
        <time>2017-09-20T07:45:20Z</time>
      </trkpt>
      <trkpt lat="44.57912" lon="1.93089">
        <ele>329</ele>
        <time>2017-09-20T07:45:23Z</time>
      </trkpt>
      <trkpt lat="44.57909" lon="1.9308">
        <ele>330</ele>
        <time>2017-09-20T07:45:30Z</time>
      </trkpt>
      <trkpt lat="44.57909" lon="1.93075">
        <ele>330</ele>
        <time>2017-09-20T07:45:35Z</time>
      </trkpt>
      <trkpt lat="44.57907" lon="1.9307">
        <ele>331</ele>
        <time>2017-09-20T07:45:40Z</time>
      </trkpt>
      <trkpt lat="44.57905" lon="1.93066">
        <ele>331</ele>
        <time>2017-09-20T07:45:43Z</time>
      </trkpt>
      <trkpt lat="44.57902" lon="1.93061">
        <ele>332</ele>
        <time>2017-09-20T07:45:50Z</time>
      </trkpt>
      <trkpt lat="44.57902" lon="1.93053">
        <ele>332</ele>
        <time>2017-09-20T07:45:57Z</time>
      </trkpt>
      <trkpt lat="44.57902" lon="1.93047">
        <ele>332</ele>
        <time>2017-09-20T07:46:03Z</time>
      </trkpt>
      <trkpt lat="44.57901" lon="1.93035">
        <ele>332</ele>
        <time>2017-09-20T07:46:09Z</time>
      </trkpt>
      <trkpt lat="44.579" lon="1.9302">
        <ele>331</ele>
        <time>2017-09-20T07:46:19Z</time>
      </trkpt>
      <trkpt lat="44.57899" lon="1.93015">
        <ele>331</ele>
        <time>2017-09-20T07:46:22Z</time>
      </trkpt>
      <trkpt lat="44.57897" lon="1.93004">
        <ele>331</ele>
        <time>2017-09-20T07:46:28Z</time>
      </trkpt>
      <trkpt lat="44.57896" lon="1.93">
        <ele>331</ele>
        <time>2017-09-20T07:46:31Z</time>
      </trkpt>
      <trkpt lat="44.57896" lon="1.92989">
        <ele>331</ele>
        <time>2017-09-20T07:46:37Z</time>
      </trkpt>
      <trkpt lat="44.57896" lon="1.92984">
        <ele>332</ele>
        <time>2017-09-20T07:46:41Z</time>
      </trkpt>
      <trkpt lat="44.57896" lon="1.92978">
        <ele>332</ele>
        <time>2017-09-20T07:46:46Z</time>
      </trkpt>
      <trkpt lat="44.57896" lon="1.92968">
        <ele>333</ele>
        <time>2017-09-20T07:46:50Z</time>
      </trkpt>
      <trkpt lat="44.57893" lon="1.92957">
        <ele>333</ele>
        <time>2017-09-20T07:46:56Z</time>
      </trkpt>
      <trkpt lat="44.57892" lon="1.92953">
        <ele>333</ele>
        <time>2017-09-20T07:47:00Z</time>
      </trkpt>
      <trkpt lat="44.57889" lon="1.92932">
        <ele>333</ele>
        <time>2017-09-20T07:47:13Z</time>
      </trkpt>
      <trkpt lat="44.57887" lon="1.92911">
        <ele>334</ele>
        <time>2017-09-20T07:47:27Z</time>
      </trkpt>
      <trkpt lat="44.57887" lon="1.92906">
        <ele>334</ele>
        <time>2017-09-20T07:47:30Z</time>
      </trkpt>
      <trkpt lat="44.57887" lon="1.92896">
        <ele>334</ele>
        <time>2017-09-20T07:47:37Z</time>
      </trkpt>
      <trkpt lat="44.57886" lon="1.92879">
        <ele>334</ele>
        <time>2017-09-20T07:47:49Z</time>
      </trkpt>
      <trkpt lat="44.57886" lon="1.92873">
        <ele>334</ele>
        <time>2017-09-20T07:47:52Z</time>
      </trkpt>
      <trkpt lat="44.57886" lon="1.92868">
        <ele>334</ele>
        <time>2017-09-20T07:47:55Z</time>
      </trkpt>
      <trkpt lat="44.57885" lon="1.92863">
        <ele>334</ele>
        <time>2017-09-20T07:47:58Z</time>
      </trkpt>
      <trkpt lat="44.57886" lon="1.92843">
        <ele>334</ele>
        <time>2017-09-20T07:48:10Z</time>
      </trkpt>
      <trkpt lat="44.57887" lon="1.92825">
        <ele>334</ele>
        <time>2017-09-20T07:48:20Z</time>
      </trkpt>
      <trkpt lat="44.57887" lon="1.92795">
        <ele>334</ele>
        <time>2017-09-20T07:48:37Z</time>
      </trkpt>
      <trkpt lat="44.57885" lon="1.92754">
        <ele>335</ele>
        <time>2017-09-20T07:48:59Z</time>
      </trkpt>
      <trkpt lat="44.57883" lon="1.92746">
        <ele>336</ele>
        <time>2017-09-20T07:49:05Z</time>
      </trkpt>
      <trkpt lat="44.5788" lon="1.92725">
        <ele>336</ele>
        <time>2017-09-20T07:49:17Z</time>
      </trkpt>
      <trkpt lat="44.57878" lon="1.92719">
        <ele>336</ele>
        <time>2017-09-20T07:49:21Z</time>
      </trkpt>
      <trkpt lat="44.57874" lon="1.92708">
        <ele>337</ele>
        <time>2017-09-20T07:49:30Z</time>
      </trkpt>
      <trkpt lat="44.57872" lon="1.92703">
        <ele>337</ele>
        <time>2017-09-20T07:49:33Z</time>
      </trkpt>
      <trkpt lat="44.57871" lon="1.92698">
        <ele>337</ele>
        <time>2017-09-20T07:49:37Z</time>
      </trkpt>
      <trkpt lat="44.57864" lon="1.92671">
        <ele>337</ele>
        <time>2017-09-20T07:49:53Z</time>
      </trkpt>
      <trkpt lat="44.57862" lon="1.92667">
        <ele>337</ele>
        <time>2017-09-20T07:49:57Z</time>
      </trkpt>
      <trkpt lat="44.57862" lon="1.92656">
        <ele>337</ele>
        <time>2017-09-20T07:50:09Z</time>
      </trkpt>
      <trkpt lat="44.57863" lon="1.92649">
        <ele>337</ele>
        <time>2017-09-20T07:50:18Z</time>
      </trkpt>
      <trkpt lat="44.57865" lon="1.92643">
        <ele>336</ele>
        <time>2017-09-20T07:50:22Z</time>
      </trkpt>
      <trkpt lat="44.57865" lon="1.92638">
        <ele>336</ele>
        <time>2017-09-20T07:50:27Z</time>
      </trkpt>
      <trkpt lat="44.57867" lon="1.92617">
        <ele>336</ele>
        <time>2017-09-20T07:50:41Z</time>
      </trkpt>
      <trkpt lat="44.57867" lon="1.92613">
        <ele>336</ele>
        <time>2017-09-20T07:50:44Z</time>
      </trkpt>
      <trkpt lat="44.57866" lon="1.92608">
        <ele>336</ele>
        <time>2017-09-20T07:50:47Z</time>
      </trkpt>
      <trkpt lat="44.57865" lon="1.92604">
        <ele>336</ele>
        <time>2017-09-20T07:50:51Z</time>
      </trkpt>
      <trkpt lat="44.57865" lon="1.92599">
        <ele>336</ele>
        <time>2017-09-20T07:50:56Z</time>
      </trkpt>
      <trkpt lat="44.57862" lon="1.92588">
        <ele>335</ele>
        <time>2017-09-20T07:51:08Z</time>
      </trkpt>
      <trkpt lat="44.5786" lon="1.92583">
        <ele>335</ele>
        <time>2017-09-20T07:51:14Z</time>
      </trkpt>
      <trkpt lat="44.57859" lon="1.92578">
        <ele>333</ele>
        <time>2017-09-20T07:51:20Z</time>
      </trkpt>
      <trkpt lat="44.57857" lon="1.92575">
        <ele>333</ele>
        <time>2017-09-20T07:51:27Z</time>
      </trkpt>
      <trkpt lat="44.57856" lon="1.9257">
        <ele>333</ele>
        <time>2017-09-20T07:51:31Z</time>
      </trkpt>
      <trkpt lat="44.57853" lon="1.92553">
        <ele>333</ele>
        <time>2017-09-20T07:51:46Z</time>
      </trkpt>
      <trkpt lat="44.57852" lon="1.92549">
        <ele>333</ele>
        <time>2017-09-20T07:51:49Z</time>
      </trkpt>
      <trkpt lat="44.57852" lon="1.92544">
        <ele>332</ele>
        <time>2017-09-20T07:51:52Z</time>
      </trkpt>
      <trkpt lat="44.5785" lon="1.92538">
        <ele>332</ele>
        <time>2017-09-20T07:51:55Z</time>
      </trkpt>
      <trkpt lat="44.57842" lon="1.92517">
        <ele>331</ele>
        <time>2017-09-20T07:52:09Z</time>
      </trkpt>
      <trkpt lat="44.5784" lon="1.92513">
        <ele>331</ele>
        <time>2017-09-20T07:52:12Z</time>
      </trkpt>
      <trkpt lat="44.57827" lon="1.92487">
        <ele>327</ele>
        <time>2017-09-20T07:52:33Z</time>
      </trkpt>
      <trkpt lat="44.57824" lon="1.92479">
        <ele>327</ele>
        <time>2017-09-20T07:52:41Z</time>
      </trkpt>
      <trkpt lat="44.57821" lon="1.92475">
        <ele>326</ele>
        <time>2017-09-20T07:52:47Z</time>
      </trkpt>
      <trkpt lat="44.57819" lon="1.9247">
        <ele>326</ele>
        <time>2017-09-20T07:52:52Z</time>
      </trkpt>
      <trkpt lat="44.57815" lon="1.92459">
        <ele>325</ele>
        <time>2017-09-20T07:53:01Z</time>
      </trkpt>
      <trkpt lat="44.57814" lon="1.92455">
        <ele>325</ele>
        <time>2017-09-20T07:53:05Z</time>
      </trkpt>
      <trkpt lat="44.57813" lon="1.92452">
        <ele>325</ele>
        <time>2017-09-20T07:53:07Z</time>
      </trkpt>
      <trkpt lat="44.57812" lon="1.92448">
        <ele>325</ele>
        <time>2017-09-20T07:53:10Z</time>
      </trkpt>
      <trkpt lat="44.57808" lon="1.92434">
        <ele>324</ele>
        <time>2017-09-20T07:53:22Z</time>
      </trkpt>
      <trkpt lat="44.57806" lon="1.92431">
        <ele>324</ele>
        <time>2017-09-20T07:53:25Z</time>
      </trkpt>
      <trkpt lat="44.57803" lon="1.92425">
        <ele>324</ele>
        <time>2017-09-20T07:53:31Z</time>
      </trkpt>
      <trkpt lat="44.57801" lon="1.92422">
        <ele>324</ele>
        <time>2017-09-20T07:53:34Z</time>
      </trkpt>
      <trkpt lat="44.57794" lon="1.92415">
        <ele>321</ele>
        <time>2017-09-20T07:53:44Z</time>
      </trkpt>
      <trkpt lat="44.5779" lon="1.92407">
        <ele>321</ele>
        <time>2017-09-20T07:53:51Z</time>
      </trkpt>
      <trkpt lat="44.57783" lon="1.9239">
        <ele>320</ele>
        <time>2017-09-20T07:54:07Z</time>
      </trkpt>
      <trkpt lat="44.57783" lon="1.92386">
        <ele>320</ele>
        <time>2017-09-20T07:54:10Z</time>
      </trkpt>
      <trkpt lat="44.5778" lon="1.92369">
        <ele>319</ele>
        <time>2017-09-20T07:54:25Z</time>
      </trkpt>
      <trkpt lat="44.57779" lon="1.92364">
        <ele>319</ele>
        <time>2017-09-20T07:54:28Z</time>
      </trkpt>
      <trkpt lat="44.57778" lon="1.92361">
        <ele>319</ele>
        <time>2017-09-20T07:54:31Z</time>
      </trkpt>
      <trkpt lat="44.57776" lon="1.92352">
        <ele>319</ele>
        <time>2017-09-20T07:54:41Z</time>
      </trkpt>
      <trkpt lat="44.57775" lon="1.92335">
        <ele>318</ele>
        <time>2017-09-20T07:55:00Z</time>
      </trkpt>
      <trkpt lat="44.57776" lon="1.92329">
        <ele>315</ele>
        <time>2017-09-20T07:55:06Z</time>
      </trkpt>
      <trkpt lat="44.57776" lon="1.92311">
        <ele>314</ele>
        <time>2017-09-20T07:55:19Z</time>
      </trkpt>
      <trkpt lat="44.57777" lon="1.92303">
        <ele>314</ele>
        <time>2017-09-20T07:55:25Z</time>
      </trkpt>
      <trkpt lat="44.57777" lon="1.92297">
        <ele>314</ele>
        <time>2017-09-20T07:55:31Z</time>
      </trkpt>
      <trkpt lat="44.57776" lon="1.92292">
        <ele>313</ele>
        <time>2017-09-20T07:55:39Z</time>
      </trkpt>
      <trkpt lat="44.57776" lon="1.92287">
        <ele>313</ele>
        <time>2017-09-20T07:55:46Z</time>
      </trkpt>
      <trkpt lat="44.57775" lon="1.92282">
        <ele>313</ele>
        <time>2017-09-20T07:55:52Z</time>
      </trkpt>
      <trkpt lat="44.57775" lon="1.92278">
        <ele>313</ele>
        <time>2017-09-20T07:55:55Z</time>
      </trkpt>
      <trkpt lat="44.57775" lon="1.92274">
        <ele>312</ele>
        <time>2017-09-20T07:55:58Z</time>
      </trkpt>
      <trkpt lat="44.57775" lon="1.9227">
        <ele>312</ele>
        <time>2017-09-20T07:56:01Z</time>
      </trkpt>
      <trkpt lat="44.57775" lon="1.92266">
        <ele>312</ele>
        <time>2017-09-20T07:56:05Z</time>
      </trkpt>
      <trkpt lat="44.57776" lon="1.92261">
        <ele>312</ele>
        <time>2017-09-20T07:56:09Z</time>
      </trkpt>
      <trkpt lat="44.57776" lon="1.92254">
        <ele>312</ele>
        <time>2017-09-20T07:56:16Z</time>
      </trkpt>
      <trkpt lat="44.57777" lon="1.92248">
        <ele>308</ele>
        <time>2017-09-20T07:56:22Z</time>
      </trkpt>
      <trkpt lat="44.57777" lon="1.92242">
        <ele>308</ele>
        <time>2017-09-20T07:56:28Z</time>
      </trkpt>
      <trkpt lat="44.5778" lon="1.92229">
        <ele>308</ele>
        <time>2017-09-20T07:56:40Z</time>
      </trkpt>
      <trkpt lat="44.57781" lon="1.92224">
        <ele>308</ele>
        <time>2017-09-20T07:56:43Z</time>
      </trkpt>
      <trkpt lat="44.57783" lon="1.92219">
        <ele>308</ele>
        <time>2017-09-20T07:56:48Z</time>
      </trkpt>
      <trkpt lat="44.57786" lon="1.92209">
        <ele>307</ele>
        <time>2017-09-20T07:56:54Z</time>
      </trkpt>
      <trkpt lat="44.57787" lon="1.92204">
        <ele>307</ele>
        <time>2017-09-20T07:56:57Z</time>
      </trkpt>
      <trkpt lat="44.5779" lon="1.92192">
        <ele>307</ele>
        <time>2017-09-20T07:57:06Z</time>
      </trkpt>
      <trkpt lat="44.57793" lon="1.92187">
        <ele>307</ele>
        <time>2017-09-20T07:57:15Z</time>
      </trkpt>
      <trkpt lat="44.57795" lon="1.92182">
        <ele>307</ele>
        <time>2017-09-20T07:57:19Z</time>
      </trkpt>
      <trkpt lat="44.57797" lon="1.92177">
        <ele>307</ele>
        <time>2017-09-20T07:57:22Z</time>
      </trkpt>
      <trkpt lat="44.57798" lon="1.92172">
        <ele>307</ele>
        <time>2017-09-20T07:57:26Z</time>
      </trkpt>
      <trkpt lat="44.57799" lon="1.92167">
        <ele>303</ele>
        <time>2017-09-20T07:57:30Z</time>
      </trkpt>
      <trkpt lat="44.57805" lon="1.92146">
        <ele>303</ele>
        <time>2017-09-20T07:57:44Z</time>
      </trkpt>
      <trkpt lat="44.57811" lon="1.92118">
        <ele>302</ele>
        <time>2017-09-20T07:58:00Z</time>
      </trkpt>
      <trkpt lat="44.57819" lon="1.92098">
        <ele>302</ele>
        <time>2017-09-20T07:58:15Z</time>
      </trkpt>
      <trkpt lat="44.57824" lon="1.92087">
        <ele>301</ele>
        <time>2017-09-20T07:58:24Z</time>
      </trkpt>
      <trkpt lat="44.57826" lon="1.92081">
        <ele>300</ele>
        <time>2017-09-20T07:58:28Z</time>
      </trkpt>
      <trkpt lat="44.57829" lon="1.92076">
        <ele>300</ele>
        <time>2017-09-20T07:58:33Z</time>
      </trkpt>
      <trkpt lat="44.57831" lon="1.9207">
        <ele>299</ele>
        <time>2017-09-20T07:58:38Z</time>
      </trkpt>
      <trkpt lat="44.57836" lon="1.92056">
        <ele>298</ele>
        <time>2017-09-20T07:58:48Z</time>
      </trkpt>
      <trkpt lat="44.5784" lon="1.92052">
        <ele>298</ele>
        <time>2017-09-20T07:58:52Z</time>
      </trkpt>
      <trkpt lat="44.57841" lon="1.92046">
        <ele>297</ele>
        <time>2017-09-20T07:58:56Z</time>
      </trkpt>
      <trkpt lat="44.57843" lon="1.9204">
        <ele>297</ele>
        <time>2017-09-20T07:58:59Z</time>
      </trkpt>
      <trkpt lat="44.57845" lon="1.92034">
        <ele>296</ele>
        <time>2017-09-20T07:59:03Z</time>
      </trkpt>
      <trkpt lat="44.57846" lon="1.92028">
        <ele>296</ele>
        <time>2017-09-20T07:59:07Z</time>
      </trkpt>
      <trkpt lat="44.57851" lon="1.92019">
        <ele>296</ele>
        <time>2017-09-20T07:59:14Z</time>
      </trkpt>
      <trkpt lat="44.57856" lon="1.92008">
        <ele>295</ele>
        <time>2017-09-20T07:59:21Z</time>
      </trkpt>
      <trkpt lat="44.57857" lon="1.92003">
        <ele>295</ele>
        <time>2017-09-20T07:59:25Z</time>
      </trkpt>
      <trkpt lat="44.57858" lon="1.91998">
        <ele>291</ele>
        <time>2017-09-20T07:59:28Z</time>
      </trkpt>
      <trkpt lat="44.57863" lon="1.91974">
        <ele>290</ele>
        <time>2017-09-20T07:59:47Z</time>
      </trkpt>
      <trkpt lat="44.57864" lon="1.91968">
        <ele>290</ele>
        <time>2017-09-20T07:59:50Z</time>
      </trkpt>
      <trkpt lat="44.57864" lon="1.91962">
        <ele>290</ele>
        <time>2017-09-20T07:59:53Z</time>
      </trkpt>
      <trkpt lat="44.57865" lon="1.91957">
        <ele>290</ele>
        <time>2017-09-20T07:59:57Z</time>
      </trkpt>
      <trkpt lat="44.57865" lon="1.91952">
        <ele>290</ele>
        <time>2017-09-20T08:00:04Z</time>
      </trkpt>
      <trkpt lat="44.57864" lon="1.91945">
        <ele>289</ele>
        <time>2017-09-20T08:00:09Z</time>
      </trkpt>
      <trkpt lat="44.57864" lon="1.9194">
        <ele>289</ele>
        <time>2017-09-20T08:00:12Z</time>
      </trkpt>
      <trkpt lat="44.57862" lon="1.91919">
        <ele>289</ele>
        <time>2017-09-20T08:00:24Z</time>
      </trkpt>
      <trkpt lat="44.5786" lon="1.9191">
        <ele>285</ele>
        <time>2017-09-20T08:00:28Z</time>
      </trkpt>
      <trkpt lat="44.57859" lon="1.91904">
        <ele>285</ele>
        <time>2017-09-20T08:00:32Z</time>
      </trkpt>
      <trkpt lat="44.57858" lon="1.919">
        <ele>285</ele>
        <time>2017-09-20T08:00:35Z</time>
      </trkpt>
      <trkpt lat="44.57858" lon="1.91889">
        <ele>284</ele>
        <time>2017-09-20T08:00:41Z</time>
      </trkpt>
      <trkpt lat="44.57857" lon="1.91884">
        <ele>284</ele>
        <time>2017-09-20T08:00:45Z</time>
      </trkpt>
      <trkpt lat="44.57855" lon="1.91875">
        <ele>284</ele>
        <time>2017-09-20T08:00:49Z</time>
      </trkpt>
      <trkpt lat="44.57854" lon="1.91857">
        <ele>283</ele>
        <time>2017-09-20T08:01:02Z</time>
      </trkpt>
      <trkpt lat="44.57855" lon="1.9185">
        <ele>283</ele>
        <time>2017-09-20T08:01:07Z</time>
      </trkpt>
      <trkpt lat="44.5786" lon="1.91832">
        <ele>280</ele>
        <time>2017-09-20T08:01:17Z</time>
      </trkpt>
      <trkpt lat="44.57862" lon="1.91826">
        <ele>280</ele>
        <time>2017-09-20T08:01:21Z</time>
      </trkpt>
      <trkpt lat="44.57863" lon="1.91813">
        <ele>280</ele>
        <time>2017-09-20T08:01:30Z</time>
      </trkpt>
      <trkpt lat="44.57866" lon="1.91797">
        <ele>280</ele>
        <time>2017-09-20T08:01:40Z</time>
      </trkpt>
      <trkpt lat="44.57882" lon="1.91753">
        <ele>280</ele>
        <time>2017-09-20T08:02:13Z</time>
      </trkpt>
      <trkpt lat="44.57888" lon="1.9174">
        <ele>281</ele>
        <time>2017-09-20T08:02:21Z</time>
      </trkpt>
      <trkpt lat="44.5789" lon="1.91735">
        <ele>281</ele>
        <time>2017-09-20T08:02:25Z</time>
      </trkpt>
      <trkpt lat="44.57893" lon="1.91722">
        <ele>281</ele>
        <time>2017-09-20T08:02:33Z</time>
      </trkpt>
      <trkpt lat="44.57898" lon="1.91699">
        <ele>282</ele>
        <time>2017-09-20T08:02:46Z</time>
      </trkpt>
      <trkpt lat="44.57901" lon="1.91686">
        <ele>282</ele>
        <time>2017-09-20T08:02:56Z</time>
      </trkpt>
      <trkpt lat="44.57902" lon="1.9168">
        <ele>282</ele>
        <time>2017-09-20T08:03:00Z</time>
      </trkpt>
      <trkpt lat="44.57902" lon="1.91674">
        <ele>282</ele>
        <time>2017-09-20T08:03:05Z</time>
      </trkpt>
      <trkpt lat="44.57905" lon="1.91668">
        <ele>282</ele>
        <time>2017-09-20T08:03:10Z</time>
      </trkpt>
      <trkpt lat="44.57909" lon="1.91647">
        <ele>284</ele>
        <time>2017-09-20T08:03:25Z</time>
      </trkpt>
      <trkpt lat="44.57911" lon="1.91627">
        <ele>285</ele>
        <time>2017-09-20T08:03:44Z</time>
      </trkpt>
      <trkpt lat="44.57913" lon="1.9162">
        <ele>285</ele>
        <time>2017-09-20T08:03:48Z</time>
      </trkpt>
      <trkpt lat="44.57916" lon="1.91615">
        <ele>285</ele>
        <time>2017-09-20T08:03:52Z</time>
      </trkpt>
      <trkpt lat="44.57918" lon="1.91608">
        <ele>284</ele>
        <time>2017-09-20T08:03:57Z</time>
      </trkpt>
      <trkpt lat="44.57921" lon="1.91596">
        <ele>285</ele>
        <time>2017-09-20T08:04:03Z</time>
      </trkpt>
      <trkpt lat="44.57923" lon="1.9159">
        <ele>285</ele>
        <time>2017-09-20T08:04:08Z</time>
      </trkpt>
      <trkpt lat="44.57925" lon="1.91583">
        <ele>286</ele>
        <time>2017-09-20T08:04:13Z</time>
      </trkpt>
      <trkpt lat="44.57929" lon="1.91569">
        <ele>287</ele>
        <time>2017-09-20T08:04:25Z</time>
      </trkpt>
      <trkpt lat="44.57929" lon="1.91563">
        <ele>287</ele>
        <time>2017-09-20T08:04:29Z</time>
      </trkpt>
      <trkpt lat="44.57928" lon="1.91542">
        <ele>288</ele>
        <time>2017-09-20T08:04:40Z</time>
      </trkpt>
      <trkpt lat="44.57928" lon="1.91536">
        <ele>288</ele>
        <time>2017-09-20T08:04:43Z</time>
      </trkpt>
      <trkpt lat="44.57928" lon="1.91528">
        <ele>288</ele>
        <time>2017-09-20T08:04:48Z</time>
      </trkpt>
      <trkpt lat="44.57928" lon="1.91523">
        <ele>289</ele>
        <time>2017-09-20T08:04:51Z</time>
      </trkpt>
      <trkpt lat="44.57928" lon="1.91513">
        <ele>289</ele>
        <time>2017-09-20T08:04:57Z</time>
      </trkpt>
      <trkpt lat="44.57929" lon="1.91508">
        <ele>289</ele>
        <time>2017-09-20T08:05:01Z</time>
      </trkpt>
      <trkpt lat="44.57928" lon="1.91498">
        <ele>291</ele>
        <time>2017-09-20T08:05:06Z</time>
      </trkpt>
      <trkpt lat="44.5793" lon="1.91486">
        <ele>292</ele>
        <time>2017-09-20T08:05:14Z</time>
      </trkpt>
      <trkpt lat="44.57932" lon="1.91481">
        <ele>292</ele>
        <time>2017-09-20T08:05:18Z</time>
      </trkpt>
      <trkpt lat="44.57934" lon="1.91476">
        <ele>293</ele>
        <time>2017-09-20T08:05:22Z</time>
      </trkpt>
      <trkpt lat="44.57936" lon="1.9147">
        <ele>293</ele>
        <time>2017-09-20T08:05:28Z</time>
      </trkpt>
      <trkpt lat="44.57937" lon="1.91463">
        <ele>293</ele>
        <time>2017-09-20T08:05:33Z</time>
      </trkpt>
      <trkpt lat="44.57937" lon="1.91457">
        <ele>294</ele>
        <time>2017-09-20T08:05:37Z</time>
      </trkpt>
      <trkpt lat="44.57941" lon="1.91444">
        <ele>294</ele>
        <time>2017-09-20T08:05:46Z</time>
      </trkpt>
      <trkpt lat="44.57945" lon="1.91433">
        <ele>295</ele>
        <time>2017-09-20T08:05:54Z</time>
      </trkpt>
      <trkpt lat="44.57948" lon="1.9142">
        <ele>295</ele>
        <time>2017-09-20T08:06:06Z</time>
      </trkpt>
      <trkpt lat="44.57958" lon="1.91399">
        <ele>299</ele>
        <time>2017-09-20T08:06:21Z</time>
      </trkpt>
      <trkpt lat="44.5797" lon="1.91364">
        <ele>300</ele>
        <time>2017-09-20T08:06:49Z</time>
      </trkpt>
      <trkpt lat="44.57972" lon="1.91358">
        <ele>300</ele>
        <time>2017-09-20T08:06:53Z</time>
      </trkpt>
      <trkpt lat="44.5798" lon="1.91345">
        <ele>300</ele>
        <time>2017-09-20T08:07:06Z</time>
      </trkpt>
      <trkpt lat="44.57983" lon="1.91339">
        <ele>300</ele>
        <time>2017-09-20T08:07:11Z</time>
      </trkpt>
      <trkpt lat="44.57986" lon="1.91333">
        <ele>300</ele>
        <time>2017-09-20T08:07:17Z</time>
      </trkpt>
      <trkpt lat="44.57989" lon="1.91328">
        <ele>302</ele>
        <time>2017-09-20T08:07:23Z</time>
      </trkpt>
      <trkpt lat="44.57992" lon="1.91323">
        <ele>302</ele>
        <time>2017-09-20T08:07:27Z</time>
      </trkpt>
      <trkpt lat="44.57996" lon="1.91311">
        <ele>302</ele>
        <time>2017-09-20T08:07:39Z</time>
      </trkpt>
      <trkpt lat="44.58008" lon="1.91274">
        <ele>304</ele>
        <time>2017-09-20T08:08:05Z</time>
      </trkpt>
      <trkpt lat="44.5801" lon="1.91261">
        <ele>304</ele>
        <time>2017-09-20T08:08:13Z</time>
      </trkpt>
      <trkpt lat="44.58014" lon="1.91252">
        <ele>304</ele>
        <time>2017-09-20T08:08:21Z</time>
      </trkpt>
      <trkpt lat="44.58016" lon="1.91245">
        <ele>306</ele>
        <time>2017-09-20T08:08:25Z</time>
      </trkpt>
      <trkpt lat="44.58018" lon="1.9124">
        <ele>306</ele>
        <time>2017-09-20T08:08:29Z</time>
      </trkpt>
      <trkpt lat="44.58021" lon="1.91234">
        <ele>306</ele>
        <time>2017-09-20T08:08:34Z</time>
      </trkpt>
      <trkpt lat="44.58025" lon="1.91202">
        <ele>307</ele>
        <time>2017-09-20T08:08:53Z</time>
      </trkpt>
      <trkpt lat="44.58025" lon="1.91185">
        <ele>308</ele>
        <time>2017-09-20T08:09:03Z</time>
      </trkpt>
      <trkpt lat="44.58026" lon="1.9118">
        <ele>308</ele>
        <time>2017-09-20T08:09:07Z</time>
      </trkpt>
      <trkpt lat="44.58027" lon="1.91173">
        <ele>308</ele>
        <time>2017-09-20T08:09:11Z</time>
      </trkpt>
      <trkpt lat="44.58028" lon="1.91168">
        <ele>308</ele>
        <time>2017-09-20T08:09:15Z</time>
      </trkpt>
      <trkpt lat="44.58029" lon="1.91163">
        <ele>310</ele>
        <time>2017-09-20T08:09:18Z</time>
      </trkpt>
      <trkpt lat="44.5803" lon="1.91158">
        <ele>310</ele>
        <time>2017-09-20T08:09:20Z</time>
      </trkpt>
      <trkpt lat="44.58029" lon="1.91153">
        <ele>310</ele>
        <time>2017-09-20T08:09:23Z</time>
      </trkpt>
      <trkpt lat="44.58026" lon="1.91149">
        <ele>310</ele>
        <time>2017-09-20T08:09:30Z</time>
      </trkpt>
      <trkpt lat="44.58014" lon="1.91148">
        <ele>310</ele>
        <time>2017-09-20T08:09:45Z</time>
      </trkpt>
      <trkpt lat="44.58003" lon="1.9115">
        <ele>310</ele>
        <time>2017-09-20T08:09:56Z</time>
      </trkpt>
      <trkpt lat="44.57994" lon="1.91154">
        <ele>308</ele>
        <time>2017-09-20T08:10:04Z</time>
      </trkpt>
      <trkpt lat="44.5799" lon="1.91155">
        <ele>308</ele>
        <time>2017-09-20T08:10:07Z</time>
      </trkpt>
      <trkpt lat="44.57987" lon="1.91157">
        <ele>308</ele>
        <time>2017-09-20T08:10:10Z</time>
      </trkpt>
      <trkpt lat="44.57984" lon="1.91158">
        <ele>308</ele>
        <time>2017-09-20T08:10:13Z</time>
      </trkpt>
      <trkpt lat="44.5798" lon="1.91161">
        <ele>308</ele>
        <time>2017-09-20T08:10:16Z</time>
      </trkpt>
      <trkpt lat="44.57976" lon="1.91163">
        <ele>308</ele>
        <time>2017-09-20T08:10:19Z</time>
      </trkpt>
      <trkpt lat="44.57973" lon="1.91166">
        <ele>308</ele>
        <time>2017-09-20T08:10:23Z</time>
      </trkpt>
      <trkpt lat="44.57966" lon="1.91169">
        <ele>307</ele>
        <time>2017-09-20T08:10:28Z</time>
      </trkpt>
      <trkpt lat="44.57959" lon="1.91173">
        <ele>307</ele>
        <time>2017-09-20T08:10:35Z</time>
      </trkpt>
      <trkpt lat="44.57955" lon="1.91175">
        <ele>307</ele>
        <time>2017-09-20T08:10:39Z</time>
      </trkpt>
      <trkpt lat="44.57951" lon="1.91178">
        <ele>307</ele>
        <time>2017-09-20T08:10:42Z</time>
      </trkpt>
      <trkpt lat="44.57948" lon="1.9118">
        <ele>306</ele>
        <time>2017-09-20T08:10:46Z</time>
      </trkpt>
      <trkpt lat="44.57944" lon="1.91182">
        <ele>306</ele>
        <time>2017-09-20T08:10:48Z</time>
      </trkpt>
      <trkpt lat="44.57939" lon="1.91184">
        <ele>306</ele>
        <time>2017-09-20T08:10:52Z</time>
      </trkpt>
      <trkpt lat="44.5793" lon="1.91187">
        <ele>306</ele>
        <time>2017-09-20T08:11:00Z</time>
      </trkpt>
      <trkpt lat="44.5792" lon="1.91191">
        <ele>306</ele>
        <time>2017-09-20T08:11:08Z</time>
      </trkpt>
      <trkpt lat="44.57917" lon="1.91193">
        <ele>306</ele>
        <time>2017-09-20T08:11:11Z</time>
      </trkpt>
      <trkpt lat="44.57907" lon="1.91199">
        <ele>304</ele>
        <time>2017-09-20T08:11:21Z</time>
      </trkpt>
      <trkpt lat="44.57901" lon="1.91203">
        <ele>303</ele>
        <time>2017-09-20T08:11:26Z</time>
      </trkpt>
      <trkpt lat="44.57898" lon="1.91205">
        <ele>303</ele>
        <time>2017-09-20T08:11:29Z</time>
      </trkpt>
      <trkpt lat="44.57894" lon="1.91207">
        <ele>303</ele>
        <time>2017-09-20T08:11:33Z</time>
      </trkpt>
      <trkpt lat="44.5789" lon="1.91208">
        <ele>303</ele>
        <time>2017-09-20T08:11:36Z</time>
      </trkpt>
      <trkpt lat="44.57887" lon="1.9121">
        <ele>303</ele>
        <time>2017-09-20T08:11:39Z</time>
      </trkpt>
      <trkpt lat="44.57879" lon="1.91213">
        <ele>303</ele>
        <time>2017-09-20T08:11:45Z</time>
      </trkpt>
      <trkpt lat="44.57875" lon="1.91214">
        <ele>302</ele>
        <time>2017-09-20T08:11:48Z</time>
      </trkpt>
      <trkpt lat="44.57864" lon="1.91213">
        <ele>302</ele>
        <time>2017-09-20T08:11:57Z</time>
      </trkpt>
      <trkpt lat="44.5786" lon="1.9121">
        <ele>302</ele>
        <time>2017-09-20T08:12:01Z</time>
      </trkpt>
      <trkpt lat="44.57856" lon="1.91208">
        <ele>302</ele>
        <time>2017-09-20T08:12:05Z</time>
      </trkpt>
      <trkpt lat="44.57852" lon="1.91206">
        <ele>302</ele>
        <time>2017-09-20T08:12:09Z</time>
      </trkpt>
      <trkpt lat="44.57839" lon="1.91203">
        <ele>301</ele>
        <time>2017-09-20T08:12:18Z</time>
      </trkpt>
      <trkpt lat="44.57832" lon="1.91199">
        <ele>300</ele>
        <time>2017-09-20T08:12:24Z</time>
      </trkpt>
      <trkpt lat="44.57798" lon="1.91181">
        <ele>300</ele>
        <time>2017-09-20T08:12:52Z</time>
      </trkpt>
      <trkpt lat="44.57794" lon="1.91179">
        <ele>301</ele>
        <time>2017-09-20T08:12:56Z</time>
      </trkpt>
      <trkpt lat="44.5778" lon="1.91174">
        <ele>301</ele>
        <time>2017-09-20T08:13:12Z</time>
      </trkpt>
      <trkpt lat="44.57768" lon="1.91168">
        <ele>302</ele>
        <time>2017-09-20T08:13:22Z</time>
      </trkpt>
      <trkpt lat="44.57764" lon="1.91164">
        <ele>302</ele>
        <time>2017-09-20T08:13:25Z</time>
      </trkpt>
      <trkpt lat="44.5776" lon="1.91161">
        <ele>302</ele>
        <time>2017-09-20T08:13:32Z</time>
      </trkpt>
      <trkpt lat="44.57758" lon="1.91156">
        <ele>302</ele>
        <time>2017-09-20T08:13:49Z</time>
      </trkpt>
      <trkpt lat="44.57755" lon="1.91151">
        <ele>302</ele>
        <time>2017-09-20T08:13:52Z</time>
      </trkpt>
      <trkpt lat="44.57753" lon="1.91144">
        <ele>302</ele>
        <time>2017-09-20T08:13:55Z</time>
      </trkpt>
      <trkpt lat="44.57739" lon="1.91121">
        <ele>304</ele>
        <time>2017-09-20T08:14:07Z</time>
      </trkpt>
      <trkpt lat="44.57733" lon="1.91118">
        <ele>304</ele>
        <time>2017-09-20T08:14:11Z</time>
      </trkpt>
      <trkpt lat="44.5773" lon="1.91114">
        <ele>304</ele>
        <time>2017-09-20T08:14:14Z</time>
      </trkpt>
      <trkpt lat="44.57726" lon="1.91111">
        <ele>304</ele>
        <time>2017-09-20T08:14:17Z</time>
      </trkpt>
      <trkpt lat="44.57701" lon="1.91088">
        <ele>305</ele>
        <time>2017-09-20T08:14:37Z</time>
      </trkpt>
      <trkpt lat="44.57697" lon="1.91084">
        <ele>306</ele>
        <time>2017-09-20T08:14:40Z</time>
      </trkpt>
      <trkpt lat="44.57688" lon="1.91073">
        <ele>309</ele>
        <time>2017-09-20T08:14:48Z</time>
      </trkpt>
      <trkpt lat="44.57686" lon="1.91069">
        <ele>309</ele>
        <time>2017-09-20T08:14:51Z</time>
      </trkpt>
      <trkpt lat="44.57683" lon="1.91067">
        <ele>309</ele>
        <time>2017-09-20T08:14:54Z</time>
      </trkpt>
      <trkpt lat="44.57679" lon="1.91065">
        <ele>309</ele>
        <time>2017-09-20T08:14:58Z</time>
      </trkpt>
      <trkpt lat="44.57676" lon="1.91062">
        <ele>309</ele>
        <time>2017-09-20T08:15:01Z</time>
      </trkpt>
      <trkpt lat="44.57673" lon="1.91059">
        <ele>309</ele>
        <time>2017-09-20T08:15:04Z</time>
      </trkpt>
      <trkpt lat="44.57671" lon="1.91056">
        <ele>309</ele>
        <time>2017-09-20T08:15:07Z</time>
      </trkpt>
      <trkpt lat="44.57666" lon="1.91049">
        <ele>314</ele>
        <time>2017-09-20T08:15:13Z</time>
      </trkpt>
      <trkpt lat="44.57662" lon="1.91046">
        <ele>314</ele>
        <time>2017-09-20T08:15:16Z</time>
      </trkpt>
      <trkpt lat="44.57648" lon="1.91027">
        <ele>316</ele>
        <time>2017-09-20T08:15:33Z</time>
      </trkpt>
      <trkpt lat="44.57644" lon="1.91023">
        <ele>316</ele>
        <time>2017-09-20T08:15:37Z</time>
      </trkpt>
      <trkpt lat="44.5764" lon="1.9102">
        <ele>316</ele>
        <time>2017-09-20T08:15:40Z</time>
      </trkpt>
      <trkpt lat="44.57634" lon="1.91015">
        <ele>316</ele>
        <time>2017-09-20T08:15:47Z</time>
      </trkpt>
      <trkpt lat="44.57622" lon="1.91008">
        <ele>317</ele>
        <time>2017-09-20T08:15:59Z</time>
      </trkpt>
      <trkpt lat="44.57613" lon="1.91001">
        <ele>318</ele>
        <time>2017-09-20T08:16:08Z</time>
      </trkpt>
      <trkpt lat="44.57603" lon="1.90992">
        <ele>323</ele>
        <time>2017-09-20T08:16:20Z</time>
      </trkpt>
      <trkpt lat="44.57598" lon="1.90989">
        <ele>323</ele>
        <time>2017-09-20T08:16:24Z</time>
      </trkpt>
      <trkpt lat="44.57584" lon="1.90983">
        <ele>323</ele>
        <time>2017-09-20T08:16:35Z</time>
      </trkpt>
      <trkpt lat="44.57578" lon="1.90981">
        <ele>326</ele>
        <time>2017-09-20T08:16:41Z</time>
      </trkpt>
      <trkpt lat="44.57545" lon="1.90972">
        <ele>328</ele>
        <time>2017-09-20T08:17:10Z</time>
      </trkpt>
      <trkpt lat="44.57527" lon="1.90978">
        <ele>328</ele>
        <time>2017-09-20T08:17:26Z</time>
      </trkpt>
      <trkpt lat="44.57522" lon="1.90979">
        <ele>328</ele>
        <time>2017-09-20T08:17:30Z</time>
      </trkpt>
      <trkpt lat="44.57517" lon="1.90981">
        <ele>328</ele>
        <time>2017-09-20T08:17:35Z</time>
      </trkpt>
      <trkpt lat="44.57503" lon="1.90985">
        <ele>328</ele>
        <time>2017-09-20T08:17:47Z</time>
      </trkpt>
      <trkpt lat="44.57483" lon="1.91">
        <ele>328</ele>
        <time>2017-09-20T08:18:06Z</time>
      </trkpt>
      <trkpt lat="44.57478" lon="1.91001">
        <ele>328</ele>
        <time>2017-09-20T08:18:10Z</time>
      </trkpt>
      <trkpt lat="44.57473" lon="1.91005">
        <ele>328</ele>
        <time>2017-09-20T08:18:15Z</time>
      </trkpt>
      <trkpt lat="44.57469" lon="1.91008">
        <ele>328</ele>
        <time>2017-09-20T08:18:19Z</time>
      </trkpt>
      <trkpt lat="44.5746" lon="1.91018">
        <ele>328</ele>
        <time>2017-09-20T08:18:31Z</time>
      </trkpt>
      <trkpt lat="44.57458" lon="1.91016">
        <ele>328</ele>
        <time>2017-09-20T08:20:29Z</time>
      </trkpt>
      <trkpt lat="44.57471" lon="1.90993">
        <ele>328</ele>
        <time>2017-09-20T08:20:52Z</time>
      </trkpt>
      <trkpt lat="44.57474" lon="1.90986">
        <ele>328</ele>
        <time>2017-09-20T08:21:00Z</time>
      </trkpt>
      <trkpt lat="44.57479" lon="1.90981">
        <ele>328</ele>
        <time>2017-09-20T08:21:04Z</time>
      </trkpt>
      <trkpt lat="44.57492" lon="1.90955">
        <ele>329</ele>
        <time>2017-09-20T08:21:21Z</time>
      </trkpt>
      <trkpt lat="44.57497" lon="1.90946">
        <ele>329</ele>
        <time>2017-09-20T08:21:29Z</time>
      </trkpt>
      <trkpt lat="44.57501" lon="1.9094">
        <ele>330</ele>
        <time>2017-09-20T08:21:35Z</time>
      </trkpt>
      <trkpt lat="44.57501" lon="1.90935">
        <ele>330</ele>
        <time>2017-09-20T08:21:37Z</time>
      </trkpt>
      <trkpt lat="44.57505" lon="1.90923">
        <ele>330</ele>
        <time>2017-09-20T08:21:44Z</time>
      </trkpt>
      <trkpt lat="44.57508" lon="1.90915">
        <ele>332</ele>
        <time>2017-09-20T08:21:50Z</time>
      </trkpt>
      <trkpt lat="44.57523" lon="1.90879">
        <ele>334</ele>
        <time>2017-09-20T08:22:18Z</time>
      </trkpt>
      <trkpt lat="44.57526" lon="1.90872">
        <ele>334</ele>
        <time>2017-09-20T08:22:25Z</time>
      </trkpt>
      <trkpt lat="44.57529" lon="1.90865">
        <ele>334</ele>
        <time>2017-09-20T08:22:30Z</time>
      </trkpt>
      <trkpt lat="44.57531" lon="1.90859">
        <ele>334</ele>
        <time>2017-09-20T08:22:36Z</time>
      </trkpt>
      <trkpt lat="44.5754" lon="1.90825">
        <ele>338</ele>
        <time>2017-09-20T08:22:58Z</time>
      </trkpt>
      <trkpt lat="44.57542" lon="1.9082">
        <ele>338</ele>
        <time>2017-09-20T08:23:02Z</time>
      </trkpt>
      <trkpt lat="44.57544" lon="1.90815">
        <ele>338</ele>
        <time>2017-09-20T08:23:06Z</time>
      </trkpt>
      <trkpt lat="44.57547" lon="1.90804">
        <ele>339</ele>
        <time>2017-09-20T08:23:15Z</time>
      </trkpt>
      <trkpt lat="44.57549" lon="1.90798">
        <ele>339</ele>
        <time>2017-09-20T08:23:19Z</time>
      </trkpt>
      <trkpt lat="44.57553" lon="1.90785">
        <ele>340</ele>
        <time>2017-09-20T08:23:31Z</time>
      </trkpt>
      <trkpt lat="44.57554" lon="1.9078">
        <ele>340</ele>
        <time>2017-09-20T08:23:35Z</time>
      </trkpt>
      <trkpt lat="44.57565" lon="1.90742">
        <ele>345</ele>
        <time>2017-09-20T08:24:01Z</time>
      </trkpt>
      <trkpt lat="44.57565" lon="1.90736">
        <ele>345</ele>
        <time>2017-09-20T08:24:05Z</time>
      </trkpt>
      <trkpt lat="44.57568" lon="1.9073">
        <ele>345</ele>
        <time>2017-09-20T08:24:09Z</time>
      </trkpt>
      <trkpt lat="44.5757" lon="1.90723">
        <ele>346</ele>
        <time>2017-09-20T08:24:14Z</time>
      </trkpt>
      <trkpt lat="44.5757" lon="1.90717">
        <ele>346</ele>
        <time>2017-09-20T08:24:18Z</time>
      </trkpt>
      <trkpt lat="44.5757" lon="1.90711">
        <ele>346</ele>
        <time>2017-09-20T08:24:21Z</time>
      </trkpt>
      <trkpt lat="44.57571" lon="1.90704">
        <ele>346</ele>
        <time>2017-09-20T08:24:25Z</time>
      </trkpt>
      <trkpt lat="44.57571" lon="1.90699">
        <ele>347</ele>
        <time>2017-09-20T08:24:29Z</time>
      </trkpt>
      <trkpt lat="44.57572" lon="1.90686">
        <ele>348</ele>
        <time>2017-09-20T08:24:39Z</time>
      </trkpt>
      <trkpt lat="44.57573" lon="1.90679">
        <ele>349</ele>
        <time>2017-09-20T08:24:43Z</time>
      </trkpt>
      <trkpt lat="44.57577" lon="1.90674">
        <ele>350</ele>
        <time>2017-09-20T08:24:47Z</time>
      </trkpt>
      <trkpt lat="44.57578" lon="1.90666">
        <ele>351</ele>
        <time>2017-09-20T08:24:53Z</time>
      </trkpt>
      <trkpt lat="44.5758" lon="1.90658">
        <ele>351</ele>
        <time>2017-09-20T08:25:00Z</time>
      </trkpt>
      <trkpt lat="44.57586" lon="1.90644">
        <ele>353</ele>
        <time>2017-09-20T08:25:10Z</time>
      </trkpt>
      <trkpt lat="44.57591" lon="1.90627">
        <ele>353</ele>
        <time>2017-09-20T08:25:21Z</time>
      </trkpt>
      <trkpt lat="44.57593" lon="1.90621">
        <ele>353</ele>
        <time>2017-09-20T08:25:25Z</time>
      </trkpt>
      <trkpt lat="44.57593" lon="1.90612">
        <ele>354</ele>
        <time>2017-09-20T08:25:30Z</time>
      </trkpt>
      <trkpt lat="44.57595" lon="1.90605">
        <ele>354</ele>
        <time>2017-09-20T08:25:34Z</time>
      </trkpt>
      <trkpt lat="44.57595" lon="1.90599">
        <ele>354</ele>
        <time>2017-09-20T08:25:39Z</time>
      </trkpt>
      <trkpt lat="44.57597" lon="1.90591">
        <ele>354</ele>
        <time>2017-09-20T08:25:44Z</time>
      </trkpt>
      <trkpt lat="44.57599" lon="1.90584">
        <ele>354</ele>
        <time>2017-09-20T08:25:49Z</time>
      </trkpt>
      <trkpt lat="44.57601" lon="1.9057">
        <ele>356</ele>
        <time>2017-09-20T08:25:57Z</time>
      </trkpt>
      <trkpt lat="44.57603" lon="1.90563">
        <ele>356</ele>
        <time>2017-09-20T08:26:01Z</time>
      </trkpt>
      <trkpt lat="44.57605" lon="1.90557">
        <ele>356</ele>
        <time>2017-09-20T08:26:06Z</time>
      </trkpt>
      <trkpt lat="44.57613" lon="1.90533">
        <ele>356</ele>
        <time>2017-09-20T08:26:22Z</time>
      </trkpt>
      <trkpt lat="44.57617" lon="1.90522">
        <ele>356</ele>
        <time>2017-09-20T08:26:30Z</time>
      </trkpt>
      <trkpt lat="44.57622" lon="1.9051">
        <ele>356</ele>
        <time>2017-09-20T08:26:38Z</time>
      </trkpt>
      <trkpt lat="44.57624" lon="1.90504">
        <ele>356</ele>
        <time>2017-09-20T08:26:41Z</time>
      </trkpt>
      <trkpt lat="44.57626" lon="1.90498">
        <ele>357</ele>
        <time>2017-09-20T08:26:45Z</time>
      </trkpt>
      <trkpt lat="44.57628" lon="1.90493">
        <ele>357</ele>
        <time>2017-09-20T08:26:48Z</time>
      </trkpt>
      <trkpt lat="44.5763" lon="1.90487">
        <ele>357</ele>
        <time>2017-09-20T08:26:52Z</time>
      </trkpt>
      <trkpt lat="44.57634" lon="1.9048">
        <ele>357</ele>
        <time>2017-09-20T08:26:57Z</time>
      </trkpt>
      <trkpt lat="44.57641" lon="1.90463">
        <ele>357</ele>
        <time>2017-09-20T08:27:11Z</time>
      </trkpt>
      <trkpt lat="44.57645" lon="1.90451">
        <ele>358</ele>
        <time>2017-09-20T08:27:19Z</time>
      </trkpt>
      <trkpt lat="44.57646" lon="1.90444">
        <ele>358</ele>
        <time>2017-09-20T08:27:24Z</time>
      </trkpt>
      <trkpt lat="44.57648" lon="1.9043">
        <ele>358</ele>
        <time>2017-09-20T08:27:35Z</time>
      </trkpt>
      <trkpt lat="44.5765" lon="1.90424">
        <ele>358</ele>
        <time>2017-09-20T08:27:39Z</time>
      </trkpt>
      <trkpt lat="44.5765" lon="1.90415">
        <ele>360</ele>
        <time>2017-09-20T08:27:45Z</time>
      </trkpt>
      <trkpt lat="44.57647" lon="1.90375">
        <ele>362</ele>
        <time>2017-09-20T08:28:10Z</time>
      </trkpt>
      <trkpt lat="44.57646" lon="1.90367">
        <ele>362</ele>
        <time>2017-09-20T08:28:15Z</time>
      </trkpt>
      <trkpt lat="44.57645" lon="1.9036">
        <ele>362</ele>
        <time>2017-09-20T08:28:19Z</time>
      </trkpt>
      <trkpt lat="44.57645" lon="1.90354">
        <ele>363</ele>
        <time>2017-09-20T08:28:23Z</time>
      </trkpt>
      <trkpt lat="44.5764" lon="1.90328">
        <ele>368</ele>
        <time>2017-09-20T08:28:38Z</time>
      </trkpt>
      <trkpt lat="44.57637" lon="1.90317">
        <ele>368</ele>
        <time>2017-09-20T08:28:45Z</time>
      </trkpt>
      <trkpt lat="44.57636" lon="1.90305">
        <ele>369</ele>
        <time>2017-09-20T08:28:54Z</time>
      </trkpt>
      <trkpt lat="44.57634" lon="1.90291">
        <ele>370</ele>
        <time>2017-09-20T08:29:03Z</time>
      </trkpt>
      <trkpt lat="44.57632" lon="1.90274">
        <ele>371</ele>
        <time>2017-09-20T08:29:13Z</time>
      </trkpt>
      <trkpt lat="44.57625" lon="1.90246">
        <ele>377</ele>
        <time>2017-09-20T08:29:30Z</time>
      </trkpt>
      <trkpt lat="44.57623" lon="1.90219">
        <ele>378</ele>
        <time>2017-09-20T08:29:48Z</time>
      </trkpt>
      <trkpt lat="44.57624" lon="1.90209">
        <ele>378</ele>
        <time>2017-09-20T08:29:54Z</time>
      </trkpt>
      <trkpt lat="44.57624" lon="1.90204">
        <ele>379</ele>
        <time>2017-09-20T08:29:58Z</time>
      </trkpt>
      <trkpt lat="44.57627" lon="1.9018">
        <ele>380</ele>
        <time>2017-09-20T08:30:14Z</time>
      </trkpt>
      <trkpt lat="44.57629" lon="1.90169">
        <ele>380</ele>
        <time>2017-09-20T08:30:22Z</time>
      </trkpt>
      <trkpt lat="44.5763" lon="1.90162">
        <ele>384</ele>
        <time>2017-09-20T08:30:29Z</time>
      </trkpt>
      <trkpt lat="44.57633" lon="1.90148">
        <ele>385</ele>
        <time>2017-09-20T08:30:41Z</time>
      </trkpt>
      <trkpt lat="44.57634" lon="1.90139">
        <ele>385</ele>
        <time>2017-09-20T08:30:46Z</time>
      </trkpt>
      <trkpt lat="44.57638" lon="1.90116">
        <ele>385</ele>
        <time>2017-09-20T08:31:02Z</time>
      </trkpt>
      <trkpt lat="44.57637" lon="1.90102">
        <ele>386</ele>
        <time>2017-09-20T08:31:12Z</time>
      </trkpt>
      <trkpt lat="44.57639" lon="1.90095">
        <ele>386</ele>
        <time>2017-09-20T08:31:17Z</time>
      </trkpt>
      <trkpt lat="44.57641" lon="1.90072">
        <ele>387</ele>
        <time>2017-09-20T08:31:30Z</time>
      </trkpt>
      <trkpt lat="44.57642" lon="1.90065">
        <ele>387</ele>
        <time>2017-09-20T08:31:34Z</time>
      </trkpt>
      <trkpt lat="44.57642" lon="1.90057">
        <ele>387</ele>
        <time>2017-09-20T08:31:40Z</time>
      </trkpt>
      <trkpt lat="44.57645" lon="1.90044">
        <ele>387</ele>
        <time>2017-09-20T08:31:49Z</time>
      </trkpt>
      <trkpt lat="44.57646" lon="1.90036">
        <ele>386</ele>
        <time>2017-09-20T08:31:54Z</time>
      </trkpt>
      <trkpt lat="44.57647" lon="1.90028">
        <ele>386</ele>
        <time>2017-09-20T08:31:58Z</time>
      </trkpt>
      <trkpt lat="44.57647" lon="1.90021">
        <ele>386</ele>
        <time>2017-09-20T08:32:03Z</time>
      </trkpt>
      <trkpt lat="44.57648" lon="1.90004">
        <ele>386</ele>
        <time>2017-09-20T08:32:14Z</time>
      </trkpt>
      <trkpt lat="44.57647" lon="1.89995">
        <ele>384</ele>
        <time>2017-09-20T08:32:20Z</time>
      </trkpt>
      <trkpt lat="44.57646" lon="1.89988">
        <ele>384</ele>
        <time>2017-09-20T08:32:25Z</time>
      </trkpt>
      <trkpt lat="44.57646" lon="1.89964">
        <ele>383</ele>
        <time>2017-09-20T08:32:44Z</time>
      </trkpt>
      <trkpt lat="44.57646" lon="1.89956">
        <ele>382</ele>
        <time>2017-09-20T08:32:49Z</time>
      </trkpt>
      <trkpt lat="44.57646" lon="1.89949">
        <ele>382</ele>
        <time>2017-09-20T08:32:55Z</time>
      </trkpt>
      <trkpt lat="44.57647" lon="1.89941">
        <ele>382</ele>
        <time>2017-09-20T08:33:00Z</time>
      </trkpt>
      <trkpt lat="44.57645" lon="1.89927">
        <ele>381</ele>
        <time>2017-09-20T08:33:15Z</time>
      </trkpt>
      <trkpt lat="44.57641" lon="1.89889">
        <ele>377</ele>
        <time>2017-09-20T08:33:49Z</time>
      </trkpt>
      <trkpt lat="44.57642" lon="1.89881">
        <ele>376</ele>
        <time>2017-09-20T08:33:54Z</time>
      </trkpt>
      <trkpt lat="44.5764" lon="1.89865">
        <ele>376</ele>
        <time>2017-09-20T08:34:05Z</time>
      </trkpt>
      <trkpt lat="44.57639" lon="1.89854">
        <ele>375</ele>
        <time>2017-09-20T08:34:12Z</time>
      </trkpt>
      <trkpt lat="44.57639" lon="1.89844">
        <ele>375</ele>
        <time>2017-09-20T08:34:18Z</time>
      </trkpt>
      <trkpt lat="44.57639" lon="1.89835">
        <ele>375</ele>
        <time>2017-09-20T08:34:24Z</time>
      </trkpt>
      <trkpt lat="44.57637" lon="1.89816">
        <ele>371</ele>
        <time>2017-09-20T08:34:37Z</time>
      </trkpt>
      <trkpt lat="44.57638" lon="1.89808">
        <ele>371</ele>
        <time>2017-09-20T08:34:42Z</time>
      </trkpt>
      <trkpt lat="44.57638" lon="1.898">
        <ele>371</ele>
        <time>2017-09-20T08:34:47Z</time>
      </trkpt>
      <trkpt lat="44.5764" lon="1.89792">
        <ele>371</ele>
        <time>2017-09-20T08:34:52Z</time>
      </trkpt>
      <trkpt lat="44.57642" lon="1.89758">
        <ele>370</ele>
        <time>2017-09-20T08:35:12Z</time>
      </trkpt>
      <trkpt lat="44.57644" lon="1.89752">
        <ele>370</ele>
        <time>2017-09-20T08:35:16Z</time>
      </trkpt>
      <trkpt lat="44.57642" lon="1.89745">
        <ele>369</ele>
        <time>2017-09-20T08:35:20Z</time>
      </trkpt>
      <trkpt lat="44.57644" lon="1.89737">
        <ele>369</ele>
        <time>2017-09-20T08:35:26Z</time>
      </trkpt>
      <trkpt lat="44.57643" lon="1.89728">
        <ele>369</ele>
        <time>2017-09-20T08:35:31Z</time>
      </trkpt>
      <trkpt lat="44.57642" lon="1.89719">
        <ele>369</ele>
        <time>2017-09-20T08:35:36Z</time>
      </trkpt>
      <trkpt lat="44.57643" lon="1.89712">
        <ele>369</ele>
        <time>2017-09-20T08:35:42Z</time>
      </trkpt>
      <trkpt lat="44.57639" lon="1.89657">
        <ele>371</ele>
        <time>2017-09-20T08:36:12Z</time>
      </trkpt>
      <trkpt lat="44.57639" lon="1.89647">
        <ele>371</ele>
        <time>2017-09-20T08:36:18Z</time>
      </trkpt>
      <trkpt lat="44.5764" lon="1.89633">
        <ele>371</ele>
        <time>2017-09-20T08:36:25Z</time>
      </trkpt>
      <trkpt lat="44.57638" lon="1.89623">
        <ele>371</ele>
        <time>2017-09-20T08:36:32Z</time>
      </trkpt>
      <trkpt lat="44.57637" lon="1.89612">
        <ele>371</ele>
        <time>2017-09-20T08:36:38Z</time>
      </trkpt>
      <trkpt lat="44.57636" lon="1.89605">
        <ele>371</ele>
        <time>2017-09-20T08:36:42Z</time>
      </trkpt>
      <trkpt lat="44.57639" lon="1.89592">
        <ele>372</ele>
        <time>2017-09-20T08:36:52Z</time>
      </trkpt>
      <trkpt lat="44.5764" lon="1.89541">
        <ele>375</ele>
        <time>2017-09-20T08:37:26Z</time>
      </trkpt>
      <trkpt lat="44.57643" lon="1.89506">
        <ele>376</ele>
        <time>2017-09-20T08:37:53Z</time>
      </trkpt>
      <trkpt lat="44.57647" lon="1.89481">
        <ele>379</ele>
        <time>2017-09-20T08:38:12Z</time>
      </trkpt>
      <trkpt lat="44.57648" lon="1.89473">
        <ele>379</ele>
        <time>2017-09-20T08:38:18Z</time>
      </trkpt>
      <trkpt lat="44.5765" lon="1.89458">
        <ele>380</ele>
        <time>2017-09-20T08:38:28Z</time>
      </trkpt>
      <trkpt lat="44.57649" lon="1.8945">
        <ele>380</ele>
        <time>2017-09-20T08:38:33Z</time>
      </trkpt>
      <trkpt lat="44.57651" lon="1.89442">
        <ele>381</ele>
        <time>2017-09-20T08:38:39Z</time>
      </trkpt>
      <trkpt lat="44.57653" lon="1.89435">
        <ele>381</ele>
        <time>2017-09-20T08:38:44Z</time>
      </trkpt>
      <trkpt lat="44.57653" lon="1.89427">
        <ele>381</ele>
        <time>2017-09-20T08:38:51Z</time>
      </trkpt>
      <trkpt lat="44.57652" lon="1.89419">
        <ele>381</ele>
        <time>2017-09-20T08:38:57Z</time>
      </trkpt>
      <trkpt lat="44.57652" lon="1.8941">
        <ele>384</ele>
        <time>2017-09-20T08:39:04Z</time>
      </trkpt>
      <trkpt lat="44.57651" lon="1.894">
        <ele>384</ele>
        <time>2017-09-20T08:39:12Z</time>
      </trkpt>
      <trkpt lat="44.57651" lon="1.89392">
        <ele>384</ele>
        <time>2017-09-20T08:39:17Z</time>
      </trkpt>
      <trkpt lat="44.57652" lon="1.89383">
        <ele>385</ele>
        <time>2017-09-20T08:39:24Z</time>
      </trkpt>
      <trkpt lat="44.57653" lon="1.89365">
        <ele>386</ele>
        <time>2017-09-20T08:39:37Z</time>
      </trkpt>
      <trkpt lat="44.57655" lon="1.89347">
        <ele>386</ele>
        <time>2017-09-20T08:39:47Z</time>
      </trkpt>
      <trkpt lat="44.57655" lon="1.89339">
        <ele>386</ele>
        <time>2017-09-20T08:39:52Z</time>
      </trkpt>
      <trkpt lat="44.57655" lon="1.89331">
        <ele>388</ele>
        <time>2017-09-20T08:39:57Z</time>
      </trkpt>
      <trkpt lat="44.57656" lon="1.89323">
        <ele>388</ele>
        <time>2017-09-20T08:40:04Z</time>
      </trkpt>
      <trkpt lat="44.5766" lon="1.89307">
        <ele>389</ele>
        <time>2017-09-20T08:40:14Z</time>
      </trkpt>
      <trkpt lat="44.5766" lon="1.89299">
        <ele>389</ele>
        <time>2017-09-20T08:40:21Z</time>
      </trkpt>
      <trkpt lat="44.57662" lon="1.89291">
        <ele>390</ele>
        <time>2017-09-20T08:40:27Z</time>
      </trkpt>
      <trkpt lat="44.57665" lon="1.89284">
        <ele>390</ele>
        <time>2017-09-20T08:40:32Z</time>
      </trkpt>
      <trkpt lat="44.57666" lon="1.89258">
        <ele>392</ele>
        <time>2017-09-20T08:40:49Z</time>
      </trkpt>
      <trkpt lat="44.57669" lon="1.8925">
        <ele>393</ele>
        <time>2017-09-20T08:40:56Z</time>
      </trkpt>
      <trkpt lat="44.57673" lon="1.89244">
        <ele>392</ele>
        <time>2017-09-20T08:41:00Z</time>
      </trkpt>
      <trkpt lat="44.57678" lon="1.89226">
        <ele>391</ele>
        <time>2017-09-20T08:41:13Z</time>
      </trkpt>
      <trkpt lat="44.5768" lon="1.892">
        <ele>392</ele>
        <time>2017-09-20T08:41:27Z</time>
      </trkpt>
      <trkpt lat="44.5768" lon="1.89195">
        <ele>392</ele>
        <time>2017-09-20T08:41:29Z</time>
      </trkpt>
      <trkpt lat="44.5768" lon="1.8919">
        <ele>392</ele>
        <time>2017-09-20T08:41:31Z</time>
      </trkpt>
      <trkpt lat="44.57679" lon="1.89176">
        <ele>392</ele>
        <time>2017-09-20T08:41:37Z</time>
      </trkpt>
      <trkpt lat="44.57679" lon="1.89162">
        <ele>393</ele>
        <time>2017-09-20T08:41:43Z</time>
      </trkpt>
      <trkpt lat="44.57685" lon="1.89111">
        <ele>390</ele>
        <time>2017-09-20T08:42:14Z</time>
      </trkpt>
      <trkpt lat="44.5769" lon="1.89074">
        <ele>388</ele>
        <time>2017-09-20T08:42:37Z</time>
      </trkpt>
      <trkpt lat="44.57691" lon="1.8907">
        <ele>388</ele>
        <time>2017-09-20T08:42:41Z</time>
      </trkpt>
      <trkpt lat="44.57692" lon="1.89063">
        <ele>387</ele>
        <time>2017-09-20T08:42:48Z</time>
      </trkpt>
      <trkpt lat="44.57694" lon="1.89057">
        <ele>387</ele>
        <time>2017-09-20T08:42:52Z</time>
      </trkpt>
      <trkpt lat="44.57697" lon="1.89038">
        <ele>387</ele>
        <time>2017-09-20T08:43:19Z</time>
      </trkpt>
      <trkpt lat="44.577" lon="1.89032">
        <ele>387</ele>
        <time>2017-09-20T08:43:24Z</time>
      </trkpt>
      <trkpt lat="44.57702" lon="1.89011">
        <ele>386</ele>
        <time>2017-09-20T08:43:36Z</time>
      </trkpt>
      <trkpt lat="44.57706" lon="1.89005">
        <ele>386</ele>
        <time>2017-09-20T08:43:41Z</time>
      </trkpt>
      <trkpt lat="44.57712" lon="1.88988">
        <ele>385</ele>
        <time>2017-09-20T08:43:52Z</time>
      </trkpt>
      <trkpt lat="44.57714" lon="1.8898">
        <ele>385</ele>
        <time>2017-09-20T08:43:58Z</time>
      </trkpt>
      <trkpt lat="44.57719" lon="1.88966">
        <ele>386</ele>
        <time>2017-09-20T08:44:09Z</time>
      </trkpt>
      <trkpt lat="44.57722" lon="1.88959">
        <ele>386</ele>
        <time>2017-09-20T08:44:14Z</time>
      </trkpt>
      <trkpt lat="44.57724" lon="1.8895">
        <ele>386</ele>
        <time>2017-09-20T08:44:19Z</time>
      </trkpt>
      <trkpt lat="44.57725" lon="1.88943">
        <ele>386</ele>
        <time>2017-09-20T08:44:24Z</time>
      </trkpt>
      <trkpt lat="44.57726" lon="1.88935">
        <ele>386</ele>
        <time>2017-09-20T08:44:29Z</time>
      </trkpt>
      <trkpt lat="44.57727" lon="1.88926">
        <ele>386</ele>
        <time>2017-09-20T08:44:35Z</time>
      </trkpt>
      <trkpt lat="44.57726" lon="1.88917">
        <ele>387</ele>
        <time>2017-09-20T08:44:40Z</time>
      </trkpt>
      <trkpt lat="44.57726" lon="1.88909">
        <ele>389</ele>
        <time>2017-09-20T08:44:45Z</time>
      </trkpt>
      <trkpt lat="44.57729" lon="1.88901">
        <ele>389</ele>
        <time>2017-09-20T08:44:50Z</time>
      </trkpt>
      <trkpt lat="44.57729" lon="1.88893">
        <ele>390</ele>
        <time>2017-09-20T08:44:57Z</time>
      </trkpt>
      <trkpt lat="44.57733" lon="1.88885">
        <ele>390</ele>
        <time>2017-09-20T08:45:06Z</time>
      </trkpt>
      <trkpt lat="44.57737" lon="1.88877">
        <ele>390</ele>
        <time>2017-09-20T08:45:15Z</time>
      </trkpt>
      <trkpt lat="44.5774" lon="1.88869">
        <ele>391</ele>
        <time>2017-09-20T08:45:23Z</time>
      </trkpt>
      <trkpt lat="44.57742" lon="1.88861">
        <ele>392</ele>
        <time>2017-09-20T08:45:30Z</time>
      </trkpt>
      <trkpt lat="44.57745" lon="1.88853">
        <ele>393</ele>
        <time>2017-09-20T08:45:37Z</time>
      </trkpt>
      <trkpt lat="44.57747" lon="1.88845">
        <ele>394</ele>
        <time>2017-09-20T08:45:44Z</time>
      </trkpt>
      <trkpt lat="44.57751" lon="1.88838">
        <ele>394</ele>
        <time>2017-09-20T08:45:51Z</time>
      </trkpt>
      <trkpt lat="44.57752" lon="1.88828">
        <ele>395</ele>
        <time>2017-09-20T08:46:00Z</time>
      </trkpt>
      <trkpt lat="44.57759" lon="1.88812">
        <ele>394</ele>
        <time>2017-09-20T08:46:13Z</time>
      </trkpt>
      <trkpt lat="44.57765" lon="1.88786">
        <ele>395</ele>
        <time>2017-09-20T08:46:34Z</time>
      </trkpt>
      <trkpt lat="44.57766" lon="1.88777">
        <ele>396</ele>
        <time>2017-09-20T08:46:42Z</time>
      </trkpt>
      <trkpt lat="44.5777" lon="1.8877">
        <ele>396</ele>
        <time>2017-09-20T08:46:50Z</time>
      </trkpt>
      <trkpt lat="44.57772" lon="1.88763">
        <ele>396</ele>
        <time>2017-09-20T08:46:55Z</time>
      </trkpt>
      <trkpt lat="44.57775" lon="1.88755">
        <ele>396</ele>
        <time>2017-09-20T08:47:00Z</time>
      </trkpt>
      <trkpt lat="44.57775" lon="1.88746">
        <ele>400</ele>
        <time>2017-09-20T08:47:07Z</time>
      </trkpt>
      <trkpt lat="44.57778" lon="1.88737">
        <ele>399</ele>
        <time>2017-09-20T08:47:16Z</time>
      </trkpt>
      <trkpt lat="44.57778" lon="1.88729">
        <ele>399</ele>
        <time>2017-09-20T08:47:22Z</time>
      </trkpt>
      <trkpt lat="44.57778" lon="1.88721">
        <ele>399</ele>
        <time>2017-09-20T08:47:27Z</time>
      </trkpt>
      <trkpt lat="44.5778" lon="1.88708">
        <ele>399</ele>
        <time>2017-09-20T08:47:36Z</time>
      </trkpt>
      <trkpt lat="44.57781" lon="1.88698">
        <ele>399</ele>
        <time>2017-09-20T08:47:43Z</time>
      </trkpt>
      <trkpt lat="44.57782" lon="1.88684">
        <ele>400</ele>
        <time>2017-09-20T08:47:53Z</time>
      </trkpt>
      <trkpt lat="44.5779" lon="1.88645">
        <ele>400</ele>
        <time>2017-09-20T08:48:17Z</time>
      </trkpt>
      <trkpt lat="44.57791" lon="1.88638">
        <ele>400</ele>
        <time>2017-09-20T08:48:22Z</time>
      </trkpt>
      <trkpt lat="44.57792" lon="1.8863">
        <ele>400</ele>
        <time>2017-09-20T08:48:27Z</time>
      </trkpt>
      <trkpt lat="44.57791" lon="1.88623">
        <ele>400</ele>
        <time>2017-09-20T08:48:33Z</time>
      </trkpt>
      <trkpt lat="44.57792" lon="1.88614">
        <ele>400</ele>
        <time>2017-09-20T08:48:39Z</time>
      </trkpt>
      <trkpt lat="44.57794" lon="1.88606">
        <ele>400</ele>
        <time>2017-09-20T08:48:46Z</time>
      </trkpt>
      <trkpt lat="44.578" lon="1.88574">
        <ele>398</ele>
        <time>2017-09-20T08:49:06Z</time>
      </trkpt>
      <trkpt lat="44.57802" lon="1.88565">
        <ele>397</ele>
        <time>2017-09-20T08:49:11Z</time>
      </trkpt>
      <trkpt lat="44.57805" lon="1.88556">
        <ele>397</ele>
        <time>2017-09-20T08:49:18Z</time>
      </trkpt>
      <trkpt lat="44.57807" lon="1.88548">
        <ele>397</ele>
        <time>2017-09-20T08:49:24Z</time>
      </trkpt>
      <trkpt lat="44.57808" lon="1.8854">
        <ele>397</ele>
        <time>2017-09-20T08:49:30Z</time>
      </trkpt>
      <trkpt lat="44.5781" lon="1.88519">
        <ele>396</ele>
        <time>2017-09-20T08:49:46Z</time>
      </trkpt>
      <trkpt lat="44.57813" lon="1.88511">
        <ele>395</ele>
        <time>2017-09-20T08:49:52Z</time>
      </trkpt>
      <trkpt lat="44.57816" lon="1.885">
        <ele>395</ele>
        <time>2017-09-20T08:50:00Z</time>
      </trkpt>
      <trkpt lat="44.57766" lon="1.88381">
        <ele>384</ele>
        <time>2017-09-20T08:50:38Z</time>
      </trkpt>
      <trkpt lat="44.57764" lon="1.88383">
        <ele>384</ele>
        <time>2017-09-20T08:52:32Z</time>
      </trkpt>
      <trkpt lat="44.57765" lon="1.88377">
        <ele>384</ele>
        <time>2017-09-20T08:53:02Z</time>
      </trkpt>
      <trkpt lat="44.57765" lon="1.88371">
        <ele>384</ele>
        <time>2017-09-20T08:53:06Z</time>
      </trkpt>
      <trkpt lat="44.57767" lon="1.88364">
        <ele>384</ele>
        <time>2017-09-20T08:53:11Z</time>
      </trkpt>
      <trkpt lat="44.57773" lon="1.88357">
        <ele>383</ele>
        <time>2017-09-20T08:53:19Z</time>
      </trkpt>
      <trkpt lat="44.57773" lon="1.88356">
        <ele>383</ele>
        <time>2017-09-20T08:54:02Z</time>
      </trkpt>
      <trkpt lat="44.57767" lon="1.88356">
        <ele>384</ele>
        <time>2017-09-20T08:54:08Z</time>
      </trkpt>
      <trkpt lat="44.57767" lon="1.8836">
        <ele>384</ele>
        <time>2017-09-20T08:54:17Z</time>
      </trkpt>
      <trkpt lat="44.57769" lon="1.88363">
        <ele>384</ele>
        <time>2017-09-20T08:54:23Z</time>
      </trkpt>
      <trkpt lat="44.57774" lon="1.88358">
        <ele>383</ele>
        <time>2017-09-20T08:54:32Z</time>
      </trkpt>
      <trkpt lat="44.57776" lon="1.88355">
        <ele>383</ele>
        <time>2017-09-20T08:54:37Z</time>
      </trkpt>
      <trkpt lat="44.57785" lon="1.88361">
        <ele>383</ele>
        <time>2017-09-20T08:54:45Z</time>
      </trkpt>
      <trkpt lat="44.57795" lon="1.88367">
        <ele>383</ele>
        <time>2017-09-20T08:54:54Z</time>
      </trkpt>
      <trkpt lat="44.57826" lon="1.88393">
        <ele>384</ele>
        <time>2017-09-20T08:55:24Z</time>
      </trkpt>
      <trkpt lat="44.57854" lon="1.88411">
        <ele>380</ele>
        <time>2017-09-20T08:55:47Z</time>
      </trkpt>
      <trkpt lat="44.57857" lon="1.88414">
        <ele>380</ele>
        <time>2017-09-20T08:55:50Z</time>
      </trkpt>
      <trkpt lat="44.57867" lon="1.8842">
        <ele>385</ele>
        <time>2017-09-20T08:55:58Z</time>
      </trkpt>
      <trkpt lat="44.57874" lon="1.88424">
        <ele>385</ele>
        <time>2017-09-20T08:56:04Z</time>
      </trkpt>
      <trkpt lat="44.57898" lon="1.88443">
        <ele>385</ele>
        <time>2017-09-20T08:56:27Z</time>
      </trkpt>
      <trkpt lat="44.5792" lon="1.88462">
        <ele>383</ele>
        <time>2017-09-20T08:56:49Z</time>
      </trkpt>
      <trkpt lat="44.57927" lon="1.88465">
        <ele>383</ele>
        <time>2017-09-20T08:56:54Z</time>
      </trkpt>
      <trkpt lat="44.5793" lon="1.88468">
        <ele>383</ele>
        <time>2017-09-20T08:56:57Z</time>
      </trkpt>
      <trkpt lat="44.57938" lon="1.88475">
        <ele>383</ele>
        <time>2017-09-20T08:57:05Z</time>
      </trkpt>
      <trkpt lat="44.57944" lon="1.8848">
        <ele>383</ele>
        <time>2017-09-20T08:57:12Z</time>
      </trkpt>
      <trkpt lat="44.57948" lon="1.88484">
        <ele>383</ele>
        <time>2017-09-20T08:57:17Z</time>
      </trkpt>
      <trkpt lat="44.57951" lon="1.88486">
        <ele>383</ele>
        <time>2017-09-20T08:57:20Z</time>
      </trkpt>
      <trkpt lat="44.57962" lon="1.88494">
        <ele>383</ele>
        <time>2017-09-20T08:57:29Z</time>
      </trkpt>
      <trkpt lat="44.57965" lon="1.88495">
        <ele>383</ele>
        <time>2017-09-20T08:57:31Z</time>
      </trkpt>
      <trkpt lat="44.57968" lon="1.88498">
        <ele>383</ele>
        <time>2017-09-20T08:57:34Z</time>
      </trkpt>
      <trkpt lat="44.57983" lon="1.88503">
        <ele>384</ele>
        <time>2017-09-20T08:57:54Z</time>
      </trkpt>
      <trkpt lat="44.5799" lon="1.88509">
        <ele>384</ele>
        <time>2017-09-20T08:58:00Z</time>
      </trkpt>
      <trkpt lat="44.58002" lon="1.88515">
        <ele>382</ele>
        <time>2017-09-20T08:58:11Z</time>
      </trkpt>
      <trkpt lat="44.58024" lon="1.88528">
        <ele>380</ele>
        <time>2017-09-20T08:58:29Z</time>
      </trkpt>
      <trkpt lat="44.58026" lon="1.8853">
        <ele>380</ele>
        <time>2017-09-20T08:58:31Z</time>
      </trkpt>
      <trkpt lat="44.5803" lon="1.8853">
        <ele>380</ele>
        <time>2017-09-20T08:58:34Z</time>
      </trkpt>
      <trkpt lat="44.58055" lon="1.88538">
        <ele>379</ele>
        <time>2017-09-20T08:58:54Z</time>
      </trkpt>
      <trkpt lat="44.58058" lon="1.8854">
        <ele>379</ele>
        <time>2017-09-20T08:58:57Z</time>
      </trkpt>
      <trkpt lat="44.58062" lon="1.8854">
        <ele>379</ele>
        <time>2017-09-20T08:59:01Z</time>
      </trkpt>
      <trkpt lat="44.58078" lon="1.88544">
        <ele>379</ele>
        <time>2017-09-20T08:59:14Z</time>
      </trkpt>
      <trkpt lat="44.5808" lon="1.88544">
        <ele>379</ele>
        <time>2017-09-20T08:59:16Z</time>
      </trkpt>
      <trkpt lat="44.58084" lon="1.88545">
        <ele>375</ele>
        <time>2017-09-20T08:59:19Z</time>
      </trkpt>
      <trkpt lat="44.58107" lon="1.88544">
        <ele>374</ele>
        <time>2017-09-20T08:59:37Z</time>
      </trkpt>
      <trkpt lat="44.58112" lon="1.88544">
        <ele>374</ele>
        <time>2017-09-20T08:59:41Z</time>
      </trkpt>
      <trkpt lat="44.58142" lon="1.88536">
        <ele>373</ele>
        <time>2017-09-20T09:00:03Z</time>
      </trkpt>
      <trkpt lat="44.58153" lon="1.88534">
        <ele>373</ele>
        <time>2017-09-20T09:00:12Z</time>
      </trkpt>
      <trkpt lat="44.58157" lon="1.88533">
        <ele>373</ele>
        <time>2017-09-20T09:00:15Z</time>
      </trkpt>
      <trkpt lat="44.5816" lon="1.88533">
        <ele>373</ele>
        <time>2017-09-20T09:00:18Z</time>
      </trkpt>
      <trkpt lat="44.58171" lon="1.88533">
        <ele>366</ele>
        <time>2017-09-20T09:00:26Z</time>
      </trkpt>
      <trkpt lat="44.58173" lon="1.88535">
        <ele>365</ele>
        <time>2017-09-20T09:00:40Z</time>
      </trkpt>
      <trkpt lat="44.58176" lon="1.88535">
        <ele>365</ele>
        <time>2017-09-20T09:00:42Z</time>
      </trkpt>
      <trkpt lat="44.58182" lon="1.88535">
        <ele>365</ele>
        <time>2017-09-20T09:00:48Z</time>
      </trkpt>
      <trkpt lat="44.58216" lon="1.88523">
        <ele>363</ele>
        <time>2017-09-20T09:01:18Z</time>
      </trkpt>
      <trkpt lat="44.58227" lon="1.88519">
        <ele>362</ele>
        <time>2017-09-20T09:01:29Z</time>
      </trkpt>
      <trkpt lat="44.58234" lon="1.88516">
        <ele>361</ele>
        <time>2017-09-20T09:01:35Z</time>
      </trkpt>
      <trkpt lat="44.58237" lon="1.88514">
        <ele>361</ele>
        <time>2017-09-20T09:01:38Z</time>
      </trkpt>
      <trkpt lat="44.58248" lon="1.88509">
        <ele>359</ele>
        <time>2017-09-20T09:01:50Z</time>
      </trkpt>
      <trkpt lat="44.58251" lon="1.88509">
        <ele>355</ele>
        <time>2017-09-20T09:01:53Z</time>
      </trkpt>
      <trkpt lat="44.58254" lon="1.88507">
        <ele>355</ele>
        <time>2017-09-20T09:01:59Z</time>
      </trkpt>
      <trkpt lat="44.58259" lon="1.88506">
        <ele>355</ele>
        <time>2017-09-20T09:02:04Z</time>
      </trkpt>
      <trkpt lat="44.58265" lon="1.88503">
        <ele>354</ele>
        <time>2017-09-20T09:02:09Z</time>
      </trkpt>
      <trkpt lat="44.58267" lon="1.88502">
        <ele>353</ele>
        <time>2017-09-20T09:02:11Z</time>
      </trkpt>
      <trkpt lat="44.58271" lon="1.88498">
        <ele>355</ele>
        <time>2017-09-20T09:02:16Z</time>
      </trkpt>
      <trkpt lat="44.58277" lon="1.88498">
        <ele>355</ele>
        <time>2017-09-20T09:02:20Z</time>
      </trkpt>
      <trkpt lat="44.5828" lon="1.88498">
        <ele>354</ele>
        <time>2017-09-20T09:02:23Z</time>
      </trkpt>
      <trkpt lat="44.58282" lon="1.88501">
        <ele>351</ele>
        <time>2017-09-20T09:02:26Z</time>
      </trkpt>
      <trkpt lat="44.58283" lon="1.88505">
        <ele>351</ele>
        <time>2017-09-20T09:02:30Z</time>
      </trkpt>
      <trkpt lat="44.58285" lon="1.88542">
        <ele>349</ele>
        <time>2017-09-20T09:03:01Z</time>
      </trkpt>
      <trkpt lat="44.58287" lon="1.88548">
        <ele>349</ele>
        <time>2017-09-20T09:03:05Z</time>
      </trkpt>
      <trkpt lat="44.58288" lon="1.88565">
        <ele>349</ele>
        <time>2017-09-20T09:03:20Z</time>
      </trkpt>
      <trkpt lat="44.58289" lon="1.88568">
        <ele>349</ele>
        <time>2017-09-20T09:03:22Z</time>
      </trkpt>
      <trkpt lat="44.58289" lon="1.88574">
        <ele>349</ele>
        <time>2017-09-20T09:03:40Z</time>
      </trkpt>
      <trkpt lat="44.58291" lon="1.88614">
        <ele>343</ele>
        <time>2017-09-20T09:04:08Z</time>
      </trkpt>
      <trkpt lat="44.58293" lon="1.88624">
        <ele>343</ele>
        <time>2017-09-20T09:04:14Z</time>
      </trkpt>
      <trkpt lat="44.58295" lon="1.88625">
        <ele>343</ele>
        <time>2017-09-20T09:04:16Z</time>
      </trkpt>
      <trkpt lat="44.583" lon="1.88631">
        <ele>342</ele>
        <time>2017-09-20T09:04:22Z</time>
      </trkpt>
      <trkpt lat="44.58304" lon="1.88634">
        <ele>341</ele>
        <time>2017-09-20T09:04:27Z</time>
      </trkpt>
      <trkpt lat="44.58306" lon="1.88636">
        <ele>341</ele>
        <time>2017-09-20T09:04:29Z</time>
      </trkpt>
      <trkpt lat="44.58307" lon="1.88638">
        <ele>341</ele>
        <time>2017-09-20T09:04:31Z</time>
      </trkpt>
      <trkpt lat="44.5833" lon="1.88661">
        <ele>336</ele>
        <time>2017-09-20T09:04:57Z</time>
      </trkpt>
      <trkpt lat="44.58335" lon="1.88664">
        <ele>333</ele>
        <time>2017-09-20T09:05:01Z</time>
      </trkpt>
      <trkpt lat="44.58338" lon="1.88667">
        <ele>332</ele>
        <time>2017-09-20T09:05:05Z</time>
      </trkpt>
      <trkpt lat="44.58347" lon="1.88678">
        <ele>329</ele>
        <time>2017-09-20T09:05:17Z</time>
      </trkpt>
      <trkpt lat="44.58357" lon="1.88687">
        <ele>327</ele>
        <time>2017-09-20T09:05:27Z</time>
      </trkpt>
      <trkpt lat="44.58364" lon="1.88693">
        <ele>326</ele>
        <time>2017-09-20T09:05:36Z</time>
      </trkpt>
      <trkpt lat="44.58384" lon="1.88713">
        <ele>323</ele>
        <time>2017-09-20T09:06:02Z</time>
      </trkpt>
      <trkpt lat="44.58396" lon="1.88723">
        <ele>322</ele>
        <time>2017-09-20T09:06:15Z</time>
      </trkpt>
      <trkpt lat="44.58406" lon="1.88746">
        <ele>319</ele>
        <time>2017-09-20T09:06:31Z</time>
      </trkpt>
      <trkpt lat="44.58409" lon="1.88757">
        <ele>317</ele>
        <time>2017-09-20T09:06:37Z</time>
      </trkpt>
      <trkpt lat="44.58411" lon="1.88761">
        <ele>317</ele>
        <time>2017-09-20T09:06:40Z</time>
      </trkpt>
      <trkpt lat="44.58413" lon="1.88765">
        <ele>317</ele>
        <time>2017-09-20T09:06:43Z</time>
      </trkpt>
      <trkpt lat="44.58416" lon="1.88761">
        <ele>316</ele>
        <time>2017-09-20T09:06:49Z</time>
      </trkpt>
      <trkpt lat="44.5842" lon="1.88757">
        <ele>314</ele>
        <time>2017-09-20T09:06:53Z</time>
      </trkpt>
      <trkpt lat="44.58423" lon="1.88752">
        <ele>314</ele>
        <time>2017-09-20T09:06:57Z</time>
      </trkpt>
      <trkpt lat="44.58432" lon="1.88742">
        <ele>313</ele>
        <time>2017-09-20T09:07:07Z</time>
      </trkpt>
      <trkpt lat="44.58436" lon="1.88736">
        <ele>312</ele>
        <time>2017-09-20T09:07:12Z</time>
      </trkpt>
      <trkpt lat="44.5844" lon="1.8873">
        <ele>312</ele>
        <time>2017-09-20T09:07:18Z</time>
      </trkpt>
      <trkpt lat="44.58444" lon="1.88721">
        <ele>311</ele>
        <time>2017-09-20T09:07:24Z</time>
      </trkpt>
      <trkpt lat="44.58449" lon="1.88714">
        <ele>311</ele>
        <time>2017-09-20T09:07:30Z</time>
      </trkpt>
      <trkpt lat="44.58453" lon="1.88707">
        <ele>311</ele>
        <time>2017-09-20T09:07:35Z</time>
      </trkpt>
      <trkpt lat="44.58455" lon="1.887">
        <ele>311</ele>
        <time>2017-09-20T09:07:40Z</time>
      </trkpt>
      <trkpt lat="44.58458" lon="1.88694">
        <ele>311</ele>
        <time>2017-09-20T09:07:45Z</time>
      </trkpt>
      <trkpt lat="44.58463" lon="1.88689">
        <ele>310</ele>
        <time>2017-09-20T09:07:50Z</time>
      </trkpt>
      <trkpt lat="44.58467" lon="1.88687">
        <ele>310</ele>
        <time>2017-09-20T09:07:57Z</time>
      </trkpt>
      <trkpt lat="44.58468" lon="1.88681">
        <ele>309</ele>
        <time>2017-09-20T09:08:07Z</time>
      </trkpt>
      <trkpt lat="44.58473" lon="1.88677">
        <ele>309</ele>
        <time>2017-09-20T09:08:13Z</time>
      </trkpt>
      <trkpt lat="44.58477" lon="1.88673">
        <ele>308</ele>
        <time>2017-09-20T09:08:19Z</time>
      </trkpt>
      <trkpt lat="44.58483" lon="1.88668">
        <ele>307</ele>
        <time>2017-09-20T09:08:25Z</time>
      </trkpt>
      <trkpt lat="44.58492" lon="1.88661">
        <ele>306</ele>
        <time>2017-09-20T09:08:33Z</time>
      </trkpt>
      <trkpt lat="44.58499" lon="1.88657">
        <ele>306</ele>
        <time>2017-09-20T09:08:38Z</time>
      </trkpt>
      <trkpt lat="44.58514" lon="1.88647">
        <ele>301</ele>
        <time>2017-09-20T09:08:51Z</time>
      </trkpt>
      <trkpt lat="44.58519" lon="1.88646">
        <ele>301</ele>
        <time>2017-09-20T09:08:56Z</time>
      </trkpt>
      <trkpt lat="44.58524" lon="1.88643">
        <ele>300</ele>
        <time>2017-09-20T09:09:00Z</time>
      </trkpt>
      <trkpt lat="44.58533" lon="1.88638">
        <ele>300</ele>
        <time>2017-09-20T09:09:08Z</time>
      </trkpt>
      <trkpt lat="44.58538" lon="1.88635">
        <ele>300</ele>
        <time>2017-09-20T09:09:12Z</time>
      </trkpt>
      <trkpt lat="44.58559" lon="1.88622">
        <ele>299</ele>
        <time>2017-09-20T09:09:32Z</time>
      </trkpt>
      <trkpt lat="44.58563" lon="1.88619">
        <ele>298</ele>
        <time>2017-09-20T09:09:35Z</time>
      </trkpt>
      <trkpt lat="44.58572" lon="1.88612">
        <ele>298</ele>
        <time>2017-09-20T09:09:42Z</time>
      </trkpt>
      <trkpt lat="44.58577" lon="1.88609">
        <ele>298</ele>
        <time>2017-09-20T09:09:46Z</time>
      </trkpt>
      <trkpt lat="44.58581" lon="1.88606">
        <ele>297</ele>
        <time>2017-09-20T09:09:49Z</time>
      </trkpt>
      <trkpt lat="44.58584" lon="1.88603">
        <ele>294</ele>
        <time>2017-09-20T09:09:52Z</time>
      </trkpt>
      <trkpt lat="44.58588" lon="1.886">
        <ele>294</ele>
        <time>2017-09-20T09:09:56Z</time>
      </trkpt>
      <trkpt lat="44.58598" lon="1.88591">
        <ele>294</ele>
        <time>2017-09-20T09:10:09Z</time>
      </trkpt>
      <trkpt lat="44.5861" lon="1.88585">
        <ele>294</ele>
        <time>2017-09-20T09:10:19Z</time>
      </trkpt>
      <trkpt lat="44.58615" lon="1.88583">
        <ele>292</ele>
        <time>2017-09-20T09:10:24Z</time>
      </trkpt>
      <trkpt lat="44.5862" lon="1.88581">
        <ele>292</ele>
        <time>2017-09-20T09:10:28Z</time>
      </trkpt>
      <trkpt lat="44.58623" lon="1.88578">
        <ele>292</ele>
        <time>2017-09-20T09:10:31Z</time>
      </trkpt>
      <trkpt lat="44.58627" lon="1.88574">
        <ele>292</ele>
        <time>2017-09-20T09:10:35Z</time>
      </trkpt>
      <trkpt lat="44.58631" lon="1.88565">
        <ele>292</ele>
        <time>2017-09-20T09:10:40Z</time>
      </trkpt>
      <trkpt lat="44.58635" lon="1.88558">
        <ele>291</ele>
        <time>2017-09-20T09:10:45Z</time>
      </trkpt>
      <trkpt lat="44.58636" lon="1.88554">
        <ele>291</ele>
        <time>2017-09-20T09:10:48Z</time>
      </trkpt>
      <trkpt lat="44.58637" lon="1.88551">
        <ele>291</ele>
        <time>2017-09-20T09:10:51Z</time>
      </trkpt>
      <trkpt lat="44.58641" lon="1.88543">
        <ele>291</ele>
        <time>2017-09-20T09:10:57Z</time>
      </trkpt>
      <trkpt lat="44.58643" lon="1.88538">
        <ele>291</ele>
        <time>2017-09-20T09:11:01Z</time>
      </trkpt>
      <trkpt lat="44.58645" lon="1.88532">
        <ele>290</ele>
        <time>2017-09-20T09:11:05Z</time>
      </trkpt>
      <trkpt lat="44.58648" lon="1.88525">
        <ele>290</ele>
        <time>2017-09-20T09:11:12Z</time>
      </trkpt>
      <trkpt lat="44.58656" lon="1.88515">
        <ele>289</ele>
        <time>2017-09-20T09:11:19Z</time>
      </trkpt>
      <trkpt lat="44.58659" lon="1.8851">
        <ele>288</ele>
        <time>2017-09-20T09:11:23Z</time>
      </trkpt>
      <trkpt lat="44.58662" lon="1.88503">
        <ele>287</ele>
        <time>2017-09-20T09:11:27Z</time>
      </trkpt>
      <trkpt lat="44.58667" lon="1.885">
        <ele>286</ele>
        <time>2017-09-20T09:11:31Z</time>
      </trkpt>
      <trkpt lat="44.58674" lon="1.88501">
        <ele>287</ele>
        <time>2017-09-20T09:11:38Z</time>
      </trkpt>
      <trkpt lat="44.58679" lon="1.88502">
        <ele>288</ele>
        <time>2017-09-20T09:11:42Z</time>
      </trkpt>
      <trkpt lat="44.58683" lon="1.88502">
        <ele>289</ele>
        <time>2017-09-20T09:11:45Z</time>
      </trkpt>
      <trkpt lat="44.58698" lon="1.88495">
        <ele>288</ele>
        <time>2017-09-20T09:11:58Z</time>
      </trkpt>
      <trkpt lat="44.58703" lon="1.8849">
        <ele>288</ele>
        <time>2017-09-20T09:12:03Z</time>
      </trkpt>
      <trkpt lat="44.58706" lon="1.88486">
        <ele>288</ele>
        <time>2017-09-20T09:12:06Z</time>
      </trkpt>
      <trkpt lat="44.58711" lon="1.88476">
        <ele>288</ele>
        <time>2017-09-20T09:12:13Z</time>
      </trkpt>
      <trkpt lat="44.58712" lon="1.8847">
        <ele>288</ele>
        <time>2017-09-20T09:12:16Z</time>
      </trkpt>
      <trkpt lat="44.58714" lon="1.88465">
        <ele>288</ele>
        <time>2017-09-20T09:12:20Z</time>
      </trkpt>
      <trkpt lat="44.58715" lon="1.88458">
        <ele>288</ele>
        <time>2017-09-20T09:12:24Z</time>
      </trkpt>
      <trkpt lat="44.58717" lon="1.88452">
        <ele>288</ele>
        <time>2017-09-20T09:12:28Z</time>
      </trkpt>
      <trkpt lat="44.58718" lon="1.88446">
        <ele>288</ele>
        <time>2017-09-20T09:12:32Z</time>
      </trkpt>
      <trkpt lat="44.58719" lon="1.8844">
        <ele>287</ele>
        <time>2017-09-20T09:12:35Z</time>
      </trkpt>
      <trkpt lat="44.58722" lon="1.88436">
        <ele>287</ele>
        <time>2017-09-20T09:12:38Z</time>
      </trkpt>
      <trkpt lat="44.58724" lon="1.88431">
        <ele>287</ele>
        <time>2017-09-20T09:12:43Z</time>
      </trkpt>
      <trkpt lat="44.58724" lon="1.88425">
        <ele>287</ele>
        <time>2017-09-20T09:12:57Z</time>
      </trkpt>
      <trkpt lat="44.58727" lon="1.88419">
        <ele>287</ele>
        <time>2017-09-20T09:13:03Z</time>
      </trkpt>
      <trkpt lat="44.58729" lon="1.88413">
        <ele>286</ele>
        <time>2017-09-20T09:13:07Z</time>
      </trkpt>
      <trkpt lat="44.5873" lon="1.88406">
        <ele>286</ele>
        <time>2017-09-20T09:13:11Z</time>
      </trkpt>
      <trkpt lat="44.58732" lon="1.88401">
        <ele>286</ele>
        <time>2017-09-20T09:13:14Z</time>
      </trkpt>
      <trkpt lat="44.58734" lon="1.88394">
        <ele>286</ele>
        <time>2017-09-20T09:13:17Z</time>
      </trkpt>
      <trkpt lat="44.58742" lon="1.88368">
        <ele>285</ele>
        <time>2017-09-20T09:13:31Z</time>
      </trkpt>
      <trkpt lat="44.58748" lon="1.88358">
        <ele>284</ele>
        <time>2017-09-20T09:13:39Z</time>
      </trkpt>
      <trkpt lat="44.58751" lon="1.88352">
        <ele>284</ele>
        <time>2017-09-20T09:13:43Z</time>
      </trkpt>
      <trkpt lat="44.58756" lon="1.8834">
        <ele>282</ele>
        <time>2017-09-20T09:13:50Z</time>
      </trkpt>
      <trkpt lat="44.58763" lon="1.8833">
        <ele>280</ele>
        <time>2017-09-20T09:13:58Z</time>
      </trkpt>
      <trkpt lat="44.58767" lon="1.88326">
        <ele>280</ele>
        <time>2017-09-20T09:14:03Z</time>
      </trkpt>
      <trkpt lat="44.58785" lon="1.88308">
        <ele>280</ele>
        <time>2017-09-20T09:14:22Z</time>
      </trkpt>
      <trkpt lat="44.58793" lon="1.88299">
        <ele>280</ele>
        <time>2017-09-20T09:14:30Z</time>
      </trkpt>
      <trkpt lat="44.58809" lon="1.88281">
        <ele>278</ele>
        <time>2017-09-20T09:14:46Z</time>
      </trkpt>
      <trkpt lat="44.58812" lon="1.88275">
        <ele>278</ele>
        <time>2017-09-20T09:14:50Z</time>
      </trkpt>
      <trkpt lat="44.58814" lon="1.88271">
        <ele>277</ele>
        <time>2017-09-20T09:14:53Z</time>
      </trkpt>
      <trkpt lat="44.58817" lon="1.88267">
        <ele>277</ele>
        <time>2017-09-20T09:14:56Z</time>
      </trkpt>
      <trkpt lat="44.58819" lon="1.88265">
        <ele>276</ele>
        <time>2017-09-20T09:14:58Z</time>
      </trkpt>
      <trkpt lat="44.58821" lon="1.8826">
        <ele>276</ele>
        <time>2017-09-20T09:15:01Z</time>
      </trkpt>
      <trkpt lat="44.58821" lon="1.88256">
        <ele>275</ele>
        <time>2017-09-20T09:15:04Z</time>
      </trkpt>
      <trkpt lat="44.58824" lon="1.88252">
        <ele>275</ele>
        <time>2017-09-20T09:15:08Z</time>
      </trkpt>
      <trkpt lat="44.58825" lon="1.88248">
        <ele>272</ele>
        <time>2017-09-20T09:15:11Z</time>
      </trkpt>
      <trkpt lat="44.58826" lon="1.88242">
        <ele>273</ele>
        <time>2017-09-20T09:15:15Z</time>
      </trkpt>
      <trkpt lat="44.58827" lon="1.88238">
        <ele>273</ele>
        <time>2017-09-20T09:15:18Z</time>
      </trkpt>
      <trkpt lat="44.58829" lon="1.88234">
        <ele>273</ele>
        <time>2017-09-20T09:15:22Z</time>
      </trkpt>
      <trkpt lat="44.58833" lon="1.88222">
        <ele>272</ele>
        <time>2017-09-20T09:15:33Z</time>
      </trkpt>
      <trkpt lat="44.58835" lon="1.88216">
        <ele>272</ele>
        <time>2017-09-20T09:15:37Z</time>
      </trkpt>
      <trkpt lat="44.58838" lon="1.88202">
        <ele>271</ele>
        <time>2017-09-20T09:15:46Z</time>
      </trkpt>
      <trkpt lat="44.58839" lon="1.88196">
        <ele>271</ele>
        <time>2017-09-20T09:15:50Z</time>
      </trkpt>
      <trkpt lat="44.58842" lon="1.88186">
        <ele>270</ele>
        <time>2017-09-20T09:15:57Z</time>
      </trkpt>
      <trkpt lat="44.58845" lon="1.88179">
        <ele>270</ele>
        <time>2017-09-20T09:16:01Z</time>
      </trkpt>
      <trkpt lat="44.58847" lon="1.88173">
        <ele>269</ele>
        <time>2017-09-20T09:16:05Z</time>
      </trkpt>
      <trkpt lat="44.58848" lon="1.88165">
        <ele>266</ele>
        <time>2017-09-20T09:16:10Z</time>
      </trkpt>
      <trkpt lat="44.58854" lon="1.88153">
        <ele>266</ele>
        <time>2017-09-20T09:16:17Z</time>
      </trkpt>
      <trkpt lat="44.58856" lon="1.88148">
        <ele>266</ele>
        <time>2017-09-20T09:16:20Z</time>
      </trkpt>
      <trkpt lat="44.58861" lon="1.88137">
        <ele>265</ele>
        <time>2017-09-20T09:16:30Z</time>
      </trkpt>
      <trkpt lat="44.5887" lon="1.88126">
        <ele>265</ele>
        <time>2017-09-20T09:16:41Z</time>
      </trkpt>
      <trkpt lat="44.58876" lon="1.88112">
        <ele>264</ele>
        <time>2017-09-20T09:16:51Z</time>
      </trkpt>
      <trkpt lat="44.5888" lon="1.88107">
        <ele>264</ele>
        <time>2017-09-20T09:16:55Z</time>
      </trkpt>
      <trkpt lat="44.58885" lon="1.88101">
        <ele>264</ele>
        <time>2017-09-20T09:17:01Z</time>
      </trkpt>
      <trkpt lat="44.58887" lon="1.88094">
        <ele>263</ele>
        <time>2017-09-20T09:17:05Z</time>
      </trkpt>
      <trkpt lat="44.5889" lon="1.88087">
        <ele>263</ele>
        <time>2017-09-20T09:17:10Z</time>
      </trkpt>
      <trkpt lat="44.58895" lon="1.88073">
        <ele>260</ele>
        <time>2017-09-20T09:17:19Z</time>
      </trkpt>
      <trkpt lat="44.58899" lon="1.88068">
        <ele>260</ele>
        <time>2017-09-20T09:17:24Z</time>
      </trkpt>
      <trkpt lat="44.58903" lon="1.88064">
        <ele>260</ele>
        <time>2017-09-20T09:17:28Z</time>
      </trkpt>
      <trkpt lat="44.58905" lon="1.88057">
        <ele>260</ele>
        <time>2017-09-20T09:17:32Z</time>
      </trkpt>
      <trkpt lat="44.58927" lon="1.88022">
        <ele>259</ele>
        <time>2017-09-20T09:18:01Z</time>
      </trkpt>
      <trkpt lat="44.58931" lon="1.88018">
        <ele>259</ele>
        <time>2017-09-20T09:18:06Z</time>
      </trkpt>
      <trkpt lat="44.58935" lon="1.88014">
        <ele>259</ele>
        <time>2017-09-20T09:18:12Z</time>
      </trkpt>
      <trkpt lat="44.58939" lon="1.88005">
        <ele>259</ele>
        <time>2017-09-20T09:18:18Z</time>
      </trkpt>
      <trkpt lat="44.58942" lon="1.87998">
        <ele>255</ele>
        <time>2017-09-20T09:18:22Z</time>
      </trkpt>
      <trkpt lat="44.58946" lon="1.87992">
        <ele>255</ele>
        <time>2017-09-20T09:18:28Z</time>
      </trkpt>
      <trkpt lat="44.58952" lon="1.87979">
        <ele>255</ele>
        <time>2017-09-20T09:18:37Z</time>
      </trkpt>
      <trkpt lat="44.58955" lon="1.87972">
        <ele>255</ele>
        <time>2017-09-20T09:18:43Z</time>
      </trkpt>
      <trkpt lat="44.58959" lon="1.87966">
        <ele>255</ele>
        <time>2017-09-20T09:18:48Z</time>
      </trkpt>
      <trkpt lat="44.58963" lon="1.87961">
        <ele>255</ele>
        <time>2017-09-20T09:18:53Z</time>
      </trkpt>
      <trkpt lat="44.5897" lon="1.87947">
        <ele>255</ele>
        <time>2017-09-20T09:19:08Z</time>
      </trkpt>
      <trkpt lat="44.5897" lon="1.87939">
        <ele>254</ele>
        <time>2017-09-20T09:19:12Z</time>
      </trkpt>
      <trkpt lat="44.58972" lon="1.87932">
        <ele>254</ele>
        <time>2017-09-20T09:19:18Z</time>
      </trkpt>
      <trkpt lat="44.58971" lon="1.87925">
        <ele>254</ele>
        <time>2017-09-20T09:19:26Z</time>
      </trkpt>
      <trkpt lat="44.58969" lon="1.87919">
        <ele>254</ele>
        <time>2017-09-20T09:19:31Z</time>
      </trkpt>
      <trkpt lat="44.58967" lon="1.87909">
        <ele>250</ele>
        <time>2017-09-20T09:19:43Z</time>
      </trkpt>
      <trkpt lat="44.58966" lon="1.87901">
        <ele>249</ele>
        <time>2017-09-20T09:19:49Z</time>
      </trkpt>
      <trkpt lat="44.58966" lon="1.87886">
        <ele>249</ele>
        <time>2017-09-20T09:20:03Z</time>
      </trkpt>
      <trkpt lat="44.58965" lon="1.87876">
        <ele>248</ele>
        <time>2017-09-20T09:20:10Z</time>
      </trkpt>
      <trkpt lat="44.58967" lon="1.87869">
        <ele>248</ele>
        <time>2017-09-20T09:20:17Z</time>
      </trkpt>
      <trkpt lat="44.58966" lon="1.87862">
        <ele>248</ele>
        <time>2017-09-20T09:20:23Z</time>
      </trkpt>
      <trkpt lat="44.58968" lon="1.87855">
        <ele>248</ele>
        <time>2017-09-20T09:20:32Z</time>
      </trkpt>
      <trkpt lat="44.58969" lon="1.87847">
        <ele>247</ele>
        <time>2017-09-20T09:20:39Z</time>
      </trkpt>
      <trkpt lat="44.58969" lon="1.87839">
        <ele>247</ele>
        <time>2017-09-20T09:20:44Z</time>
      </trkpt>
      <trkpt lat="44.58968" lon="1.87832">
        <ele>241</ele>
        <time>2017-09-20T09:20:52Z</time>
      </trkpt>
      <trkpt lat="44.58968" lon="1.87825">
        <ele>240</ele>
        <time>2017-09-20T09:20:59Z</time>
      </trkpt>
      <trkpt lat="44.5897" lon="1.8782">
        <ele>240</ele>
        <time>2017-09-20T09:21:03Z</time>
      </trkpt>
      <trkpt lat="44.58971" lon="1.87813">
        <ele>240</ele>
        <time>2017-09-20T09:21:12Z</time>
      </trkpt>
      <trkpt lat="44.5897" lon="1.87801">
        <ele>239</ele>
        <time>2017-09-20T09:21:23Z</time>
      </trkpt>
      <trkpt lat="44.5897" lon="1.87796">
        <ele>238</ele>
        <time>2017-09-20T09:21:27Z</time>
      </trkpt>
      <trkpt lat="44.5897" lon="1.87789">
        <ele>237</ele>
        <time>2017-09-20T09:21:31Z</time>
      </trkpt>
      <trkpt lat="44.58971" lon="1.87776">
        <ele>236</ele>
        <time>2017-09-20T09:21:45Z</time>
      </trkpt>
      <trkpt lat="44.58971" lon="1.8777">
        <ele>236</ele>
        <time>2017-09-20T09:21:49Z</time>
      </trkpt>
      <trkpt lat="44.58971" lon="1.87761">
        <ele>235</ele>
        <time>2017-09-20T09:21:55Z</time>
      </trkpt>
      <trkpt lat="44.58972" lon="1.87755">
        <ele>235</ele>
        <time>2017-09-20T09:22:00Z</time>
      </trkpt>
      <trkpt lat="44.58972" lon="1.87743">
        <ele>226</ele>
        <time>2017-09-20T09:22:10Z</time>
      </trkpt>
      <trkpt lat="44.58974" lon="1.87737">
        <ele>226</ele>
        <time>2017-09-20T09:22:15Z</time>
      </trkpt>
      <trkpt lat="44.58975" lon="1.8773">
        <ele>225</ele>
        <time>2017-09-20T09:22:20Z</time>
      </trkpt>
      <trkpt lat="44.58977" lon="1.87724">
        <ele>225</ele>
        <time>2017-09-20T09:22:31Z</time>
      </trkpt>
      <trkpt lat="44.58979" lon="1.87699">
        <ele>222</ele>
        <time>2017-09-20T09:22:59Z</time>
      </trkpt>
      <trkpt lat="44.58979" lon="1.87692">
        <ele>221</ele>
        <time>2017-09-20T09:23:03Z</time>
      </trkpt>
      <trkpt lat="44.58979" lon="1.87684">
        <ele>220</ele>
        <time>2017-09-20T09:23:08Z</time>
      </trkpt>
      <trkpt lat="44.5898" lon="1.87678">
        <ele>219</ele>
        <time>2017-09-20T09:23:11Z</time>
      </trkpt>
      <trkpt lat="44.58979" lon="1.87667">
        <ele>212</ele>
        <time>2017-09-20T09:23:18Z</time>
      </trkpt>
      <trkpt lat="44.58977" lon="1.8765">
        <ele>211</ele>
        <time>2017-09-20T09:23:27Z</time>
      </trkpt>
      <trkpt lat="44.58976" lon="1.87639">
        <ele>210</ele>
        <time>2017-09-20T09:23:34Z</time>
      </trkpt>
      <trkpt lat="44.58975" lon="1.87634">
        <ele>210</ele>
        <time>2017-09-20T09:23:41Z</time>
      </trkpt>
      <trkpt lat="44.58976" lon="1.8763">
        <ele>210</ele>
        <time>2017-09-20T09:23:52Z</time>
      </trkpt>
      <trkpt lat="44.58975" lon="1.87624">
        <ele>209</ele>
        <time>2017-09-20T09:23:58Z</time>
      </trkpt>
      <trkpt lat="44.58975" lon="1.87619">
        <ele>209</ele>
        <time>2017-09-20T09:24:01Z</time>
      </trkpt>
      <trkpt lat="44.58975" lon="1.87613">
        <ele>208</ele>
        <time>2017-09-20T09:24:04Z</time>
      </trkpt>
      <trkpt lat="44.58976" lon="1.87608">
        <ele>208</ele>
        <time>2017-09-20T09:24:07Z</time>
      </trkpt>
      <trkpt lat="44.58978" lon="1.87603">
        <ele>207</ele>
        <time>2017-09-20T09:24:10Z</time>
      </trkpt>
      <trkpt lat="44.58979" lon="1.87596">
        <ele>206</ele>
        <time>2017-09-20T09:24:15Z</time>
      </trkpt>
      <trkpt lat="44.58984" lon="1.87585">
        <ele>204</ele>
        <time>2017-09-20T09:24:22Z</time>
      </trkpt>
      <trkpt lat="44.58988" lon="1.87575">
        <ele>197</ele>
        <time>2017-09-20T09:24:28Z</time>
      </trkpt>
      <trkpt lat="44.58991" lon="1.8757">
        <ele>197</ele>
        <time>2017-09-20T09:24:32Z</time>
      </trkpt>
      <trkpt lat="44.58997" lon="1.87544">
        <ele>194</ele>
        <time>2017-09-20T09:24:49Z</time>
      </trkpt>
      <trkpt lat="44.58996" lon="1.87539">
        <ele>193</ele>
        <time>2017-09-20T09:24:52Z</time>
      </trkpt>
      <trkpt lat="44.58995" lon="1.87536">
        <ele>192</ele>
        <time>2017-09-20T09:25:23Z</time>
      </trkpt>
      <trkpt lat="44.58996" lon="1.87532">
        <ele>191</ele>
        <time>2017-09-20T09:26:17Z</time>
      </trkpt>
      <trkpt lat="44.58998" lon="1.87531">
        <ele>191</ele>
        <time>2017-09-20T09:26:45Z</time>
      </trkpt>
      <trkpt lat="44.58997" lon="1.87531">
        <ele>191</ele>
        <time>2017-09-20T09:27:11Z</time>
      </trkpt>
      <trkpt lat="44.58998" lon="1.87528">
        <ele>191</ele>
        <time>2017-09-20T09:27:23Z</time>
      </trkpt>
      <trkpt lat="44.58997" lon="1.87526">
        <ele>190</ele>
        <time>2017-09-20T09:27:26Z</time>
      </trkpt>
      <trkpt lat="44.58996" lon="1.87524">
        <ele>190</ele>
        <time>2017-09-20T09:27:28Z</time>
      </trkpt>
      <trkpt lat="44.58996" lon="1.87521">
        <ele>189</ele>
        <time>2017-09-20T09:27:32Z</time>
      </trkpt>
      <trkpt lat="44.58995" lon="1.87518">
        <ele>188</ele>
        <time>2017-09-20T09:27:37Z</time>
      </trkpt>
      <trkpt lat="44.58995" lon="1.87515">
        <ele>187</ele>
        <time>2017-09-20T09:27:40Z</time>
      </trkpt>
      <trkpt lat="44.58996" lon="1.87512">
        <ele>186</ele>
        <time>2017-09-20T09:27:42Z</time>
      </trkpt>
      <trkpt lat="44.58992" lon="1.87501">
        <ele>185</ele>
        <time>2017-09-20T09:27:51Z</time>
      </trkpt>
      <trkpt lat="44.5899" lon="1.87496">
        <ele>183</ele>
        <time>2017-09-20T09:27:56Z</time>
      </trkpt>
      <trkpt lat="44.58993" lon="1.87475">
        <ele>185</ele>
        <time>2017-09-20T09:28:07Z</time>
      </trkpt>
      <trkpt lat="44.59005" lon="1.87445">
        <ele>178</ele>
        <time>2017-09-20T09:28:27Z</time>
      </trkpt>
      <trkpt lat="44.59007" lon="1.87442">
        <ele>178</ele>
        <time>2017-09-20T09:28:29Z</time>
      </trkpt>
      <trkpt lat="44.59009" lon="1.87442">
        <ele>178</ele>
        <time>2017-09-20T09:28:31Z</time>
      </trkpt>
      <trkpt lat="44.59011" lon="1.8744">
        <ele>177</ele>
        <time>2017-09-20T09:28:33Z</time>
      </trkpt>
      <trkpt lat="44.59013" lon="1.87438">
        <ele>177</ele>
        <time>2017-09-20T09:28:35Z</time>
      </trkpt>
      <trkpt lat="44.59017" lon="1.87436">
        <ele>177</ele>
        <time>2017-09-20T09:28:38Z</time>
      </trkpt>
      <trkpt lat="44.59023" lon="1.87433">
        <ele>177</ele>
        <time>2017-09-20T09:28:44Z</time>
      </trkpt>
      <trkpt lat="44.59026" lon="1.8743">
        <ele>177</ele>
        <time>2017-09-20T09:28:47Z</time>
      </trkpt>
      <trkpt lat="44.5903" lon="1.87428">
        <ele>177</ele>
        <time>2017-09-20T09:28:50Z</time>
      </trkpt>
      <trkpt lat="44.59032" lon="1.87423">
        <ele>176</ele>
        <time>2017-09-20T09:28:55Z</time>
      </trkpt>
      <trkpt lat="44.5904" lon="1.8741">
        <ele>173</ele>
        <time>2017-09-20T09:29:09Z</time>
      </trkpt>
      <trkpt lat="44.59052" lon="1.87392">
        <ele>172</ele>
        <time>2017-09-20T09:29:24Z</time>
      </trkpt>
      <trkpt lat="44.59065" lon="1.87373">
        <ele>172</ele>
        <time>2017-09-20T09:29:36Z</time>
      </trkpt>
      <trkpt lat="44.59068" lon="1.87368">
        <ele>172</ele>
        <time>2017-09-20T09:29:41Z</time>
      </trkpt>
      <trkpt lat="44.59068" lon="1.87362">
        <ele>171</ele>
        <time>2017-09-20T09:29:46Z</time>
      </trkpt>
      <trkpt lat="44.59064" lon="1.8736">
        <ele>172</ele>
        <time>2017-09-20T09:29:52Z</time>
      </trkpt>
      <trkpt lat="44.59061" lon="1.87358">
        <ele>172</ele>
        <time>2017-09-20T09:29:58Z</time>
      </trkpt>
      <trkpt lat="44.59059" lon="1.87355">
        <ele>172</ele>
        <time>2017-09-20T09:30:03Z</time>
      </trkpt>
      <trkpt lat="44.59056" lon="1.87348">
        <ele>172</ele>
        <time>2017-09-20T09:30:07Z</time>
      </trkpt>
      <trkpt lat="44.59041" lon="1.87334">
        <ele>173</ele>
        <time>2017-09-20T09:30:22Z</time>
      </trkpt>
      <trkpt lat="44.59038" lon="1.8733">
        <ele>173</ele>
        <time>2017-09-20T09:30:25Z</time>
      </trkpt>
      <trkpt lat="44.59031" lon="1.87322">
        <ele>174</ele>
        <time>2017-09-20T09:30:33Z</time>
      </trkpt>
      <trkpt lat="44.59024" lon="1.87312">
        <ele>174</ele>
        <time>2017-09-20T09:30:41Z</time>
      </trkpt>
      <trkpt lat="44.5902" lon="1.87308">
        <ele>174</ele>
        <time>2017-09-20T09:30:45Z</time>
      </trkpt>
      <trkpt lat="44.59017" lon="1.87304">
        <ele>174</ele>
        <time>2017-09-20T09:30:49Z</time>
      </trkpt>
      <trkpt lat="44.59013" lon="1.87297">
        <ele>174</ele>
        <time>2017-09-20T09:30:53Z</time>
      </trkpt>
      <trkpt lat="44.5901" lon="1.87292">
        <ele>174</ele>
        <time>2017-09-20T09:30:57Z</time>
      </trkpt>
      <trkpt lat="44.59005" lon="1.87288">
        <ele>174</ele>
        <time>2017-09-20T09:31:02Z</time>
      </trkpt>
      <trkpt lat="44.59001" lon="1.87283">
        <ele>174</ele>
        <time>2017-09-20T09:31:07Z</time>
      </trkpt>
      <trkpt lat="44.58998" lon="1.87276">
        <ele>188</ele>
        <time>2017-09-20T09:31:11Z</time>
      </trkpt>
      <trkpt lat="44.58995" lon="1.8727">
        <ele>187</ele>
        <time>2017-09-20T09:31:16Z</time>
      </trkpt>
      <trkpt lat="44.5899" lon="1.87268">
        <ele>187</ele>
        <time>2017-09-20T09:31:32Z</time>
      </trkpt>
      <trkpt lat="44.58985" lon="1.87263">
        <ele>188</ele>
        <time>2017-09-20T09:31:36Z</time>
      </trkpt>
      <trkpt lat="44.58981" lon="1.87255">
        <ele>188</ele>
        <time>2017-09-20T09:31:43Z</time>
      </trkpt>
      <trkpt lat="44.58976" lon="1.87248">
        <ele>188</ele>
        <time>2017-09-20T09:31:48Z</time>
      </trkpt>
      <trkpt lat="44.58971" lon="1.87241">
        <ele>190</ele>
        <time>2017-09-20T09:31:55Z</time>
      </trkpt>
      <trkpt lat="44.58966" lon="1.87234">
        <ele>192</ele>
        <time>2017-09-20T09:32:01Z</time>
      </trkpt>
      <trkpt lat="44.58961" lon="1.87225">
        <ele>193</ele>
        <time>2017-09-20T09:32:08Z</time>
      </trkpt>
      <trkpt lat="44.58958" lon="1.87213">
        <ele>194</ele>
        <time>2017-09-20T09:32:17Z</time>
      </trkpt>
      <trkpt lat="44.58955" lon="1.87205">
        <ele>194</ele>
        <time>2017-09-20T09:32:28Z</time>
      </trkpt>
      <trkpt lat="44.58954" lon="1.87194">
        <ele>194</ele>
        <time>2017-09-20T09:32:36Z</time>
      </trkpt>
      <trkpt lat="44.58955" lon="1.87184">
        <ele>193</ele>
        <time>2017-09-20T09:32:43Z</time>
      </trkpt>
      <trkpt lat="44.58956" lon="1.87175">
        <ele>193</ele>
        <time>2017-09-20T09:32:51Z</time>
      </trkpt>
      <trkpt lat="44.58955" lon="1.87162">
        <ele>191</ele>
        <time>2017-09-20T09:33:00Z</time>
      </trkpt>
      <trkpt lat="44.58952" lon="1.87152">
        <ele>192</ele>
        <time>2017-09-20T09:33:09Z</time>
      </trkpt>
      <trkpt lat="44.58949" lon="1.87141">
        <ele>192</ele>
        <time>2017-09-20T09:33:19Z</time>
      </trkpt>
      <trkpt lat="44.5895" lon="1.87104">
        <ele>192</ele>
        <time>2017-09-20T09:33:42Z</time>
      </trkpt>
      <trkpt lat="44.58952" lon="1.87096">
        <ele>191</ele>
        <time>2017-09-20T09:33:46Z</time>
      </trkpt>
      <trkpt lat="44.58955" lon="1.87088">
        <ele>191</ele>
        <time>2017-09-20T09:33:52Z</time>
      </trkpt>
      <trkpt lat="44.58954" lon="1.87081">
        <ele>194</ele>
        <time>2017-09-20T09:33:56Z</time>
      </trkpt>
      <trkpt lat="44.58955" lon="1.87073">
        <ele>194</ele>
        <time>2017-09-20T09:34:00Z</time>
      </trkpt>
      <trkpt lat="44.58956" lon="1.87066">
        <ele>193</ele>
        <time>2017-09-20T09:34:05Z</time>
      </trkpt>
      <trkpt lat="44.58959" lon="1.87059">
        <ele>193</ele>
        <time>2017-09-20T09:34:09Z</time>
      </trkpt>
      <trkpt lat="44.5896" lon="1.87051">
        <ele>193</ele>
        <time>2017-09-20T09:34:14Z</time>
      </trkpt>
      <trkpt lat="44.58959" lon="1.87043">
        <ele>194</ele>
        <time>2017-09-20T09:34:19Z</time>
      </trkpt>
      <trkpt lat="44.58958" lon="1.87036">
        <ele>194</ele>
        <time>2017-09-20T09:34:24Z</time>
      </trkpt>
      <trkpt lat="44.58958" lon="1.87026">
        <ele>195</ele>
        <time>2017-09-20T09:34:32Z</time>
      </trkpt>
      <trkpt lat="44.58959" lon="1.87015">
        <ele>195</ele>
        <time>2017-09-20T09:34:38Z</time>
      </trkpt>
      <trkpt lat="44.5896" lon="1.87003">
        <ele>195</ele>
        <time>2017-09-20T09:34:45Z</time>
      </trkpt>
      <trkpt lat="44.58962" lon="1.8699">
        <ele>203</ele>
        <time>2017-09-20T09:34:52Z</time>
      </trkpt>
      <trkpt lat="44.58962" lon="1.86971">
        <ele>205</ele>
        <time>2017-09-20T09:35:02Z</time>
      </trkpt>
      <trkpt lat="44.58963" lon="1.86962">
        <ele>205</ele>
        <time>2017-09-20T09:35:07Z</time>
      </trkpt>
      <trkpt lat="44.5897" lon="1.86958">
        <ele>203</ele>
        <time>2017-09-20T09:35:11Z</time>
      </trkpt>
      <trkpt lat="44.58975" lon="1.86949">
        <ele>202</ele>
        <time>2017-09-20T09:35:17Z</time>
      </trkpt>
      <trkpt lat="44.5898" lon="1.8694">
        <ele>200</ele>
        <time>2017-09-20T09:35:26Z</time>
      </trkpt>
      <trkpt lat="44.58985" lon="1.86931">
        <ele>197</ele>
        <time>2017-09-20T09:35:33Z</time>
      </trkpt>
      <trkpt lat="44.5899" lon="1.86922">
        <ele>193</ele>
        <time>2017-09-20T09:35:38Z</time>
      </trkpt>
      <trkpt lat="44.58991" lon="1.86912">
        <ele>197</ele>
        <time>2017-09-20T09:35:46Z</time>
      </trkpt>
      <trkpt lat="44.58994" lon="1.86903">
        <ele>201</ele>
        <time>2017-09-20T09:35:51Z</time>
      </trkpt>
      <trkpt lat="44.58994" lon="1.86891">
        <ele>208</ele>
        <time>2017-09-20T09:35:59Z</time>
      </trkpt>
      <trkpt lat="44.59007" lon="1.86866">
        <ele>187</ele>
        <time>2017-09-20T09:36:16Z</time>
      </trkpt>
      <trkpt lat="44.59011" lon="1.86859">
        <ele>188</ele>
        <time>2017-09-20T09:36:22Z</time>
      </trkpt>
      <trkpt lat="44.59017" lon="1.86852">
        <ele>189</ele>
        <time>2017-09-20T09:36:26Z</time>
      </trkpt>
      <trkpt lat="44.59021" lon="1.86844">
        <ele>189</ele>
        <time>2017-09-20T09:36:31Z</time>
      </trkpt>
      <trkpt lat="44.59027" lon="1.86836">
        <ele>188</ele>
        <time>2017-09-20T09:36:39Z</time>
      </trkpt>
      <trkpt lat="44.59035" lon="1.8682">
        <ele>191</ele>
        <time>2017-09-20T09:36:50Z</time>
      </trkpt>
      <trkpt lat="44.59045" lon="1.86805">
        <ele>189</ele>
        <time>2017-09-20T09:37:02Z</time>
      </trkpt>
      <trkpt lat="44.59049" lon="1.86799">
        <ele>189</ele>
        <time>2017-09-20T09:37:09Z</time>
      </trkpt>
      <trkpt lat="44.5906" lon="1.8679">
        <ele>187</ele>
        <time>2017-09-20T09:37:18Z</time>
      </trkpt>
      <trkpt lat="44.59063" lon="1.86784">
        <ele>187</ele>
        <time>2017-09-20T09:37:22Z</time>
      </trkpt>
      <trkpt lat="44.59066" lon="1.86779">
        <ele>187</ele>
        <time>2017-09-20T09:37:26Z</time>
      </trkpt>
      <trkpt lat="44.59067" lon="1.86772">
        <ele>187</ele>
        <time>2017-09-20T09:37:30Z</time>
      </trkpt>
      <trkpt lat="44.59071" lon="1.86766">
        <ele>186</ele>
        <time>2017-09-20T09:37:34Z</time>
      </trkpt>
      <trkpt lat="44.59074" lon="1.86759">
        <ele>185</ele>
        <time>2017-09-20T09:37:39Z</time>
      </trkpt>
      <trkpt lat="44.59081" lon="1.86748">
        <ele>184</ele>
        <time>2017-09-20T09:37:48Z</time>
      </trkpt>
      <trkpt lat="44.59086" lon="1.86743">
        <ele>181</ele>
        <time>2017-09-20T09:37:53Z</time>
      </trkpt>
      <trkpt lat="44.59096" lon="1.8672">
        <ele>181</ele>
        <time>2017-09-20T09:38:07Z</time>
      </trkpt>
      <trkpt lat="44.59098" lon="1.86718">
        <ele>181</ele>
        <time>2017-09-20T09:38:09Z</time>
      </trkpt>
      <trkpt lat="44.591" lon="1.86711">
        <ele>181</ele>
        <time>2017-09-20T09:38:14Z</time>
      </trkpt>
      <trkpt lat="44.59102" lon="1.86702">
        <ele>182</ele>
        <time>2017-09-20T09:38:21Z</time>
      </trkpt>
      <trkpt lat="44.59103" lon="1.86699">
        <ele>182</ele>
        <time>2017-09-20T09:38:23Z</time>
      </trkpt>
      <trkpt lat="44.59105" lon="1.86692">
        <ele>183</ele>
        <time>2017-09-20T09:38:27Z</time>
      </trkpt>
      <trkpt lat="44.59112" lon="1.86683">
        <ele>183</ele>
        <time>2017-09-20T09:38:36Z</time>
      </trkpt>
      <trkpt lat="44.59114" lon="1.86676">
        <ele>183</ele>
        <time>2017-09-20T09:38:42Z</time>
      </trkpt>
      <trkpt lat="44.59115" lon="1.8667">
        <ele>183</ele>
        <time>2017-09-20T09:38:45Z</time>
      </trkpt>
      <trkpt lat="44.59119" lon="1.86664">
        <ele>188</ele>
        <time>2017-09-20T09:38:51Z</time>
      </trkpt>
      <trkpt lat="44.59122" lon="1.86657">
        <ele>188</ele>
        <time>2017-09-20T09:38:56Z</time>
      </trkpt>
      <trkpt lat="44.59127" lon="1.86647">
        <ele>187</ele>
        <time>2017-09-20T09:39:03Z</time>
      </trkpt>
      <trkpt lat="44.5913" lon="1.86642">
        <ele>187</ele>
        <time>2017-09-20T09:39:06Z</time>
      </trkpt>
      <trkpt lat="44.59132" lon="1.86636">
        <ele>187</ele>
        <time>2017-09-20T09:39:11Z</time>
      </trkpt>
      <trkpt lat="44.59136" lon="1.86632">
        <ele>186</ele>
        <time>2017-09-20T09:39:16Z</time>
      </trkpt>
      <trkpt lat="44.5914" lon="1.86624">
        <ele>186</ele>
        <time>2017-09-20T09:39:20Z</time>
      </trkpt>
      <trkpt lat="44.59146" lon="1.86614">
        <ele>186</ele>
        <time>2017-09-20T09:39:29Z</time>
      </trkpt>
      <trkpt lat="44.59151" lon="1.86598">
        <ele>184</ele>
        <time>2017-09-20T09:39:39Z</time>
      </trkpt>
      <trkpt lat="44.59156" lon="1.86591">
        <ele>183</ele>
        <time>2017-09-20T09:39:44Z</time>
      </trkpt>
      <trkpt lat="44.59159" lon="1.86586">
        <ele>181</ele>
        <time>2017-09-20T09:39:48Z</time>
      </trkpt>
      <trkpt lat="44.59162" lon="1.86581">
        <ele>182</ele>
        <time>2017-09-20T09:39:53Z</time>
      </trkpt>
      <trkpt lat="44.59165" lon="1.86573">
        <ele>185</ele>
        <time>2017-09-20T09:39:57Z</time>
      </trkpt>
      <trkpt lat="44.59172" lon="1.86562">
        <ele>177</ele>
        <time>2017-09-20T09:40:06Z</time>
      </trkpt>
      <trkpt lat="44.59176" lon="1.86555">
        <ele>177</ele>
        <time>2017-09-20T09:40:14Z</time>
      </trkpt>
      <trkpt lat="44.5918" lon="1.8655">
        <ele>177</ele>
        <time>2017-09-20T09:40:19Z</time>
      </trkpt>
      <trkpt lat="44.59188" lon="1.86538">
        <ele>178</ele>
        <time>2017-09-20T09:40:27Z</time>
      </trkpt>
      <trkpt lat="44.59188" lon="1.8653">
        <ele>178</ele>
        <time>2017-09-20T09:40:33Z</time>
      </trkpt>
      <trkpt lat="44.59188" lon="1.86522">
        <ele>179</ele>
        <time>2017-09-20T09:40:39Z</time>
      </trkpt>
      <trkpt lat="44.59189" lon="1.86515">
        <ele>179</ele>
        <time>2017-09-20T09:40:42Z</time>
      </trkpt>
      <trkpt lat="44.59189" lon="1.86501">
        <ele>180</ele>
        <time>2017-09-20T09:40:50Z</time>
      </trkpt>
      <trkpt lat="44.59187" lon="1.86485">
        <ele>183</ele>
        <time>2017-09-20T09:41:01Z</time>
      </trkpt>
      <trkpt lat="44.59188" lon="1.86468">
        <ele>183</ele>
        <time>2017-09-20T09:41:12Z</time>
      </trkpt>
      <trkpt lat="44.59189" lon="1.8646">
        <ele>183</ele>
        <time>2017-09-20T09:41:16Z</time>
      </trkpt>
      <trkpt lat="44.59193" lon="1.86455">
        <ele>183</ele>
        <time>2017-09-20T09:41:21Z</time>
      </trkpt>
      <trkpt lat="44.59195" lon="1.8644">
        <ele>183</ele>
        <time>2017-09-20T09:41:30Z</time>
      </trkpt>
      <trkpt lat="44.59195" lon="1.86434">
        <ele>183</ele>
        <time>2017-09-20T09:41:37Z</time>
      </trkpt>
      <trkpt lat="44.59196" lon="1.86427">
        <ele>183</ele>
        <time>2017-09-20T09:41:39Z</time>
      </trkpt>
      <trkpt lat="44.59201" lon="1.86415">
        <ele>184</ele>
        <time>2017-09-20T09:41:48Z</time>
      </trkpt>
      <trkpt lat="44.59202" lon="1.86408">
        <ele>183</ele>
        <time>2017-09-20T09:41:51Z</time>
      </trkpt>
      <trkpt lat="44.59212" lon="1.86375">
        <ele>182</ele>
        <time>2017-09-20T09:42:14Z</time>
      </trkpt>
      <trkpt lat="44.59214" lon="1.86361">
        <ele>181</ele>
        <time>2017-09-20T09:42:22Z</time>
      </trkpt>
      <trkpt lat="44.59214" lon="1.86353">
        <ele>181</ele>
        <time>2017-09-20T09:42:25Z</time>
      </trkpt>
      <trkpt lat="44.59212" lon="1.8633">
        <ele>181</ele>
        <time>2017-09-20T09:42:33Z</time>
      </trkpt>
      <trkpt lat="44.59212" lon="1.86324">
        <ele>181</ele>
        <time>2017-09-20T09:42:35Z</time>
      </trkpt>
      <trkpt lat="44.59212" lon="1.8632">
        <ele>181</ele>
        <time>2017-09-20T09:42:37Z</time>
      </trkpt>
      <trkpt lat="44.59213" lon="1.8631">
        <ele>181</ele>
        <time>2017-09-20T09:42:43Z</time>
      </trkpt>
      <trkpt lat="44.59213" lon="1.863">
        <ele>181</ele>
        <time>2017-09-20T09:42:48Z</time>
      </trkpt>
      <trkpt lat="44.59213" lon="1.86295">
        <ele>181</ele>
        <time>2017-09-20T09:42:51Z</time>
      </trkpt>
      <trkpt lat="44.59214" lon="1.8629">
        <ele>181</ele>
        <time>2017-09-20T09:42:54Z</time>
      </trkpt>
      <trkpt lat="44.59215" lon="1.86279">
        <ele>181</ele>
        <time>2017-09-20T09:43:00Z</time>
      </trkpt>
      <trkpt lat="44.59218" lon="1.86264">
        <ele>180</ele>
        <time>2017-09-20T09:43:09Z</time>
      </trkpt>
      <trkpt lat="44.5922" lon="1.8625">
        <ele>179</ele>
        <time>2017-09-20T09:43:20Z</time>
      </trkpt>
      <trkpt lat="44.59221" lon="1.8622">
        <ele>179</ele>
        <time>2017-09-20T09:43:50Z</time>
      </trkpt>
      <trkpt lat="44.59222" lon="1.86192">
        <ele>179</ele>
        <time>2017-09-20T09:44:07Z</time>
      </trkpt>
      <trkpt lat="44.59222" lon="1.86189">
        <ele>178</ele>
        <time>2017-09-20T09:44:09Z</time>
      </trkpt>
      <trkpt lat="44.59222" lon="1.86185">
        <ele>178</ele>
        <time>2017-09-20T09:44:12Z</time>
      </trkpt>
      <trkpt lat="44.59222" lon="1.86181">
        <ele>178</ele>
        <time>2017-09-20T09:44:14Z</time>
      </trkpt>
      <trkpt lat="44.59219" lon="1.86132">
        <ele>178</ele>
        <time>2017-09-20T09:44:41Z</time>
      </trkpt>
      <trkpt lat="44.5922" lon="1.86124">
        <ele>178</ele>
        <time>2017-09-20T09:44:46Z</time>
      </trkpt>
      <trkpt lat="44.59224" lon="1.86077">
        <ele>179</ele>
        <time>2017-09-20T09:45:12Z</time>
      </trkpt>
      <trkpt lat="44.59225" lon="1.86073">
        <ele>179</ele>
        <time>2017-09-20T09:45:14Z</time>
      </trkpt>
      <trkpt lat="44.59224" lon="1.86069">
        <ele>180</ele>
        <time>2017-09-20T09:45:17Z</time>
      </trkpt>
      <trkpt lat="44.59221" lon="1.86061">
        <ele>181</ele>
        <time>2017-09-20T09:46:44Z</time>
      </trkpt>
      <trkpt lat="44.59223" lon="1.86056">
        <ele>181</ele>
        <time>2017-09-20T09:46:49Z</time>
      </trkpt>
      <trkpt lat="44.59226" lon="1.86052">
        <ele>181</ele>
        <time>2017-09-20T09:46:53Z</time>
      </trkpt>
      <trkpt lat="44.59228" lon="1.86045">
        <ele>181</ele>
        <time>2017-09-20T09:46:58Z</time>
      </trkpt>
      <trkpt lat="44.59233" lon="1.8603">
        <ele>181</ele>
        <time>2017-09-20T09:47:07Z</time>
      </trkpt>
      <trkpt lat="44.59243" lon="1.85997">
        <ele>179</ele>
        <time>2017-09-20T09:47:28Z</time>
      </trkpt>
      <trkpt lat="44.59249" lon="1.85966">
        <ele>186</ele>
        <time>2017-09-20T09:47:45Z</time>
      </trkpt>
      <trkpt lat="44.59249" lon="1.85951">
        <ele>187</ele>
        <time>2017-09-20T09:47:50Z</time>
      </trkpt>
      <trkpt lat="44.59249" lon="1.85944">
        <ele>186</ele>
        <time>2017-09-20T09:47:53Z</time>
      </trkpt>
      <trkpt lat="44.5925" lon="1.85937">
        <ele>185</ele>
        <time>2017-09-20T09:47:57Z</time>
      </trkpt>
      <trkpt lat="44.5925" lon="1.85928">
        <ele>175</ele>
        <time>2017-09-20T09:48:01Z</time>
      </trkpt>
      <trkpt lat="44.59251" lon="1.85924">
        <ele>175</ele>
        <time>2017-09-20T09:48:03Z</time>
      </trkpt>
      <trkpt lat="44.59253" lon="1.85873">
        <ele>175</ele>
        <time>2017-09-20T09:48:31Z</time>
      </trkpt>
      <trkpt lat="44.59253" lon="1.85867">
        <ele>175</ele>
        <time>2017-09-20T09:48:35Z</time>
      </trkpt>
      <trkpt lat="44.59252" lon="1.8586">
        <ele>175</ele>
        <time>2017-09-20T09:48:39Z</time>
      </trkpt>
      <trkpt lat="44.59251" lon="1.85854">
        <ele>176</ele>
        <time>2017-09-20T09:48:43Z</time>
      </trkpt>
      <trkpt lat="44.59247" lon="1.85809">
        <ele>195</ele>
        <time>2017-09-20T09:49:06Z</time>
      </trkpt>
      <trkpt lat="44.59248" lon="1.85794">
        <ele>197</ele>
        <time>2017-09-20T09:49:15Z</time>
      </trkpt>
      <trkpt lat="44.59247" lon="1.85769">
        <ele>195</ele>
        <time>2017-09-20T09:49:28Z</time>
      </trkpt>
      <trkpt lat="44.59251" lon="1.8574">
        <ele>181</ele>
        <time>2017-09-20T09:49:44Z</time>
      </trkpt>
      <trkpt lat="44.59255" lon="1.85726">
        <ele>180</ele>
        <time>2017-09-20T09:49:53Z</time>
      </trkpt>
      <trkpt lat="44.59256" lon="1.85714">
        <ele>180</ele>
        <time>2017-09-20T09:50:01Z</time>
      </trkpt>
      <trkpt lat="44.59259" lon="1.85699">
        <ele>181</ele>
        <time>2017-09-20T09:50:10Z</time>
      </trkpt>
      <trkpt lat="44.5926" lon="1.85687">
        <ele>182</ele>
        <time>2017-09-20T09:50:18Z</time>
      </trkpt>
      <trkpt lat="44.59264" lon="1.85679">
        <ele>183</ele>
        <time>2017-09-20T09:50:23Z</time>
      </trkpt>
      <trkpt lat="44.59266" lon="1.85669">
        <ele>184</ele>
        <time>2017-09-20T09:50:31Z</time>
      </trkpt>
      <trkpt lat="44.59267" lon="1.85659">
        <ele>186</ele>
        <time>2017-09-20T09:50:36Z</time>
      </trkpt>
      <trkpt lat="44.59269" lon="1.85649">
        <ele>185</ele>
        <time>2017-09-20T09:50:44Z</time>
      </trkpt>
      <trkpt lat="44.59272" lon="1.85639">
        <ele>185</ele>
        <time>2017-09-20T09:50:49Z</time>
      </trkpt>
      <trkpt lat="44.59275" lon="1.85624">
        <ele>185</ele>
        <time>2017-09-20T09:51:01Z</time>
      </trkpt>
      <trkpt lat="44.59279" lon="1.85614">
        <ele>185</ele>
        <time>2017-09-20T09:51:05Z</time>
      </trkpt>
      <trkpt lat="44.59282" lon="1.85603">
        <ele>186</ele>
        <time>2017-09-20T09:51:12Z</time>
      </trkpt>
      <trkpt lat="44.59285" lon="1.85594">
        <ele>186</ele>
        <time>2017-09-20T09:51:17Z</time>
      </trkpt>
      <trkpt lat="44.59286" lon="1.85585">
        <ele>185</ele>
        <time>2017-09-20T09:51:23Z</time>
      </trkpt>
      <trkpt lat="44.59286" lon="1.85575">
        <ele>191</ele>
        <time>2017-09-20T09:51:28Z</time>
      </trkpt>
      <trkpt lat="44.59291" lon="1.85567">
        <ele>190</ele>
        <time>2017-09-20T09:51:34Z</time>
      </trkpt>
      <trkpt lat="44.59294" lon="1.85544">
        <ele>190</ele>
        <time>2017-09-20T09:51:51Z</time>
      </trkpt>
      <trkpt lat="44.59296" lon="1.85534">
        <ele>190</ele>
        <time>2017-09-20T09:51:57Z</time>
      </trkpt>
      <trkpt lat="44.59302" lon="1.85524">
        <ele>189</ele>
        <time>2017-09-20T09:52:05Z</time>
      </trkpt>
      <trkpt lat="44.59306" lon="1.85512">
        <ele>187</ele>
        <time>2017-09-20T09:52:14Z</time>
      </trkpt>
      <trkpt lat="44.59311" lon="1.855">
        <ele>185</ele>
        <time>2017-09-20T09:52:24Z</time>
      </trkpt>
      <trkpt lat="44.59323" lon="1.85483">
        <ele>185</ele>
        <time>2017-09-20T09:52:32Z</time>
      </trkpt>
      <trkpt lat="44.59331" lon="1.85467">
        <ele>187</ele>
        <time>2017-09-20T09:52:41Z</time>
      </trkpt>
      <trkpt lat="44.59334" lon="1.85439">
        <ele>174</ele>
        <time>2017-09-20T09:52:52Z</time>
      </trkpt>
      <trkpt lat="44.59336" lon="1.85432">
        <ele>174</ele>
        <time>2017-09-20T09:52:56Z</time>
      </trkpt>
      <trkpt lat="44.59337" lon="1.85414">
        <ele>175</ele>
        <time>2017-09-20T09:53:03Z</time>
      </trkpt>
      <trkpt lat="44.59334" lon="1.85397">
        <ele>174</ele>
        <time>2017-09-20T09:53:09Z</time>
      </trkpt>
      <trkpt lat="44.59335" lon="1.8539">
        <ele>174</ele>
        <time>2017-09-20T09:53:12Z</time>
      </trkpt>
      <trkpt lat="44.59338" lon="1.85383">
        <ele>174</ele>
        <time>2017-09-20T09:53:15Z</time>
      </trkpt>
      <trkpt lat="44.59339" lon="1.85368">
        <ele>174</ele>
        <time>2017-09-20T09:53:22Z</time>
      </trkpt>
      <trkpt lat="44.59335" lon="1.8536">
        <ele>174</ele>
        <time>2017-09-20T09:53:25Z</time>
      </trkpt>
      <trkpt lat="44.59336" lon="1.85353">
        <ele>174</ele>
        <time>2017-09-20T09:53:28Z</time>
      </trkpt>
      <trkpt lat="44.59336" lon="1.85346">
        <ele>175</ele>
        <time>2017-09-20T09:53:31Z</time>
      </trkpt>
      <trkpt lat="44.59342" lon="1.85306">
        <ele>175</ele>
        <time>2017-09-20T09:53:50Z</time>
      </trkpt>
      <trkpt lat="44.59342" lon="1.85302">
        <ele>175</ele>
        <time>2017-09-20T09:53:52Z</time>
      </trkpt>
      <trkpt lat="44.59345" lon="1.85279">
        <ele>175</ele>
        <time>2017-09-20T09:54:04Z</time>
      </trkpt>
      <trkpt lat="44.59346" lon="1.85275">
        <ele>175</ele>
        <time>2017-09-20T09:54:06Z</time>
      </trkpt>
      <trkpt lat="44.59352" lon="1.85244">
        <ele>176</ele>
        <time>2017-09-20T09:54:23Z</time>
      </trkpt>
      <trkpt lat="44.59353" lon="1.85239">
        <ele>175</ele>
        <time>2017-09-20T09:54:27Z</time>
      </trkpt>
      <trkpt lat="44.59355" lon="1.85216">
        <ele>175</ele>
        <time>2017-09-20T09:54:40Z</time>
      </trkpt>
      <trkpt lat="44.59355" lon="1.85204">
        <ele>175</ele>
        <time>2017-09-20T09:54:46Z</time>
      </trkpt>
      <trkpt lat="44.59355" lon="1.85197">
        <ele>175</ele>
        <time>2017-09-20T09:54:49Z</time>
      </trkpt>
      <trkpt lat="44.59357" lon="1.85193">
        <ele>175</ele>
        <time>2017-09-20T09:54:51Z</time>
      </trkpt>
      <trkpt lat="44.59358" lon="1.85188">
        <ele>175</ele>
        <time>2017-09-20T09:54:54Z</time>
      </trkpt>
      <trkpt lat="44.59359" lon="1.85182">
        <ele>175</ele>
        <time>2017-09-20T09:54:57Z</time>
      </trkpt>
      <trkpt lat="44.59358" lon="1.85152">
        <ele>176</ele>
        <time>2017-09-20T09:55:13Z</time>
      </trkpt>
      <trkpt lat="44.59358" lon="1.85148">
        <ele>176</ele>
        <time>2017-09-20T09:55:15Z</time>
      </trkpt>
      <trkpt lat="44.59358" lon="1.85143">
        <ele>176</ele>
        <time>2017-09-20T09:55:19Z</time>
      </trkpt>
      <trkpt lat="44.59356" lon="1.85097">
        <ele>177</ele>
        <time>2017-09-20T09:55:42Z</time>
      </trkpt>
      <trkpt lat="44.59349" lon="1.85038">
        <ele>176</ele>
        <time>2017-09-20T09:56:13Z</time>
      </trkpt>
      <trkpt lat="44.59346" lon="1.85017">
        <ele>177</ele>
        <time>2017-09-20T09:56:25Z</time>
      </trkpt>
      <trkpt lat="44.59336" lon="1.84974">
        <ele>175</ele>
        <time>2017-09-20T09:56:50Z</time>
      </trkpt>
      <trkpt lat="44.59337" lon="1.84941">
        <ele>175</ele>
        <time>2017-09-20T09:57:08Z</time>
      </trkpt>
      <trkpt lat="44.59338" lon="1.84936">
        <ele>175</ele>
        <time>2017-09-20T09:57:11Z</time>
      </trkpt>
      <trkpt lat="44.59338" lon="1.84931">
        <ele>175</ele>
        <time>2017-09-20T09:57:13Z</time>
      </trkpt>
      <trkpt lat="44.5934" lon="1.84923">
        <ele>176</ele>
        <time>2017-09-20T09:57:17Z</time>
      </trkpt>
      <trkpt lat="44.5934" lon="1.84914">
        <ele>176</ele>
        <time>2017-09-20T09:57:22Z</time>
      </trkpt>
      <trkpt lat="44.5934" lon="1.84908">
        <ele>175</ele>
        <time>2017-09-20T09:57:25Z</time>
      </trkpt>
      <trkpt lat="44.59333" lon="1.84852">
        <ele>185</ele>
        <time>2017-09-20T09:57:55Z</time>
      </trkpt>
      <trkpt lat="44.59332" lon="1.84847">
        <ele>184</ele>
        <time>2017-09-20T09:57:58Z</time>
      </trkpt>
      <trkpt lat="44.59331" lon="1.84844">
        <ele>183</ele>
        <time>2017-09-20T09:58:00Z</time>
      </trkpt>
      <trkpt lat="44.5933" lon="1.84842">
        <ele>182</ele>
        <time>2017-09-20T09:58:01Z</time>
      </trkpt>
      <trkpt lat="44.59328" lon="1.84835">
        <ele>180</ele>
        <time>2017-09-20T09:58:06Z</time>
      </trkpt>
      <trkpt lat="44.59328" lon="1.84823">
        <ele>183</ele>
        <time>2017-09-20T09:58:12Z</time>
      </trkpt>
      <trkpt lat="44.59326" lon="1.84787">
        <ele>187</ele>
        <time>2017-09-20T09:58:31Z</time>
      </trkpt>
      <trkpt lat="44.59326" lon="1.84778">
        <ele>186</ele>
        <time>2017-09-20T09:58:37Z</time>
      </trkpt>
      <trkpt lat="44.59323" lon="1.84734">
        <ele>184</ele>
        <time>2017-09-20T09:59:01Z</time>
      </trkpt>
      <trkpt lat="44.59316" lon="1.84693">
        <ele>188</ele>
        <time>2017-09-20T09:59:23Z</time>
      </trkpt>
      <trkpt lat="44.59312" lon="1.84664">
        <ele>187</ele>
        <time>2017-09-20T09:59:41Z</time>
      </trkpt>
      <trkpt lat="44.59309" lon="1.84658">
        <ele>188</ele>
        <time>2017-09-20T09:59:44Z</time>
      </trkpt>
      <trkpt lat="44.59304" lon="1.84644">
        <ele>191</ele>
        <time>2017-09-20T09:59:53Z</time>
      </trkpt>
      <trkpt lat="44.59303" lon="1.8464">
        <ele>191</ele>
        <time>2017-09-20T09:59:56Z</time>
      </trkpt>
      <trkpt lat="44.59298" lon="1.8463">
        <ele>192</ele>
        <time>2017-09-20T10:00:02Z</time>
      </trkpt>
      <trkpt lat="44.59296" lon="1.84586">
        <ele>192</ele>
        <time>2017-09-20T10:00:24Z</time>
      </trkpt>
      <trkpt lat="44.59296" lon="1.84582">
        <ele>191</ele>
        <time>2017-09-20T10:00:26Z</time>
      </trkpt>
      <trkpt lat="44.59296" lon="1.84577">
        <ele>192</ele>
        <time>2017-09-20T10:00:29Z</time>
      </trkpt>
      <trkpt lat="44.59295" lon="1.84531">
        <ele>192</ele>
        <time>2017-09-20T10:00:55Z</time>
      </trkpt>
      <trkpt lat="44.59294" lon="1.84526">
        <ele>192</ele>
        <time>2017-09-20T10:00:58Z</time>
      </trkpt>
      <trkpt lat="44.59294" lon="1.8452">
        <ele>192</ele>
        <time>2017-09-20T10:01:02Z</time>
      </trkpt>
      <trkpt lat="44.59294" lon="1.84513">
        <ele>192</ele>
        <time>2017-09-20T10:01:07Z</time>
      </trkpt>
      <trkpt lat="44.59294" lon="1.84505">
        <ele>191</ele>
        <time>2017-09-20T10:01:11Z</time>
      </trkpt>
      <trkpt lat="44.59293" lon="1.845">
        <ele>190</ele>
        <time>2017-09-20T10:01:14Z</time>
      </trkpt>
      <trkpt lat="44.59293" lon="1.84495">
        <ele>190</ele>
        <time>2017-09-20T10:01:17Z</time>
      </trkpt>
      <trkpt lat="44.59293" lon="1.84488">
        <ele>190</ele>
        <time>2017-09-20T10:01:21Z</time>
      </trkpt>
      <trkpt lat="44.59292" lon="1.84482">
        <ele>190</ele>
        <time>2017-09-20T10:01:24Z</time>
      </trkpt>
      <trkpt lat="44.59291" lon="1.84475">
        <ele>190</ele>
        <time>2017-09-20T10:01:28Z</time>
      </trkpt>
      <trkpt lat="44.5929" lon="1.84457">
        <ele>190</ele>
        <time>2017-09-20T10:01:39Z</time>
      </trkpt>
      <trkpt lat="44.59289" lon="1.84432">
        <ele>190</ele>
        <time>2017-09-20T10:01:54Z</time>
      </trkpt>
      <trkpt lat="44.59288" lon="1.84426">
        <ele>190</ele>
        <time>2017-09-20T10:01:58Z</time>
      </trkpt>
      <trkpt lat="44.59288" lon="1.8442">
        <ele>190</ele>
        <time>2017-09-20T10:02:01Z</time>
      </trkpt>
      <trkpt lat="44.59285" lon="1.84414">
        <ele>189</ele>
        <time>2017-09-20T10:02:05Z</time>
      </trkpt>
      <trkpt lat="44.59286" lon="1.84409">
        <ele>189</ele>
        <time>2017-09-20T10:02:10Z</time>
      </trkpt>
      <trkpt lat="44.59283" lon="1.84396">
        <ele>189</ele>
        <time>2017-09-20T10:02:18Z</time>
      </trkpt>
      <trkpt lat="44.5928" lon="1.84375">
        <ele>189</ele>
        <time>2017-09-20T10:02:30Z</time>
      </trkpt>
      <trkpt lat="44.59279" lon="1.84368">
        <ele>188</ele>
        <time>2017-09-20T10:02:34Z</time>
      </trkpt>
      <trkpt lat="44.59279" lon="1.84354">
        <ele>189</ele>
        <time>2017-09-20T10:02:41Z</time>
      </trkpt>
      <trkpt lat="44.59279" lon="1.84348">
        <ele>189</ele>
        <time>2017-09-20T10:02:44Z</time>
      </trkpt>
      <trkpt lat="44.59275" lon="1.8434">
        <ele>190</ele>
        <time>2017-09-20T10:02:49Z</time>
      </trkpt>
      <trkpt lat="44.59275" lon="1.84336">
        <ele>190</ele>
        <time>2017-09-20T10:02:52Z</time>
      </trkpt>
      <trkpt lat="44.59269" lon="1.84322">
        <ele>189</ele>
        <time>2017-09-20T10:03:00Z</time>
      </trkpt>
      <trkpt lat="44.5926" lon="1.84309">
        <ele>189</ele>
        <time>2017-09-20T10:03:10Z</time>
      </trkpt>
      <trkpt lat="44.59258" lon="1.84306">
        <ele>189</ele>
        <time>2017-09-20T10:03:12Z</time>
      </trkpt>
      <trkpt lat="44.59256" lon="1.84302">
        <ele>189</ele>
        <time>2017-09-20T10:03:15Z</time>
      </trkpt>
      <trkpt lat="44.59254" lon="1.84298">
        <ele>189</ele>
        <time>2017-09-20T10:03:17Z</time>
      </trkpt>
      <trkpt lat="44.59253" lon="1.84294">
        <ele>188</ele>
        <time>2017-09-20T10:03:19Z</time>
      </trkpt>
      <trkpt lat="44.59253" lon="1.8429">
        <ele>188</ele>
        <time>2017-09-20T10:03:21Z</time>
      </trkpt>
      <trkpt lat="44.59254" lon="1.84285">
        <ele>188</ele>
        <time>2017-09-20T10:03:23Z</time>
      </trkpt>
      <trkpt lat="44.59253" lon="1.84281">
        <ele>188</ele>
        <time>2017-09-20T10:03:25Z</time>
      </trkpt>
      <trkpt lat="44.59253" lon="1.84278">
        <ele>188</ele>
        <time>2017-09-20T10:03:27Z</time>
      </trkpt>
      <trkpt lat="44.59258" lon="1.84259">
        <ele>189</ele>
        <time>2017-09-20T10:03:37Z</time>
      </trkpt>
      <trkpt lat="44.59264" lon="1.84244">
        <ele>187</ele>
        <time>2017-09-20T10:09:40Z</time>
      </trkpt>
      <trkpt lat="44.59265" lon="1.8424">
        <ele>187</ele>
        <time>2017-09-20T10:11:59Z</time>
      </trkpt>
      <trkpt lat="44.59265" lon="1.84238">
        <ele>187</ele>
        <time>2017-09-20T10:03:54Z</time>
      </trkpt>
      <trkpt lat="44.59268" lon="1.84233">
        <ele>186</ele>
        <time>2017-09-20T10:03:58Z</time>
      </trkpt>
      <trkpt lat="44.5927" lon="1.84232">
        <ele>186</ele>
        <time>2017-09-20T10:04:25Z</time>
      </trkpt>
      <trkpt lat="44.59271" lon="1.84229">
        <ele>186</ele>
        <time>2017-09-20T10:04:28Z</time>
      </trkpt>
      <trkpt lat="44.5927" lon="1.84225">
        <ele>185</ele>
        <time>2017-09-20T10:04:31Z</time>
      </trkpt>
      <trkpt lat="44.59269" lon="1.84225">
        <ele>186</ele>
        <time>2017-09-20T10:05:28Z</time>
      </trkpt>
      <trkpt lat="44.5927" lon="1.84226">
        <ele>186</ele>
        <time>2017-09-20T10:06:37Z</time>
      </trkpt>
      <trkpt lat="44.59271" lon="1.8423">
        <ele>186</ele>
        <time>2017-09-20T10:06:51Z</time>
      </trkpt>
      <trkpt lat="44.59273" lon="1.84233">
        <ele>186</ele>
        <time>2017-09-20T10:08:34Z</time>
      </trkpt>
      <trkpt lat="44.59273" lon="1.84233">
        <ele>186</ele>
        <time>2017-09-20T10:08:34Z</time>
      </trkpt>
      <trkpt lat="44.59276" lon="1.84235">
        <ele>185</ele>
        <time>2017-09-20T10:08:54Z</time>
      </trkpt>
      <trkpt lat="44.59274" lon="1.84238">
        <ele>186</ele>
        <time>2017-09-20T10:09:12Z</time>
      </trkpt>
      <trkpt lat="44.5927" lon="1.84239">
        <ele>186</ele>
        <time>2017-09-20T10:09:31Z</time>
      </trkpt>
      <trkpt lat="44.59269" lon="1.84243">
        <ele>187</ele>
        <time>2017-09-20T10:09:35Z</time>
      </trkpt>
      <trkpt lat="44.59264" lon="1.84244">
        <ele>187</ele>
        <time>2017-09-20T10:09:40Z</time>
      </trkpt>
      <trkpt lat="44.59265" lon="1.84241">
        <ele>187</ele>
        <time>2017-09-20T10:11:20Z</time>
      </trkpt>
      <trkpt lat="44.59265" lon="1.8424">
        <ele>187</ele>
        <time>2017-09-20T10:11:59Z</time>
      </trkpt>
      <trkpt lat="44.59275" lon="1.84222">
        <ele>185</ele>
        <time>2017-09-20T10:12:12Z</time>
      </trkpt>
      <trkpt lat="44.59277" lon="1.84219">
        <ele>185</ele>
        <time>2017-09-20T10:12:15Z</time>
      </trkpt>
      <trkpt lat="44.59279" lon="1.84215">
        <ele>184</ele>
        <time>2017-09-20T10:12:21Z</time>
      </trkpt>
      <trkpt lat="44.59279" lon="1.84212">
        <ele>184</ele>
        <time>2017-09-20T10:12:24Z</time>
      </trkpt>
      <trkpt lat="44.59282" lon="1.84212">
        <ele>184</ele>
        <time>2017-09-20T10:12:27Z</time>
      </trkpt>
      <trkpt lat="44.59285" lon="1.8421">
        <ele>184</ele>
        <time>2017-09-20T10:12:30Z</time>
      </trkpt>
      <trkpt lat="44.59286" lon="1.84206">
        <ele>184</ele>
        <time>2017-09-20T10:12:43Z</time>
      </trkpt>
      <trkpt lat="44.59286" lon="1.84202">
        <ele>184</ele>
        <time>2017-09-20T10:13:54Z</time>
      </trkpt>
      <trkpt lat="44.59288" lon="1.84198">
        <ele>184</ele>
        <time>2017-09-20T10:13:57Z</time>
      </trkpt>
      <trkpt lat="44.59291" lon="1.84195">
        <ele>183</ele>
        <time>2017-09-20T10:14:00Z</time>
      </trkpt>
      <trkpt lat="44.59296" lon="1.84189">
        <ele>183</ele>
        <time>2017-09-20T10:14:06Z</time>
      </trkpt>
      <trkpt lat="44.59298" lon="1.84184">
        <ele>183</ele>
        <time>2017-09-20T10:14:09Z</time>
      </trkpt>
      <trkpt lat="44.593" lon="1.84179">
        <ele>183</ele>
        <time>2017-09-20T10:14:12Z</time>
      </trkpt>
      <trkpt lat="44.59303" lon="1.84174">
        <ele>182</ele>
        <time>2017-09-20T10:14:16Z</time>
      </trkpt>
      <trkpt lat="44.5931" lon="1.84145">
        <ele>180</ele>
        <time>2017-09-20T10:14:35Z</time>
      </trkpt>
      <trkpt lat="44.59311" lon="1.8414">
        <ele>180</ele>
        <time>2017-09-20T10:14:38Z</time>
      </trkpt>
      <trkpt lat="44.59309" lon="1.8413">
        <ele>180</ele>
        <time>2017-09-20T10:14:44Z</time>
      </trkpt>
      <trkpt lat="44.59304" lon="1.8412">
        <ele>179</ele>
        <time>2017-09-20T10:14:49Z</time>
      </trkpt>
      <trkpt lat="44.59299" lon="1.84116">
        <ele>179</ele>
        <time>2017-09-20T10:14:54Z</time>
      </trkpt>
      <trkpt lat="44.59294" lon="1.84108">
        <ele>179</ele>
        <time>2017-09-20T10:15:00Z</time>
      </trkpt>
      <trkpt lat="44.59276" lon="1.84098">
        <ele>179</ele>
        <time>2017-09-20T10:15:17Z</time>
      </trkpt>
      <trkpt lat="44.59271" lon="1.84097">
        <ele>178</ele>
        <time>2017-09-20T10:15:26Z</time>
      </trkpt>
      <trkpt lat="44.59262" lon="1.84092">
        <ele>178</ele>
        <time>2017-09-20T10:15:34Z</time>
      </trkpt>
      <trkpt lat="44.59255" lon="1.84082">
        <ele>176</ele>
        <time>2017-09-20T10:15:42Z</time>
      </trkpt>
      <trkpt lat="44.59245" lon="1.84077">
        <ele>175</ele>
        <time>2017-09-20T10:15:50Z</time>
      </trkpt>
      <trkpt lat="44.59243" lon="1.84075">
        <ele>174</ele>
        <time>2017-09-20T10:15:53Z</time>
      </trkpt>
      <trkpt lat="44.59232" lon="1.84074">
        <ele>173</ele>
        <time>2017-09-20T10:16:01Z</time>
      </trkpt>
      <trkpt lat="44.59229" lon="1.84073">
        <ele>173</ele>
        <time>2017-09-20T10:16:03Z</time>
      </trkpt>
      <trkpt lat="44.59227" lon="1.84071">
        <ele>173</ele>
        <time>2017-09-20T10:16:05Z</time>
      </trkpt>
      <trkpt lat="44.59225" lon="1.84068">
        <ele>173</ele>
        <time>2017-09-20T10:16:07Z</time>
      </trkpt>
      <trkpt lat="44.59225" lon="1.84062">
        <ele>173</ele>
        <time>2017-09-20T10:16:10Z</time>
      </trkpt>
      <trkpt lat="44.59228" lon="1.84053">
        <ele>172</ele>
        <time>2017-09-20T10:16:15Z</time>
      </trkpt>
      <trkpt lat="44.59231" lon="1.84049">
        <ele>172</ele>
        <time>2017-09-20T10:16:18Z</time>
      </trkpt>
      <trkpt lat="44.59237" lon="1.84044">
        <ele>172</ele>
        <time>2017-09-20T10:16:23Z</time>
      </trkpt>
      <trkpt lat="44.59253" lon="1.8403">
        <ele>173</ele>
        <time>2017-09-20T10:16:39Z</time>
      </trkpt>
      <trkpt lat="44.59256" lon="1.84026">
        <ele>172</ele>
        <time>2017-09-20T10:16:42Z</time>
      </trkpt>
      <trkpt lat="44.59262" lon="1.84023">
        <ele>172</ele>
        <time>2017-09-20T10:16:47Z</time>
      </trkpt>
      <trkpt lat="44.59265" lon="1.84021">
        <ele>172</ele>
        <time>2017-09-20T10:16:50Z</time>
      </trkpt>
      <trkpt lat="44.59268" lon="1.8402">
        <ele>172</ele>
        <time>2017-09-20T10:16:53Z</time>
      </trkpt>
      <trkpt lat="44.59275" lon="1.84019">
        <ele>172</ele>
        <time>2017-09-20T10:16:58Z</time>
      </trkpt>
      <trkpt lat="44.59285" lon="1.84016">
        <ele>173</ele>
        <time>2017-09-20T10:17:06Z</time>
      </trkpt>
      <trkpt lat="44.59289" lon="1.84013">
        <ele>173</ele>
        <time>2017-09-20T10:17:09Z</time>
      </trkpt>
      <trkpt lat="44.59298" lon="1.84">
        <ele>170</ele>
        <time>2017-09-20T10:17:20Z</time>
      </trkpt>
      <trkpt lat="44.593" lon="1.83994">
        <ele>170</ele>
        <time>2017-09-20T10:17:24Z</time>
      </trkpt>
      <trkpt lat="44.593" lon="1.83978">
        <ele>170</ele>
        <time>2017-09-20T10:17:31Z</time>
      </trkpt>
      <trkpt lat="44.59299" lon="1.83972">
        <ele>170</ele>
        <time>2017-09-20T10:17:34Z</time>
      </trkpt>
      <trkpt lat="44.59299" lon="1.83964">
        <ele>170</ele>
        <time>2017-09-20T10:17:39Z</time>
      </trkpt>
      <trkpt lat="44.593" lon="1.8396">
        <ele>170</ele>
        <time>2017-09-20T10:17:41Z</time>
      </trkpt>
      <trkpt lat="44.59302" lon="1.83956">
        <ele>170</ele>
        <time>2017-09-20T10:17:45Z</time>
      </trkpt>
      <trkpt lat="44.593" lon="1.83955">
        <ele>170</ele>
        <time>2017-09-20T10:17:56Z</time>
      </trkpt>
      <trkpt lat="44.59297" lon="1.83955">
        <ele>170</ele>
        <time>2017-09-20T10:17:59Z</time>
      </trkpt>
      <trkpt lat="44.59297" lon="1.83947">
        <ele>169</ele>
        <time>2017-09-20T10:18:03Z</time>
      </trkpt>
      <trkpt lat="44.59297" lon="1.83943">
        <ele>169</ele>
        <time>2017-09-20T10:18:06Z</time>
      </trkpt>
      <trkpt lat="44.59298" lon="1.83938">
        <ele>169</ele>
        <time>2017-09-20T10:18:10Z</time>
      </trkpt>
      <trkpt lat="44.59298" lon="1.83933">
        <ele>169</ele>
        <time>2017-09-20T10:18:13Z</time>
      </trkpt>
      <trkpt lat="44.59298" lon="1.83924">
        <ele>169</ele>
        <time>2017-09-20T10:18:18Z</time>
      </trkpt>
      <trkpt lat="44.59297" lon="1.83918">
        <ele>169</ele>
        <time>2017-09-20T10:18:21Z</time>
      </trkpt>
      <trkpt lat="44.59291" lon="1.83906">
        <ele>180</ele>
        <time>2017-09-20T10:18:28Z</time>
      </trkpt>
      <trkpt lat="44.59289" lon="1.839">
        <ele>180</ele>
        <time>2017-09-20T10:18:31Z</time>
      </trkpt>
      <trkpt lat="44.59289" lon="1.83892">
        <ele>182</ele>
        <time>2017-09-20T10:19:43Z</time>
      </trkpt>
      <trkpt lat="44.59288" lon="1.83887">
        <ele>183</ele>
        <time>2017-09-20T10:18:47Z</time>
      </trkpt>
      <trkpt lat="44.59289" lon="1.83882">
        <ele>184</ele>
        <time>2017-09-20T10:18:53Z</time>
      </trkpt>
      <trkpt lat="44.5929" lon="1.83884">
        <ele>183</ele>
        <time>2017-09-20T10:19:38Z</time>
      </trkpt>
      <trkpt lat="44.59289" lon="1.83892">
        <ele>182</ele>
        <time>2017-09-20T10:19:43Z</time>
      </trkpt>
      <trkpt lat="44.59289" lon="1.83896">
        <ele>181</ele>
        <time>2017-09-20T10:19:46Z</time>
      </trkpt>
      <trkpt lat="44.59292" lon="1.839">
        <ele>181</ele>
        <time>2017-09-20T10:19:49Z</time>
      </trkpt>
      <trkpt lat="44.59298" lon="1.83914">
        <ele>179</ele>
        <time>2017-09-20T10:19:56Z</time>
      </trkpt>
      <trkpt lat="44.59299" lon="1.83952">
        <ele>170</ele>
        <time>2017-09-20T10:20:15Z</time>
      </trkpt>
      <trkpt lat="44.59302" lon="1.8395">
        <ele>170</ele>
        <time>2017-09-20T10:20:23Z</time>
      </trkpt>
      <trkpt lat="44.59302" lon="1.83946">
        <ele>169</ele>
        <time>2017-09-20T10:20:25Z</time>
      </trkpt>
      <trkpt lat="44.59309" lon="1.83908">
        <ele>178</ele>
        <time>2017-09-20T10:20:47Z</time>
      </trkpt>
      <trkpt lat="44.59321" lon="1.83879">
        <ele>183</ele>
        <time>2017-09-20T10:21:04Z</time>
      </trkpt>
      <trkpt lat="44.59321" lon="1.83873">
        <ele>184</ele>
        <time>2017-09-20T10:21:07Z</time>
      </trkpt>
      <trkpt lat="44.59324" lon="1.83866">
        <ele>186</ele>
        <time>2017-09-20T10:21:12Z</time>
      </trkpt>
      <trkpt lat="44.59327" lon="1.83862">
        <ele>187</ele>
        <time>2017-09-20T10:21:15Z</time>
      </trkpt>
      <trkpt lat="44.59331" lon="1.83859">
        <ele>187</ele>
        <time>2017-09-20T10:21:19Z</time>
      </trkpt>
      <trkpt lat="44.59336" lon="1.83853">
        <ele>189</ele>
        <time>2017-09-20T10:21:25Z</time>
      </trkpt>
      <trkpt lat="44.5934" lon="1.83851">
        <ele>190</ele>
        <time>2017-09-20T10:21:28Z</time>
      </trkpt>
      <trkpt lat="44.59373" lon="1.83857">
        <ele>190</ele>
        <time>2017-09-20T10:21:55Z</time>
      </trkpt>
      <trkpt lat="44.5939" lon="1.83865">
        <ele>190</ele>
        <time>2017-09-20T10:22:08Z</time>
      </trkpt>
      <trkpt lat="44.59424" lon="1.83892">
        <ele>191</ele>
        <time>2017-09-20T10:22:36Z</time>
      </trkpt>
      <trkpt lat="44.59438" lon="1.83906">
        <ele>190</ele>
        <time>2017-09-20T10:22:45Z</time>
      </trkpt>
      <trkpt lat="44.59442" lon="1.83911">
        <ele>190</ele>
        <time>2017-09-20T10:22:48Z</time>
      </trkpt>
      <trkpt lat="44.59468" lon="1.83961">
        <ele>177</ele>
        <time>2017-09-20T10:23:20Z</time>
      </trkpt>
      <trkpt lat="44.59469" lon="1.83965">
        <ele>176</ele>
        <time>2017-09-20T10:23:22Z</time>
      </trkpt>
      <trkpt lat="44.59483" lon="1.83998">
        <ele>174</ele>
        <time>2017-09-20T10:23:43Z</time>
      </trkpt>
      <trkpt lat="44.59485" lon="1.84003">
        <ele>170</ele>
        <time>2017-09-20T10:23:46Z</time>
      </trkpt>
      <trkpt lat="44.59489" lon="1.84011">
        <ele>170</ele>
        <time>2017-09-20T10:23:51Z</time>
      </trkpt>
      <trkpt lat="44.59493" lon="1.84024">
        <ele>170</ele>
        <time>2017-09-20T10:24:00Z</time>
      </trkpt>
      <trkpt lat="44.59513" lon="1.8407">
        <ele>173</ele>
        <time>2017-09-20T10:24:30Z</time>
      </trkpt>
      <trkpt lat="44.59516" lon="1.84072">
        <ele>173</ele>
        <time>2017-09-20T10:24:34Z</time>
      </trkpt>
      <trkpt lat="44.59525" lon="1.84064">
        <ele>175</ele>
        <time>2017-09-20T10:24:45Z</time>
      </trkpt>
      <trkpt lat="44.59537" lon="1.84041">
        <ele>177</ele>
        <time>2017-09-20T10:25:02Z</time>
      </trkpt>
      <trkpt lat="44.59541" lon="1.84038">
        <ele>178</ele>
        <time>2017-09-20T10:25:05Z</time>
      </trkpt>
      <trkpt lat="44.59554" lon="1.84032">
        <ele>179</ele>
        <time>2017-09-20T10:25:15Z</time>
      </trkpt>
      <trkpt lat="44.59557" lon="1.84032">
        <ele>179</ele>
        <time>2017-09-20T10:25:18Z</time>
      </trkpt>
      <trkpt lat="44.59561" lon="1.84031">
        <ele>180</ele>
        <time>2017-09-20T10:25:22Z</time>
      </trkpt>
      <trkpt lat="44.59562" lon="1.84026">
        <ele>180</ele>
        <time>2017-09-20T10:25:25Z</time>
      </trkpt>
      <trkpt lat="44.59562" lon="1.84022">
        <ele>181</ele>
        <time>2017-09-20T10:25:29Z</time>
      </trkpt>
      <trkpt lat="44.59561" lon="1.84017">
        <ele>181</ele>
        <time>2017-09-20T10:25:32Z</time>
      </trkpt>
      <trkpt lat="44.5956" lon="1.84013">
        <ele>181</ele>
        <time>2017-09-20T10:25:35Z</time>
      </trkpt>
      <trkpt lat="44.59551" lon="1.84003">
        <ele>180</ele>
        <time>2017-09-20T10:25:46Z</time>
      </trkpt>
      <trkpt lat="44.59549" lon="1.83999">
        <ele>188</ele>
        <time>2017-09-20T10:25:49Z</time>
      </trkpt>
      <trkpt lat="44.59538" lon="1.83981">
        <ele>188</ele>
        <time>2017-09-20T10:26:02Z</time>
      </trkpt>
      <trkpt lat="44.59537" lon="1.83978">
        <ele>189</ele>
        <time>2017-09-20T10:26:04Z</time>
      </trkpt>
      <trkpt lat="44.59535" lon="1.83974">
        <ele>189</ele>
        <time>2017-09-20T10:26:06Z</time>
      </trkpt>
      <trkpt lat="44.59529" lon="1.83954">
        <ele>191</ele>
        <time>2017-09-20T10:26:22Z</time>
      </trkpt>
      <trkpt lat="44.59528" lon="1.8395">
        <ele>191</ele>
        <time>2017-09-20T10:26:25Z</time>
      </trkpt>
      <trkpt lat="44.59518" lon="1.8392">
        <ele>192</ele>
        <time>2017-09-20T10:26:45Z</time>
      </trkpt>
      <trkpt lat="44.59512" lon="1.83914">
        <ele>201</ele>
        <time>2017-09-20T10:26:52Z</time>
      </trkpt>
      <trkpt lat="44.59508" lon="1.83905">
        <ele>202</ele>
        <time>2017-09-20T10:27:01Z</time>
      </trkpt>
      <trkpt lat="44.59501" lon="1.83892">
        <ele>207</ele>
        <time>2017-09-20T10:27:12Z</time>
      </trkpt>
      <trkpt lat="44.59499" lon="1.83889">
        <ele>199</ele>
        <time>2017-09-20T10:27:15Z</time>
      </trkpt>
      <trkpt lat="44.59493" lon="1.83883">
        <ele>200</ele>
        <time>2017-09-20T10:27:21Z</time>
      </trkpt>
      <trkpt lat="44.59491" lon="1.83879">
        <ele>201</ele>
        <time>2017-09-20T10:27:24Z</time>
      </trkpt>
      <trkpt lat="44.59482" lon="1.83871">
        <ele>203</ele>
        <time>2017-09-20T10:27:33Z</time>
      </trkpt>
      <trkpt lat="44.5948" lon="1.83868">
        <ele>203</ele>
        <time>2017-09-20T10:27:35Z</time>
      </trkpt>
      <trkpt lat="44.59477" lon="1.83866">
        <ele>204</ele>
        <time>2017-09-20T10:27:37Z</time>
      </trkpt>
      <trkpt lat="44.59475" lon="1.8386">
        <ele>205</ele>
        <time>2017-09-20T10:27:40Z</time>
      </trkpt>
      <trkpt lat="44.59476" lon="1.83854">
        <ele>206</ele>
        <time>2017-09-20T10:27:44Z</time>
      </trkpt>
      <trkpt lat="44.59481" lon="1.83853">
        <ele>208</ele>
        <time>2017-09-20T10:27:49Z</time>
      </trkpt>
      <trkpt lat="44.59485" lon="1.8385">
        <ele>209</ele>
        <time>2017-09-20T10:27:55Z</time>
      </trkpt>
      <trkpt lat="44.59487" lon="1.83844">
        <ele>212</ele>
        <time>2017-09-20T10:28:00Z</time>
      </trkpt>
      <trkpt lat="44.59502" lon="1.83844">
        <ele>220</ele>
        <time>2017-09-20T10:28:20Z</time>
      </trkpt>
      <trkpt lat="44.59528" lon="1.83845">
        <ele>219</ele>
        <time>2017-09-20T10:28:41Z</time>
      </trkpt>
      <trkpt lat="44.59531" lon="1.83847">
        <ele>219</ele>
        <time>2017-09-20T10:28:44Z</time>
      </trkpt>
      <trkpt lat="44.59539" lon="1.83852">
        <ele>219</ele>
        <time>2017-09-20T10:28:52Z</time>
      </trkpt>
      <trkpt lat="44.5955" lon="1.83863">
        <ele>219</ele>
        <time>2017-09-20T10:29:02Z</time>
      </trkpt>
      <trkpt lat="44.59554" lon="1.83867">
        <ele>218</ele>
        <time>2017-09-20T10:29:07Z</time>
      </trkpt>
      <trkpt lat="44.5956" lon="1.8387">
        <ele>218</ele>
        <time>2017-09-20T10:29:11Z</time>
      </trkpt>
      <trkpt lat="44.59563" lon="1.83873">
        <ele>218</ele>
        <time>2017-09-20T10:29:14Z</time>
      </trkpt>
      <trkpt lat="44.59566" lon="1.83877">
        <ele>218</ele>
        <time>2017-09-20T10:29:18Z</time>
      </trkpt>
      <trkpt lat="44.5957" lon="1.83879">
        <ele>218</ele>
        <time>2017-09-20T10:29:21Z</time>
      </trkpt>
      <trkpt lat="44.59574" lon="1.83883">
        <ele>217</ele>
        <time>2017-09-20T10:29:25Z</time>
      </trkpt>
      <trkpt lat="44.5958" lon="1.83887">
        <ele>217</ele>
        <time>2017-09-20T10:29:31Z</time>
      </trkpt>
      <trkpt lat="44.59584" lon="1.83887">
        <ele>220</ele>
        <time>2017-09-20T10:29:34Z</time>
      </trkpt>
      <trkpt lat="44.59587" lon="1.83886">
        <ele>220</ele>
        <time>2017-09-20T10:29:37Z</time>
      </trkpt>
      <trkpt lat="44.59604" lon="1.83878">
        <ele>221</ele>
        <time>2017-09-20T10:29:53Z</time>
      </trkpt>
      <trkpt lat="44.59612" lon="1.83869">
        <ele>222</ele>
        <time>2017-09-20T10:30:01Z</time>
      </trkpt>
      <trkpt lat="44.59618" lon="1.83857">
        <ele>223</ele>
        <time>2017-09-20T10:30:10Z</time>
      </trkpt>
      <trkpt lat="44.59621" lon="1.8385">
        <ele>224</ele>
        <time>2017-09-20T10:30:15Z</time>
      </trkpt>
      <trkpt lat="44.59623" lon="1.83844">
        <ele>224</ele>
        <time>2017-09-20T10:30:19Z</time>
      </trkpt>
      <trkpt lat="44.59627" lon="1.83839">
        <ele>224</ele>
        <time>2017-09-20T10:30:24Z</time>
      </trkpt>
      <trkpt lat="44.59631" lon="1.83833">
        <ele>233</ele>
        <time>2017-09-20T10:30:28Z</time>
      </trkpt>
      <trkpt lat="44.59635" lon="1.83827">
        <ele>233</ele>
        <time>2017-09-20T10:30:32Z</time>
      </trkpt>
      <trkpt lat="44.59636" lon="1.83819">
        <ele>233</ele>
        <time>2017-09-20T10:30:37Z</time>
      </trkpt>
      <trkpt lat="44.5964" lon="1.83805">
        <ele>234</ele>
        <time>2017-09-20T10:30:46Z</time>
      </trkpt>
      <trkpt lat="44.5964" lon="1.83795">
        <ele>235</ele>
        <time>2017-09-20T10:30:51Z</time>
      </trkpt>
      <trkpt lat="44.59647" lon="1.83763">
        <ele>238</ele>
        <time>2017-09-20T10:31:10Z</time>
      </trkpt>
      <trkpt lat="44.59652" lon="1.83758">
        <ele>238</ele>
        <time>2017-09-20T10:31:15Z</time>
      </trkpt>
      <trkpt lat="44.59656" lon="1.8376">
        <ele>238</ele>
        <time>2017-09-20T10:31:21Z</time>
      </trkpt>
      <trkpt lat="44.59659" lon="1.83765">
        <ele>237</ele>
        <time>2017-09-20T10:31:25Z</time>
      </trkpt>
      <trkpt lat="44.59686" lon="1.83801">
        <ele>241</ele>
        <time>2017-09-20T10:31:52Z</time>
      </trkpt>
      <trkpt lat="44.59692" lon="1.83817">
        <ele>240</ele>
        <time>2017-09-20T10:32:02Z</time>
      </trkpt>
      <trkpt lat="44.59694" lon="1.83822">
        <ele>240</ele>
        <time>2017-09-20T10:32:05Z</time>
      </trkpt>
      <trkpt lat="44.59696" lon="1.83826">
        <ele>240</ele>
        <time>2017-09-20T10:32:08Z</time>
      </trkpt>
      <trkpt lat="44.59696" lon="1.83832">
        <ele>240</ele>
        <time>2017-09-20T10:32:12Z</time>
      </trkpt>
      <trkpt lat="44.5971" lon="1.83858">
        <ele>233</ele>
        <time>2017-09-20T10:32:27Z</time>
      </trkpt>
      <trkpt lat="44.59712" lon="1.83863">
        <ele>233</ele>
        <time>2017-09-20T10:32:30Z</time>
      </trkpt>
      <trkpt lat="44.59716" lon="1.83873">
        <ele>233</ele>
        <time>2017-09-20T10:32:37Z</time>
      </trkpt>
      <trkpt lat="44.59706" lon="1.83829">
        <ele>243</ele>
        <time>2017-09-20T10:33:05Z</time>
      </trkpt>
      <trkpt lat="44.59694" lon="1.83787">
        <ele>244</ele>
        <time>2017-09-20T10:33:31Z</time>
      </trkpt>
      <trkpt lat="44.59692" lon="1.83783">
        <ele>245</ele>
        <time>2017-09-20T10:33:34Z</time>
      </trkpt>
      <trkpt lat="44.5969" lon="1.83773">
        <ele>245</ele>
        <time>2017-09-20T10:33:40Z</time>
      </trkpt>
      <trkpt lat="44.59685" lon="1.83757">
        <ele>244</ele>
        <time>2017-09-20T10:33:49Z</time>
      </trkpt>
      <trkpt lat="44.59673" lon="1.83728">
        <ele>252</ele>
        <time>2017-09-20T10:34:08Z</time>
      </trkpt>
      <trkpt lat="44.59661" lon="1.83694">
        <ele>249</ele>
        <time>2017-09-20T10:34:29Z</time>
      </trkpt>
      <trkpt lat="44.59659" lon="1.8369">
        <ele>249</ele>
        <time>2017-09-20T10:34:33Z</time>
      </trkpt>
      <trkpt lat="44.59657" lon="1.83684">
        <ele>250</ele>
        <time>2017-09-20T10:34:36Z</time>
      </trkpt>
      <trkpt lat="44.59657" lon="1.83678">
        <ele>250</ele>
        <time>2017-09-20T10:34:39Z</time>
      </trkpt>
      <trkpt lat="44.5966" lon="1.8364">
        <ele>256</ele>
        <time>2017-09-20T10:34:59Z</time>
      </trkpt>
      <trkpt lat="44.59663" lon="1.83624">
        <ele>257</ele>
        <time>2017-09-20T10:35:08Z</time>
      </trkpt>
      <trkpt lat="44.59664" lon="1.83621">
        <ele>257</ele>
        <time>2017-09-20T10:35:10Z</time>
      </trkpt>
      <trkpt lat="44.59666" lon="1.83613">
        <ele>257</ele>
        <time>2017-09-20T10:35:15Z</time>
      </trkpt>
      <trkpt lat="44.59668" lon="1.8361">
        <ele>263</ele>
        <time>2017-09-20T10:35:18Z</time>
      </trkpt>
      <trkpt lat="44.5967" lon="1.83599">
        <ele>262</ele>
        <time>2017-09-20T10:35:24Z</time>
      </trkpt>
      <trkpt lat="44.59677" lon="1.83584">
        <ele>261</ele>
        <time>2017-09-20T10:35:36Z</time>
      </trkpt>
      <trkpt lat="44.59678" lon="1.83575">
        <ele>263</ele>
        <time>2017-09-20T10:35:42Z</time>
      </trkpt>
      <trkpt lat="44.59678" lon="1.8357">
        <ele>264</ele>
        <time>2017-09-20T10:35:48Z</time>
      </trkpt>
      <trkpt lat="44.5968" lon="1.83559">
        <ele>266</ele>
        <time>2017-09-20T10:36:01Z</time>
      </trkpt>
      <trkpt lat="44.59696" lon="1.83512">
        <ele>269</ele>
        <time>2017-09-20T10:36:31Z</time>
      </trkpt>
      <trkpt lat="44.597" lon="1.83493">
        <ele>271</ele>
        <time>2017-09-20T10:36:42Z</time>
      </trkpt>
      <trkpt lat="44.59705" lon="1.83477">
        <ele>272</ele>
        <time>2017-09-20T10:36:50Z</time>
      </trkpt>
      <trkpt lat="44.59706" lon="1.83473">
        <ele>272</ele>
        <time>2017-09-20T10:36:53Z</time>
      </trkpt>
      <trkpt lat="44.59711" lon="1.83458">
        <ele>273</ele>
        <time>2017-09-20T10:37:03Z</time>
      </trkpt>
      <trkpt lat="44.59713" lon="1.83455">
        <ele>273</ele>
        <time>2017-09-20T10:37:06Z</time>
      </trkpt>
      <trkpt lat="44.59716" lon="1.83446">
        <ele>273</ele>
        <time>2017-09-20T10:37:12Z</time>
      </trkpt>
      <trkpt lat="44.59717" lon="1.83441">
        <ele>273</ele>
        <time>2017-09-20T10:37:15Z</time>
      </trkpt>
      <trkpt lat="44.59723" lon="1.8342">
        <ele>274</ele>
        <time>2017-09-20T10:37:27Z</time>
      </trkpt>
      <trkpt lat="44.59729" lon="1.83399">
        <ele>277</ele>
        <time>2017-09-20T10:37:40Z</time>
      </trkpt>
      <trkpt lat="44.59733" lon="1.83388">
        <ele>277</ele>
        <time>2017-09-20T10:37:47Z</time>
      </trkpt>
      <trkpt lat="44.59735" lon="1.83382">
        <ele>277</ele>
        <time>2017-09-20T10:37:50Z</time>
      </trkpt>
      <trkpt lat="44.59738" lon="1.83366">
        <ele>278</ele>
        <time>2017-09-20T10:37:59Z</time>
      </trkpt>
      <trkpt lat="44.59742" lon="1.8335">
        <ele>278</ele>
        <time>2017-09-20T10:38:11Z</time>
      </trkpt>
      <trkpt lat="44.59744" lon="1.83346">
        <ele>279</ele>
        <time>2017-09-20T10:38:14Z</time>
      </trkpt>
      <trkpt lat="44.59747" lon="1.83341">
        <ele>279</ele>
        <time>2017-09-20T10:38:17Z</time>
      </trkpt>
      <trkpt lat="44.59751" lon="1.83324">
        <ele>283</ele>
        <time>2017-09-20T10:38:27Z</time>
      </trkpt>
      <trkpt lat="44.59755" lon="1.83314">
        <ele>285</ele>
        <time>2017-09-20T10:38:34Z</time>
      </trkpt>
      <trkpt lat="44.59768" lon="1.83266">
        <ele>288</ele>
        <time>2017-09-20T10:39:03Z</time>
      </trkpt>
      <trkpt lat="44.59769" lon="1.83253">
        <ele>287</ele>
        <time>2017-09-20T10:39:11Z</time>
      </trkpt>
      <trkpt lat="44.59772" lon="1.83235">
        <ele>290</ele>
        <time>2017-09-20T10:39:21Z</time>
      </trkpt>
      <trkpt lat="44.59773" lon="1.83228">
        <ele>291</ele>
        <time>2017-09-20T10:39:25Z</time>
      </trkpt>
      <trkpt lat="44.59773" lon="1.83223">
        <ele>291</ele>
        <time>2017-09-20T10:39:29Z</time>
      </trkpt>
      <trkpt lat="44.59768" lon="1.83186">
        <ele>292</ele>
        <time>2017-09-20T10:39:49Z</time>
      </trkpt>
      <trkpt lat="44.59757" lon="1.83152">
        <ele>293</ele>
        <time>2017-09-20T10:40:10Z</time>
      </trkpt>
      <trkpt lat="44.59756" lon="1.83149">
        <ele>294</ele>
        <time>2017-09-20T10:40:14Z</time>
      </trkpt>
      <trkpt lat="44.59755" lon="1.83146">
        <ele>294</ele>
        <time>2017-09-20T10:40:16Z</time>
      </trkpt>
      <trkpt lat="44.59754" lon="1.83144">
        <ele>294</ele>
        <time>2017-09-20T10:40:21Z</time>
      </trkpt>
      <trkpt lat="44.59746" lon="1.8314">
        <ele>295</ele>
        <time>2017-09-20T10:40:30Z</time>
      </trkpt>
      <trkpt lat="44.59741" lon="1.83134">
        <ele>295</ele>
        <time>2017-09-20T10:40:36Z</time>
      </trkpt>
      <trkpt lat="44.5974" lon="1.8313">
        <ele>296</ele>
        <time>2017-09-20T10:40:39Z</time>
      </trkpt>
      <trkpt lat="44.59739" lon="1.83125">
        <ele>296</ele>
        <time>2017-09-20T10:40:42Z</time>
      </trkpt>
      <trkpt lat="44.5974" lon="1.83119">
        <ele>297</ele>
        <time>2017-09-20T10:40:47Z</time>
      </trkpt>
      <trkpt lat="44.59739" lon="1.83113">
        <ele>297</ele>
        <time>2017-09-20T10:40:53Z</time>
      </trkpt>
      <trkpt lat="44.59736" lon="1.83104">
        <ele>297</ele>
        <time>2017-09-20T10:41:00Z</time>
      </trkpt>
      <trkpt lat="44.59731" lon="1.831">
        <ele>298</ele>
        <time>2017-09-20T10:41:05Z</time>
      </trkpt>
      <trkpt lat="44.59725" lon="1.83096">
        <ele>298</ele>
        <time>2017-09-20T10:41:10Z</time>
      </trkpt>
      <trkpt lat="44.59721" lon="1.83093">
        <ele>298</ele>
        <time>2017-09-20T10:41:14Z</time>
      </trkpt>
      <trkpt lat="44.59694" lon="1.83077">
        <ele>301</ele>
        <time>2017-09-20T10:41:40Z</time>
      </trkpt>
      <trkpt lat="44.5969" lon="1.83076">
        <ele>301</ele>
        <time>2017-09-20T10:41:44Z</time>
      </trkpt>
      <trkpt lat="44.5968" lon="1.83075">
        <ele>301</ele>
        <time>2017-09-20T10:41:52Z</time>
      </trkpt>
      <trkpt lat="44.59677" lon="1.83077">
        <ele>301</ele>
        <time>2017-09-20T10:41:56Z</time>
      </trkpt>
      <trkpt lat="44.59673" lon="1.8308">
        <ele>302</ele>
        <time>2017-09-20T10:42:02Z</time>
      </trkpt>
      <trkpt lat="44.59667" lon="1.83081">
        <ele>302</ele>
        <time>2017-09-20T10:42:07Z</time>
      </trkpt>
      <trkpt lat="44.59662" lon="1.83082">
        <ele>303</ele>
        <time>2017-09-20T10:42:13Z</time>
      </trkpt>
      <trkpt lat="44.59655" lon="1.83083">
        <ele>303</ele>
        <time>2017-09-20T10:42:17Z</time>
      </trkpt>
      <trkpt lat="44.5964" lon="1.83083">
        <ele>304</ele>
        <time>2017-09-20T10:42:29Z</time>
      </trkpt>
      <trkpt lat="44.59636" lon="1.83084">
        <ele>303</ele>
        <time>2017-09-20T10:42:33Z</time>
      </trkpt>
      <trkpt lat="44.59631" lon="1.83084">
        <ele>304</ele>
        <time>2017-09-20T10:42:38Z</time>
      </trkpt>
      <trkpt lat="44.59622" lon="1.8308">
        <ele>305</ele>
        <time>2017-09-20T10:42:45Z</time>
      </trkpt>
      <trkpt lat="44.59607" lon="1.83066">
        <ele>305</ele>
        <time>2017-09-20T10:42:58Z</time>
      </trkpt>
      <trkpt lat="44.59605" lon="1.83063">
        <ele>306</ele>
        <time>2017-09-20T10:43:01Z</time>
      </trkpt>
      <trkpt lat="44.59602" lon="1.8306">
        <ele>306</ele>
        <time>2017-09-20T10:43:06Z</time>
      </trkpt>
      <trkpt lat="44.59597" lon="1.83056">
        <ele>306</ele>
        <time>2017-09-20T10:43:11Z</time>
      </trkpt>
      <trkpt lat="44.59593" lon="1.83054">
        <ele>306</ele>
        <time>2017-09-20T10:43:14Z</time>
      </trkpt>
      <trkpt lat="44.59571" lon="1.83032">
        <ele>311</ele>
        <time>2017-09-20T10:43:37Z</time>
      </trkpt>
      <trkpt lat="44.59564" lon="1.8302">
        <ele>311</ele>
        <time>2017-09-20T10:43:46Z</time>
      </trkpt>
      <trkpt lat="44.59562" lon="1.83017">
        <ele>311</ele>
        <time>2017-09-20T10:43:49Z</time>
      </trkpt>
      <trkpt lat="44.5956" lon="1.83013">
        <ele>311</ele>
        <time>2017-09-20T10:43:52Z</time>
      </trkpt>
      <trkpt lat="44.59554" lon="1.83005">
        <ele>312</ele>
        <time>2017-09-20T10:43:59Z</time>
      </trkpt>
      <trkpt lat="44.59552" lon="1.83002">
        <ele>312</ele>
        <time>2017-09-20T10:44:02Z</time>
      </trkpt>
      <trkpt lat="44.59549" lon="1.82998">
        <ele>316</ele>
        <time>2017-09-20T10:44:06Z</time>
      </trkpt>
      <trkpt lat="44.59545" lon="1.82995">
        <ele>316</ele>
        <time>2017-09-20T10:44:09Z</time>
      </trkpt>
      <trkpt lat="44.59533" lon="1.82978">
        <ele>317</ele>
        <time>2017-09-20T10:44:21Z</time>
      </trkpt>
      <trkpt lat="44.59531" lon="1.82975">
        <ele>317</ele>
        <time>2017-09-20T10:44:24Z</time>
      </trkpt>
      <trkpt lat="44.59512" lon="1.82951">
        <ele>319</ele>
        <time>2017-09-20T10:44:53Z</time>
      </trkpt>
      <trkpt lat="44.59509" lon="1.82946">
        <ele>320</ele>
        <time>2017-09-20T10:44:58Z</time>
      </trkpt>
      <trkpt lat="44.59503" lon="1.82939">
        <ele>321</ele>
        <time>2017-09-20T10:45:05Z</time>
      </trkpt>
      <trkpt lat="44.59491" lon="1.82937">
        <ele>325</ele>
        <time>2017-09-20T10:45:13Z</time>
      </trkpt>
      <trkpt lat="44.59484" lon="1.82938">
        <ele>325</ele>
        <time>2017-09-20T10:45:19Z</time>
      </trkpt>
      <trkpt lat="44.59481" lon="1.82939">
        <ele>325</ele>
        <time>2017-09-20T10:45:21Z</time>
      </trkpt>
      <trkpt lat="44.59468" lon="1.82932">
        <ele>326</ele>
        <time>2017-09-20T10:45:33Z</time>
      </trkpt>
      <trkpt lat="44.59466" lon="1.8293">
        <ele>326</ele>
        <time>2017-09-20T10:45:35Z</time>
      </trkpt>
      <trkpt lat="44.59457" lon="1.82924">
        <ele>326</ele>
        <time>2017-09-20T10:45:47Z</time>
      </trkpt>
      <trkpt lat="44.5945" lon="1.82919">
        <ele>326</ele>
        <time>2017-09-20T10:45:54Z</time>
      </trkpt>
      <trkpt lat="44.59446" lon="1.82918">
        <ele>327</ele>
        <time>2017-09-20T10:45:58Z</time>
      </trkpt>
      <trkpt lat="44.59442" lon="1.82916">
        <ele>331</ele>
        <time>2017-09-20T10:46:01Z</time>
      </trkpt>
      <trkpt lat="44.59434" lon="1.82914">
        <ele>331</ele>
        <time>2017-09-20T10:46:09Z</time>
      </trkpt>
      <trkpt lat="44.59428" lon="1.82911">
        <ele>331</ele>
        <time>2017-09-20T10:46:14Z</time>
      </trkpt>
      <trkpt lat="44.59418" lon="1.82908">
        <ele>331</ele>
        <time>2017-09-20T10:46:22Z</time>
      </trkpt>
      <trkpt lat="44.59402" lon="1.82908">
        <ele>333</ele>
        <time>2017-09-20T10:46:34Z</time>
      </trkpt>
      <trkpt lat="44.594" lon="1.82908">
        <ele>333</ele>
        <time>2017-09-20T10:46:36Z</time>
      </trkpt>
      <trkpt lat="44.59387" lon="1.82905">
        <ele>334</ele>
        <time>2017-09-20T10:46:46Z</time>
      </trkpt>
      <trkpt lat="44.59385" lon="1.82905">
        <ele>334</ele>
        <time>2017-09-20T10:46:48Z</time>
      </trkpt>
      <trkpt lat="44.5938" lon="1.82901">
        <ele>334</ele>
        <time>2017-09-20T10:46:52Z</time>
      </trkpt>
      <trkpt lat="44.59378" lon="1.829">
        <ele>334</ele>
        <time>2017-09-20T10:46:54Z</time>
      </trkpt>
      <trkpt lat="44.59359" lon="1.82896">
        <ele>335</ele>
        <time>2017-09-20T10:47:10Z</time>
      </trkpt>
      <trkpt lat="44.59356" lon="1.82896">
        <ele>335</ele>
        <time>2017-09-20T10:47:12Z</time>
      </trkpt>
      <trkpt lat="44.59351" lon="1.82892">
        <ele>335</ele>
        <time>2017-09-20T10:47:16Z</time>
      </trkpt>
      <trkpt lat="44.59342" lon="1.82883">
        <ele>335</ele>
        <time>2017-09-20T10:47:24Z</time>
      </trkpt>
      <trkpt lat="44.5934" lon="1.82881">
        <ele>335</ele>
        <time>2017-09-20T10:47:26Z</time>
      </trkpt>
      <trkpt lat="44.59338" lon="1.8288">
        <ele>335</ele>
        <time>2017-09-20T10:47:27Z</time>
      </trkpt>
      <trkpt lat="44.59306" lon="1.82849">
        <ele>334</ele>
        <time>2017-09-20T10:47:57Z</time>
      </trkpt>
      <trkpt lat="44.59274" lon="1.82814">
        <ele>336</ele>
        <time>2017-09-20T10:48:27Z</time>
      </trkpt>
      <trkpt lat="44.59263" lon="1.82798">
        <ele>336</ele>
        <time>2017-09-20T10:48:39Z</time>
      </trkpt>
      <trkpt lat="44.59258" lon="1.82787">
        <ele>337</ele>
        <time>2017-09-20T10:48:47Z</time>
      </trkpt>
      <trkpt lat="44.59255" lon="1.82777">
        <ele>337</ele>
        <time>2017-09-20T10:48:53Z</time>
      </trkpt>
      <trkpt lat="44.59254" lon="1.82772">
        <ele>337</ele>
        <time>2017-09-20T10:48:57Z</time>
      </trkpt>
      <trkpt lat="44.59249" lon="1.82768">
        <ele>334</ele>
        <time>2017-09-20T10:49:02Z</time>
      </trkpt>
      <trkpt lat="44.59228" lon="1.82745">
        <ele>335</ele>
        <time>2017-09-20T10:49:24Z</time>
      </trkpt>
      <trkpt lat="44.59225" lon="1.82741">
        <ele>335</ele>
        <time>2017-09-20T10:49:27Z</time>
      </trkpt>
      <trkpt lat="44.59222" lon="1.8274">
        <ele>335</ele>
        <time>2017-09-20T10:49:30Z</time>
      </trkpt>
      <trkpt lat="44.59218" lon="1.82738">
        <ele>335</ele>
        <time>2017-09-20T10:49:33Z</time>
      </trkpt>
      <trkpt lat="44.59214" lon="1.82737">
        <ele>334</ele>
        <time>2017-09-20T10:49:36Z</time>
      </trkpt>
      <trkpt lat="44.59202" lon="1.82734">
        <ele>333</ele>
        <time>2017-09-20T10:49:45Z</time>
      </trkpt>
      <trkpt lat="44.59187" lon="1.82741">
        <ele>332</ele>
        <time>2017-09-20T10:49:57Z</time>
      </trkpt>
      <trkpt lat="44.59182" lon="1.82746">
        <ele>332</ele>
        <time>2017-09-20T10:50:01Z</time>
      </trkpt>
      <trkpt lat="44.59176" lon="1.82749">
        <ele>331</ele>
        <time>2017-09-20T10:50:06Z</time>
      </trkpt>
      <trkpt lat="44.59172" lon="1.8275">
        <ele>330</ele>
        <time>2017-09-20T10:50:09Z</time>
      </trkpt>
      <trkpt lat="44.59167" lon="1.82752">
        <ele>329</ele>
        <time>2017-09-20T10:50:12Z</time>
      </trkpt>
      <trkpt lat="44.59164" lon="1.82754">
        <ele>328</ele>
        <time>2017-09-20T10:50:14Z</time>
      </trkpt>
      <trkpt lat="44.59158" lon="1.82758">
        <ele>327</ele>
        <time>2017-09-20T10:50:18Z</time>
      </trkpt>
      <trkpt lat="44.59155" lon="1.82759">
        <ele>327</ele>
        <time>2017-09-20T10:50:20Z</time>
      </trkpt>
      <trkpt lat="44.59146" lon="1.82756">
        <ele>326</ele>
        <time>2017-09-20T10:50:27Z</time>
      </trkpt>
      <trkpt lat="44.5914" lon="1.82749">
        <ele>327</ele>
        <time>2017-09-20T10:50:33Z</time>
      </trkpt>
      <trkpt lat="44.59135" lon="1.82739">
        <ele>327</ele>
        <time>2017-09-20T10:50:40Z</time>
      </trkpt>
      <trkpt lat="44.59125" lon="1.82714">
        <ele>326</ele>
        <time>2017-09-20T10:50:54Z</time>
      </trkpt>
      <trkpt lat="44.59123" lon="1.82709">
        <ele>326</ele>
        <time>2017-09-20T10:51:01Z</time>
      </trkpt>
      <trkpt lat="44.59121" lon="1.82708">
        <ele>326</ele>
        <time>2017-09-20T10:51:04Z</time>
      </trkpt>
      <trkpt lat="44.59094" lon="1.82747">
        <ele>325</ele>
        <time>2017-09-20T10:51:32Z</time>
      </trkpt>
      <trkpt lat="44.59092" lon="1.8275">
        <ele>325</ele>
        <time>2017-09-20T10:51:34Z</time>
      </trkpt>
      <trkpt lat="44.59091" lon="1.82752">
        <ele>324</ele>
        <time>2017-09-20T10:51:36Z</time>
      </trkpt>
      <trkpt lat="44.59087" lon="1.82761">
        <ele>324</ele>
        <time>2017-09-20T10:51:42Z</time>
      </trkpt>
      <trkpt lat="44.59082" lon="1.82824">
        <ele>319</ele>
        <time>2017-09-20T10:52:13Z</time>
      </trkpt>
      <trkpt lat="44.59083" lon="1.82828">
        <ele>320</ele>
        <time>2017-09-20T10:52:16Z</time>
      </trkpt>
      <trkpt lat="44.5908" lon="1.82849">
        <ele>317</ele>
        <time>2017-09-20T10:52:27Z</time>
      </trkpt>
      <trkpt lat="44.59078" lon="1.82853">
        <ele>317</ele>
        <time>2017-09-20T10:52:31Z</time>
      </trkpt>
      <trkpt lat="44.59075" lon="1.82855">
        <ele>317</ele>
        <time>2017-09-20T10:52:33Z</time>
      </trkpt>
      <trkpt lat="44.59052" lon="1.82863">
        <ele>315</ele>
        <time>2017-09-20T10:52:51Z</time>
      </trkpt>
      <trkpt lat="44.59043" lon="1.8287">
        <ele>315</ele>
        <time>2017-09-20T10:52:58Z</time>
      </trkpt>
      <trkpt lat="44.59039" lon="1.82877">
        <ele>314</ele>
        <time>2017-09-20T10:53:05Z</time>
      </trkpt>
      <trkpt lat="44.59035" lon="1.82879">
        <ele>314</ele>
        <time>2017-09-20T10:53:08Z</time>
      </trkpt>
      <trkpt lat="44.59027" lon="1.82886">
        <ele>314</ele>
        <time>2017-09-20T10:53:14Z</time>
      </trkpt>
      <trkpt lat="44.59023" lon="1.82888">
        <ele>314</ele>
        <time>2017-09-20T10:53:17Z</time>
      </trkpt>
      <trkpt lat="44.59019" lon="1.82889">
        <ele>313</ele>
        <time>2017-09-20T10:53:20Z</time>
      </trkpt>
      <trkpt lat="44.59015" lon="1.82892">
        <ele>313</ele>
        <time>2017-09-20T10:53:23Z</time>
      </trkpt>
      <trkpt lat="44.59012" lon="1.82892">
        <ele>313</ele>
        <time>2017-09-20T10:53:25Z</time>
      </trkpt>
      <trkpt lat="44.58994" lon="1.82886">
        <ele>312</ele>
        <time>2017-09-20T10:53:38Z</time>
      </trkpt>
      <trkpt lat="44.58985" lon="1.82883">
        <ele>313</ele>
        <time>2017-09-20T10:53:47Z</time>
      </trkpt>
      <trkpt lat="44.58982" lon="1.8288">
        <ele>313</ele>
        <time>2017-09-20T10:53:53Z</time>
      </trkpt>
      <trkpt lat="44.58979" lon="1.82873">
        <ele>313</ele>
        <time>2017-09-20T10:53:59Z</time>
      </trkpt>
      <trkpt lat="44.58977" lon="1.82867">
        <ele>313</ele>
        <time>2017-09-20T10:54:03Z</time>
      </trkpt>
      <trkpt lat="44.58974" lon="1.82863">
        <ele>313</ele>
        <time>2017-09-20T10:54:06Z</time>
      </trkpt>
      <trkpt lat="44.58973" lon="1.82859">
        <ele>313</ele>
        <time>2017-09-20T10:54:09Z</time>
      </trkpt>
      <trkpt lat="44.58971" lon="1.82856">
        <ele>314</ele>
        <time>2017-09-20T10:54:13Z</time>
      </trkpt>
      <trkpt lat="44.58968" lon="1.82853">
        <ele>314</ele>
        <time>2017-09-20T10:54:42Z</time>
      </trkpt>
      <trkpt lat="44.58969" lon="1.82847">
        <ele>314</ele>
        <time>2017-09-20T10:54:53Z</time>
      </trkpt>
      <trkpt lat="44.58968" lon="1.82849">
        <ele>314</ele>
        <time>2017-09-20T10:55:16Z</time>
      </trkpt>
      <trkpt lat="44.58965" lon="1.82848">
        <ele>314</ele>
        <time>2017-09-20T10:55:33Z</time>
      </trkpt>
      <trkpt lat="44.58962" lon="1.82843">
        <ele>314</ele>
        <time>2017-09-20T10:56:07Z</time>
      </trkpt>
      <trkpt lat="44.58966" lon="1.82842">
        <ele>314</ele>
        <time>2017-09-20T10:56:12Z</time>
      </trkpt>
      <trkpt lat="44.58968" lon="1.82842">
        <ele>314</ele>
        <time>2017-09-20T10:56:56Z</time>
      </trkpt>
      <trkpt lat="44.58967" lon="1.82842">
        <ele>314</ele>
        <time>2017-09-20T11:00:31Z</time>
      </trkpt>
      <trkpt lat="44.58968" lon="1.82846">
        <ele>314</ele>
        <time>2017-09-20T11:02:32Z</time>
      </trkpt>
      <trkpt lat="44.58963" lon="1.82848">
        <ele>314</ele>
        <time>2017-09-20T11:03:00Z</time>
      </trkpt>
      <trkpt lat="44.58961" lon="1.82845">
        <ele>314</ele>
        <time>2017-09-20T11:03:11Z</time>
      </trkpt>
      <trkpt lat="44.58965" lon="1.82842">
        <ele>314</ele>
        <time>2017-09-20T11:03:20Z</time>
      </trkpt>
      <trkpt lat="44.58964" lon="1.82844">
        <ele>314</ele>
        <time>2017-09-20T11:04:52Z</time>
      </trkpt>
      <trkpt lat="44.58961" lon="1.82846">
        <ele>314</ele>
        <time>2017-09-20T11:04:55Z</time>
      </trkpt>
      <trkpt lat="44.58961" lon="1.82843">
        <ele>314</ele>
        <time>2017-09-20T11:05:24Z</time>
      </trkpt>
      <trkpt lat="44.58956" lon="1.82848">
        <ele>314</ele>
        <time>2017-09-20T11:05:30Z</time>
      </trkpt>
      <trkpt lat="44.58954" lon="1.82852">
        <ele>314</ele>
        <time>2017-09-20T11:05:59Z</time>
      </trkpt>
      <trkpt lat="44.58952" lon="1.82853">
        <ele>314</ele>
        <time>2017-09-20T11:06:29Z</time>
      </trkpt>
      <trkpt lat="44.58955" lon="1.82858">
        <ele>314</ele>
        <time>2017-09-20T11:07:21Z</time>
      </trkpt>
      <trkpt lat="44.58957" lon="1.82855">
        <ele>314</ele>
        <time>2017-09-20T11:07:35Z</time>
      </trkpt>
      <trkpt lat="44.58959" lon="1.82851">
        <ele>314</ele>
        <time>2017-09-20T11:07:39Z</time>
      </trkpt>
      <trkpt lat="44.58961" lon="1.82852">
        <ele>314</ele>
        <time>2017-09-20T11:07:59Z</time>
      </trkpt>
      <trkpt lat="44.58959" lon="1.82856">
        <ele>314</ele>
        <time>2017-09-20T11:08:03Z</time>
      </trkpt>
      <trkpt lat="44.58958" lon="1.82854">
        <ele>314</ele>
        <time>2017-09-20T11:09:06Z</time>
      </trkpt>
      <trkpt lat="44.58954" lon="1.82854">
        <ele>314</ele>
        <time>2017-09-20T11:13:36Z</time>
      </trkpt>
      <trkpt lat="44.58953" lon="1.82858">
        <ele>314</ele>
        <time>2017-09-20T11:14:00Z</time>
      </trkpt>
      <trkpt lat="44.58953" lon="1.82856">
        <ele>314</ele>
        <time>2017-09-20T11:14:58Z</time>
      </trkpt>
      <trkpt lat="44.58955" lon="1.82853">
        <ele>314</ele>
        <time>2017-09-20T11:15:44Z</time>
      </trkpt>
      <trkpt lat="44.58951" lon="1.82852">
        <ele>314</ele>
        <time>2017-09-20T11:17:00Z</time>
      </trkpt>
      <trkpt lat="44.58953" lon="1.82848">
        <ele>314</ele>
        <time>2017-09-20T11:17:14Z</time>
      </trkpt>
      <trkpt lat="44.58958" lon="1.82846">
        <ele>314</ele>
        <time>2017-09-20T11:26:08Z</time>
      </trkpt>
      <trkpt lat="44.58959" lon="1.82841">
        <ele>314</ele>
        <time>2017-09-20T11:26:12Z</time>
      </trkpt>
      <trkpt lat="44.58963" lon="1.82842">
        <ele>314</ele>
        <time>2017-09-20T11:26:26Z</time>
      </trkpt>
      <trkpt lat="44.58963" lon="1.82846">
        <ele>314</ele>
        <time>2017-09-20T11:32:07Z</time>
      </trkpt>
      <trkpt lat="44.58959" lon="1.8285">
        <ele>314</ele>
        <time>2017-09-20T11:32:43Z</time>
      </trkpt>
      <trkpt lat="44.58959" lon="1.82845">
        <ele>314</ele>
        <time>2017-09-20T11:32:54Z</time>
      </trkpt>
      <trkpt lat="44.5896" lon="1.82847">
        <ele>314</ele>
        <time>2017-09-20T11:34:32Z</time>
      </trkpt>
      <trkpt lat="44.58964" lon="1.82846">
        <ele>314</ele>
        <time>2017-09-20T11:34:58Z</time>
      </trkpt>
      <trkpt lat="44.58964" lon="1.8284">
        <ele>314</ele>
        <time>2017-09-20T11:35:27Z</time>
      </trkpt>
      <trkpt lat="44.58962" lon="1.82842">
        <ele>314</ele>
        <time>2017-09-20T11:35:56Z</time>
      </trkpt>
      <trkpt lat="44.58959" lon="1.82843">
        <ele>314</ele>
        <time>2017-09-20T11:35:59Z</time>
      </trkpt>
      <trkpt lat="44.58954" lon="1.82843">
        <ele>314</ele>
        <time>2017-09-20T11:37:23Z</time>
      </trkpt>
      <trkpt lat="44.5895" lon="1.82842">
        <ele>314</ele>
        <time>2017-09-20T11:37:26Z</time>
      </trkpt>
      <trkpt lat="44.58946" lon="1.82842">
        <ele>314</ele>
        <time>2017-09-20T11:37:31Z</time>
      </trkpt>
      <trkpt lat="44.58942" lon="1.82844">
        <ele>314</ele>
        <time>2017-09-20T11:37:34Z</time>
      </trkpt>
      <trkpt lat="44.58938" lon="1.82844">
        <ele>314</ele>
        <time>2017-09-20T11:37:37Z</time>
      </trkpt>
      <trkpt lat="44.58934" lon="1.82842">
        <ele>314</ele>
        <time>2017-09-20T11:37:40Z</time>
      </trkpt>
      <trkpt lat="44.58931" lon="1.8284">
        <ele>315</ele>
        <time>2017-09-20T11:37:43Z</time>
      </trkpt>
      <trkpt lat="44.58928" lon="1.82836">
        <ele>315</ele>
        <time>2017-09-20T11:37:47Z</time>
      </trkpt>
      <trkpt lat="44.58928" lon="1.8283">
        <ele>315</ele>
        <time>2017-09-20T11:37:52Z</time>
      </trkpt>
      <trkpt lat="44.58926" lon="1.82817">
        <ele>314</ele>
        <time>2017-09-20T11:38:05Z</time>
      </trkpt>
      <trkpt lat="44.58924" lon="1.82797">
        <ele>312</ele>
        <time>2017-09-20T11:38:18Z</time>
      </trkpt>
      <trkpt lat="44.58925" lon="1.82791">
        <ele>312</ele>
        <time>2017-09-20T11:38:21Z</time>
      </trkpt>
      <trkpt lat="44.58926" lon="1.82786">
        <ele>312</ele>
        <time>2017-09-20T11:38:24Z</time>
      </trkpt>
      <trkpt lat="44.58926" lon="1.82781">
        <ele>311</ele>
        <time>2017-09-20T11:38:27Z</time>
      </trkpt>
      <trkpt lat="44.58927" lon="1.82776">
        <ele>311</ele>
        <time>2017-09-20T11:38:30Z</time>
      </trkpt>
      <trkpt lat="44.58929" lon="1.82771">
        <ele>310</ele>
        <time>2017-09-20T11:38:33Z</time>
      </trkpt>
      <trkpt lat="44.58934" lon="1.82765">
        <ele>310</ele>
        <time>2017-09-20T11:38:39Z</time>
      </trkpt>
      <trkpt lat="44.58943" lon="1.82758">
        <ele>310</ele>
        <time>2017-09-20T11:38:48Z</time>
      </trkpt>
      <trkpt lat="44.58975" lon="1.82732">
        <ele>308</ele>
        <time>2017-09-20T11:39:19Z</time>
      </trkpt>
      <trkpt lat="44.58978" lon="1.8273">
        <ele>309</ele>
        <time>2017-09-20T11:39:22Z</time>
      </trkpt>
      <trkpt lat="44.5898" lon="1.82727">
        <ele>309</ele>
        <time>2017-09-20T11:39:25Z</time>
      </trkpt>
      <trkpt lat="44.58983" lon="1.82719">
        <ele>308</ele>
        <time>2017-09-20T11:39:32Z</time>
      </trkpt>
      <trkpt lat="44.58983" lon="1.82714">
        <ele>308</ele>
        <time>2017-09-20T11:39:37Z</time>
      </trkpt>
      <trkpt lat="44.58981" lon="1.8271">
        <ele>308</ele>
        <time>2017-09-20T11:39:41Z</time>
      </trkpt>
      <trkpt lat="44.58982" lon="1.82704">
        <ele>308</ele>
        <time>2017-09-20T11:39:46Z</time>
      </trkpt>
      <trkpt lat="44.58983" lon="1.82698">
        <ele>308</ele>
        <time>2017-09-20T11:39:50Z</time>
      </trkpt>
      <trkpt lat="44.58981" lon="1.82693">
        <ele>308</ele>
        <time>2017-09-20T11:39:54Z</time>
      </trkpt>
      <trkpt lat="44.5898" lon="1.82688">
        <ele>307</ele>
        <time>2017-09-20T11:39:57Z</time>
      </trkpt>
      <trkpt lat="44.58962" lon="1.82662">
        <ele>307</ele>
        <time>2017-09-20T11:40:20Z</time>
      </trkpt>
      <trkpt lat="44.5896" lon="1.82657">
        <ele>307</ele>
        <time>2017-09-20T11:40:25Z</time>
      </trkpt>
      <trkpt lat="44.58957" lon="1.82647">
        <ele>308</ele>
        <time>2017-09-20T11:40:31Z</time>
      </trkpt>
      <trkpt lat="44.58954" lon="1.82643">
        <ele>307</ele>
        <time>2017-09-20T11:40:35Z</time>
      </trkpt>
      <trkpt lat="44.58952" lon="1.82639">
        <ele>308</ele>
        <time>2017-09-20T11:40:38Z</time>
      </trkpt>
      <trkpt lat="44.58947" lon="1.82627">
        <ele>308</ele>
        <time>2017-09-20T11:40:46Z</time>
      </trkpt>
      <trkpt lat="44.58941" lon="1.82615">
        <ele>309</ele>
        <time>2017-09-20T11:40:55Z</time>
      </trkpt>
      <trkpt lat="44.58928" lon="1.82601">
        <ele>309</ele>
        <time>2017-09-20T11:41:11Z</time>
      </trkpt>
      <trkpt lat="44.58921" lon="1.82594">
        <ele>309</ele>
        <time>2017-09-20T11:41:19Z</time>
      </trkpt>
      <trkpt lat="44.58918" lon="1.82592">
        <ele>310</ele>
        <time>2017-09-20T11:41:22Z</time>
      </trkpt>
      <trkpt lat="44.58915" lon="1.8259">
        <ele>307</ele>
        <time>2017-09-20T11:41:25Z</time>
      </trkpt>
      <trkpt lat="44.58912" lon="1.82587">
        <ele>307</ele>
        <time>2017-09-20T11:41:29Z</time>
      </trkpt>
      <trkpt lat="44.58902" lon="1.82576">
        <ele>311</ele>
        <time>2017-09-20T11:41:39Z</time>
      </trkpt>
      <trkpt lat="44.589" lon="1.82574">
        <ele>311</ele>
        <time>2017-09-20T11:41:41Z</time>
      </trkpt>
      <trkpt lat="44.58886" lon="1.82563">
        <ele>311</ele>
        <time>2017-09-20T11:41:54Z</time>
      </trkpt>
      <trkpt lat="44.58883" lon="1.8256">
        <ele>311</ele>
        <time>2017-09-20T11:41:57Z</time>
      </trkpt>
      <trkpt lat="44.5888" lon="1.82558">
        <ele>311</ele>
        <time>2017-09-20T11:42:00Z</time>
      </trkpt>
      <trkpt lat="44.5887" lon="1.82548">
        <ele>312</ele>
        <time>2017-09-20T11:42:11Z</time>
      </trkpt>
      <trkpt lat="44.58857" lon="1.82538">
        <ele>312</ele>
        <time>2017-09-20T11:42:23Z</time>
      </trkpt>
      <trkpt lat="44.58854" lon="1.82535">
        <ele>312</ele>
        <time>2017-09-20T11:42:26Z</time>
      </trkpt>
      <trkpt lat="44.58848" lon="1.82531">
        <ele>313</ele>
        <time>2017-09-20T11:42:32Z</time>
      </trkpt>
      <trkpt lat="44.58846" lon="1.82529">
        <ele>313</ele>
        <time>2017-09-20T11:42:34Z</time>
      </trkpt>
      <trkpt lat="44.58833" lon="1.82518">
        <ele>310</ele>
        <time>2017-09-20T11:42:48Z</time>
      </trkpt>
      <trkpt lat="44.58827" lon="1.82508">
        <ele>313</ele>
        <time>2017-09-20T11:42:57Z</time>
      </trkpt>
      <trkpt lat="44.58822" lon="1.82504">
        <ele>312</ele>
        <time>2017-09-20T11:43:02Z</time>
      </trkpt>
      <trkpt lat="44.588" lon="1.82473">
        <ele>321</ele>
        <time>2017-09-20T11:43:33Z</time>
      </trkpt>
      <trkpt lat="44.58797" lon="1.8247">
        <ele>321</ele>
        <time>2017-09-20T11:43:36Z</time>
      </trkpt>
      <trkpt lat="44.58794" lon="1.82464">
        <ele>321</ele>
        <time>2017-09-20T11:43:42Z</time>
      </trkpt>
      <trkpt lat="44.5878" lon="1.82452">
        <ele>322</ele>
        <time>2017-09-20T11:43:57Z</time>
      </trkpt>
      <trkpt lat="44.58778" lon="1.82448">
        <ele>322</ele>
        <time>2017-09-20T11:44:01Z</time>
      </trkpt>
      <trkpt lat="44.58765" lon="1.82434">
        <ele>324</ele>
        <time>2017-09-20T11:44:18Z</time>
      </trkpt>
      <trkpt lat="44.58742" lon="1.8241">
        <ele>329</ele>
        <time>2017-09-20T11:44:48Z</time>
      </trkpt>
      <trkpt lat="44.58728" lon="1.82393">
        <ele>331</ele>
        <time>2017-09-20T11:45:06Z</time>
      </trkpt>
      <trkpt lat="44.58726" lon="1.82391">
        <ele>331</ele>
        <time>2017-09-20T11:45:08Z</time>
      </trkpt>
      <trkpt lat="44.58721" lon="1.82383">
        <ele>332</ele>
        <time>2017-09-20T11:45:15Z</time>
      </trkpt>
      <trkpt lat="44.58696" lon="1.82356">
        <ele>334</ele>
        <time>2017-09-20T11:45:48Z</time>
      </trkpt>
      <trkpt lat="44.5869" lon="1.82352">
        <ele>334</ele>
        <time>2017-09-20T11:45:54Z</time>
      </trkpt>
      <trkpt lat="44.58665" lon="1.8233">
        <ele>338</ele>
        <time>2017-09-20T11:46:21Z</time>
      </trkpt>
      <trkpt lat="44.58661" lon="1.82325">
        <ele>338</ele>
        <time>2017-09-20T11:46:26Z</time>
      </trkpt>
      <trkpt lat="44.58659" lon="1.82321">
        <ele>339</ele>
        <time>2017-09-20T11:46:29Z</time>
      </trkpt>
      <trkpt lat="44.58656" lon="1.82318">
        <ele>339</ele>
        <time>2017-09-20T11:46:34Z</time>
      </trkpt>
      <trkpt lat="44.58651" lon="1.8231">
        <ele>339</ele>
        <time>2017-09-20T11:46:41Z</time>
      </trkpt>
      <trkpt lat="44.58649" lon="1.82304">
        <ele>339</ele>
        <time>2017-09-20T11:46:45Z</time>
      </trkpt>
      <trkpt lat="44.58635" lon="1.82275">
        <ele>340</ele>
        <time>2017-09-20T11:47:09Z</time>
      </trkpt>
      <trkpt lat="44.58631" lon="1.82268">
        <ele>341</ele>
        <time>2017-09-20T11:47:14Z</time>
      </trkpt>
      <trkpt lat="44.58628" lon="1.82261">
        <ele>341</ele>
        <time>2017-09-20T11:47:20Z</time>
      </trkpt>
      <trkpt lat="44.58608" lon="1.82222">
        <ele>344</ele>
        <time>2017-09-20T11:47:51Z</time>
      </trkpt>
      <trkpt lat="44.58606" lon="1.82216">
        <ele>344</ele>
        <time>2017-09-20T11:47:56Z</time>
      </trkpt>
      <trkpt lat="44.58601" lon="1.822">
        <ele>344</ele>
        <time>2017-09-20T11:48:08Z</time>
      </trkpt>
      <trkpt lat="44.586" lon="1.82185">
        <ele>344</ele>
        <time>2017-09-20T11:48:18Z</time>
      </trkpt>
      <trkpt lat="44.58601" lon="1.82174">
        <ele>344</ele>
        <time>2017-09-20T11:48:25Z</time>
      </trkpt>
      <trkpt lat="44.58603" lon="1.82166">
        <ele>344</ele>
        <time>2017-09-20T11:48:31Z</time>
      </trkpt>
      <trkpt lat="44.58608" lon="1.82153">
        <ele>344</ele>
        <time>2017-09-20T11:48:41Z</time>
      </trkpt>
      <trkpt lat="44.58611" lon="1.82137">
        <ele>344</ele>
        <time>2017-09-20T11:48:52Z</time>
      </trkpt>
      <trkpt lat="44.58611" lon="1.82124">
        <ele>344</ele>
        <time>2017-09-20T11:49:00Z</time>
      </trkpt>
      <trkpt lat="44.58609" lon="1.82109">
        <ele>344</ele>
        <time>2017-09-20T11:49:10Z</time>
      </trkpt>
      <trkpt lat="44.58609" lon="1.82106">
        <ele>344</ele>
        <time>2017-09-20T11:49:12Z</time>
      </trkpt>
      <trkpt lat="44.58603" lon="1.82089">
        <ele>343</ele>
        <time>2017-09-20T11:49:24Z</time>
      </trkpt>
      <trkpt lat="44.58602" lon="1.82081">
        <ele>342</ele>
        <time>2017-09-20T11:49:29Z</time>
      </trkpt>
      <trkpt lat="44.58592" lon="1.82036">
        <ele>341</ele>
        <time>2017-09-20T11:49:58Z</time>
      </trkpt>
      <trkpt lat="44.58591" lon="1.82025">
        <ele>341</ele>
        <time>2017-09-20T11:50:06Z</time>
      </trkpt>
      <trkpt lat="44.58586" lon="1.82011">
        <ele>341</ele>
        <time>2017-09-20T11:50:16Z</time>
      </trkpt>
      <trkpt lat="44.58583" lon="1.82007">
        <ele>341</ele>
        <time>2017-09-20T11:50:19Z</time>
      </trkpt>
      <trkpt lat="44.58582" lon="1.82003">
        <ele>341</ele>
        <time>2017-09-20T11:50:23Z</time>
      </trkpt>
      <trkpt lat="44.58575" lon="1.81978">
        <ele>340</ele>
        <time>2017-09-20T11:50:42Z</time>
      </trkpt>
      <trkpt lat="44.58573" lon="1.81975">
        <ele>339</ele>
        <time>2017-09-20T11:50:45Z</time>
      </trkpt>
      <trkpt lat="44.58557" lon="1.81939">
        <ele>338</ele>
        <time>2017-09-20T11:51:11Z</time>
      </trkpt>
      <trkpt lat="44.58554" lon="1.81931">
        <ele>338</ele>
        <time>2017-09-20T11:51:18Z</time>
      </trkpt>
      <trkpt lat="44.58542" lon="1.81911">
        <ele>336</ele>
        <time>2017-09-20T11:51:35Z</time>
      </trkpt>
      <trkpt lat="44.58535" lon="1.81901">
        <ele>336</ele>
        <time>2017-09-20T11:51:45Z</time>
      </trkpt>
      <trkpt lat="44.58531" lon="1.81895">
        <ele>336</ele>
        <time>2017-09-20T11:51:51Z</time>
      </trkpt>
      <trkpt lat="44.5853" lon="1.81892">
        <ele>336</ele>
        <time>2017-09-20T11:51:56Z</time>
      </trkpt>
      <trkpt lat="44.58523" lon="1.81882">
        <ele>336</ele>
        <time>2017-09-20T11:52:04Z</time>
      </trkpt>
      <trkpt lat="44.5852" lon="1.81871">
        <ele>336</ele>
        <time>2017-09-20T11:52:10Z</time>
      </trkpt>
      <trkpt lat="44.58516" lon="1.81862">
        <ele>336</ele>
        <time>2017-09-20T11:52:17Z</time>
      </trkpt>
      <trkpt lat="44.58507" lon="1.81842">
        <ele>335</ele>
        <time>2017-09-20T11:52:31Z</time>
      </trkpt>
      <trkpt lat="44.58505" lon="1.81839">
        <ele>335</ele>
        <time>2017-09-20T11:52:33Z</time>
      </trkpt>
      <trkpt lat="44.58488" lon="1.81809">
        <ele>333</ele>
        <time>2017-09-20T11:52:57Z</time>
      </trkpt>
      <trkpt lat="44.58486" lon="1.81805">
        <ele>333</ele>
        <time>2017-09-20T11:53:00Z</time>
      </trkpt>
      <trkpt lat="44.58475" lon="1.81773">
        <ele>333</ele>
        <time>2017-09-20T11:53:23Z</time>
      </trkpt>
      <trkpt lat="44.58474" lon="1.81769">
        <ele>333</ele>
        <time>2017-09-20T11:53:26Z</time>
      </trkpt>
      <trkpt lat="44.58473" lon="1.81766">
        <ele>332</ele>
        <time>2017-09-20T11:53:29Z</time>
      </trkpt>
      <trkpt lat="44.58471" lon="1.81761">
        <ele>332</ele>
        <time>2017-09-20T11:53:33Z</time>
      </trkpt>
      <trkpt lat="44.5847" lon="1.81757">
        <ele>332</ele>
        <time>2017-09-20T11:53:36Z</time>
      </trkpt>
      <trkpt lat="44.58465" lon="1.81742">
        <ele>331</ele>
        <time>2017-09-20T11:53:45Z</time>
      </trkpt>
      <trkpt lat="44.58464" lon="1.81737">
        <ele>331</ele>
        <time>2017-09-20T11:53:48Z</time>
      </trkpt>
      <trkpt lat="44.58463" lon="1.81734">
        <ele>331</ele>
        <time>2017-09-20T11:53:50Z</time>
      </trkpt>
      <trkpt lat="44.58459" lon="1.81721">
        <ele>330</ele>
        <time>2017-09-20T11:53:58Z</time>
      </trkpt>
      <trkpt lat="44.58456" lon="1.81711">
        <ele>330</ele>
        <time>2017-09-20T11:54:06Z</time>
      </trkpt>
      <trkpt lat="44.58448" lon="1.81698">
        <ele>330</ele>
        <time>2017-09-20T11:54:20Z</time>
      </trkpt>
      <trkpt lat="44.58442" lon="1.81681">
        <ele>330</ele>
        <time>2017-09-20T11:54:32Z</time>
      </trkpt>
      <trkpt lat="44.58438" lon="1.81672">
        <ele>330</ele>
        <time>2017-09-20T11:54:38Z</time>
      </trkpt>
      <trkpt lat="44.58436" lon="1.81667">
        <ele>330</ele>
        <time>2017-09-20T11:54:42Z</time>
      </trkpt>
      <trkpt lat="44.58433" lon="1.81661">
        <ele>329</ele>
        <time>2017-09-20T11:54:46Z</time>
      </trkpt>
      <trkpt lat="44.58429" lon="1.81651">
        <ele>329</ele>
        <time>2017-09-20T11:55:00Z</time>
      </trkpt>
      <trkpt lat="44.58428" lon="1.81647">
        <ele>328</ele>
        <time>2017-09-20T11:55:04Z</time>
      </trkpt>
      <trkpt lat="44.58427" lon="1.81643">
        <ele>328</ele>
        <time>2017-09-20T11:55:07Z</time>
      </trkpt>
      <trkpt lat="44.58423" lon="1.81634">
        <ele>328</ele>
        <time>2017-09-20T11:55:13Z</time>
      </trkpt>
      <trkpt lat="44.5842" lon="1.81631">
        <ele>328</ele>
        <time>2017-09-20T11:55:16Z</time>
      </trkpt>
      <trkpt lat="44.58412" lon="1.81615">
        <ele>326</ele>
        <time>2017-09-20T11:55:29Z</time>
      </trkpt>
      <trkpt lat="44.5841" lon="1.8161">
        <ele>326</ele>
        <time>2017-09-20T11:55:33Z</time>
      </trkpt>
      <trkpt lat="44.58403" lon="1.81599">
        <ele>326</ele>
        <time>2017-09-20T11:55:43Z</time>
      </trkpt>
      <trkpt lat="44.58402" lon="1.81595">
        <ele>326</ele>
        <time>2017-09-20T11:55:46Z</time>
      </trkpt>
      <trkpt lat="44.584" lon="1.8159">
        <ele>326</ele>
        <time>2017-09-20T11:55:49Z</time>
      </trkpt>
      <trkpt lat="44.58382" lon="1.81548">
        <ele>323</ele>
        <time>2017-09-20T11:56:21Z</time>
      </trkpt>
      <trkpt lat="44.5838" lon="1.8154">
        <ele>323</ele>
        <time>2017-09-20T11:56:26Z</time>
      </trkpt>
      <trkpt lat="44.58378" lon="1.81536">
        <ele>323</ele>
        <time>2017-09-20T11:56:31Z</time>
      </trkpt>
      <trkpt lat="44.58374" lon="1.81536">
        <ele>322</ele>
        <time>2017-09-20T11:57:02Z</time>
      </trkpt>
      <trkpt lat="44.58374" lon="1.8153">
        <ele>322</ele>
        <time>2017-09-20T11:57:10Z</time>
      </trkpt>
      <trkpt lat="44.58369" lon="1.81522">
        <ele>322</ele>
        <time>2017-09-20T11:57:16Z</time>
      </trkpt>
      <trkpt lat="44.58363" lon="1.81517">
        <ele>322</ele>
        <time>2017-09-20T11:57:22Z</time>
      </trkpt>
      <trkpt lat="44.58351" lon="1.81494">
        <ele>322</ele>
        <time>2017-09-20T11:57:39Z</time>
      </trkpt>
      <trkpt lat="44.58348" lon="1.81487">
        <ele>322</ele>
        <time>2017-09-20T11:57:44Z</time>
      </trkpt>
      <trkpt lat="44.58336" lon="1.81467">
        <ele>322</ele>
        <time>2017-09-20T11:58:00Z</time>
      </trkpt>
      <trkpt lat="44.58334" lon="1.81465">
        <ele>322</ele>
        <time>2017-09-20T11:58:03Z</time>
      </trkpt>
      <trkpt lat="44.5831" lon="1.81425">
        <ele>319</ele>
        <time>2017-09-20T11:58:34Z</time>
      </trkpt>
      <trkpt lat="44.58308" lon="1.81422">
        <ele>319</ele>
        <time>2017-09-20T11:58:36Z</time>
      </trkpt>
      <trkpt lat="44.58304" lon="1.81418">
        <ele>318</ele>
        <time>2017-09-20T11:58:41Z</time>
      </trkpt>
      <trkpt lat="44.58302" lon="1.81415">
        <ele>322</ele>
        <time>2017-09-20T11:58:43Z</time>
      </trkpt>
      <trkpt lat="44.58298" lon="1.8141">
        <ele>322</ele>
        <time>2017-09-20T11:58:49Z</time>
      </trkpt>
      <trkpt lat="44.58292" lon="1.814">
        <ele>322</ele>
        <time>2017-09-20T11:58:57Z</time>
      </trkpt>
      <trkpt lat="44.58287" lon="1.81397">
        <ele>322</ele>
        <time>2017-09-20T11:59:01Z</time>
      </trkpt>
      <trkpt lat="44.58262" lon="1.81362">
        <ele>323</ele>
        <time>2017-09-20T11:59:31Z</time>
      </trkpt>
      <trkpt lat="44.58235" lon="1.81332">
        <ele>326</ele>
        <time>2017-09-20T12:00:01Z</time>
      </trkpt>
      <trkpt lat="44.58224" lon="1.81319">
        <ele>327</ele>
        <time>2017-09-20T12:00:14Z</time>
      </trkpt>
      <trkpt lat="44.58217" lon="1.81311">
        <ele>327</ele>
        <time>2017-09-20T12:00:22Z</time>
      </trkpt>
      <trkpt lat="44.58214" lon="1.81308">
        <ele>327</ele>
        <time>2017-09-20T12:00:26Z</time>
      </trkpt>
      <trkpt lat="44.58209" lon="1.81301">
        <ele>327</ele>
        <time>2017-09-20T12:00:32Z</time>
      </trkpt>
      <trkpt lat="44.58188" lon="1.81266">
        <ele>328</ele>
        <time>2017-09-20T12:01:00Z</time>
      </trkpt>
      <trkpt lat="44.58187" lon="1.81264">
        <ele>328</ele>
        <time>2017-09-20T12:01:02Z</time>
      </trkpt>
      <trkpt lat="44.58179" lon="1.81251">
        <ele>329</ele>
        <time>2017-09-20T12:01:13Z</time>
      </trkpt>
      <trkpt lat="44.58163" lon="1.81227">
        <ele>328</ele>
        <time>2017-09-20T12:01:33Z</time>
      </trkpt>
      <trkpt lat="44.58161" lon="1.81226">
        <ele>328</ele>
        <time>2017-09-20T12:01:35Z</time>
      </trkpt>
      <trkpt lat="44.58135" lon="1.81193">
        <ele>327</ele>
        <time>2017-09-20T12:02:05Z</time>
      </trkpt>
      <trkpt lat="44.58134" lon="1.81192">
        <ele>327</ele>
        <time>2017-09-20T12:02:06Z</time>
      </trkpt>
      <trkpt lat="44.58132" lon="1.8119">
        <ele>327</ele>
        <time>2017-09-20T12:02:08Z</time>
      </trkpt>
      <trkpt lat="44.58129" lon="1.81187">
        <ele>327</ele>
        <time>2017-09-20T12:02:11Z</time>
      </trkpt>
      <trkpt lat="44.58128" lon="1.81185">
        <ele>327</ele>
        <time>2017-09-20T12:02:13Z</time>
      </trkpt>
      <trkpt lat="44.58125" lon="1.81182">
        <ele>327</ele>
        <time>2017-09-20T12:02:16Z</time>
      </trkpt>
      <trkpt lat="44.581" lon="1.81142">
        <ele>326</ele>
        <time>2017-09-20T12:02:47Z</time>
      </trkpt>
      <trkpt lat="44.58088" lon="1.8112">
        <ele>325</ele>
        <time>2017-09-20T12:03:03Z</time>
      </trkpt>
      <trkpt lat="44.58059" lon="1.81084">
        <ele>320</ele>
        <time>2017-09-20T12:03:34Z</time>
      </trkpt>
      <trkpt lat="44.58034" lon="1.8105">
        <ele>316</ele>
        <time>2017-09-20T12:04:04Z</time>
      </trkpt>
      <trkpt lat="44.58008" lon="1.81014">
        <ele>314</ele>
        <time>2017-09-20T12:04:34Z</time>
      </trkpt>
      <trkpt lat="44.57983" lon="1.80976">
        <ele>309</ele>
        <time>2017-09-20T12:05:04Z</time>
      </trkpt>
      <trkpt lat="44.5798" lon="1.80971">
        <ele>309</ele>
        <time>2017-09-20T12:05:08Z</time>
      </trkpt>
      <trkpt lat="44.57963" lon="1.80949">
        <ele>308</ele>
        <time>2017-09-20T12:05:28Z</time>
      </trkpt>
      <trkpt lat="44.5796" lon="1.80947">
        <ele>308</ele>
        <time>2017-09-20T12:05:30Z</time>
      </trkpt>
      <trkpt lat="44.57931" lon="1.80922">
        <ele>307</ele>
        <time>2017-09-20T12:06:00Z</time>
      </trkpt>
      <trkpt lat="44.57898" lon="1.80898">
        <ele>304</ele>
        <time>2017-09-20T12:06:30Z</time>
      </trkpt>
      <trkpt lat="44.57865" lon="1.80872">
        <ele>303</ele>
        <time>2017-09-20T12:07:01Z</time>
      </trkpt>
      <trkpt lat="44.57857" lon="1.80863">
        <ele>303</ele>
        <time>2017-09-20T12:07:09Z</time>
      </trkpt>
      <trkpt lat="44.57856" lon="1.8086">
        <ele>303</ele>
        <time>2017-09-20T12:07:11Z</time>
      </trkpt>
      <trkpt lat="44.57854" lon="1.80858">
        <ele>303</ele>
        <time>2017-09-20T12:07:13Z</time>
      </trkpt>
      <trkpt lat="44.57851" lon="1.80857">
        <ele>303</ele>
        <time>2017-09-20T12:07:15Z</time>
      </trkpt>
      <trkpt lat="44.57849" lon="1.80855">
        <ele>303</ele>
        <time>2017-09-20T12:07:17Z</time>
      </trkpt>
      <trkpt lat="44.57847" lon="1.80854">
        <ele>303</ele>
        <time>2017-09-20T12:07:19Z</time>
      </trkpt>
      <trkpt lat="44.57845" lon="1.80854">
        <ele>303</ele>
        <time>2017-09-20T12:07:21Z</time>
      </trkpt>
      <trkpt lat="44.57843" lon="1.80855">
        <ele>303</ele>
        <time>2017-09-20T12:07:25Z</time>
      </trkpt>
      <trkpt lat="44.57841" lon="1.80858">
        <ele>303</ele>
        <time>2017-09-20T12:07:29Z</time>
      </trkpt>
      <trkpt lat="44.5784" lon="1.80859">
        <ele>303</ele>
        <time>2017-09-20T12:08:02Z</time>
      </trkpt>
      <trkpt lat="44.5784" lon="1.80855">
        <ele>303</ele>
        <time>2017-09-20T12:08:05Z</time>
      </trkpt>
      <trkpt lat="44.57841" lon="1.80852">
        <ele>303</ele>
        <time>2017-09-20T12:08:07Z</time>
      </trkpt>
      <trkpt lat="44.57842" lon="1.80851">
        <ele>303</ele>
        <time>2017-09-20T12:08:09Z</time>
      </trkpt>
      <trkpt lat="44.57842" lon="1.80848">
        <ele>303</ele>
        <time>2017-09-20T12:08:11Z</time>
      </trkpt>
      <trkpt lat="44.57842" lon="1.80845">
        <ele>302</ele>
        <time>2017-09-20T12:08:13Z</time>
      </trkpt>
      <trkpt lat="44.5784" lon="1.80842">
        <ele>302</ele>
        <time>2017-09-20T12:08:15Z</time>
      </trkpt>
      <trkpt lat="44.57838" lon="1.8084">
        <ele>302</ele>
        <time>2017-09-20T12:08:16Z</time>
      </trkpt>
      <trkpt lat="44.57837" lon="1.80839">
        <ele>302</ele>
        <time>2017-09-20T12:08:17Z</time>
      </trkpt>
      <trkpt lat="44.57836" lon="1.80837">
        <ele>302</ele>
        <time>2017-09-20T12:08:18Z</time>
      </trkpt>
      <trkpt lat="44.57827" lon="1.80827">
        <ele>302</ele>
        <time>2017-09-20T12:08:26Z</time>
      </trkpt>
      <trkpt lat="44.57826" lon="1.80825">
        <ele>302</ele>
        <time>2017-09-20T12:08:27Z</time>
      </trkpt>
      <trkpt lat="44.57823" lon="1.80823">
        <ele>302</ele>
        <time>2017-09-20T12:08:30Z</time>
      </trkpt>
      <trkpt lat="44.57822" lon="1.80822">
        <ele>301</ele>
        <time>2017-09-20T12:08:31Z</time>
      </trkpt>
      <trkpt lat="44.57809" lon="1.80805">
        <ele>301</ele>
        <time>2017-09-20T12:08:44Z</time>
      </trkpt>
      <trkpt lat="44.57807" lon="1.80802">
        <ele>301</ele>
        <time>2017-09-20T12:08:46Z</time>
      </trkpt>
      <trkpt lat="44.57809" lon="1.808">
        <ele>301</ele>
        <time>2017-09-20T12:08:52Z</time>
      </trkpt>
      <trkpt lat="44.57809" lon="1.80798">
        <ele>301</ele>
        <time>2017-09-20T12:10:22Z</time>
      </trkpt>
      <trkpt lat="44.57809" lon="1.80796">
        <ele>301</ele>
        <time>2017-09-20T12:10:37Z</time>
      </trkpt>
      <trkpt lat="44.57808" lon="1.80793">
        <ele>301</ele>
        <time>2017-09-20T12:10:39Z</time>
      </trkpt>
      <trkpt lat="44.57807" lon="1.80792">
        <ele>301</ele>
        <time>2017-09-20T12:10:40Z</time>
      </trkpt>
      <trkpt lat="44.57807" lon="1.8079">
        <ele>301</ele>
        <time>2017-09-20T12:10:41Z</time>
      </trkpt>
      <trkpt lat="44.57808" lon="1.80785">
        <ele>301</ele>
        <time>2017-09-20T12:10:44Z</time>
      </trkpt>
      <trkpt lat="44.57807" lon="1.8078">
        <ele>301</ele>
        <time>2017-09-20T12:10:47Z</time>
      </trkpt>
      <trkpt lat="44.57806" lon="1.80772">
        <ele>302</ele>
        <time>2017-09-20T12:10:51Z</time>
      </trkpt>
      <trkpt lat="44.57805" lon="1.80768">
        <ele>302</ele>
        <time>2017-09-20T12:10:53Z</time>
      </trkpt>
      <trkpt lat="44.57802" lon="1.80765">
        <ele>301</ele>
        <time>2017-09-20T12:10:56Z</time>
      </trkpt>
      <trkpt lat="44.57798" lon="1.8076">
        <ele>301</ele>
        <time>2017-09-20T12:11:00Z</time>
      </trkpt>
      <trkpt lat="44.57797" lon="1.80759">
        <ele>301</ele>
        <time>2017-09-20T12:11:01Z</time>
      </trkpt>
      <trkpt lat="44.57789" lon="1.80752">
        <ele>301</ele>
        <time>2017-09-20T12:11:11Z</time>
      </trkpt>
      <trkpt lat="44.57787" lon="1.80747">
        <ele>302</ele>
        <time>2017-09-20T12:11:21Z</time>
      </trkpt>
      <trkpt lat="44.57757" lon="1.80706">
        <ele>302</ele>
        <time>2017-09-20T12:11:54Z</time>
      </trkpt>
      <trkpt lat="44.57739" lon="1.80681">
        <ele>303</ele>
        <time>2017-09-20T12:12:15Z</time>
      </trkpt>
      <trkpt lat="44.57736" lon="1.80677">
        <ele>303</ele>
        <time>2017-09-20T12:12:19Z</time>
      </trkpt>
      <trkpt lat="44.5773" lon="1.80667">
        <ele>303</ele>
        <time>2017-09-20T12:12:28Z</time>
      </trkpt>
      <trkpt lat="44.57723" lon="1.80659">
        <ele>305</ele>
        <time>2017-09-20T12:12:35Z</time>
      </trkpt>
      <trkpt lat="44.57721" lon="1.80655">
        <ele>305</ele>
        <time>2017-09-20T12:12:38Z</time>
      </trkpt>
      <trkpt lat="44.57716" lon="1.80646">
        <ele>305</ele>
        <time>2017-09-20T12:12:44Z</time>
      </trkpt>
      <trkpt lat="44.57713" lon="1.80643">
        <ele>305</ele>
        <time>2017-09-20T12:12:47Z</time>
      </trkpt>
      <trkpt lat="44.57711" lon="1.80638">
        <ele>305</ele>
        <time>2017-09-20T12:12:52Z</time>
      </trkpt>
      <trkpt lat="44.57707" lon="1.80611">
        <ele>305</ele>
        <time>2017-09-20T12:13:06Z</time>
      </trkpt>
      <trkpt lat="44.57708" lon="1.80608">
        <ele>305</ele>
        <time>2017-09-20T12:13:08Z</time>
      </trkpt>
      <trkpt lat="44.57707" lon="1.80603">
        <ele>305</ele>
        <time>2017-09-20T12:13:11Z</time>
      </trkpt>
      <trkpt lat="44.57703" lon="1.80588">
        <ele>306</ele>
        <time>2017-09-20T12:13:21Z</time>
      </trkpt>
      <trkpt lat="44.57701" lon="1.80584">
        <ele>306</ele>
        <time>2017-09-20T12:13:25Z</time>
      </trkpt>
      <trkpt lat="44.57695" lon="1.80569">
        <ele>307</ele>
        <time>2017-09-20T12:13:35Z</time>
      </trkpt>
      <trkpt lat="44.57693" lon="1.80565">
        <ele>307</ele>
        <time>2017-09-20T12:13:38Z</time>
      </trkpt>
      <trkpt lat="44.57693" lon="1.8056">
        <ele>307</ele>
        <time>2017-09-20T12:13:43Z</time>
      </trkpt>
      <trkpt lat="44.57691" lon="1.80556">
        <ele>307</ele>
        <time>2017-09-20T12:13:50Z</time>
      </trkpt>
      <trkpt lat="44.57688" lon="1.80548">
        <ele>307</ele>
        <time>2017-09-20T12:13:56Z</time>
      </trkpt>
      <trkpt lat="44.57666" lon="1.80505">
        <ele>309</ele>
        <time>2017-09-20T12:14:26Z</time>
      </trkpt>
      <trkpt lat="44.57647" lon="1.80461">
        <ele>308</ele>
        <time>2017-09-20T12:14:57Z</time>
      </trkpt>
      <trkpt lat="44.57645" lon="1.80457">
        <ele>308</ele>
        <time>2017-09-20T12:15:00Z</time>
      </trkpt>
      <trkpt lat="44.57643" lon="1.80452">
        <ele>308</ele>
        <time>2017-09-20T12:15:03Z</time>
      </trkpt>
      <trkpt lat="44.57643" lon="1.80443">
        <ele>308</ele>
        <time>2017-09-20T12:15:08Z</time>
      </trkpt>
      <trkpt lat="44.57642" lon="1.80437">
        <ele>307</ele>
        <time>2017-09-20T12:15:11Z</time>
      </trkpt>
      <trkpt lat="44.5764" lon="1.80432">
        <ele>307</ele>
        <time>2017-09-20T12:15:15Z</time>
      </trkpt>
      <trkpt lat="44.57638" lon="1.80427">
        <ele>307</ele>
        <time>2017-09-20T12:15:19Z</time>
      </trkpt>
      <trkpt lat="44.57636" lon="1.80421">
        <ele>307</ele>
        <time>2017-09-20T12:15:23Z</time>
      </trkpt>
      <trkpt lat="44.57634" lon="1.80415">
        <ele>305</ele>
        <time>2017-09-20T12:15:27Z</time>
      </trkpt>
      <trkpt lat="44.57621" lon="1.80386">
        <ele>305</ele>
        <time>2017-09-20T12:15:44Z</time>
      </trkpt>
      <trkpt lat="44.57619" lon="1.8038">
        <ele>304</ele>
        <time>2017-09-20T12:15:48Z</time>
      </trkpt>
      <trkpt lat="44.57618" lon="1.80373">
        <ele>304</ele>
        <time>2017-09-20T12:15:53Z</time>
      </trkpt>
      <trkpt lat="44.57615" lon="1.80369">
        <ele>304</ele>
        <time>2017-09-20T12:15:55Z</time>
      </trkpt>
      <trkpt lat="44.57613" lon="1.80363">
        <ele>304</ele>
        <time>2017-09-20T12:15:59Z</time>
      </trkpt>
      <trkpt lat="44.57608" lon="1.80351">
        <ele>303</ele>
        <time>2017-09-20T12:16:11Z</time>
      </trkpt>
      <trkpt lat="44.57608" lon="1.80346">
        <ele>303</ele>
        <time>2017-09-20T12:16:14Z</time>
      </trkpt>
      <trkpt lat="44.57608" lon="1.80341">
        <ele>303</ele>
        <time>2017-09-20T12:16:19Z</time>
      </trkpt>
      <trkpt lat="44.57602" lon="1.80322">
        <ele>301</ele>
        <time>2017-09-20T12:16:29Z</time>
      </trkpt>
      <trkpt lat="44.576" lon="1.80317">
        <ele>301</ele>
        <time>2017-09-20T12:16:32Z</time>
      </trkpt>
      <trkpt lat="44.57597" lon="1.80314">
        <ele>301</ele>
        <time>2017-09-20T12:16:35Z</time>
      </trkpt>
      <trkpt lat="44.57591" lon="1.80302">
        <ele>301</ele>
        <time>2017-09-20T12:16:44Z</time>
      </trkpt>
      <trkpt lat="44.57586" lon="1.80294">
        <ele>301</ele>
        <time>2017-09-20T12:16:52Z</time>
      </trkpt>
      <trkpt lat="44.57584" lon="1.8029">
        <ele>301</ele>
        <time>2017-09-20T12:16:55Z</time>
      </trkpt>
      <trkpt lat="44.57582" lon="1.80285">
        <ele>298</ele>
        <time>2017-09-20T12:16:57Z</time>
      </trkpt>
      <trkpt lat="44.57579" lon="1.80277">
        <ele>298</ele>
        <time>2017-09-20T12:17:01Z</time>
      </trkpt>
      <trkpt lat="44.57578" lon="1.80274">
        <ele>298</ele>
        <time>2017-09-20T12:17:03Z</time>
      </trkpt>
      <trkpt lat="44.57574" lon="1.80267">
        <ele>298</ele>
        <time>2017-09-20T12:17:07Z</time>
      </trkpt>
      <trkpt lat="44.57569" lon="1.80262">
        <ele>298</ele>
        <time>2017-09-20T12:17:12Z</time>
      </trkpt>
      <trkpt lat="44.57563" lon="1.80245">
        <ele>298</ele>
        <time>2017-09-20T12:17:23Z</time>
      </trkpt>
      <trkpt lat="44.57562" lon="1.8024">
        <ele>297</ele>
        <time>2017-09-20T12:17:26Z</time>
      </trkpt>
      <trkpt lat="44.57555" lon="1.8022">
        <ele>297</ele>
        <time>2017-09-20T12:17:39Z</time>
      </trkpt>
      <trkpt lat="44.57549" lon="1.80203">
        <ele>297</ele>
        <time>2017-09-20T12:17:50Z</time>
      </trkpt>
      <trkpt lat="44.57545" lon="1.80192">
        <ele>297</ele>
        <time>2017-09-20T12:17:57Z</time>
      </trkpt>
      <trkpt lat="44.57538" lon="1.80158">
        <ele>297</ele>
        <time>2017-09-20T12:18:17Z</time>
      </trkpt>
      <trkpt lat="44.57534" lon="1.80149">
        <ele>297</ele>
        <time>2017-09-20T12:18:24Z</time>
      </trkpt>
      <trkpt lat="44.57527" lon="1.80138">
        <ele>297</ele>
        <time>2017-09-20T12:18:32Z</time>
      </trkpt>
      <trkpt lat="44.57518" lon="1.80112">
        <ele>297</ele>
        <time>2017-09-20T12:18:49Z</time>
      </trkpt>
      <trkpt lat="44.57517" lon="1.80104">
        <ele>297</ele>
        <time>2017-09-20T12:18:54Z</time>
      </trkpt>
      <trkpt lat="44.57515" lon="1.801">
        <ele>297</ele>
        <time>2017-09-20T12:18:57Z</time>
      </trkpt>
      <trkpt lat="44.57499" lon="1.80065">
        <ele>293</ele>
        <time>2017-09-20T12:19:28Z</time>
      </trkpt>
      <trkpt lat="44.57491" lon="1.80047">
        <ele>291</ele>
        <time>2017-09-20T12:19:41Z</time>
      </trkpt>
      <trkpt lat="44.57484" lon="1.80028">
        <ele>291</ele>
        <time>2017-09-20T12:19:55Z</time>
      </trkpt>
      <trkpt lat="44.57473" lon="1.80013">
        <ele>290</ele>
        <time>2017-09-20T12:20:07Z</time>
      </trkpt>
      <trkpt lat="44.5747" lon="1.80009">
        <ele>290</ele>
        <time>2017-09-20T12:20:10Z</time>
      </trkpt>
      <trkpt lat="44.5745" lon="1.79976">
        <ele>290</ele>
        <time>2017-09-20T12:20:35Z</time>
      </trkpt>
      <trkpt lat="44.57448" lon="1.79973">
        <ele>289</ele>
        <time>2017-09-20T12:20:37Z</time>
      </trkpt>
      <trkpt lat="44.57433" lon="1.79941">
        <ele>289</ele>
        <time>2017-09-20T12:21:01Z</time>
      </trkpt>
      <trkpt lat="44.57429" lon="1.79933">
        <ele>288</ele>
        <time>2017-09-20T12:21:08Z</time>
      </trkpt>
      <trkpt lat="44.57428" lon="1.79917">
        <ele>288</ele>
        <time>2017-09-20T12:21:18Z</time>
      </trkpt>
      <trkpt lat="44.57428" lon="1.79913">
        <ele>288</ele>
        <time>2017-09-20T12:21:20Z</time>
      </trkpt>
      <trkpt lat="44.57428" lon="1.7991">
        <ele>288</ele>
        <time>2017-09-20T12:21:22Z</time>
      </trkpt>
      <trkpt lat="44.57427" lon="1.79907">
        <ele>288</ele>
        <time>2017-09-20T12:21:24Z</time>
      </trkpt>
      <trkpt lat="44.57428" lon="1.79892">
        <ele>290</ele>
        <time>2017-09-20T12:21:33Z</time>
      </trkpt>
      <trkpt lat="44.57429" lon="1.79888">
        <ele>290</ele>
        <time>2017-09-20T12:21:36Z</time>
      </trkpt>
      <trkpt lat="44.57425" lon="1.79874">
        <ele>290</ele>
        <time>2017-09-20T12:21:45Z</time>
      </trkpt>
      <trkpt lat="44.57423" lon="1.79864">
        <ele>290</ele>
        <time>2017-09-20T12:21:52Z</time>
      </trkpt>
      <trkpt lat="44.57413" lon="1.79823">
        <ele>282</ele>
        <time>2017-09-20T12:22:18Z</time>
      </trkpt>
      <trkpt lat="44.57412" lon="1.7982">
        <ele>282</ele>
        <time>2017-09-20T12:22:20Z</time>
      </trkpt>
      <trkpt lat="44.57396" lon="1.79773">
        <ele>280</ele>
        <time>2017-09-20T12:22:51Z</time>
      </trkpt>
      <trkpt lat="44.57391" lon="1.79751">
        <ele>281</ele>
        <time>2017-09-20T12:23:07Z</time>
      </trkpt>
      <trkpt lat="44.57391" lon="1.79749">
        <ele>283</ele>
        <time>2017-09-20T12:23:09Z</time>
      </trkpt>
      <trkpt lat="44.57382" lon="1.79719">
        <ele>282</ele>
        <time>2017-09-20T12:23:31Z</time>
      </trkpt>
      <trkpt lat="44.5738" lon="1.79709">
        <ele>281</ele>
        <time>2017-09-20T12:23:37Z</time>
      </trkpt>
      <trkpt lat="44.57379" lon="1.79707">
        <ele>281</ele>
        <time>2017-09-20T12:23:39Z</time>
      </trkpt>
      <trkpt lat="44.57377" lon="1.79683">
        <ele>281</ele>
        <time>2017-09-20T12:23:55Z</time>
      </trkpt>
      <trkpt lat="44.57375" lon="1.79674">
        <ele>281</ele>
        <time>2017-09-20T12:24:01Z</time>
      </trkpt>
      <trkpt lat="44.57372" lon="1.7965">
        <ele>281</ele>
        <time>2017-09-20T12:24:16Z</time>
      </trkpt>
      <trkpt lat="44.57373" lon="1.79635">
        <ele>281</ele>
        <time>2017-09-20T12:24:26Z</time>
      </trkpt>
      <trkpt lat="44.57374" lon="1.79629">
        <ele>281</ele>
        <time>2017-09-20T12:24:29Z</time>
      </trkpt>
      <trkpt lat="44.57374" lon="1.79625">
        <ele>281</ele>
        <time>2017-09-20T12:24:32Z</time>
      </trkpt>
      <trkpt lat="44.57374" lon="1.79621">
        <ele>281</ele>
        <time>2017-09-20T12:24:35Z</time>
      </trkpt>
      <trkpt lat="44.57373" lon="1.79612">
        <ele>281</ele>
        <time>2017-09-20T12:24:40Z</time>
      </trkpt>
      <trkpt lat="44.57374" lon="1.79578">
        <ele>278</ele>
        <time>2017-09-20T12:24:59Z</time>
      </trkpt>
      <trkpt lat="44.57375" lon="1.79573">
        <ele>278</ele>
        <time>2017-09-20T12:25:02Z</time>
      </trkpt>
      <trkpt lat="44.57375" lon="1.79569">
        <ele>278</ele>
        <time>2017-09-20T12:25:05Z</time>
      </trkpt>
      <trkpt lat="44.57379" lon="1.79515">
        <ele>276</ele>
        <time>2017-09-20T12:25:37Z</time>
      </trkpt>
      <trkpt lat="44.5738" lon="1.79511">
        <ele>276</ele>
        <time>2017-09-20T12:25:40Z</time>
      </trkpt>
      <trkpt lat="44.57382" lon="1.79506">
        <ele>277</ele>
        <time>2017-09-20T12:25:44Z</time>
      </trkpt>
      <trkpt lat="44.57383" lon="1.79503">
        <ele>277</ele>
        <time>2017-09-20T12:25:46Z</time>
      </trkpt>
      <trkpt lat="44.57383" lon="1.79499">
        <ele>271</ele>
        <time>2017-09-20T12:25:49Z</time>
      </trkpt>
      <trkpt lat="44.57382" lon="1.79495">
        <ele>271</ele>
        <time>2017-09-20T12:25:52Z</time>
      </trkpt>
      <trkpt lat="44.57382" lon="1.79488">
        <ele>270</ele>
        <time>2017-09-20T12:25:56Z</time>
      </trkpt>
      <trkpt lat="44.57382" lon="1.79484">
        <ele>270</ele>
        <time>2017-09-20T12:25:59Z</time>
      </trkpt>
      <trkpt lat="44.57383" lon="1.79481">
        <ele>270</ele>
        <time>2017-09-20T12:26:01Z</time>
      </trkpt>
      <trkpt lat="44.57384" lon="1.79477">
        <ele>270</ele>
        <time>2017-09-20T12:26:04Z</time>
      </trkpt>
      <trkpt lat="44.57384" lon="1.79474">
        <ele>270</ele>
        <time>2017-09-20T12:26:07Z</time>
      </trkpt>
      <trkpt lat="44.57387" lon="1.79467">
        <ele>269</ele>
        <time>2017-09-20T12:26:12Z</time>
      </trkpt>
      <trkpt lat="44.57387" lon="1.79463">
        <ele>269</ele>
        <time>2017-09-20T12:26:15Z</time>
      </trkpt>
      <trkpt lat="44.57388" lon="1.79455">
        <ele>269</ele>
        <time>2017-09-20T12:26:21Z</time>
      </trkpt>
      <trkpt lat="44.57389" lon="1.79451">
        <ele>268</ele>
        <time>2017-09-20T12:26:25Z</time>
      </trkpt>
      <trkpt lat="44.5739" lon="1.79447">
        <ele>268</ele>
        <time>2017-09-20T12:26:28Z</time>
      </trkpt>
      <trkpt lat="44.57388" lon="1.7944">
        <ele>268</ele>
        <time>2017-09-20T12:26:33Z</time>
      </trkpt>
      <trkpt lat="44.57388" lon="1.79436">
        <ele>268</ele>
        <time>2017-09-20T12:26:36Z</time>
      </trkpt>
      <trkpt lat="44.57389" lon="1.79431">
        <ele>268</ele>
        <time>2017-09-20T12:26:39Z</time>
      </trkpt>
      <trkpt lat="44.57391" lon="1.79427">
        <ele>268</ele>
        <time>2017-09-20T12:26:42Z</time>
      </trkpt>
      <trkpt lat="44.57392" lon="1.79424">
        <ele>268</ele>
        <time>2017-09-20T12:26:45Z</time>
      </trkpt>
      <trkpt lat="44.57392" lon="1.7942">
        <ele>268</ele>
        <time>2017-09-20T12:26:49Z</time>
      </trkpt>
      <trkpt lat="44.57393" lon="1.79417">
        <ele>265</ele>
        <time>2017-09-20T12:26:53Z</time>
      </trkpt>
      <trkpt lat="44.57394" lon="1.79412">
        <ele>265</ele>
        <time>2017-09-20T12:26:57Z</time>
      </trkpt>
      <trkpt lat="44.57396" lon="1.79408">
        <ele>265</ele>
        <time>2017-09-20T12:27:00Z</time>
      </trkpt>
      <trkpt lat="44.57398" lon="1.79405">
        <ele>266</ele>
        <time>2017-09-20T12:27:03Z</time>
      </trkpt>
      <trkpt lat="44.57402" lon="1.79392">
        <ele>265</ele>
        <time>2017-09-20T12:27:12Z</time>
      </trkpt>
      <trkpt lat="44.57404" lon="1.7939">
        <ele>265</ele>
        <time>2017-09-20T12:27:14Z</time>
      </trkpt>
      <trkpt lat="44.57406" lon="1.79385">
        <ele>265</ele>
        <time>2017-09-20T12:27:18Z</time>
      </trkpt>
      <trkpt lat="44.57407" lon="1.79382">
        <ele>265</ele>
        <time>2017-09-20T12:27:21Z</time>
      </trkpt>
      <trkpt lat="44.57411" lon="1.7937">
        <ele>264</ele>
        <time>2017-09-20T12:27:30Z</time>
      </trkpt>
      <trkpt lat="44.57413" lon="1.79363">
        <ele>264</ele>
        <time>2017-09-20T12:27:34Z</time>
      </trkpt>
      <trkpt lat="44.57413" lon="1.79356">
        <ele>264</ele>
        <time>2017-09-20T12:27:38Z</time>
      </trkpt>
      <trkpt lat="44.57413" lon="1.79352">
        <ele>264</ele>
        <time>2017-09-20T12:27:40Z</time>
      </trkpt>
      <trkpt lat="44.57411" lon="1.79346">
        <ele>265</ele>
        <time>2017-09-20T12:27:44Z</time>
      </trkpt>
      <trkpt lat="44.5741" lon="1.79343">
        <ele>265</ele>
        <time>2017-09-20T12:27:46Z</time>
      </trkpt>
      <trkpt lat="44.57404" lon="1.79336">
        <ele>265</ele>
        <time>2017-09-20T12:27:52Z</time>
      </trkpt>
      <trkpt lat="44.57399" lon="1.79333">
        <ele>267</ele>
        <time>2017-09-20T12:27:56Z</time>
      </trkpt>
      <trkpt lat="44.57374" lon="1.79328">
        <ele>267</ele>
        <time>2017-09-20T12:28:18Z</time>
      </trkpt>
      <trkpt lat="44.57336" lon="1.79328">
        <ele>261</ele>
        <time>2017-09-20T12:28:50Z</time>
      </trkpt>
      <trkpt lat="44.5733" lon="1.79326">
        <ele>261</ele>
        <time>2017-09-20T12:28:54Z</time>
      </trkpt>
      <trkpt lat="44.57322" lon="1.79327">
        <ele>262</ele>
        <time>2017-09-20T12:29:01Z</time>
      </trkpt>
      <trkpt lat="44.57284" lon="1.79326">
        <ele>265</ele>
        <time>2017-09-20T12:29:32Z</time>
      </trkpt>
      <trkpt lat="44.57247" lon="1.79327">
        <ele>264</ele>
        <time>2017-09-20T12:30:03Z</time>
      </trkpt>
      <trkpt lat="44.57244" lon="1.79326">
        <ele>264</ele>
        <time>2017-09-20T12:30:05Z</time>
      </trkpt>
      <trkpt lat="44.57243" lon="1.79324">
        <ele>264</ele>
        <time>2017-09-20T12:30:07Z</time>
      </trkpt>
      <trkpt lat="44.57241" lon="1.79322">
        <ele>264</ele>
        <time>2017-09-20T12:30:13Z</time>
      </trkpt>
      <trkpt lat="44.57228" lon="1.7932">
        <ele>265</ele>
        <time>2017-09-20T12:30:25Z</time>
      </trkpt>
      <trkpt lat="44.5722" lon="1.7932">
        <ele>265</ele>
        <time>2017-09-20T12:30:31Z</time>
      </trkpt>
      <trkpt lat="44.57208" lon="1.79318">
        <ele>264</ele>
        <time>2017-09-20T12:30:41Z</time>
      </trkpt>
      <trkpt lat="44.57206" lon="1.79317">
        <ele>264</ele>
        <time>2017-09-20T12:30:43Z</time>
      </trkpt>
      <trkpt lat="44.57203" lon="1.79316">
        <ele>264</ele>
        <time>2017-09-20T12:30:45Z</time>
      </trkpt>
      <trkpt lat="44.57196" lon="1.79313">
        <ele>264</ele>
        <time>2017-09-20T12:30:51Z</time>
      </trkpt>
      <trkpt lat="44.5719" lon="1.79313">
        <ele>264</ele>
        <time>2017-09-20T12:30:56Z</time>
      </trkpt>
      <trkpt lat="44.57188" lon="1.79313">
        <ele>264</ele>
        <time>2017-09-20T12:30:58Z</time>
      </trkpt>
      <trkpt lat="44.57155" lon="1.79316">
        <ele>256</ele>
        <time>2017-09-20T12:31:23Z</time>
      </trkpt>
      <trkpt lat="44.57131" lon="1.79323">
        <ele>253</ele>
        <time>2017-09-20T12:31:43Z</time>
      </trkpt>
      <trkpt lat="44.57128" lon="1.79324">
        <ele>252</ele>
        <time>2017-09-20T12:31:45Z</time>
      </trkpt>
      <trkpt lat="44.57118" lon="1.79326">
        <ele>251</ele>
        <time>2017-09-20T12:31:53Z</time>
      </trkpt>
      <trkpt lat="44.57115" lon="1.79329">
        <ele>250</ele>
        <time>2017-09-20T12:31:56Z</time>
      </trkpt>
      <trkpt lat="44.57112" lon="1.79331">
        <ele>249</ele>
        <time>2017-09-20T12:31:59Z</time>
      </trkpt>
      <trkpt lat="44.57095" lon="1.79331">
        <ele>246</ele>
        <time>2017-09-20T12:32:11Z</time>
      </trkpt>
      <trkpt lat="44.57091" lon="1.79332">
        <ele>245</ele>
        <time>2017-09-20T12:32:14Z</time>
      </trkpt>
      <trkpt lat="44.57085" lon="1.79335">
        <ele>242</ele>
        <time>2017-09-20T12:32:19Z</time>
      </trkpt>
      <trkpt lat="44.57082" lon="1.79337">
        <ele>237</ele>
        <time>2017-09-20T12:32:21Z</time>
      </trkpt>
      <trkpt lat="44.57073" lon="1.79335">
        <ele>229</ele>
        <time>2017-09-20T12:32:27Z</time>
      </trkpt>
      <trkpt lat="44.57071" lon="1.79334">
        <ele>227</ele>
        <time>2017-09-20T12:32:36Z</time>
      </trkpt>
      <trkpt lat="44.5707" lon="1.79332">
        <ele>232</ele>
        <time>2017-09-20T12:32:43Z</time>
      </trkpt>
      <trkpt lat="44.57068" lon="1.7933">
        <ele>231</ele>
        <time>2017-09-20T12:32:45Z</time>
      </trkpt>
      <trkpt lat="44.57069" lon="1.79327">
        <ele>231</ele>
        <time>2017-09-20T12:32:47Z</time>
      </trkpt>
      <trkpt lat="44.57071" lon="1.79325">
        <ele>231</ele>
        <time>2017-09-20T12:32:50Z</time>
      </trkpt>
      <trkpt lat="44.57072" lon="1.79324">
        <ele>232</ele>
        <time>2017-09-20T12:33:19Z</time>
      </trkpt>
      <trkpt lat="44.57075" lon="1.79322">
        <ele>232</ele>
        <time>2017-09-20T12:33:25Z</time>
      </trkpt>
      <trkpt lat="44.57082" lon="1.79315">
        <ele>231</ele>
        <time>2017-09-20T12:33:35Z</time>
      </trkpt>
      <trkpt lat="44.57084" lon="1.79298">
        <ele>248</ele>
        <time>2017-09-20T12:33:51Z</time>
      </trkpt>
      <trkpt lat="44.57085" lon="1.79295">
        <ele>248</ele>
        <time>2017-09-20T12:33:54Z</time>
      </trkpt>
      <trkpt lat="44.57086" lon="1.79293">
        <ele>248</ele>
        <time>2017-09-20T12:33:56Z</time>
      </trkpt>
      <trkpt lat="44.57086" lon="1.79288">
        <ele>248</ele>
        <time>2017-09-20T12:34:00Z</time>
      </trkpt>
      <trkpt lat="44.57088" lon="1.79281">
        <ele>248</ele>
        <time>2017-09-20T12:34:05Z</time>
      </trkpt>
      <trkpt lat="44.5709" lon="1.79279">
        <ele>248</ele>
        <time>2017-09-20T12:34:09Z</time>
      </trkpt>
      <trkpt lat="44.57093" lon="1.79272">
        <ele>248</ele>
        <time>2017-09-20T12:34:18Z</time>
      </trkpt>
      <trkpt lat="44.57097" lon="1.79264">
        <ele>247</ele>
        <time>2017-09-20T12:34:24Z</time>
      </trkpt>
      <trkpt lat="44.57099" lon="1.79257">
        <ele>247</ele>
        <time>2017-09-20T12:34:29Z</time>
      </trkpt>
      <trkpt lat="44.571" lon="1.79253">
        <ele>247</ele>
        <time>2017-09-20T12:34:32Z</time>
      </trkpt>
      <trkpt lat="44.571" lon="1.79249">
        <ele>245</ele>
        <time>2017-09-20T12:34:35Z</time>
      </trkpt>
      <trkpt lat="44.57098" lon="1.79239">
        <ele>245</ele>
        <time>2017-09-20T12:34:41Z</time>
      </trkpt>
      <trkpt lat="44.57098" lon="1.79234">
        <ele>246</ele>
        <time>2017-09-20T12:34:44Z</time>
      </trkpt>
      <trkpt lat="44.57098" lon="1.79228">
        <ele>246</ele>
        <time>2017-09-20T12:34:48Z</time>
      </trkpt>
      <trkpt lat="44.57097" lon="1.79216">
        <ele>245</ele>
        <time>2017-09-20T12:34:55Z</time>
      </trkpt>
      <trkpt lat="44.57098" lon="1.7921">
        <ele>245</ele>
        <time>2017-09-20T12:34:59Z</time>
      </trkpt>
      <trkpt lat="44.57099" lon="1.79206">
        <ele>245</ele>
        <time>2017-09-20T12:35:01Z</time>
      </trkpt>
      <trkpt lat="44.57118" lon="1.79173">
        <ele>245</ele>
        <time>2017-09-20T12:35:28Z</time>
      </trkpt>
      <trkpt lat="44.57129" lon="1.79144">
        <ele>241</ele>
        <time>2017-09-20T12:35:50Z</time>
      </trkpt>
      <trkpt lat="44.57128" lon="1.79137">
        <ele>240</ele>
        <time>2017-09-20T12:36:14Z</time>
      </trkpt>
      <trkpt lat="44.57129" lon="1.79135">
        <ele>240</ele>
        <time>2017-09-20T12:36:33Z</time>
      </trkpt>
      <trkpt lat="44.5713" lon="1.79133">
        <ele>241</ele>
        <time>2017-09-20T12:36:35Z</time>
      </trkpt>
      <trkpt lat="44.57131" lon="1.79131">
        <ele>241</ele>
        <time>2017-09-20T12:36:38Z</time>
      </trkpt>
      <trkpt lat="44.57132" lon="1.79128">
        <ele>241</ele>
        <time>2017-09-20T12:36:40Z</time>
      </trkpt>
      <trkpt lat="44.57132" lon="1.79126">
        <ele>241</ele>
        <time>2017-09-20T12:36:42Z</time>
      </trkpt>
      <trkpt lat="44.57133" lon="1.79124">
        <ele>241</ele>
        <time>2017-09-20T12:36:44Z</time>
      </trkpt>
      <trkpt lat="44.57134" lon="1.79123">
        <ele>241</ele>
        <time>2017-09-20T12:36:47Z</time>
      </trkpt>
      <trkpt lat="44.57136" lon="1.79121">
        <ele>241</ele>
        <time>2017-09-20T12:36:49Z</time>
      </trkpt>
      <trkpt lat="44.57144" lon="1.79078">
        <ele>241</ele>
        <time>2017-09-20T12:37:20Z</time>
      </trkpt>
      <trkpt lat="44.57147" lon="1.79062">
        <ele>240</ele>
        <time>2017-09-20T12:37:30Z</time>
      </trkpt>
      <trkpt lat="44.57149" lon="1.79012">
        <ele>242</ele>
        <time>2017-09-20T12:38:00Z</time>
      </trkpt>
      <trkpt lat="44.57149" lon="1.79005">
        <ele>243</ele>
        <time>2017-09-20T12:38:04Z</time>
      </trkpt>
      <trkpt lat="44.57147" lon="1.78998">
        <ele>245</ele>
        <time>2017-09-20T12:38:08Z</time>
      </trkpt>
      <trkpt lat="44.57146" lon="1.78994">
        <ele>245</ele>
        <time>2017-09-20T12:38:11Z</time>
      </trkpt>
      <trkpt lat="44.57145" lon="1.78992">
        <ele>244</ele>
        <time>2017-09-20T12:38:13Z</time>
      </trkpt>
      <trkpt lat="44.57143" lon="1.78991">
        <ele>243</ele>
        <time>2017-09-20T12:38:15Z</time>
      </trkpt>
      <trkpt lat="44.57141" lon="1.7899">
        <ele>243</ele>
        <time>2017-09-20T12:38:17Z</time>
      </trkpt>
      <trkpt lat="44.57139" lon="1.7899">
        <ele>242</ele>
        <time>2017-09-20T12:38:19Z</time>
      </trkpt>
      <trkpt lat="44.57136" lon="1.78991">
        <ele>241</ele>
        <time>2017-09-20T12:38:21Z</time>
      </trkpt>
      <trkpt lat="44.57135" lon="1.78993">
        <ele>241</ele>
        <time>2017-09-20T12:38:23Z</time>
      </trkpt>
      <trkpt lat="44.57133" lon="1.79001">
        <ele>237</ele>
        <time>2017-09-20T12:38:28Z</time>
      </trkpt>
      <trkpt lat="44.57131" lon="1.79042">
        <ele>236</ele>
        <time>2017-09-20T12:38:56Z</time>
      </trkpt>
      <trkpt lat="44.57131" lon="1.79048">
        <ele>236</ele>
        <time>2017-09-20T12:39:02Z</time>
      </trkpt>
      <trkpt lat="44.57129" lon="1.79051">
        <ele>235</ele>
        <time>2017-09-20T12:39:07Z</time>
      </trkpt>
      <trkpt lat="44.57127" lon="1.7905">
        <ele>235</ele>
        <time>2017-09-20T12:39:09Z</time>
      </trkpt>
      <trkpt lat="44.57126" lon="1.79048">
        <ele>234</ele>
        <time>2017-09-20T12:39:12Z</time>
      </trkpt>
      <trkpt lat="44.57124" lon="1.79044">
        <ele>234</ele>
        <time>2017-09-20T12:39:25Z</time>
      </trkpt>
      <trkpt lat="44.57123" lon="1.79039">
        <ele>234</ele>
        <time>2017-09-20T12:39:32Z</time>
      </trkpt>
      <trkpt lat="44.57124" lon="1.79036">
        <ele>234</ele>
        <time>2017-09-20T12:39:36Z</time>
      </trkpt>
      <trkpt lat="44.57122" lon="1.79032">
        <ele>234</ele>
        <time>2017-09-20T12:39:40Z</time>
      </trkpt>
      <trkpt lat="44.5712" lon="1.79029">
        <ele>233</ele>
        <time>2017-09-20T12:39:44Z</time>
      </trkpt>
      <trkpt lat="44.57118" lon="1.7902">
        <ele>232</ele>
        <time>2017-09-20T12:39:54Z</time>
      </trkpt>
      <trkpt lat="44.57115" lon="1.79017">
        <ele>231</ele>
        <time>2017-09-20T12:39:58Z</time>
      </trkpt>
      <trkpt lat="44.57114" lon="1.79014">
        <ele>231</ele>
        <time>2017-09-20T12:40:01Z</time>
      </trkpt>
      <trkpt lat="44.57112" lon="1.7901">
        <ele>230</ele>
        <time>2017-09-20T12:40:05Z</time>
      </trkpt>
      <trkpt lat="44.57108" lon="1.79">
        <ele>228</ele>
        <time>2017-09-20T12:40:13Z</time>
      </trkpt>
      <trkpt lat="44.57106" lon="1.78991">
        <ele>230</ele>
        <time>2017-09-20T12:40:23Z</time>
      </trkpt>
      <trkpt lat="44.57102" lon="1.78982">
        <ele>230</ele>
        <time>2017-09-20T12:40:31Z</time>
      </trkpt>
      <trkpt lat="44.57099" lon="1.78976">
        <ele>230</ele>
        <time>2017-09-20T12:40:36Z</time>
      </trkpt>
      <trkpt lat="44.57095" lon="1.7897">
        <ele>231</ele>
        <time>2017-09-20T12:40:41Z</time>
      </trkpt>
      <trkpt lat="44.57091" lon="1.78965">
        <ele>231</ele>
        <time>2017-09-20T12:40:46Z</time>
      </trkpt>
      <trkpt lat="44.57084" lon="1.7895">
        <ele>230</ele>
        <time>2017-09-20T12:40:59Z</time>
      </trkpt>
      <trkpt lat="44.57081" lon="1.78945">
        <ele>205</ele>
        <time>2017-09-20T12:41:05Z</time>
      </trkpt>
      <trkpt lat="44.57079" lon="1.78939">
        <ele>206</ele>
        <time>2017-09-20T12:41:10Z</time>
      </trkpt>
      <trkpt lat="44.57076" lon="1.78933">
        <ele>208</ele>
        <time>2017-09-20T12:41:15Z</time>
      </trkpt>
      <trkpt lat="44.57074" lon="1.78927">
        <ele>209</ele>
        <time>2017-09-20T12:41:21Z</time>
      </trkpt>
      <trkpt lat="44.57072" lon="1.78921">
        <ele>210</ele>
        <time>2017-09-20T12:41:26Z</time>
      </trkpt>
      <trkpt lat="44.57071" lon="1.78915">
        <ele>213</ele>
        <time>2017-09-20T12:41:30Z</time>
      </trkpt>
      <trkpt lat="44.5707" lon="1.7891">
        <ele>213</ele>
        <time>2017-09-20T12:41:35Z</time>
      </trkpt>
      <trkpt lat="44.57068" lon="1.78897">
        <ele>212</ele>
        <time>2017-09-20T12:41:46Z</time>
      </trkpt>
      <trkpt lat="44.57064" lon="1.78892">
        <ele>211</ele>
        <time>2017-09-20T12:41:51Z</time>
      </trkpt>
      <trkpt lat="44.57061" lon="1.78895">
        <ele>210</ele>
        <time>2017-09-20T12:41:57Z</time>
      </trkpt>
      <trkpt lat="44.57057" lon="1.78907">
        <ele>209</ele>
        <time>2017-09-20T12:42:08Z</time>
      </trkpt>
      <trkpt lat="44.57054" lon="1.78908">
        <ele>208</ele>
        <time>2017-09-20T12:42:13Z</time>
      </trkpt>
      <trkpt lat="44.57052" lon="1.78902">
        <ele>208</ele>
        <time>2017-09-20T12:42:17Z</time>
      </trkpt>
      <trkpt lat="44.57037" lon="1.78854">
        <ele>207</ele>
        <time>2017-09-20T12:42:49Z</time>
      </trkpt>
      <trkpt lat="44.57036" lon="1.78851">
        <ele>207</ele>
        <time>2017-09-20T12:42:51Z</time>
      </trkpt>
      <trkpt lat="44.57034" lon="1.78845">
        <ele>206</ele>
        <time>2017-09-20T12:42:55Z</time>
      </trkpt>
      <trkpt lat="44.57034" lon="1.78841">
        <ele>206</ele>
        <time>2017-09-20T12:42:58Z</time>
      </trkpt>
      <trkpt lat="44.57029" lon="1.78833">
        <ele>214</ele>
        <time>2017-09-20T12:43:07Z</time>
      </trkpt>
      <trkpt lat="44.57028" lon="1.7883">
        <ele>214</ele>
        <time>2017-09-20T12:43:24Z</time>
      </trkpt>
      <trkpt lat="44.57022" lon="1.78823">
        <ele>211</ele>
        <time>2017-09-20T12:43:40Z</time>
      </trkpt>
      <trkpt lat="44.57017" lon="1.7882">
        <ele>209</ele>
        <time>2017-09-20T12:43:46Z</time>
      </trkpt>
      <trkpt lat="44.57017" lon="1.78815">
        <ele>211</ele>
        <time>2017-09-20T12:43:49Z</time>
      </trkpt>
      <trkpt lat="44.57014" lon="1.78809">
        <ele>212</ele>
        <time>2017-09-20T12:43:55Z</time>
      </trkpt>
      <trkpt lat="44.57" lon="1.78786">
        <ele>187</ele>
        <time>2017-09-20T12:44:12Z</time>
      </trkpt>
      <trkpt lat="44.56997" lon="1.78782">
        <ele>188</ele>
        <time>2017-09-20T12:44:16Z</time>
      </trkpt>
      <trkpt lat="44.56989" lon="1.78771">
        <ele>190</ele>
        <time>2017-09-20T12:44:26Z</time>
      </trkpt>
      <trkpt lat="44.56988" lon="1.78767">
        <ele>191</ele>
        <time>2017-09-20T12:44:30Z</time>
      </trkpt>
      <trkpt lat="44.56983" lon="1.78753">
        <ele>193</ele>
        <time>2017-09-20T12:44:42Z</time>
      </trkpt>
      <trkpt lat="44.56981" lon="1.78744">
        <ele>198</ele>
        <time>2017-09-20T12:44:48Z</time>
      </trkpt>
      <trkpt lat="44.56979" lon="1.78735">
        <ele>197</ele>
        <time>2017-09-20T12:44:54Z</time>
      </trkpt>
      <trkpt lat="44.56978" lon="1.78727">
        <ele>197</ele>
        <time>2017-09-20T12:44:59Z</time>
      </trkpt>
      <trkpt lat="44.56979" lon="1.78718">
        <ele>197</ele>
        <time>2017-09-20T12:45:05Z</time>
      </trkpt>
      <trkpt lat="44.56971" lon="1.78698">
        <ele>197</ele>
        <time>2017-09-20T12:45:19Z</time>
      </trkpt>
      <trkpt lat="44.56971" lon="1.78695">
        <ele>197</ele>
        <time>2017-09-20T12:45:21Z</time>
      </trkpt>
      <trkpt lat="44.56972" lon="1.78691">
        <ele>198</ele>
        <time>2017-09-20T12:45:23Z</time>
      </trkpt>
      <trkpt lat="44.56973" lon="1.78687">
        <ele>199</ele>
        <time>2017-09-20T12:45:26Z</time>
      </trkpt>
      <trkpt lat="44.56975" lon="1.78676">
        <ele>201</ele>
        <time>2017-09-20T12:45:32Z</time>
      </trkpt>
      <trkpt lat="44.56975" lon="1.78666">
        <ele>214</ele>
        <time>2017-09-20T12:45:38Z</time>
      </trkpt>
      <trkpt lat="44.56975" lon="1.78663">
        <ele>214</ele>
        <time>2017-09-20T12:45:40Z</time>
      </trkpt>
      <trkpt lat="44.56975" lon="1.7865">
        <ele>215</ele>
        <time>2017-09-20T12:45:50Z</time>
      </trkpt>
      <trkpt lat="44.56973" lon="1.78646">
        <ele>215</ele>
        <time>2017-09-20T12:45:53Z</time>
      </trkpt>
      <trkpt lat="44.56971" lon="1.78643">
        <ele>215</ele>
        <time>2017-09-20T12:45:57Z</time>
      </trkpt>
      <trkpt lat="44.56958" lon="1.78636">
        <ele>214</ele>
        <time>2017-09-20T12:46:08Z</time>
      </trkpt>
      <trkpt lat="44.5694" lon="1.78635">
        <ele>210</ele>
        <time>2017-09-20T12:46:26Z</time>
      </trkpt>
      <trkpt lat="44.56936" lon="1.78634">
        <ele>210</ele>
        <time>2017-09-20T12:46:29Z</time>
      </trkpt>
      <trkpt lat="44.56934" lon="1.78633">
        <ele>210</ele>
        <time>2017-09-20T12:46:32Z</time>
      </trkpt>
      <trkpt lat="44.56928" lon="1.78634">
        <ele>208</ele>
        <time>2017-09-20T12:46:37Z</time>
      </trkpt>
      <trkpt lat="44.56924" lon="1.78636">
        <ele>207</ele>
        <time>2017-09-20T12:46:41Z</time>
      </trkpt>
      <trkpt lat="44.5692" lon="1.78636">
        <ele>207</ele>
        <time>2017-09-20T12:46:44Z</time>
      </trkpt>
      <trkpt lat="44.56917" lon="1.78634">
        <ele>207</ele>
        <time>2017-09-20T12:46:46Z</time>
      </trkpt>
      <trkpt lat="44.56904" lon="1.78634">
        <ele>197</ele>
        <time>2017-09-20T12:46:57Z</time>
      </trkpt>
      <trkpt lat="44.56888" lon="1.78623">
        <ele>200</ele>
        <time>2017-09-20T12:47:12Z</time>
      </trkpt>
      <trkpt lat="44.56885" lon="1.7862">
        <ele>201</ele>
        <time>2017-09-20T12:47:15Z</time>
      </trkpt>
      <trkpt lat="44.5687" lon="1.78609">
        <ele>203</ele>
        <time>2017-09-20T12:47:28Z</time>
      </trkpt>
      <trkpt lat="44.56868" lon="1.78607">
        <ele>204</ele>
        <time>2017-09-20T12:47:30Z</time>
      </trkpt>
      <trkpt lat="44.56865" lon="1.78606">
        <ele>204</ele>
        <time>2017-09-20T12:47:33Z</time>
      </trkpt>
      <trkpt lat="44.56848" lon="1.78592">
        <ele>210</ele>
        <time>2017-09-20T12:47:51Z</time>
      </trkpt>
      <trkpt lat="44.56846" lon="1.7859">
        <ele>211</ele>
        <time>2017-09-20T12:47:53Z</time>
      </trkpt>
      <trkpt lat="44.56824" lon="1.78577">
        <ele>221</ele>
        <time>2017-09-20T12:48:15Z</time>
      </trkpt>
      <trkpt lat="44.56815" lon="1.78576">
        <ele>221</ele>
        <time>2017-09-20T12:48:23Z</time>
      </trkpt>
      <trkpt lat="44.56805" lon="1.78576">
        <ele>221</ele>
        <time>2017-09-20T12:48:31Z</time>
      </trkpt>
      <trkpt lat="44.56801" lon="1.78574">
        <ele>221</ele>
        <time>2017-09-20T12:48:35Z</time>
      </trkpt>
      <trkpt lat="44.56797" lon="1.78575">
        <ele>220</ele>
        <time>2017-09-20T12:48:39Z</time>
      </trkpt>
      <trkpt lat="44.56793" lon="1.78573">
        <ele>220</ele>
        <time>2017-09-20T12:48:42Z</time>
      </trkpt>
      <trkpt lat="44.56789" lon="1.78572">
        <ele>219</ele>
        <time>2017-09-20T12:48:46Z</time>
      </trkpt>
      <trkpt lat="44.56785" lon="1.78572">
        <ele>218</ele>
        <time>2017-09-20T12:48:50Z</time>
      </trkpt>
      <trkpt lat="44.56779" lon="1.78572">
        <ele>216</ele>
        <time>2017-09-20T12:48:55Z</time>
      </trkpt>
      <trkpt lat="44.56774" lon="1.78574">
        <ele>214</ele>
        <time>2017-09-20T12:48:59Z</time>
      </trkpt>
      <trkpt lat="44.56767" lon="1.78573">
        <ele>212</ele>
        <time>2017-09-20T12:49:04Z</time>
      </trkpt>
      <trkpt lat="44.56761" lon="1.78572">
        <ele>209</ele>
        <time>2017-09-20T12:49:09Z</time>
      </trkpt>
      <trkpt lat="44.56759" lon="1.78567">
        <ele>211</ele>
        <time>2017-09-20T12:49:12Z</time>
      </trkpt>
      <trkpt lat="44.56755" lon="1.78566">
        <ele>211</ele>
        <time>2017-09-20T12:49:15Z</time>
      </trkpt>
      <trkpt lat="44.56751" lon="1.78561">
        <ele>213</ele>
        <time>2017-09-20T12:49:21Z</time>
      </trkpt>
      <trkpt lat="44.56736" lon="1.78538">
        <ele>211</ele>
        <time>2017-09-20T12:49:44Z</time>
      </trkpt>
      <trkpt lat="44.56734" lon="1.78534">
        <ele>212</ele>
        <time>2017-09-20T12:49:47Z</time>
      </trkpt>
      <trkpt lat="44.56731" lon="1.78528">
        <ele>213</ele>
        <time>2017-09-20T12:49:51Z</time>
      </trkpt>
      <trkpt lat="44.56728" lon="1.78524">
        <ele>214</ele>
        <time>2017-09-20T12:49:55Z</time>
      </trkpt>
      <trkpt lat="44.5671" lon="1.78515">
        <ele>212</ele>
        <time>2017-09-20T12:50:10Z</time>
      </trkpt>
      <trkpt lat="44.56705" lon="1.78514">
        <ele>212</ele>
        <time>2017-09-20T12:50:15Z</time>
      </trkpt>
      <trkpt lat="44.56699" lon="1.78517">
        <ele>211</ele>
        <time>2017-09-20T12:50:23Z</time>
      </trkpt>
      <trkpt lat="44.56694" lon="1.78522">
        <ele>210</ele>
        <time>2017-09-20T12:50:27Z</time>
      </trkpt>
      <trkpt lat="44.56681" lon="1.78528">
        <ele>208</ele>
        <time>2017-09-20T12:50:38Z</time>
      </trkpt>
      <trkpt lat="44.56676" lon="1.78532">
        <ele>207</ele>
        <time>2017-09-20T12:50:46Z</time>
      </trkpt>
      <trkpt lat="44.56666" lon="1.78547">
        <ele>196</ele>
        <time>2017-09-20T12:51:00Z</time>
      </trkpt>
      <trkpt lat="44.56663" lon="1.7855">
        <ele>195</ele>
        <time>2017-09-20T12:51:04Z</time>
      </trkpt>
      <trkpt lat="44.56653" lon="1.78549">
        <ele>195</ele>
        <time>2017-09-20T12:51:14Z</time>
      </trkpt>
      <trkpt lat="44.56648" lon="1.78547">
        <ele>196</ele>
        <time>2017-09-20T12:53:19Z</time>
      </trkpt>
      <trkpt lat="44.56644" lon="1.7855">
        <ele>195</ele>
        <time>2017-09-20T12:53:23Z</time>
      </trkpt>
      <trkpt lat="44.56639" lon="1.78552">
        <ele>195</ele>
        <time>2017-09-20T12:54:02Z</time>
      </trkpt>
      <trkpt lat="44.56634" lon="1.78552">
        <ele>194</ele>
        <time>2017-09-20T12:54:05Z</time>
      </trkpt>
      <trkpt lat="44.56617" lon="1.78552">
        <ele>194</ele>
        <time>2017-09-20T12:54:20Z</time>
      </trkpt>
      <trkpt lat="44.56613" lon="1.78551">
        <ele>194</ele>
        <time>2017-09-20T12:54:23Z</time>
      </trkpt>
      <trkpt lat="44.56609" lon="1.7855">
        <ele>194</ele>
        <time>2017-09-20T12:54:26Z</time>
      </trkpt>
      <trkpt lat="44.56607" lon="1.78547">
        <ele>194</ele>
        <time>2017-09-20T12:54:28Z</time>
      </trkpt>
      <trkpt lat="44.56605" lon="1.78544">
        <ele>194</ele>
        <time>2017-09-20T12:54:30Z</time>
      </trkpt>
      <trkpt lat="44.56606" lon="1.78539">
        <ele>195</ele>
        <time>2017-09-20T12:54:33Z</time>
      </trkpt>
      <trkpt lat="44.56607" lon="1.78536">
        <ele>196</ele>
        <time>2017-09-20T12:54:35Z</time>
      </trkpt>
      <trkpt lat="44.56608" lon="1.78531">
        <ele>197</ele>
        <time>2017-09-20T12:54:38Z</time>
      </trkpt>
      <trkpt lat="44.56616" lon="1.78515">
        <ele>199</ele>
        <time>2017-09-20T12:54:52Z</time>
      </trkpt>
      <trkpt lat="44.5662" lon="1.78501">
        <ele>200</ele>
        <time>2017-09-20T12:55:02Z</time>
      </trkpt>
      <trkpt lat="44.56624" lon="1.78488">
        <ele>212</ele>
        <time>2017-09-20T12:55:11Z</time>
      </trkpt>
      <trkpt lat="44.56627" lon="1.78481">
        <ele>213</ele>
        <time>2017-09-20T12:55:16Z</time>
      </trkpt>
      <trkpt lat="44.56629" lon="1.78477">
        <ele>213</ele>
        <time>2017-09-20T12:55:21Z</time>
      </trkpt>
      <trkpt lat="44.56632" lon="1.78454">
        <ele>215</ele>
        <time>2017-09-20T12:55:36Z</time>
      </trkpt>
      <trkpt lat="44.56632" lon="1.78449">
        <ele>215</ele>
        <time>2017-09-20T12:55:40Z</time>
      </trkpt>
      <trkpt lat="44.56636" lon="1.78409">
        <ele>222</ele>
        <time>2017-09-20T12:56:06Z</time>
      </trkpt>
      <trkpt lat="44.56639" lon="1.78378">
        <ele>222</ele>
        <time>2017-09-20T12:56:27Z</time>
      </trkpt>
      <trkpt lat="44.56641" lon="1.78375">
        <ele>222</ele>
        <time>2017-09-20T12:56:30Z</time>
      </trkpt>
      <trkpt lat="44.56644" lon="1.78373">
        <ele>223</ele>
        <time>2017-09-20T12:56:34Z</time>
      </trkpt>
      <trkpt lat="44.56648" lon="1.78374">
        <ele>223</ele>
        <time>2017-09-20T12:56:37Z</time>
      </trkpt>
      <trkpt lat="44.56659" lon="1.78387">
        <ele>224</ele>
        <time>2017-09-20T12:56:50Z</time>
      </trkpt>
      <trkpt lat="44.56664" lon="1.78394">
        <ele>225</ele>
        <time>2017-09-20T12:56:56Z</time>
      </trkpt>
      <trkpt lat="44.56671" lon="1.784">
        <ele>238</ele>
        <time>2017-09-20T12:57:02Z</time>
      </trkpt>
      <trkpt lat="44.56703" lon="1.78426">
        <ele>235</ele>
        <time>2017-09-20T12:57:33Z</time>
      </trkpt>
      <trkpt lat="44.56712" lon="1.78433">
        <ele>236</ele>
        <time>2017-09-20T12:57:43Z</time>
      </trkpt>
      <trkpt lat="44.56715" lon="1.78434">
        <ele>236</ele>
        <time>2017-09-20T12:57:46Z</time>
      </trkpt>
      <trkpt lat="44.56718" lon="1.78435">
        <ele>237</ele>
        <time>2017-09-20T12:57:49Z</time>
      </trkpt>
      <trkpt lat="44.56721" lon="1.78432">
        <ele>238</ele>
        <time>2017-09-20T12:57:53Z</time>
      </trkpt>
      <trkpt lat="44.56722" lon="1.78429">
        <ele>238</ele>
        <time>2017-09-20T12:57:57Z</time>
      </trkpt>
      <trkpt lat="44.56721" lon="1.78426">
        <ele>238</ele>
        <time>2017-09-20T12:58:00Z</time>
      </trkpt>
      <trkpt lat="44.56719" lon="1.78417">
        <ele>238</ele>
        <time>2017-09-20T12:58:06Z</time>
      </trkpt>
      <trkpt lat="44.56718" lon="1.78413">
        <ele>246</ele>
        <time>2017-09-20T12:58:09Z</time>
      </trkpt>
      <trkpt lat="44.56716" lon="1.78403">
        <ele>245</ele>
        <time>2017-09-20T12:58:17Z</time>
      </trkpt>
      <trkpt lat="44.56716" lon="1.78391">
        <ele>245</ele>
        <time>2017-09-20T12:58:30Z</time>
      </trkpt>
      <trkpt lat="44.56713" lon="1.78381">
        <ele>245</ele>
        <time>2017-09-20T12:58:36Z</time>
      </trkpt>
      <trkpt lat="44.56712" lon="1.78377">
        <ele>245</ele>
        <time>2017-09-20T12:58:38Z</time>
      </trkpt>
      <trkpt lat="44.56707" lon="1.78345">
        <ele>246</ele>
        <time>2017-09-20T12:59:00Z</time>
      </trkpt>
      <trkpt lat="44.56708" lon="1.78333">
        <ele>246</ele>
        <time>2017-09-20T12:59:07Z</time>
      </trkpt>
      <trkpt lat="44.56711" lon="1.78325">
        <ele>249</ele>
        <time>2017-09-20T12:59:14Z</time>
      </trkpt>
      <trkpt lat="44.56714" lon="1.78319">
        <ele>249</ele>
        <time>2017-09-20T12:59:19Z</time>
      </trkpt>
      <trkpt lat="44.56716" lon="1.78311">
        <ele>249</ele>
        <time>2017-09-20T12:59:25Z</time>
      </trkpt>
      <trkpt lat="44.56719" lon="1.78304">
        <ele>250</ele>
        <time>2017-09-20T12:59:31Z</time>
      </trkpt>
      <trkpt lat="44.5672" lon="1.783">
        <ele>250</ele>
        <time>2017-09-20T12:59:34Z</time>
      </trkpt>
      <trkpt lat="44.56724" lon="1.78291">
        <ele>250</ele>
        <time>2017-09-20T12:59:41Z</time>
      </trkpt>
      <trkpt lat="44.56727" lon="1.78282">
        <ele>251</ele>
        <time>2017-09-20T12:59:47Z</time>
      </trkpt>
      <trkpt lat="44.56731" lon="1.78265">
        <ele>253</ele>
        <time>2017-09-20T12:59:58Z</time>
      </trkpt>
      <trkpt lat="44.56734" lon="1.78257">
        <ele>254</ele>
        <time>2017-09-20T13:00:03Z</time>
      </trkpt>
      <trkpt lat="44.56739" lon="1.78252">
        <ele>256</ele>
        <time>2017-09-20T13:00:08Z</time>
      </trkpt>
      <trkpt lat="44.56741" lon="1.78249">
        <ele>259</ele>
        <time>2017-09-20T13:00:11Z</time>
      </trkpt>
      <trkpt lat="44.56745" lon="1.78252">
        <ele>258</ele>
        <time>2017-09-20T13:00:14Z</time>
      </trkpt>
      <trkpt lat="44.56746" lon="1.78257">
        <ele>258</ele>
        <time>2017-09-20T13:00:17Z</time>
      </trkpt>
      <trkpt lat="44.56749" lon="1.78262">
        <ele>256</ele>
        <time>2017-09-20T13:00:21Z</time>
      </trkpt>
      <trkpt lat="44.56758" lon="1.78269">
        <ele>265</ele>
        <time>2017-09-20T13:00:30Z</time>
      </trkpt>
      <trkpt lat="44.56766" lon="1.78268">
        <ele>266</ele>
        <time>2017-09-20T13:00:37Z</time>
      </trkpt>
      <trkpt lat="44.56769" lon="1.78267">
        <ele>266</ele>
        <time>2017-09-20T13:00:40Z</time>
      </trkpt>
      <trkpt lat="44.56789" lon="1.78242">
        <ele>269</ele>
        <time>2017-09-20T13:01:06Z</time>
      </trkpt>
      <trkpt lat="44.56821" lon="1.78225">
        <ele>272</ele>
        <time>2017-09-20T13:01:36Z</time>
      </trkpt>
      <trkpt lat="44.56839" lon="1.7821">
        <ele>278</ele>
        <time>2017-09-20T13:01:53Z</time>
      </trkpt>
      <trkpt lat="44.56854" lon="1.78194">
        <ele>279</ele>
        <time>2017-09-20T13:02:08Z</time>
      </trkpt>
      <trkpt lat="44.56856" lon="1.78191">
        <ele>279</ele>
        <time>2017-09-20T13:02:11Z</time>
      </trkpt>
      <trkpt lat="44.56872" lon="1.78169">
        <ele>279</ele>
        <time>2017-09-20T13:02:30Z</time>
      </trkpt>
      <trkpt lat="44.56889" lon="1.78155">
        <ele>280</ele>
        <time>2017-09-20T13:02:47Z</time>
      </trkpt>
      <trkpt lat="44.56901" lon="1.7815">
        <ele>281</ele>
        <time>2017-09-20T13:02:57Z</time>
      </trkpt>
      <trkpt lat="44.5691" lon="1.78144">
        <ele>281</ele>
        <time>2017-09-20T13:03:06Z</time>
      </trkpt>
      <trkpt lat="44.56913" lon="1.78143">
        <ele>281</ele>
        <time>2017-09-20T13:03:09Z</time>
      </trkpt>
      <trkpt lat="44.56918" lon="1.78135">
        <ele>285</ele>
        <time>2017-09-20T13:03:16Z</time>
      </trkpt>
      <trkpt lat="44.5693" lon="1.78124">
        <ele>286</ele>
        <time>2017-09-20T13:03:30Z</time>
      </trkpt>
      <trkpt lat="44.56933" lon="1.78121">
        <ele>286</ele>
        <time>2017-09-20T13:03:33Z</time>
      </trkpt>
      <trkpt lat="44.56936" lon="1.78117">
        <ele>286</ele>
        <time>2017-09-20T13:03:36Z</time>
      </trkpt>
      <trkpt lat="44.56966" lon="1.7809">
        <ele>287</ele>
        <time>2017-09-20T13:04:07Z</time>
      </trkpt>
      <trkpt lat="44.56972" lon="1.78083">
        <ele>287</ele>
        <time>2017-09-20T13:04:13Z</time>
      </trkpt>
      <trkpt lat="44.56981" lon="1.78067">
        <ele>288</ele>
        <time>2017-09-20T13:04:25Z</time>
      </trkpt>
      <trkpt lat="44.56999" lon="1.7804">
        <ele>288</ele>
        <time>2017-09-20T13:04:49Z</time>
      </trkpt>
      <trkpt lat="44.57006" lon="1.78023">
        <ele>292</ele>
        <time>2017-09-20T13:05:03Z</time>
      </trkpt>
      <trkpt lat="44.57008" lon="1.78017">
        <ele>292</ele>
        <time>2017-09-20T13:05:07Z</time>
      </trkpt>
      <trkpt lat="44.57012" lon="1.78008">
        <ele>292</ele>
        <time>2017-09-20T13:05:13Z</time>
      </trkpt>
      <trkpt lat="44.5702" lon="1.77972">
        <ele>294</ele>
        <time>2017-09-20T13:05:36Z</time>
      </trkpt>
      <trkpt lat="44.57021" lon="1.77961">
        <ele>294</ele>
        <time>2017-09-20T13:05:43Z</time>
      </trkpt>
      <trkpt lat="44.57022" lon="1.77954">
        <ele>294</ele>
        <time>2017-09-20T13:05:47Z</time>
      </trkpt>
      <trkpt lat="44.57023" lon="1.7795">
        <ele>294</ele>
        <time>2017-09-20T13:05:50Z</time>
      </trkpt>
      <trkpt lat="44.57024" lon="1.77946">
        <ele>294</ele>
        <time>2017-09-20T13:05:52Z</time>
      </trkpt>
      <trkpt lat="44.57048" lon="1.77903">
        <ele>296</ele>
        <time>2017-09-20T13:06:22Z</time>
      </trkpt>
      <trkpt lat="44.57066" lon="1.77869">
        <ele>297</ele>
        <time>2017-09-20T13:06:46Z</time>
      </trkpt>
      <trkpt lat="44.57093" lon="1.77834">
        <ele>299</ele>
        <time>2017-09-20T13:07:16Z</time>
      </trkpt>
      <trkpt lat="44.57098" lon="1.77826">
        <ele>300</ele>
        <time>2017-09-20T13:07:22Z</time>
      </trkpt>
      <trkpt lat="44.57109" lon="1.77806">
        <ele>303</ele>
        <time>2017-09-20T13:07:37Z</time>
      </trkpt>
      <trkpt lat="44.57116" lon="1.77781">
        <ele>303</ele>
        <time>2017-09-20T13:07:54Z</time>
      </trkpt>
      <trkpt lat="44.57116" lon="1.77766">
        <ele>304</ele>
        <time>2017-09-20T13:08:05Z</time>
      </trkpt>
      <trkpt lat="44.57114" lon="1.77717">
        <ele>304</ele>
        <time>2017-09-20T13:08:36Z</time>
      </trkpt>
      <trkpt lat="44.57114" lon="1.77714">
        <ele>304</ele>
        <time>2017-09-20T13:08:38Z</time>
      </trkpt>
      <trkpt lat="44.5711" lon="1.77664">
        <ele>302</ele>
        <time>2017-09-20T13:09:08Z</time>
      </trkpt>
      <trkpt lat="44.57112" lon="1.77652">
        <ele>302</ele>
        <time>2017-09-20T13:09:15Z</time>
      </trkpt>
      <trkpt lat="44.57121" lon="1.7761">
        <ele>301</ele>
        <time>2017-09-20T13:09:42Z</time>
      </trkpt>
      <trkpt lat="44.5713" lon="1.77592">
        <ele>302</ele>
        <time>2017-09-20T13:09:54Z</time>
      </trkpt>
      <trkpt lat="44.57133" lon="1.77588">
        <ele>302</ele>
        <time>2017-09-20T13:09:57Z</time>
      </trkpt>
      <trkpt lat="44.57144" lon="1.77572">
        <ele>299</ele>
        <time>2017-09-20T13:10:09Z</time>
      </trkpt>
      <trkpt lat="44.57146" lon="1.7757">
        <ele>299</ele>
        <time>2017-09-20T13:10:11Z</time>
      </trkpt>
      <trkpt lat="44.57158" lon="1.77566">
        <ele>300</ele>
        <time>2017-09-20T13:10:21Z</time>
      </trkpt>
      <trkpt lat="44.57162" lon="1.77565">
        <ele>300</ele>
        <time>2017-09-20T13:10:24Z</time>
      </trkpt>
      <trkpt lat="44.57172" lon="1.77563">
        <ele>303</ele>
        <time>2017-09-20T13:10:32Z</time>
      </trkpt>
      <trkpt lat="44.57205" lon="1.77557">
        <ele>304</ele>
        <time>2017-09-20T13:10:59Z</time>
      </trkpt>
      <trkpt lat="44.57215" lon="1.77553">
        <ele>304</ele>
        <time>2017-09-20T13:11:07Z</time>
      </trkpt>
      <trkpt lat="44.57222" lon="1.77551">
        <ele>304</ele>
        <time>2017-09-20T13:11:13Z</time>
      </trkpt>
      <trkpt lat="44.57228" lon="1.77548">
        <ele>304</ele>
        <time>2017-09-20T13:11:18Z</time>
      </trkpt>
      <trkpt lat="44.57233" lon="1.77542">
        <ele>304</ele>
        <time>2017-09-20T13:11:23Z</time>
      </trkpt>
      <trkpt lat="44.5724" lon="1.77538">
        <ele>304</ele>
        <time>2017-09-20T13:11:29Z</time>
      </trkpt>
      <trkpt lat="44.57266" lon="1.77514">
        <ele>307</ele>
        <time>2017-09-20T13:11:55Z</time>
      </trkpt>
      <trkpt lat="44.57272" lon="1.77511">
        <ele>307</ele>
        <time>2017-09-20T13:12:01Z</time>
      </trkpt>
      <trkpt lat="44.57307" lon="1.77487">
        <ele>305</ele>
        <time>2017-09-20T13:12:32Z</time>
      </trkpt>
      <trkpt lat="44.57321" lon="1.77477">
        <ele>306</ele>
        <time>2017-09-20T13:12:46Z</time>
      </trkpt>
      <trkpt lat="44.57324" lon="1.77475">
        <ele>306</ele>
        <time>2017-09-20T13:12:48Z</time>
      </trkpt>
      <trkpt lat="44.57342" lon="1.77465">
        <ele>309</ele>
        <time>2017-09-20T13:13:04Z</time>
      </trkpt>
      <trkpt lat="44.57344" lon="1.77463">
        <ele>309</ele>
        <time>2017-09-20T13:13:06Z</time>
      </trkpt>
      <trkpt lat="44.57352" lon="1.77458">
        <ele>309</ele>
        <time>2017-09-20T13:13:13Z</time>
      </trkpt>
      <trkpt lat="44.57355" lon="1.77454">
        <ele>309</ele>
        <time>2017-09-20T13:13:17Z</time>
      </trkpt>
      <trkpt lat="44.5738" lon="1.77415">
        <ele>306</ele>
        <time>2017-09-20T13:13:49Z</time>
      </trkpt>
      <trkpt lat="44.57393" lon="1.77395">
        <ele>306</ele>
        <time>2017-09-20T13:14:06Z</time>
      </trkpt>
      <trkpt lat="44.57398" lon="1.77386">
        <ele>306</ele>
        <time>2017-09-20T13:14:12Z</time>
      </trkpt>
      <trkpt lat="44.57399" lon="1.77383">
        <ele>306</ele>
        <time>2017-09-20T13:14:14Z</time>
      </trkpt>
      <trkpt lat="44.57405" lon="1.77374">
        <ele>306</ele>
        <time>2017-09-20T13:14:38Z</time>
      </trkpt>
      <trkpt lat="44.57406" lon="1.77372">
        <ele>306</ele>
        <time>2017-09-20T13:14:50Z</time>
      </trkpt>
      <trkpt lat="44.57407" lon="1.7737">
        <ele>306</ele>
        <time>2017-09-20T13:15:23Z</time>
      </trkpt>
      <trkpt lat="44.57412" lon="1.77358">
        <ele>306</ele>
        <time>2017-09-20T13:15:48Z</time>
      </trkpt>
      <trkpt lat="44.57414" lon="1.77347">
        <ele>306</ele>
        <time>2017-09-20T13:15:56Z</time>
      </trkpt>
      <trkpt lat="44.57423" lon="1.7733">
        <ele>307</ele>
        <time>2017-09-20T13:16:09Z</time>
      </trkpt>
      <trkpt lat="44.57424" lon="1.77328">
        <ele>307</ele>
        <time>2017-09-20T13:16:10Z</time>
      </trkpt>
      <trkpt lat="44.57426" lon="1.77322">
        <ele>307</ele>
        <time>2017-09-20T13:16:14Z</time>
      </trkpt>
      <trkpt lat="44.57435" lon="1.77303">
        <ele>307</ele>
        <time>2017-09-20T13:16:28Z</time>
      </trkpt>
      <trkpt lat="44.57437" lon="1.77298">
        <ele>307</ele>
        <time>2017-09-20T13:16:31Z</time>
      </trkpt>
      <trkpt lat="44.57438" lon="1.77295">
        <ele>307</ele>
        <time>2017-09-20T13:16:34Z</time>
      </trkpt>
      <trkpt lat="44.57441" lon="1.7729">
        <ele>307</ele>
        <time>2017-09-20T13:17:04Z</time>
      </trkpt>
      <trkpt lat="44.57447" lon="1.77273">
        <ele>307</ele>
        <time>2017-09-20T13:17:16Z</time>
      </trkpt>
      <trkpt lat="44.5745" lon="1.77261">
        <ele>306</ele>
        <time>2017-09-20T13:17:24Z</time>
      </trkpt>
      <trkpt lat="44.57452" lon="1.77256">
        <ele>307</ele>
        <time>2017-09-20T13:17:28Z</time>
      </trkpt>
      <trkpt lat="44.57454" lon="1.77253">
        <ele>307</ele>
        <time>2017-09-20T13:17:31Z</time>
      </trkpt>
      <trkpt lat="44.5746" lon="1.77218">
        <ele>305</ele>
        <time>2017-09-20T13:17:52Z</time>
      </trkpt>
      <trkpt lat="44.57462" lon="1.77214">
        <ele>305</ele>
        <time>2017-09-20T13:17:55Z</time>
      </trkpt>
      <trkpt lat="44.57463" lon="1.77208">
        <ele>305</ele>
        <time>2017-09-20T13:17:59Z</time>
      </trkpt>
      <trkpt lat="44.57471" lon="1.77158">
        <ele>305</ele>
        <time>2017-09-20T13:18:30Z</time>
      </trkpt>
      <trkpt lat="44.57472" lon="1.77149">
        <ele>305</ele>
        <time>2017-09-20T13:18:35Z</time>
      </trkpt>
      <trkpt lat="44.57473" lon="1.77145">
        <ele>305</ele>
        <time>2017-09-20T13:18:38Z</time>
      </trkpt>
      <trkpt lat="44.57475" lon="1.7712">
        <ele>304</ele>
        <time>2017-09-20T13:18:52Z</time>
      </trkpt>
      <trkpt lat="44.57469" lon="1.77088">
        <ele>304</ele>
        <time>2017-09-20T13:19:10Z</time>
      </trkpt>
      <trkpt lat="44.57466" lon="1.77077">
        <ele>305</ele>
        <time>2017-09-20T13:19:18Z</time>
      </trkpt>
      <trkpt lat="44.57463" lon="1.7706">
        <ele>304</ele>
        <time>2017-09-20T13:19:28Z</time>
      </trkpt>
      <trkpt lat="44.57462" lon="1.77056">
        <ele>304</ele>
        <time>2017-09-20T13:19:31Z</time>
      </trkpt>
      <trkpt lat="44.5745" lon="1.77008">
        <ele>303</ele>
        <time>2017-09-20T13:20:03Z</time>
      </trkpt>
      <trkpt lat="44.57438" lon="1.7698">
        <ele>303</ele>
        <time>2017-09-20T13:20:23Z</time>
      </trkpt>
      <trkpt lat="44.57437" lon="1.76974">
        <ele>303</ele>
        <time>2017-09-20T13:20:26Z</time>
      </trkpt>
      <trkpt lat="44.57436" lon="1.76969">
        <ele>303</ele>
        <time>2017-09-20T13:20:29Z</time>
      </trkpt>
      <trkpt lat="44.57429" lon="1.76946">
        <ele>303</ele>
        <time>2017-09-20T13:20:43Z</time>
      </trkpt>
      <trkpt lat="44.57427" lon="1.76907">
        <ele>302</ele>
        <time>2017-09-20T13:21:05Z</time>
      </trkpt>
      <trkpt lat="44.57427" lon="1.76892">
        <ele>303</ele>
        <time>2017-09-20T13:21:17Z</time>
      </trkpt>
      <trkpt lat="44.57427" lon="1.76871">
        <ele>304</ele>
        <time>2017-09-20T13:21:31Z</time>
      </trkpt>
      <trkpt lat="44.57427" lon="1.76821">
        <ele>303</ele>
        <time>2017-09-20T13:22:02Z</time>
      </trkpt>
      <trkpt lat="44.57428" lon="1.76805">
        <ele>303</ele>
        <time>2017-09-20T13:22:11Z</time>
      </trkpt>
      <trkpt lat="44.57429" lon="1.76796">
        <ele>304</ele>
        <time>2017-09-20T13:22:17Z</time>
      </trkpt>
      <trkpt lat="44.57427" lon="1.76785">
        <ele>303</ele>
        <time>2017-09-20T13:22:24Z</time>
      </trkpt>
      <trkpt lat="44.57426" lon="1.7678">
        <ele>303</ele>
        <time>2017-09-20T13:22:27Z</time>
      </trkpt>
      <trkpt lat="44.57426" lon="1.76777">
        <ele>303</ele>
        <time>2017-09-20T13:22:29Z</time>
      </trkpt>
      <trkpt lat="44.57427" lon="1.76772">
        <ele>303</ele>
        <time>2017-09-20T13:22:32Z</time>
      </trkpt>
      <trkpt lat="44.57429" lon="1.76767">
        <ele>303</ele>
        <time>2017-09-20T13:22:35Z</time>
      </trkpt>
      <trkpt lat="44.57439" lon="1.76754">
        <ele>303</ele>
        <time>2017-09-20T13:22:47Z</time>
      </trkpt>
      <trkpt lat="44.57466" lon="1.76718">
        <ele>303</ele>
        <time>2017-09-20T13:23:16Z</time>
      </trkpt>
      <trkpt lat="44.57472" lon="1.76711">
        <ele>303</ele>
        <time>2017-09-20T13:23:22Z</time>
      </trkpt>
      <trkpt lat="44.57503" lon="1.76675">
        <ele>302</ele>
        <time>2017-09-20T13:23:52Z</time>
      </trkpt>
      <trkpt lat="44.57511" lon="1.76665">
        <ele>301</ele>
        <time>2017-09-20T13:24:02Z</time>
      </trkpt>
      <trkpt lat="44.57514" lon="1.7666">
        <ele>301</ele>
        <time>2017-09-20T13:24:06Z</time>
      </trkpt>
      <trkpt lat="44.57539" lon="1.76626">
        <ele>301</ele>
        <time>2017-09-20T13:24:34Z</time>
      </trkpt>
      <trkpt lat="44.57542" lon="1.76623">
        <ele>301</ele>
        <time>2017-09-20T13:24:37Z</time>
      </trkpt>
      <trkpt lat="44.57568" lon="1.76585">
        <ele>301</ele>
        <time>2017-09-20T13:25:08Z</time>
      </trkpt>
      <trkpt lat="44.57571" lon="1.76579">
        <ele>300</ele>
        <time>2017-09-20T13:25:12Z</time>
      </trkpt>
      <trkpt lat="44.57573" lon="1.76577">
        <ele>300</ele>
        <time>2017-09-20T13:25:14Z</time>
      </trkpt>
      <trkpt lat="44.57574" lon="1.76567">
        <ele>300</ele>
        <time>2017-09-20T13:25:20Z</time>
      </trkpt>
      <trkpt lat="44.57579" lon="1.76542">
        <ele>300</ele>
        <time>2017-09-20T13:25:35Z</time>
      </trkpt>
      <trkpt lat="44.5758" lon="1.76539">
        <ele>300</ele>
        <time>2017-09-20T13:25:37Z</time>
      </trkpt>
      <trkpt lat="44.57579" lon="1.76535">
        <ele>299</ele>
        <time>2017-09-20T13:25:40Z</time>
      </trkpt>
      <trkpt lat="44.57577" lon="1.76533">
        <ele>299</ele>
        <time>2017-09-20T13:25:42Z</time>
      </trkpt>
      <trkpt lat="44.57574" lon="1.76528">
        <ele>299</ele>
        <time>2017-09-20T13:25:46Z</time>
      </trkpt>
      <trkpt lat="44.5757" lon="1.76523">
        <ele>299</ele>
        <time>2017-09-20T13:25:51Z</time>
      </trkpt>
      <trkpt lat="44.57558" lon="1.76495">
        <ele>300</ele>
        <time>2017-09-20T13:26:11Z</time>
      </trkpt>
      <trkpt lat="44.57556" lon="1.7649">
        <ele>301</ele>
        <time>2017-09-20T13:26:37Z</time>
      </trkpt>
      <trkpt lat="44.57554" lon="1.76486">
        <ele>301</ele>
        <time>2017-09-20T13:26:41Z</time>
      </trkpt>
      <trkpt lat="44.57548" lon="1.76479">
        <ele>301</ele>
        <time>2017-09-20T13:26:50Z</time>
      </trkpt>
      <trkpt lat="44.57543" lon="1.76466">
        <ele>302</ele>
        <time>2017-09-20T13:27:00Z</time>
      </trkpt>
      <trkpt lat="44.57538" lon="1.76458">
        <ele>302</ele>
        <time>2017-09-20T13:27:08Z</time>
      </trkpt>
      <trkpt lat="44.57537" lon="1.76453">
        <ele>303</ele>
        <time>2017-09-20T13:27:12Z</time>
      </trkpt>
      <trkpt lat="44.57532" lon="1.76446">
        <ele>303</ele>
        <time>2017-09-20T13:27:19Z</time>
      </trkpt>
      <trkpt lat="44.5752" lon="1.76423">
        <ele>305</ele>
        <time>2017-09-20T13:27:39Z</time>
      </trkpt>
      <trkpt lat="44.57519" lon="1.76419">
        <ele>306</ele>
        <time>2017-09-20T13:27:43Z</time>
      </trkpt>
      <trkpt lat="44.57517" lon="1.76416">
        <ele>308</ele>
        <time>2017-09-20T13:27:47Z</time>
      </trkpt>
      <trkpt lat="44.57515" lon="1.76413">
        <ele>308</ele>
        <time>2017-09-20T13:27:50Z</time>
      </trkpt>
      <trkpt lat="44.57514" lon="1.76408">
        <ele>308</ele>
        <time>2017-09-20T13:27:54Z</time>
      </trkpt>
      <trkpt lat="44.57512" lon="1.76403">
        <ele>308</ele>
        <time>2017-09-20T13:27:57Z</time>
      </trkpt>
      <trkpt lat="44.5751" lon="1.764">
        <ele>308</ele>
        <time>2017-09-20T13:27:59Z</time>
      </trkpt>
      <trkpt lat="44.57506" lon="1.76392">
        <ele>308</ele>
        <time>2017-09-20T13:28:07Z</time>
      </trkpt>
      <trkpt lat="44.57505" lon="1.76387">
        <ele>308</ele>
        <time>2017-09-20T13:28:11Z</time>
      </trkpt>
      <trkpt lat="44.57493" lon="1.76368">
        <ele>314</ele>
        <time>2017-09-20T13:28:28Z</time>
      </trkpt>
      <trkpt lat="44.57491" lon="1.76363">
        <ele>314</ele>
        <time>2017-09-20T13:28:32Z</time>
      </trkpt>
      <trkpt lat="44.57489" lon="1.76357">
        <ele>314</ele>
        <time>2017-09-20T13:28:37Z</time>
      </trkpt>
      <trkpt lat="44.57486" lon="1.76353">
        <ele>314</ele>
        <time>2017-09-20T13:28:40Z</time>
      </trkpt>
      <trkpt lat="44.57481" lon="1.76343">
        <ele>314</ele>
        <time>2017-09-20T13:28:49Z</time>
      </trkpt>
      <trkpt lat="44.57476" lon="1.76334">
        <ele>314</ele>
        <time>2017-09-20T13:28:56Z</time>
      </trkpt>
      <trkpt lat="44.57469" lon="1.76316">
        <ele>314</ele>
        <time>2017-09-20T13:29:11Z</time>
      </trkpt>
      <trkpt lat="44.57467" lon="1.76311">
        <ele>314</ele>
        <time>2017-09-20T13:29:14Z</time>
      </trkpt>
      <trkpt lat="44.57465" lon="1.76307">
        <ele>314</ele>
        <time>2017-09-20T13:29:18Z</time>
      </trkpt>
      <trkpt lat="44.57463" lon="1.76303">
        <ele>314</ele>
        <time>2017-09-20T13:29:21Z</time>
      </trkpt>
      <trkpt lat="44.57442" lon="1.76259">
        <ele>314</ele>
        <time>2017-09-20T13:29:52Z</time>
      </trkpt>
      <trkpt lat="44.5744" lon="1.76255">
        <ele>314</ele>
        <time>2017-09-20T13:29:55Z</time>
      </trkpt>
      <trkpt lat="44.57437" lon="1.76251">
        <ele>314</ele>
        <time>2017-09-20T13:29:59Z</time>
      </trkpt>
      <trkpt lat="44.57418" lon="1.76215">
        <ele>311</ele>
        <time>2017-09-20T13:30:30Z</time>
      </trkpt>
      <trkpt lat="44.57413" lon="1.76205">
        <ele>311</ele>
        <time>2017-09-20T13:30:36Z</time>
      </trkpt>
      <trkpt lat="44.57399" lon="1.76176">
        <ele>310</ele>
        <time>2017-09-20T13:31:00Z</time>
      </trkpt>
      <trkpt lat="44.57396" lon="1.76173">
        <ele>310</ele>
        <time>2017-09-20T13:31:03Z</time>
      </trkpt>
      <trkpt lat="44.57394" lon="1.76171">
        <ele>310</ele>
        <time>2017-09-20T13:31:10Z</time>
      </trkpt>
      <trkpt lat="44.57382" lon="1.76164">
        <ele>307</ele>
        <time>2017-09-20T13:31:23Z</time>
      </trkpt>
      <trkpt lat="44.57378" lon="1.76163">
        <ele>307</ele>
        <time>2017-09-20T13:31:26Z</time>
      </trkpt>
      <trkpt lat="44.57374" lon="1.76161">
        <ele>307</ele>
        <time>2017-09-20T13:31:29Z</time>
      </trkpt>
      <trkpt lat="44.57367" lon="1.76156">
        <ele>307</ele>
        <time>2017-09-20T13:31:36Z</time>
      </trkpt>
      <trkpt lat="44.57364" lon="1.76153">
        <ele>307</ele>
        <time>2017-09-20T13:31:39Z</time>
      </trkpt>
      <trkpt lat="44.57361" lon="1.76153">
        <ele>307</ele>
        <time>2017-09-20T13:31:42Z</time>
      </trkpt>
      <trkpt lat="44.57358" lon="1.7615">
        <ele>307</ele>
        <time>2017-09-20T13:31:46Z</time>
      </trkpt>
      <trkpt lat="44.57351" lon="1.76144">
        <ele>306</ele>
        <time>2017-09-20T13:31:53Z</time>
      </trkpt>
      <trkpt lat="44.57347" lon="1.76142">
        <ele>306</ele>
        <time>2017-09-20T13:31:57Z</time>
      </trkpt>
      <trkpt lat="44.57335" lon="1.76136">
        <ele>306</ele>
        <time>2017-09-20T13:32:09Z</time>
      </trkpt>
      <trkpt lat="44.57331" lon="1.76135">
        <ele>307</ele>
        <time>2017-09-20T13:32:12Z</time>
      </trkpt>
      <trkpt lat="44.57318" lon="1.76124">
        <ele>307</ele>
        <time>2017-09-20T13:32:23Z</time>
      </trkpt>
      <trkpt lat="44.57314" lon="1.76122">
        <ele>307</ele>
        <time>2017-09-20T13:32:27Z</time>
      </trkpt>
      <trkpt lat="44.57311" lon="1.76121">
        <ele>307</ele>
        <time>2017-09-20T13:32:31Z</time>
      </trkpt>
      <trkpt lat="44.57293" lon="1.76112">
        <ele>307</ele>
        <time>2017-09-20T13:32:46Z</time>
      </trkpt>
      <trkpt lat="44.5729" lon="1.76109">
        <ele>307</ele>
        <time>2017-09-20T13:32:50Z</time>
      </trkpt>
      <trkpt lat="44.57285" lon="1.76108">
        <ele>307</ele>
        <time>2017-09-20T13:32:54Z</time>
      </trkpt>
      <trkpt lat="44.57275" lon="1.76097">
        <ele>307</ele>
        <time>2017-09-20T13:33:07Z</time>
      </trkpt>
      <trkpt lat="44.57266" lon="1.76095">
        <ele>307</ele>
        <time>2017-09-20T13:33:14Z</time>
      </trkpt>
      <trkpt lat="44.57263" lon="1.76092">
        <ele>307</ele>
        <time>2017-09-20T13:33:17Z</time>
      </trkpt>
      <trkpt lat="44.5726" lon="1.7609">
        <ele>307</ele>
        <time>2017-09-20T13:33:21Z</time>
      </trkpt>
      <trkpt lat="44.57256" lon="1.76088">
        <ele>308</ele>
        <time>2017-09-20T13:33:25Z</time>
      </trkpt>
      <trkpt lat="44.57253" lon="1.76085">
        <ele>308</ele>
        <time>2017-09-20T13:33:28Z</time>
      </trkpt>
      <trkpt lat="44.57243" lon="1.76079">
        <ele>307</ele>
        <time>2017-09-20T13:33:37Z</time>
      </trkpt>
      <trkpt lat="44.57234" lon="1.76073">
        <ele>307</ele>
        <time>2017-09-20T13:33:45Z</time>
      </trkpt>
      <trkpt lat="44.57227" lon="1.7607">
        <ele>307</ele>
        <time>2017-09-20T13:33:53Z</time>
      </trkpt>
      <trkpt lat="44.57223" lon="1.76067">
        <ele>307</ele>
        <time>2017-09-20T13:33:57Z</time>
      </trkpt>
      <trkpt lat="44.57214" lon="1.76061">
        <ele>306</ele>
        <time>2017-09-20T13:34:06Z</time>
      </trkpt>
      <trkpt lat="44.57201" lon="1.76051">
        <ele>306</ele>
        <time>2017-09-20T13:34:19Z</time>
      </trkpt>
      <trkpt lat="44.57195" lon="1.76047">
        <ele>306</ele>
        <time>2017-09-20T13:34:26Z</time>
      </trkpt>
      <trkpt lat="44.57188" lon="1.76044">
        <ele>306</ele>
        <time>2017-09-20T13:34:32Z</time>
      </trkpt>
      <trkpt lat="44.57184" lon="1.76043">
        <ele>306</ele>
        <time>2017-09-20T13:34:36Z</time>
      </trkpt>
      <trkpt lat="44.5718" lon="1.7604">
        <ele>306</ele>
        <time>2017-09-20T13:34:41Z</time>
      </trkpt>
      <trkpt lat="44.57176" lon="1.76038">
        <ele>306</ele>
        <time>2017-09-20T13:34:45Z</time>
      </trkpt>
      <trkpt lat="44.57168" lon="1.76032">
        <ele>306</ele>
        <time>2017-09-20T13:34:59Z</time>
      </trkpt>
      <trkpt lat="44.57162" lon="1.76028">
        <ele>305</ele>
        <time>2017-09-20T13:35:07Z</time>
      </trkpt>
      <trkpt lat="44.57159" lon="1.76027">
        <ele>305</ele>
        <time>2017-09-20T13:35:11Z</time>
      </trkpt>
      <trkpt lat="44.57155" lon="1.76024">
        <ele>305</ele>
        <time>2017-09-20T13:35:15Z</time>
      </trkpt>
      <trkpt lat="44.57152" lon="1.76021">
        <ele>305</ele>
        <time>2017-09-20T13:35:18Z</time>
      </trkpt>
      <trkpt lat="44.57142" lon="1.76014">
        <ele>305</ele>
        <time>2017-09-20T13:35:27Z</time>
      </trkpt>
      <trkpt lat="44.57138" lon="1.76014">
        <ele>305</ele>
        <time>2017-09-20T13:35:30Z</time>
      </trkpt>
      <trkpt lat="44.57131" lon="1.76011">
        <ele>305</ele>
        <time>2017-09-20T13:35:37Z</time>
      </trkpt>
      <trkpt lat="44.57127" lon="1.76007">
        <ele>305</ele>
        <time>2017-09-20T13:35:42Z</time>
      </trkpt>
      <trkpt lat="44.57125" lon="1.76003">
        <ele>305</ele>
        <time>2017-09-20T13:35:45Z</time>
      </trkpt>
      <trkpt lat="44.57116" lon="1.75994">
        <ele>306</ele>
        <time>2017-09-20T13:35:54Z</time>
      </trkpt>
      <trkpt lat="44.57109" lon="1.75989">
        <ele>306</ele>
        <time>2017-09-20T13:36:01Z</time>
      </trkpt>
      <trkpt lat="44.57099" lon="1.75986">
        <ele>306</ele>
        <time>2017-09-20T13:36:10Z</time>
      </trkpt>
      <trkpt lat="44.57093" lon="1.75988">
        <ele>306</ele>
        <time>2017-09-20T13:36:17Z</time>
      </trkpt>
      <trkpt lat="44.57087" lon="1.75986">
        <ele>306</ele>
        <time>2017-09-20T13:36:22Z</time>
      </trkpt>
      <trkpt lat="44.57077" lon="1.75983">
        <ele>305</ele>
        <time>2017-09-20T13:36:31Z</time>
      </trkpt>
      <trkpt lat="44.57073" lon="1.75982">
        <ele>305</ele>
        <time>2017-09-20T13:36:34Z</time>
      </trkpt>
      <trkpt lat="44.57056" lon="1.7598">
        <ele>305</ele>
        <time>2017-09-20T13:36:50Z</time>
      </trkpt>
      <trkpt lat="44.57053" lon="1.75978">
        <ele>305</ele>
        <time>2017-09-20T13:36:53Z</time>
      </trkpt>
      <trkpt lat="44.57049" lon="1.75978">
        <ele>305</ele>
        <time>2017-09-20T13:36:56Z</time>
      </trkpt>
      <trkpt lat="44.57042" lon="1.75975">
        <ele>305</ele>
        <time>2017-09-20T13:37:03Z</time>
      </trkpt>
      <trkpt lat="44.57035" lon="1.75973">
        <ele>305</ele>
        <time>2017-09-20T13:37:09Z</time>
      </trkpt>
      <trkpt lat="44.57028" lon="1.75971">
        <ele>305</ele>
        <time>2017-09-20T13:37:15Z</time>
      </trkpt>
      <trkpt lat="44.57025" lon="1.75969">
        <ele>305</ele>
        <time>2017-09-20T13:37:18Z</time>
      </trkpt>
      <trkpt lat="44.57021" lon="1.75969">
        <ele>305</ele>
        <time>2017-09-20T13:37:23Z</time>
      </trkpt>
      <trkpt lat="44.57012" lon="1.75969">
        <ele>305</ele>
        <time>2017-09-20T13:37:30Z</time>
      </trkpt>
      <trkpt lat="44.56993" lon="1.75966">
        <ele>304</ele>
        <time>2017-09-20T13:37:46Z</time>
      </trkpt>
      <trkpt lat="44.56989" lon="1.75966">
        <ele>304</ele>
        <time>2017-09-20T13:37:49Z</time>
      </trkpt>
      <trkpt lat="44.56985" lon="1.75966">
        <ele>304</ele>
        <time>2017-09-20T13:37:53Z</time>
      </trkpt>
      <trkpt lat="44.56982" lon="1.75966">
        <ele>304</ele>
        <time>2017-09-20T13:37:57Z</time>
      </trkpt>
      <trkpt lat="44.56978" lon="1.75964">
        <ele>304</ele>
        <time>2017-09-20T13:38:01Z</time>
      </trkpt>
      <trkpt lat="44.56975" lon="1.75964">
        <ele>304</ele>
        <time>2017-09-20T13:38:03Z</time>
      </trkpt>
      <trkpt lat="44.56972" lon="1.75963">
        <ele>304</ele>
        <time>2017-09-20T13:38:06Z</time>
      </trkpt>
      <trkpt lat="44.56969" lon="1.75962">
        <ele>304</ele>
        <time>2017-09-20T13:38:11Z</time>
      </trkpt>
      <trkpt lat="44.56946" lon="1.75955">
        <ele>304</ele>
        <time>2017-09-20T13:38:30Z</time>
      </trkpt>
      <trkpt lat="44.56943" lon="1.75955">
        <ele>304</ele>
        <time>2017-09-20T13:38:33Z</time>
      </trkpt>
      <trkpt lat="44.56933" lon="1.75954">
        <ele>304</ele>
        <time>2017-09-20T13:38:42Z</time>
      </trkpt>
      <trkpt lat="44.5693" lon="1.75953">
        <ele>304</ele>
        <time>2017-09-20T13:38:45Z</time>
      </trkpt>
      <trkpt lat="44.56927" lon="1.75952">
        <ele>304</ele>
        <time>2017-09-20T13:38:55Z</time>
      </trkpt>
      <trkpt lat="44.56924" lon="1.75953">
        <ele>304</ele>
        <time>2017-09-20T13:38:58Z</time>
      </trkpt>
      <trkpt lat="44.56922" lon="1.75952">
        <ele>304</ele>
        <time>2017-09-20T13:39:14Z</time>
      </trkpt>
      <trkpt lat="44.5692" lon="1.75951">
        <ele>304</ele>
        <time>2017-09-20T13:39:17Z</time>
      </trkpt>
      <trkpt lat="44.56897" lon="1.75946">
        <ele>304</ele>
        <time>2017-09-20T13:39:40Z</time>
      </trkpt>
      <trkpt lat="44.56894" lon="1.75946">
        <ele>304</ele>
        <time>2017-09-20T13:39:43Z</time>
      </trkpt>
      <trkpt lat="44.56891" lon="1.75946">
        <ele>304</ele>
        <time>2017-09-20T13:39:46Z</time>
      </trkpt>
      <trkpt lat="44.56889" lon="1.75945">
        <ele>304</ele>
        <time>2017-09-20T13:39:49Z</time>
      </trkpt>
      <trkpt lat="44.56881" lon="1.75943">
        <ele>304</ele>
        <time>2017-09-20T13:39:56Z</time>
      </trkpt>
      <trkpt lat="44.56877" lon="1.75942">
        <ele>304</ele>
        <time>2017-09-20T13:39:59Z</time>
      </trkpt>
      <trkpt lat="44.56875" lon="1.75941">
        <ele>304</ele>
        <time>2017-09-20T13:40:01Z</time>
      </trkpt>
      <trkpt lat="44.56869" lon="1.75941">
        <ele>305</ele>
        <time>2017-09-20T13:40:06Z</time>
      </trkpt>
      <trkpt lat="44.56866" lon="1.7594">
        <ele>305</ele>
        <time>2017-09-20T13:40:09Z</time>
      </trkpt>
      <trkpt lat="44.56862" lon="1.75939">
        <ele>305</ele>
        <time>2017-09-20T13:40:12Z</time>
      </trkpt>
      <trkpt lat="44.5686" lon="1.75937">
        <ele>305</ele>
        <time>2017-09-20T13:40:14Z</time>
      </trkpt>
      <trkpt lat="44.56854" lon="1.75936">
        <ele>305</ele>
        <time>2017-09-20T13:40:19Z</time>
      </trkpt>
      <trkpt lat="44.5685" lon="1.75936">
        <ele>305</ele>
        <time>2017-09-20T13:40:24Z</time>
      </trkpt>
      <trkpt lat="44.56847" lon="1.75935">
        <ele>305</ele>
        <time>2017-09-20T13:40:27Z</time>
      </trkpt>
      <trkpt lat="44.56828" lon="1.75932">
        <ele>305</ele>
        <time>2017-09-20T13:40:43Z</time>
      </trkpt>
      <trkpt lat="44.56824" lon="1.75931">
        <ele>305</ele>
        <time>2017-09-20T13:40:46Z</time>
      </trkpt>
      <trkpt lat="44.56819" lon="1.75929">
        <ele>305</ele>
        <time>2017-09-20T13:40:50Z</time>
      </trkpt>
      <trkpt lat="44.56816" lon="1.75927">
        <ele>305</ele>
        <time>2017-09-20T13:40:53Z</time>
      </trkpt>
      <trkpt lat="44.56811" lon="1.75928">
        <ele>305</ele>
        <time>2017-09-20T13:40:58Z</time>
      </trkpt>
      <trkpt lat="44.56803" lon="1.75925">
        <ele>305</ele>
        <time>2017-09-20T13:41:05Z</time>
      </trkpt>
      <trkpt lat="44.56798" lon="1.75926">
        <ele>305</ele>
        <time>2017-09-20T13:41:09Z</time>
      </trkpt>
      <trkpt lat="44.5678" lon="1.75922">
        <ele>305</ele>
        <time>2017-09-20T13:41:26Z</time>
      </trkpt>
      <trkpt lat="44.56776" lon="1.75921">
        <ele>305</ele>
        <time>2017-09-20T13:41:29Z</time>
      </trkpt>
      <trkpt lat="44.56763" lon="1.7592">
        <ele>306</ele>
        <time>2017-09-20T13:41:39Z</time>
      </trkpt>
      <trkpt lat="44.56759" lon="1.7592">
        <ele>306</ele>
        <time>2017-09-20T13:41:43Z</time>
      </trkpt>
      <trkpt lat="44.56741" lon="1.75914">
        <ele>306</ele>
        <time>2017-09-20T13:42:00Z</time>
      </trkpt>
      <trkpt lat="44.56738" lon="1.75913">
        <ele>306</ele>
        <time>2017-09-20T13:42:03Z</time>
      </trkpt>
      <trkpt lat="44.56734" lon="1.75911">
        <ele>306</ele>
        <time>2017-09-20T13:42:06Z</time>
      </trkpt>
      <trkpt lat="44.56726" lon="1.7591">
        <ele>306</ele>
        <time>2017-09-20T13:42:12Z</time>
      </trkpt>
      <trkpt lat="44.56718" lon="1.75906">
        <ele>306</ele>
        <time>2017-09-20T13:42:19Z</time>
      </trkpt>
      <trkpt lat="44.56715" lon="1.75905">
        <ele>306</ele>
        <time>2017-09-20T13:42:22Z</time>
      </trkpt>
      <trkpt lat="44.56712" lon="1.75905">
        <ele>306</ele>
        <time>2017-09-20T13:42:24Z</time>
      </trkpt>
      <trkpt lat="44.56708" lon="1.75904">
        <ele>306</ele>
        <time>2017-09-20T13:42:28Z</time>
      </trkpt>
      <trkpt lat="44.56696" lon="1.75903">
        <ele>306</ele>
        <time>2017-09-20T13:42:40Z</time>
      </trkpt>
      <trkpt lat="44.56684" lon="1.759">
        <ele>306</ele>
        <time>2017-09-20T13:42:52Z</time>
      </trkpt>
      <trkpt lat="44.5668" lon="1.75899">
        <ele>306</ele>
        <time>2017-09-20T13:42:55Z</time>
      </trkpt>
      <trkpt lat="44.56675" lon="1.75899">
        <ele>306</ele>
        <time>2017-09-20T13:43:02Z</time>
      </trkpt>
      <trkpt lat="44.56671" lon="1.75898">
        <ele>306</ele>
        <time>2017-09-20T13:43:05Z</time>
      </trkpt>
      <trkpt lat="44.56666" lon="1.75898">
        <ele>307</ele>
        <time>2017-09-20T13:43:10Z</time>
      </trkpt>
      <trkpt lat="44.56663" lon="1.75897">
        <ele>307</ele>
        <time>2017-09-20T13:43:13Z</time>
      </trkpt>
      <trkpt lat="44.5666" lon="1.75897">
        <ele>307</ele>
        <time>2017-09-20T13:43:16Z</time>
      </trkpt>
      <trkpt lat="44.56657" lon="1.75896">
        <ele>307</ele>
        <time>2017-09-20T13:43:19Z</time>
      </trkpt>
      <trkpt lat="44.56655" lon="1.75896">
        <ele>307</ele>
        <time>2017-09-20T13:43:22Z</time>
      </trkpt>
      <trkpt lat="44.56651" lon="1.75896">
        <ele>307</ele>
        <time>2017-09-20T13:43:25Z</time>
      </trkpt>
      <trkpt lat="44.56647" lon="1.75896">
        <ele>307</ele>
        <time>2017-09-20T13:43:28Z</time>
      </trkpt>
      <trkpt lat="44.56644" lon="1.75894">
        <ele>307</ele>
        <time>2017-09-20T13:43:31Z</time>
      </trkpt>
      <trkpt lat="44.56635" lon="1.75892">
        <ele>307</ele>
        <time>2017-09-20T13:43:41Z</time>
      </trkpt>
      <trkpt lat="44.56632" lon="1.75892">
        <ele>307</ele>
        <time>2017-09-20T13:43:44Z</time>
      </trkpt>
      <trkpt lat="44.56629" lon="1.7589">
        <ele>307</ele>
        <time>2017-09-20T13:43:46Z</time>
      </trkpt>
      <trkpt lat="44.56618" lon="1.75889">
        <ele>307</ele>
        <time>2017-09-20T13:43:56Z</time>
      </trkpt>
      <trkpt lat="44.56614" lon="1.75887">
        <ele>307</ele>
        <time>2017-09-20T13:43:59Z</time>
      </trkpt>
      <trkpt lat="44.56607" lon="1.75887">
        <ele>307</ele>
        <time>2017-09-20T13:44:05Z</time>
      </trkpt>
      <trkpt lat="44.56605" lon="1.75886">
        <ele>307</ele>
        <time>2017-09-20T13:44:08Z</time>
      </trkpt>
      <trkpt lat="44.56601" lon="1.75885">
        <ele>307</ele>
        <time>2017-09-20T13:44:11Z</time>
      </trkpt>
      <trkpt lat="44.56581" lon="1.75882">
        <ele>307</ele>
        <time>2017-09-20T13:44:28Z</time>
      </trkpt>
      <trkpt lat="44.56577" lon="1.75882">
        <ele>307</ele>
        <time>2017-09-20T13:44:31Z</time>
      </trkpt>
      <trkpt lat="44.56574" lon="1.75881">
        <ele>307</ele>
        <time>2017-09-20T13:44:34Z</time>
      </trkpt>
      <trkpt lat="44.5656" lon="1.75878">
        <ele>307</ele>
        <time>2017-09-20T13:44:46Z</time>
      </trkpt>
      <trkpt lat="44.56557" lon="1.75877">
        <ele>307</ele>
        <time>2017-09-20T13:44:49Z</time>
      </trkpt>
      <trkpt lat="44.56555" lon="1.75877">
        <ele>307</ele>
        <time>2017-09-20T13:44:51Z</time>
      </trkpt>
      <trkpt lat="44.56553" lon="1.75876">
        <ele>307</ele>
        <time>2017-09-20T13:44:53Z</time>
      </trkpt>
      <trkpt lat="44.5655" lon="1.75875">
        <ele>307</ele>
        <time>2017-09-20T13:44:56Z</time>
      </trkpt>
      <trkpt lat="44.56545" lon="1.75874">
        <ele>307</ele>
        <time>2017-09-20T13:45:02Z</time>
      </trkpt>
      <trkpt lat="44.56542" lon="1.75872">
        <ele>307</ele>
        <time>2017-09-20T13:45:05Z</time>
      </trkpt>
      <trkpt lat="44.56538" lon="1.75872">
        <ele>306</ele>
        <time>2017-09-20T13:45:08Z</time>
      </trkpt>
      <trkpt lat="44.56532" lon="1.75871">
        <ele>306</ele>
        <time>2017-09-20T13:45:13Z</time>
      </trkpt>
      <trkpt lat="44.56529" lon="1.7587">
        <ele>306</ele>
        <time>2017-09-20T13:45:17Z</time>
      </trkpt>
      <trkpt lat="44.56516" lon="1.75869">
        <ele>306</ele>
        <time>2017-09-20T13:45:29Z</time>
      </trkpt>
      <trkpt lat="44.56512" lon="1.75866">
        <ele>306</ele>
        <time>2017-09-20T13:45:34Z</time>
      </trkpt>
      <trkpt lat="44.56499" lon="1.75865">
        <ele>304</ele>
        <time>2017-09-20T13:45:45Z</time>
      </trkpt>
      <trkpt lat="44.56494" lon="1.75864">
        <ele>304</ele>
        <time>2017-09-20T13:45:49Z</time>
      </trkpt>
      <trkpt lat="44.5649" lon="1.75863">
        <ele>304</ele>
        <time>2017-09-20T13:45:53Z</time>
      </trkpt>
      <trkpt lat="44.56486" lon="1.75861">
        <ele>304</ele>
        <time>2017-09-20T13:45:58Z</time>
      </trkpt>
      <trkpt lat="44.56473" lon="1.7586">
        <ele>304</ele>
        <time>2017-09-20T13:46:08Z</time>
      </trkpt>
      <trkpt lat="44.56465" lon="1.75863">
        <ele>304</ele>
        <time>2017-09-20T13:46:15Z</time>
      </trkpt>
      <trkpt lat="44.56461" lon="1.75864">
        <ele>304</ele>
        <time>2017-09-20T13:46:18Z</time>
      </trkpt>
      <trkpt lat="44.56452" lon="1.75869">
        <ele>304</ele>
        <time>2017-09-20T13:46:27Z</time>
      </trkpt>
      <trkpt lat="44.56449" lon="1.7587">
        <ele>304</ele>
        <time>2017-09-20T13:46:30Z</time>
      </trkpt>
      <trkpt lat="44.56445" lon="1.75872">
        <ele>304</ele>
        <time>2017-09-20T13:46:35Z</time>
      </trkpt>
      <trkpt lat="44.5643" lon="1.7588">
        <ele>304</ele>
        <time>2017-09-20T13:46:51Z</time>
      </trkpt>
      <trkpt lat="44.56416" lon="1.75889">
        <ele>302</ele>
        <time>2017-09-20T13:47:06Z</time>
      </trkpt>
      <trkpt lat="44.56412" lon="1.7589">
        <ele>302</ele>
        <time>2017-09-20T13:47:08Z</time>
      </trkpt>
      <trkpt lat="44.56409" lon="1.75892">
        <ele>302</ele>
        <time>2017-09-20T13:47:11Z</time>
      </trkpt>
      <trkpt lat="44.56397" lon="1.75898">
        <ele>302</ele>
        <time>2017-09-20T13:47:21Z</time>
      </trkpt>
      <trkpt lat="44.56394" lon="1.759">
        <ele>302</ele>
        <time>2017-09-20T13:47:24Z</time>
      </trkpt>
      <trkpt lat="44.56384" lon="1.75905">
        <ele>302</ele>
        <time>2017-09-20T13:47:34Z</time>
      </trkpt>
      <trkpt lat="44.56381" lon="1.75907">
        <ele>302</ele>
        <time>2017-09-20T13:47:38Z</time>
      </trkpt>
      <trkpt lat="44.56378" lon="1.75909">
        <ele>302</ele>
        <time>2017-09-20T13:47:40Z</time>
      </trkpt>
      <trkpt lat="44.56368" lon="1.75914">
        <ele>302</ele>
        <time>2017-09-20T13:47:51Z</time>
      </trkpt>
      <trkpt lat="44.56364" lon="1.75913">
        <ele>301</ele>
        <time>2017-09-20T13:47:55Z</time>
      </trkpt>
      <trkpt lat="44.56362" lon="1.7591">
        <ele>301</ele>
        <time>2017-09-20T13:47:59Z</time>
      </trkpt>
      <trkpt lat="44.5636" lon="1.75906">
        <ele>301</ele>
        <time>2017-09-20T13:48:04Z</time>
      </trkpt>
      <trkpt lat="44.5636" lon="1.75901">
        <ele>301</ele>
        <time>2017-09-20T13:48:08Z</time>
      </trkpt>
      <trkpt lat="44.56359" lon="1.75898">
        <ele>301</ele>
        <time>2017-09-20T13:48:10Z</time>
      </trkpt>
      <trkpt lat="44.56359" lon="1.75893">
        <ele>301</ele>
        <time>2017-09-20T13:48:13Z</time>
      </trkpt>
      <trkpt lat="44.56358" lon="1.7589">
        <ele>301</ele>
        <time>2017-09-20T13:48:16Z</time>
      </trkpt>
      <trkpt lat="44.56357" lon="1.75887">
        <ele>301</ele>
        <time>2017-09-20T13:48:19Z</time>
      </trkpt>
      <trkpt lat="44.56356" lon="1.75885">
        <ele>301</ele>
        <time>2017-09-20T13:48:22Z</time>
      </trkpt>
      <trkpt lat="44.56353" lon="1.75883">
        <ele>301</ele>
        <time>2017-09-20T13:48:26Z</time>
      </trkpt>
      <trkpt lat="44.5634" lon="1.7588">
        <ele>300</ele>
        <time>2017-09-20T13:48:41Z</time>
      </trkpt>
      <trkpt lat="44.56333" lon="1.75873">
        <ele>297</ele>
        <time>2017-09-20T13:48:54Z</time>
      </trkpt>
      <trkpt lat="44.56329" lon="1.75867">
        <ele>297</ele>
        <time>2017-09-20T13:49:00Z</time>
      </trkpt>
      <trkpt lat="44.56328" lon="1.75864">
        <ele>296</ele>
        <time>2017-09-20T13:49:03Z</time>
      </trkpt>
      <trkpt lat="44.56325" lon="1.75861">
        <ele>296</ele>
        <time>2017-09-20T13:49:06Z</time>
      </trkpt>
      <trkpt lat="44.56323" lon="1.75859">
        <ele>296</ele>
        <time>2017-09-20T13:49:09Z</time>
      </trkpt>
      <trkpt lat="44.5631" lon="1.75858">
        <ele>296</ele>
        <time>2017-09-20T13:49:22Z</time>
      </trkpt>
      <trkpt lat="44.56306" lon="1.75861">
        <ele>296</ele>
        <time>2017-09-20T13:49:25Z</time>
      </trkpt>
      <trkpt lat="44.56298" lon="1.75867">
        <ele>295</ele>
        <time>2017-09-20T13:49:36Z</time>
      </trkpt>
      <trkpt lat="44.56294" lon="1.75867">
        <ele>295</ele>
        <time>2017-09-20T13:49:40Z</time>
      </trkpt>
      <trkpt lat="44.5629" lon="1.75863">
        <ele>295</ele>
        <time>2017-09-20T13:49:50Z</time>
      </trkpt>
      <trkpt lat="44.56286" lon="1.75859">
        <ele>295</ele>
        <time>2017-09-20T13:49:56Z</time>
      </trkpt>
      <trkpt lat="44.56284" lon="1.75856">
        <ele>294</ele>
        <time>2017-09-20T13:50:02Z</time>
      </trkpt>
      <trkpt lat="44.56281" lon="1.75852">
        <ele>294</ele>
        <time>2017-09-20T13:50:07Z</time>
      </trkpt>
      <trkpt lat="44.56278" lon="1.75846">
        <ele>293</ele>
        <time>2017-09-20T13:50:13Z</time>
      </trkpt>
      <trkpt lat="44.56277" lon="1.75844">
        <ele>293</ele>
        <time>2017-09-20T13:50:16Z</time>
      </trkpt>
      <trkpt lat="44.56274" lon="1.7584">
        <ele>293</ele>
        <time>2017-09-20T13:50:20Z</time>
      </trkpt>
      <trkpt lat="44.5627" lon="1.75832">
        <ele>288</ele>
        <time>2017-09-20T13:50:30Z</time>
      </trkpt>
      <trkpt lat="44.56268" lon="1.75829">
        <ele>288</ele>
        <time>2017-09-20T13:50:34Z</time>
      </trkpt>
      <trkpt lat="44.56266" lon="1.75826">
        <ele>288</ele>
        <time>2017-09-20T13:50:37Z</time>
      </trkpt>
      <trkpt lat="44.56264" lon="1.75821">
        <ele>288</ele>
        <time>2017-09-20T13:50:46Z</time>
      </trkpt>
      <trkpt lat="44.56262" lon="1.75819">
        <ele>288</ele>
        <time>2017-09-20T13:50:50Z</time>
      </trkpt>
      <trkpt lat="44.5626" lon="1.75815">
        <ele>288</ele>
        <time>2017-09-20T13:50:53Z</time>
      </trkpt>
      <trkpt lat="44.56258" lon="1.75813">
        <ele>287</ele>
        <time>2017-09-20T13:50:56Z</time>
      </trkpt>
      <trkpt lat="44.56255" lon="1.75807">
        <ele>287</ele>
        <time>2017-09-20T13:51:02Z</time>
      </trkpt>
      <trkpt lat="44.56253" lon="1.75804">
        <ele>287</ele>
        <time>2017-09-20T13:51:06Z</time>
      </trkpt>
      <trkpt lat="44.5625" lon="1.75802">
        <ele>287</ele>
        <time>2017-09-20T13:51:09Z</time>
      </trkpt>
      <trkpt lat="44.56247" lon="1.75796">
        <ele>281</ele>
        <time>2017-09-20T13:51:15Z</time>
      </trkpt>
      <trkpt lat="44.56242" lon="1.75784">
        <ele>279</ele>
        <time>2017-09-20T13:51:25Z</time>
      </trkpt>
      <trkpt lat="44.56238" lon="1.75778">
        <ele>279</ele>
        <time>2017-09-20T13:51:31Z</time>
      </trkpt>
      <trkpt lat="44.56236" lon="1.75775">
        <ele>279</ele>
        <time>2017-09-20T13:51:36Z</time>
      </trkpt>
      <trkpt lat="44.56233" lon="1.7577">
        <ele>278</ele>
        <time>2017-09-20T13:51:42Z</time>
      </trkpt>
      <trkpt lat="44.56223" lon="1.75772">
        <ele>278</ele>
        <time>2017-09-20T13:51:54Z</time>
      </trkpt>
      <trkpt lat="44.56219" lon="1.75771">
        <ele>278</ele>
        <time>2017-09-20T13:51:57Z</time>
      </trkpt>
      <trkpt lat="44.56216" lon="1.75768">
        <ele>278</ele>
        <time>2017-09-20T13:52:03Z</time>
      </trkpt>
      <trkpt lat="44.56213" lon="1.75767">
        <ele>277</ele>
        <time>2017-09-20T13:52:06Z</time>
      </trkpt>
      <trkpt lat="44.56208" lon="1.75769">
        <ele>277</ele>
        <time>2017-09-20T13:52:10Z</time>
      </trkpt>
      <trkpt lat="44.56198" lon="1.75776">
        <ele>277</ele>
        <time>2017-09-20T13:52:23Z</time>
      </trkpt>
      <trkpt lat="44.56194" lon="1.75777">
        <ele>277</ele>
        <time>2017-09-20T13:52:27Z</time>
      </trkpt>
      <trkpt lat="44.56189" lon="1.75778">
        <ele>276</ele>
        <time>2017-09-20T13:52:31Z</time>
      </trkpt>
      <trkpt lat="44.56181" lon="1.75781">
        <ele>276</ele>
        <time>2017-09-20T13:52:39Z</time>
      </trkpt>
      <trkpt lat="44.56177" lon="1.75783">
        <ele>276</ele>
        <time>2017-09-20T13:52:42Z</time>
      </trkpt>
      <trkpt lat="44.56174" lon="1.75787">
        <ele>276</ele>
        <time>2017-09-20T13:52:46Z</time>
      </trkpt>
      <trkpt lat="44.56171" lon="1.7579">
        <ele>277</ele>
        <time>2017-09-20T13:52:55Z</time>
      </trkpt>
      <trkpt lat="44.56167" lon="1.75794">
        <ele>277</ele>
        <time>2017-09-20T13:53:14Z</time>
      </trkpt>
      <trkpt lat="44.56161" lon="1.75805">
        <ele>276</ele>
        <time>2017-09-20T13:53:23Z</time>
      </trkpt>
      <trkpt lat="44.56158" lon="1.75812">
        <ele>276</ele>
        <time>2017-09-20T13:53:29Z</time>
      </trkpt>
      <trkpt lat="44.56143" lon="1.75828">
        <ele>277</ele>
        <time>2017-09-20T13:53:46Z</time>
      </trkpt>
      <trkpt lat="44.5614" lon="1.75833">
        <ele>277</ele>
        <time>2017-09-20T13:53:52Z</time>
      </trkpt>
      <trkpt lat="44.56137" lon="1.75839">
        <ele>281</ele>
        <time>2017-09-20T13:53:56Z</time>
      </trkpt>
      <trkpt lat="44.56135" lon="1.75845">
        <ele>281</ele>
        <time>2017-09-20T13:54:00Z</time>
      </trkpt>
      <trkpt lat="44.56131" lon="1.75849">
        <ele>281</ele>
        <time>2017-09-20T13:54:05Z</time>
      </trkpt>
      <trkpt lat="44.56127" lon="1.75853">
        <ele>281</ele>
        <time>2017-09-20T13:54:09Z</time>
      </trkpt>
      <trkpt lat="44.56123" lon="1.75858">
        <ele>281</ele>
        <time>2017-09-20T13:54:14Z</time>
      </trkpt>
      <trkpt lat="44.56109" lon="1.75875">
        <ele>282</ele>
        <time>2017-09-20T13:54:35Z</time>
      </trkpt>
      <trkpt lat="44.56104" lon="1.7588">
        <ele>282</ele>
        <time>2017-09-20T13:54:41Z</time>
      </trkpt>
      <trkpt lat="44.56101" lon="1.75885">
        <ele>283</ele>
        <time>2017-09-20T13:54:46Z</time>
      </trkpt>
      <trkpt lat="44.56096" lon="1.75892">
        <ele>283</ele>
        <time>2017-09-20T13:54:52Z</time>
      </trkpt>
      <trkpt lat="44.56087" lon="1.75903">
        <ele>284</ele>
        <time>2017-09-20T13:55:02Z</time>
      </trkpt>
      <trkpt lat="44.56081" lon="1.75907">
        <ele>285</ele>
        <time>2017-09-20T13:55:09Z</time>
      </trkpt>
      <trkpt lat="44.56077" lon="1.75913">
        <ele>285</ele>
        <time>2017-09-20T13:55:17Z</time>
      </trkpt>
      <trkpt lat="44.56074" lon="1.75918">
        <ele>286</ele>
        <time>2017-09-20T13:55:24Z</time>
      </trkpt>
      <trkpt lat="44.56068" lon="1.75923">
        <ele>287</ele>
        <time>2017-09-20T13:55:30Z</time>
      </trkpt>
      <trkpt lat="44.56063" lon="1.75924">
        <ele>287</ele>
        <time>2017-09-20T13:55:35Z</time>
      </trkpt>
      <trkpt lat="44.56059" lon="1.75927">
        <ele>287</ele>
        <time>2017-09-20T13:55:41Z</time>
      </trkpt>
      <trkpt lat="44.56041" lon="1.75948">
        <ele>288</ele>
        <time>2017-09-20T13:56:03Z</time>
      </trkpt>
      <trkpt lat="44.56035" lon="1.7596">
        <ele>288</ele>
        <time>2017-09-20T13:56:11Z</time>
      </trkpt>
      <trkpt lat="44.56032" lon="1.75965">
        <ele>288</ele>
        <time>2017-09-20T13:56:15Z</time>
      </trkpt>
      <trkpt lat="44.56024" lon="1.75994">
        <ele>289</ele>
        <time>2017-09-20T13:56:36Z</time>
      </trkpt>
      <trkpt lat="44.56026" lon="1.76017">
        <ele>289</ele>
        <time>2017-09-20T13:56:49Z</time>
      </trkpt>
      <trkpt lat="44.56028" lon="1.76037">
        <ele>288</ele>
        <time>2017-09-20T13:57:01Z</time>
      </trkpt>
      <trkpt lat="44.56027" lon="1.76044">
        <ele>288</ele>
        <time>2017-09-20T13:57:05Z</time>
      </trkpt>
      <trkpt lat="44.56028" lon="1.76051">
        <ele>288</ele>
        <time>2017-09-20T13:57:10Z</time>
      </trkpt>
      <trkpt lat="44.5603" lon="1.76055">
        <ele>288</ele>
        <time>2017-09-20T13:57:13Z</time>
      </trkpt>
      <trkpt lat="44.56029" lon="1.76061">
        <ele>288</ele>
        <time>2017-09-20T13:57:17Z</time>
      </trkpt>
      <trkpt lat="44.56043" lon="1.76103">
        <ele>285</ele>
        <time>2017-09-20T13:57:51Z</time>
      </trkpt>
      <trkpt lat="44.56046" lon="1.76109">
        <ele>285</ele>
        <time>2017-09-20T13:57:55Z</time>
      </trkpt>
      <trkpt lat="44.56049" lon="1.76115">
        <ele>285</ele>
        <time>2017-09-20T13:58:00Z</time>
      </trkpt>
      <trkpt lat="44.56048" lon="1.76123">
        <ele>285</ele>
        <time>2017-09-20T13:58:08Z</time>
      </trkpt>
      <trkpt lat="44.56056" lon="1.76137">
        <ele>284</ele>
        <time>2017-09-20T13:58:22Z</time>
      </trkpt>
      <trkpt lat="44.56057" lon="1.76142">
        <ele>284</ele>
        <time>2017-09-20T13:58:26Z</time>
      </trkpt>
      <trkpt lat="44.56062" lon="1.7616">
        <ele>283</ele>
        <time>2017-09-20T13:58:43Z</time>
      </trkpt>
      <trkpt lat="44.56064" lon="1.76166">
        <ele>283</ele>
        <time>2017-09-20T13:58:50Z</time>
      </trkpt>
      <trkpt lat="44.56064" lon="1.76174">
        <ele>279</ele>
        <time>2017-09-20T13:58:56Z</time>
      </trkpt>
      <trkpt lat="44.56061" lon="1.76187">
        <ele>278</ele>
        <time>2017-09-20T13:59:07Z</time>
      </trkpt>
      <trkpt lat="44.56043" lon="1.76221">
        <ele>276</ele>
        <time>2017-09-20T13:59:40Z</time>
      </trkpt>
      <trkpt lat="44.56033" lon="1.76239">
        <ele>275</ele>
        <time>2017-09-20T13:59:55Z</time>
      </trkpt>
      <trkpt lat="44.56025" lon="1.7625">
        <ele>275</ele>
        <time>2017-09-20T14:00:09Z</time>
      </trkpt>
      <trkpt lat="44.56009" lon="1.76275">
        <ele>270</ele>
        <time>2017-09-20T14:00:39Z</time>
      </trkpt>
      <trkpt lat="44.55997" lon="1.76305">
        <ele>273</ele>
        <time>2017-09-20T14:01:03Z</time>
      </trkpt>
      <trkpt lat="44.55996" lon="1.76311">
        <ele>272</ele>
        <time>2017-09-20T14:01:08Z</time>
      </trkpt>
      <trkpt lat="44.55994" lon="1.76318">
        <ele>271</ele>
        <time>2017-09-20T14:01:12Z</time>
      </trkpt>
      <trkpt lat="44.55985" lon="1.76349">
        <ele>268</ele>
        <time>2017-09-20T14:01:34Z</time>
      </trkpt>
      <trkpt lat="44.55983" lon="1.76355">
        <ele>268</ele>
        <time>2017-09-20T14:01:39Z</time>
      </trkpt>
      <trkpt lat="44.55979" lon="1.76368">
        <ele>268</ele>
        <time>2017-09-20T14:01:49Z</time>
      </trkpt>
      <trkpt lat="44.55972" lon="1.76385">
        <ele>268</ele>
        <time>2017-09-20T14:02:01Z</time>
      </trkpt>
      <trkpt lat="44.55967" lon="1.76403">
        <ele>267</ele>
        <time>2017-09-20T14:02:13Z</time>
      </trkpt>
      <trkpt lat="44.55966" lon="1.7641">
        <ele>267</ele>
        <time>2017-09-20T14:02:18Z</time>
      </trkpt>
      <trkpt lat="44.55965" lon="1.76417">
        <ele>264</ele>
        <time>2017-09-20T14:02:23Z</time>
      </trkpt>
      <trkpt lat="44.55962" lon="1.76431">
        <ele>264</ele>
        <time>2017-09-20T14:02:33Z</time>
      </trkpt>
      <trkpt lat="44.5596" lon="1.76446">
        <ele>264</ele>
        <time>2017-09-20T14:02:42Z</time>
      </trkpt>
      <trkpt lat="44.55956" lon="1.76466">
        <ele>263</ele>
        <time>2017-09-20T14:02:55Z</time>
      </trkpt>
      <trkpt lat="44.55956" lon="1.76472">
        <ele>263</ele>
        <time>2017-09-20T14:02:59Z</time>
      </trkpt>
      <trkpt lat="44.55955" lon="1.76492">
        <ele>263</ele>
        <time>2017-09-20T14:03:11Z</time>
      </trkpt>
      <trkpt lat="44.55959" lon="1.76543">
        <ele>260</ele>
        <time>2017-09-20T14:03:44Z</time>
      </trkpt>
      <trkpt lat="44.55959" lon="1.76549">
        <ele>260</ele>
        <time>2017-09-20T14:03:48Z</time>
      </trkpt>
      <trkpt lat="44.55959" lon="1.76555">
        <ele>260</ele>
        <time>2017-09-20T14:03:52Z</time>
      </trkpt>
      <trkpt lat="44.55961" lon="1.76561">
        <ele>260</ele>
        <time>2017-09-20T14:03:56Z</time>
      </trkpt>
      <trkpt lat="44.55962" lon="1.76569">
        <ele>260</ele>
        <time>2017-09-20T14:04:01Z</time>
      </trkpt>
      <trkpt lat="44.55962" lon="1.76589">
        <ele>258</ele>
        <time>2017-09-20T14:04:14Z</time>
      </trkpt>
      <trkpt lat="44.55959" lon="1.766">
        <ele>258</ele>
        <time>2017-09-20T14:04:22Z</time>
      </trkpt>
      <trkpt lat="44.55958" lon="1.76605">
        <ele>258</ele>
        <time>2017-09-20T14:04:26Z</time>
      </trkpt>
      <trkpt lat="44.55956" lon="1.76609">
        <ele>258</ele>
        <time>2017-09-20T14:04:30Z</time>
      </trkpt>
      <trkpt lat="44.55953" lon="1.76618">
        <ele>257</ele>
        <time>2017-09-20T14:04:38Z</time>
      </trkpt>
      <trkpt lat="44.55954" lon="1.76629">
        <ele>257</ele>
        <time>2017-09-20T14:04:45Z</time>
      </trkpt>
      <trkpt lat="44.55953" lon="1.76632">
        <ele>257</ele>
        <time>2017-09-20T14:05:08Z</time>
      </trkpt>
      <trkpt lat="44.55951" lon="1.7663">
        <ele>257</ele>
        <time>2017-09-20T14:05:13Z</time>
      </trkpt>
      <trkpt lat="44.55943" lon="1.76631">
        <ele>257</ele>
        <time>2017-09-20T14:05:20Z</time>
      </trkpt>
      <trkpt lat="44.55928" lon="1.76634">
        <ele>257</ele>
        <time>2017-09-20T14:05:32Z</time>
      </trkpt>
      <trkpt lat="44.55926" lon="1.76634">
        <ele>257</ele>
        <time>2017-09-20T14:05:34Z</time>
      </trkpt>
      <trkpt lat="44.55923" lon="1.76635">
        <ele>257</ele>
        <time>2017-09-20T14:05:36Z</time>
      </trkpt>
      <trkpt lat="44.55921" lon="1.76636">
        <ele>257</ele>
        <time>2017-09-20T14:05:38Z</time>
      </trkpt>
      <trkpt lat="44.55903" lon="1.76643">
        <ele>259</ele>
        <time>2017-09-20T14:05:53Z</time>
      </trkpt>
      <trkpt lat="44.55891" lon="1.76649">
        <ele>259</ele>
        <time>2017-09-20T14:06:03Z</time>
      </trkpt>
      <trkpt lat="44.55887" lon="1.76651">
        <ele>259</ele>
        <time>2017-09-20T14:06:06Z</time>
      </trkpt>
      <trkpt lat="44.55851" lon="1.76677">
        <ele>253</ele>
        <time>2017-09-20T14:06:37Z</time>
      </trkpt>
      <trkpt lat="44.55828" lon="1.76695">
        <ele>251</ele>
        <time>2017-09-20T14:06:57Z</time>
      </trkpt>
      <trkpt lat="44.55816" lon="1.76697">
        <ele>250</ele>
        <time>2017-09-20T14:07:06Z</time>
      </trkpt>
      <trkpt lat="44.55778" lon="1.76692">
        <ele>251</ele>
        <time>2017-09-20T14:07:36Z</time>
      </trkpt>
      <trkpt lat="44.55776" lon="1.76691">
        <ele>251</ele>
        <time>2017-09-20T14:07:38Z</time>
      </trkpt>
      <trkpt lat="44.55763" lon="1.76687">
        <ele>252</ele>
        <time>2017-09-20T14:07:50Z</time>
      </trkpt>
      <trkpt lat="44.55746" lon="1.76688">
        <ele>249</ele>
        <time>2017-09-20T14:08:04Z</time>
      </trkpt>
      <trkpt lat="44.55741" lon="1.76686">
        <ele>249</ele>
        <time>2017-09-20T14:08:07Z</time>
      </trkpt>
      <trkpt lat="44.55737" lon="1.76684">
        <ele>249</ele>
        <time>2017-09-20T14:08:11Z</time>
      </trkpt>
      <trkpt lat="44.55733" lon="1.76682">
        <ele>249</ele>
        <time>2017-09-20T14:08:14Z</time>
      </trkpt>
      <trkpt lat="44.55729" lon="1.7668">
        <ele>249</ele>
        <time>2017-09-20T14:08:18Z</time>
      </trkpt>
      <trkpt lat="44.55724" lon="1.7668">
        <ele>248</ele>
        <time>2017-09-20T14:08:22Z</time>
      </trkpt>
      <trkpt lat="44.55719" lon="1.7668">
        <ele>247</ele>
        <time>2017-09-20T14:08:26Z</time>
      </trkpt>
      <trkpt lat="44.55706" lon="1.76677">
        <ele>246</ele>
        <time>2017-09-20T14:08:38Z</time>
      </trkpt>
      <trkpt lat="44.55702" lon="1.76677">
        <ele>246</ele>
        <time>2017-09-20T14:08:43Z</time>
      </trkpt>
      <trkpt lat="44.55699" lon="1.76676">
        <ele>246</ele>
        <time>2017-09-20T14:09:00Z</time>
      </trkpt>
      <trkpt lat="44.55696" lon="1.76678">
        <ele>246</ele>
        <time>2017-09-20T14:10:06Z</time>
      </trkpt>
      <trkpt lat="44.55696" lon="1.76681">
        <ele>245</ele>
        <time>2017-09-20T14:10:09Z</time>
      </trkpt>
      <trkpt lat="44.55696" lon="1.76686">
        <ele>245</ele>
        <time>2017-09-20T14:10:14Z</time>
      </trkpt>
      <trkpt lat="44.55695" lon="1.76697">
        <ele>244</ele>
        <time>2017-09-20T14:10:26Z</time>
      </trkpt>
      <trkpt lat="44.55694" lon="1.76703">
        <ele>243</ele>
        <time>2017-09-20T14:10:35Z</time>
      </trkpt>
      <trkpt lat="44.55694" lon="1.76709">
        <ele>243</ele>
        <time>2017-09-20T14:10:41Z</time>
      </trkpt>
      <trkpt lat="44.55695" lon="1.76714">
        <ele>242</ele>
        <time>2017-09-20T14:10:50Z</time>
      </trkpt>
      <trkpt lat="44.55693" lon="1.76719">
        <ele>241</ele>
        <time>2017-09-20T14:10:57Z</time>
      </trkpt>
      <trkpt lat="44.5569" lon="1.76721">
        <ele>241</ele>
        <time>2017-09-20T14:11:02Z</time>
      </trkpt>
      <trkpt lat="44.557" lon="1.76738">
        <ele>240</ele>
        <time>2017-09-20T14:11:28Z</time>
      </trkpt>
      <trkpt lat="44.55712" lon="1.7675">
        <ele>229</ele>
        <time>2017-09-20T14:11:44Z</time>
      </trkpt>
      <trkpt lat="44.55714" lon="1.76754">
        <ele>229</ele>
        <time>2017-09-20T14:11:48Z</time>
      </trkpt>
      <trkpt lat="44.55727" lon="1.76765">
        <ele>230</ele>
        <time>2017-09-20T14:12:20Z</time>
      </trkpt>
      <trkpt lat="44.55738" lon="1.76775">
        <ele>230</ele>
        <time>2017-09-20T14:12:32Z</time>
      </trkpt>
      <trkpt lat="44.55742" lon="1.76778">
        <ele>229</ele>
        <time>2017-09-20T14:12:36Z</time>
      </trkpt>
      <trkpt lat="44.55745" lon="1.76782">
        <ele>228</ele>
        <time>2017-09-20T14:12:41Z</time>
      </trkpt>
      <trkpt lat="44.55748" lon="1.76785">
        <ele>228</ele>
        <time>2017-09-20T14:12:45Z</time>
      </trkpt>
      <trkpt lat="44.55749" lon="1.76791">
        <ele>226</ele>
        <time>2017-09-20T14:12:49Z</time>
      </trkpt>
      <trkpt lat="44.55747" lon="1.76795">
        <ele>226</ele>
        <time>2017-09-20T14:12:53Z</time>
      </trkpt>
      <trkpt lat="44.55744" lon="1.76797">
        <ele>225</ele>
        <time>2017-09-20T14:13:11Z</time>
      </trkpt>
      <trkpt lat="44.55742" lon="1.76795">
        <ele>225</ele>
        <time>2017-09-20T14:13:13Z</time>
      </trkpt>
      <trkpt lat="44.5574" lon="1.76794">
        <ele>226</ele>
        <time>2017-09-20T14:13:15Z</time>
      </trkpt>
      <trkpt lat="44.55737" lon="1.76794">
        <ele>226</ele>
        <time>2017-09-20T14:13:18Z</time>
      </trkpt>
      <trkpt lat="44.55733" lon="1.76793">
        <ele>226</ele>
        <time>2017-09-20T14:13:21Z</time>
      </trkpt>
      <trkpt lat="44.55731" lon="1.76792">
        <ele>226</ele>
        <time>2017-09-20T14:13:23Z</time>
      </trkpt>
      <trkpt lat="44.55695" lon="1.76786">
        <ele>225</ele>
        <time>2017-09-20T14:13:52Z</time>
      </trkpt>
      <trkpt lat="44.55691" lon="1.76787">
        <ele>224</ele>
        <time>2017-09-20T14:13:55Z</time>
      </trkpt>
      <trkpt lat="44.55657" lon="1.76771">
        <ele>220</ele>
        <time>2017-09-20T14:14:26Z</time>
      </trkpt>
      <trkpt lat="44.55654" lon="1.76769">
        <ele>220</ele>
        <time>2017-09-20T14:14:29Z</time>
      </trkpt>
      <trkpt lat="44.5565" lon="1.76766">
        <ele>220</ele>
        <time>2017-09-20T14:14:32Z</time>
      </trkpt>
      <trkpt lat="44.55643" lon="1.76762">
        <ele>219</ele>
        <time>2017-09-20T14:14:38Z</time>
      </trkpt>
      <trkpt lat="44.55623" lon="1.76751">
        <ele>217</ele>
        <time>2017-09-20T14:14:57Z</time>
      </trkpt>
      <trkpt lat="44.55619" lon="1.7675">
        <ele>228</ele>
        <time>2017-09-20T14:15:01Z</time>
      </trkpt>
      <trkpt lat="44.55612" lon="1.76747">
        <ele>227</ele>
        <time>2017-09-20T14:15:07Z</time>
      </trkpt>
      <trkpt lat="44.55609" lon="1.76747">
        <ele>226</ele>
        <time>2017-09-20T14:15:10Z</time>
      </trkpt>
      <trkpt lat="44.55606" lon="1.76749">
        <ele>225</ele>
        <time>2017-09-20T14:15:13Z</time>
      </trkpt>
      <trkpt lat="44.55604" lon="1.76753">
        <ele>216</ele>
        <time>2017-09-20T14:15:16Z</time>
      </trkpt>
      <trkpt lat="44.55604" lon="1.76757">
        <ele>216</ele>
        <time>2017-09-20T14:15:18Z</time>
      </trkpt>
      <trkpt lat="44.55607" lon="1.76762">
        <ele>216</ele>
        <time>2017-09-20T14:15:22Z</time>
      </trkpt>
      <trkpt lat="44.55626" lon="1.76801">
        <ele>213</ele>
        <time>2017-09-20T14:15:52Z</time>
      </trkpt>
      <trkpt lat="44.55647" lon="1.76841">
        <ele>205</ele>
        <time>2017-09-20T14:16:23Z</time>
      </trkpt>
      <trkpt lat="44.5565" lon="1.76844">
        <ele>205</ele>
        <time>2017-09-20T14:16:26Z</time>
      </trkpt>
      <trkpt lat="44.55651" lon="1.76849">
        <ele>204</ele>
        <time>2017-09-20T14:16:29Z</time>
      </trkpt>
      <trkpt lat="44.55655" lon="1.76853">
        <ele>204</ele>
        <time>2017-09-20T14:16:33Z</time>
      </trkpt>
      <trkpt lat="44.55667" lon="1.76862">
        <ele>206</ele>
        <time>2017-09-20T14:16:47Z</time>
      </trkpt>
      <trkpt lat="44.55672" lon="1.7687">
        <ele>204</ele>
        <time>2017-09-20T14:16:55Z</time>
      </trkpt>
      <trkpt lat="44.55675" lon="1.7688">
        <ele>203</ele>
        <time>2017-09-20T14:17:03Z</time>
      </trkpt>
      <trkpt lat="44.55675" lon="1.76886">
        <ele>202</ele>
        <time>2017-09-20T14:17:07Z</time>
      </trkpt>
      <trkpt lat="44.55672" lon="1.76892">
        <ele>201</ele>
        <time>2017-09-20T14:17:13Z</time>
      </trkpt>
      <trkpt lat="44.55671" lon="1.76895">
        <ele>200</ele>
        <time>2017-09-20T14:17:16Z</time>
      </trkpt>
      <trkpt lat="44.55668" lon="1.76897">
        <ele>200</ele>
        <time>2017-09-20T14:17:20Z</time>
      </trkpt>
      <trkpt lat="44.55666" lon="1.76897">
        <ele>198</ele>
        <time>2017-09-20T14:17:22Z</time>
      </trkpt>
      <trkpt lat="44.55658" lon="1.76902">
        <ele>197</ele>
        <time>2017-09-20T14:17:30Z</time>
      </trkpt>
      <trkpt lat="44.55643" lon="1.76906">
        <ele>197</ele>
        <time>2017-09-20T14:17:46Z</time>
      </trkpt>
      <trkpt lat="44.55637" lon="1.76905">
        <ele>197</ele>
        <time>2017-09-20T14:17:51Z</time>
      </trkpt>
      <trkpt lat="44.55623" lon="1.76906">
        <ele>196</ele>
        <time>2017-09-20T14:18:06Z</time>
      </trkpt>
      <trkpt lat="44.55608" lon="1.76906">
        <ele>194</ele>
        <time>2017-09-20T14:18:19Z</time>
      </trkpt>
      <trkpt lat="44.55604" lon="1.76906">
        <ele>194</ele>
        <time>2017-09-20T14:18:23Z</time>
      </trkpt>
      <trkpt lat="44.55589" lon="1.76907">
        <ele>191</ele>
        <time>2017-09-20T14:18:37Z</time>
      </trkpt>
      <trkpt lat="44.55582" lon="1.76907">
        <ele>188</ele>
        <time>2017-09-20T14:18:42Z</time>
      </trkpt>
      <trkpt lat="44.55549" lon="1.76925">
        <ele>181</ele>
        <time>2017-09-20T14:19:13Z</time>
      </trkpt>
      <trkpt lat="44.55546" lon="1.76927">
        <ele>180</ele>
        <time>2017-09-20T14:19:16Z</time>
      </trkpt>
      <trkpt lat="44.55542" lon="1.7693">
        <ele>180</ele>
        <time>2017-09-20T14:19:19Z</time>
      </trkpt>
      <trkpt lat="44.55539" lon="1.76933">
        <ele>180</ele>
        <time>2017-09-20T14:19:22Z</time>
      </trkpt>
      <trkpt lat="44.55528" lon="1.76944">
        <ele>179</ele>
        <time>2017-09-20T14:19:33Z</time>
      </trkpt>
      <trkpt lat="44.55523" lon="1.76948">
        <ele>179</ele>
        <time>2017-09-20T14:19:38Z</time>
      </trkpt>
      <trkpt lat="44.55515" lon="1.76954">
        <ele>178</ele>
        <time>2017-09-20T14:19:55Z</time>
      </trkpt>
      <trkpt lat="44.55505" lon="1.76964">
        <ele>178</ele>
        <time>2017-09-20T14:20:07Z</time>
      </trkpt>
      <trkpt lat="44.55502" lon="1.76966">
        <ele>178</ele>
        <time>2017-09-20T14:20:10Z</time>
      </trkpt>
      <trkpt lat="44.55496" lon="1.7697">
        <ele>175</ele>
        <time>2017-09-20T14:20:16Z</time>
      </trkpt>
      <trkpt lat="44.55494" lon="1.76972">
        <ele>175</ele>
        <time>2017-09-20T14:20:19Z</time>
      </trkpt>
      <trkpt lat="44.55491" lon="1.76974">
        <ele>175</ele>
        <time>2017-09-20T14:20:23Z</time>
      </trkpt>
      <trkpt lat="44.55489" lon="1.76976">
        <ele>175</ele>
        <time>2017-09-20T14:20:25Z</time>
      </trkpt>
      <trkpt lat="44.55486" lon="1.76977">
        <ele>175</ele>
        <time>2017-09-20T14:20:27Z</time>
      </trkpt>
      <trkpt lat="44.55472" lon="1.76984">
        <ele>175</ele>
        <time>2017-09-20T14:20:39Z</time>
      </trkpt>
      <trkpt lat="44.55469" lon="1.76984">
        <ele>174</ele>
        <time>2017-09-20T14:20:42Z</time>
      </trkpt>
      <trkpt lat="44.55462" lon="1.76985">
        <ele>174</ele>
        <time>2017-09-20T14:20:48Z</time>
      </trkpt>
      <trkpt lat="44.55458" lon="1.76985">
        <ele>174</ele>
        <time>2017-09-20T14:20:51Z</time>
      </trkpt>
      <trkpt lat="44.55455" lon="1.76987">
        <ele>174</ele>
        <time>2017-09-20T14:20:54Z</time>
      </trkpt>
      <trkpt lat="44.55452" lon="1.76986">
        <ele>174</ele>
        <time>2017-09-20T14:20:57Z</time>
      </trkpt>
      <trkpt lat="44.55448" lon="1.76988">
        <ele>174</ele>
        <time>2017-09-20T14:21:00Z</time>
      </trkpt>
      <trkpt lat="44.55445" lon="1.7699">
        <ele>174</ele>
        <time>2017-09-20T14:21:03Z</time>
      </trkpt>
      <trkpt lat="44.55434" lon="1.76994">
        <ele>173</ele>
        <time>2017-09-20T14:21:14Z</time>
      </trkpt>
      <trkpt lat="44.55431" lon="1.76995">
        <ele>173</ele>
        <time>2017-09-20T14:21:17Z</time>
      </trkpt>
      <trkpt lat="44.55422" lon="1.77003">
        <ele>171</ele>
        <time>2017-09-20T14:21:28Z</time>
      </trkpt>
      <trkpt lat="44.55419" lon="1.77005">
        <ele>171</ele>
        <time>2017-09-20T14:21:31Z</time>
      </trkpt>
      <trkpt lat="44.55415" lon="1.77007">
        <ele>170</ele>
        <time>2017-09-20T14:21:34Z</time>
      </trkpt>
      <trkpt lat="44.55412" lon="1.77009">
        <ele>170</ele>
        <time>2017-09-20T14:21:37Z</time>
      </trkpt>
      <trkpt lat="44.55409" lon="1.77009">
        <ele>170</ele>
        <time>2017-09-20T14:21:41Z</time>
      </trkpt>
      <trkpt lat="44.55403" lon="1.77005">
        <ele>169</ele>
        <time>2017-09-20T14:21:48Z</time>
      </trkpt>
      <trkpt lat="44.55392" lon="1.76994">
        <ele>171</ele>
        <time>2017-09-20T14:22:02Z</time>
      </trkpt>
      <trkpt lat="44.55375" lon="1.76987">
        <ele>170</ele>
        <time>2017-09-20T14:22:18Z</time>
      </trkpt>
      <trkpt lat="44.55372" lon="1.76986">
        <ele>170</ele>
        <time>2017-09-20T14:22:20Z</time>
      </trkpt>
      <trkpt lat="44.55359" lon="1.76979">
        <ele>170</ele>
        <time>2017-09-20T14:22:31Z</time>
      </trkpt>
      <trkpt lat="44.55356" lon="1.76977">
        <ele>169</ele>
        <time>2017-09-20T14:22:34Z</time>
      </trkpt>
      <trkpt lat="44.55351" lon="1.76977">
        <ele>169</ele>
        <time>2017-09-20T14:22:39Z</time>
      </trkpt>
      <trkpt lat="44.55347" lon="1.76976">
        <ele>169</ele>
        <time>2017-09-20T14:22:44Z</time>
      </trkpt>
      <trkpt lat="44.55345" lon="1.76976">
        <ele>169</ele>
        <time>2017-09-20T14:23:12Z</time>
      </trkpt>
      <trkpt lat="44.55346" lon="1.76981">
        <ele>169</ele>
        <time>2017-09-20T14:23:18Z</time>
      </trkpt>
      <trkpt lat="44.55341" lon="1.76995">
        <ele>168</ele>
        <time>2017-09-20T14:23:28Z</time>
      </trkpt>
      <trkpt lat="44.55337" lon="1.76998">
        <ele>167</ele>
        <time>2017-09-20T14:23:34Z</time>
      </trkpt>
      <trkpt lat="44.55334" lon="1.77003">
        <ele>167</ele>
        <time>2017-09-20T14:23:37Z</time>
      </trkpt>
      <trkpt lat="44.55331" lon="1.77015">
        <ele>165</ele>
        <time>2017-09-20T14:23:45Z</time>
      </trkpt>
      <trkpt lat="44.55328" lon="1.77021">
        <ele>164</ele>
        <time>2017-09-20T14:23:52Z</time>
      </trkpt>
      <trkpt lat="44.55326" lon="1.77023">
        <ele>164</ele>
        <time>2017-09-20T14:23:55Z</time>
      </trkpt>
      <trkpt lat="44.55321" lon="1.77022">
        <ele>164</ele>
        <time>2017-09-20T14:24:00Z</time>
      </trkpt>
      <trkpt lat="44.55319" lon="1.77022">
        <ele>164</ele>
        <time>2017-09-20T14:24:08Z</time>
      </trkpt>
      <trkpt lat="44.55316" lon="1.77025">
        <ele>163</ele>
        <time>2017-09-20T14:24:27Z</time>
      </trkpt>
      <trkpt lat="44.55312" lon="1.77024">
        <ele>163</ele>
        <time>2017-09-20T14:24:58Z</time>
      </trkpt>
      <trkpt lat="44.55308" lon="1.77025">
        <ele>163</ele>
        <time>2017-09-20T14:25:01Z</time>
      </trkpt>
      <trkpt lat="44.55302" lon="1.77033">
        <ele>163</ele>
        <time>2017-09-20T14:25:24Z</time>
      </trkpt>
      <trkpt lat="44.55301" lon="1.77046">
        <ele>162</ele>
        <time>2017-09-20T14:25:31Z</time>
      </trkpt>
      <trkpt lat="44.55298" lon="1.77051">
        <ele>162</ele>
        <time>2017-09-20T14:25:40Z</time>
      </trkpt>
      <trkpt lat="44.55298" lon="1.77056">
        <ele>162</ele>
        <time>2017-09-20T14:25:55Z</time>
      </trkpt>
      <trkpt lat="44.55301" lon="1.77057">
        <ele>162</ele>
        <time>2017-09-20T14:26:02Z</time>
      </trkpt>
      <trkpt lat="44.55304" lon="1.77058">
        <ele>162</ele>
        <time>2017-09-20T14:26:05Z</time>
      </trkpt>
      <trkpt lat="44.55307" lon="1.77059">
        <ele>162</ele>
        <time>2017-09-20T14:26:08Z</time>
      </trkpt>
      <trkpt lat="44.55312" lon="1.77062">
        <ele>162</ele>
        <time>2017-09-20T14:26:13Z</time>
      </trkpt>
      <trkpt lat="44.55314" lon="1.77063">
        <ele>162</ele>
        <time>2017-09-20T14:26:16Z</time>
      </trkpt>
      <trkpt lat="44.55331" lon="1.7707">
        <ele>162</ele>
        <time>2017-09-20T14:26:33Z</time>
      </trkpt>
      <trkpt lat="44.55336" lon="1.77072">
        <ele>163</ele>
        <time>2017-09-20T14:26:37Z</time>
      </trkpt>
      <trkpt lat="44.55335" lon="1.77075">
        <ele>163</ele>
        <time>2017-09-20T14:26:43Z</time>
      </trkpt>
      <trkpt lat="44.55334" lon="1.77091">
        <ele>161</ele>
        <time>2017-09-20T14:26:55Z</time>
      </trkpt>
      <trkpt lat="44.5533" lon="1.77098">
        <ele>160</ele>
        <time>2017-09-20T14:27:01Z</time>
      </trkpt>
      <trkpt lat="44.5533" lon="1.77105">
        <ele>160</ele>
        <time>2017-09-20T14:27:03Z</time>
      </trkpt>
      <trkpt lat="44.55328" lon="1.77111">
        <ele>160</ele>
        <time>2017-09-20T14:27:07Z</time>
      </trkpt>
      <trkpt lat="44.5533" lon="1.77115">
        <ele>160</ele>
        <time>2017-09-20T14:27:11Z</time>
      </trkpt>
      <trkpt lat="44.55345" lon="1.77119">
        <ele>160</ele>
        <time>2017-09-20T14:27:24Z</time>
      </trkpt>
      <trkpt lat="44.55348" lon="1.77118">
        <ele>160</ele>
        <time>2017-09-20T14:27:37Z</time>
      </trkpt>
      <trkpt lat="44.5535" lon="1.77119">
        <ele>160</ele>
        <time>2017-09-20T14:27:40Z</time>
      </trkpt>
      <trkpt lat="44.55373" lon="1.77134">
        <ele>159</ele>
        <time>2017-09-20T14:35:09Z</time>
      </trkpt>
      <trkpt lat="44.55368" lon="1.77137">
        <ele>159</ele>
        <time>2017-09-20T14:35:10Z</time>
      </trkpt>
      <trkpt lat="44.55371" lon="1.77138">
        <ele>159</ele>
        <time>2017-09-20T14:35:19Z</time>
      </trkpt>
      <trkpt lat="44.55372" lon="1.77136">
        <ele>159</ele>
        <time>2017-09-20T14:35:23Z</time>
      </trkpt>
      <trkpt lat="44.553" lon="1.77053">
        <ele>162</ele>
        <time>2017-09-20T14:45:47Z</time>
      </trkpt>
      <trkpt lat="44.55299" lon="1.77052">
        <ele>162</ele>
        <time>2017-09-20T14:45:48Z</time>
      </trkpt>
      <trkpt lat="44.55296" lon="1.77047">
        <ele>162</ele>
        <time>2017-09-20T14:45:51Z</time>
      </trkpt>
      <trkpt lat="44.55293" lon="1.77046">
        <ele>162</ele>
        <time>2017-09-20T14:45:53Z</time>
      </trkpt>
      <trkpt lat="44.55282" lon="1.77031">
        <ele>162</ele>
        <time>2017-09-20T14:46:06Z</time>
      </trkpt>
      <trkpt lat="44.55275" lon="1.77023">
        <ele>162</ele>
        <time>2017-09-20T14:46:12Z</time>
      </trkpt>
      <trkpt lat="44.55251" lon="1.76984">
        <ele>163</ele>
        <time>2017-09-20T14:46:46Z</time>
      </trkpt>
      <trkpt lat="44.55248" lon="1.7698">
        <ele>160</ele>
        <time>2017-09-20T14:46:49Z</time>
      </trkpt>
      <trkpt lat="44.55245" lon="1.76977">
        <ele>160</ele>
        <time>2017-09-20T14:46:52Z</time>
      </trkpt>
      <trkpt lat="44.55239" lon="1.76977">
        <ele>159</ele>
        <time>2017-09-20T14:46:56Z</time>
      </trkpt>
      <trkpt lat="44.55226" lon="1.76984">
        <ele>159</ele>
        <time>2017-09-20T14:47:09Z</time>
      </trkpt>
      <trkpt lat="44.55193" lon="1.77008">
        <ele>157</ele>
        <time>2017-09-20T14:47:39Z</time>
      </trkpt>
      <trkpt lat="44.55166" lon="1.77034">
        <ele>155</ele>
        <time>2017-09-20T14:48:04Z</time>
      </trkpt>
      <trkpt lat="44.55144" lon="1.7705">
        <ele>155</ele>
        <time>2017-09-20T14:48:24Z</time>
      </trkpt>
      <trkpt lat="44.55112" lon="1.77082">
        <ele>155</ele>
        <time>2017-09-20T14:48:54Z</time>
      </trkpt>
      <trkpt lat="44.55094" lon="1.77102">
        <ele>157</ele>
        <time>2017-09-20T14:49:10Z</time>
      </trkpt>
      <trkpt lat="44.55091" lon="1.77104">
        <ele>157</ele>
        <time>2017-09-20T14:49:13Z</time>
      </trkpt>
      <trkpt lat="44.55088" lon="1.77106">
        <ele>157</ele>
        <time>2017-09-20T14:49:16Z</time>
      </trkpt>
      <trkpt lat="44.55085" lon="1.7711">
        <ele>157</ele>
        <time>2017-09-20T14:49:19Z</time>
      </trkpt>
      <trkpt lat="44.55082" lon="1.77112">
        <ele>174</ele>
        <time>2017-09-20T14:49:23Z</time>
      </trkpt>
      <trkpt lat="44.55079" lon="1.77124">
        <ele>177</ele>
        <time>2017-09-20T14:49:30Z</time>
      </trkpt>
      <trkpt lat="44.55084" lon="1.77138">
        <ele>160</ele>
        <time>2017-09-20T14:49:38Z</time>
      </trkpt>
      <trkpt lat="44.55089" lon="1.77148">
        <ele>161</ele>
        <time>2017-09-20T14:49:43Z</time>
      </trkpt>
      <trkpt lat="44.55093" lon="1.77153">
        <ele>161</ele>
        <time>2017-09-20T14:49:48Z</time>
      </trkpt>
      <trkpt lat="44.55098" lon="1.77165">
        <ele>162</ele>
        <time>2017-09-20T14:49:55Z</time>
      </trkpt>
      <trkpt lat="44.55101" lon="1.77171">
        <ele>170</ele>
        <time>2017-09-21T07:51:08Z</time>
      </trkpt>
      <trkpt lat="44.55102" lon="1.77178">
        <ele>171</ele>
        <time>2017-09-20T14:50:02Z</time>
      </trkpt>
      <trkpt lat="44.55107" lon="1.77182">
        <ele>172</ele>
        <time>2017-09-20T14:50:07Z</time>
      </trkpt>
      <trkpt lat="44.55118" lon="1.77203">
        <ele>174</ele>
        <time>2017-09-20T14:50:23Z</time>
      </trkpt>
      <trkpt lat="44.55121" lon="1.77208">
        <ele>175</ele>
        <time>2017-09-20T14:50:26Z</time>
      </trkpt>
      <trkpt lat="44.55124" lon="1.77212">
        <ele>175</ele>
        <time>2017-09-20T14:50:30Z</time>
      </trkpt>
      <trkpt lat="44.55127" lon="1.77217">
        <ele>175</ele>
        <time>2017-09-20T14:50:33Z</time>
      </trkpt>
      <trkpt lat="44.55159" lon="1.77252">
        <ele>176</ele>
        <time>2017-09-20T14:51:03Z</time>
      </trkpt>
      <trkpt lat="44.55173" lon="1.77268">
        <ele>169</ele>
        <time>2017-09-20T14:51:16Z</time>
      </trkpt>
      <trkpt lat="44.55177" lon="1.77273">
        <ele>171</ele>
        <time>2017-09-20T14:51:19Z</time>
      </trkpt>
      <trkpt lat="44.55192" lon="1.77284">
        <ele>174</ele>
        <time>2017-09-20T14:51:32Z</time>
      </trkpt>
      <trkpt lat="44.55214" lon="1.77306">
        <ele>174</ele>
        <time>2017-09-20T14:51:52Z</time>
      </trkpt>
      <trkpt lat="44.55218" lon="1.7731">
        <ele>174</ele>
        <time>2017-09-20T14:51:55Z</time>
      </trkpt>
      <trkpt lat="44.55221" lon="1.77315">
        <ele>173</ele>
        <time>2017-09-20T14:51:59Z</time>
      </trkpt>
      <trkpt lat="44.55226" lon="1.77317">
        <ele>172</ele>
        <time>2017-09-20T14:52:02Z</time>
      </trkpt>
      <trkpt lat="44.55239" lon="1.7733">
        <ele>167</ele>
        <time>2017-09-20T14:52:14Z</time>
      </trkpt>
      <trkpt lat="44.55243" lon="1.77331">
        <ele>166</ele>
        <time>2017-09-20T14:52:20Z</time>
      </trkpt>
      <trkpt lat="44.55247" lon="1.77334">
        <ele>170</ele>
        <time>2017-09-20T14:52:25Z</time>
      </trkpt>
      <trkpt lat="44.5525" lon="1.77337">
        <ele>165</ele>
        <time>2017-09-20T14:52:29Z</time>
      </trkpt>
      <trkpt lat="44.5526" lon="1.77346">
        <ele>170</ele>
        <time>2017-09-20T14:52:38Z</time>
      </trkpt>
      <trkpt lat="44.5527" lon="1.77354">
        <ele>173</ele>
        <time>2017-09-20T14:52:47Z</time>
      </trkpt>
      <trkpt lat="44.55282" lon="1.77366">
        <ele>176</ele>
        <time>2017-09-20T14:52:59Z</time>
      </trkpt>
      <trkpt lat="44.55286" lon="1.77369">
        <ele>176</ele>
        <time>2017-09-20T14:53:03Z</time>
      </trkpt>
      <trkpt lat="44.5529" lon="1.7737">
        <ele>176</ele>
        <time>2017-09-20T14:53:07Z</time>
      </trkpt>
      <trkpt lat="44.55298" lon="1.7738">
        <ele>177</ele>
        <time>2017-09-20T14:53:24Z</time>
      </trkpt>
      <trkpt lat="44.55305" lon="1.77387">
        <ele>177</ele>
        <time>2017-09-20T14:53:30Z</time>
      </trkpt>
      <trkpt lat="44.55308" lon="1.77389">
        <ele>177</ele>
        <time>2017-09-20T14:53:33Z</time>
      </trkpt>
      <trkpt lat="44.5532" lon="1.774">
        <ele>176</ele>
        <time>2017-09-20T14:53:45Z</time>
      </trkpt>
      <trkpt lat="44.5534" lon="1.77407">
        <ele>170</ele>
        <time>2017-09-20T14:54:01Z</time>
      </trkpt>
      <trkpt lat="44.55343" lon="1.77408">
        <ele>169</ele>
        <time>2017-09-20T14:54:04Z</time>
      </trkpt>
      <trkpt lat="44.55347" lon="1.77409">
        <ele>169</ele>
        <time>2017-09-20T14:54:10Z</time>
      </trkpt>
      <trkpt lat="44.55351" lon="1.7741">
        <ele>168</ele>
        <time>2017-09-20T14:54:14Z</time>
      </trkpt>
      <trkpt lat="44.55355" lon="1.77412">
        <ele>168</ele>
        <time>2017-09-20T14:54:18Z</time>
      </trkpt>
      <trkpt lat="44.55359" lon="1.7741">
        <ele>167</ele>
        <time>2017-09-20T14:54:22Z</time>
      </trkpt>
      <trkpt lat="44.55365" lon="1.77412">
        <ele>166</ele>
        <time>2017-09-20T14:54:26Z</time>
      </trkpt>
      <trkpt lat="44.5537" lon="1.77415">
        <ele>166</ele>
        <time>2017-09-20T14:54:30Z</time>
      </trkpt>
      <trkpt lat="44.55379" lon="1.77418">
        <ele>185</ele>
        <time>2017-09-20T14:54:38Z</time>
      </trkpt>
      <trkpt lat="44.55387" lon="1.77417">
        <ele>183</ele>
        <time>2017-09-20T14:54:45Z</time>
      </trkpt>
      <trkpt lat="44.55391" lon="1.77414">
        <ele>165</ele>
        <time>2017-09-20T14:54:49Z</time>
      </trkpt>
      <trkpt lat="44.55396" lon="1.77415">
        <ele>165</ele>
        <time>2017-09-20T14:54:54Z</time>
      </trkpt>
      <trkpt lat="44.55415" lon="1.77407">
        <ele>165</ele>
        <time>2017-09-20T14:55:11Z</time>
      </trkpt>
      <trkpt lat="44.55424" lon="1.77405">
        <ele>164</ele>
        <time>2017-09-20T14:55:17Z</time>
      </trkpt>
      <trkpt lat="44.55428" lon="1.77405">
        <ele>164</ele>
        <time>2017-09-20T14:55:20Z</time>
      </trkpt>
      <trkpt lat="44.55431" lon="1.774">
        <ele>163</ele>
        <time>2017-09-20T14:55:25Z</time>
      </trkpt>
      <trkpt lat="44.55435" lon="1.77397">
        <ele>163</ele>
        <time>2017-09-20T14:55:30Z</time>
      </trkpt>
      <trkpt lat="44.55439" lon="1.77398">
        <ele>163</ele>
        <time>2017-09-20T14:55:33Z</time>
      </trkpt>
      <trkpt lat="44.55442" lon="1.77394">
        <ele>163</ele>
        <time>2017-09-20T14:55:36Z</time>
      </trkpt>
      <trkpt lat="44.55446" lon="1.77395">
        <ele>163</ele>
        <time>2017-09-20T14:55:39Z</time>
      </trkpt>
      <trkpt lat="44.55455" lon="1.77391">
        <ele>162</ele>
        <time>2017-09-20T14:55:46Z</time>
      </trkpt>
      <trkpt lat="44.55458" lon="1.77387">
        <ele>162</ele>
        <time>2017-09-20T14:55:49Z</time>
      </trkpt>
      <trkpt lat="44.55458" lon="1.77381">
        <ele>162</ele>
        <time>2017-09-20T14:55:54Z</time>
      </trkpt>
      <trkpt lat="44.55452" lon="1.77381">
        <ele>161</ele>
        <time>2017-09-20T14:56:00Z</time>
      </trkpt>
      <trkpt lat="44.55445" lon="1.77385">
        <ele>162</ele>
        <time>2017-09-20T14:56:06Z</time>
      </trkpt>
      <trkpt lat="44.55442" lon="1.77388">
        <ele>162</ele>
        <time>2017-09-20T14:56:10Z</time>
      </trkpt>
      <trkpt lat="44.55432" lon="1.77393">
        <ele>162</ele>
        <time>2017-09-20T14:56:19Z</time>
      </trkpt>
      <trkpt lat="44.5543" lon="1.77393">
        <ele>163</ele>
        <time>2017-09-20T14:56:21Z</time>
      </trkpt>
      <trkpt lat="44.55422" lon="1.77394">
        <ele>163</ele>
        <time>2017-09-20T14:56:27Z</time>
      </trkpt>
      <trkpt lat="44.5542" lon="1.77395">
        <ele>163</ele>
        <time>2017-09-20T14:56:29Z</time>
      </trkpt>
      <trkpt lat="44.55409" lon="1.77398">
        <ele>164</ele>
        <time>2017-09-20T14:56:37Z</time>
      </trkpt>
      <trkpt lat="44.55405" lon="1.77397">
        <ele>164</ele>
        <time>2017-09-20T14:56:40Z</time>
      </trkpt>
      <trkpt lat="44.55401" lon="1.77397">
        <ele>164</ele>
        <time>2017-09-20T14:56:43Z</time>
      </trkpt>
      <trkpt lat="44.55399" lon="1.77395">
        <ele>164</ele>
        <time>2017-09-20T14:56:53Z</time>
      </trkpt>
      <trkpt lat="44.55402" lon="1.77393">
        <ele>164</ele>
        <time>2017-09-20T14:57:15Z</time>
      </trkpt>
      <trkpt lat="44.55411" lon="1.77388">
        <ele>163</ele>
        <time>2017-09-21T07:43:50Z</time>
      </trkpt>
      <trkpt lat="44.55404" lon="1.7739">
        <ele>163</ele>
        <time>2017-09-21T07:43:52Z</time>
      </trkpt>
      <trkpt lat="44.55416" lon="1.7741">
        <ele>165</ele>
        <time>2017-09-21T07:43:53Z</time>
      </trkpt>
      <trkpt lat="44.55421" lon="1.77402">
        <ele>164</ele>
        <time>2017-09-21T07:44:47Z</time>
      </trkpt>
      <trkpt lat="44.55432" lon="1.77398">
        <ele>163</ele>
        <time>2017-09-21T07:44:56Z</time>
      </trkpt>
      <trkpt lat="44.55436" lon="1.77395">
        <ele>163</ele>
        <time>2017-09-21T07:45:02Z</time>
      </trkpt>
      <trkpt lat="44.55444" lon="1.77387">
        <ele>162</ele>
        <time>2017-09-21T07:45:14Z</time>
      </trkpt>
      <trkpt lat="44.55449" lon="1.7739">
        <ele>162</ele>
        <time>2017-09-21T07:45:21Z</time>
      </trkpt>
      <trkpt lat="44.55447" lon="1.77396">
        <ele>163</ele>
        <time>2017-09-21T07:45:31Z</time>
      </trkpt>
      <trkpt lat="44.55443" lon="1.77396">
        <ele>163</ele>
        <time>2017-09-21T07:45:42Z</time>
      </trkpt>
      <trkpt lat="44.55439" lon="1.77399">
        <ele>163</ele>
        <time>2017-09-21T07:45:47Z</time>
      </trkpt>
      <trkpt lat="44.55434" lon="1.77402">
        <ele>163</ele>
        <time>2017-09-21T07:45:53Z</time>
      </trkpt>
      <trkpt lat="44.55429" lon="1.77406">
        <ele>164</ele>
        <time>2017-09-21T07:45:58Z</time>
      </trkpt>
      <trkpt lat="44.55414" lon="1.77411">
        <ele>165</ele>
        <time>2017-09-21T07:46:10Z</time>
      </trkpt>
      <trkpt lat="44.55398" lon="1.7742">
        <ele>180</ele>
        <time>2017-09-21T07:46:22Z</time>
      </trkpt>
      <trkpt lat="44.55392" lon="1.77421">
        <ele>182</ele>
        <time>2017-09-21T07:46:27Z</time>
      </trkpt>
      <trkpt lat="44.55388" lon="1.77426">
        <ele>184</ele>
        <time>2017-09-21T07:46:30Z</time>
      </trkpt>
      <trkpt lat="44.55353" lon="1.77423">
        <ele>184</ele>
        <time>2017-09-21T07:46:59Z</time>
      </trkpt>
      <trkpt lat="44.55342" lon="1.7742">
        <ele>180</ele>
        <time>2017-09-21T07:47:08Z</time>
      </trkpt>
      <trkpt lat="44.55338" lon="1.77414">
        <ele>172</ele>
        <time>2017-09-21T07:47:11Z</time>
      </trkpt>
      <trkpt lat="44.55333" lon="1.77413">
        <ele>175</ele>
        <time>2017-09-21T07:47:15Z</time>
      </trkpt>
      <trkpt lat="44.55328" lon="1.7741">
        <ele>175</ele>
        <time>2017-09-21T07:47:18Z</time>
      </trkpt>
      <trkpt lat="44.55325" lon="1.77405">
        <ele>176</ele>
        <time>2017-09-21T07:47:22Z</time>
      </trkpt>
      <trkpt lat="44.55296" lon="1.77382">
        <ele>178</ele>
        <time>2017-09-21T07:47:52Z</time>
      </trkpt>
      <trkpt lat="44.55262" lon="1.77349">
        <ele>171</ele>
        <time>2017-09-21T07:48:25Z</time>
      </trkpt>
      <trkpt lat="44.55257" lon="1.77345">
        <ele>169</ele>
        <time>2017-09-21T07:48:30Z</time>
      </trkpt>
      <trkpt lat="44.55225" lon="1.77318">
        <ele>172</ele>
        <time>2017-09-21T07:48:58Z</time>
      </trkpt>
      <trkpt lat="44.55196" lon="1.77285">
        <ele>174</ele>
        <time>2017-09-21T07:49:25Z</time>
      </trkpt>
      <trkpt lat="44.55192" lon="1.77282">
        <ele>173</ele>
        <time>2017-09-21T07:49:29Z</time>
      </trkpt>
      <trkpt lat="44.55175" lon="1.77266">
        <ele>169</ele>
        <time>2017-09-21T07:49:47Z</time>
      </trkpt>
      <trkpt lat="44.5517" lon="1.77263">
        <ele>167</ele>
        <time>2017-09-21T07:49:51Z</time>
      </trkpt>
      <trkpt lat="44.5514" lon="1.77226">
        <ele>173</ele>
        <time>2017-09-21T07:50:22Z</time>
      </trkpt>
      <trkpt lat="44.55135" lon="1.77222">
        <ele>174</ele>
        <time>2017-09-21T07:50:26Z</time>
      </trkpt>
      <trkpt lat="44.55131" lon="1.77214">
        <ele>174</ele>
        <time>2017-09-21T07:50:32Z</time>
      </trkpt>
      <trkpt lat="44.55126" lon="1.77208">
        <ele>174</ele>
        <time>2017-09-21T07:50:38Z</time>
      </trkpt>
      <trkpt lat="44.55111" lon="1.77187">
        <ele>172</ele>
        <time>2017-09-21T07:50:55Z</time>
      </trkpt>
      <trkpt lat="44.55101" lon="1.77171">
        <ele>170</ele>
        <time>2017-09-21T07:51:08Z</time>
      </trkpt>
      <trkpt lat="44.55095" lon="1.77165">
        <ele>162</ele>
        <time>2017-09-21T07:51:12Z</time>
      </trkpt>
      <trkpt lat="44.55094" lon="1.77156">
        <ele>162</ele>
        <time>2017-09-21T07:51:15Z</time>
      </trkpt>
      <trkpt lat="44.55084" lon="1.77141">
        <ele>160</ele>
        <time>2017-09-21T07:51:25Z</time>
      </trkpt>
      <trkpt lat="44.55083" lon="1.77133">
        <ele>177</ele>
        <time>2017-09-21T07:51:29Z</time>
      </trkpt>
      <trkpt lat="44.55083" lon="1.77125">
        <ele>177</ele>
        <time>2017-09-21T07:51:35Z</time>
      </trkpt>
      <trkpt lat="44.55085" lon="1.77118">
        <ele>158</ele>
        <time>2017-09-21T07:51:39Z</time>
      </trkpt>
      <trkpt lat="44.55114" lon="1.77073">
        <ele>155</ele>
        <time>2017-09-21T07:52:11Z</time>
      </trkpt>
      <trkpt lat="44.55118" lon="1.77071">
        <ele>155</ele>
        <time>2017-09-21T07:52:14Z</time>
      </trkpt>
      <trkpt lat="44.55122" lon="1.7707">
        <ele>155</ele>
        <time>2017-09-21T07:52:18Z</time>
      </trkpt>
      <trkpt lat="44.55125" lon="1.77071">
        <ele>155</ele>
        <time>2017-09-21T07:52:21Z</time>
      </trkpt>
      <trkpt lat="44.5513" lon="1.77079">
        <ele>155</ele>
        <time>2017-09-21T07:52:28Z</time>
      </trkpt>
      <trkpt lat="44.55135" lon="1.7708">
        <ele>155</ele>
        <time>2017-09-21T07:53:24Z</time>
      </trkpt>
      <trkpt lat="44.5514" lon="1.77089">
        <ele>156</ele>
        <time>2017-09-21T07:53:40Z</time>
      </trkpt>
      <trkpt lat="44.55145" lon="1.77093">
        <ele>156</ele>
        <time>2017-09-21T07:53:45Z</time>
      </trkpt>
      <trkpt lat="44.55152" lon="1.77101">
        <ele>155</ele>
        <time>2017-09-21T07:53:53Z</time>
      </trkpt>
      <trkpt lat="44.55156" lon="1.77105">
        <ele>155</ele>
        <time>2017-09-21T07:53:58Z</time>
      </trkpt>
      <trkpt lat="44.5516" lon="1.7711">
        <ele>156</ele>
        <time>2017-09-21T07:54:03Z</time>
      </trkpt>
      <trkpt lat="44.55163" lon="1.77114">
        <ele>156</ele>
        <time>2017-09-21T07:54:07Z</time>
      </trkpt>
      <trkpt lat="44.55167" lon="1.77118">
        <ele>154</ele>
        <time>2017-09-21T07:54:13Z</time>
      </trkpt>
      <trkpt lat="44.55185" lon="1.77137">
        <ele>154</ele>
        <time>2017-09-21T07:54:32Z</time>
      </trkpt>
      <trkpt lat="44.55205" lon="1.77159">
        <ele>154</ele>
        <time>2017-09-21T07:54:54Z</time>
      </trkpt>
      <trkpt lat="44.55212" lon="1.77167">
        <ele>155</ele>
        <time>2017-09-21T07:55:03Z</time>
      </trkpt>
      <trkpt lat="44.55215" lon="1.77171">
        <ele>155</ele>
        <time>2017-09-21T07:55:08Z</time>
      </trkpt>
      <trkpt lat="44.55218" lon="1.77174">
        <ele>155</ele>
        <time>2017-09-21T07:55:13Z</time>
      </trkpt>
      <trkpt lat="44.55234" lon="1.77185">
        <ele>155</ele>
        <time>2017-09-21T07:55:26Z</time>
      </trkpt>
      <trkpt lat="44.5525" lon="1.77191">
        <ele>155</ele>
        <time>2017-09-21T07:55:39Z</time>
      </trkpt>
      <trkpt lat="44.55254" lon="1.77191">
        <ele>155</ele>
        <time>2017-09-21T07:55:42Z</time>
      </trkpt>
      <trkpt lat="44.55258" lon="1.77191">
        <ele>155</ele>
        <time>2017-09-21T07:55:44Z</time>
      </trkpt>
      <trkpt lat="44.55262" lon="1.77188">
        <ele>156</ele>
        <time>2017-09-21T07:55:48Z</time>
      </trkpt>
      <trkpt lat="44.55266" lon="1.77184">
        <ele>156</ele>
        <time>2017-09-21T07:55:52Z</time>
      </trkpt>
      <trkpt lat="44.55269" lon="1.77177">
        <ele>156</ele>
        <time>2017-09-21T07:55:56Z</time>
      </trkpt>
      <trkpt lat="44.55273" lon="1.7717">
        <ele>156</ele>
        <time>2017-09-21T07:56:02Z</time>
      </trkpt>
      <trkpt lat="44.55288" lon="1.77127">
        <ele>158</ele>
        <time>2017-09-21T07:56:32Z</time>
      </trkpt>
      <trkpt lat="44.55291" lon="1.77118">
        <ele>159</ele>
        <time>2017-09-21T07:56:38Z</time>
      </trkpt>
      <trkpt lat="44.55297" lon="1.77113">
        <ele>159</ele>
        <time>2017-09-21T07:56:47Z</time>
      </trkpt>
      <trkpt lat="44.55304" lon="1.77112">
        <ele>159</ele>
        <time>2017-09-21T07:56:53Z</time>
      </trkpt>
      <trkpt lat="44.55311" lon="1.77111">
        <ele>159</ele>
        <time>2017-09-21T07:56:57Z</time>
      </trkpt>
      <trkpt lat="44.55322" lon="1.77115">
        <ele>159</ele>
        <time>2017-09-21T07:57:07Z</time>
      </trkpt>
      <trkpt lat="44.55335" lon="1.77117">
        <ele>160</ele>
        <time>2017-09-21T07:57:17Z</time>
      </trkpt>
      <trkpt lat="44.55342" lon="1.77117">
        <ele>160</ele>
        <time>2017-09-21T07:57:22Z</time>
      </trkpt>
      <trkpt lat="44.55369" lon="1.77122">
        <ele>160</ele>
        <time>2017-09-21T07:57:42Z</time>
      </trkpt>
      <trkpt lat="44.55373" lon="1.77126">
        <ele>160</ele>
        <time>2017-09-21T07:57:47Z</time>
      </trkpt>
      <trkpt lat="44.5537" lon="1.77129">
        <ele>159</ele>
        <time>2017-09-21T07:58:21Z</time>
      </trkpt>
      <trkpt lat="44.55367" lon="1.77135">
        <ele>159</ele>
        <time>2017-09-21T07:58:27Z</time>
      </trkpt>
      <trkpt lat="44.55366" lon="1.77144">
        <ele>159</ele>
        <time>2017-09-21T07:58:33Z</time>
      </trkpt>
      <trkpt lat="44.55367" lon="1.77152">
        <ele>159</ele>
        <time>2017-09-21T07:58:43Z</time>
      </trkpt>
      <trkpt lat="44.5537" lon="1.77158">
        <ele>159</ele>
        <time>2017-09-21T07:58:50Z</time>
      </trkpt>
      <trkpt lat="44.55371" lon="1.77164">
        <ele>159</ele>
        <time>2017-09-21T07:58:53Z</time>
      </trkpt>
      <trkpt lat="44.55372" lon="1.77172">
        <ele>156</ele>
        <time>2017-09-21T08:00:23Z</time>
      </trkpt>
      <trkpt lat="44.55377" lon="1.77173">
        <ele>156</ele>
        <time>2017-09-21T08:01:41Z</time>
      </trkpt>
      <trkpt lat="44.55377" lon="1.77173">
        <ele>156</ele>
        <time>2017-09-21T08:01:41Z</time>
      </trkpt>
      <trkpt lat="44.55377" lon="1.77181">
        <ele>156</ele>
        <time>2017-09-21T08:01:47Z</time>
      </trkpt>
      <trkpt lat="44.55376" lon="1.77189">
        <ele>156</ele>
        <time>2017-09-21T08:01:52Z</time>
      </trkpt>
      <trkpt lat="44.55378" lon="1.77198">
        <ele>156</ele>
        <time>2017-09-21T08:01:58Z</time>
      </trkpt>
      <trkpt lat="44.55381" lon="1.77206">
        <ele>156</ele>
        <time>2017-09-21T08:02:06Z</time>
      </trkpt>
      <trkpt lat="44.5538" lon="1.77215">
        <ele>156</ele>
        <time>2017-09-21T08:02:14Z</time>
      </trkpt>
      <trkpt lat="44.55385" lon="1.7722">
        <ele>155</ele>
        <time>2017-09-21T08:03:56Z</time>
      </trkpt>
      <trkpt lat="44.55385" lon="1.7721">
        <ele>155</ele>
        <time>2017-09-21T08:04:02Z</time>
      </trkpt>
      <trkpt lat="44.55383" lon="1.77193">
        <ele>156</ele>
        <time>2017-09-21T08:04:08Z</time>
      </trkpt>
      <trkpt lat="44.55382" lon="1.77185">
        <ele>156</ele>
        <time>2017-09-21T08:04:12Z</time>
      </trkpt>
      <trkpt lat="44.55376" lon="1.77177">
        <ele>156</ele>
        <time>2017-09-21T08:04:21Z</time>
      </trkpt>
      <trkpt lat="44.55374" lon="1.7717">
        <ele>156</ele>
        <time>2017-09-21T08:04:34Z</time>
      </trkpt>
      <trkpt lat="44.55378" lon="1.77171">
        <ele>156</ele>
        <time>2017-09-21T08:05:28Z</time>
      </trkpt>
      <trkpt lat="44.55387" lon="1.77162">
        <ele>158</ele>
        <time>2017-09-21T08:05:42Z</time>
      </trkpt>
      <trkpt lat="44.5539" lon="1.77164">
        <ele>158</ele>
        <time>2017-09-21T08:08:03Z</time>
      </trkpt>
      <trkpt lat="44.55389" lon="1.77169">
        <ele>156</ele>
        <time>2017-09-21T08:11:36Z</time>
      </trkpt>
      <trkpt lat="44.55385" lon="1.7717">
        <ele>156</ele>
        <time>2017-09-21T08:11:39Z</time>
      </trkpt>
      <trkpt lat="44.55381" lon="1.77171">
        <ele>156</ele>
        <time>2017-09-21T08:11:42Z</time>
      </trkpt>
      <trkpt lat="44.55377" lon="1.77172">
        <ele>156</ele>
        <time>2017-09-21T08:11:46Z</time>
      </trkpt>
      <trkpt lat="44.55371" lon="1.77166">
        <ele>159</ele>
        <time>2017-09-21T08:11:55Z</time>
      </trkpt>
      <trkpt lat="44.55374" lon="1.77164">
        <ele>159</ele>
        <time>2017-09-21T08:12:10Z</time>
      </trkpt>
      <trkpt lat="44.55376" lon="1.77164">
        <ele>159</ele>
        <time>2017-09-21T08:14:51Z</time>
      </trkpt>
      <trkpt lat="44.55361" lon="1.77173">
        <ele>157</ele>
        <time>2017-09-21T08:16:03Z</time>
      </trkpt>
      <trkpt lat="44.55366" lon="1.77169">
        <ele>157</ele>
        <time>2017-09-21T08:16:07Z</time>
      </trkpt>
      <trkpt lat="44.55369" lon="1.77168">
        <ele>156</ele>
        <time>2017-09-21T08:16:18Z</time>
      </trkpt>
      <trkpt lat="44.55369" lon="1.77162">
        <ele>159</ele>
        <time>2017-09-21T08:17:16Z</time>
      </trkpt>
      <trkpt lat="44.55373" lon="1.7716">
        <ele>159</ele>
        <time>2017-09-21T08:17:55Z</time>
      </trkpt>
      <trkpt lat="44.5537" lon="1.77164">
        <ele>159</ele>
        <time>2017-09-21T08:19:10Z</time>
      </trkpt>
      <trkpt lat="44.55368" lon="1.77159">
        <ele>159</ele>
        <time>2017-09-21T08:19:19Z</time>
      </trkpt>
      <trkpt lat="44.55369" lon="1.77146">
        <ele>159</ele>
        <time>2017-09-21T08:19:30Z</time>
      </trkpt>
      <trkpt lat="44.55369" lon="1.77138">
        <ele>159</ele>
        <time>2017-09-21T08:19:35Z</time>
      </trkpt>
      <trkpt lat="44.55367" lon="1.77133">
        <ele>159</ele>
        <time>2017-09-21T08:19:38Z</time>
      </trkpt>
      <trkpt lat="44.55366" lon="1.77129">
        <ele>160</ele>
        <time>2017-09-21T08:19:41Z</time>
      </trkpt>
      <trkpt lat="44.55364" lon="1.77123">
        <ele>160</ele>
        <time>2017-09-21T08:19:46Z</time>
      </trkpt>
      <trkpt lat="44.55367" lon="1.77102">
        <ele>160</ele>
        <time>2017-09-21T08:19:59Z</time>
      </trkpt>
      <trkpt lat="44.55367" lon="1.77094">
        <ele>160</ele>
        <time>2017-09-21T08:20:03Z</time>
      </trkpt>
      <trkpt lat="44.55366" lon="1.7709">
        <ele>160</ele>
        <time>2017-09-21T08:20:08Z</time>
      </trkpt>
      <trkpt lat="44.55358" lon="1.77085">
        <ele>161</ele>
        <time>2017-09-21T08:20:17Z</time>
      </trkpt>
      <trkpt lat="44.55353" lon="1.7708">
        <ele>164</ele>
        <time>2017-09-21T08:20:21Z</time>
      </trkpt>
      <trkpt lat="44.55351" lon="1.77078">
        <ele>164</ele>
        <time>2017-09-21T08:20:23Z</time>
      </trkpt>
      <trkpt lat="44.5535" lon="1.77075">
        <ele>164</ele>
        <time>2017-09-21T08:20:25Z</time>
      </trkpt>
      <trkpt lat="44.5535" lon="1.77072">
        <ele>164</ele>
        <time>2017-09-21T08:20:28Z</time>
      </trkpt>
      <trkpt lat="44.55351" lon="1.77069">
        <ele>164</ele>
        <time>2017-09-21T08:20:30Z</time>
      </trkpt>
      <trkpt lat="44.55353" lon="1.77068">
        <ele>164</ele>
        <time>2017-09-21T08:20:33Z</time>
      </trkpt>
      <trkpt lat="44.55356" lon="1.77067">
        <ele>164</ele>
        <time>2017-09-21T08:20:36Z</time>
      </trkpt>
      <trkpt lat="44.55358" lon="1.77065">
        <ele>165</ele>
        <time>2017-09-21T08:20:38Z</time>
      </trkpt>
      <trkpt lat="44.5536" lon="1.77062">
        <ele>165</ele>
        <time>2017-09-21T08:20:40Z</time>
      </trkpt>
      <trkpt lat="44.5536" lon="1.77041">
        <ele>166</ele>
        <time>2017-09-21T08:20:55Z</time>
      </trkpt>
      <trkpt lat="44.55359" lon="1.77037">
        <ele>166</ele>
        <time>2017-09-21T08:20:59Z</time>
      </trkpt>
      <trkpt lat="44.55343" lon="1.77033">
        <ele>166</ele>
        <time>2017-09-21T08:21:13Z</time>
      </trkpt>
      <trkpt lat="44.55339" lon="1.77031">
        <ele>166</ele>
        <time>2017-09-21T08:21:17Z</time>
      </trkpt>
      <trkpt lat="44.55332" lon="1.77025">
        <ele>164</ele>
        <time>2017-09-21T08:21:25Z</time>
      </trkpt>
      <trkpt lat="44.55329" lon="1.77023">
        <ele>164</ele>
        <time>2017-09-21T08:21:28Z</time>
      </trkpt>
      <trkpt lat="44.55332" lon="1.77019">
        <ele>164</ele>
        <time>2017-09-21T08:21:34Z</time>
      </trkpt>
      <trkpt lat="44.5534" lon="1.76998">
        <ele>168</ele>
        <time>2017-09-21T08:21:49Z</time>
      </trkpt>
      <trkpt lat="44.55345" lon="1.76984">
        <ele>169</ele>
        <time>2017-09-21T08:21:59Z</time>
      </trkpt>
      <trkpt lat="44.55349" lon="1.76979">
        <ele>169</ele>
        <time>2017-09-21T08:22:04Z</time>
      </trkpt>
      <trkpt lat="44.55351" lon="1.76953">
        <ele>170</ele>
        <time>2017-09-21T08:22:18Z</time>
      </trkpt>
      <trkpt lat="44.55352" lon="1.76938">
        <ele>170</ele>
        <time>2017-09-21T08:22:27Z</time>
      </trkpt>
      <trkpt lat="44.55353" lon="1.76933">
        <ele>170</ele>
        <time>2017-09-21T08:22:30Z</time>
      </trkpt>
      <trkpt lat="44.55354" lon="1.76914">
        <ele>172</ele>
        <time>2017-09-21T08:22:41Z</time>
      </trkpt>
      <trkpt lat="44.55355" lon="1.76908">
        <ele>172</ele>
        <time>2017-09-21T08:22:45Z</time>
      </trkpt>
      <trkpt lat="44.55355" lon="1.76888">
        <ele>173</ele>
        <time>2017-09-21T08:22:57Z</time>
      </trkpt>
      <trkpt lat="44.55357" lon="1.76885">
        <ele>173</ele>
        <time>2017-09-21T08:23:00Z</time>
      </trkpt>
      <trkpt lat="44.55357" lon="1.76874">
        <ele>174</ele>
        <time>2017-09-21T08:23:07Z</time>
      </trkpt>
      <trkpt lat="44.55357" lon="1.7687">
        <ele>174</ele>
        <time>2017-09-21T08:23:10Z</time>
      </trkpt>
      <trkpt lat="44.55357" lon="1.76865">
        <ele>174</ele>
        <time>2017-09-21T08:23:13Z</time>
      </trkpt>
      <trkpt lat="44.55358" lon="1.76859">
        <ele>174</ele>
        <time>2017-09-21T08:23:16Z</time>
      </trkpt>
      <trkpt lat="44.55358" lon="1.7685">
        <ele>174</ele>
        <time>2017-09-21T08:23:21Z</time>
      </trkpt>
      <trkpt lat="44.55358" lon="1.76845">
        <ele>174</ele>
        <time>2017-09-21T08:23:24Z</time>
      </trkpt>
      <trkpt lat="44.55359" lon="1.7683">
        <ele>179</ele>
        <time>2017-09-21T08:23:33Z</time>
      </trkpt>
      <trkpt lat="44.55358" lon="1.76824">
        <ele>179</ele>
        <time>2017-09-21T08:23:37Z</time>
      </trkpt>
      <trkpt lat="44.55357" lon="1.76818">
        <ele>180</ele>
        <time>2017-09-21T08:23:42Z</time>
      </trkpt>
      <trkpt lat="44.55354" lon="1.76813">
        <ele>180</ele>
        <time>2017-09-21T08:23:49Z</time>
      </trkpt>
      <trkpt lat="44.55348" lon="1.76796">
        <ele>181</ele>
        <time>2017-09-21T08:24:04Z</time>
      </trkpt>
      <trkpt lat="44.55346" lon="1.76792">
        <ele>181</ele>
        <time>2017-09-21T08:24:08Z</time>
      </trkpt>
      <trkpt lat="44.55344" lon="1.76781">
        <ele>182</ele>
        <time>2017-09-21T08:24:18Z</time>
      </trkpt>
      <trkpt lat="44.55342" lon="1.76775">
        <ele>182</ele>
        <time>2017-09-21T08:24:22Z</time>
      </trkpt>
      <trkpt lat="44.55341" lon="1.7677">
        <ele>183</ele>
        <time>2017-09-21T08:24:26Z</time>
      </trkpt>
      <trkpt lat="44.55338" lon="1.76764">
        <ele>183</ele>
        <time>2017-09-21T08:24:33Z</time>
      </trkpt>
      <trkpt lat="44.55336" lon="1.76759">
        <ele>183</ele>
        <time>2017-09-21T08:24:37Z</time>
      </trkpt>
      <trkpt lat="44.55334" lon="1.76753">
        <ele>184</ele>
        <time>2017-09-21T08:24:43Z</time>
      </trkpt>
      <trkpt lat="44.55329" lon="1.76745">
        <ele>184</ele>
        <time>2017-09-21T08:24:50Z</time>
      </trkpt>
      <trkpt lat="44.55326" lon="1.76736">
        <ele>183</ele>
        <time>2017-09-21T08:24:56Z</time>
      </trkpt>
      <trkpt lat="44.55324" lon="1.76731">
        <ele>183</ele>
        <time>2017-09-21T08:24:59Z</time>
      </trkpt>
      <trkpt lat="44.55309" lon="1.76689">
        <ele>185</ele>
        <time>2017-09-21T08:25:29Z</time>
      </trkpt>
      <trkpt lat="44.55307" lon="1.7666">
        <ele>192</ele>
        <time>2017-09-21T08:25:51Z</time>
      </trkpt>
      <trkpt lat="44.55307" lon="1.76655">
        <ele>192</ele>
        <time>2017-09-21T08:25:54Z</time>
      </trkpt>
      <trkpt lat="44.55311" lon="1.76642">
        <ele>193</ele>
        <time>2017-09-21T08:26:05Z</time>
      </trkpt>
      <trkpt lat="44.55313" lon="1.76631">
        <ele>194</ele>
        <time>2017-09-21T08:26:17Z</time>
      </trkpt>
      <trkpt lat="44.55314" lon="1.76612">
        <ele>196</ele>
        <time>2017-09-21T08:26:35Z</time>
      </trkpt>
      <trkpt lat="44.55313" lon="1.76607">
        <ele>196</ele>
        <time>2017-09-21T08:26:41Z</time>
      </trkpt>
      <trkpt lat="44.55312" lon="1.766">
        <ele>197</ele>
        <time>2017-09-21T08:26:47Z</time>
      </trkpt>
      <trkpt lat="44.55312" lon="1.7659">
        <ele>199</ele>
        <time>2017-09-21T08:27:00Z</time>
      </trkpt>
      <trkpt lat="44.55312" lon="1.76583">
        <ele>205</ele>
        <time>2017-09-21T08:27:06Z</time>
      </trkpt>
      <trkpt lat="44.55312" lon="1.76578">
        <ele>205</ele>
        <time>2017-09-21T08:27:09Z</time>
      </trkpt>
      <trkpt lat="44.55312" lon="1.76573">
        <ele>205</ele>
        <time>2017-09-21T08:27:13Z</time>
      </trkpt>
      <trkpt lat="44.5531" lon="1.76562">
        <ele>205</ele>
        <time>2017-09-21T08:27:21Z</time>
      </trkpt>
      <trkpt lat="44.55309" lon="1.76557">
        <ele>205</ele>
        <time>2017-09-21T08:27:25Z</time>
      </trkpt>
      <trkpt lat="44.5531" lon="1.76553">
        <ele>206</ele>
        <time>2017-09-21T08:27:29Z</time>
      </trkpt>
      <trkpt lat="44.55309" lon="1.76549">
        <ele>206</ele>
        <time>2017-09-21T08:27:32Z</time>
      </trkpt>
      <trkpt lat="44.55308" lon="1.76539">
        <ele>207</ele>
        <time>2017-09-21T08:27:39Z</time>
      </trkpt>
      <trkpt lat="44.55307" lon="1.76534">
        <ele>207</ele>
        <time>2017-09-21T08:27:42Z</time>
      </trkpt>
      <trkpt lat="44.55306" lon="1.7653">
        <ele>207</ele>
        <time>2017-09-21T08:27:45Z</time>
      </trkpt>
      <trkpt lat="44.55303" lon="1.76509">
        <ele>209</ele>
        <time>2017-09-21T08:27:57Z</time>
      </trkpt>
      <trkpt lat="44.55303" lon="1.76506">
        <ele>209</ele>
        <time>2017-09-21T08:27:59Z</time>
      </trkpt>
      <trkpt lat="44.55302" lon="1.76502">
        <ele>209</ele>
        <time>2017-09-21T08:28:02Z</time>
      </trkpt>
      <trkpt lat="44.55301" lon="1.76497">
        <ele>217</ele>
        <time>2017-09-21T08:28:05Z</time>
      </trkpt>
      <trkpt lat="44.55301" lon="1.76494">
        <ele>217</ele>
        <time>2017-09-21T08:28:08Z</time>
      </trkpt>
      <trkpt lat="44.55301" lon="1.76489">
        <ele>217</ele>
        <time>2017-09-21T08:28:12Z</time>
      </trkpt>
      <trkpt lat="44.553" lon="1.76483">
        <ele>217</ele>
        <time>2017-09-21T08:28:15Z</time>
      </trkpt>
      <trkpt lat="44.553" lon="1.76479">
        <ele>217</ele>
        <time>2017-09-21T08:28:18Z</time>
      </trkpt>
      <trkpt lat="44.55299" lon="1.7647">
        <ele>217</ele>
        <time>2017-09-21T08:28:24Z</time>
      </trkpt>
      <trkpt lat="44.55298" lon="1.76459">
        <ele>217</ele>
        <time>2017-09-21T08:28:33Z</time>
      </trkpt>
      <trkpt lat="44.55297" lon="1.76449">
        <ele>218</ele>
        <time>2017-09-21T08:28:39Z</time>
      </trkpt>
      <trkpt lat="44.55297" lon="1.7644">
        <ele>219</ele>
        <time>2017-09-21T08:28:46Z</time>
      </trkpt>
      <trkpt lat="44.55296" lon="1.76435">
        <ele>219</ele>
        <time>2017-09-21T08:28:49Z</time>
      </trkpt>
      <trkpt lat="44.55296" lon="1.76431">
        <ele>219</ele>
        <time>2017-09-21T08:28:52Z</time>
      </trkpt>
      <trkpt lat="44.55294" lon="1.76413">
        <ele>227</ele>
        <time>2017-09-21T08:29:06Z</time>
      </trkpt>
      <trkpt lat="44.55294" lon="1.76408">
        <ele>227</ele>
        <time>2017-09-21T08:29:09Z</time>
      </trkpt>
      <trkpt lat="44.55293" lon="1.76403">
        <ele>227</ele>
        <time>2017-09-21T08:29:12Z</time>
      </trkpt>
      <trkpt lat="44.55293" lon="1.76398">
        <ele>227</ele>
        <time>2017-09-21T08:29:16Z</time>
      </trkpt>
      <trkpt lat="44.55291" lon="1.76392">
        <ele>227</ele>
        <time>2017-09-21T08:29:20Z</time>
      </trkpt>
      <trkpt lat="44.55289" lon="1.76386">
        <ele>227</ele>
        <time>2017-09-21T08:29:23Z</time>
      </trkpt>
      <trkpt lat="44.55288" lon="1.76377">
        <ele>228</ele>
        <time>2017-09-21T08:29:30Z</time>
      </trkpt>
      <trkpt lat="44.55288" lon="1.76373">
        <ele>228</ele>
        <time>2017-09-21T08:29:33Z</time>
      </trkpt>
      <trkpt lat="44.55287" lon="1.76368">
        <ele>228</ele>
        <time>2017-09-21T08:29:37Z</time>
      </trkpt>
      <trkpt lat="44.55287" lon="1.76362">
        <ele>229</ele>
        <time>2017-09-21T08:29:42Z</time>
      </trkpt>
      <trkpt lat="44.55285" lon="1.76352">
        <ele>228</ele>
        <time>2017-09-21T08:29:51Z</time>
      </trkpt>
      <trkpt lat="44.55284" lon="1.76348">
        <ele>228</ele>
        <time>2017-09-21T08:29:55Z</time>
      </trkpt>
      <trkpt lat="44.55284" lon="1.76344">
        <ele>229</ele>
        <time>2017-09-21T08:29:58Z</time>
      </trkpt>
      <trkpt lat="44.55284" lon="1.7634">
        <ele>229</ele>
        <time>2017-09-21T08:30:02Z</time>
      </trkpt>
      <trkpt lat="44.55282" lon="1.76331">
        <ele>235</ele>
        <time>2017-09-21T08:30:08Z</time>
      </trkpt>
      <trkpt lat="44.5528" lon="1.76326">
        <ele>235</ele>
        <time>2017-09-21T08:30:12Z</time>
      </trkpt>
      <trkpt lat="44.55279" lon="1.76321">
        <ele>235</ele>
        <time>2017-09-21T08:30:18Z</time>
      </trkpt>
      <trkpt lat="44.55278" lon="1.76317">
        <ele>235</ele>
        <time>2017-09-21T08:30:21Z</time>
      </trkpt>
      <trkpt lat="44.55277" lon="1.76313">
        <ele>235</ele>
        <time>2017-09-21T08:30:25Z</time>
      </trkpt>
      <trkpt lat="44.55276" lon="1.76308">
        <ele>236</ele>
        <time>2017-09-21T08:30:30Z</time>
      </trkpt>
      <trkpt lat="44.55275" lon="1.76304">
        <ele>236</ele>
        <time>2017-09-21T08:30:33Z</time>
      </trkpt>
      <trkpt lat="44.55275" lon="1.763">
        <ele>236</ele>
        <time>2017-09-21T08:30:37Z</time>
      </trkpt>
      <trkpt lat="44.55274" lon="1.76294">
        <ele>237</ele>
        <time>2017-09-21T08:30:42Z</time>
      </trkpt>
      <trkpt lat="44.55272" lon="1.7629">
        <ele>237</ele>
        <time>2017-09-21T08:30:45Z</time>
      </trkpt>
      <trkpt lat="44.55271" lon="1.76285">
        <ele>237</ele>
        <time>2017-09-21T08:30:48Z</time>
      </trkpt>
      <trkpt lat="44.55269" lon="1.76279">
        <ele>237</ele>
        <time>2017-09-21T08:30:52Z</time>
      </trkpt>
      <trkpt lat="44.55269" lon="1.76273">
        <ele>237</ele>
        <time>2017-09-21T08:30:57Z</time>
      </trkpt>
      <trkpt lat="44.55267" lon="1.76267">
        <ele>237</ele>
        <time>2017-09-21T08:31:01Z</time>
      </trkpt>
      <trkpt lat="44.55266" lon="1.76262">
        <ele>237</ele>
        <time>2017-09-21T08:31:05Z</time>
      </trkpt>
      <trkpt lat="44.55264" lon="1.76257">
        <ele>236</ele>
        <time>2017-09-21T08:31:09Z</time>
      </trkpt>
      <trkpt lat="44.55263" lon="1.76251">
        <ele>236</ele>
        <time>2017-09-21T08:31:14Z</time>
      </trkpt>
      <trkpt lat="44.5526" lon="1.76241">
        <ele>241</ele>
        <time>2017-09-21T08:31:21Z</time>
      </trkpt>
      <trkpt lat="44.55258" lon="1.76231">
        <ele>243</ele>
        <time>2017-09-21T08:31:27Z</time>
      </trkpt>
      <trkpt lat="44.55256" lon="1.76227">
        <ele>244</ele>
        <time>2017-09-21T08:31:31Z</time>
      </trkpt>
      <trkpt lat="44.55253" lon="1.76219">
        <ele>245</ele>
        <time>2017-09-21T08:31:37Z</time>
      </trkpt>
      <trkpt lat="44.5525" lon="1.76211">
        <ele>246</ele>
        <time>2017-09-21T08:31:43Z</time>
      </trkpt>
      <trkpt lat="44.55248" lon="1.76202">
        <ele>228</ele>
        <time>2017-09-21T08:31:50Z</time>
      </trkpt>
      <trkpt lat="44.55246" lon="1.76197">
        <ele>229</ele>
        <time>2017-09-21T08:31:54Z</time>
      </trkpt>
      <trkpt lat="44.55244" lon="1.7619">
        <ele>231</ele>
        <time>2017-09-21T08:32:00Z</time>
      </trkpt>
      <trkpt lat="44.55238" lon="1.76176">
        <ele>234</ele>
        <time>2017-09-21T08:32:09Z</time>
      </trkpt>
      <trkpt lat="44.55236" lon="1.76171">
        <ele>235</ele>
        <time>2017-09-21T08:32:12Z</time>
      </trkpt>
      <trkpt lat="44.55235" lon="1.76167">
        <ele>235</ele>
        <time>2017-09-21T08:32:15Z</time>
      </trkpt>
      <trkpt lat="44.55236" lon="1.76163">
        <ele>240</ele>
        <time>2017-09-21T08:32:18Z</time>
      </trkpt>
      <trkpt lat="44.5524" lon="1.76162">
        <ele>241</ele>
        <time>2017-09-21T08:32:24Z</time>
      </trkpt>
      <trkpt lat="44.55242" lon="1.76164">
        <ele>243</ele>
        <time>2017-09-21T08:32:27Z</time>
      </trkpt>
      <trkpt lat="44.55244" lon="1.76167">
        <ele>241</ele>
        <time>2017-09-21T08:32:30Z</time>
      </trkpt>
      <trkpt lat="44.5527" lon="1.76199">
        <ele>249</ele>
        <time>2017-09-21T08:33:01Z</time>
      </trkpt>
      <trkpt lat="44.55276" lon="1.76211">
        <ele>248</ele>
        <time>2017-09-21T08:33:13Z</time>
      </trkpt>
      <trkpt lat="44.55277" lon="1.76212">
        <ele>248</ele>
        <time>2017-09-21T08:33:15Z</time>
      </trkpt>
      <trkpt lat="44.5528" lon="1.76212">
        <ele>249</ele>
        <time>2017-09-21T08:33:18Z</time>
      </trkpt>
      <trkpt lat="44.55278" lon="1.76207">
        <ele>249</ele>
        <time>2017-09-21T08:33:55Z</time>
      </trkpt>
      <trkpt lat="44.55273" lon="1.76194">
        <ele>249</ele>
        <time>2017-09-21T08:34:04Z</time>
      </trkpt>
      <trkpt lat="44.55272" lon="1.76192">
        <ele>249</ele>
        <time>2017-09-21T08:34:06Z</time>
      </trkpt>
      <trkpt lat="44.55266" lon="1.76178">
        <ele>249</ele>
        <time>2017-09-21T08:34:18Z</time>
      </trkpt>
      <trkpt lat="44.55252" lon="1.76146">
        <ele>253</ele>
        <time>2017-09-21T08:34:40Z</time>
      </trkpt>
      <trkpt lat="44.55235" lon="1.76114">
        <ele>239</ele>
        <time>2017-09-21T08:35:02Z</time>
      </trkpt>
      <trkpt lat="44.55233" lon="1.76108">
        <ele>240</ele>
        <time>2017-09-21T08:35:06Z</time>
      </trkpt>
      <trkpt lat="44.55232" lon="1.761">
        <ele>241</ele>
        <time>2017-09-21T08:35:11Z</time>
      </trkpt>
      <trkpt lat="44.55229" lon="1.76087">
        <ele>242</ele>
        <time>2017-09-21T08:35:19Z</time>
      </trkpt>
      <trkpt lat="44.5522" lon="1.76073">
        <ele>246</ele>
        <time>2017-09-21T08:35:28Z</time>
      </trkpt>
      <trkpt lat="44.55216" lon="1.76066">
        <ele>246</ele>
        <time>2017-09-21T08:35:32Z</time>
      </trkpt>
      <trkpt lat="44.55204" lon="1.7605">
        <ele>245</ele>
        <time>2017-09-21T08:35:44Z</time>
      </trkpt>
      <trkpt lat="44.55199" lon="1.76046">
        <ele>244</ele>
        <time>2017-09-21T08:35:48Z</time>
      </trkpt>
      <trkpt lat="44.55198" lon="1.76043">
        <ele>244</ele>
        <time>2017-09-21T08:36:05Z</time>
      </trkpt>
      <trkpt lat="44.55196" lon="1.76041">
        <ele>245</ele>
        <time>2017-09-21T08:36:13Z</time>
      </trkpt>
      <trkpt lat="44.55195" lon="1.76037">
        <ele>245</ele>
        <time>2017-09-21T08:36:18Z</time>
      </trkpt>
      <trkpt lat="44.55195" lon="1.76033">
        <ele>245</ele>
        <time>2017-09-21T08:36:22Z</time>
      </trkpt>
      <trkpt lat="44.55196" lon="1.76027">
        <ele>246</ele>
        <time>2017-09-21T08:36:26Z</time>
      </trkpt>
      <trkpt lat="44.55196" lon="1.76021">
        <ele>246</ele>
        <time>2017-09-21T08:36:33Z</time>
      </trkpt>
      <trkpt lat="44.55196" lon="1.76016">
        <ele>247</ele>
        <time>2017-09-21T08:36:38Z</time>
      </trkpt>
      <trkpt lat="44.55196" lon="1.76012">
        <ele>247</ele>
        <time>2017-09-21T08:36:41Z</time>
      </trkpt>
      <trkpt lat="44.55194" lon="1.76007">
        <ele>247</ele>
        <time>2017-09-21T08:36:45Z</time>
      </trkpt>
      <trkpt lat="44.55192" lon="1.76002">
        <ele>247</ele>
        <time>2017-09-21T08:36:50Z</time>
      </trkpt>
      <trkpt lat="44.55191" lon="1.75999">
        <ele>250</ele>
        <time>2017-09-21T08:36:54Z</time>
      </trkpt>
      <trkpt lat="44.55188" lon="1.75995">
        <ele>250</ele>
        <time>2017-09-21T08:36:59Z</time>
      </trkpt>
      <trkpt lat="44.55186" lon="1.7599">
        <ele>250</ele>
        <time>2017-09-21T08:37:04Z</time>
      </trkpt>
      <trkpt lat="44.55184" lon="1.75986">
        <ele>250</ele>
        <time>2017-09-21T08:37:07Z</time>
      </trkpt>
      <trkpt lat="44.55182" lon="1.75981">
        <ele>250</ele>
        <time>2017-09-21T08:37:12Z</time>
      </trkpt>
      <trkpt lat="44.55179" lon="1.75975">
        <ele>250</ele>
        <time>2017-09-21T08:37:16Z</time>
      </trkpt>
      <trkpt lat="44.55176" lon="1.75972">
        <ele>250</ele>
        <time>2017-09-21T08:37:20Z</time>
      </trkpt>
      <trkpt lat="44.5517" lon="1.75965">
        <ele>250</ele>
        <time>2017-09-21T08:37:26Z</time>
      </trkpt>
      <trkpt lat="44.55165" lon="1.75945">
        <ele>248</ele>
        <time>2017-09-21T08:37:46Z</time>
      </trkpt>
      <trkpt lat="44.55162" lon="1.75939">
        <ele>248</ele>
        <time>2017-09-21T08:37:51Z</time>
      </trkpt>
      <trkpt lat="44.55161" lon="1.75933">
        <ele>249</ele>
        <time>2017-09-21T08:37:55Z</time>
      </trkpt>
      <trkpt lat="44.55161" lon="1.75926">
        <ele>249</ele>
        <time>2017-09-21T08:38:00Z</time>
      </trkpt>
      <trkpt lat="44.55161" lon="1.75912">
        <ele>249</ele>
        <time>2017-09-21T08:38:13Z</time>
      </trkpt>
      <trkpt lat="44.55153" lon="1.75876">
        <ele>248</ele>
        <time>2017-09-21T08:38:37Z</time>
      </trkpt>
      <trkpt lat="44.55151" lon="1.75862">
        <ele>248</ele>
        <time>2017-09-21T08:38:48Z</time>
      </trkpt>
      <trkpt lat="44.55145" lon="1.75838">
        <ele>247</ele>
        <time>2017-09-21T08:39:06Z</time>
      </trkpt>
      <trkpt lat="44.55143" lon="1.75823">
        <ele>247</ele>
        <time>2017-09-21T08:39:18Z</time>
      </trkpt>
      <trkpt lat="44.55142" lon="1.75817">
        <ele>247</ele>
        <time>2017-09-21T08:39:21Z</time>
      </trkpt>
      <trkpt lat="44.55141" lon="1.75812">
        <ele>247</ele>
        <time>2017-09-21T08:39:25Z</time>
      </trkpt>
      <trkpt lat="44.55138" lon="1.7581">
        <ele>247</ele>
        <time>2017-09-21T08:39:29Z</time>
      </trkpt>
      <trkpt lat="44.55137" lon="1.75806">
        <ele>247</ele>
        <time>2017-09-21T08:39:31Z</time>
      </trkpt>
      <trkpt lat="44.55135" lon="1.75801">
        <ele>247</ele>
        <time>2017-09-21T08:39:37Z</time>
      </trkpt>
      <trkpt lat="44.5513" lon="1.75792">
        <ele>247</ele>
        <time>2017-09-21T08:39:47Z</time>
      </trkpt>
      <trkpt lat="44.55127" lon="1.75788">
        <ele>247</ele>
        <time>2017-09-21T08:39:52Z</time>
      </trkpt>
      <trkpt lat="44.55124" lon="1.75783">
        <ele>247</ele>
        <time>2017-09-21T08:39:56Z</time>
      </trkpt>
      <trkpt lat="44.55121" lon="1.75778">
        <ele>247</ele>
        <time>2017-09-21T08:40:00Z</time>
      </trkpt>
      <trkpt lat="44.55119" lon="1.75772">
        <ele>247</ele>
        <time>2017-09-21T08:40:05Z</time>
      </trkpt>
      <trkpt lat="44.55116" lon="1.75767">
        <ele>247</ele>
        <time>2017-09-21T08:40:08Z</time>
      </trkpt>
      <trkpt lat="44.55115" lon="1.75761">
        <ele>247</ele>
        <time>2017-09-21T08:40:11Z</time>
      </trkpt>
      <trkpt lat="44.55116" lon="1.75755">
        <ele>247</ele>
        <time>2017-09-21T08:40:16Z</time>
      </trkpt>
      <trkpt lat="44.55117" lon="1.75747">
        <ele>249</ele>
        <time>2017-09-21T08:40:21Z</time>
      </trkpt>
      <trkpt lat="44.55117" lon="1.75738">
        <ele>249</ele>
        <time>2017-09-21T08:40:28Z</time>
      </trkpt>
      <trkpt lat="44.55112" lon="1.75723">
        <ele>249</ele>
        <time>2017-09-21T08:40:40Z</time>
      </trkpt>
      <trkpt lat="44.55108" lon="1.75713">
        <ele>250</ele>
        <time>2017-09-21T08:40:46Z</time>
      </trkpt>
      <trkpt lat="44.55106" lon="1.75709">
        <ele>250</ele>
        <time>2017-09-21T08:40:51Z</time>
      </trkpt>
      <trkpt lat="44.55105" lon="1.75705">
        <ele>250</ele>
        <time>2017-09-21T08:40:52Z</time>
      </trkpt>
      <trkpt lat="44.55104" lon="1.75701">
        <ele>250</ele>
        <time>2017-09-21T08:40:54Z</time>
      </trkpt>
      <trkpt lat="44.55103" lon="1.75688">
        <ele>250</ele>
        <time>2017-09-21T08:41:04Z</time>
      </trkpt>
      <trkpt lat="44.55102" lon="1.75681">
        <ele>250</ele>
        <time>2017-09-21T08:41:08Z</time>
      </trkpt>
      <trkpt lat="44.55101" lon="1.75675">
        <ele>251</ele>
        <time>2017-09-21T08:41:11Z</time>
      </trkpt>
      <trkpt lat="44.55097" lon="1.75667">
        <ele>253</ele>
        <time>2017-09-21T08:41:17Z</time>
      </trkpt>
      <trkpt lat="44.55095" lon="1.75662">
        <ele>253</ele>
        <time>2017-09-21T08:41:21Z</time>
      </trkpt>
      <trkpt lat="44.55092" lon="1.75656">
        <ele>253</ele>
        <time>2017-09-21T08:41:25Z</time>
      </trkpt>
      <trkpt lat="44.55091" lon="1.7565">
        <ele>253</ele>
        <time>2017-09-21T08:41:29Z</time>
      </trkpt>
      <trkpt lat="44.55089" lon="1.75644">
        <ele>254</ele>
        <time>2017-09-21T08:41:33Z</time>
      </trkpt>
      <trkpt lat="44.55086" lon="1.75629">
        <ele>255</ele>
        <time>2017-09-21T08:41:44Z</time>
      </trkpt>
      <trkpt lat="44.55086" lon="1.75608">
        <ele>256</ele>
        <time>2017-09-21T08:41:56Z</time>
      </trkpt>
      <trkpt lat="44.55086" lon="1.756">
        <ele>256</ele>
        <time>2017-09-21T08:42:01Z</time>
      </trkpt>
      <trkpt lat="44.55087" lon="1.75594">
        <ele>256</ele>
        <time>2017-09-21T08:42:05Z</time>
      </trkpt>
      <trkpt lat="44.55089" lon="1.75587">
        <ele>257</ele>
        <time>2017-09-21T08:42:09Z</time>
      </trkpt>
      <trkpt lat="44.55087" lon="1.75573">
        <ele>258</ele>
        <time>2017-09-21T08:42:19Z</time>
      </trkpt>
      <trkpt lat="44.55086" lon="1.75561">
        <ele>259</ele>
        <time>2017-09-21T08:42:28Z</time>
      </trkpt>
      <trkpt lat="44.55084" lon="1.75556">
        <ele>260</ele>
        <time>2017-09-21T08:42:32Z</time>
      </trkpt>
      <trkpt lat="44.55084" lon="1.7555">
        <ele>260</ele>
        <time>2017-09-21T08:42:36Z</time>
      </trkpt>
      <trkpt lat="44.55082" lon="1.75544">
        <ele>258</ele>
        <time>2017-09-21T08:42:41Z</time>
      </trkpt>
      <trkpt lat="44.55081" lon="1.7553">
        <ele>259</ele>
        <time>2017-09-21T08:42:53Z</time>
      </trkpt>
      <trkpt lat="44.5508" lon="1.75522">
        <ele>259</ele>
        <time>2017-09-21T08:42:58Z</time>
      </trkpt>
      <trkpt lat="44.55078" lon="1.75514">
        <ele>260</ele>
        <time>2017-09-21T08:43:02Z</time>
      </trkpt>
      <trkpt lat="44.55082" lon="1.75501">
        <ele>262</ele>
        <time>2017-09-21T08:43:13Z</time>
      </trkpt>
      <trkpt lat="44.55082" lon="1.75494">
        <ele>262</ele>
        <time>2017-09-21T08:43:17Z</time>
      </trkpt>
      <trkpt lat="44.5508" lon="1.75481">
        <ele>262</ele>
        <time>2017-09-21T08:43:24Z</time>
      </trkpt>
      <trkpt lat="44.5508" lon="1.75475">
        <ele>262</ele>
        <time>2017-09-21T08:43:28Z</time>
      </trkpt>
      <trkpt lat="44.55077" lon="1.75469">
        <ele>262</ele>
        <time>2017-09-21T08:43:33Z</time>
      </trkpt>
      <trkpt lat="44.55077" lon="1.75462">
        <ele>262</ele>
        <time>2017-09-21T08:43:38Z</time>
      </trkpt>
      <trkpt lat="44.55073" lon="1.75446">
        <ele>262</ele>
        <time>2017-09-21T08:43:48Z</time>
      </trkpt>
      <trkpt lat="44.5507" lon="1.75439">
        <ele>262</ele>
        <time>2017-09-21T08:43:51Z</time>
      </trkpt>
      <trkpt lat="44.55067" lon="1.75433">
        <ele>263</ele>
        <time>2017-09-21T08:43:54Z</time>
      </trkpt>
      <trkpt lat="44.55066" lon="1.75428">
        <ele>263</ele>
        <time>2017-09-21T08:43:58Z</time>
      </trkpt>
      <trkpt lat="44.55065" lon="1.75422">
        <ele>263</ele>
        <time>2017-09-21T08:44:02Z</time>
      </trkpt>
      <trkpt lat="44.55065" lon="1.75415">
        <ele>264</ele>
        <time>2017-09-21T08:44:07Z</time>
      </trkpt>
      <trkpt lat="44.55064" lon="1.75407">
        <ele>263</ele>
        <time>2017-09-21T08:44:12Z</time>
      </trkpt>
      <trkpt lat="44.55065" lon="1.754">
        <ele>263</ele>
        <time>2017-09-21T08:44:16Z</time>
      </trkpt>
      <trkpt lat="44.55066" lon="1.75389">
        <ele>263</ele>
        <time>2017-09-21T08:44:23Z</time>
      </trkpt>
      <trkpt lat="44.55067" lon="1.75384">
        <ele>263</ele>
        <time>2017-09-21T08:44:27Z</time>
      </trkpt>
      <trkpt lat="44.55064" lon="1.75377">
        <ele>263</ele>
        <time>2017-09-21T08:44:30Z</time>
      </trkpt>
      <trkpt lat="44.55061" lon="1.75367">
        <ele>263</ele>
        <time>2017-09-21T08:44:36Z</time>
      </trkpt>
      <trkpt lat="44.55061" lon="1.75362">
        <ele>263</ele>
        <time>2017-09-21T08:44:39Z</time>
      </trkpt>
      <trkpt lat="44.55058" lon="1.7535">
        <ele>263</ele>
        <time>2017-09-21T08:44:47Z</time>
      </trkpt>
      <trkpt lat="44.55058" lon="1.75346">
        <ele>263</ele>
        <time>2017-09-21T08:44:50Z</time>
      </trkpt>
      <trkpt lat="44.55057" lon="1.75341">
        <ele>263</ele>
        <time>2017-09-21T08:44:55Z</time>
      </trkpt>
      <trkpt lat="44.55055" lon="1.75334">
        <ele>263</ele>
        <time>2017-09-21T08:45:00Z</time>
      </trkpt>
      <trkpt lat="44.55053" lon="1.75327">
        <ele>262</ele>
        <time>2017-09-21T08:45:06Z</time>
      </trkpt>
      <trkpt lat="44.55053" lon="1.75314">
        <ele>262</ele>
        <time>2017-09-21T08:45:15Z</time>
      </trkpt>
      <trkpt lat="44.55053" lon="1.75309">
        <ele>262</ele>
        <time>2017-09-21T08:45:18Z</time>
      </trkpt>
      <trkpt lat="44.55055" lon="1.75301">
        <ele>262</ele>
        <time>2017-09-21T08:45:23Z</time>
      </trkpt>
      <trkpt lat="44.55057" lon="1.75295">
        <ele>262</ele>
        <time>2017-09-21T08:45:27Z</time>
      </trkpt>
      <trkpt lat="44.55058" lon="1.75284">
        <ele>262</ele>
        <time>2017-09-21T08:45:33Z</time>
      </trkpt>
      <trkpt lat="44.5506" lon="1.75272">
        <ele>261</ele>
        <time>2017-09-21T08:45:41Z</time>
      </trkpt>
      <trkpt lat="44.55061" lon="1.75268">
        <ele>261</ele>
        <time>2017-09-21T08:45:44Z</time>
      </trkpt>
      <trkpt lat="44.55059" lon="1.75257">
        <ele>261</ele>
        <time>2017-09-21T08:45:52Z</time>
      </trkpt>
      <trkpt lat="44.55058" lon="1.7525">
        <ele>259</ele>
        <time>2017-09-21T08:45:56Z</time>
      </trkpt>
      <trkpt lat="44.55059" lon="1.75242">
        <ele>259</ele>
        <time>2017-09-21T08:46:01Z</time>
      </trkpt>
      <trkpt lat="44.5506" lon="1.75236">
        <ele>259</ele>
        <time>2017-09-21T08:46:05Z</time>
      </trkpt>
      <trkpt lat="44.55061" lon="1.75231">
        <ele>258</ele>
        <time>2017-09-21T08:46:09Z</time>
      </trkpt>
      <trkpt lat="44.55065" lon="1.7522">
        <ele>258</ele>
        <time>2017-09-21T08:46:16Z</time>
      </trkpt>
      <trkpt lat="44.55068" lon="1.75216">
        <ele>258</ele>
        <time>2017-09-21T08:46:20Z</time>
      </trkpt>
      <trkpt lat="44.55067" lon="1.75211">
        <ele>258</ele>
        <time>2017-09-21T08:46:37Z</time>
      </trkpt>
      <trkpt lat="44.55066" lon="1.75207">
        <ele>257</ele>
        <time>2017-09-21T08:46:42Z</time>
      </trkpt>
      <trkpt lat="44.55066" lon="1.75202">
        <ele>257</ele>
        <time>2017-09-21T08:46:46Z</time>
      </trkpt>
      <trkpt lat="44.55067" lon="1.75196">
        <ele>257</ele>
        <time>2017-09-21T08:46:51Z</time>
      </trkpt>
      <trkpt lat="44.55069" lon="1.75192">
        <ele>257</ele>
        <time>2017-09-21T08:46:55Z</time>
      </trkpt>
      <trkpt lat="44.55072" lon="1.75186">
        <ele>257</ele>
        <time>2017-09-21T08:46:59Z</time>
      </trkpt>
      <trkpt lat="44.55073" lon="1.75181">
        <ele>257</ele>
        <time>2017-09-21T08:47:03Z</time>
      </trkpt>
      <trkpt lat="44.55073" lon="1.7517">
        <ele>257</ele>
        <time>2017-09-21T08:47:10Z</time>
      </trkpt>
      <trkpt lat="44.55071" lon="1.75166">
        <ele>255</ele>
        <time>2017-09-21T08:47:13Z</time>
      </trkpt>
      <trkpt lat="44.55071" lon="1.7516">
        <ele>254</ele>
        <time>2017-09-21T08:47:18Z</time>
      </trkpt>
      <trkpt lat="44.5507" lon="1.75149">
        <ele>253</ele>
        <time>2017-09-21T08:47:26Z</time>
      </trkpt>
      <trkpt lat="44.55067" lon="1.75134">
        <ele>252</ele>
        <time>2017-09-21T08:47:36Z</time>
      </trkpt>
      <trkpt lat="44.55066" lon="1.75122">
        <ele>251</ele>
        <time>2017-09-21T08:47:44Z</time>
      </trkpt>
      <trkpt lat="44.55065" lon="1.75111">
        <ele>251</ele>
        <time>2017-09-21T08:47:51Z</time>
      </trkpt>
      <trkpt lat="44.55067" lon="1.75106">
        <ele>251</ele>
        <time>2017-09-21T08:47:56Z</time>
      </trkpt>
      <trkpt lat="44.55069" lon="1.75101">
        <ele>251</ele>
        <time>2017-09-21T08:48:01Z</time>
      </trkpt>
      <trkpt lat="44.55072" lon="1.75092">
        <ele>251</ele>
        <time>2017-09-21T08:48:13Z</time>
      </trkpt>
      <trkpt lat="44.55075" lon="1.75088">
        <ele>251</ele>
        <time>2017-09-21T08:48:17Z</time>
      </trkpt>
      <trkpt lat="44.55077" lon="1.75084">
        <ele>252</ele>
        <time>2017-09-21T08:48:20Z</time>
      </trkpt>
      <trkpt lat="44.5508" lon="1.75073">
        <ele>249</ele>
        <time>2017-09-21T08:48:30Z</time>
      </trkpt>
      <trkpt lat="44.55079" lon="1.75061">
        <ele>247</ele>
        <time>2017-09-21T08:48:37Z</time>
      </trkpt>
      <trkpt lat="44.55078" lon="1.75056">
        <ele>246</ele>
        <time>2017-09-21T08:48:41Z</time>
      </trkpt>
      <trkpt lat="44.55078" lon="1.7505">
        <ele>245</ele>
        <time>2017-09-21T08:48:47Z</time>
      </trkpt>
      <trkpt lat="44.55075" lon="1.75041">
        <ele>244</ele>
        <time>2017-09-21T08:49:16Z</time>
      </trkpt>
      <trkpt lat="44.55074" lon="1.75035">
        <ele>244</ele>
        <time>2017-09-21T08:49:22Z</time>
      </trkpt>
      <trkpt lat="44.55074" lon="1.75029">
        <ele>244</ele>
        <time>2017-09-21T08:49:40Z</time>
      </trkpt>
      <trkpt lat="44.55076" lon="1.75025">
        <ele>244</ele>
        <time>2017-09-21T08:49:49Z</time>
      </trkpt>
      <trkpt lat="44.55077" lon="1.75021">
        <ele>244</ele>
        <time>2017-09-21T08:49:57Z</time>
      </trkpt>
      <trkpt lat="44.55079" lon="1.75015">
        <ele>244</ele>
        <time>2017-09-21T08:50:02Z</time>
      </trkpt>
      <trkpt lat="44.55079" lon="1.75009">
        <ele>244</ele>
        <time>2017-09-21T08:50:07Z</time>
      </trkpt>
      <trkpt lat="44.55079" lon="1.75003">
        <ele>244</ele>
        <time>2017-09-21T08:50:10Z</time>
      </trkpt>
      <trkpt lat="44.55078" lon="1.74998">
        <ele>241</ele>
        <time>2017-09-21T08:50:13Z</time>
      </trkpt>
      <trkpt lat="44.55078" lon="1.74991">
        <ele>238</ele>
        <time>2017-09-21T08:50:18Z</time>
      </trkpt>
      <trkpt lat="44.55078" lon="1.74987">
        <ele>237</ele>
        <time>2017-09-21T08:50:21Z</time>
      </trkpt>
      <trkpt lat="44.55076" lon="1.74977">
        <ele>234</ele>
        <time>2017-09-21T08:50:30Z</time>
      </trkpt>
      <trkpt lat="44.55075" lon="1.7497">
        <ele>232</ele>
        <time>2017-09-21T08:50:36Z</time>
      </trkpt>
      <trkpt lat="44.55078" lon="1.74959">
        <ele>230</ele>
        <time>2017-09-21T08:50:49Z</time>
      </trkpt>
      <trkpt lat="44.55079" lon="1.74953">
        <ele>229</ele>
        <time>2017-09-21T08:50:54Z</time>
      </trkpt>
      <trkpt lat="44.55082" lon="1.74948">
        <ele>228</ele>
        <time>2017-09-21T08:51:00Z</time>
      </trkpt>
      <trkpt lat="44.55085" lon="1.74943">
        <ele>232</ele>
        <time>2017-09-21T08:51:06Z</time>
      </trkpt>
      <trkpt lat="44.55092" lon="1.7494">
        <ele>232</ele>
        <time>2017-09-21T08:51:15Z</time>
      </trkpt>
      <trkpt lat="44.55095" lon="1.74935">
        <ele>231</ele>
        <time>2017-09-21T08:51:21Z</time>
      </trkpt>
      <trkpt lat="44.55099" lon="1.7493">
        <ele>230</ele>
        <time>2017-09-21T08:51:30Z</time>
      </trkpt>
      <trkpt lat="44.55106" lon="1.74925">
        <ele>231</ele>
        <time>2017-09-21T08:51:44Z</time>
      </trkpt>
      <trkpt lat="44.55117" lon="1.74922">
        <ele>232</ele>
        <time>2017-09-21T08:51:56Z</time>
      </trkpt>
      <trkpt lat="44.55121" lon="1.7492">
        <ele>232</ele>
        <time>2017-09-21T08:52:03Z</time>
      </trkpt>
      <trkpt lat="44.55122" lon="1.74915">
        <ele>216</ele>
        <time>2017-09-21T08:52:13Z</time>
      </trkpt>
      <trkpt lat="44.55114" lon="1.74909">
        <ele>215</ele>
        <time>2017-09-21T08:52:30Z</time>
      </trkpt>
      <trkpt lat="44.55111" lon="1.74904">
        <ele>215</ele>
        <time>2017-09-21T08:52:47Z</time>
      </trkpt>
      <trkpt lat="44.55108" lon="1.74902">
        <ele>215</ele>
        <time>2017-09-21T08:52:55Z</time>
      </trkpt>
      <trkpt lat="44.55105" lon="1.749">
        <ele>214</ele>
        <time>2017-09-21T08:52:58Z</time>
      </trkpt>
      <trkpt lat="44.55102" lon="1.74898">
        <ele>214</ele>
        <time>2017-09-21T08:53:02Z</time>
      </trkpt>
      <trkpt lat="44.55101" lon="1.74894">
        <ele>214</ele>
        <time>2017-09-21T08:53:06Z</time>
      </trkpt>
      <trkpt lat="44.55098" lon="1.74892">
        <ele>213</ele>
        <time>2017-09-21T08:53:09Z</time>
      </trkpt>
      <trkpt lat="44.55096" lon="1.7489">
        <ele>213</ele>
        <time>2017-09-21T08:53:15Z</time>
      </trkpt>
      <trkpt lat="44.55092" lon="1.74888">
        <ele>212</ele>
        <time>2017-09-21T08:53:19Z</time>
      </trkpt>
      <trkpt lat="44.5509" lon="1.74886">
        <ele>212</ele>
        <time>2017-09-21T08:53:21Z</time>
      </trkpt>
      <trkpt lat="44.55086" lon="1.74885">
        <ele>211</ele>
        <time>2017-09-21T08:53:27Z</time>
      </trkpt>
      <trkpt lat="44.55083" lon="1.74883">
        <ele>205</ele>
        <time>2017-09-21T08:53:33Z</time>
      </trkpt>
      <trkpt lat="44.55081" lon="1.74881">
        <ele>205</ele>
        <time>2017-09-21T08:53:36Z</time>
      </trkpt>
      <trkpt lat="44.55085" lon="1.74874">
        <ele>208</ele>
        <time>2017-09-21T08:53:44Z</time>
      </trkpt>
      <trkpt lat="44.55088" lon="1.74872">
        <ele>207</ele>
        <time>2017-09-21T08:53:51Z</time>
      </trkpt>
      <trkpt lat="44.55094" lon="1.74869">
        <ele>207</ele>
        <time>2017-09-21T08:53:58Z</time>
      </trkpt>
      <trkpt lat="44.55097" lon="1.74867">
        <ele>206</ele>
        <time>2017-09-21T08:54:03Z</time>
      </trkpt>
      <trkpt lat="44.551" lon="1.74864">
        <ele>206</ele>
        <time>2017-09-21T08:54:07Z</time>
      </trkpt>
      <trkpt lat="44.55105" lon="1.74864">
        <ele>206</ele>
        <time>2017-09-21T08:54:13Z</time>
      </trkpt>
      <trkpt lat="44.55108" lon="1.74859">
        <ele>205</ele>
        <time>2017-09-21T08:54:19Z</time>
      </trkpt>
      <trkpt lat="44.55111" lon="1.74856">
        <ele>205</ele>
        <time>2017-09-21T08:54:22Z</time>
      </trkpt>
      <trkpt lat="44.55114" lon="1.74854">
        <ele>205</ele>
        <time>2017-09-21T08:54:26Z</time>
      </trkpt>
      <trkpt lat="44.55117" lon="1.74851">
        <ele>205</ele>
        <time>2017-09-21T08:54:30Z</time>
      </trkpt>
      <trkpt lat="44.5512" lon="1.7485">
        <ele>205</ele>
        <time>2017-09-21T08:54:34Z</time>
      </trkpt>
      <trkpt lat="44.55122" lon="1.74847">
        <ele>205</ele>
        <time>2017-09-21T08:54:39Z</time>
      </trkpt>
      <trkpt lat="44.55126" lon="1.74844">
        <ele>205</ele>
        <time>2017-09-21T08:54:44Z</time>
      </trkpt>
      <trkpt lat="44.55136" lon="1.74841">
        <ele>205</ele>
        <time>2017-09-21T08:54:55Z</time>
      </trkpt>
      <trkpt lat="44.55139" lon="1.7484">
        <ele>205</ele>
        <time>2017-09-21T08:54:58Z</time>
      </trkpt>
      <trkpt lat="44.55144" lon="1.74838">
        <ele>205</ele>
        <time>2017-09-21T08:55:06Z</time>
      </trkpt>
      <trkpt lat="44.55147" lon="1.74836">
        <ele>204</ele>
        <time>2017-09-21T08:55:14Z</time>
      </trkpt>
      <trkpt lat="44.55151" lon="1.74834">
        <ele>204</ele>
        <time>2017-09-21T08:55:25Z</time>
      </trkpt>
      <trkpt lat="44.55151" lon="1.74826">
        <ele>192</ele>
        <time>2017-09-21T08:55:39Z</time>
      </trkpt>
      <trkpt lat="44.55152" lon="1.74824">
        <ele>192</ele>
        <time>2017-09-21T08:56:16Z</time>
      </trkpt>
      <trkpt lat="44.55147" lon="1.74823">
        <ele>190</ele>
        <time>2017-09-21T08:56:32Z</time>
      </trkpt>
      <trkpt lat="44.55144" lon="1.7482">
        <ele>189</ele>
        <time>2017-09-21T08:56:37Z</time>
      </trkpt>
      <trkpt lat="44.55126" lon="1.74804">
        <ele>185</ele>
        <time>2017-09-21T08:56:56Z</time>
      </trkpt>
      <trkpt lat="44.55122" lon="1.74801">
        <ele>185</ele>
        <time>2017-09-21T08:57:00Z</time>
      </trkpt>
      <trkpt lat="44.551" lon="1.74794">
        <ele>183</ele>
        <time>2017-09-21T08:57:21Z</time>
      </trkpt>
      <trkpt lat="44.55097" lon="1.74793">
        <ele>183</ele>
        <time>2017-09-21T08:57:24Z</time>
      </trkpt>
      <trkpt lat="44.55094" lon="1.74793">
        <ele>183</ele>
        <time>2017-09-21T08:57:29Z</time>
      </trkpt>
      <trkpt lat="44.55091" lon="1.74793">
        <ele>182</ele>
        <time>2017-09-21T08:57:33Z</time>
      </trkpt>
      <trkpt lat="44.55088" lon="1.74793">
        <ele>182</ele>
        <time>2017-09-21T08:57:36Z</time>
      </trkpt>
      <trkpt lat="44.55086" lon="1.74791">
        <ele>182</ele>
        <time>2017-09-21T08:57:38Z</time>
      </trkpt>
      <trkpt lat="44.55083" lon="1.74788">
        <ele>178</ele>
        <time>2017-09-21T08:57:41Z</time>
      </trkpt>
      <trkpt lat="44.55082" lon="1.74785">
        <ele>178</ele>
        <time>2017-09-21T08:57:43Z</time>
      </trkpt>
      <trkpt lat="44.5508" lon="1.74781">
        <ele>177</ele>
        <time>2017-09-21T08:57:46Z</time>
      </trkpt>
      <trkpt lat="44.55076" lon="1.7478">
        <ele>177</ele>
        <time>2017-09-21T08:57:49Z</time>
      </trkpt>
      <trkpt lat="44.55074" lon="1.7478">
        <ele>177</ele>
        <time>2017-09-21T08:57:52Z</time>
      </trkpt>
      <trkpt lat="44.5507" lon="1.74782">
        <ele>177</ele>
        <time>2017-09-21T08:57:55Z</time>
      </trkpt>
      <trkpt lat="44.55065" lon="1.74786">
        <ele>178</ele>
        <time>2017-09-21T08:57:59Z</time>
      </trkpt>
      <trkpt lat="44.55063" lon="1.74789">
        <ele>178</ele>
        <time>2017-09-21T08:58:01Z</time>
      </trkpt>
      <trkpt lat="44.55061" lon="1.7479">
        <ele>178</ele>
        <time>2017-09-21T08:58:03Z</time>
      </trkpt>
      <trkpt lat="44.55059" lon="1.74791">
        <ele>178</ele>
        <time>2017-09-21T08:58:05Z</time>
      </trkpt>
      <trkpt lat="44.55057" lon="1.74794">
        <ele>179</ele>
        <time>2017-09-21T08:58:23Z</time>
      </trkpt>
      <trkpt lat="44.55055" lon="1.74797">
        <ele>179</ele>
        <time>2017-09-21T08:58:27Z</time>
      </trkpt>
      <trkpt lat="44.55052" lon="1.74798">
        <ele>179</ele>
        <time>2017-09-21T08:58:30Z</time>
      </trkpt>
      <trkpt lat="44.55031" lon="1.74805">
        <ele>179</ele>
        <time>2017-09-21T08:58:47Z</time>
      </trkpt>
      <trkpt lat="44.55019" lon="1.74808">
        <ele>179</ele>
        <time>2017-09-21T08:58:57Z</time>
      </trkpt>
      <trkpt lat="44.55014" lon="1.74809">
        <ele>179</ele>
        <time>2017-09-21T08:59:03Z</time>
      </trkpt>
      <trkpt lat="44.55008" lon="1.7481">
        <ele>179</ele>
        <time>2017-09-21T08:59:17Z</time>
      </trkpt>
      <trkpt lat="44.55002" lon="1.74809">
        <ele>179</ele>
        <time>2017-09-21T08:59:23Z</time>
      </trkpt>
      <trkpt lat="44.54996" lon="1.7481">
        <ele>178</ele>
        <time>2017-09-21T08:59:29Z</time>
      </trkpt>
      <trkpt lat="44.5499" lon="1.7481">
        <ele>178</ele>
        <time>2017-09-21T08:59:35Z</time>
      </trkpt>
      <trkpt lat="44.54973" lon="1.74798">
        <ele>177</ele>
        <time>2017-09-21T08:59:58Z</time>
      </trkpt>
      <trkpt lat="44.54971" lon="1.74794">
        <ele>177</ele>
        <time>2017-09-21T09:00:08Z</time>
      </trkpt>
      <trkpt lat="44.54971" lon="1.74788">
        <ele>177</ele>
        <time>2017-09-21T09:00:13Z</time>
      </trkpt>
      <trkpt lat="44.5497" lon="1.74776">
        <ele>176</ele>
        <time>2017-09-21T09:00:20Z</time>
      </trkpt>
      <trkpt lat="44.54971" lon="1.74772">
        <ele>176</ele>
        <time>2017-09-21T09:00:23Z</time>
      </trkpt>
      <trkpt lat="44.54969" lon="1.74767">
        <ele>176</ele>
        <time>2017-09-21T09:00:26Z</time>
      </trkpt>
      <trkpt lat="44.5497" lon="1.74761">
        <ele>176</ele>
        <time>2017-09-21T09:00:30Z</time>
      </trkpt>
      <trkpt lat="44.54973" lon="1.74749">
        <ele>181</ele>
        <time>2017-09-21T09:00:39Z</time>
      </trkpt>
      <trkpt lat="44.54975" lon="1.74744">
        <ele>181</ele>
        <time>2017-09-21T09:00:46Z</time>
      </trkpt>
      <trkpt lat="44.54977" lon="1.74736">
        <ele>181</ele>
        <time>2017-09-21T09:00:52Z</time>
      </trkpt>
      <trkpt lat="44.54979" lon="1.74733">
        <ele>181</ele>
        <time>2017-09-21T09:00:57Z</time>
      </trkpt>
      <trkpt lat="44.54983" lon="1.74728">
        <ele>182</ele>
        <time>2017-09-21T09:01:36Z</time>
      </trkpt>
      <trkpt lat="44.54986" lon="1.74723">
        <ele>182</ele>
        <time>2017-09-21T09:01:43Z</time>
      </trkpt>
      <trkpt lat="44.54988" lon="1.74716">
        <ele>183</ele>
        <time>2017-09-21T09:01:48Z</time>
      </trkpt>
      <trkpt lat="44.54993" lon="1.74713">
        <ele>183</ele>
        <time>2017-09-21T09:01:54Z</time>
      </trkpt>
      <trkpt lat="44.54992" lon="1.74708">
        <ele>184</ele>
        <time>2017-09-21T09:02:55Z</time>
      </trkpt>
      <trkpt lat="44.54987" lon="1.74707">
        <ele>185</ele>
        <time>2017-09-21T09:03:00Z</time>
      </trkpt>
      <trkpt lat="44.54976" lon="1.74708">
        <ele>185</ele>
        <time>2017-09-21T09:03:11Z</time>
      </trkpt>
      <trkpt lat="44.54971" lon="1.74707">
        <ele>186</ele>
        <time>2017-09-21T09:03:16Z</time>
      </trkpt>
      <trkpt lat="44.54951" lon="1.74705">
        <ele>188</ele>
        <time>2017-09-21T09:03:32Z</time>
      </trkpt>
      <trkpt lat="44.54945" lon="1.74706">
        <ele>189</ele>
        <time>2017-09-21T09:03:39Z</time>
      </trkpt>
      <trkpt lat="44.5494" lon="1.74704">
        <ele>190</ele>
        <time>2017-09-21T09:03:45Z</time>
      </trkpt>
      <trkpt lat="44.54939" lon="1.74695">
        <ele>191</ele>
        <time>2017-09-21T09:04:04Z</time>
      </trkpt>
      <trkpt lat="44.54943" lon="1.74686">
        <ele>192</ele>
        <time>2017-09-21T09:04:11Z</time>
      </trkpt>
      <trkpt lat="44.5495" lon="1.74679">
        <ele>192</ele>
        <time>2017-09-21T09:04:19Z</time>
      </trkpt>
      <trkpt lat="44.54955" lon="1.74675">
        <ele>191</ele>
        <time>2017-09-21T09:04:23Z</time>
      </trkpt>
      <trkpt lat="44.54958" lon="1.74667">
        <ele>191</ele>
        <time>2017-09-21T09:04:28Z</time>
      </trkpt>
      <trkpt lat="44.54964" lon="1.74662">
        <ele>200</ele>
        <time>2017-09-21T09:04:34Z</time>
      </trkpt>
      <trkpt lat="44.54975" lon="1.74651">
        <ele>198</ele>
        <time>2017-09-21T09:04:47Z</time>
      </trkpt>
      <trkpt lat="44.54976" lon="1.74642">
        <ele>199</ele>
        <time>2017-09-21T09:04:54Z</time>
      </trkpt>
      <trkpt lat="44.54981" lon="1.74637">
        <ele>199</ele>
        <time>2017-09-21T09:05:01Z</time>
      </trkpt>
      <trkpt lat="44.54982" lon="1.74627">
        <ele>200</ele>
        <time>2017-09-21T09:05:10Z</time>
      </trkpt>
      <trkpt lat="44.54986" lon="1.74618">
        <ele>200</ele>
        <time>2017-09-21T09:05:19Z</time>
      </trkpt>
      <trkpt lat="44.54988" lon="1.7461">
        <ele>200</ele>
        <time>2017-09-21T09:05:28Z</time>
      </trkpt>
      <trkpt lat="44.5499" lon="1.746">
        <ele>200</ele>
        <time>2017-09-21T09:05:39Z</time>
      </trkpt>
      <trkpt lat="44.54992" lon="1.74589">
        <ele>198</ele>
        <time>2017-09-21T09:05:48Z</time>
      </trkpt>
      <trkpt lat="44.54999" lon="1.74572">
        <ele>203</ele>
        <time>2017-09-21T09:06:05Z</time>
      </trkpt>
      <trkpt lat="44.54999" lon="1.74562">
        <ele>206</ele>
        <time>2017-09-21T09:06:13Z</time>
      </trkpt>
      <trkpt lat="44.55004" lon="1.74556">
        <ele>203</ele>
        <time>2017-09-21T09:06:20Z</time>
      </trkpt>
      <trkpt lat="44.55005" lon="1.74547">
        <ele>204</ele>
        <time>2017-09-21T09:06:27Z</time>
      </trkpt>
      <trkpt lat="44.55" lon="1.74546">
        <ele>204</ele>
        <time>2017-09-21T09:06:41Z</time>
      </trkpt>
      <trkpt lat="44.54996" lon="1.74547">
        <ele>209</ele>
        <time>2017-09-21T09:06:47Z</time>
      </trkpt>
      <trkpt lat="44.54991" lon="1.74549">
        <ele>210</ele>
        <time>2017-09-21T09:06:54Z</time>
      </trkpt>
      <trkpt lat="44.54986" lon="1.74551">
        <ele>210</ele>
        <time>2017-09-21T09:06:59Z</time>
      </trkpt>
      <trkpt lat="44.54981" lon="1.74553">
        <ele>210</ele>
        <time>2017-09-21T09:07:04Z</time>
      </trkpt>
      <trkpt lat="44.54976" lon="1.74555">
        <ele>211</ele>
        <time>2017-09-21T09:07:09Z</time>
      </trkpt>
      <trkpt lat="44.54961" lon="1.74559">
        <ele>213</ele>
        <time>2017-09-21T09:07:25Z</time>
      </trkpt>
      <trkpt lat="44.54956" lon="1.7456">
        <ele>214</ele>
        <time>2017-09-21T09:07:31Z</time>
      </trkpt>
      <trkpt lat="44.54951" lon="1.74557">
        <ele>215</ele>
        <time>2017-09-21T09:07:36Z</time>
      </trkpt>
      <trkpt lat="44.54947" lon="1.74553">
        <ele>216</ele>
        <time>2017-09-21T09:07:39Z</time>
      </trkpt>
      <trkpt lat="44.54943" lon="1.74551">
        <ele>216</ele>
        <time>2017-09-21T09:07:42Z</time>
      </trkpt>
      <trkpt lat="44.54933" lon="1.74549">
        <ele>217</ele>
        <time>2017-09-21T09:07:47Z</time>
      </trkpt>
      <trkpt lat="44.54928" lon="1.74548">
        <ele>218</ele>
        <time>2017-09-21T09:07:52Z</time>
      </trkpt>
      <trkpt lat="44.54924" lon="1.74546">
        <ele>218</ele>
        <time>2017-09-21T09:07:55Z</time>
      </trkpt>
      <trkpt lat="44.54918" lon="1.74543">
        <ele>219</ele>
        <time>2017-09-21T09:08:12Z</time>
      </trkpt>
      <trkpt lat="44.54912" lon="1.74539">
        <ele>230</ele>
        <time>2017-09-21T09:08:16Z</time>
      </trkpt>
      <trkpt lat="44.54907" lon="1.74533">
        <ele>230</ele>
        <time>2017-09-21T09:08:19Z</time>
      </trkpt>
      <trkpt lat="44.54894" lon="1.74523">
        <ele>231</ele>
        <time>2017-09-21T09:08:36Z</time>
      </trkpt>
      <trkpt lat="44.54883" lon="1.74509">
        <ele>232</ele>
        <time>2017-09-21T09:08:50Z</time>
      </trkpt>
      <trkpt lat="44.54875" lon="1.74498">
        <ele>238</ele>
        <time>2017-09-21T09:09:04Z</time>
      </trkpt>
      <trkpt lat="44.54871" lon="1.74496">
        <ele>239</ele>
        <time>2017-09-21T09:09:07Z</time>
      </trkpt>
      <trkpt lat="44.54866" lon="1.74491">
        <ele>239</ele>
        <time>2017-09-21T09:09:15Z</time>
      </trkpt>
      <trkpt lat="44.5486" lon="1.74486">
        <ele>240</ele>
        <time>2017-09-21T09:09:23Z</time>
      </trkpt>
      <trkpt lat="44.54856" lon="1.74481">
        <ele>240</ele>
        <time>2017-09-21T09:09:28Z</time>
      </trkpt>
      <trkpt lat="44.54852" lon="1.74476">
        <ele>240</ele>
        <time>2017-09-21T09:09:32Z</time>
      </trkpt>
      <trkpt lat="44.54847" lon="1.74471">
        <ele>241</ele>
        <time>2017-09-21T09:09:36Z</time>
      </trkpt>
      <trkpt lat="44.54843" lon="1.74465">
        <ele>241</ele>
        <time>2017-09-21T09:09:39Z</time>
      </trkpt>
      <trkpt lat="44.54834" lon="1.74456">
        <ele>242</ele>
        <time>2017-09-21T09:09:46Z</time>
      </trkpt>
      <trkpt lat="44.54821" lon="1.74444">
        <ele>250</ele>
        <time>2017-09-21T09:09:57Z</time>
      </trkpt>
      <trkpt lat="44.54814" lon="1.74439">
        <ele>250</ele>
        <time>2017-09-21T09:10:04Z</time>
      </trkpt>
      <trkpt lat="44.5481" lon="1.74436">
        <ele>251</ele>
        <time>2017-09-21T09:10:13Z</time>
      </trkpt>
      <trkpt lat="44.54808" lon="1.74427">
        <ele>251</ele>
        <time>2017-09-21T09:10:30Z</time>
      </trkpt>
      <trkpt lat="44.54812" lon="1.74422">
        <ele>251</ele>
        <time>2017-09-21T09:10:36Z</time>
      </trkpt>
      <trkpt lat="44.54815" lon="1.74414">
        <ele>255</ele>
        <time>2017-09-21T09:10:42Z</time>
      </trkpt>
      <trkpt lat="44.54818" lon="1.74406">
        <ele>255</ele>
        <time>2017-09-21T09:10:47Z</time>
      </trkpt>
      <trkpt lat="44.54817" lon="1.74399">
        <ele>256</ele>
        <time>2017-09-21T09:10:54Z</time>
      </trkpt>
      <trkpt lat="44.5482" lon="1.74387">
        <ele>257</ele>
        <time>2017-09-21T09:11:04Z</time>
      </trkpt>
      <trkpt lat="44.54816" lon="1.7438">
        <ele>258</ele>
        <time>2017-09-21T09:11:09Z</time>
      </trkpt>
      <trkpt lat="44.54811" lon="1.74374">
        <ele>259</ele>
        <time>2017-09-21T09:11:14Z</time>
      </trkpt>
      <trkpt lat="44.54804" lon="1.74365">
        <ele>259</ele>
        <time>2017-09-21T09:11:21Z</time>
      </trkpt>
      <trkpt lat="44.54799" lon="1.74363">
        <ele>260</ele>
        <time>2017-09-21T09:11:25Z</time>
      </trkpt>
      <trkpt lat="44.54794" lon="1.74361">
        <ele>260</ele>
        <time>2017-09-21T09:11:30Z</time>
      </trkpt>
      <trkpt lat="44.54789" lon="1.74358">
        <ele>260</ele>
        <time>2017-09-21T09:11:35Z</time>
      </trkpt>
      <trkpt lat="44.54783" lon="1.74356">
        <ele>261</ele>
        <time>2017-09-21T09:11:41Z</time>
      </trkpt>
      <trkpt lat="44.54774" lon="1.74351">
        <ele>262</ele>
        <time>2017-09-21T09:11:50Z</time>
      </trkpt>
      <trkpt lat="44.54771" lon="1.74342">
        <ele>263</ele>
        <time>2017-09-21T09:12:06Z</time>
      </trkpt>
      <trkpt lat="44.54768" lon="1.74334">
        <ele>264</ele>
        <time>2017-09-21T09:12:14Z</time>
      </trkpt>
      <trkpt lat="44.54765" lon="1.74326">
        <ele>267</ele>
        <time>2017-09-21T09:12:21Z</time>
      </trkpt>
      <trkpt lat="44.54762" lon="1.74318">
        <ele>268</ele>
        <time>2017-09-21T09:12:27Z</time>
      </trkpt>
      <trkpt lat="44.54762" lon="1.7431">
        <ele>268</ele>
        <time>2017-09-21T09:12:34Z</time>
      </trkpt>
      <trkpt lat="44.54759" lon="1.74302">
        <ele>268</ele>
        <time>2017-09-21T09:12:44Z</time>
      </trkpt>
      <trkpt lat="44.54756" lon="1.74293">
        <ele>269</ele>
        <time>2017-09-21T09:12:52Z</time>
      </trkpt>
      <trkpt lat="44.54752" lon="1.74284">
        <ele>269</ele>
        <time>2017-09-21T09:13:03Z</time>
      </trkpt>
      <trkpt lat="44.5475" lon="1.74277">
        <ele>275</ele>
        <time>2017-09-21T09:13:13Z</time>
      </trkpt>
      <trkpt lat="44.54747" lon="1.74268">
        <ele>275</ele>
        <time>2017-09-21T09:13:18Z</time>
      </trkpt>
      <trkpt lat="44.54744" lon="1.7426">
        <ele>275</ele>
        <time>2017-09-21T09:13:25Z</time>
      </trkpt>
      <trkpt lat="44.54741" lon="1.74251">
        <ele>275</ele>
        <time>2017-09-21T09:13:33Z</time>
      </trkpt>
      <trkpt lat="44.54739" lon="1.74243">
        <ele>278</ele>
        <time>2017-09-21T09:13:39Z</time>
      </trkpt>
      <trkpt lat="44.54735" lon="1.74233">
        <ele>279</ele>
        <time>2017-09-21T09:13:47Z</time>
      </trkpt>
      <trkpt lat="44.54732" lon="1.74226">
        <ele>280</ele>
        <time>2017-09-21T09:13:54Z</time>
      </trkpt>
      <trkpt lat="44.54728" lon="1.74218">
        <ele>281</ele>
        <time>2017-09-21T09:14:01Z</time>
      </trkpt>
      <trkpt lat="44.54724" lon="1.7421">
        <ele>281</ele>
        <time>2017-09-21T09:14:10Z</time>
      </trkpt>
      <trkpt lat="44.5472" lon="1.74202">
        <ele>282</ele>
        <time>2017-09-21T09:14:16Z</time>
      </trkpt>
      <trkpt lat="44.54715" lon="1.74197">
        <ele>282</ele>
        <time>2017-09-21T09:14:21Z</time>
      </trkpt>
      <trkpt lat="44.54714" lon="1.74188">
        <ele>282</ele>
        <time>2017-09-21T09:14:28Z</time>
      </trkpt>
      <trkpt lat="44.54715" lon="1.7418">
        <ele>283</ele>
        <time>2017-09-21T09:14:41Z</time>
      </trkpt>
      <trkpt lat="44.54715" lon="1.74164">
        <ele>286</ele>
        <time>2017-09-21T09:14:50Z</time>
      </trkpt>
      <trkpt lat="44.54718" lon="1.74157">
        <ele>286</ele>
        <time>2017-09-21T09:14:56Z</time>
      </trkpt>
      <trkpt lat="44.54722" lon="1.74147">
        <ele>286</ele>
        <time>2017-09-21T09:15:02Z</time>
      </trkpt>
      <trkpt lat="44.54726" lon="1.74142">
        <ele>286</ele>
        <time>2017-09-21T09:15:08Z</time>
      </trkpt>
      <trkpt lat="44.54734" lon="1.74115">
        <ele>287</ele>
        <time>2017-09-21T09:15:25Z</time>
      </trkpt>
      <trkpt lat="44.54736" lon="1.74109">
        <ele>287</ele>
        <time>2017-09-21T09:15:28Z</time>
      </trkpt>
      <trkpt lat="44.54733" lon="1.74091">
        <ele>287</ele>
        <time>2017-09-21T09:15:34Z</time>
      </trkpt>
      <trkpt lat="44.54719" lon="1.74059">
        <ele>290</ele>
        <time>2017-09-21T09:15:54Z</time>
      </trkpt>
      <trkpt lat="44.54718" lon="1.74056">
        <ele>291</ele>
        <time>2017-09-21T09:15:56Z</time>
      </trkpt>
      <trkpt lat="44.5471" lon="1.7404">
        <ele>291</ele>
        <time>2017-09-21T09:16:08Z</time>
      </trkpt>
      <trkpt lat="44.54709" lon="1.74038">
        <ele>291</ele>
        <time>2017-09-21T09:16:10Z</time>
      </trkpt>
      <trkpt lat="44.54703" lon="1.7403">
        <ele>291</ele>
        <time>2017-09-21T09:16:18Z</time>
      </trkpt>
      <trkpt lat="44.54702" lon="1.74028">
        <ele>291</ele>
        <time>2017-09-21T09:16:20Z</time>
      </trkpt>
      <trkpt lat="44.54688" lon="1.74007">
        <ele>292</ele>
        <time>2017-09-21T09:16:42Z</time>
      </trkpt>
      <trkpt lat="44.54682" lon="1.73998">
        <ele>294</ele>
        <time>2017-09-21T09:16:52Z</time>
      </trkpt>
      <trkpt lat="44.54677" lon="1.73993">
        <ele>293</ele>
        <time>2017-09-21T09:17:00Z</time>
      </trkpt>
      <trkpt lat="44.54672" lon="1.7399">
        <ele>293</ele>
        <time>2017-09-21T09:17:03Z</time>
      </trkpt>
      <trkpt lat="44.54669" lon="1.73984">
        <ele>294</ele>
        <time>2017-09-21T09:17:07Z</time>
      </trkpt>
      <trkpt lat="44.54666" lon="1.73978">
        <ele>293</ele>
        <time>2017-09-21T09:17:11Z</time>
      </trkpt>
      <trkpt lat="44.5466" lon="1.73973">
        <ele>293</ele>
        <time>2017-09-21T09:17:17Z</time>
      </trkpt>
      <trkpt lat="44.54654" lon="1.73969">
        <ele>293</ele>
        <time>2017-09-21T09:17:21Z</time>
      </trkpt>
      <trkpt lat="44.54645" lon="1.73963">
        <ele>292</ele>
        <time>2017-09-21T09:17:29Z</time>
      </trkpt>
      <trkpt lat="44.5464" lon="1.73962">
        <ele>292</ele>
        <time>2017-09-21T09:17:33Z</time>
      </trkpt>
      <trkpt lat="44.54636" lon="1.73962">
        <ele>292</ele>
        <time>2017-09-21T09:17:37Z</time>
      </trkpt>
      <trkpt lat="44.54606" lon="1.7393">
        <ele>291</ele>
        <time>2017-09-21T09:18:09Z</time>
      </trkpt>
      <trkpt lat="44.54603" lon="1.73926">
        <ele>291</ele>
        <time>2017-09-21T09:18:13Z</time>
      </trkpt>
      <trkpt lat="44.54591" lon="1.73911">
        <ele>291</ele>
        <time>2017-09-21T09:18:24Z</time>
      </trkpt>
      <trkpt lat="44.54584" lon="1.73905">
        <ele>291</ele>
        <time>2017-09-21T09:18:32Z</time>
      </trkpt>
      <trkpt lat="44.54579" lon="1.73905">
        <ele>290</ele>
        <time>2017-09-21T09:18:39Z</time>
      </trkpt>
      <trkpt lat="44.54574" lon="1.739">
        <ele>289</ele>
        <time>2017-09-21T09:18:45Z</time>
      </trkpt>
      <trkpt lat="44.54569" lon="1.73897">
        <ele>289</ele>
        <time>2017-09-21T09:18:48Z</time>
      </trkpt>
      <trkpt lat="44.54559" lon="1.73894">
        <ele>289</ele>
        <time>2017-09-21T09:18:56Z</time>
      </trkpt>
      <trkpt lat="44.54555" lon="1.73892">
        <ele>289</ele>
        <time>2017-09-21T09:19:01Z</time>
      </trkpt>
      <trkpt lat="44.5455" lon="1.7389">
        <ele>289</ele>
        <time>2017-09-21T09:19:03Z</time>
      </trkpt>
      <trkpt lat="44.54545" lon="1.73887">
        <ele>289</ele>
        <time>2017-09-21T09:19:08Z</time>
      </trkpt>
      <trkpt lat="44.5454" lon="1.73887">
        <ele>289</ele>
        <time>2017-09-21T09:19:12Z</time>
      </trkpt>
      <trkpt lat="44.54536" lon="1.73885">
        <ele>289</ele>
        <time>2017-09-21T09:19:15Z</time>
      </trkpt>
      <trkpt lat="44.54518" lon="1.73883">
        <ele>288</ele>
        <time>2017-09-21T09:19:32Z</time>
      </trkpt>
      <trkpt lat="44.54514" lon="1.73883">
        <ele>288</ele>
        <time>2017-09-21T09:19:37Z</time>
      </trkpt>
      <trkpt lat="44.54497" lon="1.73879">
        <ele>286</ele>
        <time>2017-09-21T09:19:50Z</time>
      </trkpt>
      <trkpt lat="44.54485" lon="1.73877">
        <ele>285</ele>
        <time>2017-09-21T09:20:00Z</time>
      </trkpt>
      <trkpt lat="44.54479" lon="1.73875">
        <ele>285</ele>
        <time>2017-09-21T09:20:04Z</time>
      </trkpt>
      <trkpt lat="44.54469" lon="1.73869">
        <ele>285</ele>
        <time>2017-09-21T09:20:13Z</time>
      </trkpt>
      <trkpt lat="44.54455" lon="1.73842">
        <ele>285</ele>
        <time>2017-09-21T09:20:38Z</time>
      </trkpt>
      <trkpt lat="44.54445" lon="1.73827">
        <ele>284</ele>
        <time>2017-09-21T09:20:50Z</time>
      </trkpt>
      <trkpt lat="44.54425" lon="1.73817">
        <ele>284</ele>
        <time>2017-09-21T09:21:08Z</time>
      </trkpt>
      <trkpt lat="44.54414" lon="1.7382">
        <ele>282</ele>
        <time>2017-09-21T09:21:18Z</time>
      </trkpt>
      <trkpt lat="44.54408" lon="1.73822">
        <ele>282</ele>
        <time>2017-09-21T09:21:23Z</time>
      </trkpt>
      <trkpt lat="44.54403" lon="1.73821">
        <ele>282</ele>
        <time>2017-09-21T09:21:28Z</time>
      </trkpt>
      <trkpt lat="44.54399" lon="1.73822">
        <ele>282</ele>
        <time>2017-09-21T09:21:33Z</time>
      </trkpt>
      <trkpt lat="44.5439" lon="1.73813">
        <ele>281</ele>
        <time>2017-09-21T09:21:41Z</time>
      </trkpt>
      <trkpt lat="44.54387" lon="1.73808">
        <ele>280</ele>
        <time>2017-09-21T09:21:45Z</time>
      </trkpt>
      <trkpt lat="44.54381" lon="1.73799">
        <ele>280</ele>
        <time>2017-09-21T09:21:53Z</time>
      </trkpt>
      <trkpt lat="44.54379" lon="1.73794">
        <ele>280</ele>
        <time>2017-09-21T09:21:57Z</time>
      </trkpt>
      <trkpt lat="44.54379" lon="1.73781">
        <ele>280</ele>
        <time>2017-09-21T09:22:08Z</time>
      </trkpt>
      <trkpt lat="44.54379" lon="1.73766">
        <ele>279</ele>
        <time>2017-09-21T09:22:20Z</time>
      </trkpt>
      <trkpt lat="44.54379" lon="1.73759">
        <ele>279</ele>
        <time>2017-09-21T09:22:24Z</time>
      </trkpt>
      <trkpt lat="44.54379" lon="1.73752">
        <ele>279</ele>
        <time>2017-09-21T09:22:30Z</time>
      </trkpt>
      <trkpt lat="44.54379" lon="1.73745">
        <ele>276</ele>
        <time>2017-09-21T09:22:34Z</time>
      </trkpt>
      <trkpt lat="44.54379" lon="1.73737">
        <ele>276</ele>
        <time>2017-09-21T09:22:41Z</time>
      </trkpt>
      <trkpt lat="44.54379" lon="1.7373">
        <ele>276</ele>
        <time>2017-09-21T09:22:47Z</time>
      </trkpt>
      <trkpt lat="44.54377" lon="1.73723">
        <ele>275</ele>
        <time>2017-09-21T09:22:51Z</time>
      </trkpt>
      <trkpt lat="44.54377" lon="1.73715">
        <ele>275</ele>
        <time>2017-09-21T09:22:56Z</time>
      </trkpt>
      <trkpt lat="44.54378" lon="1.73708">
        <ele>275</ele>
        <time>2017-09-21T09:23:01Z</time>
      </trkpt>
      <trkpt lat="44.54379" lon="1.73698">
        <ele>274</ele>
        <time>2017-09-21T09:23:09Z</time>
      </trkpt>
      <trkpt lat="44.54376" lon="1.73658">
        <ele>268</ele>
        <time>2017-09-21T09:23:32Z</time>
      </trkpt>
      <trkpt lat="44.54375" lon="1.73656">
        <ele>268</ele>
        <time>2017-09-21T09:23:34Z</time>
      </trkpt>
      <trkpt lat="44.54374" lon="1.73654">
        <ele>268</ele>
        <time>2017-09-21T09:23:36Z</time>
      </trkpt>
      <trkpt lat="44.54371" lon="1.73651">
        <ele>268</ele>
        <time>2017-09-21T09:23:39Z</time>
      </trkpt>
      <trkpt lat="44.54367" lon="1.73647">
        <ele>268</ele>
        <time>2017-09-21T09:23:44Z</time>
      </trkpt>
      <trkpt lat="44.54357" lon="1.73643">
        <ele>267</ele>
        <time>2017-09-21T09:23:54Z</time>
      </trkpt>
      <trkpt lat="44.54355" lon="1.73643">
        <ele>267</ele>
        <time>2017-09-21T09:23:56Z</time>
      </trkpt>
      <trkpt lat="44.54347" lon="1.73648">
        <ele>268</ele>
        <time>2017-09-21T09:24:03Z</time>
      </trkpt>
      <trkpt lat="44.54341" lon="1.73655">
        <ele>269</ele>
        <time>2017-09-21T09:24:10Z</time>
      </trkpt>
      <trkpt lat="44.54335" lon="1.73664">
        <ele>270</ele>
        <time>2017-09-21T09:24:17Z</time>
      </trkpt>
      <trkpt lat="44.54327" lon="1.73675">
        <ele>270</ele>
        <time>2017-09-21T09:24:27Z</time>
      </trkpt>
      <trkpt lat="44.5432" lon="1.73679">
        <ele>270</ele>
        <time>2017-09-21T09:24:35Z</time>
      </trkpt>
      <trkpt lat="44.54317" lon="1.73682">
        <ele>270</ele>
        <time>2017-09-21T09:24:40Z</time>
      </trkpt>
      <trkpt lat="44.54289" lon="1.73696">
        <ele>269</ele>
        <time>2017-09-21T09:25:01Z</time>
      </trkpt>
      <trkpt lat="44.54274" lon="1.737">
        <ele>269</ele>
        <time>2017-09-21T09:25:14Z</time>
      </trkpt>
      <trkpt lat="44.54265" lon="1.73701">
        <ele>269</ele>
        <time>2017-09-21T09:25:21Z</time>
      </trkpt>
      <trkpt lat="44.54251" lon="1.73702">
        <ele>269</ele>
        <time>2017-09-21T09:25:35Z</time>
      </trkpt>
      <trkpt lat="44.54246" lon="1.73704">
        <ele>265</ele>
        <time>2017-09-21T09:25:39Z</time>
      </trkpt>
      <trkpt lat="44.54241" lon="1.73702">
        <ele>265</ele>
        <time>2017-09-21T09:25:43Z</time>
      </trkpt>
      <trkpt lat="44.54232" lon="1.73703">
        <ele>265</ele>
        <time>2017-09-21T09:25:49Z</time>
      </trkpt>
      <trkpt lat="44.54229" lon="1.73703">
        <ele>265</ele>
        <time>2017-09-21T09:25:52Z</time>
      </trkpt>
      <trkpt lat="44.54225" lon="1.73704">
        <ele>265</ele>
        <time>2017-09-21T09:25:56Z</time>
      </trkpt>
      <trkpt lat="44.5422" lon="1.73706">
        <ele>265</ele>
        <time>2017-09-21T09:26:00Z</time>
      </trkpt>
      <trkpt lat="44.54216" lon="1.73706">
        <ele>265</ele>
        <time>2017-09-21T09:26:04Z</time>
      </trkpt>
      <trkpt lat="44.54212" lon="1.73709">
        <ele>265</ele>
        <time>2017-09-21T09:26:09Z</time>
      </trkpt>
      <trkpt lat="44.54203" lon="1.73715">
        <ele>265</ele>
        <time>2017-09-21T09:26:17Z</time>
      </trkpt>
      <trkpt lat="44.54162" lon="1.73747">
        <ele>264</ele>
        <time>2017-09-21T09:26:48Z</time>
      </trkpt>
      <trkpt lat="44.54161" lon="1.73748">
        <ele>264</ele>
        <time>2017-09-21T09:26:49Z</time>
      </trkpt>
      <trkpt lat="44.54131" lon="1.7377">
        <ele>264</ele>
        <time>2017-09-21T09:27:16Z</time>
      </trkpt>
      <trkpt lat="44.54121" lon="1.73773">
        <ele>264</ele>
        <time>2017-09-21T09:27:24Z</time>
      </trkpt>
      <trkpt lat="44.54103" lon="1.73788">
        <ele>263</ele>
        <time>2017-09-21T09:27:41Z</time>
      </trkpt>
      <trkpt lat="44.54101" lon="1.7379">
        <ele>263</ele>
        <time>2017-09-21T09:27:43Z</time>
      </trkpt>
      <trkpt lat="44.54098" lon="1.73792">
        <ele>263</ele>
        <time>2017-09-21T09:27:48Z</time>
      </trkpt>
      <trkpt lat="44.54096" lon="1.73794">
        <ele>263</ele>
        <time>2017-09-21T09:27:50Z</time>
      </trkpt>
      <trkpt lat="44.54094" lon="1.73795">
        <ele>263</ele>
        <time>2017-09-21T09:27:52Z</time>
      </trkpt>
      <trkpt lat="44.54091" lon="1.73795">
        <ele>263</ele>
        <time>2017-09-21T09:27:54Z</time>
      </trkpt>
      <trkpt lat="44.54078" lon="1.73802">
        <ele>265</ele>
        <time>2017-09-21T09:28:05Z</time>
      </trkpt>
      <trkpt lat="44.54077" lon="1.73802">
        <ele>265</ele>
        <time>2017-09-21T09:28:06Z</time>
      </trkpt>
      <trkpt lat="44.54059" lon="1.73812">
        <ele>266</ele>
        <time>2017-09-21T09:28:22Z</time>
      </trkpt>
      <trkpt lat="44.54043" lon="1.73816">
        <ele>266</ele>
        <time>2017-09-21T09:28:35Z</time>
      </trkpt>
      <trkpt lat="44.54038" lon="1.73817">
        <ele>267</ele>
        <time>2017-09-21T09:28:40Z</time>
      </trkpt>
      <trkpt lat="44.54034" lon="1.73814">
        <ele>267</ele>
        <time>2017-09-21T09:28:51Z</time>
      </trkpt>
      <trkpt lat="44.54035" lon="1.73804">
        <ele>267</ele>
        <time>2017-09-21T09:29:05Z</time>
      </trkpt>
      <trkpt lat="44.54041" lon="1.73797">
        <ele>267</ele>
        <time>2017-09-21T09:29:13Z</time>
      </trkpt>
      <trkpt lat="44.54046" lon="1.73789">
        <ele>267</ele>
        <time>2017-09-21T09:29:22Z</time>
      </trkpt>
      <trkpt lat="44.54047" lon="1.73778">
        <ele>267</ele>
        <time>2017-09-21T09:29:29Z</time>
      </trkpt>
      <trkpt lat="44.5405" lon="1.7377">
        <ele>266</ele>
        <time>2017-09-21T09:29:38Z</time>
      </trkpt>
      <trkpt lat="44.5405" lon="1.7376">
        <ele>266</ele>
        <time>2017-09-21T09:29:44Z</time>
      </trkpt>
      <trkpt lat="44.54049" lon="1.73751">
        <ele>266</ele>
        <time>2017-09-21T09:29:52Z</time>
      </trkpt>
      <trkpt lat="44.5405" lon="1.73742">
        <ele>266</ele>
        <time>2017-09-21T09:29:57Z</time>
      </trkpt>
      <trkpt lat="44.54051" lon="1.73735">
        <ele>266</ele>
        <time>2017-09-21T09:30:02Z</time>
      </trkpt>
      <trkpt lat="44.54054" lon="1.7373">
        <ele>265</ele>
        <time>2017-09-21T09:30:08Z</time>
      </trkpt>
      <trkpt lat="44.54055" lon="1.73721">
        <ele>265</ele>
        <time>2017-09-21T09:30:13Z</time>
      </trkpt>
      <trkpt lat="44.54054" lon="1.73712">
        <ele>265</ele>
        <time>2017-09-21T09:30:19Z</time>
      </trkpt>
      <trkpt lat="44.54053" lon="1.73703">
        <ele>265</ele>
        <time>2017-09-21T09:30:25Z</time>
      </trkpt>
      <trkpt lat="44.54053" lon="1.73695">
        <ele>265</ele>
        <time>2017-09-21T09:30:31Z</time>
      </trkpt>
      <trkpt lat="44.54054" lon="1.73686">
        <ele>265</ele>
        <time>2017-09-21T09:30:37Z</time>
      </trkpt>
      <trkpt lat="44.54054" lon="1.73671">
        <ele>264</ele>
        <time>2017-09-21T09:30:47Z</time>
      </trkpt>
      <trkpt lat="44.54053" lon="1.73661">
        <ele>262</ele>
        <time>2017-09-21T09:30:53Z</time>
      </trkpt>
      <trkpt lat="44.54052" lon="1.73654">
        <ele>262</ele>
        <time>2017-09-21T09:30:56Z</time>
      </trkpt>
      <trkpt lat="44.54051" lon="1.73648">
        <ele>262</ele>
        <time>2017-09-21T09:30:59Z</time>
      </trkpt>
      <trkpt lat="44.54049" lon="1.7364">
        <ele>261</ele>
        <time>2017-09-21T09:31:05Z</time>
      </trkpt>
      <trkpt lat="44.54045" lon="1.73623">
        <ele>261</ele>
        <time>2017-09-21T09:31:16Z</time>
      </trkpt>
      <trkpt lat="44.54042" lon="1.73615">
        <ele>261</ele>
        <time>2017-09-21T09:31:21Z</time>
      </trkpt>
      <trkpt lat="44.54037" lon="1.73608">
        <ele>261</ele>
        <time>2017-09-21T09:31:27Z</time>
      </trkpt>
      <trkpt lat="44.54028" lon="1.73595">
        <ele>261</ele>
        <time>2017-09-21T09:31:36Z</time>
      </trkpt>
      <trkpt lat="44.54024" lon="1.73586">
        <ele>261</ele>
        <time>2017-09-21T09:31:43Z</time>
      </trkpt>
      <trkpt lat="44.54019" lon="1.73581">
        <ele>257</ele>
        <time>2017-09-21T09:31:50Z</time>
      </trkpt>
      <trkpt lat="44.54015" lon="1.73574">
        <ele>257</ele>
        <time>2017-09-21T09:31:55Z</time>
      </trkpt>
      <trkpt lat="44.5401" lon="1.73566">
        <ele>256</ele>
        <time>2017-09-21T09:32:00Z</time>
      </trkpt>
      <trkpt lat="44.54008" lon="1.7356">
        <ele>256</ele>
        <time>2017-09-21T09:32:05Z</time>
      </trkpt>
      <trkpt lat="44.54005" lon="1.73553">
        <ele>255</ele>
        <time>2017-09-21T09:32:14Z</time>
      </trkpt>
      <trkpt lat="44.54002" lon="1.73546">
        <ele>254</ele>
        <time>2017-09-21T09:32:21Z</time>
      </trkpt>
      <trkpt lat="44.54" lon="1.73542">
        <ele>257</ele>
        <time>2017-09-21T09:32:24Z</time>
      </trkpt>
      <trkpt lat="44.53999" lon="1.73536">
        <ele>256</ele>
        <time>2017-09-21T09:32:43Z</time>
      </trkpt>
      <trkpt lat="44.53997" lon="1.73533">
        <ele>256</ele>
        <time>2017-09-21T09:32:51Z</time>
      </trkpt>
      <trkpt lat="44.53995" lon="1.73529">
        <ele>255</ele>
        <time>2017-09-21T09:33:22Z</time>
      </trkpt>
      <trkpt lat="44.53996" lon="1.73524">
        <ele>255</ele>
        <time>2017-09-21T09:33:28Z</time>
      </trkpt>
      <trkpt lat="44.53996" lon="1.73519">
        <ele>254</ele>
        <time>2017-09-21T09:33:37Z</time>
      </trkpt>
      <trkpt lat="44.53995" lon="1.73513">
        <ele>254</ele>
        <time>2017-09-21T09:33:43Z</time>
      </trkpt>
      <trkpt lat="44.53995" lon="1.73507">
        <ele>253</ele>
        <time>2017-09-21T09:33:49Z</time>
      </trkpt>
      <trkpt lat="44.53995" lon="1.73504">
        <ele>252</ele>
        <time>2017-09-21T09:33:52Z</time>
      </trkpt>
      <trkpt lat="44.53994" lon="1.735">
        <ele>252</ele>
        <time>2017-09-21T09:33:56Z</time>
      </trkpt>
      <trkpt lat="44.53994" lon="1.73497">
        <ele>250</ele>
        <time>2017-09-21T09:33:58Z</time>
      </trkpt>
      <trkpt lat="44.53994" lon="1.73493">
        <ele>249</ele>
        <time>2017-09-21T09:34:02Z</time>
      </trkpt>
      <trkpt lat="44.53994" lon="1.73488">
        <ele>249</ele>
        <time>2017-09-21T09:34:06Z</time>
      </trkpt>
      <trkpt lat="44.53995" lon="1.73484">
        <ele>248</ele>
        <time>2017-09-21T09:34:09Z</time>
      </trkpt>
      <trkpt lat="44.53996" lon="1.73475">
        <ele>247</ele>
        <time>2017-09-21T09:34:16Z</time>
      </trkpt>
      <trkpt lat="44.53997" lon="1.7347">
        <ele>247</ele>
        <time>2017-09-21T09:34:19Z</time>
      </trkpt>
      <trkpt lat="44.53999" lon="1.73465">
        <ele>246</ele>
        <time>2017-09-21T09:34:24Z</time>
      </trkpt>
      <trkpt lat="44.54" lon="1.7346">
        <ele>243</ele>
        <time>2017-09-21T09:34:28Z</time>
      </trkpt>
      <trkpt lat="44.54003" lon="1.73444">
        <ele>242</ele>
        <time>2017-09-21T09:34:44Z</time>
      </trkpt>
      <trkpt lat="44.54004" lon="1.73439">
        <ele>241</ele>
        <time>2017-09-21T09:34:49Z</time>
      </trkpt>
      <trkpt lat="44.54005" lon="1.73434">
        <ele>241</ele>
        <time>2017-09-21T09:34:54Z</time>
      </trkpt>
      <trkpt lat="44.54005" lon="1.73429">
        <ele>240</ele>
        <time>2017-09-21T09:34:58Z</time>
      </trkpt>
      <trkpt lat="44.54006" lon="1.73422">
        <ele>240</ele>
        <time>2017-09-21T09:35:04Z</time>
      </trkpt>
      <trkpt lat="44.54006" lon="1.73417">
        <ele>240</ele>
        <time>2017-09-21T09:35:07Z</time>
      </trkpt>
      <trkpt lat="44.54006" lon="1.73413">
        <ele>237</ele>
        <time>2017-09-21T09:35:10Z</time>
      </trkpt>
      <trkpt lat="44.54008" lon="1.73407">
        <ele>236</ele>
        <time>2017-09-21T09:35:16Z</time>
      </trkpt>
      <trkpt lat="44.5401" lon="1.73403">
        <ele>235</ele>
        <time>2017-09-21T09:35:19Z</time>
      </trkpt>
      <trkpt lat="44.54011" lon="1.73398">
        <ele>234</ele>
        <time>2017-09-21T09:35:23Z</time>
      </trkpt>
      <trkpt lat="44.54012" lon="1.73389">
        <ele>233</ele>
        <time>2017-09-21T09:35:30Z</time>
      </trkpt>
      <trkpt lat="44.54014" lon="1.73385">
        <ele>232</ele>
        <time>2017-09-21T09:35:34Z</time>
      </trkpt>
      <trkpt lat="44.54014" lon="1.73379">
        <ele>232</ele>
        <time>2017-09-21T09:35:38Z</time>
      </trkpt>
      <trkpt lat="44.54014" lon="1.73366">
        <ele>230</ele>
        <time>2017-09-21T09:35:50Z</time>
      </trkpt>
      <trkpt lat="44.54018" lon="1.73362">
        <ele>230</ele>
        <time>2017-09-21T09:35:55Z</time>
      </trkpt>
      <trkpt lat="44.54024" lon="1.73361">
        <ele>230</ele>
        <time>2017-09-21T09:36:00Z</time>
      </trkpt>
      <trkpt lat="44.54031" lon="1.7336">
        <ele>230</ele>
        <time>2017-09-21T09:36:06Z</time>
      </trkpt>
      <trkpt lat="44.54057" lon="1.73356">
        <ele>229</ele>
        <time>2017-09-21T09:36:32Z</time>
      </trkpt>
      <trkpt lat="44.54098" lon="1.73362">
        <ele>229</ele>
        <time>2017-09-21T09:37:04Z</time>
      </trkpt>
      <trkpt lat="44.54106" lon="1.73362">
        <ele>230</ele>
        <time>2017-09-21T09:37:11Z</time>
      </trkpt>
      <trkpt lat="44.54129" lon="1.73359">
        <ele>230</ele>
        <time>2017-09-21T09:37:34Z</time>
      </trkpt>
      <trkpt lat="44.54133" lon="1.73355">
        <ele>230</ele>
        <time>2017-09-21T09:37:38Z</time>
      </trkpt>
      <trkpt lat="44.54136" lon="1.7335">
        <ele>230</ele>
        <time>2017-09-21T09:37:41Z</time>
      </trkpt>
      <trkpt lat="44.54136" lon="1.7334">
        <ele>230</ele>
        <time>2017-09-21T09:37:47Z</time>
      </trkpt>
      <trkpt lat="44.54136" lon="1.73336">
        <ele>229</ele>
        <time>2017-09-21T09:37:50Z</time>
      </trkpt>
      <trkpt lat="44.5413" lon="1.73326">
        <ele>229</ele>
        <time>2017-09-21T09:37:58Z</time>
      </trkpt>
      <trkpt lat="44.54122" lon="1.73316">
        <ele>229</ele>
        <time>2017-09-21T09:38:08Z</time>
      </trkpt>
      <trkpt lat="44.54119" lon="1.73313">
        <ele>229</ele>
        <time>2017-09-21T09:38:11Z</time>
      </trkpt>
      <trkpt lat="44.54117" lon="1.73311">
        <ele>229</ele>
        <time>2017-09-21T09:38:14Z</time>
      </trkpt>
      <trkpt lat="44.54093" lon="1.73277">
        <ele>229</ele>
        <time>2017-09-21T09:39:38Z</time>
      </trkpt>
      <trkpt lat="44.54085" lon="1.73271">
        <ele>229</ele>
        <time>2017-09-21T09:39:48Z</time>
      </trkpt>
      <trkpt lat="44.54075" lon="1.73255">
        <ele>227</ele>
        <time>2017-09-21T09:40:00Z</time>
      </trkpt>
      <trkpt lat="44.54074" lon="1.73251">
        <ele>227</ele>
        <time>2017-09-21T09:40:02Z</time>
      </trkpt>
      <trkpt lat="44.54072" lon="1.73249">
        <ele>228</ele>
        <time>2017-09-21T09:40:09Z</time>
      </trkpt>
      <trkpt lat="44.5407" lon="1.73246">
        <ele>227</ele>
        <time>2017-09-21T09:40:12Z</time>
      </trkpt>
      <trkpt lat="44.54064" lon="1.73215">
        <ele>228</ele>
        <time>2017-09-21T09:40:33Z</time>
      </trkpt>
      <trkpt lat="44.54062" lon="1.73201">
        <ele>229</ele>
        <time>2017-09-21T09:40:44Z</time>
      </trkpt>
      <trkpt lat="44.54062" lon="1.73197">
        <ele>229</ele>
        <time>2017-09-21T09:40:47Z</time>
      </trkpt>
      <trkpt lat="44.54063" lon="1.73193">
        <ele>229</ele>
        <time>2017-09-21T09:40:51Z</time>
      </trkpt>
      <trkpt lat="44.54062" lon="1.73189">
        <ele>230</ele>
        <time>2017-09-21T09:40:55Z</time>
      </trkpt>
      <trkpt lat="44.54062" lon="1.73185">
        <ele>230</ele>
        <time>2017-09-21T09:40:58Z</time>
      </trkpt>
      <trkpt lat="44.54062" lon="1.73177">
        <ele>230</ele>
        <time>2017-09-21T09:41:04Z</time>
      </trkpt>
      <trkpt lat="44.54059" lon="1.73169">
        <ele>230</ele>
        <time>2017-09-21T09:41:10Z</time>
      </trkpt>
      <trkpt lat="44.54057" lon="1.73165">
        <ele>236</ele>
        <time>2017-09-21T09:41:13Z</time>
      </trkpt>
      <trkpt lat="44.54055" lon="1.73163">
        <ele>236</ele>
        <time>2017-09-21T09:41:16Z</time>
      </trkpt>
      <trkpt lat="44.54016" lon="1.73163">
        <ele>233</ele>
        <time>2017-09-21T09:41:47Z</time>
      </trkpt>
      <trkpt lat="44.54013" lon="1.73162">
        <ele>232</ele>
        <time>2017-09-21T09:41:49Z</time>
      </trkpt>
      <trkpt lat="44.53992" lon="1.7316">
        <ele>230</ele>
        <time>2017-09-21T09:42:07Z</time>
      </trkpt>
      <trkpt lat="44.53988" lon="1.73159">
        <ele>230</ele>
        <time>2017-09-21T09:42:10Z</time>
      </trkpt>
      <trkpt lat="44.53985" lon="1.73159">
        <ele>230</ele>
        <time>2017-09-21T09:42:13Z</time>
      </trkpt>
      <trkpt lat="44.53979" lon="1.7316">
        <ele>230</ele>
        <time>2017-09-21T09:42:18Z</time>
      </trkpt>
      <trkpt lat="44.5396" lon="1.73158">
        <ele>230</ele>
        <time>2017-09-21T09:42:35Z</time>
      </trkpt>
      <trkpt lat="44.53941" lon="1.73154">
        <ele>229</ele>
        <time>2017-09-21T09:42:51Z</time>
      </trkpt>
      <trkpt lat="44.5394" lon="1.73154">
        <ele>229</ele>
        <time>2017-09-21T09:42:52Z</time>
      </trkpt>
      <trkpt lat="44.53938" lon="1.73152">
        <ele>229</ele>
        <time>2017-09-21T09:42:54Z</time>
      </trkpt>
      <trkpt lat="44.53937" lon="1.7315">
        <ele>229</ele>
        <time>2017-09-21T09:42:56Z</time>
      </trkpt>
      <trkpt lat="44.53933" lon="1.73145">
        <ele>229</ele>
        <time>2017-09-21T09:43:00Z</time>
      </trkpt>
      <trkpt lat="44.53927" lon="1.73143">
        <ele>229</ele>
        <time>2017-09-21T09:43:05Z</time>
      </trkpt>
      <trkpt lat="44.53895" lon="1.73111">
        <ele>228</ele>
        <time>2017-09-21T09:43:38Z</time>
      </trkpt>
      <trkpt lat="44.53866" lon="1.7308">
        <ele>232</ele>
        <time>2017-09-21T09:44:10Z</time>
      </trkpt>
      <trkpt lat="44.53863" lon="1.73079">
        <ele>232</ele>
        <time>2017-09-21T09:44:13Z</time>
      </trkpt>
      <trkpt lat="44.5386" lon="1.7308">
        <ele>232</ele>
        <time>2017-09-21T09:44:16Z</time>
      </trkpt>
      <trkpt lat="44.53858" lon="1.7308">
        <ele>231</ele>
        <time>2017-09-21T09:44:18Z</time>
      </trkpt>
      <trkpt lat="44.53854" lon="1.73082">
        <ele>231</ele>
        <time>2017-09-21T09:44:21Z</time>
      </trkpt>
      <trkpt lat="44.53843" lon="1.7309">
        <ele>228</ele>
        <time>2017-09-21T09:44:31Z</time>
      </trkpt>
      <trkpt lat="44.53835" lon="1.73098">
        <ele>227</ele>
        <time>2017-09-21T09:44:40Z</time>
      </trkpt>
      <trkpt lat="44.53826" lon="1.73107">
        <ele>228</ele>
        <time>2017-09-21T09:44:51Z</time>
      </trkpt>
      <trkpt lat="44.53817" lon="1.73118">
        <ele>228</ele>
        <time>2017-09-21T09:45:01Z</time>
      </trkpt>
      <trkpt lat="44.53815" lon="1.7312">
        <ele>228</ele>
        <time>2017-09-21T09:45:03Z</time>
      </trkpt>
      <trkpt lat="44.53795" lon="1.73139">
        <ele>228</ele>
        <time>2017-09-21T09:45:21Z</time>
      </trkpt>
      <trkpt lat="44.53788" lon="1.73144">
        <ele>228</ele>
        <time>2017-09-21T09:45:27Z</time>
      </trkpt>
      <trkpt lat="44.53784" lon="1.73148">
        <ele>228</ele>
        <time>2017-09-21T09:45:31Z</time>
      </trkpt>
      <trkpt lat="44.5377" lon="1.73157">
        <ele>228</ele>
        <time>2017-09-21T09:45:43Z</time>
      </trkpt>
      <trkpt lat="44.53765" lon="1.73159">
        <ele>229</ele>
        <time>2017-09-21T09:45:48Z</time>
      </trkpt>
      <trkpt lat="44.53759" lon="1.7316">
        <ele>229</ele>
        <time>2017-09-21T09:45:53Z</time>
      </trkpt>
      <trkpt lat="44.53749" lon="1.73162">
        <ele>230</ele>
        <time>2017-09-21T09:46:01Z</time>
      </trkpt>
      <trkpt lat="44.53747" lon="1.73162">
        <ele>230</ele>
        <time>2017-09-21T09:46:03Z</time>
      </trkpt>
      <trkpt lat="44.5374" lon="1.73159">
        <ele>231</ele>
        <time>2017-09-21T09:46:09Z</time>
      </trkpt>
      <trkpt lat="44.53736" lon="1.73158">
        <ele>231</ele>
        <time>2017-09-21T09:46:12Z</time>
      </trkpt>
      <trkpt lat="44.5373" lon="1.73156">
        <ele>231</ele>
        <time>2017-09-21T09:46:18Z</time>
      </trkpt>
      <trkpt lat="44.53721" lon="1.73147">
        <ele>232</ele>
        <time>2017-09-21T09:46:27Z</time>
      </trkpt>
      <trkpt lat="44.53719" lon="1.73144">
        <ele>232</ele>
        <time>2017-09-21T09:46:30Z</time>
      </trkpt>
      <trkpt lat="44.53716" lon="1.73143">
        <ele>232</ele>
        <time>2017-09-21T09:46:32Z</time>
      </trkpt>
      <trkpt lat="44.53714" lon="1.7314">
        <ele>233</ele>
        <time>2017-09-21T09:46:34Z</time>
      </trkpt>
      <trkpt lat="44.5371" lon="1.73128">
        <ele>233</ele>
        <time>2017-09-21T09:46:42Z</time>
      </trkpt>
      <trkpt lat="44.53708" lon="1.73124">
        <ele>233</ele>
        <time>2017-09-21T09:46:46Z</time>
      </trkpt>
      <trkpt lat="44.53706" lon="1.73119">
        <ele>234</ele>
        <time>2017-09-21T09:46:50Z</time>
      </trkpt>
      <trkpt lat="44.53706" lon="1.73114">
        <ele>234</ele>
        <time>2017-09-21T09:46:53Z</time>
      </trkpt>
      <trkpt lat="44.53697" lon="1.73098">
        <ele>234</ele>
        <time>2017-09-21T09:47:06Z</time>
      </trkpt>
      <trkpt lat="44.53696" lon="1.73096">
        <ele>235</ele>
        <time>2017-09-21T09:47:08Z</time>
      </trkpt>
      <trkpt lat="44.53696" lon="1.73091">
        <ele>235</ele>
        <time>2017-09-21T09:47:17Z</time>
      </trkpt>
      <trkpt lat="44.53695" lon="1.73087">
        <ele>235</ele>
        <time>2017-09-21T09:47:20Z</time>
      </trkpt>
      <trkpt lat="44.5368" lon="1.73054">
        <ele>240</ele>
        <time>2017-09-21T09:47:47Z</time>
      </trkpt>
      <trkpt lat="44.53678" lon="1.73051">
        <ele>241</ele>
        <time>2017-09-21T09:47:50Z</time>
      </trkpt>
      <trkpt lat="44.53677" lon="1.73047">
        <ele>241</ele>
        <time>2017-09-21T09:47:53Z</time>
      </trkpt>
      <trkpt lat="44.5367" lon="1.73035">
        <ele>242</ele>
        <time>2017-09-21T09:48:02Z</time>
      </trkpt>
      <trkpt lat="44.53662" lon="1.73019">
        <ele>248</ele>
        <time>2017-09-21T09:48:16Z</time>
      </trkpt>
      <trkpt lat="44.53657" lon="1.73014">
        <ele>248</ele>
        <time>2017-09-21T09:48:23Z</time>
      </trkpt>
      <trkpt lat="44.53655" lon="1.73011">
        <ele>248</ele>
        <time>2017-09-21T09:48:27Z</time>
      </trkpt>
      <trkpt lat="44.53653" lon="1.73009">
        <ele>248</ele>
        <time>2017-09-21T09:48:29Z</time>
      </trkpt>
      <trkpt lat="44.5365" lon="1.73005">
        <ele>248</ele>
        <time>2017-09-21T09:48:33Z</time>
      </trkpt>
      <trkpt lat="44.53638" lon="1.72987">
        <ele>253</ele>
        <time>2017-09-21T09:48:51Z</time>
      </trkpt>
      <trkpt lat="44.53636" lon="1.72983">
        <ele>254</ele>
        <time>2017-09-21T09:48:54Z</time>
      </trkpt>
      <trkpt lat="44.53634" lon="1.72979">
        <ele>254</ele>
        <time>2017-09-21T09:48:56Z</time>
      </trkpt>
      <trkpt lat="44.53631" lon="1.72971">
        <ele>255</ele>
        <time>2017-09-21T09:49:02Z</time>
      </trkpt>
      <trkpt lat="44.53629" lon="1.72968">
        <ele>255</ele>
        <time>2017-09-21T09:49:06Z</time>
      </trkpt>
      <trkpt lat="44.53625" lon="1.7296">
        <ele>255</ele>
        <time>2017-09-21T09:49:13Z</time>
      </trkpt>
      <trkpt lat="44.53623" lon="1.72957">
        <ele>256</ele>
        <time>2017-09-21T09:49:17Z</time>
      </trkpt>
      <trkpt lat="44.53616" lon="1.72944">
        <ele>257</ele>
        <time>2017-09-21T09:49:28Z</time>
      </trkpt>
      <trkpt lat="44.53614" lon="1.7294">
        <ele>257</ele>
        <time>2017-09-21T09:49:32Z</time>
      </trkpt>
      <trkpt lat="44.53607" lon="1.72929">
        <ele>258</ele>
        <time>2017-09-21T09:49:43Z</time>
      </trkpt>
      <trkpt lat="44.53605" lon="1.72925">
        <ele>258</ele>
        <time>2017-09-21T09:49:46Z</time>
      </trkpt>
      <trkpt lat="44.53603" lon="1.7292">
        <ele>259</ele>
        <time>2017-09-21T09:49:50Z</time>
      </trkpt>
      <trkpt lat="44.53595" lon="1.72906">
        <ele>263</ele>
        <time>2017-09-21T09:50:02Z</time>
      </trkpt>
      <trkpt lat="44.53592" lon="1.72901">
        <ele>263</ele>
        <time>2017-09-21T09:50:07Z</time>
      </trkpt>
      <trkpt lat="44.53585" lon="1.72887">
        <ele>264</ele>
        <time>2017-09-21T09:50:18Z</time>
      </trkpt>
      <trkpt lat="44.53581" lon="1.72884">
        <ele>268</ele>
        <time>2017-09-21T09:50:22Z</time>
      </trkpt>
      <trkpt lat="44.53577" lon="1.72884">
        <ele>268</ele>
        <time>2017-09-21T09:50:26Z</time>
      </trkpt>
      <trkpt lat="44.53573" lon="1.72882">
        <ele>268</ele>
        <time>2017-09-21T09:50:54Z</time>
      </trkpt>
      <trkpt lat="44.53568" lon="1.72879">
        <ele>268</ele>
        <time>2017-09-21T09:50:59Z</time>
      </trkpt>
      <trkpt lat="44.53564" lon="1.72877">
        <ele>269</ele>
        <time>2017-09-21T09:51:03Z</time>
      </trkpt>
      <trkpt lat="44.5356" lon="1.72874">
        <ele>269</ele>
        <time>2017-09-21T09:51:08Z</time>
      </trkpt>
      <trkpt lat="44.5353" lon="1.72875">
        <ele>270</ele>
        <time>2017-09-21T09:51:39Z</time>
      </trkpt>
      <trkpt lat="44.53528" lon="1.72874">
        <ele>270</ele>
        <time>2017-09-21T09:51:41Z</time>
      </trkpt>
      <trkpt lat="44.53519" lon="1.72873">
        <ele>270</ele>
        <time>2017-09-21T09:52:00Z</time>
      </trkpt>
      <trkpt lat="44.53513" lon="1.72871">
        <ele>270</ele>
        <time>2017-09-21T09:52:04Z</time>
      </trkpt>
      <trkpt lat="44.53509" lon="1.72868">
        <ele>270</ele>
        <time>2017-09-21T09:52:08Z</time>
      </trkpt>
      <trkpt lat="44.53513" lon="1.72862">
        <ele>271</ele>
        <time>2017-09-21T09:52:13Z</time>
      </trkpt>
      <trkpt lat="44.53526" lon="1.7283">
        <ele>275</ele>
        <time>2017-09-21T09:52:34Z</time>
      </trkpt>
      <trkpt lat="44.53553" lon="1.728">
        <ele>276</ele>
        <time>2017-09-21T09:52:55Z</time>
      </trkpt>
      <trkpt lat="44.53556" lon="1.72794">
        <ele>276</ele>
        <time>2017-09-21T09:52:59Z</time>
      </trkpt>
      <trkpt lat="44.53567" lon="1.72787">
        <ele>277</ele>
        <time>2017-09-21T09:53:05Z</time>
      </trkpt>
      <trkpt lat="44.5357" lon="1.72782">
        <ele>277</ele>
        <time>2017-09-21T09:53:08Z</time>
      </trkpt>
      <trkpt lat="44.53575" lon="1.72767">
        <ele>278</ele>
        <time>2017-09-21T09:53:17Z</time>
      </trkpt>
      <trkpt lat="44.53567" lon="1.72747">
        <ele>282</ele>
        <time>2017-09-21T09:53:27Z</time>
      </trkpt>
      <trkpt lat="44.53533" lon="1.72702">
        <ele>286</ele>
        <time>2017-09-21T09:53:59Z</time>
      </trkpt>
      <trkpt lat="44.53528" lon="1.72699">
        <ele>286</ele>
        <time>2017-09-21T09:54:03Z</time>
      </trkpt>
      <trkpt lat="44.53516" lon="1.72689">
        <ele>287</ele>
        <time>2017-09-21T09:54:14Z</time>
      </trkpt>
      <trkpt lat="44.53493" lon="1.72674">
        <ele>290</ele>
        <time>2017-09-21T09:54:33Z</time>
      </trkpt>
      <trkpt lat="44.53479" lon="1.72664">
        <ele>291</ele>
        <time>2017-09-21T09:54:44Z</time>
      </trkpt>
      <trkpt lat="44.53476" lon="1.7266">
        <ele>291</ele>
        <time>2017-09-21T09:54:47Z</time>
      </trkpt>
      <trkpt lat="44.53472" lon="1.72655">
        <ele>290</ele>
        <time>2017-09-21T09:54:53Z</time>
      </trkpt>
      <trkpt lat="44.53466" lon="1.72639">
        <ele>290</ele>
        <time>2017-09-21T09:55:06Z</time>
      </trkpt>
      <trkpt lat="44.53464" lon="1.72631">
        <ele>290</ele>
        <time>2017-09-21T09:55:11Z</time>
      </trkpt>
      <trkpt lat="44.53467" lon="1.72623">
        <ele>290</ele>
        <time>2017-09-21T09:55:17Z</time>
      </trkpt>
      <trkpt lat="44.53466" lon="1.72615">
        <ele>290</ele>
        <time>2017-09-21T09:55:22Z</time>
      </trkpt>
      <trkpt lat="44.53467" lon="1.726">
        <ele>291</ele>
        <time>2017-09-21T09:55:31Z</time>
      </trkpt>
      <trkpt lat="44.53468" lon="1.72591">
        <ele>291</ele>
        <time>2017-09-21T09:55:36Z</time>
      </trkpt>
      <trkpt lat="44.53469" lon="1.72577">
        <ele>292</ele>
        <time>2017-09-21T09:55:43Z</time>
      </trkpt>
      <trkpt lat="44.5347" lon="1.72568">
        <ele>292</ele>
        <time>2017-09-21T09:55:47Z</time>
      </trkpt>
      <trkpt lat="44.53468" lon="1.72563">
        <ele>292</ele>
        <time>2017-09-21T09:55:59Z</time>
      </trkpt>
      <trkpt lat="44.53467" lon="1.72557">
        <ele>292</ele>
        <time>2017-09-21T09:56:17Z</time>
      </trkpt>
      <trkpt lat="44.53469" lon="1.72551">
        <ele>292</ele>
        <time>2017-09-21T09:56:23Z</time>
      </trkpt>
      <trkpt lat="44.53469" lon="1.72546">
        <ele>293</ele>
        <time>2017-09-21T09:56:27Z</time>
      </trkpt>
      <trkpt lat="44.5347" lon="1.72539">
        <ele>293</ele>
        <time>2017-09-21T09:56:32Z</time>
      </trkpt>
      <trkpt lat="44.5347" lon="1.72533">
        <ele>293</ele>
        <time>2017-09-21T09:56:38Z</time>
      </trkpt>
      <trkpt lat="44.53468" lon="1.72526">
        <ele>293</ele>
        <time>2017-09-21T09:56:43Z</time>
      </trkpt>
      <trkpt lat="44.53467" lon="1.72518">
        <ele>293</ele>
        <time>2017-09-21T09:56:48Z</time>
      </trkpt>
      <trkpt lat="44.53467" lon="1.72511">
        <ele>293</ele>
        <time>2017-09-21T09:56:56Z</time>
      </trkpt>
      <trkpt lat="44.53468" lon="1.72504">
        <ele>293</ele>
        <time>2017-09-21T09:57:00Z</time>
      </trkpt>
      <trkpt lat="44.5347" lon="1.7248">
        <ele>295</ele>
        <time>2017-09-21T09:57:18Z</time>
      </trkpt>
      <trkpt lat="44.53472" lon="1.72467">
        <ele>295</ele>
        <time>2017-09-21T09:57:26Z</time>
      </trkpt>
      <trkpt lat="44.53472" lon="1.7246">
        <ele>295</ele>
        <time>2017-09-21T09:57:30Z</time>
      </trkpt>
      <trkpt lat="44.53474" lon="1.7244">
        <ele>295</ele>
        <time>2017-09-21T09:57:41Z</time>
      </trkpt>
      <trkpt lat="44.53477" lon="1.72435">
        <ele>295</ele>
        <time>2017-09-21T09:57:46Z</time>
      </trkpt>
      <trkpt lat="44.53477" lon="1.72427">
        <ele>295</ele>
        <time>2017-09-21T09:57:51Z</time>
      </trkpt>
      <trkpt lat="44.53477" lon="1.72404">
        <ele>296</ele>
        <time>2017-09-21T09:58:06Z</time>
      </trkpt>
      <trkpt lat="44.53475" lon="1.72397">
        <ele>296</ele>
        <time>2017-09-21T09:58:12Z</time>
      </trkpt>
      <trkpt lat="44.53471" lon="1.72391">
        <ele>296</ele>
        <time>2017-09-21T09:58:16Z</time>
      </trkpt>
      <trkpt lat="44.53467" lon="1.72384">
        <ele>296</ele>
        <time>2017-09-21T09:58:24Z</time>
      </trkpt>
      <trkpt lat="44.5345" lon="1.72366">
        <ele>296</ele>
        <time>2017-09-21T09:58:38Z</time>
      </trkpt>
      <trkpt lat="44.53447" lon="1.72362">
        <ele>295</ele>
        <time>2017-09-21T09:58:42Z</time>
      </trkpt>
      <trkpt lat="44.53444" lon="1.72358">
        <ele>295</ele>
        <time>2017-09-21T09:58:53Z</time>
      </trkpt>
      <trkpt lat="44.53444" lon="1.72353">
        <ele>295</ele>
        <time>2017-09-21T10:00:29Z</time>
      </trkpt>
      <trkpt lat="44.53446" lon="1.72348">
        <ele>295</ele>
        <time>2017-09-21T10:00:32Z</time>
      </trkpt>
      <trkpt lat="44.53449" lon="1.72337">
        <ele>296</ele>
        <time>2017-09-21T10:00:40Z</time>
      </trkpt>
      <trkpt lat="44.53449" lon="1.72331">
        <ele>295</ele>
        <time>2017-09-21T10:00:44Z</time>
      </trkpt>
      <trkpt lat="44.5344" lon="1.72315">
        <ele>295</ele>
        <time>2017-09-21T10:00:54Z</time>
      </trkpt>
      <trkpt lat="44.53433" lon="1.72307">
        <ele>294</ele>
        <time>2017-09-21T10:01:01Z</time>
      </trkpt>
      <trkpt lat="44.53429" lon="1.72303">
        <ele>294</ele>
        <time>2017-09-21T10:01:06Z</time>
      </trkpt>
      <trkpt lat="44.53388" lon="1.72295">
        <ele>292</ele>
        <time>2017-09-21T10:01:39Z</time>
      </trkpt>
      <trkpt lat="44.53356" lon="1.72286">
        <ele>292</ele>
        <time>2017-09-21T10:02:06Z</time>
      </trkpt>
      <trkpt lat="44.53351" lon="1.72284">
        <ele>292</ele>
        <time>2017-09-21T10:02:11Z</time>
      </trkpt>
      <trkpt lat="44.53346" lon="1.72282">
        <ele>292</ele>
        <time>2017-09-21T10:02:15Z</time>
      </trkpt>
      <trkpt lat="44.53341" lon="1.7228">
        <ele>292</ele>
        <time>2017-09-21T10:02:19Z</time>
      </trkpt>
      <trkpt lat="44.53327" lon="1.72273">
        <ele>290</ele>
        <time>2017-09-21T10:02:31Z</time>
      </trkpt>
      <trkpt lat="44.5331" lon="1.7227">
        <ele>290</ele>
        <time>2017-09-21T10:02:44Z</time>
      </trkpt>
      <trkpt lat="44.53307" lon="1.72271">
        <ele>290</ele>
        <time>2017-09-21T10:02:46Z</time>
      </trkpt>
      <trkpt lat="44.53305" lon="1.72271">
        <ele>290</ele>
        <time>2017-09-21T10:02:48Z</time>
      </trkpt>
      <trkpt lat="44.53303" lon="1.7227">
        <ele>290</ele>
        <time>2017-09-21T10:02:50Z</time>
      </trkpt>
      <trkpt lat="44.53298" lon="1.72268">
        <ele>290</ele>
        <time>2017-09-21T10:02:54Z</time>
      </trkpt>
      <trkpt lat="44.53265" lon="1.72258">
        <ele>289</ele>
        <time>2017-09-21T10:03:24Z</time>
      </trkpt>
      <trkpt lat="44.53253" lon="1.72256">
        <ele>288</ele>
        <time>2017-09-21T10:03:35Z</time>
      </trkpt>
      <trkpt lat="44.53222" lon="1.7225">
        <ele>287</ele>
        <time>2017-09-21T10:04:01Z</time>
      </trkpt>
      <trkpt lat="44.53212" lon="1.72246">
        <ele>286</ele>
        <time>2017-09-21T10:04:09Z</time>
      </trkpt>
      <trkpt lat="44.5321" lon="1.72246">
        <ele>286</ele>
        <time>2017-09-21T10:04:11Z</time>
      </trkpt>
      <trkpt lat="44.53194" lon="1.72244">
        <ele>286</ele>
        <time>2017-09-21T10:04:24Z</time>
      </trkpt>
      <trkpt lat="44.53187" lon="1.72241">
        <ele>286</ele>
        <time>2017-09-21T10:04:30Z</time>
      </trkpt>
      <trkpt lat="44.53182" lon="1.72241">
        <ele>286</ele>
        <time>2017-09-21T10:04:34Z</time>
      </trkpt>
      <trkpt lat="44.53145" lon="1.72231">
        <ele>286</ele>
        <time>2017-09-21T10:05:07Z</time>
      </trkpt>
      <trkpt lat="44.53141" lon="1.72231">
        <ele>286</ele>
        <time>2017-09-21T10:05:10Z</time>
      </trkpt>
      <trkpt lat="44.53132" lon="1.72228">
        <ele>286</ele>
        <time>2017-09-21T10:05:17Z</time>
      </trkpt>
      <trkpt lat="44.5311" lon="1.72226">
        <ele>286</ele>
        <time>2017-09-21T10:05:37Z</time>
      </trkpt>
      <trkpt lat="44.53098" lon="1.7223">
        <ele>287</ele>
        <time>2017-09-21T10:05:46Z</time>
      </trkpt>
      <trkpt lat="44.53093" lon="1.72232">
        <ele>287</ele>
        <time>2017-09-21T10:05:51Z</time>
      </trkpt>
      <trkpt lat="44.53088" lon="1.72234">
        <ele>287</ele>
        <time>2017-09-21T10:05:54Z</time>
      </trkpt>
      <trkpt lat="44.53077" lon="1.72239">
        <ele>287</ele>
        <time>2017-09-21T10:06:03Z</time>
      </trkpt>
      <trkpt lat="44.53071" lon="1.72241">
        <ele>287</ele>
        <time>2017-09-21T10:06:08Z</time>
      </trkpt>
      <trkpt lat="44.53066" lon="1.72241">
        <ele>286</ele>
        <time>2017-09-21T10:06:12Z</time>
      </trkpt>
      <trkpt lat="44.53061" lon="1.72241">
        <ele>286</ele>
        <time>2017-09-21T10:06:18Z</time>
      </trkpt>
      <trkpt lat="44.53055" lon="1.72241">
        <ele>286</ele>
        <time>2017-09-21T10:06:23Z</time>
      </trkpt>
      <trkpt lat="44.53051" lon="1.72242">
        <ele>286</ele>
        <time>2017-09-21T10:06:27Z</time>
      </trkpt>
      <trkpt lat="44.53046" lon="1.72247">
        <ele>286</ele>
        <time>2017-09-21T10:06:32Z</time>
      </trkpt>
      <trkpt lat="44.5304" lon="1.72249">
        <ele>286</ele>
        <time>2017-09-21T10:06:37Z</time>
      </trkpt>
      <trkpt lat="44.53035" lon="1.72255">
        <ele>287</ele>
        <time>2017-09-21T10:06:41Z</time>
      </trkpt>
      <trkpt lat="44.5303" lon="1.72258">
        <ele>287</ele>
        <time>2017-09-21T10:06:46Z</time>
      </trkpt>
      <trkpt lat="44.53018" lon="1.72263">
        <ele>287</ele>
        <time>2017-09-21T10:06:58Z</time>
      </trkpt>
      <trkpt lat="44.53006" lon="1.72272">
        <ele>287</ele>
        <time>2017-09-21T10:07:12Z</time>
      </trkpt>
      <trkpt lat="44.52984" lon="1.72271">
        <ele>288</ele>
        <time>2017-09-21T10:07:29Z</time>
      </trkpt>
      <trkpt lat="44.52978" lon="1.72273">
        <ele>288</ele>
        <time>2017-09-21T10:07:34Z</time>
      </trkpt>
      <trkpt lat="44.52973" lon="1.72275">
        <ele>288</ele>
        <time>2017-09-21T10:07:39Z</time>
      </trkpt>
      <trkpt lat="44.52954" lon="1.72286">
        <ele>288</ele>
        <time>2017-09-21T10:07:57Z</time>
      </trkpt>
      <trkpt lat="44.52916" lon="1.72295">
        <ele>289</ele>
        <time>2017-09-21T10:08:25Z</time>
      </trkpt>
      <trkpt lat="44.5291" lon="1.72296">
        <ele>289</ele>
        <time>2017-09-21T10:08:30Z</time>
      </trkpt>
      <trkpt lat="44.52904" lon="1.72298">
        <ele>289</ele>
        <time>2017-09-21T10:08:36Z</time>
      </trkpt>
      <trkpt lat="44.52892" lon="1.72303">
        <ele>289</ele>
        <time>2017-09-21T10:08:48Z</time>
      </trkpt>
      <trkpt lat="44.52886" lon="1.72305">
        <ele>289</ele>
        <time>2017-09-21T10:08:54Z</time>
      </trkpt>
      <trkpt lat="44.52881" lon="1.72308">
        <ele>289</ele>
        <time>2017-09-21T10:08:58Z</time>
      </trkpt>
      <trkpt lat="44.52874" lon="1.72309">
        <ele>289</ele>
        <time>2017-09-21T10:09:05Z</time>
      </trkpt>
      <trkpt lat="44.52864" lon="1.72315">
        <ele>289</ele>
        <time>2017-09-21T10:09:14Z</time>
      </trkpt>
      <trkpt lat="44.52859" lon="1.7232">
        <ele>290</ele>
        <time>2017-09-21T10:09:19Z</time>
      </trkpt>
      <trkpt lat="44.52826" lon="1.72323">
        <ele>291</ele>
        <time>2017-09-21T10:09:42Z</time>
      </trkpt>
      <trkpt lat="44.52813" lon="1.72325">
        <ele>290</ele>
        <time>2017-09-21T10:09:51Z</time>
      </trkpt>
      <trkpt lat="44.52792" lon="1.72323">
        <ele>290</ele>
        <time>2017-09-21T10:10:06Z</time>
      </trkpt>
      <trkpt lat="44.52784" lon="1.72324">
        <ele>290</ele>
        <time>2017-09-21T10:10:13Z</time>
      </trkpt>
      <trkpt lat="44.52753" lon="1.72326">
        <ele>291</ele>
        <time>2017-09-21T10:10:36Z</time>
      </trkpt>
      <trkpt lat="44.52749" lon="1.72324">
        <ele>291</ele>
        <time>2017-09-21T10:10:39Z</time>
      </trkpt>
      <trkpt lat="44.52727" lon="1.72325">
        <ele>291</ele>
        <time>2017-09-21T10:10:56Z</time>
      </trkpt>
      <trkpt lat="44.52723" lon="1.72325">
        <ele>291</ele>
        <time>2017-09-21T10:11:00Z</time>
      </trkpt>
      <trkpt lat="44.52709" lon="1.72326">
        <ele>291</ele>
        <time>2017-09-21T10:11:13Z</time>
      </trkpt>
      <trkpt lat="44.52704" lon="1.72326">
        <ele>291</ele>
        <time>2017-09-21T10:11:17Z</time>
      </trkpt>
      <trkpt lat="44.52698" lon="1.72324">
        <ele>291</ele>
        <time>2017-09-21T10:11:21Z</time>
      </trkpt>
      <trkpt lat="44.52693" lon="1.72323">
        <ele>291</ele>
        <time>2017-09-21T10:11:25Z</time>
      </trkpt>
      <trkpt lat="44.52678" lon="1.72327">
        <ele>292</ele>
        <time>2017-09-21T10:11:36Z</time>
      </trkpt>
      <trkpt lat="44.52672" lon="1.7233">
        <ele>292</ele>
        <time>2017-09-21T10:11:40Z</time>
      </trkpt>
      <trkpt lat="44.52661" lon="1.7233">
        <ele>293</ele>
        <time>2017-09-21T10:11:48Z</time>
      </trkpt>
      <trkpt lat="44.52654" lon="1.72333">
        <ele>292</ele>
        <time>2017-09-21T10:11:54Z</time>
      </trkpt>
      <trkpt lat="44.52635" lon="1.72332">
        <ele>292</ele>
        <time>2017-09-21T10:12:09Z</time>
      </trkpt>
      <trkpt lat="44.5263" lon="1.72333">
        <ele>292</ele>
        <time>2017-09-21T10:12:13Z</time>
      </trkpt>
      <trkpt lat="44.52628" lon="1.72333">
        <ele>292</ele>
        <time>2017-09-21T10:12:15Z</time>
      </trkpt>
      <trkpt lat="44.52625" lon="1.72333">
        <ele>293</ele>
        <time>2017-09-21T10:12:17Z</time>
      </trkpt>
      <trkpt lat="44.52623" lon="1.72334">
        <ele>293</ele>
        <time>2017-09-21T10:12:19Z</time>
      </trkpt>
      <trkpt lat="44.52621" lon="1.72335">
        <ele>293</ele>
        <time>2017-09-21T10:12:21Z</time>
      </trkpt>
      <trkpt lat="44.52596" lon="1.72336">
        <ele>294</ele>
        <time>2017-09-21T10:12:41Z</time>
      </trkpt>
      <trkpt lat="44.52591" lon="1.72337">
        <ele>294</ele>
        <time>2017-09-21T10:12:45Z</time>
      </trkpt>
      <trkpt lat="44.5258" lon="1.72338">
        <ele>294</ele>
        <time>2017-09-21T10:12:55Z</time>
      </trkpt>
      <trkpt lat="44.52578" lon="1.72338">
        <ele>293</ele>
        <time>2017-09-21T10:12:57Z</time>
      </trkpt>
      <trkpt lat="44.52575" lon="1.7234">
        <ele>293</ele>
        <time>2017-09-21T10:12:59Z</time>
      </trkpt>
      <trkpt lat="44.52572" lon="1.72344">
        <ele>293</ele>
        <time>2017-09-21T10:13:02Z</time>
      </trkpt>
      <trkpt lat="44.52571" lon="1.72348">
        <ele>293</ele>
        <time>2017-09-21T10:13:06Z</time>
      </trkpt>
      <trkpt lat="44.5257" lon="1.72354">
        <ele>293</ele>
        <time>2017-09-21T10:13:10Z</time>
      </trkpt>
      <trkpt lat="44.52537" lon="1.72358">
        <ele>292</ele>
        <time>2017-09-21T10:13:36Z</time>
      </trkpt>
      <trkpt lat="44.52528" lon="1.7236">
        <ele>292</ele>
        <time>2017-09-21T10:13:46Z</time>
      </trkpt>
      <trkpt lat="44.52525" lon="1.72365">
        <ele>292</ele>
        <time>2017-09-21T10:13:49Z</time>
      </trkpt>
      <trkpt lat="44.52521" lon="1.7237">
        <ele>292</ele>
        <time>2017-09-21T10:13:57Z</time>
      </trkpt>
      <trkpt lat="44.52499" lon="1.72381">
        <ele>288</ele>
        <time>2017-09-21T10:14:14Z</time>
      </trkpt>
      <trkpt lat="44.52494" lon="1.72383">
        <ele>288</ele>
        <time>2017-09-21T10:14:17Z</time>
      </trkpt>
      <trkpt lat="44.52488" lon="1.72385">
        <ele>288</ele>
        <time>2017-09-21T10:14:21Z</time>
      </trkpt>
      <trkpt lat="44.52449" lon="1.72384">
        <ele>286</ele>
        <time>2017-09-21T10:14:51Z</time>
      </trkpt>
      <trkpt lat="44.52443" lon="1.72383">
        <ele>286</ele>
        <time>2017-09-21T10:14:55Z</time>
      </trkpt>
      <trkpt lat="44.52439" lon="1.72383">
        <ele>286</ele>
        <time>2017-09-21T10:15:05Z</time>
      </trkpt>
      <trkpt lat="44.52436" lon="1.72381">
        <ele>286</ele>
        <time>2017-09-21T10:15:16Z</time>
      </trkpt>
      <trkpt lat="44.52433" lon="1.72381">
        <ele>286</ele>
        <time>2017-09-21T10:15:19Z</time>
      </trkpt>
      <trkpt lat="44.52429" lon="1.72382">
        <ele>286</ele>
        <time>2017-09-21T10:15:23Z</time>
      </trkpt>
      <trkpt lat="44.52426" lon="1.72383">
        <ele>285</ele>
        <time>2017-09-21T10:15:27Z</time>
      </trkpt>
      <trkpt lat="44.52422" lon="1.72384">
        <ele>285</ele>
        <time>2017-09-21T10:15:30Z</time>
      </trkpt>
      <trkpt lat="44.52418" lon="1.72383">
        <ele>285</ele>
        <time>2017-09-21T10:15:33Z</time>
      </trkpt>
      <trkpt lat="44.52416" lon="1.72383">
        <ele>281</ele>
        <time>2017-09-21T10:15:36Z</time>
      </trkpt>
      <trkpt lat="44.52404" lon="1.72382">
        <ele>281</ele>
        <time>2017-09-21T10:15:48Z</time>
      </trkpt>
      <trkpt lat="44.52401" lon="1.72382">
        <ele>281</ele>
        <time>2017-09-21T10:15:51Z</time>
      </trkpt>
      <trkpt lat="44.52397" lon="1.72381">
        <ele>281</ele>
        <time>2017-09-21T10:15:54Z</time>
      </trkpt>
      <trkpt lat="44.52377" lon="1.72379">
        <ele>281</ele>
        <time>2017-09-21T10:16:13Z</time>
      </trkpt>
      <trkpt lat="44.5237" lon="1.7238">
        <ele>281</ele>
        <time>2017-09-21T10:16:19Z</time>
      </trkpt>
      <trkpt lat="44.52366" lon="1.72381">
        <ele>280</ele>
        <time>2017-09-21T10:16:22Z</time>
      </trkpt>
      <trkpt lat="44.52362" lon="1.72379">
        <ele>280</ele>
        <time>2017-09-21T10:16:26Z</time>
      </trkpt>
      <trkpt lat="44.52358" lon="1.72378">
        <ele>280</ele>
        <time>2017-09-21T10:16:31Z</time>
      </trkpt>
      <trkpt lat="44.52353" lon="1.72379">
        <ele>280</ele>
        <time>2017-09-21T10:16:35Z</time>
      </trkpt>
      <trkpt lat="44.52345" lon="1.72377">
        <ele>280</ele>
        <time>2017-09-21T10:16:42Z</time>
      </trkpt>
      <trkpt lat="44.52341" lon="1.72377">
        <ele>280</ele>
        <time>2017-09-21T10:16:45Z</time>
      </trkpt>
      <trkpt lat="44.52329" lon="1.72378">
        <ele>277</ele>
        <time>2017-09-21T10:16:56Z</time>
      </trkpt>
      <trkpt lat="44.52325" lon="1.72379">
        <ele>277</ele>
        <time>2017-09-21T10:17:00Z</time>
      </trkpt>
      <trkpt lat="44.52322" lon="1.7238">
        <ele>277</ele>
        <time>2017-09-21T10:17:04Z</time>
      </trkpt>
      <trkpt lat="44.52318" lon="1.72381">
        <ele>277</ele>
        <time>2017-09-21T10:17:08Z</time>
      </trkpt>
      <trkpt lat="44.52313" lon="1.72384">
        <ele>276</ele>
        <time>2017-09-21T10:17:14Z</time>
      </trkpt>
      <trkpt lat="44.5231" lon="1.72386">
        <ele>276</ele>
        <time>2017-09-21T10:17:17Z</time>
      </trkpt>
      <trkpt lat="44.523" lon="1.72391">
        <ele>276</ele>
        <time>2017-09-21T10:17:26Z</time>
      </trkpt>
      <trkpt lat="44.52297" lon="1.72392">
        <ele>275</ele>
        <time>2017-09-21T10:17:29Z</time>
      </trkpt>
      <trkpt lat="44.52294" lon="1.72392">
        <ele>275</ele>
        <time>2017-09-21T10:17:32Z</time>
      </trkpt>
      <trkpt lat="44.5229" lon="1.72394">
        <ele>275</ele>
        <time>2017-09-21T10:17:35Z</time>
      </trkpt>
      <trkpt lat="44.52287" lon="1.72395">
        <ele>275</ele>
        <time>2017-09-21T10:17:38Z</time>
      </trkpt>
      <trkpt lat="44.52284" lon="1.72396">
        <ele>275</ele>
        <time>2017-09-21T10:17:41Z</time>
      </trkpt>
      <trkpt lat="44.52281" lon="1.72398">
        <ele>274</ele>
        <time>2017-09-21T10:17:43Z</time>
      </trkpt>
      <trkpt lat="44.52269" lon="1.72396">
        <ele>274</ele>
        <time>2017-09-21T10:17:54Z</time>
      </trkpt>
      <trkpt lat="44.52264" lon="1.72395">
        <ele>273</ele>
        <time>2017-09-21T10:17:59Z</time>
      </trkpt>
      <trkpt lat="44.52259" lon="1.72395">
        <ele>273</ele>
        <time>2017-09-21T10:18:02Z</time>
      </trkpt>
      <trkpt lat="44.52255" lon="1.72394">
        <ele>273</ele>
        <time>2017-09-21T10:18:06Z</time>
      </trkpt>
      <trkpt lat="44.52248" lon="1.72393">
        <ele>271</ele>
        <time>2017-09-21T10:18:12Z</time>
      </trkpt>
      <trkpt lat="44.52245" lon="1.72389">
        <ele>272</ele>
        <time>2017-09-21T10:18:17Z</time>
      </trkpt>
      <trkpt lat="44.5224" lon="1.7239">
        <ele>272</ele>
        <time>2017-09-21T10:18:21Z</time>
      </trkpt>
      <trkpt lat="44.52236" lon="1.72389">
        <ele>272</ele>
        <time>2017-09-21T10:18:25Z</time>
      </trkpt>
      <trkpt lat="44.52224" lon="1.72395">
        <ele>271</ele>
        <time>2017-09-21T10:18:36Z</time>
      </trkpt>
      <trkpt lat="44.52221" lon="1.72396">
        <ele>271</ele>
        <time>2017-09-21T10:18:39Z</time>
      </trkpt>
      <trkpt lat="44.52217" lon="1.72396">
        <ele>271</ele>
        <time>2017-09-21T10:18:42Z</time>
      </trkpt>
      <trkpt lat="44.52214" lon="1.72397">
        <ele>271</ele>
        <time>2017-09-21T10:18:45Z</time>
      </trkpt>
      <trkpt lat="44.52207" lon="1.72398">
        <ele>271</ele>
        <time>2017-09-21T10:18:53Z</time>
      </trkpt>
      <trkpt lat="44.52203" lon="1.72397">
        <ele>271</ele>
        <time>2017-09-21T10:18:57Z</time>
      </trkpt>
      <trkpt lat="44.52196" lon="1.72398">
        <ele>270</ele>
        <time>2017-09-21T10:19:07Z</time>
      </trkpt>
      <trkpt lat="44.52187" lon="1.72398">
        <ele>269</ele>
        <time>2017-09-21T10:19:15Z</time>
      </trkpt>
      <trkpt lat="44.52184" lon="1.72397">
        <ele>269</ele>
        <time>2017-09-21T10:19:18Z</time>
      </trkpt>
      <trkpt lat="44.52173" lon="1.72395">
        <ele>268</ele>
        <time>2017-09-21T10:19:29Z</time>
      </trkpt>
      <trkpt lat="44.52159" lon="1.72382">
        <ele>266</ele>
        <time>2017-09-21T10:19:45Z</time>
      </trkpt>
      <trkpt lat="44.52156" lon="1.72379">
        <ele>267</ele>
        <time>2017-09-21T10:19:49Z</time>
      </trkpt>
      <trkpt lat="44.52151" lon="1.72378">
        <ele>266</ele>
        <time>2017-09-21T10:19:54Z</time>
      </trkpt>
      <trkpt lat="44.52147" lon="1.72377">
        <ele>267</ele>
        <time>2017-09-21T10:19:57Z</time>
      </trkpt>
      <trkpt lat="44.52143" lon="1.72374">
        <ele>267</ele>
        <time>2017-09-21T10:20:01Z</time>
      </trkpt>
      <trkpt lat="44.52125" lon="1.72369">
        <ele>266</ele>
        <time>2017-09-21T10:20:21Z</time>
      </trkpt>
      <trkpt lat="44.52121" lon="1.72369">
        <ele>266</ele>
        <time>2017-09-21T10:20:25Z</time>
      </trkpt>
      <trkpt lat="44.52116" lon="1.7237">
        <ele>266</ele>
        <time>2017-09-21T10:20:30Z</time>
      </trkpt>
      <trkpt lat="44.52112" lon="1.72371">
        <ele>265</ele>
        <time>2017-09-21T10:20:34Z</time>
      </trkpt>
      <trkpt lat="44.52109" lon="1.72373">
        <ele>265</ele>
        <time>2017-09-21T10:20:38Z</time>
      </trkpt>
      <trkpt lat="44.52105" lon="1.72371">
        <ele>265</ele>
        <time>2017-09-21T10:20:46Z</time>
      </trkpt>
      <trkpt lat="44.52101" lon="1.72372">
        <ele>265</ele>
        <time>2017-09-21T10:20:49Z</time>
      </trkpt>
      <trkpt lat="44.52097" lon="1.72374">
        <ele>264</ele>
        <time>2017-09-21T10:20:53Z</time>
      </trkpt>
      <trkpt lat="44.52085" lon="1.72375">
        <ele>263</ele>
        <time>2017-09-21T10:21:05Z</time>
      </trkpt>
      <trkpt lat="44.52081" lon="1.72376">
        <ele>255</ele>
        <time>2017-09-21T10:21:09Z</time>
      </trkpt>
      <trkpt lat="44.52077" lon="1.72376">
        <ele>255</ele>
        <time>2017-09-21T10:21:13Z</time>
      </trkpt>
      <trkpt lat="44.52074" lon="1.72375">
        <ele>255</ele>
        <time>2017-09-21T10:21:16Z</time>
      </trkpt>
      <trkpt lat="44.52062" lon="1.72369">
        <ele>255</ele>
        <time>2017-09-21T10:21:28Z</time>
      </trkpt>
      <trkpt lat="44.52054" lon="1.72369">
        <ele>255</ele>
        <time>2017-09-21T10:21:35Z</time>
      </trkpt>
      <trkpt lat="44.52051" lon="1.7237">
        <ele>254</ele>
        <time>2017-09-21T10:21:39Z</time>
      </trkpt>
      <trkpt lat="44.52042" lon="1.72369">
        <ele>253</ele>
        <time>2017-09-21T10:21:47Z</time>
      </trkpt>
      <trkpt lat="44.52038" lon="1.72367">
        <ele>253</ele>
        <time>2017-09-21T10:21:51Z</time>
      </trkpt>
      <trkpt lat="44.5202" lon="1.7237">
        <ele>252</ele>
        <time>2017-09-21T10:22:08Z</time>
      </trkpt>
      <trkpt lat="44.52011" lon="1.72368">
        <ele>252</ele>
        <time>2017-09-21T10:22:18Z</time>
      </trkpt>
      <trkpt lat="44.52006" lon="1.72369">
        <ele>251</ele>
        <time>2017-09-21T10:22:21Z</time>
      </trkpt>
      <trkpt lat="44.51997" lon="1.72368">
        <ele>240</ele>
        <time>2017-09-21T10:22:28Z</time>
      </trkpt>
      <trkpt lat="44.51993" lon="1.72369">
        <ele>239</ele>
        <time>2017-09-21T10:22:31Z</time>
      </trkpt>
      <trkpt lat="44.51988" lon="1.72368">
        <ele>239</ele>
        <time>2017-09-21T10:22:35Z</time>
      </trkpt>
      <trkpt lat="44.51985" lon="1.7237">
        <ele>238</ele>
        <time>2017-09-21T10:22:39Z</time>
      </trkpt>
      <trkpt lat="44.51963" lon="1.72358">
        <ele>237</ele>
        <time>2017-09-21T10:23:00Z</time>
      </trkpt>
      <trkpt lat="44.5196" lon="1.72356">
        <ele>237</ele>
        <time>2017-09-21T10:23:04Z</time>
      </trkpt>
      <trkpt lat="44.51943" lon="1.72351">
        <ele>235</ele>
        <time>2017-09-21T10:23:20Z</time>
      </trkpt>
      <trkpt lat="44.5194" lon="1.72349">
        <ele>234</ele>
        <time>2017-09-21T10:23:23Z</time>
      </trkpt>
      <trkpt lat="44.51937" lon="1.72345">
        <ele>234</ele>
        <time>2017-09-21T10:23:27Z</time>
      </trkpt>
      <trkpt lat="44.51933" lon="1.72342">
        <ele>234</ele>
        <time>2017-09-21T10:23:33Z</time>
      </trkpt>
      <trkpt lat="44.51929" lon="1.72342">
        <ele>234</ele>
        <time>2017-09-21T10:23:37Z</time>
      </trkpt>
      <trkpt lat="44.5192" lon="1.72339">
        <ele>233</ele>
        <time>2017-09-21T10:23:44Z</time>
      </trkpt>
      <trkpt lat="44.51917" lon="1.72337">
        <ele>233</ele>
        <time>2017-09-21T10:23:47Z</time>
      </trkpt>
      <trkpt lat="44.51914" lon="1.72336">
        <ele>230</ele>
        <time>2017-09-21T10:23:51Z</time>
      </trkpt>
      <trkpt lat="44.51911" lon="1.72336">
        <ele>228</ele>
        <time>2017-09-21T10:23:54Z</time>
      </trkpt>
      <trkpt lat="44.51904" lon="1.72335">
        <ele>225</ele>
        <time>2017-09-21T10:24:01Z</time>
      </trkpt>
      <trkpt lat="44.51898" lon="1.72333">
        <ele>230</ele>
        <time>2017-09-21T10:24:08Z</time>
      </trkpt>
      <trkpt lat="44.51895" lon="1.7233">
        <ele>230</ele>
        <time>2017-09-21T10:24:12Z</time>
      </trkpt>
      <trkpt lat="44.51892" lon="1.7233">
        <ele>230</ele>
        <time>2017-09-21T10:24:16Z</time>
      </trkpt>
      <trkpt lat="44.51875" lon="1.72324">
        <ele>227</ele>
        <time>2017-09-21T10:24:34Z</time>
      </trkpt>
      <trkpt lat="44.51872" lon="1.72323">
        <ele>227</ele>
        <time>2017-09-21T10:24:37Z</time>
      </trkpt>
      <trkpt lat="44.51869" lon="1.72321">
        <ele>226</ele>
        <time>2017-09-21T10:24:42Z</time>
      </trkpt>
      <trkpt lat="44.51867" lon="1.72319">
        <ele>226</ele>
        <time>2017-09-21T10:24:45Z</time>
      </trkpt>
      <trkpt lat="44.51864" lon="1.72316">
        <ele>225</ele>
        <time>2017-09-21T10:24:48Z</time>
      </trkpt>
      <trkpt lat="44.51859" lon="1.72315">
        <ele>225</ele>
        <time>2017-09-21T10:24:52Z</time>
      </trkpt>
      <trkpt lat="44.51856" lon="1.72312">
        <ele>224</ele>
        <time>2017-09-21T10:24:57Z</time>
      </trkpt>
      <trkpt lat="44.51852" lon="1.7231">
        <ele>224</ele>
        <time>2017-09-21T10:25:01Z</time>
      </trkpt>
      <trkpt lat="44.51835" lon="1.72298">
        <ele>224</ele>
        <time>2017-09-21T10:25:18Z</time>
      </trkpt>
      <trkpt lat="44.51831" lon="1.72294">
        <ele>210</ele>
        <time>2017-09-21T10:25:22Z</time>
      </trkpt>
      <trkpt lat="44.51828" lon="1.72291">
        <ele>210</ele>
        <time>2017-09-21T10:25:26Z</time>
      </trkpt>
      <trkpt lat="44.51826" lon="1.72288">
        <ele>210</ele>
        <time>2017-09-21T10:25:34Z</time>
      </trkpt>
      <trkpt lat="44.51824" lon="1.72287">
        <ele>210</ele>
        <time>2017-09-21T10:26:27Z</time>
      </trkpt>
      <trkpt lat="44.51823" lon="1.72285">
        <ele>210</ele>
        <time>2017-09-21T10:26:52Z</time>
      </trkpt>
      <trkpt lat="44.5182" lon="1.72282">
        <ele>210</ele>
        <time>2017-09-21T10:26:58Z</time>
      </trkpt>
      <trkpt lat="44.51815" lon="1.72275">
        <ele>210</ele>
        <time>2017-09-21T10:27:07Z</time>
      </trkpt>
      <trkpt lat="44.51809" lon="1.72268">
        <ele>210</ele>
        <time>2017-09-21T10:27:14Z</time>
      </trkpt>
      <trkpt lat="44.51801" lon="1.72253">
        <ele>209</ele>
        <time>2017-09-21T10:27:27Z</time>
      </trkpt>
      <trkpt lat="44.518" lon="1.7225">
        <ele>207</ele>
        <time>2017-09-21T10:27:30Z</time>
      </trkpt>
      <trkpt lat="44.51799" lon="1.72246">
        <ele>207</ele>
        <time>2017-09-21T10:27:33Z</time>
      </trkpt>
      <trkpt lat="44.51798" lon="1.72242">
        <ele>207</ele>
        <time>2017-09-21T10:27:42Z</time>
      </trkpt>
      <trkpt lat="44.51797" lon="1.72237">
        <ele>206</ele>
        <time>2017-09-21T10:27:48Z</time>
      </trkpt>
      <trkpt lat="44.51795" lon="1.72225">
        <ele>205</ele>
        <time>2017-09-21T10:27:58Z</time>
      </trkpt>
      <trkpt lat="44.51795" lon="1.72216">
        <ele>205</ele>
        <time>2017-09-21T10:28:03Z</time>
      </trkpt>
      <trkpt lat="44.51796" lon="1.72212">
        <ele>204</ele>
        <time>2017-09-21T10:28:06Z</time>
      </trkpt>
      <trkpt lat="44.51795" lon="1.72208">
        <ele>204</ele>
        <time>2017-09-21T10:28:09Z</time>
      </trkpt>
      <trkpt lat="44.51797" lon="1.72203">
        <ele>204</ele>
        <time>2017-09-21T10:28:13Z</time>
      </trkpt>
      <trkpt lat="44.51797" lon="1.72199">
        <ele>204</ele>
        <time>2017-09-21T10:28:16Z</time>
      </trkpt>
      <trkpt lat="44.518" lon="1.72193">
        <ele>204</ele>
        <time>2017-09-21T10:28:22Z</time>
      </trkpt>
      <trkpt lat="44.51801" lon="1.72186">
        <ele>203</ele>
        <time>2017-09-21T10:28:28Z</time>
      </trkpt>
      <trkpt lat="44.51804" lon="1.72178">
        <ele>203</ele>
        <time>2017-09-21T10:28:38Z</time>
      </trkpt>
      <trkpt lat="44.51805" lon="1.72167">
        <ele>203</ele>
        <time>2017-09-21T10:28:50Z</time>
      </trkpt>
      <trkpt lat="44.51807" lon="1.72163">
        <ele>194</ele>
        <time>2017-09-21T10:28:56Z</time>
      </trkpt>
      <trkpt lat="44.51808" lon="1.72162">
        <ele>194</ele>
        <time>2017-09-21T10:30:49Z</time>
      </trkpt>
      <trkpt lat="44.51808" lon="1.72163">
        <ele>194</ele>
        <time>2017-09-21T10:32:11Z</time>
      </trkpt>
      <trkpt lat="44.51808" lon="1.72161">
        <ele>194</ele>
        <time>2017-09-21T10:32:53Z</time>
      </trkpt>
      <trkpt lat="44.51805" lon="1.72163">
        <ele>193</ele>
        <time>2017-09-21T10:33:28Z</time>
      </trkpt>
      <trkpt lat="44.51791" lon="1.7217">
        <ele>201</ele>
        <time>2017-09-21T10:33:40Z</time>
      </trkpt>
      <trkpt lat="44.51781" lon="1.72178">
        <ele>200</ele>
        <time>2017-09-21T10:33:51Z</time>
      </trkpt>
      <trkpt lat="44.51765" lon="1.72211">
        <ele>201</ele>
        <time>2017-09-21T10:34:15Z</time>
      </trkpt>
      <trkpt lat="44.51762" lon="1.72228">
        <ele>201</ele>
        <time>2017-09-21T10:34:25Z</time>
      </trkpt>
      <trkpt lat="44.51759" lon="1.72233">
        <ele>200</ele>
        <time>2017-09-21T10:34:31Z</time>
      </trkpt>
      <trkpt lat="44.51757" lon="1.72236">
        <ele>200</ele>
        <time>2017-09-21T10:34:40Z</time>
      </trkpt>
      <trkpt lat="44.51755" lon="1.72239">
        <ele>199</ele>
        <time>2017-09-21T10:34:43Z</time>
      </trkpt>
      <trkpt lat="44.51752" lon="1.72243">
        <ele>199</ele>
        <time>2017-09-21T10:34:49Z</time>
      </trkpt>
      <trkpt lat="44.5175" lon="1.72245">
        <ele>198</ele>
        <time>2017-09-21T10:34:52Z</time>
      </trkpt>
      <trkpt lat="44.51743" lon="1.72252">
        <ele>194</ele>
        <time>2017-09-21T10:35:03Z</time>
      </trkpt>
      <trkpt lat="44.51741" lon="1.72255">
        <ele>192</ele>
        <time>2017-09-21T10:35:08Z</time>
      </trkpt>
      <trkpt lat="44.51739" lon="1.72259">
        <ele>191</ele>
        <time>2017-09-21T10:35:11Z</time>
      </trkpt>
      <trkpt lat="44.51737" lon="1.72263">
        <ele>190</ele>
        <time>2017-09-21T10:35:15Z</time>
      </trkpt>
      <trkpt lat="44.51735" lon="1.72267">
        <ele>189</ele>
        <time>2017-09-21T10:35:19Z</time>
      </trkpt>
      <trkpt lat="44.51735" lon="1.72271">
        <ele>188</ele>
        <time>2017-09-21T10:35:22Z</time>
      </trkpt>
      <trkpt lat="44.51734" lon="1.72275">
        <ele>188</ele>
        <time>2017-09-21T10:35:27Z</time>
      </trkpt>
      <trkpt lat="44.51732" lon="1.72284">
        <ele>187</ele>
        <time>2017-09-21T10:35:35Z</time>
      </trkpt>
      <trkpt lat="44.51731" lon="1.72289">
        <ele>187</ele>
        <time>2017-09-21T10:35:38Z</time>
      </trkpt>
      <trkpt lat="44.51729" lon="1.72294">
        <ele>186</ele>
        <time>2017-09-21T10:35:42Z</time>
      </trkpt>
      <trkpt lat="44.51728" lon="1.723">
        <ele>186</ele>
        <time>2017-09-21T10:35:49Z</time>
      </trkpt>
      <trkpt lat="44.51727" lon="1.72304">
        <ele>186</ele>
        <time>2017-09-21T10:35:54Z</time>
      </trkpt>
      <trkpt lat="44.51725" lon="1.72309">
        <ele>186</ele>
        <time>2017-09-21T10:36:00Z</time>
      </trkpt>
      <trkpt lat="44.51721" lon="1.72313">
        <ele>185</ele>
        <time>2017-09-21T10:36:11Z</time>
      </trkpt>
      <trkpt lat="44.51718" lon="1.72317">
        <ele>185</ele>
        <time>2017-09-21T10:36:15Z</time>
      </trkpt>
      <trkpt lat="44.5171" lon="1.72325">
        <ele>184</ele>
        <time>2017-09-21T10:36:27Z</time>
      </trkpt>
      <trkpt lat="44.51707" lon="1.72327">
        <ele>183</ele>
        <time>2017-09-21T10:36:30Z</time>
      </trkpt>
      <trkpt lat="44.51705" lon="1.72331">
        <ele>183</ele>
        <time>2017-09-21T10:36:35Z</time>
      </trkpt>
      <trkpt lat="44.51703" lon="1.72335">
        <ele>179</ele>
        <time>2017-09-21T10:36:38Z</time>
      </trkpt>
      <trkpt lat="44.517" lon="1.72337">
        <ele>178</ele>
        <time>2017-09-21T10:38:46Z</time>
      </trkpt>
      <trkpt lat="44.51697" lon="1.72338">
        <ele>178</ele>
        <time>2017-09-21T10:38:51Z</time>
      </trkpt>
      <trkpt lat="44.51697" lon="1.72342">
        <ele>178</ele>
        <time>2017-09-21T10:39:04Z</time>
      </trkpt>
      <trkpt lat="44.51695" lon="1.72342">
        <ele>177</ele>
        <time>2017-09-21T10:39:26Z</time>
      </trkpt>
      <trkpt lat="44.51696" lon="1.72341">
        <ele>177</ele>
        <time>2017-09-21T10:39:42Z</time>
      </trkpt>
      <trkpt lat="44.51694" lon="1.7234">
        <ele>177</ele>
        <time>2017-09-21T10:40:05Z</time>
      </trkpt>
      <trkpt lat="44.51693" lon="1.72338">
        <ele>177</ele>
        <time>2017-09-21T10:40:33Z</time>
      </trkpt>
      <trkpt lat="44.51691" lon="1.72337">
        <ele>177</ele>
        <time>2017-09-21T10:40:35Z</time>
      </trkpt>
      <trkpt lat="44.51693" lon="1.72339">
        <ele>177</ele>
        <time>2017-09-21T10:40:51Z</time>
      </trkpt>
      <trkpt lat="44.51701" lon="1.72346">
        <ele>178</ele>
        <time>2017-09-21T10:40:59Z</time>
      </trkpt>
      <trkpt lat="44.51714" lon="1.72351">
        <ele>180</ele>
        <time>2017-09-21T10:41:09Z</time>
      </trkpt>
      <trkpt lat="44.51717" lon="1.72353">
        <ele>180</ele>
        <time>2017-09-21T10:41:12Z</time>
      </trkpt>
      <trkpt lat="44.51735" lon="1.72362">
        <ele>181</ele>
        <time>2017-09-21T10:41:28Z</time>
      </trkpt>
      <trkpt lat="44.51744" lon="1.72368">
        <ele>181</ele>
        <time>2017-09-21T10:41:37Z</time>
      </trkpt>
      <trkpt lat="44.51749" lon="1.72375">
        <ele>180</ele>
        <time>2017-09-21T10:41:43Z</time>
      </trkpt>
      <trkpt lat="44.51773" lon="1.72389">
        <ele>191</ele>
        <time>2017-09-21T10:42:05Z</time>
      </trkpt>
      <trkpt lat="44.51779" lon="1.72391">
        <ele>191</ele>
        <time>2017-09-21T10:42:11Z</time>
      </trkpt>
      <trkpt lat="44.51783" lon="1.72392">
        <ele>192</ele>
        <time>2017-09-21T10:42:14Z</time>
      </trkpt>
      <trkpt lat="44.51787" lon="1.72394">
        <ele>192</ele>
        <time>2017-09-21T10:42:17Z</time>
      </trkpt>
      <trkpt lat="44.51786" lon="1.72392">
        <ele>192</ele>
        <time>2017-09-21T10:42:49Z</time>
      </trkpt>
      <trkpt lat="44.51767" lon="1.72384">
        <ele>191</ele>
        <time>2017-09-21T10:43:05Z</time>
      </trkpt>
      <trkpt lat="44.51758" lon="1.72376">
        <ele>191</ele>
        <time>2017-09-21T10:43:14Z</time>
      </trkpt>
      <trkpt lat="44.51754" lon="1.72375">
        <ele>191</ele>
        <time>2017-09-21T10:43:17Z</time>
      </trkpt>
      <trkpt lat="44.5175" lon="1.72372">
        <ele>181</ele>
        <time>2017-09-21T10:43:20Z</time>
      </trkpt>
      <trkpt lat="44.51746" lon="1.72371">
        <ele>181</ele>
        <time>2017-09-21T10:43:23Z</time>
      </trkpt>
      <trkpt lat="44.51738" lon="1.72365">
        <ele>181</ele>
        <time>2017-09-21T10:43:29Z</time>
      </trkpt>
      <trkpt lat="44.51715" lon="1.72351">
        <ele>180</ele>
        <time>2017-09-21T10:43:48Z</time>
      </trkpt>
      <trkpt lat="44.5171" lon="1.72347">
        <ele>179</ele>
        <time>2017-09-21T10:43:52Z</time>
      </trkpt>
      <trkpt lat="44.51707" lon="1.72344">
        <ele>179</ele>
        <time>2017-09-21T10:43:57Z</time>
      </trkpt>
      <trkpt lat="44.51703" lon="1.72343">
        <ele>178</ele>
        <time>2017-09-21T10:44:01Z</time>
      </trkpt>
      <trkpt lat="44.51699" lon="1.72341">
        <ele>178</ele>
        <time>2017-09-21T10:44:06Z</time>
      </trkpt>
      <trkpt lat="44.51699" lon="1.72341">
        <ele>178</ele>
        <time>2017-09-21T10:47:40Z</time>
      </trkpt>
      <trkpt lat="44.51696" lon="1.7234">
        <ele>177</ele>
        <time>2017-09-21T10:50:40Z</time>
      </trkpt>
      <trkpt lat="44.51686" lon="1.72327">
        <ele>179</ele>
        <time>2017-09-21T10:50:52Z</time>
      </trkpt>
      <trkpt lat="44.51682" lon="1.72324">
        <ele>179</ele>
        <time>2017-09-21T10:50:56Z</time>
      </trkpt>
      <trkpt lat="44.51668" lon="1.72311">
        <ele>179</ele>
        <time>2017-09-21T10:51:11Z</time>
      </trkpt>
      <trkpt lat="44.51664" lon="1.72309">
        <ele>166</ele>
        <time>2017-09-21T10:51:15Z</time>
      </trkpt>
      <trkpt lat="44.51662" lon="1.72305">
        <ele>166</ele>
        <time>2017-09-21T10:51:18Z</time>
      </trkpt>
      <trkpt lat="44.5166" lon="1.72302">
        <ele>165</ele>
        <time>2017-09-21T10:51:22Z</time>
      </trkpt>
      <trkpt lat="44.51658" lon="1.72305">
        <ele>165</ele>
        <time>2017-09-21T10:51:27Z</time>
      </trkpt>
      <trkpt lat="44.5166" lon="1.7231">
        <ele>166</ele>
        <time>2017-09-21T10:51:30Z</time>
      </trkpt>
      <trkpt lat="44.5166" lon="1.72316">
        <ele>167</ele>
        <time>2017-09-21T10:51:33Z</time>
      </trkpt>
      <trkpt lat="44.51661" lon="1.72321">
        <ele>168</ele>
        <time>2017-09-21T10:51:36Z</time>
      </trkpt>
      <trkpt lat="44.51671" lon="1.72371">
        <ele>175</ele>
        <time>2017-09-21T10:52:05Z</time>
      </trkpt>
      <trkpt lat="44.51673" lon="1.72379">
        <ele>175</ele>
        <time>2017-09-21T10:52:09Z</time>
      </trkpt>
      <trkpt lat="44.51677" lon="1.72391">
        <ele>174</ele>
        <time>2017-09-21T10:52:17Z</time>
      </trkpt>
      <trkpt lat="44.51679" lon="1.72393">
        <ele>174</ele>
        <time>2017-09-21T10:52:51Z</time>
      </trkpt>
      <trkpt lat="44.5168" lon="1.72398">
        <ele>173</ele>
        <time>2017-09-21T10:52:54Z</time>
      </trkpt>
      <trkpt lat="44.51682" lon="1.72408">
        <ele>172</ele>
        <time>2017-09-21T10:53:00Z</time>
      </trkpt>
      <trkpt lat="44.51684" lon="1.72406">
        <ele>173</ele>
        <time>2017-09-21T10:53:30Z</time>
      </trkpt>
      <trkpt lat="44.51684" lon="1.72401">
        <ele>173</ele>
        <time>2017-09-21T10:53:33Z</time>
      </trkpt>
      <trkpt lat="44.51684" lon="1.72391">
        <ele>174</ele>
        <time>2017-09-21T10:53:39Z</time>
      </trkpt>
      <trkpt lat="44.51682" lon="1.72391">
        <ele>174</ele>
        <time>2017-09-21T10:54:26Z</time>
      </trkpt>
      <trkpt lat="44.51681" lon="1.72395">
        <ele>174</ele>
        <time>2017-09-21T10:55:17Z</time>
      </trkpt>
      <trkpt lat="44.51682" lon="1.72397">
        <ele>173</ele>
        <time>2017-09-21T10:56:39Z</time>
      </trkpt>
      <trkpt lat="44.51679" lon="1.72404">
        <ele>172</ele>
        <time>2017-09-21T10:57:11Z</time>
      </trkpt>
      <trkpt lat="44.51678" lon="1.72412">
        <ele>171</ele>
        <time>2017-09-21T10:57:17Z</time>
      </trkpt>
      <trkpt lat="44.51678" lon="1.72414">
        <ele>171</ele>
        <time>2017-09-21T10:57:19Z</time>
      </trkpt>
      <trkpt lat="44.51679" lon="1.72417">
        <ele>168</ele>
        <time>2017-09-21T10:57:21Z</time>
      </trkpt>
      <trkpt lat="44.5168" lon="1.72424">
        <ele>168</ele>
        <time>2017-09-21T10:57:26Z</time>
      </trkpt>
      <trkpt lat="44.51678" lon="1.72437">
        <ele>168</ele>
        <time>2017-09-21T10:57:33Z</time>
      </trkpt>
      <trkpt lat="44.5168" lon="1.72448">
        <ele>168</ele>
        <time>2017-09-21T10:57:40Z</time>
      </trkpt>
      <trkpt lat="44.51682" lon="1.72454">
        <ele>167</ele>
        <time>2017-09-21T10:57:43Z</time>
      </trkpt>
      <trkpt lat="44.51685" lon="1.72456">
        <ele>167</ele>
        <time>2017-09-21T10:57:46Z</time>
      </trkpt>
      <trkpt lat="44.51687" lon="1.72457">
        <ele>167</ele>
        <time>2017-09-21T10:57:48Z</time>
      </trkpt>
      <trkpt lat="44.51692" lon="1.72456">
        <ele>168</ele>
        <time>2017-09-21T10:57:54Z</time>
      </trkpt>
      <trkpt lat="44.51695" lon="1.72455">
        <ele>168</ele>
        <time>2017-09-21T10:57:57Z</time>
      </trkpt>
      <trkpt lat="44.51698" lon="1.72456">
        <ele>168</ele>
        <time>2017-09-21T10:58:00Z</time>
      </trkpt>
      <trkpt lat="44.517" lon="1.72457">
        <ele>168</ele>
        <time>2017-09-21T10:58:03Z</time>
      </trkpt>
      <trkpt lat="44.51703" lon="1.72455">
        <ele>168</ele>
        <time>2017-09-21T10:58:07Z</time>
      </trkpt>
      <trkpt lat="44.51706" lon="1.72453">
        <ele>169</ele>
        <time>2017-09-21T10:58:10Z</time>
      </trkpt>
      <trkpt lat="44.51709" lon="1.72452">
        <ele>169</ele>
        <time>2017-09-21T10:58:13Z</time>
      </trkpt>
      <trkpt lat="44.51712" lon="1.72454">
        <ele>169</ele>
        <time>2017-09-21T10:58:21Z</time>
      </trkpt>
      <trkpt lat="44.51716" lon="1.72455">
        <ele>169</ele>
        <time>2017-09-21T12:33:12Z</time>
      </trkpt>
      <trkpt lat="44.51716" lon="1.72458">
        <ele>169</ele>
        <time>2017-09-21T12:25:12Z</time>
      </trkpt>
      <trkpt lat="44.51716" lon="1.72459">
        <ele>169</ele>
        <time>2017-09-21T11:00:22Z</time>
      </trkpt>
      <trkpt lat="44.51717" lon="1.72462">
        <ele>169</ele>
        <time>2017-09-21T11:02:00Z</time>
      </trkpt>
      <trkpt lat="44.51719" lon="1.7246">
        <ele>169</ele>
        <time>2017-09-21T12:25:16Z</time>
      </trkpt>
      <trkpt lat="44.51718" lon="1.7246">
        <ele>169</ele>
        <time>2017-09-21T11:02:50Z</time>
      </trkpt>
      <trkpt lat="44.51715" lon="1.72459">
        <ele>169</ele>
        <time>2017-09-21T12:37:57Z</time>
      </trkpt>
      <trkpt lat="44.51712" lon="1.72461">
        <ele>169</ele>
        <time>2017-09-21T11:03:13Z</time>
      </trkpt>
      <trkpt lat="44.5171" lon="1.72462">
        <ele>168</ele>
        <time>2017-09-21T11:03:16Z</time>
      </trkpt>
      <trkpt lat="44.51708" lon="1.72464">
        <ele>168</ele>
        <time>2017-09-21T11:03:19Z</time>
      </trkpt>
      <trkpt lat="44.51706" lon="1.72465">
        <ele>168</ele>
        <time>2017-09-21T11:03:24Z</time>
      </trkpt>
      <trkpt lat="44.51705" lon="1.72464">
        <ele>168</ele>
        <time>2017-09-21T11:04:27Z</time>
      </trkpt>
      <trkpt lat="44.51705" lon="1.72465">
        <ele>168</ele>
        <time>2017-09-21T11:04:38Z</time>
      </trkpt>
      <trkpt lat="44.51706" lon="1.72468">
        <ele>168</ele>
        <time>2017-09-21T11:04:41Z</time>
      </trkpt>
      <trkpt lat="44.51707" lon="1.72466">
        <ele>168</ele>
        <time>2017-09-21T11:06:26Z</time>
      </trkpt>
      <trkpt lat="44.51709" lon="1.72466">
        <ele>168</ele>
        <time>2017-09-21T11:43:45Z</time>
      </trkpt>
      <trkpt lat="44.51709" lon="1.72467">
        <ele>168</ele>
        <time>2017-09-21T12:12:06Z</time>
      </trkpt>
      <trkpt lat="44.51708" lon="1.72466">
        <ele>168</ele>
        <time>2017-09-21T12:14:47Z</time>
      </trkpt>
      <trkpt lat="44.51712" lon="1.72467">
        <ele>168</ele>
        <time>2017-09-21T12:20:38Z</time>
      </trkpt>
      <trkpt lat="44.51709" lon="1.72464">
        <ele>168</ele>
        <time>2017-09-21T12:24:24Z</time>
      </trkpt>
      <trkpt lat="44.51713" lon="1.72458">
        <ele>169</ele>
        <time>2017-09-21T12:38:00Z</time>
      </trkpt>
      <trkpt lat="44.51715" lon="1.72453">
        <ele>169</ele>
        <time>2017-09-21T12:24:35Z</time>
      </trkpt>
      <trkpt lat="44.51716" lon="1.72458">
        <ele>169</ele>
        <time>2017-09-21T12:25:12Z</time>
      </trkpt>
      <trkpt lat="44.51719" lon="1.7246">
        <ele>169</ele>
        <time>2017-09-21T12:25:16Z</time>
      </trkpt>
      <trkpt lat="44.51722" lon="1.72461">
        <ele>169</ele>
        <time>2017-09-21T12:25:20Z</time>
      </trkpt>
      <trkpt lat="44.51724" lon="1.72457">
        <ele>169</ele>
        <time>2017-09-21T12:25:26Z</time>
      </trkpt>
      <trkpt lat="44.51723" lon="1.72452">
        <ele>170</ele>
        <time>2017-09-21T12:25:32Z</time>
      </trkpt>
      <trkpt lat="44.51722" lon="1.72448">
        <ele>170</ele>
        <time>2017-09-21T12:25:35Z</time>
      </trkpt>
      <trkpt lat="44.51719" lon="1.72443">
        <ele>170</ele>
        <time>2017-09-21T12:25:38Z</time>
      </trkpt>
      <trkpt lat="44.51717" lon="1.7244">
        <ele>170</ele>
        <time>2017-09-21T12:25:42Z</time>
      </trkpt>
      <trkpt lat="44.51727" lon="1.72452">
        <ele>170</ele>
        <time>2017-09-21T12:26:21Z</time>
      </trkpt>
      <trkpt lat="44.51728" lon="1.72457">
        <ele>170</ele>
        <time>2017-09-21T12:26:26Z</time>
      </trkpt>
      <trkpt lat="44.51727" lon="1.72463">
        <ele>169</ele>
        <time>2017-09-21T12:26:31Z</time>
      </trkpt>
      <trkpt lat="44.51723" lon="1.7246">
        <ele>169</ele>
        <time>2017-09-21T12:26:37Z</time>
      </trkpt>
      <trkpt lat="44.51722" lon="1.72466">
        <ele>169</ele>
        <time>2017-09-21T12:27:09Z</time>
      </trkpt>
      <trkpt lat="44.51716" lon="1.72463">
        <ele>169</ele>
        <time>2017-09-21T12:27:21Z</time>
      </trkpt>
      <trkpt lat="44.51713" lon="1.72464">
        <ele>168</ele>
        <time>2017-09-21T12:27:26Z</time>
      </trkpt>
      <trkpt lat="44.51712" lon="1.72464">
        <ele>168</ele>
        <time>2017-09-21T12:31:29Z</time>
      </trkpt>
      <trkpt lat="44.51713" lon="1.72459">
        <ele>169</ele>
        <time>2017-09-21T12:31:33Z</time>
      </trkpt>
      <trkpt lat="44.51715" lon="1.72455">
        <ele>169</ele>
        <time>2017-09-21T12:31:37Z</time>
      </trkpt>
      <trkpt lat="44.51716" lon="1.72455">
        <ele>169</ele>
        <time>2017-09-21T12:33:12Z</time>
      </trkpt>
      <trkpt lat="44.51716" lon="1.72454">
        <ele>169</ele>
        <time>2017-09-21T12:34:14Z</time>
      </trkpt>
      <trkpt lat="44.51713" lon="1.72452">
        <ele>169</ele>
        <time>2017-09-21T12:34:17Z</time>
      </trkpt>
      <trkpt lat="44.51705" lon="1.72445">
        <ele>169</ele>
        <time>2017-09-21T12:36:12Z</time>
      </trkpt>
      <trkpt lat="44.51702" lon="1.72443">
        <ele>169</ele>
        <time>2017-09-21T12:34:27Z</time>
      </trkpt>
      <trkpt lat="44.51698" lon="1.72444">
        <ele>169</ele>
        <time>2017-09-21T12:34:30Z</time>
      </trkpt>
      <trkpt lat="44.51696" lon="1.72441">
        <ele>168</ele>
        <time>2017-09-21T12:34:34Z</time>
      </trkpt>
      <trkpt lat="44.51696" lon="1.72437">
        <ele>169</ele>
        <time>2017-09-21T12:34:38Z</time>
      </trkpt>
      <trkpt lat="44.51695" lon="1.72432">
        <ele>169</ele>
        <time>2017-09-21T12:34:43Z</time>
      </trkpt>
      <trkpt lat="44.51694" lon="1.72428">
        <ele>169</ele>
        <time>2017-09-21T12:34:47Z</time>
      </trkpt>
      <trkpt lat="44.51693" lon="1.72424">
        <ele>169</ele>
        <time>2017-09-21T12:34:49Z</time>
      </trkpt>
      <trkpt lat="44.5169" lon="1.7242">
        <ele>169</ele>
        <time>2017-09-21T12:34:53Z</time>
      </trkpt>
      <trkpt lat="44.51692" lon="1.7242">
        <ele>169</ele>
        <time>2017-09-21T12:35:39Z</time>
      </trkpt>
      <trkpt lat="44.51698" lon="1.72431">
        <ele>169</ele>
        <time>2017-09-21T12:35:51Z</time>
      </trkpt>
      <trkpt lat="44.51697" lon="1.72435">
        <ele>169</ele>
        <time>2017-09-21T12:35:55Z</time>
      </trkpt>
      <trkpt lat="44.51698" lon="1.7244">
        <ele>169</ele>
        <time>2017-09-21T12:36:01Z</time>
      </trkpt>
      <trkpt lat="44.51701" lon="1.72442">
        <ele>169</ele>
        <time>2017-09-21T12:36:07Z</time>
      </trkpt>
      <trkpt lat="44.51705" lon="1.72445">
        <ele>169</ele>
        <time>2017-09-21T12:36:12Z</time>
      </trkpt>
      <trkpt lat="44.51713" lon="1.72453">
        <ele>169</ele>
        <time>2017-09-21T12:36:20Z</time>
      </trkpt>
      <trkpt lat="44.51717" lon="1.72457">
        <ele>169</ele>
        <time>2017-09-21T12:36:27Z</time>
      </trkpt>
      <trkpt lat="44.51715" lon="1.72459">
        <ele>169</ele>
        <time>2017-09-21T12:37:57Z</time>
      </trkpt>
      <trkpt lat="44.51713" lon="1.72457">
        <ele>169</ele>
        <time>2017-09-21T12:38:00Z</time>
      </trkpt>
      <trkpt lat="44.51711" lon="1.72456">
        <ele>169</ele>
        <time>2017-09-21T12:38:04Z</time>
      </trkpt>
      <trkpt lat="44.51711" lon="1.7246">
        <ele>169</ele>
        <time>2017-09-21T12:38:40Z</time>
      </trkpt>
      <trkpt lat="44.5171" lon="1.72464">
        <ele>168</ele>
        <time>2017-09-21T12:38:43Z</time>
      </trkpt>
      <trkpt lat="44.5171" lon="1.72468">
        <ele>168</ele>
        <time>2017-09-21T12:38:45Z</time>
      </trkpt>
      <trkpt lat="44.5171" lon="1.7247">
        <ele>168</ele>
        <time>2017-09-21T12:39:46Z</time>
      </trkpt>
      <trkpt lat="44.51708" lon="1.72471">
        <ele>168</ele>
        <time>2017-09-21T12:39:52Z</time>
      </trkpt>
      <trkpt lat="44.51708" lon="1.72469">
        <ele>168</ele>
        <time>2017-09-21T12:40:35Z</time>
      </trkpt>
      <trkpt lat="44.51708" lon="1.72467">
        <ele>168</ele>
        <time>2017-09-21T12:40:37Z</time>
      </trkpt>
      <trkpt lat="44.51707" lon="1.72465">
        <ele>168</ele>
        <time>2017-09-21T12:40:39Z</time>
      </trkpt>
      <trkpt lat="44.51707" lon="1.72463">
        <ele>168</ele>
        <time>2017-09-21T12:41:04Z</time>
      </trkpt>
      <trkpt lat="44.51706" lon="1.7246">
        <ele>168</ele>
        <time>2017-09-21T12:41:23Z</time>
      </trkpt>
      <trkpt lat="44.51708" lon="1.72457">
        <ele>169</ele>
        <time>2017-09-21T12:41:58Z</time>
      </trkpt>
      <trkpt lat="44.5171" lon="1.72456">
        <ele>169</ele>
        <time>2017-09-21T12:42:12Z</time>
      </trkpt>
      <trkpt lat="44.51708" lon="1.72453">
        <ele>169</ele>
        <time>2017-09-21T12:42:53Z</time>
      </trkpt>
      <trkpt lat="44.51707" lon="1.7245">
        <ele>169</ele>
        <time>2017-09-21T12:42:56Z</time>
      </trkpt>
      <trkpt lat="44.51704" lon="1.72448">
        <ele>169</ele>
        <time>2017-09-21T12:43:00Z</time>
      </trkpt>
      <trkpt lat="44.51702" lon="1.72446">
        <ele>169</ele>
        <time>2017-09-21T12:43:02Z</time>
      </trkpt>
      <trkpt lat="44.51699" lon="1.72443">
        <ele>169</ele>
        <time>2017-09-21T12:43:06Z</time>
      </trkpt>
      <trkpt lat="44.517" lon="1.72442">
        <ele>169</ele>
        <time>2017-09-21T12:43:21Z</time>
      </trkpt>
      <trkpt lat="44.51702" lon="1.72444">
        <ele>169</ele>
        <time>2017-09-21T12:43:23Z</time>
      </trkpt>
      <trkpt lat="44.51703" lon="1.72445">
        <ele>169</ele>
        <time>2017-09-21T12:44:37Z</time>
      </trkpt>
      <trkpt lat="44.51701" lon="1.72446">
        <ele>169</ele>
        <time>2017-09-21T12:45:38Z</time>
      </trkpt>
      <trkpt lat="44.51699" lon="1.72449">
        <ele>168</ele>
        <time>2017-09-21T12:45:41Z</time>
      </trkpt>
      <trkpt lat="44.51697" lon="1.7245">
        <ele>168</ele>
        <time>2017-09-21T12:45:43Z</time>
      </trkpt>
      <trkpt lat="44.51694" lon="1.72455">
        <ele>168</ele>
        <time>2017-09-21T12:45:48Z</time>
      </trkpt>
      <trkpt lat="44.51691" lon="1.72457">
        <ele>168</ele>
        <time>2017-09-21T12:45:51Z</time>
      </trkpt>
      <trkpt lat="44.51686" lon="1.72458">
        <ele>167</ele>
        <time>2017-09-21T12:45:56Z</time>
      </trkpt>
      <trkpt lat="44.51684" lon="1.72461">
        <ele>167</ele>
        <time>2017-09-21T12:45:59Z</time>
      </trkpt>
      <trkpt lat="44.51683" lon="1.72464">
        <ele>167</ele>
        <time>2017-09-21T12:46:02Z</time>
      </trkpt>
      <trkpt lat="44.51682" lon="1.72462">
        <ele>167</ele>
        <time>2017-09-21T12:46:25Z</time>
      </trkpt>
      <trkpt lat="44.51682" lon="1.72458">
        <ele>167</ele>
        <time>2017-09-21T12:46:34Z</time>
      </trkpt>
      <trkpt lat="44.51681" lon="1.72447">
        <ele>168</ele>
        <time>2017-09-21T12:46:43Z</time>
      </trkpt>
      <trkpt lat="44.51681" lon="1.72441">
        <ele>168</ele>
        <time>2017-09-21T12:46:47Z</time>
      </trkpt>
      <trkpt lat="44.51681" lon="1.72422">
        <ele>168</ele>
        <time>2017-09-21T12:46:58Z</time>
      </trkpt>
      <trkpt lat="44.51681" lon="1.72419">
        <ele>168</ele>
        <time>2017-09-21T12:47:00Z</time>
      </trkpt>
      <trkpt lat="44.5168" lon="1.72413">
        <ele>171</ele>
        <time>2017-09-21T12:47:05Z</time>
      </trkpt>
      <trkpt lat="44.5168" lon="1.72411">
        <ele>171</ele>
        <time>2017-09-21T12:47:07Z</time>
      </trkpt>
      <trkpt lat="44.5168" lon="1.72409">
        <ele>172</ele>
        <time>2017-09-21T12:47:09Z</time>
      </trkpt>
      <trkpt lat="44.51679" lon="1.72406">
        <ele>172</ele>
        <time>2017-09-21T12:47:11Z</time>
      </trkpt>
      <trkpt lat="44.51677" lon="1.72397">
        <ele>173</ele>
        <time>2017-09-21T12:47:17Z</time>
      </trkpt>
      <trkpt lat="44.51676" lon="1.72394">
        <ele>173</ele>
        <time>2017-09-21T12:47:19Z</time>
      </trkpt>
      <trkpt lat="44.51676" lon="1.72391">
        <ele>174</ele>
        <time>2017-09-21T12:47:21Z</time>
      </trkpt>
      <trkpt lat="44.51675" lon="1.72388">
        <ele>174</ele>
        <time>2017-09-21T12:47:23Z</time>
      </trkpt>
      <trkpt lat="44.51666" lon="1.7234">
        <ele>170</ele>
        <time>2017-09-21T12:47:54Z</time>
      </trkpt>
      <trkpt lat="44.51661" lon="1.72313">
        <ele>167</ele>
        <time>2017-09-21T12:48:13Z</time>
      </trkpt>
      <trkpt lat="44.51655" lon="1.72286">
        <ele>164</ele>
        <time>2017-09-21T12:48:31Z</time>
      </trkpt>
      <trkpt lat="44.51654" lon="1.7228">
        <ele>165</ele>
        <time>2017-09-21T12:48:35Z</time>
      </trkpt>
      <trkpt lat="44.51654" lon="1.72278">
        <ele>165</ele>
        <time>2017-09-21T12:48:39Z</time>
      </trkpt>
      <trkpt lat="44.51653" lon="1.72274">
        <ele>165</ele>
        <time>2017-09-21T12:48:41Z</time>
      </trkpt>
      <trkpt lat="44.51655" lon="1.72233">
        <ele>164</ele>
        <time>2017-09-21T12:49:07Z</time>
      </trkpt>
      <trkpt lat="44.51664" lon="1.72198">
        <ele>160</ele>
        <time>2017-09-21T12:49:30Z</time>
      </trkpt>
      <trkpt lat="44.51666" lon="1.72191">
        <ele>161</ele>
        <time>2017-09-21T12:49:35Z</time>
      </trkpt>
      <trkpt lat="44.51666" lon="1.72188">
        <ele>161</ele>
        <time>2017-09-21T12:49:37Z</time>
      </trkpt>
      <trkpt lat="44.51667" lon="1.7218">
        <ele>161</ele>
        <time>2017-09-21T12:49:41Z</time>
      </trkpt>
      <trkpt lat="44.51669" lon="1.72174">
        <ele>169</ele>
        <time>2017-09-21T12:49:45Z</time>
      </trkpt>
      <trkpt lat="44.51669" lon="1.72164">
        <ele>165</ele>
        <time>2017-09-21T12:49:51Z</time>
      </trkpt>
      <trkpt lat="44.51681" lon="1.72129">
        <ele>167</ele>
        <time>2017-09-21T12:50:15Z</time>
      </trkpt>
      <trkpt lat="44.51683" lon="1.72126">
        <ele>167</ele>
        <time>2017-09-21T12:50:18Z</time>
      </trkpt>
      <trkpt lat="44.517" lon="1.72115">
        <ele>168</ele>
        <time>2017-09-21T12:50:33Z</time>
      </trkpt>
      <trkpt lat="44.51711" lon="1.7211">
        <ele>169</ele>
        <time>2017-09-21T12:50:41Z</time>
      </trkpt>
      <trkpt lat="44.51713" lon="1.72108">
        <ele>169</ele>
        <time>2017-09-21T12:50:43Z</time>
      </trkpt>
      <trkpt lat="44.51717" lon="1.72104">
        <ele>170</ele>
        <time>2017-09-21T12:50:47Z</time>
      </trkpt>
      <trkpt lat="44.51738" lon="1.72105">
        <ele>171</ele>
        <time>2017-09-21T12:51:06Z</time>
      </trkpt>
      <trkpt lat="44.51742" lon="1.72105">
        <ele>171</ele>
        <time>2017-09-21T12:51:09Z</time>
      </trkpt>
      <trkpt lat="44.5175" lon="1.72103">
        <ele>171</ele>
        <time>2017-09-21T12:51:15Z</time>
      </trkpt>
      <trkpt lat="44.51756" lon="1.72101">
        <ele>179</ele>
        <time>2017-09-21T12:51:21Z</time>
      </trkpt>
      <trkpt lat="44.51759" lon="1.72099">
        <ele>179</ele>
        <time>2017-09-21T12:51:24Z</time>
      </trkpt>
      <trkpt lat="44.51763" lon="1.72098">
        <ele>179</ele>
        <time>2017-09-21T12:51:29Z</time>
      </trkpt>
      <trkpt lat="44.51766" lon="1.72096">
        <ele>179</ele>
        <time>2017-09-21T12:51:32Z</time>
      </trkpt>
      <trkpt lat="44.51769" lon="1.72094">
        <ele>180</ele>
        <time>2017-09-21T12:51:36Z</time>
      </trkpt>
      <trkpt lat="44.51774" lon="1.72093">
        <ele>180</ele>
        <time>2017-09-21T12:51:40Z</time>
      </trkpt>
      <trkpt lat="44.51778" lon="1.72094">
        <ele>181</ele>
        <time>2017-09-21T12:51:44Z</time>
      </trkpt>
      <trkpt lat="44.51787" lon="1.72095">
        <ele>182</ele>
        <time>2017-09-21T12:51:52Z</time>
      </trkpt>
      <trkpt lat="44.51792" lon="1.72094">
        <ele>183</ele>
        <time>2017-09-21T12:51:56Z</time>
      </trkpt>
      <trkpt lat="44.51795" lon="1.72093">
        <ele>183</ele>
        <time>2017-09-21T12:51:59Z</time>
      </trkpt>
      <trkpt lat="44.51798" lon="1.72092">
        <ele>183</ele>
        <time>2017-09-21T12:52:01Z</time>
      </trkpt>
      <trkpt lat="44.51801" lon="1.72091">
        <ele>183</ele>
        <time>2017-09-21T12:52:03Z</time>
      </trkpt>
      <trkpt lat="44.51825" lon="1.72082">
        <ele>175</ele>
        <time>2017-09-21T12:52:24Z</time>
      </trkpt>
      <trkpt lat="44.5183" lon="1.7208">
        <ele>176</ele>
        <time>2017-09-21T12:52:30Z</time>
      </trkpt>
      <trkpt lat="44.51833" lon="1.72078">
        <ele>176</ele>
        <time>2017-09-21T12:52:34Z</time>
      </trkpt>
      <trkpt lat="44.51834" lon="1.72075">
        <ele>177</ele>
        <time>2017-09-21T12:52:37Z</time>
      </trkpt>
      <trkpt lat="44.51837" lon="1.72074">
        <ele>177</ele>
        <time>2017-09-21T12:52:42Z</time>
      </trkpt>
      <trkpt lat="44.5184" lon="1.72069">
        <ele>176</ele>
        <time>2017-09-21T12:52:50Z</time>
      </trkpt>
      <trkpt lat="44.51842" lon="1.7207">
        <ele>176</ele>
        <time>2017-09-21T12:53:22Z</time>
      </trkpt>
      <trkpt lat="44.51843" lon="1.72069">
        <ele>176</ele>
        <time>2017-09-21T12:56:19Z</time>
      </trkpt>
      <trkpt lat="44.51843" lon="1.72066">
        <ele>176</ele>
        <time>2017-09-21T12:57:01Z</time>
      </trkpt>
      <trkpt lat="44.51844" lon="1.72068">
        <ele>176</ele>
        <time>2017-09-21T12:58:04Z</time>
      </trkpt>
      <trkpt lat="44.51848" lon="1.72069">
        <ele>176</ele>
        <time>2017-09-21T12:59:09Z</time>
      </trkpt>
      <trkpt lat="44.51847" lon="1.72065">
        <ele>176</ele>
        <time>2017-09-21T12:59:11Z</time>
      </trkpt>
      <trkpt lat="44.51849" lon="1.72064">
        <ele>175</ele>
        <time>2017-09-21T13:02:05Z</time>
      </trkpt>
      <trkpt lat="44.5185" lon="1.72067">
        <ele>176</ele>
        <time>2017-09-21T13:04:03Z</time>
      </trkpt>
      <trkpt lat="44.51847" lon="1.72068">
        <ele>176</ele>
        <time>2017-09-21T13:10:07Z</time>
      </trkpt>
      <trkpt lat="44.51845" lon="1.7207">
        <ele>176</ele>
        <time>2017-09-21T13:10:17Z</time>
      </trkpt>
      <trkpt lat="44.51842" lon="1.72073">
        <ele>177</ele>
        <time>2017-09-21T13:11:26Z</time>
      </trkpt>
      <trkpt lat="44.5184" lon="1.72073">
        <ele>177</ele>
        <time>2017-09-21T13:11:34Z</time>
      </trkpt>
      <trkpt lat="44.51837" lon="1.72075">
        <ele>177</ele>
        <time>2017-09-21T13:11:38Z</time>
      </trkpt>
      <trkpt lat="44.51834" lon="1.72076">
        <ele>177</ele>
        <time>2017-09-21T13:11:42Z</time>
      </trkpt>
      <trkpt lat="44.51835" lon="1.72078">
        <ele>178</ele>
        <time>2017-09-21T13:12:03Z</time>
      </trkpt>
      <trkpt lat="44.51838" lon="1.72076">
        <ele>177</ele>
        <time>2017-09-21T13:12:06Z</time>
      </trkpt>
      <trkpt lat="44.5184" lon="1.72075">
        <ele>177</ele>
        <time>2017-09-21T13:12:09Z</time>
      </trkpt>
      <trkpt lat="44.51843" lon="1.72073">
        <ele>177</ele>
        <time>2017-09-21T13:12:14Z</time>
      </trkpt>
      <trkpt lat="44.51846" lon="1.72071">
        <ele>176</ele>
        <time>2017-09-21T13:12:19Z</time>
      </trkpt>
      <trkpt lat="44.51849" lon="1.7207">
        <ele>176</ele>
        <time>2017-09-21T13:12:25Z</time>
      </trkpt>
      <trkpt lat="44.51853" lon="1.7207">
        <ele>176</ele>
        <time>2017-09-21T13:12:28Z</time>
      </trkpt>
      <trkpt lat="44.51856" lon="1.72068">
        <ele>176</ele>
        <time>2017-09-21T13:12:31Z</time>
      </trkpt>
      <trkpt lat="44.51872" lon="1.72065">
        <ele>177</ele>
        <time>2017-09-21T13:12:44Z</time>
      </trkpt>
      <trkpt lat="44.51876" lon="1.72063">
        <ele>177</ele>
        <time>2017-09-21T13:12:49Z</time>
      </trkpt>
      <trkpt lat="44.51879" lon="1.72061">
        <ele>177</ele>
        <time>2017-09-21T13:12:52Z</time>
      </trkpt>
      <trkpt lat="44.51885" lon="1.7206">
        <ele>178</ele>
        <time>2017-09-21T13:13:00Z</time>
      </trkpt>
      <trkpt lat="44.51888" lon="1.72059">
        <ele>178</ele>
        <time>2017-09-21T13:13:03Z</time>
      </trkpt>
      <trkpt lat="44.51891" lon="1.72059">
        <ele>179</ele>
        <time>2017-09-21T13:13:09Z</time>
      </trkpt>
      <trkpt lat="44.51894" lon="1.72057">
        <ele>179</ele>
        <time>2017-09-21T13:13:14Z</time>
      </trkpt>
      <trkpt lat="44.51897" lon="1.72056">
        <ele>179</ele>
        <time>2017-09-21T13:13:18Z</time>
      </trkpt>
      <trkpt lat="44.51904" lon="1.72053">
        <ele>179</ele>
        <time>2017-09-21T13:13:24Z</time>
      </trkpt>
      <trkpt lat="44.51908" lon="1.72052">
        <ele>179</ele>
        <time>2017-09-21T13:13:29Z</time>
      </trkpt>
      <trkpt lat="44.51913" lon="1.7205">
        <ele>179</ele>
        <time>2017-09-21T13:13:35Z</time>
      </trkpt>
      <trkpt lat="44.51916" lon="1.72049">
        <ele>179</ele>
        <time>2017-09-21T13:13:38Z</time>
      </trkpt>
      <trkpt lat="44.5192" lon="1.72047">
        <ele>199</ele>
        <time>2017-09-21T13:13:42Z</time>
      </trkpt>
      <trkpt lat="44.51925" lon="1.72045">
        <ele>199</ele>
        <time>2017-09-21T13:13:48Z</time>
      </trkpt>
      <trkpt lat="44.51929" lon="1.72042">
        <ele>199</ele>
        <time>2017-09-21T13:13:54Z</time>
      </trkpt>
      <trkpt lat="44.51935" lon="1.72042">
        <ele>200</ele>
        <time>2017-09-21T13:13:58Z</time>
      </trkpt>
      <trkpt lat="44.51939" lon="1.72041">
        <ele>201</ele>
        <time>2017-09-21T13:14:02Z</time>
      </trkpt>
      <trkpt lat="44.51943" lon="1.7204">
        <ele>202</ele>
        <time>2017-09-21T13:14:07Z</time>
      </trkpt>
      <trkpt lat="44.51948" lon="1.72039">
        <ele>203</ele>
        <time>2017-09-21T13:14:12Z</time>
      </trkpt>
      <trkpt lat="44.51951" lon="1.72038">
        <ele>204</ele>
        <time>2017-09-21T13:14:17Z</time>
      </trkpt>
      <trkpt lat="44.51955" lon="1.72033">
        <ele>205</ele>
        <time>2017-09-21T13:14:25Z</time>
      </trkpt>
      <trkpt lat="44.51961" lon="1.72036">
        <ele>207</ele>
        <time>2017-09-21T13:14:31Z</time>
      </trkpt>
      <trkpt lat="44.51965" lon="1.72031">
        <ele>207</ele>
        <time>2017-09-21T13:14:38Z</time>
      </trkpt>
      <trkpt lat="44.51969" lon="1.72029">
        <ele>208</ele>
        <time>2017-09-21T13:14:44Z</time>
      </trkpt>
      <trkpt lat="44.51974" lon="1.72021">
        <ele>209</ele>
        <time>2017-09-21T13:14:54Z</time>
      </trkpt>
      <trkpt lat="44.51978" lon="1.72011">
        <ele>210</ele>
        <time>2017-09-21T13:14:58Z</time>
      </trkpt>
      <trkpt lat="44.5198" lon="1.72007">
        <ele>210</ele>
        <time>2017-09-21T13:15:01Z</time>
      </trkpt>
      <trkpt lat="44.51983" lon="1.72003">
        <ele>211</ele>
        <time>2017-09-21T13:15:05Z</time>
      </trkpt>
      <trkpt lat="44.51985" lon="1.72">
        <ele>212</ele>
        <time>2017-09-21T13:15:08Z</time>
      </trkpt>
      <trkpt lat="44.51989" lon="1.71999">
        <ele>205</ele>
        <time>2017-09-21T13:15:12Z</time>
      </trkpt>
      <trkpt lat="44.51992" lon="1.71995">
        <ele>207</ele>
        <time>2017-09-21T13:15:15Z</time>
      </trkpt>
      <trkpt lat="44.51995" lon="1.71992">
        <ele>207</ele>
        <time>2017-09-21T13:15:23Z</time>
      </trkpt>
      <trkpt lat="44.51997" lon="1.71989">
        <ele>205</ele>
        <time>2017-09-21T13:15:42Z</time>
      </trkpt>
      <trkpt lat="44.52" lon="1.71984">
        <ele>202</ele>
        <time>2017-09-21T13:17:14Z</time>
      </trkpt>
      <trkpt lat="44.52003" lon="1.7198">
        <ele>228</ele>
        <time>2017-09-21T13:17:18Z</time>
      </trkpt>
      <trkpt lat="44.52008" lon="1.71975">
        <ele>230</ele>
        <time>2017-09-21T13:17:23Z</time>
      </trkpt>
      <trkpt lat="44.52019" lon="1.71962">
        <ele>232</ele>
        <time>2017-09-21T13:17:32Z</time>
      </trkpt>
      <trkpt lat="44.52021" lon="1.71956">
        <ele>232</ele>
        <time>2017-09-21T13:17:35Z</time>
      </trkpt>
      <trkpt lat="44.52025" lon="1.7195">
        <ele>232</ele>
        <time>2017-09-21T13:17:39Z</time>
      </trkpt>
      <trkpt lat="44.52031" lon="1.71935">
        <ele>232</ele>
        <time>2017-09-21T13:17:48Z</time>
      </trkpt>
      <trkpt lat="44.52037" lon="1.71917">
        <ele>234</ele>
        <time>2017-09-21T13:17:58Z</time>
      </trkpt>
      <trkpt lat="44.52039" lon="1.71911">
        <ele>226</ele>
        <time>2017-09-21T13:18:03Z</time>
      </trkpt>
      <trkpt lat="44.52039" lon="1.71902">
        <ele>225</ele>
        <time>2017-09-21T13:18:07Z</time>
      </trkpt>
      <trkpt lat="44.52039" lon="1.71894">
        <ele>225</ele>
        <time>2017-09-21T13:18:13Z</time>
      </trkpt>
      <trkpt lat="44.52043" lon="1.7188">
        <ele>225</ele>
        <time>2017-09-21T13:18:26Z</time>
      </trkpt>
      <trkpt lat="44.52045" lon="1.71864">
        <ele>225</ele>
        <time>2017-09-21T13:18:35Z</time>
      </trkpt>
      <trkpt lat="44.52043" lon="1.71854">
        <ele>223</ele>
        <time>2017-09-21T13:18:39Z</time>
      </trkpt>
      <trkpt lat="44.52046" lon="1.71847">
        <ele>224</ele>
        <time>2017-09-21T13:18:43Z</time>
      </trkpt>
      <trkpt lat="44.52048" lon="1.7183">
        <ele>219</ele>
        <time>2017-09-21T13:18:52Z</time>
      </trkpt>
      <trkpt lat="44.52053" lon="1.71815">
        <ele>221</ele>
        <time>2017-09-21T13:19:00Z</time>
      </trkpt>
      <trkpt lat="44.52058" lon="1.7181">
        <ele>223</ele>
        <time>2017-09-21T13:19:06Z</time>
      </trkpt>
      <trkpt lat="44.52055" lon="1.71784">
        <ele>220</ele>
        <time>2017-09-21T13:19:19Z</time>
      </trkpt>
      <trkpt lat="44.52048" lon="1.71766">
        <ele>218</ele>
        <time>2017-09-21T13:19:29Z</time>
      </trkpt>
      <trkpt lat="44.52045" lon="1.71759">
        <ele>217</ele>
        <time>2017-09-21T13:19:32Z</time>
      </trkpt>
      <trkpt lat="44.52042" lon="1.71756">
        <ele>216</ele>
        <time>2017-09-21T13:19:35Z</time>
      </trkpt>
      <trkpt lat="44.52035" lon="1.71731">
        <ele>214</ele>
        <time>2017-09-21T13:19:50Z</time>
      </trkpt>
      <trkpt lat="44.52032" lon="1.71723">
        <ele>214</ele>
        <time>2017-09-21T13:19:55Z</time>
      </trkpt>
      <trkpt lat="44.52031" lon="1.71716">
        <ele>214</ele>
        <time>2017-09-21T13:19:59Z</time>
      </trkpt>
      <trkpt lat="44.52027" lon="1.71695">
        <ele>212</ele>
        <time>2017-09-21T13:20:11Z</time>
      </trkpt>
      <trkpt lat="44.52025" lon="1.7167">
        <ele>210</ele>
        <time>2017-09-21T13:20:24Z</time>
      </trkpt>
      <trkpt lat="44.52025" lon="1.71662">
        <ele>211</ele>
        <time>2017-09-21T13:20:27Z</time>
      </trkpt>
      <trkpt lat="44.52022" lon="1.71657">
        <ele>211</ele>
        <time>2017-09-21T13:20:30Z</time>
      </trkpt>
      <trkpt lat="44.52021" lon="1.71649">
        <ele>211</ele>
        <time>2017-09-21T13:20:34Z</time>
      </trkpt>
      <trkpt lat="44.52014" lon="1.71642">
        <ele>211</ele>
        <time>2017-09-21T13:20:39Z</time>
      </trkpt>
      <trkpt lat="44.51992" lon="1.71602">
        <ele>192</ele>
        <time>2017-09-21T13:21:04Z</time>
      </trkpt>
      <trkpt lat="44.5199" lon="1.716">
        <ele>192</ele>
        <time>2017-09-21T13:21:06Z</time>
      </trkpt>
      <trkpt lat="44.51977" lon="1.71586">
        <ele>190</ele>
        <time>2017-09-21T13:21:17Z</time>
      </trkpt>
      <trkpt lat="44.51975" lon="1.71583">
        <ele>191</ele>
        <time>2017-09-21T13:21:19Z</time>
      </trkpt>
      <trkpt lat="44.51971" lon="1.71578">
        <ele>189</ele>
        <time>2017-09-21T13:21:23Z</time>
      </trkpt>
      <trkpt lat="44.51969" lon="1.71574">
        <ele>189</ele>
        <time>2017-09-21T13:21:25Z</time>
      </trkpt>
      <trkpt lat="44.51967" lon="1.71572">
        <ele>188</ele>
        <time>2017-09-21T13:21:27Z</time>
      </trkpt>
      <trkpt lat="44.51964" lon="1.71571">
        <ele>187</ele>
        <time>2017-09-21T13:21:29Z</time>
      </trkpt>
      <trkpt lat="44.51959" lon="1.71561">
        <ele>185</ele>
        <time>2017-09-21T13:21:36Z</time>
      </trkpt>
      <trkpt lat="44.51958" lon="1.71551">
        <ele>185</ele>
        <time>2017-09-21T13:21:43Z</time>
      </trkpt>
      <trkpt lat="44.51958" lon="1.71548">
        <ele>185</ele>
        <time>2017-09-21T13:21:46Z</time>
      </trkpt>
      <trkpt lat="44.51973" lon="1.71512">
        <ele>189</ele>
        <time>2017-09-21T13:22:12Z</time>
      </trkpt>
      <trkpt lat="44.51979" lon="1.71498">
        <ele>193</ele>
        <time>2017-09-21T13:22:21Z</time>
      </trkpt>
      <trkpt lat="44.51986" lon="1.71489">
        <ele>194</ele>
        <time>2017-09-21T13:22:28Z</time>
      </trkpt>
      <trkpt lat="44.51991" lon="1.71482">
        <ele>194</ele>
        <time>2017-09-21T13:22:33Z</time>
      </trkpt>
      <trkpt lat="44.52015" lon="1.71453">
        <ele>203</ele>
        <time>2017-09-21T13:22:55Z</time>
      </trkpt>
      <trkpt lat="44.52025" lon="1.71447">
        <ele>204</ele>
        <time>2017-09-21T13:23:04Z</time>
      </trkpt>
      <trkpt lat="44.52035" lon="1.71432">
        <ele>204</ele>
        <time>2017-09-21T13:23:15Z</time>
      </trkpt>
      <trkpt lat="44.52038" lon="1.71429">
        <ele>204</ele>
        <time>2017-09-21T13:23:18Z</time>
      </trkpt>
      <trkpt lat="44.5204" lon="1.71427">
        <ele>204</ele>
        <time>2017-09-21T13:23:21Z</time>
      </trkpt>
      <trkpt lat="44.5205" lon="1.71418">
        <ele>205</ele>
        <time>2017-09-21T13:23:30Z</time>
      </trkpt>
      <trkpt lat="44.5206" lon="1.71406">
        <ele>203</ele>
        <time>2017-09-21T13:23:39Z</time>
      </trkpt>
      <trkpt lat="44.52067" lon="1.71401">
        <ele>203</ele>
        <time>2017-09-21T13:23:46Z</time>
      </trkpt>
      <trkpt lat="44.52075" lon="1.71395">
        <ele>203</ele>
        <time>2017-09-21T13:23:53Z</time>
      </trkpt>
      <trkpt lat="44.5211" lon="1.71358">
        <ele>205</ele>
        <time>2017-09-21T13:24:23Z</time>
      </trkpt>
      <trkpt lat="44.52126" lon="1.71339">
        <ele>205</ele>
        <time>2017-09-21T13:24:39Z</time>
      </trkpt>
      <trkpt lat="44.5213" lon="1.71327">
        <ele>206</ele>
        <time>2017-09-21T13:24:46Z</time>
      </trkpt>
      <trkpt lat="44.52133" lon="1.71317">
        <ele>207</ele>
        <time>2017-09-21T13:24:58Z</time>
      </trkpt>
      <trkpt lat="44.52141" lon="1.71305">
        <ele>207</ele>
        <time>2017-09-21T13:25:07Z</time>
      </trkpt>
      <trkpt lat="44.52149" lon="1.71294">
        <ele>208</ele>
        <time>2017-09-21T13:25:15Z</time>
      </trkpt>
      <trkpt lat="44.52152" lon="1.71291">
        <ele>208</ele>
        <time>2017-09-21T13:25:18Z</time>
      </trkpt>
      <trkpt lat="44.52158" lon="1.71287">
        <ele>208</ele>
        <time>2017-09-21T13:25:23Z</time>
      </trkpt>
      <trkpt lat="44.52164" lon="1.71284">
        <ele>209</ele>
        <time>2017-09-21T13:25:29Z</time>
      </trkpt>
      <trkpt lat="44.52174" lon="1.71276">
        <ele>209</ele>
        <time>2017-09-21T13:25:36Z</time>
      </trkpt>
      <trkpt lat="44.52177" lon="1.71274">
        <ele>209</ele>
        <time>2017-09-21T13:25:38Z</time>
      </trkpt>
      <trkpt lat="44.52188" lon="1.71264">
        <ele>209</ele>
        <time>2017-09-21T13:25:47Z</time>
      </trkpt>
      <trkpt lat="44.52191" lon="1.71263">
        <ele>209</ele>
        <time>2017-09-21T13:25:50Z</time>
      </trkpt>
      <trkpt lat="44.52218" lon="1.71248">
        <ele>221</ele>
        <time>2017-09-21T13:26:14Z</time>
      </trkpt>
      <trkpt lat="44.52222" lon="1.71247">
        <ele>221</ele>
        <time>2017-09-21T13:26:17Z</time>
      </trkpt>
      <trkpt lat="44.52225" lon="1.71244">
        <ele>221</ele>
        <time>2017-09-21T13:26:20Z</time>
      </trkpt>
      <trkpt lat="44.52227" lon="1.71241">
        <ele>221</ele>
        <time>2017-09-21T13:26:22Z</time>
      </trkpt>
      <trkpt lat="44.52237" lon="1.71243">
        <ele>219</ele>
        <time>2017-09-21T13:26:32Z</time>
      </trkpt>
      <trkpt lat="44.5224" lon="1.71243">
        <ele>219</ele>
        <time>2017-09-21T13:26:34Z</time>
      </trkpt>
      <trkpt lat="44.52267" lon="1.71252">
        <ele>216</ele>
        <time>2017-09-21T13:26:55Z</time>
      </trkpt>
      <trkpt lat="44.52272" lon="1.71254">
        <ele>217</ele>
        <time>2017-09-21T13:26:59Z</time>
      </trkpt>
      <trkpt lat="44.52275" lon="1.71256">
        <ele>217</ele>
        <time>2017-09-21T13:27:01Z</time>
      </trkpt>
      <trkpt lat="44.52281" lon="1.7126">
        <ele>218</ele>
        <time>2017-09-21T13:27:06Z</time>
      </trkpt>
      <trkpt lat="44.52284" lon="1.71263">
        <ele>218</ele>
        <time>2017-09-21T13:27:09Z</time>
      </trkpt>
      <trkpt lat="44.52287" lon="1.71266">
        <ele>218</ele>
        <time>2017-09-21T13:27:12Z</time>
      </trkpt>
      <trkpt lat="44.52291" lon="1.71265">
        <ele>219</ele>
        <time>2017-09-21T13:27:16Z</time>
      </trkpt>
      <trkpt lat="44.52291" lon="1.7126">
        <ele>219</ele>
        <time>2017-09-21T13:27:20Z</time>
      </trkpt>
      <trkpt lat="44.52288" lon="1.7125">
        <ele>219</ele>
        <time>2017-09-21T13:27:28Z</time>
      </trkpt>
      <trkpt lat="44.52285" lon="1.71247">
        <ele>227</ele>
        <time>2017-09-21T13:27:32Z</time>
      </trkpt>
      <trkpt lat="44.52283" lon="1.71243">
        <ele>227</ele>
        <time>2017-09-21T13:27:36Z</time>
      </trkpt>
      <trkpt lat="44.52282" lon="1.71238">
        <ele>227</ele>
        <time>2017-09-21T13:27:40Z</time>
      </trkpt>
      <trkpt lat="44.5228" lon="1.71233">
        <ele>227</ele>
        <time>2017-09-21T13:27:44Z</time>
      </trkpt>
      <trkpt lat="44.52277" lon="1.71228">
        <ele>228</ele>
        <time>2017-09-21T13:27:49Z</time>
      </trkpt>
      <trkpt lat="44.52274" lon="1.71223">
        <ele>228</ele>
        <time>2017-09-21T13:27:53Z</time>
      </trkpt>
      <trkpt lat="44.5227" lon="1.7122">
        <ele>228</ele>
        <time>2017-09-21T13:27:56Z</time>
      </trkpt>
      <trkpt lat="44.52268" lon="1.71215">
        <ele>229</ele>
        <time>2017-09-21T13:28:00Z</time>
      </trkpt>
      <trkpt lat="44.5226" lon="1.71212">
        <ele>229</ele>
        <time>2017-09-21T13:28:08Z</time>
      </trkpt>
      <trkpt lat="44.52253" lon="1.71206">
        <ele>230</ele>
        <time>2017-09-21T13:28:14Z</time>
      </trkpt>
      <trkpt lat="44.52249" lon="1.71205">
        <ele>227</ele>
        <time>2017-09-21T13:28:17Z</time>
      </trkpt>
      <trkpt lat="44.52242" lon="1.71202">
        <ele>228</ele>
        <time>2017-09-21T13:28:23Z</time>
      </trkpt>
      <trkpt lat="44.5223" lon="1.71197">
        <ele>228</ele>
        <time>2017-09-21T13:28:34Z</time>
      </trkpt>
      <trkpt lat="44.52226" lon="1.71195">
        <ele>229</ele>
        <time>2017-09-21T13:28:38Z</time>
      </trkpt>
      <trkpt lat="44.5223" lon="1.71191">
        <ele>229</ele>
        <time>2017-09-21T13:28:48Z</time>
      </trkpt>
      <trkpt lat="44.52238" lon="1.71194">
        <ele>229</ele>
        <time>2017-09-21T13:28:56Z</time>
      </trkpt>
      <trkpt lat="44.52242" lon="1.71193">
        <ele>230</ele>
        <time>2017-09-21T13:28:58Z</time>
      </trkpt>
      <trkpt lat="44.52246" lon="1.71193">
        <ele>230</ele>
        <time>2017-09-21T13:29:01Z</time>
      </trkpt>
      <trkpt lat="44.52263" lon="1.71191">
        <ele>233</ele>
        <time>2017-09-21T13:29:13Z</time>
      </trkpt>
      <trkpt lat="44.52277" lon="1.71195">
        <ele>232</ele>
        <time>2017-09-21T13:29:26Z</time>
      </trkpt>
      <trkpt lat="44.52282" lon="1.71197">
        <ele>232</ele>
        <time>2017-09-21T13:29:32Z</time>
      </trkpt>
      <trkpt lat="44.5232" lon="1.71195">
        <ele>234</ele>
        <time>2017-09-21T13:30:02Z</time>
      </trkpt>
      <trkpt lat="44.52326" lon="1.71194">
        <ele>235</ele>
        <time>2017-09-21T13:30:07Z</time>
      </trkpt>
      <trkpt lat="44.52331" lon="1.71193">
        <ele>235</ele>
        <time>2017-09-21T13:30:12Z</time>
      </trkpt>
      <trkpt lat="44.52335" lon="1.71192">
        <ele>241</ele>
        <time>2017-09-21T13:30:16Z</time>
      </trkpt>
      <trkpt lat="44.52341" lon="1.71182">
        <ele>241</ele>
        <time>2017-09-21T13:30:24Z</time>
      </trkpt>
      <trkpt lat="44.52343" lon="1.71177">
        <ele>241</ele>
        <time>2017-09-21T13:30:28Z</time>
      </trkpt>
      <trkpt lat="44.52346" lon="1.71163">
        <ele>243</ele>
        <time>2017-09-21T13:30:37Z</time>
      </trkpt>
      <trkpt lat="44.52345" lon="1.71157">
        <ele>243</ele>
        <time>2017-09-21T13:30:41Z</time>
      </trkpt>
      <trkpt lat="44.52345" lon="1.71152">
        <ele>243</ele>
        <time>2017-09-21T13:30:44Z</time>
      </trkpt>
      <trkpt lat="44.52347" lon="1.71145">
        <ele>244</ele>
        <time>2017-09-21T13:30:48Z</time>
      </trkpt>
      <trkpt lat="44.52346" lon="1.7111">
        <ele>244</ele>
        <time>2017-09-21T13:31:11Z</time>
      </trkpt>
      <trkpt lat="44.52343" lon="1.71095">
        <ele>244</ele>
        <time>2017-09-21T13:31:19Z</time>
      </trkpt>
      <trkpt lat="44.52343" lon="1.71091">
        <ele>244</ele>
        <time>2017-09-21T13:31:22Z</time>
      </trkpt>
      <trkpt lat="44.52339" lon="1.71071">
        <ele>243</ele>
        <time>2017-09-21T13:31:36Z</time>
      </trkpt>
      <trkpt lat="44.52338" lon="1.71067">
        <ele>242</ele>
        <time>2017-09-21T13:31:40Z</time>
      </trkpt>
      <trkpt lat="44.52335" lon="1.71051">
        <ele>242</ele>
        <time>2017-09-21T13:31:51Z</time>
      </trkpt>
      <trkpt lat="44.52333" lon="1.71046">
        <ele>241</ele>
        <time>2017-09-21T13:31:54Z</time>
      </trkpt>
      <trkpt lat="44.52332" lon="1.71039">
        <ele>240</ele>
        <time>2017-09-21T13:31:59Z</time>
      </trkpt>
      <trkpt lat="44.52331" lon="1.71028">
        <ele>239</ele>
        <time>2017-09-21T13:32:07Z</time>
      </trkpt>
      <trkpt lat="44.52333" lon="1.71023">
        <ele>239</ele>
        <time>2017-09-21T13:32:11Z</time>
      </trkpt>
      <trkpt lat="44.52335" lon="1.71018">
        <ele>240</ele>
        <time>2017-09-21T13:32:15Z</time>
      </trkpt>
      <trkpt lat="44.52347" lon="1.71001">
        <ele>239</ele>
        <time>2017-09-21T13:32:27Z</time>
      </trkpt>
      <trkpt lat="44.52348" lon="1.70996">
        <ele>234</ele>
        <time>2017-09-21T13:32:31Z</time>
      </trkpt>
      <trkpt lat="44.52354" lon="1.70986">
        <ele>233</ele>
        <time>2017-09-21T13:32:40Z</time>
      </trkpt>
      <trkpt lat="44.52356" lon="1.70984">
        <ele>233</ele>
        <time>2017-09-21T13:32:42Z</time>
      </trkpt>
      <trkpt lat="44.52379" lon="1.70949">
        <ele>230</ele>
        <time>2017-09-21T13:33:11Z</time>
      </trkpt>
      <trkpt lat="44.52386" lon="1.70943">
        <ele>230</ele>
        <time>2017-09-21T13:33:17Z</time>
      </trkpt>
      <trkpt lat="44.52389" lon="1.70938">
        <ele>230</ele>
        <time>2017-09-21T13:33:21Z</time>
      </trkpt>
      <trkpt lat="44.52391" lon="1.70935">
        <ele>229</ele>
        <time>2017-09-21T13:33:23Z</time>
      </trkpt>
      <trkpt lat="44.52406" lon="1.70914">
        <ele>223</ele>
        <time>2017-09-21T13:33:41Z</time>
      </trkpt>
      <trkpt lat="44.52408" lon="1.7091">
        <ele>223</ele>
        <time>2017-09-21T13:33:44Z</time>
      </trkpt>
      <trkpt lat="44.5241" lon="1.70907">
        <ele>222</ele>
        <time>2017-09-21T13:33:47Z</time>
      </trkpt>
      <trkpt lat="44.52414" lon="1.70901">
        <ele>221</ele>
        <time>2017-09-21T13:33:52Z</time>
      </trkpt>
      <trkpt lat="44.52417" lon="1.70898">
        <ele>225</ele>
        <time>2017-09-21T13:33:55Z</time>
      </trkpt>
      <trkpt lat="44.52421" lon="1.70892">
        <ele>224</ele>
        <time>2017-09-21T13:34:00Z</time>
      </trkpt>
      <trkpt lat="44.52424" lon="1.70888">
        <ele>223</ele>
        <time>2017-09-21T13:34:03Z</time>
      </trkpt>
      <trkpt lat="44.52429" lon="1.70882">
        <ele>222</ele>
        <time>2017-09-21T13:34:09Z</time>
      </trkpt>
      <trkpt lat="44.52431" lon="1.70878">
        <ele>222</ele>
        <time>2017-09-21T13:34:12Z</time>
      </trkpt>
      <trkpt lat="44.52444" lon="1.7086">
        <ele>220</ele>
        <time>2017-09-21T13:34:29Z</time>
      </trkpt>
      <trkpt lat="44.52446" lon="1.70857">
        <ele>220</ele>
        <time>2017-09-21T13:34:32Z</time>
      </trkpt>
      <trkpt lat="44.52455" lon="1.70847">
        <ele>220</ele>
        <time>2017-09-21T13:34:42Z</time>
      </trkpt>
      <trkpt lat="44.52456" lon="1.70844">
        <ele>220</ele>
        <time>2017-09-21T13:34:45Z</time>
      </trkpt>
      <trkpt lat="44.52466" lon="1.70831">
        <ele>213</ele>
        <time>2017-09-21T13:34:56Z</time>
      </trkpt>
      <trkpt lat="44.52468" lon="1.70827">
        <ele>213</ele>
        <time>2017-09-21T13:35:00Z</time>
      </trkpt>
      <trkpt lat="44.52476" lon="1.70818">
        <ele>214</ele>
        <time>2017-09-21T13:35:08Z</time>
      </trkpt>
      <trkpt lat="44.52478" lon="1.70815">
        <ele>214</ele>
        <time>2017-09-21T13:35:11Z</time>
      </trkpt>
      <trkpt lat="44.52482" lon="1.70811">
        <ele>214</ele>
        <time>2017-09-21T13:35:16Z</time>
      </trkpt>
      <trkpt lat="44.52484" lon="1.70809">
        <ele>214</ele>
        <time>2017-09-21T13:35:18Z</time>
      </trkpt>
      <trkpt lat="44.52495" lon="1.70801">
        <ele>214</ele>
        <time>2017-09-21T13:35:28Z</time>
      </trkpt>
      <trkpt lat="44.52498" lon="1.70799">
        <ele>214</ele>
        <time>2017-09-21T13:35:31Z</time>
      </trkpt>
      <trkpt lat="44.52505" lon="1.70794">
        <ele>217</ele>
        <time>2017-09-21T13:35:40Z</time>
      </trkpt>
      <trkpt lat="44.52508" lon="1.70794">
        <ele>217</ele>
        <time>2017-09-21T13:36:16Z</time>
      </trkpt>
      <trkpt lat="44.52511" lon="1.70792">
        <ele>217</ele>
        <time>2017-09-21T13:36:19Z</time>
      </trkpt>
      <trkpt lat="44.52515" lon="1.7079">
        <ele>217</ele>
        <time>2017-09-21T13:36:22Z</time>
      </trkpt>
      <trkpt lat="44.52517" lon="1.70788">
        <ele>217</ele>
        <time>2017-09-21T13:36:25Z</time>
      </trkpt>
      <trkpt lat="44.52521" lon="1.70786">
        <ele>217</ele>
        <time>2017-09-21T13:36:29Z</time>
      </trkpt>
      <trkpt lat="44.52529" lon="1.70784">
        <ele>217</ele>
        <time>2017-09-21T13:37:10Z</time>
      </trkpt>
      <trkpt lat="44.52532" lon="1.70783">
        <ele>217</ele>
        <time>2017-09-21T13:37:15Z</time>
      </trkpt>
      <trkpt lat="44.52535" lon="1.70782">
        <ele>218</ele>
        <time>2017-09-21T13:37:22Z</time>
      </trkpt>
      <trkpt lat="44.52538" lon="1.7078">
        <ele>218</ele>
        <time>2017-09-21T13:37:25Z</time>
      </trkpt>
      <trkpt lat="44.52543" lon="1.70778">
        <ele>218</ele>
        <time>2017-09-21T13:37:29Z</time>
      </trkpt>
      <trkpt lat="44.52553" lon="1.70774">
        <ele>218</ele>
        <time>2017-09-21T13:37:37Z</time>
      </trkpt>
      <trkpt lat="44.52558" lon="1.70771">
        <ele>218</ele>
        <time>2017-09-21T13:37:41Z</time>
      </trkpt>
      <trkpt lat="44.52574" lon="1.70756">
        <ele>218</ele>
        <time>2017-09-21T13:37:59Z</time>
      </trkpt>
      <trkpt lat="44.52581" lon="1.70755">
        <ele>218</ele>
        <time>2017-09-21T13:38:05Z</time>
      </trkpt>
      <trkpt lat="44.52594" lon="1.70749">
        <ele>221</ele>
        <time>2017-09-21T13:38:16Z</time>
      </trkpt>
      <trkpt lat="44.526" lon="1.70746">
        <ele>222</ele>
        <time>2017-09-21T13:38:21Z</time>
      </trkpt>
      <trkpt lat="44.52612" lon="1.70735">
        <ele>224</ele>
        <time>2017-09-21T13:38:33Z</time>
      </trkpt>
      <trkpt lat="44.5262" lon="1.70731">
        <ele>225</ele>
        <time>2017-09-21T13:38:41Z</time>
      </trkpt>
      <trkpt lat="44.52624" lon="1.70725">
        <ele>225</ele>
        <time>2017-09-21T13:38:48Z</time>
      </trkpt>
      <trkpt lat="44.52629" lon="1.70719">
        <ele>226</ele>
        <time>2017-09-21T13:38:55Z</time>
      </trkpt>
      <trkpt lat="44.52635" lon="1.70717">
        <ele>226</ele>
        <time>2017-09-21T13:39:02Z</time>
      </trkpt>
      <trkpt lat="44.52644" lon="1.70707">
        <ele>227</ele>
        <time>2017-09-21T13:39:16Z</time>
      </trkpt>
      <trkpt lat="44.52657" lon="1.70696">
        <ele>228</ele>
        <time>2017-09-21T13:39:28Z</time>
      </trkpt>
      <trkpt lat="44.52663" lon="1.70694">
        <ele>229</ele>
        <time>2017-09-21T13:39:35Z</time>
      </trkpt>
      <trkpt lat="44.5268" lon="1.70677">
        <ele>232</ele>
        <time>2017-09-21T13:39:48Z</time>
      </trkpt>
      <trkpt lat="44.52683" lon="1.70671">
        <ele>232</ele>
        <time>2017-09-21T13:39:52Z</time>
      </trkpt>
      <trkpt lat="44.52688" lon="1.70665">
        <ele>236</ele>
        <time>2017-09-21T13:39:56Z</time>
      </trkpt>
      <trkpt lat="44.52698" lon="1.70653">
        <ele>237</ele>
        <time>2017-09-21T13:40:08Z</time>
      </trkpt>
      <trkpt lat="44.52702" lon="1.70644">
        <ele>237</ele>
        <time>2017-09-21T13:40:14Z</time>
      </trkpt>
      <trkpt lat="44.52704" lon="1.70638">
        <ele>238</ele>
        <time>2017-09-21T13:40:16Z</time>
      </trkpt>
      <trkpt lat="44.52713" lon="1.70621">
        <ele>239</ele>
        <time>2017-09-21T13:40:29Z</time>
      </trkpt>
      <trkpt lat="44.52716" lon="1.70613">
        <ele>239</ele>
        <time>2017-09-21T13:40:35Z</time>
      </trkpt>
      <trkpt lat="44.52725" lon="1.70604">
        <ele>240</ele>
        <time>2017-09-21T13:40:44Z</time>
      </trkpt>
      <trkpt lat="44.52728" lon="1.70601">
        <ele>240</ele>
        <time>2017-09-21T13:40:47Z</time>
      </trkpt>
      <trkpt lat="44.5273" lon="1.70599">
        <ele>240</ele>
        <time>2017-09-21T13:40:49Z</time>
      </trkpt>
      <trkpt lat="44.52736" lon="1.70591">
        <ele>241</ele>
        <time>2017-09-21T13:40:55Z</time>
      </trkpt>
      <trkpt lat="44.52738" lon="1.7059">
        <ele>241</ele>
        <time>2017-09-21T13:40:57Z</time>
      </trkpt>
      <trkpt lat="44.52743" lon="1.70591">
        <ele>241</ele>
        <time>2017-09-21T13:41:02Z</time>
      </trkpt>
      <trkpt lat="44.52758" lon="1.70589">
        <ele>242</ele>
        <time>2017-09-21T13:41:16Z</time>
      </trkpt>
      <trkpt lat="44.52762" lon="1.70588">
        <ele>242</ele>
        <time>2017-09-21T13:41:20Z</time>
      </trkpt>
      <trkpt lat="44.52766" lon="1.70584">
        <ele>242</ele>
        <time>2017-09-21T13:41:25Z</time>
      </trkpt>
      <trkpt lat="44.52771" lon="1.70578">
        <ele>244</ele>
        <time>2017-09-21T13:41:29Z</time>
      </trkpt>
      <trkpt lat="44.52773" lon="1.70573">
        <ele>245</ele>
        <time>2017-09-21T13:41:32Z</time>
      </trkpt>
      <trkpt lat="44.52783" lon="1.7056">
        <ele>245</ele>
        <time>2017-09-21T13:41:42Z</time>
      </trkpt>
      <trkpt lat="44.52786" lon="1.7055">
        <ele>245</ele>
        <time>2017-09-21T13:41:51Z</time>
      </trkpt>
      <trkpt lat="44.52785" lon="1.70546">
        <ele>246</ele>
        <time>2017-09-21T13:42:19Z</time>
      </trkpt>
      <trkpt lat="44.52783" lon="1.70541">
        <ele>246</ele>
        <time>2017-09-21T13:42:22Z</time>
      </trkpt>
      <trkpt lat="44.52781" lon="1.70537">
        <ele>246</ele>
        <time>2017-09-21T13:42:25Z</time>
      </trkpt>
      <trkpt lat="44.52774" lon="1.70519">
        <ele>246</ele>
        <time>2017-09-21T13:42:36Z</time>
      </trkpt>
      <trkpt lat="44.52764" lon="1.70496">
        <ele>250</ele>
        <time>2017-09-21T13:42:50Z</time>
      </trkpt>
      <trkpt lat="44.52759" lon="1.70483">
        <ele>251</ele>
        <time>2017-09-21T13:42:58Z</time>
      </trkpt>
      <trkpt lat="44.52758" lon="1.7048">
        <ele>251</ele>
        <time>2017-09-21T13:43:00Z</time>
      </trkpt>
      <trkpt lat="44.52759" lon="1.70477">
        <ele>251</ele>
        <time>2017-09-21T13:43:02Z</time>
      </trkpt>
      <trkpt lat="44.52759" lon="1.70474">
        <ele>251</ele>
        <time>2017-09-21T13:43:04Z</time>
      </trkpt>
      <trkpt lat="44.52758" lon="1.70471">
        <ele>252</ele>
        <time>2017-09-21T13:43:06Z</time>
      </trkpt>
      <trkpt lat="44.52754" lon="1.70454">
        <ele>253</ele>
        <time>2017-09-21T13:43:19Z</time>
      </trkpt>
      <trkpt lat="44.52749" lon="1.70451">
        <ele>254</ele>
        <time>2017-09-21T13:43:26Z</time>
      </trkpt>
      <trkpt lat="44.52745" lon="1.70447">
        <ele>254</ele>
        <time>2017-09-21T13:43:31Z</time>
      </trkpt>
      <trkpt lat="44.52741" lon="1.70447">
        <ele>254</ele>
        <time>2017-09-21T13:43:34Z</time>
      </trkpt>
      <trkpt lat="44.52736" lon="1.70443">
        <ele>254</ele>
        <time>2017-09-21T13:43:39Z</time>
      </trkpt>
      <trkpt lat="44.5273" lon="1.70441">
        <ele>254</ele>
        <time>2017-09-21T13:43:44Z</time>
      </trkpt>
      <trkpt lat="44.52716" lon="1.70444">
        <ele>254</ele>
        <time>2017-09-21T13:43:52Z</time>
      </trkpt>
      <trkpt lat="44.52712" lon="1.70445">
        <ele>254</ele>
        <time>2017-09-21T13:43:54Z</time>
      </trkpt>
      <trkpt lat="44.52709" lon="1.70444">
        <ele>254</ele>
        <time>2017-09-21T13:43:56Z</time>
      </trkpt>
      <trkpt lat="44.52706" lon="1.70444">
        <ele>254</ele>
        <time>2017-09-21T13:43:59Z</time>
      </trkpt>
      <trkpt lat="44.52701" lon="1.70446">
        <ele>254</ele>
        <time>2017-09-21T13:44:03Z</time>
      </trkpt>
      <trkpt lat="44.5269" lon="1.70444">
        <ele>254</ele>
        <time>2017-09-21T13:44:15Z</time>
      </trkpt>
      <trkpt lat="44.52684" lon="1.70442">
        <ele>255</ele>
        <time>2017-09-21T13:44:19Z</time>
      </trkpt>
      <trkpt lat="44.52677" lon="1.70443">
        <ele>255</ele>
        <time>2017-09-21T13:44:23Z</time>
      </trkpt>
      <trkpt lat="44.5267" lon="1.70443">
        <ele>255</ele>
        <time>2017-09-21T13:44:30Z</time>
      </trkpt>
      <trkpt lat="44.52657" lon="1.70437">
        <ele>257</ele>
        <time>2017-09-21T13:44:40Z</time>
      </trkpt>
      <trkpt lat="44.52644" lon="1.70431">
        <ele>257</ele>
        <time>2017-09-21T13:44:52Z</time>
      </trkpt>
      <trkpt lat="44.52639" lon="1.70425">
        <ele>258</ele>
        <time>2017-09-21T13:44:58Z</time>
      </trkpt>
      <trkpt lat="44.52616" lon="1.70415">
        <ele>264</ele>
        <time>2017-09-21T13:45:15Z</time>
      </trkpt>
      <trkpt lat="44.52611" lon="1.70413">
        <ele>264</ele>
        <time>2017-09-21T13:45:20Z</time>
      </trkpt>
      <trkpt lat="44.52595" lon="1.70406">
        <ele>264</ele>
        <time>2017-09-21T13:45:35Z</time>
      </trkpt>
      <trkpt lat="44.52589" lon="1.70405">
        <ele>264</ele>
        <time>2017-09-21T13:45:40Z</time>
      </trkpt>
      <trkpt lat="44.52584" lon="1.704">
        <ele>264</ele>
        <time>2017-09-21T13:45:45Z</time>
      </trkpt>
      <trkpt lat="44.52573" lon="1.70389">
        <ele>264</ele>
        <time>2017-09-21T13:45:55Z</time>
      </trkpt>
      <trkpt lat="44.52562" lon="1.7038">
        <ele>264</ele>
        <time>2017-09-21T13:46:05Z</time>
      </trkpt>
      <trkpt lat="44.52556" lon="1.70378">
        <ele>264</ele>
        <time>2017-09-21T13:46:11Z</time>
      </trkpt>
      <trkpt lat="44.52551" lon="1.70374">
        <ele>264</ele>
        <time>2017-09-21T13:46:16Z</time>
      </trkpt>
      <trkpt lat="44.52545" lon="1.70372">
        <ele>264</ele>
        <time>2017-09-21T13:46:20Z</time>
      </trkpt>
      <trkpt lat="44.52528" lon="1.70354">
        <ele>264</ele>
        <time>2017-09-21T13:46:35Z</time>
      </trkpt>
      <trkpt lat="44.5251" lon="1.70341">
        <ele>264</ele>
        <time>2017-09-21T13:46:55Z</time>
      </trkpt>
      <trkpt lat="44.52506" lon="1.70338">
        <ele>264</ele>
        <time>2017-09-21T13:46:59Z</time>
      </trkpt>
      <trkpt lat="44.52467" lon="1.70322">
        <ele>261</ele>
        <time>2017-09-21T13:47:30Z</time>
      </trkpt>
      <trkpt lat="44.52462" lon="1.7032">
        <ele>261</ele>
        <time>2017-09-21T13:47:34Z</time>
      </trkpt>
      <trkpt lat="44.52457" lon="1.70317">
        <ele>261</ele>
        <time>2017-09-21T13:47:38Z</time>
      </trkpt>
      <trkpt lat="44.52448" lon="1.7032">
        <ele>260</ele>
        <time>2017-09-21T13:47:47Z</time>
      </trkpt>
      <trkpt lat="44.52443" lon="1.70321">
        <ele>260</ele>
        <time>2017-09-21T13:47:51Z</time>
      </trkpt>
      <trkpt lat="44.52439" lon="1.7032">
        <ele>260</ele>
        <time>2017-09-21T13:47:54Z</time>
      </trkpt>
      <trkpt lat="44.52435" lon="1.70316">
        <ele>260</ele>
        <time>2017-09-21T13:47:58Z</time>
      </trkpt>
      <trkpt lat="44.52432" lon="1.70313">
        <ele>260</ele>
        <time>2017-09-21T13:48:02Z</time>
      </trkpt>
      <trkpt lat="44.52423" lon="1.70265">
        <ele>260</ele>
        <time>2017-09-21T13:48:33Z</time>
      </trkpt>
      <trkpt lat="44.52422" lon="1.7026">
        <ele>260</ele>
        <time>2017-09-21T13:48:36Z</time>
      </trkpt>
      <trkpt lat="44.52421" lon="1.70254">
        <ele>259</ele>
        <time>2017-09-21T13:48:40Z</time>
      </trkpt>
      <trkpt lat="44.5242" lon="1.70249">
        <ele>259</ele>
        <time>2017-09-21T13:48:43Z</time>
      </trkpt>
      <trkpt lat="44.52418" lon="1.70244">
        <ele>260</ele>
        <time>2017-09-21T13:48:46Z</time>
      </trkpt>
      <trkpt lat="44.52417" lon="1.70238">
        <ele>260</ele>
        <time>2017-09-21T13:48:50Z</time>
      </trkpt>
      <trkpt lat="44.52415" lon="1.70224">
        <ele>259</ele>
        <time>2017-09-21T13:48:58Z</time>
      </trkpt>
      <trkpt lat="44.52411" lon="1.70211">
        <ele>260</ele>
        <time>2017-09-21T13:49:06Z</time>
      </trkpt>
      <trkpt lat="44.52409" lon="1.70199">
        <ele>260</ele>
        <time>2017-09-21T13:49:12Z</time>
      </trkpt>
      <trkpt lat="44.52394" lon="1.70154">
        <ele>259</ele>
        <time>2017-09-21T13:49:38Z</time>
      </trkpt>
      <trkpt lat="44.52392" lon="1.70149">
        <ele>259</ele>
        <time>2017-09-21T13:49:42Z</time>
      </trkpt>
      <trkpt lat="44.5238" lon="1.70113">
        <ele>258</ele>
        <time>2017-09-21T13:50:04Z</time>
      </trkpt>
      <trkpt lat="44.52373" lon="1.70099">
        <ele>258</ele>
        <time>2017-09-21T13:50:13Z</time>
      </trkpt>
      <trkpt lat="44.52373" lon="1.70094">
        <ele>258</ele>
        <time>2017-09-21T13:50:15Z</time>
      </trkpt>
      <trkpt lat="44.52371" lon="1.70088">
        <ele>257</ele>
        <time>2017-09-21T13:50:19Z</time>
      </trkpt>
      <trkpt lat="44.5237" lon="1.70084">
        <ele>257</ele>
        <time>2017-09-21T13:50:21Z</time>
      </trkpt>
      <trkpt lat="44.52368" lon="1.70078">
        <ele>254</ele>
        <time>2017-09-21T13:50:25Z</time>
      </trkpt>
      <trkpt lat="44.52354" lon="1.70043">
        <ele>253</ele>
        <time>2017-09-21T13:50:49Z</time>
      </trkpt>
      <trkpt lat="44.52351" lon="1.70027">
        <ele>252</ele>
        <time>2017-09-21T13:50:58Z</time>
      </trkpt>
      <trkpt lat="44.52349" lon="1.7002">
        <ele>252</ele>
        <time>2017-09-21T13:51:02Z</time>
      </trkpt>
      <trkpt lat="44.52334" lon="1.6998">
        <ele>249</ele>
        <time>2017-09-21T13:51:27Z</time>
      </trkpt>
      <trkpt lat="44.52324" lon="1.69945">
        <ele>251</ele>
        <time>2017-09-21T13:51:47Z</time>
      </trkpt>
      <trkpt lat="44.52319" lon="1.69929">
        <ele>251</ele>
        <time>2017-09-21T13:51:56Z</time>
      </trkpt>
      <trkpt lat="44.52309" lon="1.69893">
        <ele>250</ele>
        <time>2017-09-21T13:52:17Z</time>
      </trkpt>
      <trkpt lat="44.52308" lon="1.69889">
        <ele>250</ele>
        <time>2017-09-21T13:52:20Z</time>
      </trkpt>
      <trkpt lat="44.52298" lon="1.69856">
        <ele>250</ele>
        <time>2017-09-21T13:52:39Z</time>
      </trkpt>
      <trkpt lat="44.52296" lon="1.69852">
        <ele>250</ele>
        <time>2017-09-21T13:52:42Z</time>
      </trkpt>
      <trkpt lat="44.52292" lon="1.69838">
        <ele>250</ele>
        <time>2017-09-21T13:52:51Z</time>
      </trkpt>
      <trkpt lat="44.52285" lon="1.69816">
        <ele>248</ele>
        <time>2017-09-21T13:53:04Z</time>
      </trkpt>
      <trkpt lat="44.52283" lon="1.69811">
        <ele>248</ele>
        <time>2017-09-21T13:53:07Z</time>
      </trkpt>
      <trkpt lat="44.52277" lon="1.69799">
        <ele>248</ele>
        <time>2017-09-21T13:53:15Z</time>
      </trkpt>
      <trkpt lat="44.52275" lon="1.6979">
        <ele>248</ele>
        <time>2017-09-21T13:53:19Z</time>
      </trkpt>
      <trkpt lat="44.52274" lon="1.69787">
        <ele>248</ele>
        <time>2017-09-21T13:53:21Z</time>
      </trkpt>
      <trkpt lat="44.5227" lon="1.69764">
        <ele>247</ele>
        <time>2017-09-21T13:53:35Z</time>
      </trkpt>
      <trkpt lat="44.52266" lon="1.69708">
        <ele>243</ele>
        <time>2017-09-21T13:54:05Z</time>
      </trkpt>
      <trkpt lat="44.52262" lon="1.69658">
        <ele>241</ele>
        <time>2017-09-21T13:54:35Z</time>
      </trkpt>
      <trkpt lat="44.52261" lon="1.69652">
        <ele>241</ele>
        <time>2017-09-21T13:54:39Z</time>
      </trkpt>
      <trkpt lat="44.52261" lon="1.69645">
        <ele>240</ele>
        <time>2017-09-21T13:54:44Z</time>
      </trkpt>
      <trkpt lat="44.5226" lon="1.69632">
        <ele>239</ele>
        <time>2017-09-21T13:54:51Z</time>
      </trkpt>
      <trkpt lat="44.52259" lon="1.69616">
        <ele>239</ele>
        <time>2017-09-21T13:55:02Z</time>
      </trkpt>
      <trkpt lat="44.52257" lon="1.6961">
        <ele>239</ele>
        <time>2017-09-21T13:55:06Z</time>
      </trkpt>
      <trkpt lat="44.52256" lon="1.69592">
        <ele>239</ele>
        <time>2017-09-21T13:55:16Z</time>
      </trkpt>
      <trkpt lat="44.5225" lon="1.69556">
        <ele>238</ele>
        <time>2017-09-21T13:55:37Z</time>
      </trkpt>
      <trkpt lat="44.52249" lon="1.6955">
        <ele>238</ele>
        <time>2017-09-21T13:55:41Z</time>
      </trkpt>
      <trkpt lat="44.5225" lon="1.69546">
        <ele>238</ele>
        <time>2017-09-21T13:55:44Z</time>
      </trkpt>
      <trkpt lat="44.52252" lon="1.69544">
        <ele>234</ele>
        <time>2017-09-21T13:55:47Z</time>
      </trkpt>
      <trkpt lat="44.52256" lon="1.69543">
        <ele>234</ele>
        <time>2017-09-21T13:55:50Z</time>
      </trkpt>
      <trkpt lat="44.52278" lon="1.69549">
        <ele>234</ele>
        <time>2017-09-21T13:56:09Z</time>
      </trkpt>
      <trkpt lat="44.52287" lon="1.69556">
        <ele>234</ele>
        <time>2017-09-21T13:56:17Z</time>
      </trkpt>
      <trkpt lat="44.52299" lon="1.6956">
        <ele>234</ele>
        <time>2017-09-21T13:56:27Z</time>
      </trkpt>
      <trkpt lat="44.523" lon="1.69561">
        <ele>234</ele>
        <time>2017-09-21T13:56:29Z</time>
      </trkpt>
      <trkpt lat="44.52303" lon="1.69562">
        <ele>233</ele>
        <time>2017-09-21T13:56:31Z</time>
      </trkpt>
      <trkpt lat="44.52306" lon="1.69563">
        <ele>233</ele>
        <time>2017-09-21T13:56:34Z</time>
      </trkpt>
      <trkpt lat="44.52309" lon="1.69564">
        <ele>233</ele>
        <time>2017-09-21T13:56:37Z</time>
      </trkpt>
      <trkpt lat="44.52318" lon="1.69568">
        <ele>233</ele>
        <time>2017-09-21T13:56:45Z</time>
      </trkpt>
      <trkpt lat="44.52335" lon="1.69567">
        <ele>230</ele>
        <time>2017-09-21T13:56:59Z</time>
      </trkpt>
      <trkpt lat="44.52338" lon="1.69568">
        <ele>230</ele>
        <time>2017-09-21T13:57:02Z</time>
      </trkpt>
      <trkpt lat="44.52342" lon="1.6957">
        <ele>230</ele>
        <time>2017-09-21T13:57:06Z</time>
      </trkpt>
      <trkpt lat="44.52346" lon="1.6957">
        <ele>230</ele>
        <time>2017-09-21T13:57:10Z</time>
      </trkpt>
      <trkpt lat="44.52359" lon="1.69571">
        <ele>229</ele>
        <time>2017-09-21T13:57:21Z</time>
      </trkpt>
      <trkpt lat="44.52368" lon="1.69572">
        <ele>228</ele>
        <time>2017-09-21T13:57:28Z</time>
      </trkpt>
      <trkpt lat="44.524" lon="1.69562">
        <ele>226</ele>
        <time>2017-09-21T13:57:54Z</time>
      </trkpt>
      <trkpt lat="44.52404" lon="1.69563">
        <ele>226</ele>
        <time>2017-09-21T13:57:58Z</time>
      </trkpt>
      <trkpt lat="44.52412" lon="1.69558">
        <ele>226</ele>
        <time>2017-09-21T13:58:04Z</time>
      </trkpt>
      <trkpt lat="44.52422" lon="1.69554">
        <ele>223</ele>
        <time>2017-09-21T13:58:15Z</time>
      </trkpt>
      <trkpt lat="44.52426" lon="1.69552">
        <ele>223</ele>
        <time>2017-09-21T13:58:19Z</time>
      </trkpt>
      <trkpt lat="44.52434" lon="1.69543">
        <ele>223</ele>
        <time>2017-09-21T13:58:29Z</time>
      </trkpt>
      <trkpt lat="44.52436" lon="1.6954">
        <ele>223</ele>
        <time>2017-09-21T13:58:31Z</time>
      </trkpt>
      <trkpt lat="44.52438" lon="1.69537">
        <ele>223</ele>
        <time>2017-09-21T13:58:34Z</time>
      </trkpt>
      <trkpt lat="44.5244" lon="1.69539">
        <ele>223</ele>
        <time>2017-09-21T13:58:37Z</time>
      </trkpt>
      <trkpt lat="44.52441" lon="1.69542">
        <ele>223</ele>
        <time>2017-09-21T13:58:39Z</time>
      </trkpt>
      <trkpt lat="44.52441" lon="1.69548">
        <ele>223</ele>
        <time>2017-09-21T13:58:43Z</time>
      </trkpt>
      <trkpt lat="44.52441" lon="1.69552">
        <ele>223</ele>
        <time>2017-09-21T13:58:45Z</time>
      </trkpt>
      <trkpt lat="44.52444" lon="1.69558">
        <ele>223</ele>
        <time>2017-09-21T13:58:49Z</time>
      </trkpt>
      <trkpt lat="44.52457" lon="1.69578">
        <ele>223</ele>
        <time>2017-09-21T13:59:05Z</time>
      </trkpt>
      <trkpt lat="44.52465" lon="1.69588">
        <ele>224</ele>
        <time>2017-09-21T13:59:14Z</time>
      </trkpt>
      <trkpt lat="44.52468" lon="1.69591">
        <ele>224</ele>
        <time>2017-09-21T13:59:17Z</time>
      </trkpt>
      <trkpt lat="44.52488" lon="1.69614">
        <ele>225</ele>
        <time>2017-09-21T13:59:38Z</time>
      </trkpt>
      <trkpt lat="44.52508" lon="1.69625">
        <ele>225</ele>
        <time>2017-09-21T13:59:56Z</time>
      </trkpt>
      <trkpt lat="44.52519" lon="1.69629">
        <ele>225</ele>
        <time>2017-09-21T14:00:05Z</time>
      </trkpt>
      <trkpt lat="44.52527" lon="1.69633">
        <ele>226</ele>
        <time>2017-09-21T14:00:12Z</time>
      </trkpt>
      <trkpt lat="44.52537" lon="1.69641">
        <ele>226</ele>
        <time>2017-09-21T14:00:22Z</time>
      </trkpt>
      <trkpt lat="44.52541" lon="1.69643">
        <ele>226</ele>
        <time>2017-09-21T14:00:25Z</time>
      </trkpt>
      <trkpt lat="44.52554" lon="1.69657">
        <ele>226</ele>
        <time>2017-09-21T14:00:37Z</time>
      </trkpt>
      <trkpt lat="44.52553" lon="1.69653">
        <ele>226</ele>
        <time>2017-09-21T14:01:03Z</time>
      </trkpt>
      <trkpt lat="44.52552" lon="1.69648">
        <ele>226</ele>
        <time>2017-09-21T14:01:08Z</time>
      </trkpt>
      <trkpt lat="44.52547" lon="1.69643">
        <ele>226</ele>
        <time>2017-09-21T14:01:14Z</time>
      </trkpt>
      <trkpt lat="44.52544" lon="1.69641">
        <ele>226</ele>
        <time>2017-09-21T14:01:18Z</time>
      </trkpt>
      <trkpt lat="44.52541" lon="1.69638">
        <ele>226</ele>
        <time>2017-09-21T14:01:23Z</time>
      </trkpt>
      <trkpt lat="44.5254" lon="1.69634">
        <ele>226</ele>
        <time>2017-09-21T14:01:27Z</time>
      </trkpt>
      <trkpt lat="44.52539" lon="1.6963">
        <ele>226</ele>
        <time>2017-09-21T14:01:33Z</time>
      </trkpt>
      <trkpt lat="44.52536" lon="1.69625">
        <ele>225</ele>
        <time>2017-09-21T14:01:37Z</time>
      </trkpt>
      <trkpt lat="44.52536" lon="1.69619">
        <ele>225</ele>
        <time>2017-09-21T14:01:41Z</time>
      </trkpt>
      <trkpt lat="44.52538" lon="1.69614">
        <ele>225</ele>
        <time>2017-09-21T14:01:44Z</time>
      </trkpt>
      <trkpt lat="44.52541" lon="1.69604">
        <ele>225</ele>
        <time>2017-09-21T14:01:50Z</time>
      </trkpt>
      <trkpt lat="44.52543" lon="1.69587">
        <ele>225</ele>
        <time>2017-09-21T14:01:59Z</time>
      </trkpt>
      <trkpt lat="44.52544" lon="1.69581">
        <ele>224</ele>
        <time>2017-09-21T14:02:03Z</time>
      </trkpt>
      <trkpt lat="44.52542" lon="1.69566">
        <ele>225</ele>
        <time>2017-09-21T14:02:13Z</time>
      </trkpt>
      <trkpt lat="44.52543" lon="1.69543">
        <ele>225</ele>
        <time>2017-09-21T14:02:27Z</time>
      </trkpt>
      <trkpt lat="44.52546" lon="1.69538">
        <ele>225</ele>
        <time>2017-09-21T14:02:31Z</time>
      </trkpt>
      <trkpt lat="44.52548" lon="1.69531">
        <ele>225</ele>
        <time>2017-09-21T14:02:42Z</time>
      </trkpt>
      <trkpt lat="44.52546" lon="1.69523">
        <ele>225</ele>
        <time>2017-09-21T14:02:47Z</time>
      </trkpt>
      <trkpt lat="44.52543" lon="1.69509">
        <ele>226</ele>
        <time>2017-09-21T14:03:03Z</time>
      </trkpt>
      <trkpt lat="44.52546" lon="1.69487">
        <ele>229</ele>
        <time>2017-09-21T14:03:14Z</time>
      </trkpt>
      <trkpt lat="44.52546" lon="1.6948">
        <ele>229</ele>
        <time>2017-09-21T14:03:17Z</time>
      </trkpt>
      <trkpt lat="44.52544" lon="1.69474">
        <ele>229</ele>
        <time>2017-09-21T14:03:21Z</time>
      </trkpt>
      <trkpt lat="44.52541" lon="1.69461">
        <ele>229</ele>
        <time>2017-09-21T14:03:28Z</time>
      </trkpt>
      <trkpt lat="44.5254" lon="1.69456">
        <ele>230</ele>
        <time>2017-09-21T14:03:31Z</time>
      </trkpt>
      <trkpt lat="44.52542" lon="1.6944">
        <ele>230</ele>
        <time>2017-09-21T14:03:39Z</time>
      </trkpt>
      <trkpt lat="44.52543" lon="1.69424">
        <ele>231</ele>
        <time>2017-09-21T14:03:48Z</time>
      </trkpt>
      <trkpt lat="44.52543" lon="1.69419">
        <ele>231</ele>
        <time>2017-09-21T14:03:51Z</time>
      </trkpt>
      <trkpt lat="44.52542" lon="1.69412">
        <ele>235</ele>
        <time>2017-09-21T14:03:55Z</time>
      </trkpt>
      <trkpt lat="44.52543" lon="1.694">
        <ele>235</ele>
        <time>2017-09-21T14:04:01Z</time>
      </trkpt>
      <trkpt lat="44.52548" lon="1.69384">
        <ele>236</ele>
        <time>2017-09-21T14:04:10Z</time>
      </trkpt>
      <trkpt lat="44.52549" lon="1.6938">
        <ele>236</ele>
        <time>2017-09-21T14:04:12Z</time>
      </trkpt>
      <trkpt lat="44.52551" lon="1.69365">
        <ele>237</ele>
        <time>2017-09-21T14:04:21Z</time>
      </trkpt>
      <trkpt lat="44.52551" lon="1.69359">
        <ele>237</ele>
        <time>2017-09-21T14:04:24Z</time>
      </trkpt>
      <trkpt lat="44.52551" lon="1.69354">
        <ele>237</ele>
        <time>2017-09-21T14:04:27Z</time>
      </trkpt>
      <trkpt lat="44.52551" lon="1.69341">
        <ele>238</ele>
        <time>2017-09-21T14:04:34Z</time>
      </trkpt>
      <trkpt lat="44.52552" lon="1.69337">
        <ele>238</ele>
        <time>2017-09-21T14:04:37Z</time>
      </trkpt>
      <trkpt lat="44.52553" lon="1.69326">
        <ele>243</ele>
        <time>2017-09-21T14:04:43Z</time>
      </trkpt>
      <trkpt lat="44.52552" lon="1.69321">
        <ele>243</ele>
        <time>2017-09-21T14:04:46Z</time>
      </trkpt>
      <trkpt lat="44.52552" lon="1.69306">
        <ele>243</ele>
        <time>2017-09-21T14:04:55Z</time>
      </trkpt>
      <trkpt lat="44.52552" lon="1.69302">
        <ele>244</ele>
        <time>2017-09-21T14:04:58Z</time>
      </trkpt>
      <trkpt lat="44.52552" lon="1.69296">
        <ele>244</ele>
        <time>2017-09-21T14:05:02Z</time>
      </trkpt>
      <trkpt lat="44.52555" lon="1.6929">
        <ele>244</ele>
        <time>2017-09-21T14:05:06Z</time>
      </trkpt>
      <trkpt lat="44.52558" lon="1.69271">
        <ele>245</ele>
        <time>2017-09-21T14:05:18Z</time>
      </trkpt>
      <trkpt lat="44.52564" lon="1.69247">
        <ele>249</ele>
        <time>2017-09-21T14:05:35Z</time>
      </trkpt>
      <trkpt lat="44.52563" lon="1.6924">
        <ele>249</ele>
        <time>2017-09-21T14:05:39Z</time>
      </trkpt>
      <trkpt lat="44.52564" lon="1.69226">
        <ele>249</ele>
        <time>2017-09-21T14:05:47Z</time>
      </trkpt>
      <trkpt lat="44.52565" lon="1.69219">
        <ele>249</ele>
        <time>2017-09-21T14:05:51Z</time>
      </trkpt>
      <trkpt lat="44.52566" lon="1.69211">
        <ele>249</ele>
        <time>2017-09-21T14:05:56Z</time>
      </trkpt>
      <trkpt lat="44.52565" lon="1.69206">
        <ele>249</ele>
        <time>2017-09-21T14:05:59Z</time>
      </trkpt>
      <trkpt lat="44.52565" lon="1.69199">
        <ele>250</ele>
        <time>2017-09-21T14:06:02Z</time>
      </trkpt>
      <trkpt lat="44.52568" lon="1.69177">
        <ele>250</ele>
        <time>2017-09-21T14:06:16Z</time>
      </trkpt>
      <trkpt lat="44.52569" lon="1.6917">
        <ele>250</ele>
        <time>2017-09-21T14:06:21Z</time>
      </trkpt>
      <trkpt lat="44.52571" lon="1.69164">
        <ele>251</ele>
        <time>2017-09-21T14:06:24Z</time>
      </trkpt>
      <trkpt lat="44.52572" lon="1.69143">
        <ele>251</ele>
        <time>2017-09-21T14:06:36Z</time>
      </trkpt>
      <trkpt lat="44.52573" lon="1.69137">
        <ele>251</ele>
        <time>2017-09-21T14:06:39Z</time>
      </trkpt>
      <trkpt lat="44.52573" lon="1.69132">
        <ele>251</ele>
        <time>2017-09-21T14:06:42Z</time>
      </trkpt>
      <trkpt lat="44.52571" lon="1.69109">
        <ele>252</ele>
        <time>2017-09-21T14:06:54Z</time>
      </trkpt>
      <trkpt lat="44.52573" lon="1.69096">
        <ele>252</ele>
        <time>2017-09-21T14:07:01Z</time>
      </trkpt>
      <trkpt lat="44.52573" lon="1.69091">
        <ele>252</ele>
        <time>2017-09-21T14:07:04Z</time>
      </trkpt>
      <trkpt lat="44.52574" lon="1.69081">
        <ele>253</ele>
        <time>2017-09-21T14:07:10Z</time>
      </trkpt>
      <trkpt lat="44.52576" lon="1.69069">
        <ele>253</ele>
        <time>2017-09-21T14:07:16Z</time>
      </trkpt>
      <trkpt lat="44.52577" lon="1.69064">
        <ele>253</ele>
        <time>2017-09-21T14:07:19Z</time>
      </trkpt>
      <trkpt lat="44.52576" lon="1.6906">
        <ele>253</ele>
        <time>2017-09-21T14:07:22Z</time>
      </trkpt>
      <trkpt lat="44.52575" lon="1.69056">
        <ele>253</ele>
        <time>2017-09-21T14:07:25Z</time>
      </trkpt>
      <trkpt lat="44.52574" lon="1.69043">
        <ele>253</ele>
        <time>2017-09-21T14:07:32Z</time>
      </trkpt>
      <trkpt lat="44.52574" lon="1.69025">
        <ele>254</ele>
        <time>2017-09-21T14:07:42Z</time>
      </trkpt>
      <trkpt lat="44.52575" lon="1.6902">
        <ele>254</ele>
        <time>2017-09-21T14:07:44Z</time>
      </trkpt>
      <trkpt lat="44.52575" lon="1.69015">
        <ele>254</ele>
        <time>2017-09-21T14:07:48Z</time>
      </trkpt>
      <trkpt lat="44.52577" lon="1.69004">
        <ele>255</ele>
        <time>2017-09-21T14:07:55Z</time>
      </trkpt>
      <trkpt lat="44.52578" lon="1.68998">
        <ele>256</ele>
        <time>2017-09-21T14:07:59Z</time>
      </trkpt>
      <trkpt lat="44.52577" lon="1.68995">
        <ele>256</ele>
        <time>2017-09-21T14:08:01Z</time>
      </trkpt>
      <trkpt lat="44.52576" lon="1.68991">
        <ele>255</ele>
        <time>2017-09-21T14:08:04Z</time>
      </trkpt>
      <trkpt lat="44.52575" lon="1.68986">
        <ele>255</ele>
        <time>2017-09-21T14:08:09Z</time>
      </trkpt>
      <trkpt lat="44.52576" lon="1.6898">
        <ele>255</ele>
        <time>2017-09-21T14:08:27Z</time>
      </trkpt>
      <trkpt lat="44.52577" lon="1.68974">
        <ele>255</ele>
        <time>2017-09-21T14:08:35Z</time>
      </trkpt>
      <trkpt lat="44.52582" lon="1.68964">
        <ele>255</ele>
        <time>2017-09-21T14:08:43Z</time>
      </trkpt>
      <trkpt lat="44.52585" lon="1.68953">
        <ele>258</ele>
        <time>2017-09-21T14:08:51Z</time>
      </trkpt>
      <trkpt lat="44.52587" lon="1.68949">
        <ele>258</ele>
        <time>2017-09-21T14:08:55Z</time>
      </trkpt>
      <trkpt lat="44.52598" lon="1.68935">
        <ele>258</ele>
        <time>2017-09-21T14:09:06Z</time>
      </trkpt>
      <trkpt lat="44.52624" lon="1.6892">
        <ele>259</ele>
        <time>2017-09-21T14:09:28Z</time>
      </trkpt>
      <trkpt lat="44.52628" lon="1.68915">
        <ele>260</ele>
        <time>2017-09-21T14:09:32Z</time>
      </trkpt>
      <trkpt lat="44.52634" lon="1.68905">
        <ele>261</ele>
        <time>2017-09-21T14:09:39Z</time>
      </trkpt>
      <trkpt lat="44.52646" lon="1.68858">
        <ele>262</ele>
        <time>2017-09-21T14:10:09Z</time>
      </trkpt>
      <trkpt lat="44.52654" lon="1.68838">
        <ele>263</ele>
        <time>2017-09-21T14:10:22Z</time>
      </trkpt>
      <trkpt lat="44.52654" lon="1.68833">
        <ele>263</ele>
        <time>2017-09-21T14:10:25Z</time>
      </trkpt>
      <trkpt lat="44.52655" lon="1.68829">
        <ele>264</ele>
        <time>2017-09-21T14:10:28Z</time>
      </trkpt>
      <trkpt lat="44.52659" lon="1.6882">
        <ele>264</ele>
        <time>2017-09-21T14:10:34Z</time>
      </trkpt>
      <trkpt lat="44.52664" lon="1.68801">
        <ele>264</ele>
        <time>2017-09-21T14:10:45Z</time>
      </trkpt>
      <trkpt lat="44.52684" lon="1.68755">
        <ele>266</ele>
        <time>2017-09-21T14:11:15Z</time>
      </trkpt>
      <trkpt lat="44.52688" lon="1.68747">
        <ele>266</ele>
        <time>2017-09-21T14:11:21Z</time>
      </trkpt>
      <trkpt lat="44.52693" lon="1.68742">
        <ele>266</ele>
        <time>2017-09-21T14:11:26Z</time>
      </trkpt>
      <trkpt lat="44.52716" lon="1.68695">
        <ele>265</ele>
        <time>2017-09-21T14:11:57Z</time>
      </trkpt>
      <trkpt lat="44.52725" lon="1.68671">
        <ele>264</ele>
        <time>2017-09-21T14:12:13Z</time>
      </trkpt>
      <trkpt lat="44.52727" lon="1.68657">
        <ele>262</ele>
        <time>2017-09-21T14:12:21Z</time>
      </trkpt>
      <trkpt lat="44.52727" lon="1.68653">
        <ele>262</ele>
        <time>2017-09-21T14:12:23Z</time>
      </trkpt>
      <trkpt lat="44.52728" lon="1.6865">
        <ele>262</ele>
        <time>2017-09-21T14:12:25Z</time>
      </trkpt>
      <trkpt lat="44.52729" lon="1.68646">
        <ele>262</ele>
        <time>2017-09-21T14:12:28Z</time>
      </trkpt>
      <trkpt lat="44.5273" lon="1.68644">
        <ele>262</ele>
        <time>2017-09-21T14:12:30Z</time>
      </trkpt>
      <trkpt lat="44.52731" lon="1.6864">
        <ele>262</ele>
        <time>2017-09-21T14:12:33Z</time>
      </trkpt>
      <trkpt lat="44.52733" lon="1.68638">
        <ele>262</ele>
        <time>2017-09-21T14:12:36Z</time>
      </trkpt>
      <trkpt lat="44.52738" lon="1.68627">
        <ele>262</ele>
        <time>2017-09-21T14:12:44Z</time>
      </trkpt>
      <trkpt lat="44.52741" lon="1.68609">
        <ele>260</ele>
        <time>2017-09-21T14:12:53Z</time>
      </trkpt>
      <trkpt lat="44.52744" lon="1.68575">
        <ele>257</ele>
        <time>2017-09-21T14:13:11Z</time>
      </trkpt>
      <trkpt lat="44.5275" lon="1.68538">
        <ele>257</ele>
        <time>2017-09-21T14:13:32Z</time>
      </trkpt>
      <trkpt lat="44.52754" lon="1.68529">
        <ele>251</ele>
        <time>2017-09-21T14:13:39Z</time>
      </trkpt>
      <trkpt lat="44.52756" lon="1.68524">
        <ele>251</ele>
        <time>2017-09-21T14:13:42Z</time>
      </trkpt>
      <trkpt lat="44.52757" lon="1.6852">
        <ele>251</ele>
        <time>2017-09-21T14:13:45Z</time>
      </trkpt>
      <trkpt lat="44.5277" lon="1.68496">
        <ele>246</ele>
        <time>2017-09-21T14:14:06Z</time>
      </trkpt>
      <trkpt lat="44.52771" lon="1.6849">
        <ele>246</ele>
        <time>2017-09-21T14:14:09Z</time>
      </trkpt>
      <trkpt lat="44.52773" lon="1.68474">
        <ele>244</ele>
        <time>2017-09-21T14:14:19Z</time>
      </trkpt>
      <trkpt lat="44.52773" lon="1.68469">
        <ele>244</ele>
        <time>2017-09-21T14:14:22Z</time>
      </trkpt>
      <trkpt lat="44.52772" lon="1.68464">
        <ele>243</ele>
        <time>2017-09-21T14:14:25Z</time>
      </trkpt>
      <trkpt lat="44.52769" lon="1.6846">
        <ele>243</ele>
        <time>2017-09-21T14:14:41Z</time>
      </trkpt>
      <trkpt lat="44.52767" lon="1.68455">
        <ele>243</ele>
        <time>2017-09-21T14:14:45Z</time>
      </trkpt>
      <trkpt lat="44.52767" lon="1.6845">
        <ele>243</ele>
        <time>2017-09-21T14:14:49Z</time>
      </trkpt>
      <trkpt lat="44.52765" lon="1.68445">
        <ele>242</ele>
        <time>2017-09-21T14:14:52Z</time>
      </trkpt>
      <trkpt lat="44.52763" lon="1.68438">
        <ele>242</ele>
        <time>2017-09-21T14:14:55Z</time>
      </trkpt>
      <trkpt lat="44.52762" lon="1.68431">
        <ele>242</ele>
        <time>2017-09-21T14:14:59Z</time>
      </trkpt>
      <trkpt lat="44.5276" lon="1.68426">
        <ele>242</ele>
        <time>2017-09-21T14:15:02Z</time>
      </trkpt>
      <trkpt lat="44.52757" lon="1.68403">
        <ele>238</ele>
        <time>2017-09-21T14:15:14Z</time>
      </trkpt>
      <trkpt lat="44.52755" lon="1.68398">
        <ele>237</ele>
        <time>2017-09-21T14:15:17Z</time>
      </trkpt>
      <trkpt lat="44.52751" lon="1.68371">
        <ele>235</ele>
        <time>2017-09-21T14:15:33Z</time>
      </trkpt>
      <trkpt lat="44.52752" lon="1.68364">
        <ele>235</ele>
        <time>2017-09-21T14:15:38Z</time>
      </trkpt>
      <trkpt lat="44.52753" lon="1.68322">
        <ele>232</ele>
        <time>2017-09-21T14:16:01Z</time>
      </trkpt>
      <trkpt lat="44.52753" lon="1.68315">
        <ele>231</ele>
        <time>2017-09-21T14:16:05Z</time>
      </trkpt>
      <trkpt lat="44.52751" lon="1.6831">
        <ele>230</ele>
        <time>2017-09-21T14:16:09Z</time>
      </trkpt>
      <trkpt lat="44.5275" lon="1.68296">
        <ele>229</ele>
        <time>2017-09-21T14:16:18Z</time>
      </trkpt>
      <trkpt lat="44.5275" lon="1.68284">
        <ele>235</ele>
        <time>2017-09-21T14:16:24Z</time>
      </trkpt>
      <trkpt lat="44.5275" lon="1.68272">
        <ele>234</ele>
        <time>2017-09-21T14:16:30Z</time>
      </trkpt>
      <trkpt lat="44.52751" lon="1.68267">
        <ele>228</ele>
        <time>2017-09-21T14:16:33Z</time>
      </trkpt>
      <trkpt lat="44.52755" lon="1.68266">
        <ele>228</ele>
        <time>2017-09-21T14:16:37Z</time>
      </trkpt>
      <trkpt lat="44.52763" lon="1.68268">
        <ele>228</ele>
        <time>2017-09-21T14:16:44Z</time>
      </trkpt>
      <trkpt lat="44.52766" lon="1.68271">
        <ele>228</ele>
        <time>2017-09-21T14:16:47Z</time>
      </trkpt>
      <trkpt lat="44.52774" lon="1.68274">
        <ele>228</ele>
        <time>2017-09-21T14:16:53Z</time>
      </trkpt>
      <trkpt lat="44.5278" lon="1.68279">
        <ele>227</ele>
        <time>2017-09-21T14:16:59Z</time>
      </trkpt>
      <trkpt lat="44.52812" lon="1.683">
        <ele>226</ele>
        <time>2017-09-21T14:17:27Z</time>
      </trkpt>
      <trkpt lat="44.52815" lon="1.68302">
        <ele>226</ele>
        <time>2017-09-21T14:17:30Z</time>
      </trkpt>
      <trkpt lat="44.5282" lon="1.68305">
        <ele>226</ele>
        <time>2017-09-21T14:17:34Z</time>
      </trkpt>
      <trkpt lat="44.52825" lon="1.68307">
        <ele>226</ele>
        <time>2017-09-21T14:17:38Z</time>
      </trkpt>
      <trkpt lat="44.52835" lon="1.68306">
        <ele>226</ele>
        <time>2017-09-21T14:17:46Z</time>
      </trkpt>
      <trkpt lat="44.52839" lon="1.68302">
        <ele>227</ele>
        <time>2017-09-21T14:17:50Z</time>
      </trkpt>
      <trkpt lat="44.52843" lon="1.68299">
        <ele>227</ele>
        <time>2017-09-21T14:17:54Z</time>
      </trkpt>
      <trkpt lat="44.52848" lon="1.68296">
        <ele>227</ele>
        <time>2017-09-21T14:17:58Z</time>
      </trkpt>
      <trkpt lat="44.52852" lon="1.68293">
        <ele>227</ele>
        <time>2017-09-21T14:18:01Z</time>
      </trkpt>
      <trkpt lat="44.52856" lon="1.68281">
        <ele>227</ele>
        <time>2017-09-21T14:18:07Z</time>
      </trkpt>
      <trkpt lat="44.52862" lon="1.68241">
        <ele>228</ele>
        <time>2017-09-21T14:18:28Z</time>
      </trkpt>
      <trkpt lat="44.52862" lon="1.68237">
        <ele>228</ele>
        <time>2017-09-21T14:18:30Z</time>
      </trkpt>
      <trkpt lat="44.52861" lon="1.68233">
        <ele>228</ele>
        <time>2017-09-21T14:18:32Z</time>
      </trkpt>
      <trkpt lat="44.52861" lon="1.68228">
        <ele>228</ele>
        <time>2017-09-21T14:18:35Z</time>
      </trkpt>
      <trkpt lat="44.52859" lon="1.68208">
        <ele>228</ele>
        <time>2017-09-21T14:18:47Z</time>
      </trkpt>
      <trkpt lat="44.52851" lon="1.68167">
        <ele>227</ele>
        <time>2017-09-21T14:19:10Z</time>
      </trkpt>
      <trkpt lat="44.5285" lon="1.68163">
        <ele>227</ele>
        <time>2017-09-21T14:19:12Z</time>
      </trkpt>
      <trkpt lat="44.52849" lon="1.68158">
        <ele>227</ele>
        <time>2017-09-21T14:19:15Z</time>
      </trkpt>
      <trkpt lat="44.52849" lon="1.68153">
        <ele>227</ele>
        <time>2017-09-21T14:19:20Z</time>
      </trkpt>
      <trkpt lat="44.52847" lon="1.68142">
        <ele>227</ele>
        <time>2017-09-21T14:19:28Z</time>
      </trkpt>
      <trkpt lat="44.52846" lon="1.68135">
        <ele>227</ele>
        <time>2017-09-21T14:19:32Z</time>
      </trkpt>
      <trkpt lat="44.52846" lon="1.68128">
        <ele>227</ele>
        <time>2017-09-21T14:19:36Z</time>
      </trkpt>
      <trkpt lat="44.52854" lon="1.68093">
        <ele>226</ele>
        <time>2017-09-21T14:19:56Z</time>
      </trkpt>
      <trkpt lat="44.52859" lon="1.68081">
        <ele>223</ele>
        <time>2017-09-21T14:20:05Z</time>
      </trkpt>
      <trkpt lat="44.52888" lon="1.68045">
        <ele>223</ele>
        <time>2017-09-21T14:20:35Z</time>
      </trkpt>
      <trkpt lat="44.52899" lon="1.68036">
        <ele>223</ele>
        <time>2017-09-21T14:20:44Z</time>
      </trkpt>
      <trkpt lat="44.52909" lon="1.68022">
        <ele>223</ele>
        <time>2017-09-21T14:20:56Z</time>
      </trkpt>
      <trkpt lat="44.52916" lon="1.68014">
        <ele>222</ele>
        <time>2017-09-21T14:21:02Z</time>
      </trkpt>
      <trkpt lat="44.52944" lon="1.67976">
        <ele>220</ele>
        <time>2017-09-21T14:21:33Z</time>
      </trkpt>
      <trkpt lat="44.52965" lon="1.67944">
        <ele>219</ele>
        <time>2017-09-21T14:21:57Z</time>
      </trkpt>
      <trkpt lat="44.52972" lon="1.67937">
        <ele>218</ele>
        <time>2017-09-21T14:22:03Z</time>
      </trkpt>
      <trkpt lat="44.52977" lon="1.67928">
        <ele>218</ele>
        <time>2017-09-21T14:22:09Z</time>
      </trkpt>
      <trkpt lat="44.5298" lon="1.67919">
        <ele>217</ele>
        <time>2017-09-21T14:22:15Z</time>
      </trkpt>
      <trkpt lat="44.52981" lon="1.67915">
        <ele>215</ele>
        <time>2017-09-21T14:22:18Z</time>
      </trkpt>
      <trkpt lat="44.52988" lon="1.67905">
        <ele>215</ele>
        <time>2017-09-21T14:22:28Z</time>
      </trkpt>
      <trkpt lat="44.53006" lon="1.67899">
        <ele>216</ele>
        <time>2017-09-21T14:22:44Z</time>
      </trkpt>
      <trkpt lat="44.53014" lon="1.67901">
        <ele>216</ele>
        <time>2017-09-21T14:22:52Z</time>
      </trkpt>
      <trkpt lat="44.53019" lon="1.67901">
        <ele>216</ele>
        <time>2017-09-21T14:22:56Z</time>
      </trkpt>
      <trkpt lat="44.53022" lon="1.67898">
        <ele>216</ele>
        <time>2017-09-21T14:22:59Z</time>
      </trkpt>
      <trkpt lat="44.53028" lon="1.67891">
        <ele>216</ele>
        <time>2017-09-21T14:23:06Z</time>
      </trkpt>
      <trkpt lat="44.53032" lon="1.67886">
        <ele>216</ele>
        <time>2017-09-21T14:23:09Z</time>
      </trkpt>
      <trkpt lat="44.53033" lon="1.6788">
        <ele>216</ele>
        <time>2017-09-21T14:23:13Z</time>
      </trkpt>
      <trkpt lat="44.53036" lon="1.67873">
        <ele>216</ele>
        <time>2017-09-21T14:23:17Z</time>
      </trkpt>
      <trkpt lat="44.53038" lon="1.67865">
        <ele>216</ele>
        <time>2017-09-21T14:23:25Z</time>
      </trkpt>
      <trkpt lat="44.53033" lon="1.6786">
        <ele>216</ele>
        <time>2017-09-21T14:23:30Z</time>
      </trkpt>
      <trkpt lat="44.53031" lon="1.67854">
        <ele>216</ele>
        <time>2017-09-21T14:23:34Z</time>
      </trkpt>
      <trkpt lat="44.5303" lon="1.67852">
        <ele>216</ele>
        <time>2017-09-21T14:23:36Z</time>
      </trkpt>
      <trkpt lat="44.53027" lon="1.6785">
        <ele>216</ele>
        <time>2017-09-21T14:23:38Z</time>
      </trkpt>
      <trkpt lat="44.53023" lon="1.67845">
        <ele>216</ele>
        <time>2017-09-21T14:23:42Z</time>
      </trkpt>
      <trkpt lat="44.53021" lon="1.67842">
        <ele>216</ele>
        <time>2017-09-21T14:23:44Z</time>
      </trkpt>
      <trkpt lat="44.53014" lon="1.67832">
        <ele>220</ele>
        <time>2017-09-21T14:23:52Z</time>
      </trkpt>
      <trkpt lat="44.52992" lon="1.67812">
        <ele>221</ele>
        <time>2017-09-21T14:24:13Z</time>
      </trkpt>
      <trkpt lat="44.52984" lon="1.67809">
        <ele>221</ele>
        <time>2017-09-21T14:24:19Z</time>
      </trkpt>
      <trkpt lat="44.52961" lon="1.67802">
        <ele>222</ele>
        <time>2017-09-21T14:24:38Z</time>
      </trkpt>
      <trkpt lat="44.52957" lon="1.67802">
        <ele>222</ele>
        <time>2017-09-21T14:24:41Z</time>
      </trkpt>
      <trkpt lat="44.52921" lon="1.67794">
        <ele>223</ele>
        <time>2017-09-21T14:25:11Z</time>
      </trkpt>
      <trkpt lat="44.52917" lon="1.67794">
        <ele>223</ele>
        <time>2017-09-21T14:25:14Z</time>
      </trkpt>
      <trkpt lat="44.52898" lon="1.67789">
        <ele>223</ele>
        <time>2017-09-21T14:25:29Z</time>
      </trkpt>
      <trkpt lat="44.52891" lon="1.67784">
        <ele>224</ele>
        <time>2017-09-21T14:25:36Z</time>
      </trkpt>
      <trkpt lat="44.52882" lon="1.67767">
        <ele>224</ele>
        <time>2017-09-21T14:25:47Z</time>
      </trkpt>
      <trkpt lat="44.52873" lon="1.67756">
        <ele>225</ele>
        <time>2017-09-21T14:25:57Z</time>
      </trkpt>
      <trkpt lat="44.52864" lon="1.67739">
        <ele>228</ele>
        <time>2017-09-21T14:26:09Z</time>
      </trkpt>
      <trkpt lat="44.52861" lon="1.67737">
        <ele>228</ele>
        <time>2017-09-21T14:26:11Z</time>
      </trkpt>
      <trkpt lat="44.52859" lon="1.67735">
        <ele>228</ele>
        <time>2017-09-21T14:26:13Z</time>
      </trkpt>
      <trkpt lat="44.52841" lon="1.67706">
        <ele>228</ele>
        <time>2017-09-21T14:26:35Z</time>
      </trkpt>
      <trkpt lat="44.52839" lon="1.67703">
        <ele>228</ele>
        <time>2017-09-21T14:26:37Z</time>
      </trkpt>
      <trkpt lat="44.52834" lon="1.67696">
        <ele>228</ele>
        <time>2017-09-21T14:26:43Z</time>
      </trkpt>
      <trkpt lat="44.52822" lon="1.67688">
        <ele>225</ele>
        <time>2017-09-21T14:26:54Z</time>
      </trkpt>
      <trkpt lat="44.52816" lon="1.67684">
        <ele>225</ele>
        <time>2017-09-21T14:27:00Z</time>
      </trkpt>
      <trkpt lat="44.52813" lon="1.67682">
        <ele>225</ele>
        <time>2017-09-21T14:27:03Z</time>
      </trkpt>
      <trkpt lat="44.52809" lon="1.67681">
        <ele>225</ele>
        <time>2017-09-21T14:27:06Z</time>
      </trkpt>
      <trkpt lat="44.52805" lon="1.6768">
        <ele>225</ele>
        <time>2017-09-21T14:27:09Z</time>
      </trkpt>
      <trkpt lat="44.52782" lon="1.67663">
        <ele>226</ele>
        <time>2017-09-21T14:27:27Z</time>
      </trkpt>
      <trkpt lat="44.52772" lon="1.67648">
        <ele>226</ele>
        <time>2017-09-21T14:27:39Z</time>
      </trkpt>
      <trkpt lat="44.52764" lon="1.67627">
        <ele>226</ele>
        <time>2017-09-21T14:27:52Z</time>
      </trkpt>
      <trkpt lat="44.52758" lon="1.67619">
        <ele>226</ele>
        <time>2017-09-21T14:27:58Z</time>
      </trkpt>
      <trkpt lat="44.52755" lon="1.67615">
        <ele>226</ele>
        <time>2017-09-21T14:28:01Z</time>
      </trkpt>
      <trkpt lat="44.52739" lon="1.67589">
        <ele>224</ele>
        <time>2017-09-21T14:28:20Z</time>
      </trkpt>
      <trkpt lat="44.52731" lon="1.6757">
        <ele>224</ele>
        <time>2017-09-21T14:28:32Z</time>
      </trkpt>
      <trkpt lat="44.52735" lon="1.67527">
        <ele>224</ele>
        <time>2017-09-21T14:28:58Z</time>
      </trkpt>
      <trkpt lat="44.52737" lon="1.67516">
        <ele>225</ele>
        <time>2017-09-21T14:29:04Z</time>
      </trkpt>
      <trkpt lat="44.52742" lon="1.67495">
        <ele>226</ele>
        <time>2017-09-21T14:29:18Z</time>
      </trkpt>
      <trkpt lat="44.52745" lon="1.67484">
        <ele>226</ele>
        <time>2017-09-21T14:29:25Z</time>
      </trkpt>
      <trkpt lat="44.5275" lon="1.6747">
        <ele>225</ele>
        <time>2017-09-21T14:29:33Z</time>
      </trkpt>
      <trkpt lat="44.5275" lon="1.67464">
        <ele>230</ele>
        <time>2017-09-21T14:29:38Z</time>
      </trkpt>
      <trkpt lat="44.52752" lon="1.67458">
        <ele>230</ele>
        <time>2017-09-21T14:29:41Z</time>
      </trkpt>
      <trkpt lat="44.52754" lon="1.67445">
        <ele>230</ele>
        <time>2017-09-21T14:29:50Z</time>
      </trkpt>
      <trkpt lat="44.52756" lon="1.67437">
        <ele>230</ele>
        <time>2017-09-21T14:29:54Z</time>
      </trkpt>
      <trkpt lat="44.5276" lon="1.67425">
        <ele>229</ele>
        <time>2017-09-21T14:30:00Z</time>
      </trkpt>
      <trkpt lat="44.52762" lon="1.6742">
        <ele>229</ele>
        <time>2017-09-21T14:30:03Z</time>
      </trkpt>
      <trkpt lat="44.52765" lon="1.67409">
        <ele>232</ele>
        <time>2017-09-21T14:30:09Z</time>
      </trkpt>
      <trkpt lat="44.52766" lon="1.67404">
        <ele>232</ele>
        <time>2017-09-21T14:30:12Z</time>
      </trkpt>
      <trkpt lat="44.52768" lon="1.67398">
        <ele>233</ele>
        <time>2017-09-21T14:30:17Z</time>
      </trkpt>
      <trkpt lat="44.52765" lon="1.67384">
        <ele>234</ele>
        <time>2017-09-21T14:30:26Z</time>
      </trkpt>
      <trkpt lat="44.52764" lon="1.67375">
        <ele>234</ele>
        <time>2017-09-21T14:30:30Z</time>
      </trkpt>
      <trkpt lat="44.52758" lon="1.67359">
        <ele>235</ele>
        <time>2017-09-21T14:30:42Z</time>
      </trkpt>
      <trkpt lat="44.52747" lon="1.67343">
        <ele>232</ele>
        <time>2017-09-21T14:30:53Z</time>
      </trkpt>
      <trkpt lat="44.52744" lon="1.67338">
        <ele>232</ele>
        <time>2017-09-21T14:30:56Z</time>
      </trkpt>
      <trkpt lat="44.52742" lon="1.67333">
        <ele>234</ele>
        <time>2017-09-21T14:30:59Z</time>
      </trkpt>
      <trkpt lat="44.52741" lon="1.67305">
        <ele>235</ele>
        <time>2017-09-21T14:31:13Z</time>
      </trkpt>
      <trkpt lat="44.5274" lon="1.67302">
        <ele>235</ele>
        <time>2017-09-21T14:31:21Z</time>
      </trkpt>
      <trkpt lat="44.5274" lon="1.67298">
        <ele>235</ele>
        <time>2017-09-21T14:31:31Z</time>
      </trkpt>
      <trkpt lat="44.52742" lon="1.67248">
        <ele>238</ele>
        <time>2017-09-21T14:32:01Z</time>
      </trkpt>
      <trkpt lat="44.52741" lon="1.67244">
        <ele>238</ele>
        <time>2017-09-21T14:32:03Z</time>
      </trkpt>
      <trkpt lat="44.52743" lon="1.67234">
        <ele>239</ele>
        <time>2017-09-21T14:32:09Z</time>
      </trkpt>
      <trkpt lat="44.52742" lon="1.67208">
        <ele>241</ele>
        <time>2017-09-21T14:32:26Z</time>
      </trkpt>
      <trkpt lat="44.52741" lon="1.67205">
        <ele>241</ele>
        <time>2017-09-21T14:32:28Z</time>
      </trkpt>
      <trkpt lat="44.52737" lon="1.67197">
        <ele>241</ele>
        <time>2017-09-21T14:32:35Z</time>
      </trkpt>
      <trkpt lat="44.52731" lon="1.67192">
        <ele>242</ele>
        <time>2017-09-21T14:32:41Z</time>
      </trkpt>
      <trkpt lat="44.52717" lon="1.67171">
        <ele>242</ele>
        <time>2017-09-21T14:32:58Z</time>
      </trkpt>
      <trkpt lat="44.52709" lon="1.6716">
        <ele>246</ele>
        <time>2017-09-21T14:33:06Z</time>
      </trkpt>
      <trkpt lat="44.52707" lon="1.67157">
        <ele>246</ele>
        <time>2017-09-21T14:33:08Z</time>
      </trkpt>
      <trkpt lat="44.52706" lon="1.67153">
        <ele>247</ele>
        <time>2017-09-21T14:33:11Z</time>
      </trkpt>
      <trkpt lat="44.527" lon="1.67148">
        <ele>247</ele>
        <time>2017-09-21T14:33:16Z</time>
      </trkpt>
      <trkpt lat="44.52697" lon="1.67145">
        <ele>247</ele>
        <time>2017-09-21T14:33:19Z</time>
      </trkpt>
      <trkpt lat="44.52689" lon="1.67131">
        <ele>247</ele>
        <time>2017-09-21T14:33:30Z</time>
      </trkpt>
      <trkpt lat="44.52687" lon="1.67129">
        <ele>247</ele>
        <time>2017-09-21T14:33:32Z</time>
      </trkpt>
      <trkpt lat="44.52679" lon="1.67112">
        <ele>248</ele>
        <time>2017-09-21T14:33:44Z</time>
      </trkpt>
      <trkpt lat="44.52678" lon="1.67109">
        <ele>248</ele>
        <time>2017-09-21T14:33:46Z</time>
      </trkpt>
      <trkpt lat="44.52683" lon="1.67084">
        <ele>249</ele>
        <time>2017-09-21T14:34:00Z</time>
      </trkpt>
      <trkpt lat="44.52684" lon="1.67081">
        <ele>250</ele>
        <time>2017-09-21T14:34:02Z</time>
      </trkpt>
      <trkpt lat="44.52684" lon="1.67077">
        <ele>250</ele>
        <time>2017-09-21T14:34:04Z</time>
      </trkpt>
      <trkpt lat="44.52686" lon="1.6707">
        <ele>250</ele>
        <time>2017-09-21T14:34:08Z</time>
      </trkpt>
      <trkpt lat="44.52686" lon="1.67067">
        <ele>250</ele>
        <time>2017-09-21T14:34:10Z</time>
      </trkpt>
      <trkpt lat="44.52691" lon="1.67042">
        <ele>250</ele>
        <time>2017-09-21T14:34:24Z</time>
      </trkpt>
      <trkpt lat="44.5269" lon="1.67036">
        <ele>250</ele>
        <time>2017-09-21T14:34:28Z</time>
      </trkpt>
      <trkpt lat="44.5269" lon="1.67031">
        <ele>250</ele>
        <time>2017-09-21T14:34:32Z</time>
      </trkpt>
      <trkpt lat="44.52692" lon="1.6702">
        <ele>250</ele>
        <time>2017-09-21T14:34:38Z</time>
      </trkpt>
      <trkpt lat="44.52692" lon="1.67009">
        <ele>250</ele>
        <time>2017-09-21T14:34:45Z</time>
      </trkpt>
      <trkpt lat="44.52692" lon="1.67004">
        <ele>249</ele>
        <time>2017-09-21T14:34:49Z</time>
      </trkpt>
      <trkpt lat="44.52693" lon="1.66994">
        <ele>249</ele>
        <time>2017-09-21T14:34:57Z</time>
      </trkpt>
      <trkpt lat="44.52697" lon="1.66945">
        <ele>249</ele>
        <time>2017-09-21T14:35:28Z</time>
      </trkpt>
      <trkpt lat="44.52698" lon="1.66932">
        <ele>249</ele>
        <time>2017-09-21T14:35:37Z</time>
      </trkpt>
      <trkpt lat="44.527" lon="1.66924">
        <ele>249</ele>
        <time>2017-09-21T14:35:42Z</time>
      </trkpt>
      <trkpt lat="44.527" lon="1.66917">
        <ele>249</ele>
        <time>2017-09-21T14:35:45Z</time>
      </trkpt>
      <trkpt lat="44.52701" lon="1.6691">
        <ele>247</ele>
        <time>2017-09-21T14:35:49Z</time>
      </trkpt>
      <trkpt lat="44.52702" lon="1.66883">
        <ele>247</ele>
        <time>2017-09-21T14:36:02Z</time>
      </trkpt>
      <trkpt lat="44.52704" lon="1.66877">
        <ele>247</ele>
        <time>2017-09-21T14:36:05Z</time>
      </trkpt>
      <trkpt lat="44.52705" lon="1.66872">
        <ele>248</ele>
        <time>2017-09-21T14:36:08Z</time>
      </trkpt>
      <trkpt lat="44.52709" lon="1.66853">
        <ele>248</ele>
        <time>2017-09-21T14:36:19Z</time>
      </trkpt>
      <trkpt lat="44.52724" lon="1.66799">
        <ele>247</ele>
        <time>2017-09-21T14:36:49Z</time>
      </trkpt>
      <trkpt lat="44.52724" lon="1.66765">
        <ele>246</ele>
        <time>2017-09-21T14:37:09Z</time>
      </trkpt>
      <trkpt lat="44.52718" lon="1.66735">
        <ele>244</ele>
        <time>2017-09-21T14:37:29Z</time>
      </trkpt>
      <trkpt lat="44.52717" lon="1.66709">
        <ele>243</ele>
        <time>2017-09-21T14:37:47Z</time>
      </trkpt>
      <trkpt lat="44.52713" lon="1.66697">
        <ele>243</ele>
        <time>2017-09-21T14:37:55Z</time>
      </trkpt>
      <trkpt lat="44.52712" lon="1.66691">
        <ele>242</ele>
        <time>2017-09-21T14:37:59Z</time>
      </trkpt>
      <trkpt lat="44.5271" lon="1.66686">
        <ele>242</ele>
        <time>2017-09-21T14:38:02Z</time>
      </trkpt>
      <trkpt lat="44.527" lon="1.6668">
        <ele>242</ele>
        <time>2017-09-21T14:38:09Z</time>
      </trkpt>
      <trkpt lat="44.52693" lon="1.66672">
        <ele>242</ele>
        <time>2017-09-21T14:38:17Z</time>
      </trkpt>
      <trkpt lat="44.52689" lon="1.66669">
        <ele>241</ele>
        <time>2017-09-21T14:38:21Z</time>
      </trkpt>
      <trkpt lat="44.52676" lon="1.66655">
        <ele>242</ele>
        <time>2017-09-21T14:38:34Z</time>
      </trkpt>
      <trkpt lat="44.52667" lon="1.6664">
        <ele>243</ele>
        <time>2017-09-21T14:38:47Z</time>
      </trkpt>
      <trkpt lat="44.52662" lon="1.66636">
        <ele>246</ele>
        <time>2017-09-21T14:38:52Z</time>
      </trkpt>
      <trkpt lat="44.52637" lon="1.666">
        <ele>248</ele>
        <time>2017-09-21T14:39:25Z</time>
      </trkpt>
      <trkpt lat="44.52632" lon="1.66588">
        <ele>249</ele>
        <time>2017-09-21T14:39:34Z</time>
      </trkpt>
      <trkpt lat="44.52625" lon="1.66578">
        <ele>251</ele>
        <time>2017-09-21T14:39:42Z</time>
      </trkpt>
      <trkpt lat="44.52621" lon="1.66573">
        <ele>252</ele>
        <time>2017-09-21T14:39:47Z</time>
      </trkpt>
      <trkpt lat="44.5262" lon="1.66568">
        <ele>252</ele>
        <time>2017-09-21T14:39:58Z</time>
      </trkpt>
      <trkpt lat="44.52613" lon="1.66554">
        <ele>252</ele>
        <time>2017-09-21T14:40:08Z</time>
      </trkpt>
      <trkpt lat="44.52608" lon="1.66549">
        <ele>252</ele>
        <time>2017-09-21T14:40:13Z</time>
      </trkpt>
      <trkpt lat="44.52586" lon="1.66513">
        <ele>252</ele>
        <time>2017-09-21T14:40:44Z</time>
      </trkpt>
      <trkpt lat="44.52583" lon="1.66507">
        <ele>254</ele>
        <time>2017-09-21T14:40:48Z</time>
      </trkpt>
      <trkpt lat="44.52575" lon="1.66489">
        <ele>255</ele>
        <time>2017-09-21T14:41:00Z</time>
      </trkpt>
      <trkpt lat="44.52559" lon="1.66452">
        <ele>258</ele>
        <time>2017-09-21T14:41:23Z</time>
      </trkpt>
      <trkpt lat="44.52555" lon="1.66446">
        <ele>259</ele>
        <time>2017-09-21T14:41:28Z</time>
      </trkpt>
      <trkpt lat="44.52548" lon="1.66434">
        <ele>259</ele>
        <time>2017-09-21T14:41:37Z</time>
      </trkpt>
      <trkpt lat="44.52545" lon="1.66427">
        <ele>259</ele>
        <time>2017-09-21T14:41:41Z</time>
      </trkpt>
      <trkpt lat="44.52543" lon="1.66421">
        <ele>260</ele>
        <time>2017-09-21T14:41:45Z</time>
      </trkpt>
      <trkpt lat="44.5254" lon="1.66416">
        <ele>261</ele>
        <time>2017-09-21T14:41:49Z</time>
      </trkpt>
      <trkpt lat="44.52536" lon="1.66411">
        <ele>261</ele>
        <time>2017-09-21T14:41:53Z</time>
      </trkpt>
      <trkpt lat="44.52522" lon="1.66396">
        <ele>262</ele>
        <time>2017-09-21T14:42:04Z</time>
      </trkpt>
      <trkpt lat="44.52514" lon="1.66395">
        <ele>262</ele>
        <time>2017-09-21T14:42:11Z</time>
      </trkpt>
      <trkpt lat="44.52498" lon="1.66382">
        <ele>266</ele>
        <time>2017-09-21T14:42:24Z</time>
      </trkpt>
      <trkpt lat="44.52491" lon="1.66365">
        <ele>266</ele>
        <time>2017-09-21T14:42:35Z</time>
      </trkpt>
      <trkpt lat="44.52492" lon="1.6636">
        <ele>266</ele>
        <time>2017-09-21T14:42:38Z</time>
      </trkpt>
      <trkpt lat="44.5249" lon="1.66355">
        <ele>266</ele>
        <time>2017-09-21T14:42:41Z</time>
      </trkpt>
      <trkpt lat="44.52473" lon="1.66305">
        <ele>269</ele>
        <time>2017-09-21T14:43:12Z</time>
      </trkpt>
      <trkpt lat="44.52454" lon="1.66252">
        <ele>270</ele>
        <time>2017-09-21T14:43:43Z</time>
      </trkpt>
      <trkpt lat="44.52451" lon="1.6624">
        <ele>274</ele>
        <time>2017-09-21T14:43:50Z</time>
      </trkpt>
      <trkpt lat="44.52448" lon="1.66235">
        <ele>274</ele>
        <time>2017-09-21T14:43:54Z</time>
      </trkpt>
      <trkpt lat="44.52443" lon="1.6623">
        <ele>274</ele>
        <time>2017-09-21T14:43:58Z</time>
      </trkpt>
      <trkpt lat="44.52441" lon="1.66228">
        <ele>274</ele>
        <time>2017-09-21T14:44:00Z</time>
      </trkpt>
      <trkpt lat="44.52438" lon="1.66226">
        <ele>275</ele>
        <time>2017-09-21T14:44:02Z</time>
      </trkpt>
      <trkpt lat="44.52436" lon="1.66225">
        <ele>275</ele>
        <time>2017-09-21T14:44:04Z</time>
      </trkpt>
      <trkpt lat="44.52429" lon="1.66226">
        <ele>275</ele>
        <time>2017-09-21T14:44:10Z</time>
      </trkpt>
      <trkpt lat="44.52422" lon="1.66227">
        <ele>275</ele>
        <time>2017-09-21T14:44:15Z</time>
      </trkpt>
      <trkpt lat="44.52386" lon="1.66245">
        <ele>274</ele>
        <time>2017-09-21T14:44:45Z</time>
      </trkpt>
      <trkpt lat="44.5238" lon="1.66248">
        <ele>274</ele>
        <time>2017-09-21T14:44:50Z</time>
      </trkpt>
      <trkpt lat="44.52374" lon="1.66252">
        <ele>272</ele>
        <time>2017-09-21T14:44:55Z</time>
      </trkpt>
      <trkpt lat="44.52372" lon="1.66252">
        <ele>272</ele>
        <time>2017-09-21T14:44:56Z</time>
      </trkpt>
      <trkpt lat="44.52345" lon="1.66265">
        <ele>272</ele>
        <time>2017-09-21T14:45:20Z</time>
      </trkpt>
      <trkpt lat="44.5234" lon="1.66266">
        <ele>272</ele>
        <time>2017-09-21T14:45:24Z</time>
      </trkpt>
      <trkpt lat="44.52339" lon="1.66266">
        <ele>272</ele>
        <time>2017-09-21T14:45:25Z</time>
      </trkpt>
      <trkpt lat="44.52329" lon="1.6627">
        <ele>271</ele>
        <time>2017-09-21T14:45:33Z</time>
      </trkpt>
      <trkpt lat="44.52327" lon="1.6627">
        <ele>271</ele>
        <time>2017-09-21T14:45:35Z</time>
      </trkpt>
      <trkpt lat="44.52326" lon="1.66271">
        <ele>271</ele>
        <time>2017-09-21T14:45:37Z</time>
      </trkpt>
      <trkpt lat="44.52314" lon="1.66273">
        <ele>270</ele>
        <time>2017-09-21T14:45:47Z</time>
      </trkpt>
      <trkpt lat="44.52312" lon="1.66274">
        <ele>270</ele>
        <time>2017-09-21T14:45:49Z</time>
      </trkpt>
      <trkpt lat="44.52309" lon="1.66275">
        <ele>270</ele>
        <time>2017-09-21T14:45:51Z</time>
      </trkpt>
      <trkpt lat="44.52292" lon="1.6628">
        <ele>269</ele>
        <time>2017-09-21T14:46:06Z</time>
      </trkpt>
      <trkpt lat="44.52288" lon="1.66282">
        <ele>269</ele>
        <time>2017-09-21T14:46:09Z</time>
      </trkpt>
      <trkpt lat="44.52286" lon="1.66283">
        <ele>269</ele>
        <time>2017-09-21T14:46:11Z</time>
      </trkpt>
      <trkpt lat="44.52283" lon="1.66283">
        <ele>269</ele>
        <time>2017-09-21T14:46:14Z</time>
      </trkpt>
      <trkpt lat="44.52279" lon="1.66284">
        <ele>269</ele>
        <time>2017-09-21T14:46:17Z</time>
      </trkpt>
      <trkpt lat="44.52276" lon="1.66286">
        <ele>269</ele>
        <time>2017-09-21T14:46:20Z</time>
      </trkpt>
      <trkpt lat="44.52274" lon="1.66288">
        <ele>269</ele>
        <time>2017-09-21T14:46:57Z</time>
      </trkpt>
      <trkpt lat="44.52271" lon="1.66287">
        <ele>269</ele>
        <time>2017-09-21T14:47:19Z</time>
      </trkpt>
      <trkpt lat="44.52268" lon="1.66287">
        <ele>269</ele>
        <time>2017-09-21T14:47:22Z</time>
      </trkpt>
      <trkpt lat="44.52265" lon="1.66285">
        <ele>269</ele>
        <time>2017-09-21T14:47:24Z</time>
      </trkpt>
      <trkpt lat="44.52264" lon="1.66284">
        <ele>269</ele>
        <time>2017-09-21T14:47:35Z</time>
      </trkpt>
      <trkpt lat="44.52263" lon="1.66281">
        <ele>269</ele>
        <time>2017-09-21T14:48:14Z</time>
      </trkpt>
      <trkpt lat="44.52261" lon="1.66278">
        <ele>269</ele>
        <time>2017-09-21T14:48:16Z</time>
      </trkpt>
      <trkpt lat="44.52233" lon="1.66238">
        <ele>266</ele>
        <time>2017-09-21T14:48:46Z</time>
      </trkpt>
      <trkpt lat="44.52224" lon="1.66228">
        <ele>266</ele>
        <time>2017-09-21T14:48:54Z</time>
      </trkpt>
      <trkpt lat="44.52213" lon="1.66219">
        <ele>266</ele>
        <time>2017-09-21T14:49:05Z</time>
      </trkpt>
      <trkpt lat="44.52206" lon="1.66215">
        <ele>266</ele>
        <time>2017-09-21T14:49:10Z</time>
      </trkpt>
      <trkpt lat="44.52187" lon="1.66201">
        <ele>266</ele>
        <time>2017-09-21T14:49:26Z</time>
      </trkpt>
      <trkpt lat="44.52178" lon="1.66198">
        <ele>266</ele>
        <time>2017-09-21T14:49:33Z</time>
      </trkpt>
      <trkpt lat="44.52175" lon="1.66197">
        <ele>266</ele>
        <time>2017-09-21T14:49:36Z</time>
      </trkpt>
      <trkpt lat="44.52166" lon="1.6619">
        <ele>267</ele>
        <time>2017-09-21T14:49:45Z</time>
      </trkpt>
      <trkpt lat="44.52154" lon="1.6617">
        <ele>267</ele>
        <time>2017-09-21T14:50:00Z</time>
      </trkpt>
      <trkpt lat="44.5214" lon="1.66155">
        <ele>266</ele>
        <time>2017-09-21T14:50:13Z</time>
      </trkpt>
      <trkpt lat="44.52137" lon="1.66152">
        <ele>266</ele>
        <time>2017-09-21T14:50:17Z</time>
      </trkpt>
      <trkpt lat="44.52113" lon="1.66144">
        <ele>267</ele>
        <time>2017-09-21T14:50:39Z</time>
      </trkpt>
      <trkpt lat="44.52108" lon="1.66143">
        <ele>267</ele>
        <time>2017-09-21T14:50:43Z</time>
      </trkpt>
      <trkpt lat="44.52096" lon="1.66152">
        <ele>268</ele>
        <time>2017-09-21T14:50:55Z</time>
      </trkpt>
      <trkpt lat="44.52058" lon="1.66166">
        <ele>273</ele>
        <time>2017-09-21T14:51:25Z</time>
      </trkpt>
      <trkpt lat="44.52044" lon="1.66172">
        <ele>273</ele>
        <time>2017-09-21T14:51:38Z</time>
      </trkpt>
      <trkpt lat="44.52036" lon="1.66175">
        <ele>274</ele>
        <time>2017-09-21T14:51:44Z</time>
      </trkpt>
      <trkpt lat="44.52007" lon="1.66183">
        <ele>275</ele>
        <time>2017-09-21T14:52:11Z</time>
      </trkpt>
      <trkpt lat="44.51975" lon="1.66177">
        <ele>281</ele>
        <time>2017-09-21T14:52:38Z</time>
      </trkpt>
      <trkpt lat="44.51971" lon="1.66174">
        <ele>281</ele>
        <time>2017-09-21T14:52:42Z</time>
      </trkpt>
      <trkpt lat="44.51962" lon="1.66167">
        <ele>283</ele>
        <time>2017-09-21T14:52:49Z</time>
      </trkpt>
      <trkpt lat="44.51958" lon="1.66165">
        <ele>283</ele>
        <time>2017-09-21T14:52:52Z</time>
      </trkpt>
      <trkpt lat="44.51954" lon="1.66162">
        <ele>284</ele>
        <time>2017-09-21T14:52:56Z</time>
      </trkpt>
      <trkpt lat="44.51951" lon="1.66157">
        <ele>284</ele>
        <time>2017-09-21T14:53:00Z</time>
      </trkpt>
      <trkpt lat="44.51944" lon="1.66147">
        <ele>284</ele>
        <time>2017-09-21T14:53:07Z</time>
      </trkpt>
      <trkpt lat="44.51937" lon="1.66136">
        <ele>284</ele>
        <time>2017-09-21T14:53:15Z</time>
      </trkpt>
      <trkpt lat="44.51926" lon="1.66124">
        <ele>285</ele>
        <time>2017-09-21T14:53:26Z</time>
      </trkpt>
      <trkpt lat="44.51917" lon="1.66112">
        <ele>290</ele>
        <time>2017-09-21T14:53:37Z</time>
      </trkpt>
      <trkpt lat="44.51906" lon="1.66104">
        <ele>289</ele>
        <time>2017-09-21T14:53:48Z</time>
      </trkpt>
      <trkpt lat="44.51904" lon="1.66101">
        <ele>289</ele>
        <time>2017-09-21T14:53:51Z</time>
      </trkpt>
      <trkpt lat="44.519" lon="1.66099">
        <ele>289</ele>
        <time>2017-09-21T14:53:55Z</time>
      </trkpt>
      <trkpt lat="44.51897" lon="1.66097">
        <ele>290</ele>
        <time>2017-09-21T14:54:00Z</time>
      </trkpt>
      <trkpt lat="44.51894" lon="1.66097">
        <ele>290</ele>
        <time>2017-09-21T14:54:17Z</time>
      </trkpt>
      <trkpt lat="44.51891" lon="1.66095">
        <ele>290</ele>
        <time>2017-09-21T14:54:24Z</time>
      </trkpt>
      <trkpt lat="44.51887" lon="1.66091">
        <ele>290</ele>
        <time>2017-09-21T14:54:44Z</time>
      </trkpt>
      <trkpt lat="44.51884" lon="1.66089">
        <ele>290</ele>
        <time>2017-09-21T14:54:47Z</time>
      </trkpt>
      <trkpt lat="44.51872" lon="1.66079">
        <ele>289</ele>
        <time>2017-09-21T14:54:59Z</time>
      </trkpt>
      <trkpt lat="44.51869" lon="1.66077">
        <ele>289</ele>
        <time>2017-09-21T14:55:02Z</time>
      </trkpt>
      <trkpt lat="44.51851" lon="1.66065">
        <ele>290</ele>
        <time>2017-09-21T14:55:19Z</time>
      </trkpt>
      <trkpt lat="44.51847" lon="1.66063">
        <ele>290</ele>
        <time>2017-09-21T14:55:26Z</time>
      </trkpt>
      <trkpt lat="44.51844" lon="1.66061">
        <ele>290</ele>
        <time>2017-09-21T14:55:33Z</time>
      </trkpt>
      <trkpt lat="44.51841" lon="1.66058">
        <ele>290</ele>
        <time>2017-09-21T14:55:43Z</time>
      </trkpt>
      <trkpt lat="44.51841" lon="1.6606">
        <ele>290</ele>
        <time>2017-09-21T14:55:57Z</time>
      </trkpt>
      <trkpt lat="44.51843" lon="1.66062">
        <ele>290</ele>
        <time>2017-09-21T14:56:02Z</time>
      </trkpt>
      <trkpt lat="44.51843" lon="1.66061">
        <ele>290</ele>
        <time>2017-09-21T14:57:15Z</time>
      </trkpt>
      <trkpt lat="44.51841" lon="1.66059">
        <ele>290</ele>
        <time>2017-09-21T14:57:22Z</time>
      </trkpt>
      <trkpt lat="44.5184" lon="1.66057">
        <ele>290</ele>
        <time>2017-09-21T14:57:25Z</time>
      </trkpt>
      <trkpt lat="44.51831" lon="1.66056">
        <ele>291</ele>
        <time>2017-09-21T14:57:36Z</time>
      </trkpt>
      <trkpt lat="44.5183" lon="1.66056">
        <ele>291</ele>
        <time>2017-09-21T14:58:00Z</time>
      </trkpt>
      <trkpt lat="44.51827" lon="1.66055">
        <ele>291</ele>
        <time>2017-09-21T14:58:18Z</time>
      </trkpt>
      <trkpt lat="44.51796" lon="1.66045">
        <ele>291</ele>
        <time>2017-09-21T14:58:48Z</time>
      </trkpt>
      <trkpt lat="44.5178" lon="1.66042">
        <ele>291</ele>
        <time>2017-09-21T14:59:00Z</time>
      </trkpt>
      <trkpt lat="44.5177" lon="1.66039">
        <ele>290</ele>
        <time>2017-09-21T14:59:08Z</time>
      </trkpt>
      <trkpt lat="44.51756" lon="1.66037">
        <ele>290</ele>
        <time>2017-09-21T14:59:18Z</time>
      </trkpt>
      <trkpt lat="44.51716" lon="1.66037">
        <ele>288</ele>
        <time>2017-09-21T14:59:48Z</time>
      </trkpt>
      <trkpt lat="44.51714" lon="1.66037">
        <ele>288</ele>
        <time>2017-09-21T14:59:50Z</time>
      </trkpt>
      <trkpt lat="44.51712" lon="1.66037">
        <ele>288</ele>
        <time>2017-09-21T14:59:51Z</time>
      </trkpt>
      <trkpt lat="44.51684" lon="1.66034">
        <ele>287</ele>
        <time>2017-09-21T15:00:13Z</time>
      </trkpt>
      <trkpt lat="44.51641" lon="1.66039">
        <ele>285</ele>
        <time>2017-09-21T15:00:44Z</time>
      </trkpt>
      <trkpt lat="44.516" lon="1.66042">
        <ele>285</ele>
        <time>2017-09-21T15:01:14Z</time>
      </trkpt>
      <trkpt lat="44.51587" lon="1.66043">
        <ele>285</ele>
        <time>2017-09-21T15:01:24Z</time>
      </trkpt>
      <trkpt lat="44.51582" lon="1.66045">
        <ele>282</ele>
        <time>2017-09-21T15:01:28Z</time>
      </trkpt>
      <trkpt lat="44.51573" lon="1.66046">
        <ele>282</ele>
        <time>2017-09-21T15:01:34Z</time>
      </trkpt>
      <trkpt lat="44.5157" lon="1.66047">
        <ele>282</ele>
        <time>2017-09-21T15:01:36Z</time>
      </trkpt>
      <trkpt lat="44.51568" lon="1.66049">
        <ele>282</ele>
        <time>2017-09-21T15:01:38Z</time>
      </trkpt>
      <trkpt lat="44.5153" lon="1.66071">
        <ele>281</ele>
        <time>2017-09-21T15:02:08Z</time>
      </trkpt>
      <trkpt lat="44.51498" lon="1.66089">
        <ele>278</ele>
        <time>2017-09-21T15:02:33Z</time>
      </trkpt>
      <trkpt lat="44.51495" lon="1.66089">
        <ele>278</ele>
        <time>2017-09-21T15:02:35Z</time>
      </trkpt>
      <trkpt lat="44.51492" lon="1.66089">
        <ele>278</ele>
        <time>2017-09-21T15:02:38Z</time>
      </trkpt>
      <trkpt lat="44.51489" lon="1.66091">
        <ele>278</ele>
        <time>2017-09-21T15:02:40Z</time>
      </trkpt>
      <trkpt lat="44.51472" lon="1.66095">
        <ele>276</ele>
        <time>2017-09-21T15:02:52Z</time>
      </trkpt>
      <trkpt lat="44.51457" lon="1.66095">
        <ele>275</ele>
        <time>2017-09-21T15:03:02Z</time>
      </trkpt>
      <trkpt lat="44.5143" lon="1.66101">
        <ele>274</ele>
        <time>2017-09-21T15:03:21Z</time>
      </trkpt>
      <trkpt lat="44.51428" lon="1.66102">
        <ele>274</ele>
        <time>2017-09-21T15:03:23Z</time>
      </trkpt>
      <trkpt lat="44.51425" lon="1.66104">
        <ele>274</ele>
        <time>2017-09-21T15:03:25Z</time>
      </trkpt>
      <trkpt lat="44.51422" lon="1.66104">
        <ele>274</ele>
        <time>2017-09-21T15:03:27Z</time>
      </trkpt>
      <trkpt lat="44.51417" lon="1.66104">
        <ele>270</ele>
        <time>2017-09-21T15:03:31Z</time>
      </trkpt>
      <trkpt lat="44.51412" lon="1.66105">
        <ele>269</ele>
        <time>2017-09-21T15:03:35Z</time>
      </trkpt>
      <trkpt lat="44.51409" lon="1.66105">
        <ele>269</ele>
        <time>2017-09-21T15:03:37Z</time>
      </trkpt>
      <trkpt lat="44.51375" lon="1.66116">
        <ele>267</ele>
        <time>2017-09-21T15:04:03Z</time>
      </trkpt>
      <trkpt lat="44.51372" lon="1.66117">
        <ele>267</ele>
        <time>2017-09-21T15:04:05Z</time>
      </trkpt>
      <trkpt lat="44.51362" lon="1.66122">
        <ele>267</ele>
        <time>2017-09-21T15:04:13Z</time>
      </trkpt>
      <trkpt lat="44.51359" lon="1.66122">
        <ele>266</ele>
        <time>2017-09-21T15:04:16Z</time>
      </trkpt>
      <trkpt lat="44.51353" lon="1.66121">
        <ele>266</ele>
        <time>2017-09-21T15:04:20Z</time>
      </trkpt>
      <trkpt lat="44.51321" lon="1.66131">
        <ele>259</ele>
        <time>2017-09-21T15:04:45Z</time>
      </trkpt>
      <trkpt lat="44.51311" lon="1.66137">
        <ele>258</ele>
        <time>2017-09-21T15:04:57Z</time>
      </trkpt>
      <trkpt lat="44.51308" lon="1.66139">
        <ele>258</ele>
        <time>2017-09-21T15:05:03Z</time>
      </trkpt>
      <trkpt lat="44.51305" lon="1.66139">
        <ele>258</ele>
        <time>2017-09-21T15:05:22Z</time>
      </trkpt>
      <trkpt lat="44.51302" lon="1.66141">
        <ele>258</ele>
        <time>2017-09-21T15:05:27Z</time>
      </trkpt>
      <trkpt lat="44.51297" lon="1.66143">
        <ele>257</ele>
        <time>2017-09-21T15:05:31Z</time>
      </trkpt>
      <trkpt lat="44.51295" lon="1.66144">
        <ele>257</ele>
        <time>2017-09-21T15:05:33Z</time>
      </trkpt>
      <trkpt lat="44.5129" lon="1.66147">
        <ele>257</ele>
        <time>2017-09-21T15:05:38Z</time>
      </trkpt>
      <trkpt lat="44.51281" lon="1.66152">
        <ele>256</ele>
        <time>2017-09-21T15:05:46Z</time>
      </trkpt>
      <trkpt lat="44.51275" lon="1.66155">
        <ele>256</ele>
        <time>2017-09-21T15:05:52Z</time>
      </trkpt>
      <trkpt lat="44.51263" lon="1.6616">
        <ele>255</ele>
        <time>2017-09-21T15:06:03Z</time>
      </trkpt>
      <trkpt lat="44.51257" lon="1.66161">
        <ele>254</ele>
        <time>2017-09-21T15:06:09Z</time>
      </trkpt>
      <trkpt lat="44.5125" lon="1.66163">
        <ele>252</ele>
        <time>2017-09-21T15:06:15Z</time>
      </trkpt>
      <trkpt lat="44.51228" lon="1.66169">
        <ele>248</ele>
        <time>2017-09-21T15:06:35Z</time>
      </trkpt>
      <trkpt lat="44.51226" lon="1.6617">
        <ele>248</ele>
        <time>2017-09-21T15:06:37Z</time>
      </trkpt>
      <trkpt lat="44.51224" lon="1.6617">
        <ele>248</ele>
        <time>2017-09-21T15:06:39Z</time>
      </trkpt>
      <trkpt lat="44.51219" lon="1.6617">
        <ele>247</ele>
        <time>2017-09-21T15:06:45Z</time>
      </trkpt>
      <trkpt lat="44.51205" lon="1.66174">
        <ele>245</ele>
        <time>2017-09-21T15:06:57Z</time>
      </trkpt>
      <trkpt lat="44.51197" lon="1.66177">
        <ele>244</ele>
        <time>2017-09-21T15:07:03Z</time>
      </trkpt>
      <trkpt lat="44.51192" lon="1.6618">
        <ele>244</ele>
        <time>2017-09-21T15:07:07Z</time>
      </trkpt>
      <trkpt lat="44.5119" lon="1.66181">
        <ele>243</ele>
        <time>2017-09-21T15:07:09Z</time>
      </trkpt>
      <trkpt lat="44.51187" lon="1.66182">
        <ele>243</ele>
        <time>2017-09-21T15:07:12Z</time>
      </trkpt>
      <trkpt lat="44.51172" lon="1.6619">
        <ele>242</ele>
        <time>2017-09-21T15:07:27Z</time>
      </trkpt>
      <trkpt lat="44.5117" lon="1.66191">
        <ele>242</ele>
        <time>2017-09-21T15:07:29Z</time>
      </trkpt>
      <trkpt lat="44.51165" lon="1.66194">
        <ele>237</ele>
        <time>2017-09-21T15:07:33Z</time>
      </trkpt>
      <trkpt lat="44.51151" lon="1.66207">
        <ele>236</ele>
        <time>2017-09-21T15:07:49Z</time>
      </trkpt>
      <trkpt lat="44.51148" lon="1.66209">
        <ele>236</ele>
        <time>2017-09-21T15:07:52Z</time>
      </trkpt>
      <trkpt lat="44.51145" lon="1.66212">
        <ele>236</ele>
        <time>2017-09-21T15:07:56Z</time>
      </trkpt>
      <trkpt lat="44.51142" lon="1.66214">
        <ele>236</ele>
        <time>2017-09-21T15:07:59Z</time>
      </trkpt>
      <trkpt lat="44.51137" lon="1.66217">
        <ele>236</ele>
        <time>2017-09-21T15:08:03Z</time>
      </trkpt>
      <trkpt lat="44.51133" lon="1.66219">
        <ele>235</ele>
        <time>2017-09-21T15:08:07Z</time>
      </trkpt>
      <trkpt lat="44.51122" lon="1.66225">
        <ele>235</ele>
        <time>2017-09-21T15:08:17Z</time>
      </trkpt>
      <trkpt lat="44.51118" lon="1.66226">
        <ele>235</ele>
        <time>2017-09-21T15:08:21Z</time>
      </trkpt>
      <trkpt lat="44.51116" lon="1.66226">
        <ele>235</ele>
        <time>2017-09-21T15:08:23Z</time>
      </trkpt>
      <trkpt lat="44.51113" lon="1.66226">
        <ele>235</ele>
        <time>2017-09-21T15:08:26Z</time>
      </trkpt>
      <trkpt lat="44.51109" lon="1.66226">
        <ele>234</ele>
        <time>2017-09-21T15:08:30Z</time>
      </trkpt>
      <trkpt lat="44.51101" lon="1.66229">
        <ele>234</ele>
        <time>2017-09-21T15:08:36Z</time>
      </trkpt>
      <trkpt lat="44.51097" lon="1.6623">
        <ele>234</ele>
        <time>2017-09-21T15:08:40Z</time>
      </trkpt>
      <trkpt lat="44.51094" lon="1.66231">
        <ele>234</ele>
        <time>2017-09-21T15:08:42Z</time>
      </trkpt>
      <trkpt lat="44.51092" lon="1.66231">
        <ele>234</ele>
        <time>2017-09-21T15:08:44Z</time>
      </trkpt>
      <trkpt lat="44.5109" lon="1.6623">
        <ele>234</ele>
        <time>2017-09-21T15:08:46Z</time>
      </trkpt>
      <trkpt lat="44.51081" lon="1.6623">
        <ele>230</ele>
        <time>2017-09-21T15:08:53Z</time>
      </trkpt>
      <trkpt lat="44.51079" lon="1.6623">
        <ele>230</ele>
        <time>2017-09-21T15:08:55Z</time>
      </trkpt>
      <trkpt lat="44.51075" lon="1.66229">
        <ele>230</ele>
        <time>2017-09-21T15:08:58Z</time>
      </trkpt>
      <trkpt lat="44.51068" lon="1.66231">
        <ele>229</ele>
        <time>2017-09-21T15:09:04Z</time>
      </trkpt>
      <trkpt lat="44.51066" lon="1.66232">
        <ele>229</ele>
        <time>2017-09-21T15:09:06Z</time>
      </trkpt>
      <trkpt lat="44.51063" lon="1.66232">
        <ele>229</ele>
        <time>2017-09-21T15:09:08Z</time>
      </trkpt>
      <trkpt lat="44.5106" lon="1.66234">
        <ele>229</ele>
        <time>2017-09-21T15:09:12Z</time>
      </trkpt>
      <trkpt lat="44.51057" lon="1.66235">
        <ele>229</ele>
        <time>2017-09-21T15:09:15Z</time>
      </trkpt>
      <trkpt lat="44.51054" lon="1.66235">
        <ele>228</ele>
        <time>2017-09-21T15:09:19Z</time>
      </trkpt>
      <trkpt lat="44.51049" lon="1.66235">
        <ele>228</ele>
        <time>2017-09-21T15:09:23Z</time>
      </trkpt>
      <trkpt lat="44.51046" lon="1.66234">
        <ele>228</ele>
        <time>2017-09-21T15:09:25Z</time>
      </trkpt>
      <trkpt lat="44.51037" lon="1.66234">
        <ele>227</ele>
        <time>2017-09-21T15:09:33Z</time>
      </trkpt>
      <trkpt lat="44.51035" lon="1.66235">
        <ele>227</ele>
        <time>2017-09-21T15:09:35Z</time>
      </trkpt>
      <trkpt lat="44.51034" lon="1.66236">
        <ele>227</ele>
        <time>2017-09-21T15:09:39Z</time>
      </trkpt>
      <trkpt lat="44.51031" lon="1.66237">
        <ele>227</ele>
        <time>2017-09-21T15:09:46Z</time>
      </trkpt>
      <trkpt lat="44.51026" lon="1.66241">
        <ele>226</ele>
        <time>2017-09-21T15:10:08Z</time>
      </trkpt>
      <trkpt lat="44.51024" lon="1.66242">
        <ele>226</ele>
        <time>2017-09-21T15:10:10Z</time>
      </trkpt>
      <trkpt lat="44.51019" lon="1.66243">
        <ele>226</ele>
        <time>2017-09-21T15:10:16Z</time>
      </trkpt>
      <trkpt lat="44.51008" lon="1.66253">
        <ele>223</ele>
        <time>2017-09-21T15:10:29Z</time>
      </trkpt>
      <trkpt lat="44.51006" lon="1.66255">
        <ele>223</ele>
        <time>2017-09-21T15:10:31Z</time>
      </trkpt>
      <trkpt lat="44.51005" lon="1.66256">
        <ele>223</ele>
        <time>2017-09-21T15:10:33Z</time>
      </trkpt>
      <trkpt lat="44.51" lon="1.66263">
        <ele>223</ele>
        <time>2017-09-21T15:10:40Z</time>
      </trkpt>
      <trkpt lat="44.50996" lon="1.66267">
        <ele>218</ele>
        <time>2017-09-21T15:10:45Z</time>
      </trkpt>
      <trkpt lat="44.50994" lon="1.6627">
        <ele>217</ele>
        <time>2017-09-21T15:10:47Z</time>
      </trkpt>
      <trkpt lat="44.50993" lon="1.66272">
        <ele>216</ele>
        <time>2017-09-21T15:10:50Z</time>
      </trkpt>
      <trkpt lat="44.50991" lon="1.66274">
        <ele>216</ele>
        <time>2017-09-21T15:10:52Z</time>
      </trkpt>
      <trkpt lat="44.50987" lon="1.66278">
        <ele>215</ele>
        <time>2017-09-21T15:10:58Z</time>
      </trkpt>
      <trkpt lat="44.50985" lon="1.66282">
        <ele>214</ele>
        <time>2017-09-21T15:11:02Z</time>
      </trkpt>
      <trkpt lat="44.50983" lon="1.66284">
        <ele>214</ele>
        <time>2017-09-21T15:11:05Z</time>
      </trkpt>
      <trkpt lat="44.50981" lon="1.66287">
        <ele>214</ele>
        <time>2017-09-21T15:11:08Z</time>
      </trkpt>
      <trkpt lat="44.50979" lon="1.66289">
        <ele>213</ele>
        <time>2017-09-21T15:11:11Z</time>
      </trkpt>
      <trkpt lat="44.50979" lon="1.66292">
        <ele>213</ele>
        <time>2017-09-21T15:11:17Z</time>
      </trkpt>
      <trkpt lat="44.50979" lon="1.66295">
        <ele>213</ele>
        <time>2017-09-21T15:11:22Z</time>
      </trkpt>
      <trkpt lat="44.50979" lon="1.66298">
        <ele>213</ele>
        <time>2017-09-21T15:11:25Z</time>
      </trkpt>
      <trkpt lat="44.50981" lon="1.66299">
        <ele>213</ele>
        <time>2017-09-21T15:11:28Z</time>
      </trkpt>
      <trkpt lat="44.50983" lon="1.663">
        <ele>213</ele>
        <time>2017-09-21T15:11:40Z</time>
      </trkpt>
      <trkpt lat="44.50987" lon="1.66301">
        <ele>213</ele>
        <time>2017-09-21T15:11:59Z</time>
      </trkpt>
      <trkpt lat="44.50991" lon="1.66301">
        <ele>213</ele>
        <time>2017-09-21T15:12:05Z</time>
      </trkpt>
      <trkpt lat="44.50992" lon="1.66304">
        <ele>213</ele>
        <time>2017-09-21T15:12:11Z</time>
      </trkpt>
      <trkpt lat="44.50989" lon="1.66307">
        <ele>212</ele>
        <time>2017-09-21T15:12:17Z</time>
      </trkpt>
      <trkpt lat="44.50987" lon="1.66309">
        <ele>212</ele>
        <time>2017-09-21T15:12:20Z</time>
      </trkpt>
      <trkpt lat="44.50986" lon="1.66312">
        <ele>212</ele>
        <time>2017-09-21T15:12:26Z</time>
      </trkpt>
      <trkpt lat="44.50987" lon="1.66317">
        <ele>212</ele>
        <time>2017-09-21T15:12:54Z</time>
      </trkpt>
      <trkpt lat="44.50972" lon="1.66322">
        <ele>211</ele>
        <time>2017-09-21T15:13:25Z</time>
      </trkpt>
      <trkpt lat="44.5097" lon="1.66322">
        <ele>211</ele>
        <time>2017-09-21T15:13:26Z</time>
      </trkpt>
      <trkpt lat="44.50943" lon="1.66326">
        <ele>208</ele>
        <time>2017-09-21T15:13:49Z</time>
      </trkpt>
      <trkpt lat="44.50941" lon="1.66326">
        <ele>208</ele>
        <time>2017-09-21T15:13:51Z</time>
      </trkpt>
      <trkpt lat="44.50938" lon="1.66326">
        <ele>207</ele>
        <time>2017-09-21T15:13:54Z</time>
      </trkpt>
      <trkpt lat="44.50936" lon="1.66329">
        <ele>207</ele>
        <time>2017-09-21T15:13:56Z</time>
      </trkpt>
      <trkpt lat="44.5093" lon="1.66336">
        <ele>194</ele>
        <time>2017-09-21T15:14:03Z</time>
      </trkpt>
      <trkpt lat="44.50922" lon="1.66339">
        <ele>196</ele>
        <time>2017-09-21T15:14:11Z</time>
      </trkpt>
      <trkpt lat="44.5092" lon="1.6634">
        <ele>196</ele>
        <time>2017-09-21T15:14:15Z</time>
      </trkpt>
      <trkpt lat="44.50919" lon="1.66337">
        <ele>198</ele>
        <time>2017-09-21T15:14:28Z</time>
      </trkpt>
      <trkpt lat="44.50918" lon="1.66336">
        <ele>199</ele>
        <time>2017-09-21T15:14:33Z</time>
      </trkpt>
      <trkpt lat="44.50917" lon="1.66333">
        <ele>201</ele>
        <time>2017-09-21T15:14:34Z</time>
      </trkpt>
      <trkpt lat="44.50915" lon="1.66332">
        <ele>200</ele>
        <time>2017-09-21T15:14:37Z</time>
      </trkpt>
      <trkpt lat="44.50914" lon="1.66329">
        <ele>198</ele>
        <time>2017-09-21T15:14:41Z</time>
      </trkpt>
      <trkpt lat="44.5091" lon="1.66326">
        <ele>196</ele>
        <time>2017-09-21T15:14:46Z</time>
      </trkpt>
      <trkpt lat="44.50907" lon="1.66321">
        <ele>194</ele>
        <time>2017-09-21T15:14:51Z</time>
      </trkpt>
      <trkpt lat="44.50906" lon="1.66319">
        <ele>194</ele>
        <time>2017-09-21T15:14:53Z</time>
      </trkpt>
      <trkpt lat="44.50904" lon="1.66319">
        <ele>193</ele>
        <time>2017-09-21T15:14:55Z</time>
      </trkpt>
      <trkpt lat="44.50902" lon="1.6632">
        <ele>193</ele>
        <time>2017-09-21T15:14:57Z</time>
      </trkpt>
      <trkpt lat="44.50899" lon="1.66329">
        <ele>193</ele>
        <time>2017-09-21T15:15:04Z</time>
      </trkpt>
      <trkpt lat="44.50897" lon="1.66334">
        <ele>183</ele>
        <time>2017-09-21T15:15:08Z</time>
      </trkpt>
      <trkpt lat="44.50891" lon="1.66362">
        <ele>173</ele>
        <time>2017-09-21T15:15:29Z</time>
      </trkpt>
      <trkpt lat="44.5089" lon="1.66365">
        <ele>172</ele>
        <time>2017-09-21T15:15:33Z</time>
      </trkpt>
      <trkpt lat="44.50889" lon="1.66366">
        <ele>172</ele>
        <time>2017-09-21T15:15:36Z</time>
      </trkpt>
      <trkpt lat="44.50885" lon="1.66363">
        <ele>172</ele>
        <time>2017-09-21T15:15:42Z</time>
      </trkpt>
      <trkpt lat="44.50884" lon="1.66358">
        <ele>173</ele>
        <time>2017-09-21T15:15:47Z</time>
      </trkpt>
      <trkpt lat="44.50883" lon="1.66356">
        <ele>173</ele>
        <time>2017-09-21T15:15:50Z</time>
      </trkpt>
      <trkpt lat="44.50874" lon="1.66331">
        <ele>185</ele>
        <time>2017-09-21T15:16:12Z</time>
      </trkpt>
      <trkpt lat="44.50874" lon="1.66327">
        <ele>185</ele>
        <time>2017-09-21T15:16:16Z</time>
      </trkpt>
      <trkpt lat="44.50873" lon="1.66322">
        <ele>185</ele>
        <time>2017-09-21T15:16:19Z</time>
      </trkpt>
      <trkpt lat="44.50873" lon="1.66304">
        <ele>186</ele>
        <time>2017-09-21T15:16:30Z</time>
      </trkpt>
      <trkpt lat="44.50871" lon="1.66307">
        <ele>185</ele>
        <time>2017-09-21T15:16:54Z</time>
      </trkpt>
      <trkpt lat="44.5087" lon="1.6631">
        <ele>185</ele>
        <time>2017-09-21T15:16:57Z</time>
      </trkpt>
      <trkpt lat="44.50869" lon="1.66318">
        <ele>184</ele>
        <time>2017-09-21T15:17:03Z</time>
      </trkpt>
      <trkpt lat="44.50868" lon="1.66321">
        <ele>184</ele>
        <time>2017-09-21T15:17:06Z</time>
      </trkpt>
      <trkpt lat="44.50866" lon="1.6632">
        <ele>183</ele>
        <time>2017-09-21T15:17:08Z</time>
      </trkpt>
      <trkpt lat="44.50865" lon="1.66315">
        <ele>183</ele>
        <time>2017-09-21T15:17:12Z</time>
      </trkpt>
      <trkpt lat="44.50864" lon="1.66312">
        <ele>183</ele>
        <time>2017-09-21T15:17:14Z</time>
      </trkpt>
      <trkpt lat="44.50864" lon="1.66309">
        <ele>183</ele>
        <time>2017-09-21T15:17:17Z</time>
      </trkpt>
      <trkpt lat="44.50863" lon="1.66307">
        <ele>183</ele>
        <time>2017-09-21T15:17:19Z</time>
      </trkpt>
      <trkpt lat="44.50862" lon="1.66304">
        <ele>183</ele>
        <time>2017-09-21T15:17:22Z</time>
      </trkpt>
      <trkpt lat="44.50862" lon="1.663">
        <ele>183</ele>
        <time>2017-09-21T15:17:25Z</time>
      </trkpt>
      <trkpt lat="44.50862" lon="1.66297">
        <ele>183</ele>
        <time>2017-09-21T15:17:27Z</time>
      </trkpt>
      <trkpt lat="44.5086" lon="1.66291">
        <ele>183</ele>
        <time>2017-09-21T15:17:31Z</time>
      </trkpt>
      <trkpt lat="44.50858" lon="1.66273">
        <ele>182</ele>
        <time>2017-09-21T15:17:43Z</time>
      </trkpt>
      <trkpt lat="44.50857" lon="1.6627">
        <ele>181</ele>
        <time>2017-09-21T15:17:45Z</time>
      </trkpt>
      <trkpt lat="44.50857" lon="1.66265">
        <ele>181</ele>
        <time>2017-09-21T15:17:50Z</time>
      </trkpt>
      <trkpt lat="44.50857" lon="1.66262">
        <ele>180</ele>
        <time>2017-09-21T15:17:52Z</time>
      </trkpt>
      <trkpt lat="44.50857" lon="1.66259">
        <ele>180</ele>
        <time>2017-09-21T15:17:55Z</time>
      </trkpt>
      <trkpt lat="44.50858" lon="1.66257">
        <ele>180</ele>
        <time>2017-09-21T15:17:58Z</time>
      </trkpt>
      <trkpt lat="44.50858" lon="1.66254">
        <ele>180</ele>
        <time>2017-09-21T15:18:00Z</time>
      </trkpt>
      <trkpt lat="44.50857" lon="1.66244">
        <ele>177</ele>
        <time>2017-09-21T15:18:06Z</time>
      </trkpt>
      <trkpt lat="44.50857" lon="1.66242">
        <ele>177</ele>
        <time>2017-09-21T15:18:08Z</time>
      </trkpt>
      <trkpt lat="44.50856" lon="1.66238">
        <ele>177</ele>
        <time>2017-09-21T15:18:11Z</time>
      </trkpt>
      <trkpt lat="44.50855" lon="1.6623">
        <ele>177</ele>
        <time>2017-09-21T15:18:17Z</time>
      </trkpt>
      <trkpt lat="44.50855" lon="1.66227">
        <ele>177</ele>
        <time>2017-09-21T15:18:20Z</time>
      </trkpt>
      <trkpt lat="44.50856" lon="1.66223">
        <ele>177</ele>
        <time>2017-09-21T15:18:23Z</time>
      </trkpt>
      <trkpt lat="44.50856" lon="1.66219">
        <ele>177</ele>
        <time>2017-09-21T15:18:26Z</time>
      </trkpt>
      <trkpt lat="44.50856" lon="1.66215">
        <ele>177</ele>
        <time>2017-09-21T15:18:30Z</time>
      </trkpt>
      <trkpt lat="44.50856" lon="1.66209">
        <ele>177</ele>
        <time>2017-09-21T15:18:35Z</time>
      </trkpt>
      <trkpt lat="44.50856" lon="1.66205">
        <ele>176</ele>
        <time>2017-09-21T15:18:38Z</time>
      </trkpt>
      <trkpt lat="44.50855" lon="1.66188">
        <ele>173</ele>
        <time>2017-09-21T15:18:48Z</time>
      </trkpt>
      <trkpt lat="44.5086" lon="1.6617">
        <ele>172</ele>
        <time>2017-09-21T15:19:06Z</time>
      </trkpt>
      <trkpt lat="44.50859" lon="1.66165">
        <ele>164</ele>
        <time>2017-09-21T15:19:10Z</time>
      </trkpt>
      <trkpt lat="44.5086" lon="1.66153">
        <ele>164</ele>
        <time>2017-09-21T15:19:29Z</time>
      </trkpt>
      <trkpt lat="44.5086" lon="1.66142">
        <ele>164</ele>
        <time>2017-09-21T15:19:36Z</time>
      </trkpt>
      <trkpt lat="44.50862" lon="1.6613">
        <ele>164</ele>
        <time>2017-09-21T15:19:44Z</time>
      </trkpt>
      <trkpt lat="44.50862" lon="1.66105">
        <ele>161</ele>
        <time>2017-09-21T15:20:05Z</time>
      </trkpt>
      <trkpt lat="44.50865" lon="1.66094">
        <ele>161</ele>
        <time>2017-09-21T15:20:15Z</time>
      </trkpt>
      <trkpt lat="44.50867" lon="1.66087">
        <ele>161</ele>
        <time>2017-09-21T15:20:19Z</time>
      </trkpt>
      <trkpt lat="44.5087" lon="1.66084">
        <ele>162</ele>
        <time>2017-09-21T15:20:23Z</time>
      </trkpt>
      <trkpt lat="44.50872" lon="1.66081">
        <ele>157</ele>
        <time>2017-09-21T15:20:25Z</time>
      </trkpt>
      <trkpt lat="44.50872" lon="1.66073">
        <ele>156</ele>
        <time>2017-09-21T15:20:29Z</time>
      </trkpt>
      <trkpt lat="44.50876" lon="1.66062">
        <ele>158</ele>
        <time>2017-09-21T15:20:36Z</time>
      </trkpt>
      <trkpt lat="44.5089" lon="1.66035">
        <ele>160</ele>
        <time>2017-09-21T15:20:55Z</time>
      </trkpt>
      <trkpt lat="44.50892" lon="1.6603">
        <ele>160</ele>
        <time>2017-09-21T15:20:58Z</time>
      </trkpt>
      <trkpt lat="44.50892" lon="1.66017">
        <ele>161</ele>
        <time>2017-09-21T15:21:04Z</time>
      </trkpt>
      <trkpt lat="44.50891" lon="1.66012">
        <ele>161</ele>
        <time>2017-09-21T15:21:08Z</time>
      </trkpt>
      <trkpt lat="44.50884" lon="1.65975">
        <ele>164</ele>
        <time>2017-09-21T15:21:31Z</time>
      </trkpt>
      <trkpt lat="44.50884" lon="1.6596">
        <ele>165</ele>
        <time>2017-09-21T15:21:39Z</time>
      </trkpt>
      <trkpt lat="44.50885" lon="1.65944">
        <ele>167</ele>
        <time>2017-09-21T15:21:47Z</time>
      </trkpt>
      <trkpt lat="44.50886" lon="1.65933">
        <ele>169</ele>
        <time>2017-09-21T15:21:54Z</time>
      </trkpt>
      <trkpt lat="44.50874" lon="1.65917">
        <ele>165</ele>
        <time>2017-09-21T15:22:18Z</time>
      </trkpt>
      <trkpt lat="44.50865" lon="1.65904">
        <ele>175</ele>
        <time>2017-09-21T15:22:26Z</time>
      </trkpt>
      <trkpt lat="44.50866" lon="1.65896">
        <ele>177</ele>
        <time>2017-09-21T15:22:31Z</time>
      </trkpt>
      <trkpt lat="44.50863" lon="1.6589">
        <ele>177</ele>
        <time>2017-09-21T15:22:38Z</time>
      </trkpt>
      <trkpt lat="44.50861" lon="1.65885">
        <ele>178</ele>
        <time>2017-09-21T15:22:44Z</time>
      </trkpt>
      <trkpt lat="44.50859" lon="1.65881">
        <ele>178</ele>
        <time>2017-09-21T15:22:48Z</time>
      </trkpt>
      <trkpt lat="44.50856" lon="1.65877">
        <ele>178</ele>
        <time>2017-09-21T15:23:01Z</time>
      </trkpt>
      <trkpt lat="44.5085" lon="1.65871">
        <ele>177</ele>
        <time>2017-09-21T15:23:19Z</time>
      </trkpt>
      <trkpt lat="44.5085" lon="1.65862">
        <ele>178</ele>
        <time>2017-09-21T15:23:25Z</time>
      </trkpt>
      <trkpt lat="44.50824" lon="1.65825">
        <ele>168</ele>
        <time>2017-09-21T15:23:53Z</time>
      </trkpt>
      <trkpt lat="44.50823" lon="1.65821">
        <ele>168</ele>
        <time>2017-09-21T15:23:56Z</time>
      </trkpt>
      <trkpt lat="44.50821" lon="1.65818">
        <ele>168</ele>
        <time>2017-09-21T15:23:58Z</time>
      </trkpt>
      <trkpt lat="44.5082" lon="1.65815">
        <ele>169</ele>
        <time>2017-09-21T15:24:00Z</time>
      </trkpt>
      <trkpt lat="44.50814" lon="1.65808">
        <ele>169</ele>
        <time>2017-09-21T15:24:06Z</time>
      </trkpt>
      <trkpt lat="44.5081" lon="1.65799">
        <ele>170</ele>
        <time>2017-09-21T15:24:12Z</time>
      </trkpt>
      <trkpt lat="44.50808" lon="1.65796">
        <ele>171</ele>
        <time>2017-09-21T15:24:14Z</time>
      </trkpt>
      <trkpt lat="44.508" lon="1.65787">
        <ele>171</ele>
        <time>2017-09-21T15:24:21Z</time>
      </trkpt>
      <trkpt lat="44.50795" lon="1.65782">
        <ele>170</ele>
        <time>2017-09-21T15:24:25Z</time>
      </trkpt>
      <trkpt lat="44.50794" lon="1.65777">
        <ele>170</ele>
        <time>2017-09-21T15:24:28Z</time>
      </trkpt>
      <trkpt lat="44.50792" lon="1.65774">
        <ele>170</ele>
        <time>2017-09-21T15:24:31Z</time>
      </trkpt>
      <trkpt lat="44.50788" lon="1.65771">
        <ele>169</ele>
        <time>2017-09-21T15:24:34Z</time>
      </trkpt>
      <trkpt lat="44.5077" lon="1.65751">
        <ele>163</ele>
        <time>2017-09-21T15:24:52Z</time>
      </trkpt>
      <trkpt lat="44.50768" lon="1.65746">
        <ele>178</ele>
        <time>2017-09-21T15:24:55Z</time>
      </trkpt>
      <trkpt lat="44.50758" lon="1.65736">
        <ele>176</ele>
        <time>2017-09-21T15:25:05Z</time>
      </trkpt>
      <trkpt lat="44.50745" lon="1.65723">
        <ele>160</ele>
        <time>2017-09-21T15:25:17Z</time>
      </trkpt>
      <trkpt lat="44.5071" lon="1.65697">
        <ele>161</ele>
        <time>2017-09-21T15:25:47Z</time>
      </trkpt>
      <trkpt lat="44.50702" lon="1.6569">
        <ele>160</ele>
        <time>2017-09-21T15:25:55Z</time>
      </trkpt>
      <trkpt lat="44.507" lon="1.65687">
        <ele>159</ele>
        <time>2017-09-21T15:25:58Z</time>
      </trkpt>
      <trkpt lat="44.50697" lon="1.65686">
        <ele>158</ele>
        <time>2017-09-21T15:26:01Z</time>
      </trkpt>
      <trkpt lat="44.50691" lon="1.65684">
        <ele>157</ele>
        <time>2017-09-21T15:26:05Z</time>
      </trkpt>
      <trkpt lat="44.50688" lon="1.65681">
        <ele>156</ele>
        <time>2017-09-21T15:26:07Z</time>
      </trkpt>
      <trkpt lat="44.50684" lon="1.65677">
        <ele>154</ele>
        <time>2017-09-21T15:26:11Z</time>
      </trkpt>
      <trkpt lat="44.50659" lon="1.65667">
        <ele>145</ele>
        <time>2017-09-21T15:26:29Z</time>
      </trkpt>
      <trkpt lat="44.50656" lon="1.65665">
        <ele>147</ele>
        <time>2017-09-21T15:26:32Z</time>
      </trkpt>
      <trkpt lat="44.50639" lon="1.65655">
        <ele>148</ele>
        <time>2017-09-21T15:26:46Z</time>
      </trkpt>
      <trkpt lat="44.50637" lon="1.65653">
        <ele>148</ele>
        <time>2017-09-21T15:26:48Z</time>
      </trkpt>
      <trkpt lat="44.50613" lon="1.65641">
        <ele>148</ele>
        <time>2017-09-21T15:27:08Z</time>
      </trkpt>
      <trkpt lat="44.50607" lon="1.65635">
        <ele>147</ele>
        <time>2017-09-21T15:27:14Z</time>
      </trkpt>
      <trkpt lat="44.50603" lon="1.65633">
        <ele>147</ele>
        <time>2017-09-21T15:27:18Z</time>
      </trkpt>
      <trkpt lat="44.50601" lon="1.65632">
        <ele>147</ele>
        <time>2017-09-21T15:27:20Z</time>
      </trkpt>
      <trkpt lat="44.50599" lon="1.65629">
        <ele>147</ele>
        <time>2017-09-21T15:27:22Z</time>
      </trkpt>
      <trkpt lat="44.50589" lon="1.65625">
        <ele>147</ele>
        <time>2017-09-21T15:27:30Z</time>
      </trkpt>
      <trkpt lat="44.50585" lon="1.65624">
        <ele>147</ele>
        <time>2017-09-21T15:27:32Z</time>
      </trkpt>
      <trkpt lat="44.50582" lon="1.65624">
        <ele>143</ele>
        <time>2017-09-21T15:27:34Z</time>
      </trkpt>
      <trkpt lat="44.50577" lon="1.6562">
        <ele>143</ele>
        <time>2017-09-21T15:27:39Z</time>
      </trkpt>
      <trkpt lat="44.50574" lon="1.6562">
        <ele>143</ele>
        <time>2017-09-21T15:27:41Z</time>
      </trkpt>
      <trkpt lat="44.5057" lon="1.65619">
        <ele>143</ele>
        <time>2017-09-21T15:27:44Z</time>
      </trkpt>
      <trkpt lat="44.50567" lon="1.65616">
        <ele>143</ele>
        <time>2017-09-21T15:27:47Z</time>
      </trkpt>
      <trkpt lat="44.50566" lon="1.65614">
        <ele>143</ele>
        <time>2017-09-21T15:27:49Z</time>
      </trkpt>
      <trkpt lat="44.50565" lon="1.6561">
        <ele>143</ele>
        <time>2017-09-21T15:27:51Z</time>
      </trkpt>
      <trkpt lat="44.50563" lon="1.65609">
        <ele>143</ele>
        <time>2017-09-21T15:27:55Z</time>
      </trkpt>
      <trkpt lat="44.50562" lon="1.65607">
        <ele>143</ele>
        <time>2017-09-21T15:28:01Z</time>
      </trkpt>
      <trkpt lat="44.50573" lon="1.65569">
        <ele>144</ele>
        <time>2017-09-21T15:28:27Z</time>
      </trkpt>
      <trkpt lat="44.50573" lon="1.65567">
        <ele>144</ele>
        <time>2017-09-21T15:28:29Z</time>
      </trkpt>
      <trkpt lat="44.50573" lon="1.65565">
        <ele>144</ele>
        <time>2017-09-21T15:28:32Z</time>
      </trkpt>
      <trkpt lat="44.50574" lon="1.65561">
        <ele>144</ele>
        <time>2017-09-21T15:28:41Z</time>
      </trkpt>
      <trkpt lat="44.50574" lon="1.65554">
        <ele>145</ele>
        <time>2017-09-21T15:28:45Z</time>
      </trkpt>
      <trkpt lat="44.50584" lon="1.65522">
        <ele>154</ele>
        <time>2017-09-21T15:29:06Z</time>
      </trkpt>
      <trkpt lat="44.50585" lon="1.65519">
        <ele>154</ele>
        <time>2017-09-21T15:29:08Z</time>
      </trkpt>
      <trkpt lat="44.50585" lon="1.65516">
        <ele>153</ele>
        <time>2017-09-21T15:29:10Z</time>
      </trkpt>
      <trkpt lat="44.5059" lon="1.65489">
        <ele>154</ele>
        <time>2017-09-21T15:29:25Z</time>
      </trkpt>
      <trkpt lat="44.50592" lon="1.65484">
        <ele>155</ele>
        <time>2017-09-21T15:29:28Z</time>
      </trkpt>
      <trkpt lat="44.50598" lon="1.65459">
        <ele>156</ele>
        <time>2017-09-21T15:29:44Z</time>
      </trkpt>
      <trkpt lat="44.50601" lon="1.65451">
        <ele>156</ele>
        <time>2017-09-21T15:29:50Z</time>
      </trkpt>
      <trkpt lat="44.50602" lon="1.65447">
        <ele>156</ele>
        <time>2017-09-21T15:29:52Z</time>
      </trkpt>
      <trkpt lat="44.50603" lon="1.65443">
        <ele>156</ele>
        <time>2017-09-21T15:29:54Z</time>
      </trkpt>
      <trkpt lat="44.50604" lon="1.65437">
        <ele>156</ele>
        <time>2017-09-21T15:29:57Z</time>
      </trkpt>
      <trkpt lat="44.5061" lon="1.65406">
        <ele>156</ele>
        <time>2017-09-21T15:30:17Z</time>
      </trkpt>
      <trkpt lat="44.50611" lon="1.65402">
        <ele>156</ele>
        <time>2017-09-21T15:30:20Z</time>
      </trkpt>
      <trkpt lat="44.50612" lon="1.65394">
        <ele>156</ele>
        <time>2017-09-21T15:30:25Z</time>
      </trkpt>
      <trkpt lat="44.50612" lon="1.6539">
        <ele>156</ele>
        <time>2017-09-21T15:30:27Z</time>
      </trkpt>
      <trkpt lat="44.50613" lon="1.65386">
        <ele>156</ele>
        <time>2017-09-21T15:30:29Z</time>
      </trkpt>
      <trkpt lat="44.50617" lon="1.65368">
        <ele>156</ele>
        <time>2017-09-21T15:30:50Z</time>
      </trkpt>
      <trkpt lat="44.50617" lon="1.65366">
        <ele>156</ele>
        <time>2017-09-21T15:30:52Z</time>
      </trkpt>
      <trkpt lat="44.50616" lon="1.65366">
        <ele>156</ele>
        <time>2017-09-21T15:31:27Z</time>
      </trkpt>
      <trkpt lat="44.50615" lon="1.6537">
        <ele>156</ele>
        <time>2017-09-21T15:31:30Z</time>
      </trkpt>
      <trkpt lat="44.50615" lon="1.65377">
        <ele>156</ele>
        <time>2017-09-21T15:31:34Z</time>
      </trkpt>
      <trkpt lat="44.50615" lon="1.65381">
        <ele>156</ele>
        <time>2017-09-21T15:31:37Z</time>
      </trkpt>
      <trkpt lat="44.50614" lon="1.65388">
        <ele>156</ele>
        <time>2017-09-21T15:31:44Z</time>
      </trkpt>
      <trkpt lat="44.50613" lon="1.6539">
        <ele>156</ele>
        <time>2017-09-21T15:31:46Z</time>
      </trkpt>
      <trkpt lat="44.50612" lon="1.65393">
        <ele>156</ele>
        <time>2017-09-21T15:31:49Z</time>
      </trkpt>
      <trkpt lat="44.50612" lon="1.654">
        <ele>156</ele>
        <time>2017-09-21T15:31:53Z</time>
      </trkpt>
      <trkpt lat="44.50612" lon="1.65403">
        <ele>156</ele>
        <time>2017-09-21T15:31:55Z</time>
      </trkpt>
      <trkpt lat="44.50611" lon="1.65406">
        <ele>156</ele>
        <time>2017-09-21T15:31:57Z</time>
      </trkpt>
      <trkpt lat="44.50608" lon="1.65419">
        <ele>156</ele>
        <time>2017-09-21T15:32:05Z</time>
      </trkpt>
      <trkpt lat="44.50607" lon="1.65426">
        <ele>156</ele>
        <time>2017-09-21T15:32:09Z</time>
      </trkpt>
      <trkpt lat="44.50606" lon="1.65432">
        <ele>156</ele>
        <time>2017-09-21T15:32:13Z</time>
      </trkpt>
      <trkpt lat="44.50606" lon="1.65435">
        <ele>156</ele>
        <time>2017-09-21T15:32:15Z</time>
      </trkpt>
      <trkpt lat="44.50604" lon="1.65438">
        <ele>156</ele>
        <time>2017-09-21T15:32:17Z</time>
      </trkpt>
      <trkpt lat="44.50602" lon="1.65439">
        <ele>156</ele>
        <time>2017-09-21T15:32:19Z</time>
      </trkpt>
      <trkpt lat="44.50599" lon="1.65439">
        <ele>156</ele>
        <time>2017-09-21T15:32:21Z</time>
      </trkpt>
      <trkpt lat="44.50597" lon="1.65437">
        <ele>155</ele>
        <time>2017-09-21T15:32:23Z</time>
      </trkpt>
      <trkpt lat="44.50594" lon="1.6543">
        <ele>154</ele>
        <time>2017-09-21T15:32:28Z</time>
      </trkpt>
      <trkpt lat="44.50592" lon="1.65424">
        <ele>154</ele>
        <time>2017-09-21T15:32:32Z</time>
      </trkpt>
      <trkpt lat="44.50589" lon="1.65419">
        <ele>152</ele>
        <time>2017-09-21T15:32:36Z</time>
      </trkpt>
      <trkpt lat="44.50561" lon="1.65396">
        <ele>153</ele>
        <time>2017-09-21T15:33:06Z</time>
      </trkpt>
      <trkpt lat="44.50543" lon="1.65374">
        <ele>155</ele>
        <time>2017-09-21T15:33:27Z</time>
      </trkpt>
      <trkpt lat="44.50541" lon="1.65373">
        <ele>155</ele>
        <time>2017-09-21T15:33:30Z</time>
      </trkpt>
      <trkpt lat="44.50539" lon="1.65372">
        <ele>155</ele>
        <time>2017-09-21T15:33:33Z</time>
      </trkpt>
      <trkpt lat="44.50537" lon="1.65374">
        <ele>155</ele>
        <time>2017-09-21T15:33:36Z</time>
      </trkpt>
      <trkpt lat="44.50534" lon="1.65373">
        <ele>155</ele>
        <time>2017-09-21T15:33:39Z</time>
      </trkpt>
      <trkpt lat="44.50532" lon="1.65371">
        <ele>155</ele>
        <time>2017-09-21T15:33:41Z</time>
      </trkpt>
      <trkpt lat="44.50531" lon="1.65369">
        <ele>156</ele>
        <time>2017-09-21T15:33:43Z</time>
      </trkpt>
      <trkpt lat="44.50526" lon="1.6535">
        <ele>157</ele>
        <time>2017-09-21T15:33:54Z</time>
      </trkpt>
      <trkpt lat="44.50522" lon="1.65328">
        <ele>162</ele>
        <time>2017-09-21T15:34:11Z</time>
      </trkpt>
      <trkpt lat="44.50521" lon="1.65325">
        <ele>162</ele>
        <time>2017-09-21T15:34:13Z</time>
      </trkpt>
      <trkpt lat="44.5052" lon="1.65318">
        <ele>162</ele>
        <time>2017-09-21T15:34:18Z</time>
      </trkpt>
      <trkpt lat="44.50518" lon="1.65302">
        <ele>162</ele>
        <time>2017-09-21T15:34:26Z</time>
      </trkpt>
      <trkpt lat="44.50514" lon="1.65279">
        <ele>163</ele>
        <time>2017-09-21T15:34:39Z</time>
      </trkpt>
      <trkpt lat="44.50512" lon="1.65269">
        <ele>165</ele>
        <time>2017-09-21T15:34:47Z</time>
      </trkpt>
      <trkpt lat="44.50511" lon="1.65265">
        <ele>165</ele>
        <time>2017-09-21T15:34:50Z</time>
      </trkpt>
      <trkpt lat="44.5051" lon="1.65258">
        <ele>167</ele>
        <time>2017-09-21T15:34:55Z</time>
      </trkpt>
      <trkpt lat="44.50509" lon="1.65255">
        <ele>167</ele>
        <time>2017-09-21T15:34:58Z</time>
      </trkpt>
      <trkpt lat="44.5051" lon="1.65253">
        <ele>167</ele>
        <time>2017-09-21T15:35:15Z</time>
      </trkpt>
      <trkpt lat="44.5051" lon="1.65248">
        <ele>172</ele>
        <time>2017-09-21T15:35:19Z</time>
      </trkpt>
      <trkpt lat="44.50509" lon="1.65246">
        <ele>172</ele>
        <time>2017-09-21T15:35:22Z</time>
      </trkpt>
      <trkpt lat="44.50509" lon="1.65243">
        <ele>172</ele>
        <time>2017-09-21T15:35:25Z</time>
      </trkpt>
      <trkpt lat="44.50509" lon="1.65237">
        <ele>173</ele>
        <time>2017-09-21T15:35:31Z</time>
      </trkpt>
      <trkpt lat="44.50508" lon="1.65233">
        <ele>173</ele>
        <time>2017-09-21T15:35:47Z</time>
      </trkpt>
      <trkpt lat="44.5051" lon="1.65229">
        <ele>173</ele>
        <time>2017-09-21T15:35:53Z</time>
      </trkpt>
      <trkpt lat="44.50509" lon="1.65223">
        <ele>174</ele>
        <time>2017-09-21T15:36:00Z</time>
      </trkpt>
      <trkpt lat="44.50509" lon="1.65218">
        <ele>175</ele>
        <time>2017-09-21T15:36:06Z</time>
      </trkpt>
      <trkpt lat="44.50509" lon="1.65199">
        <ele>178</ele>
        <time>2017-09-21T15:36:16Z</time>
      </trkpt>
      <trkpt lat="44.5051" lon="1.65191">
        <ele>180</ele>
        <time>2017-09-21T15:36:21Z</time>
      </trkpt>
      <trkpt lat="44.50512" lon="1.65189">
        <ele>180</ele>
        <time>2017-09-21T15:36:25Z</time>
      </trkpt>
      <trkpt lat="44.50515" lon="1.65189">
        <ele>180</ele>
        <time>2017-09-21T15:36:29Z</time>
      </trkpt>
      <trkpt lat="44.50524" lon="1.65181">
        <ele>180</ele>
        <time>2017-09-21T15:36:40Z</time>
      </trkpt>
      <trkpt lat="44.50526" lon="1.6518">
        <ele>180</ele>
        <time>2017-09-21T15:36:42Z</time>
      </trkpt>
      <trkpt lat="44.50529" lon="1.65179">
        <ele>179</ele>
        <time>2017-09-21T15:36:44Z</time>
      </trkpt>
      <trkpt lat="44.50531" lon="1.65177">
        <ele>179</ele>
        <time>2017-09-21T15:36:47Z</time>
      </trkpt>
      <trkpt lat="44.50534" lon="1.65174">
        <ele>179</ele>
        <time>2017-09-21T15:36:52Z</time>
      </trkpt>
      <trkpt lat="44.50536" lon="1.65173">
        <ele>179</ele>
        <time>2017-09-21T15:36:54Z</time>
      </trkpt>
      <trkpt lat="44.50542" lon="1.65167">
        <ele>178</ele>
        <time>2017-09-21T15:37:00Z</time>
      </trkpt>
      <trkpt lat="44.50545" lon="1.65165">
        <ele>193</ele>
        <time>2017-09-21T15:37:02Z</time>
      </trkpt>
      <trkpt lat="44.50551" lon="1.65157">
        <ele>193</ele>
        <time>2017-09-21T15:37:09Z</time>
      </trkpt>
      <trkpt lat="44.50554" lon="1.65154">
        <ele>193</ele>
        <time>2017-09-21T15:37:12Z</time>
      </trkpt>
      <trkpt lat="44.50555" lon="1.65151">
        <ele>193</ele>
        <time>2017-09-21T15:37:15Z</time>
      </trkpt>
      <trkpt lat="44.50559" lon="1.65147">
        <ele>193</ele>
        <time>2017-09-21T15:37:19Z</time>
      </trkpt>
      <trkpt lat="44.5056" lon="1.65145">
        <ele>194</ele>
        <time>2017-09-21T15:37:21Z</time>
      </trkpt>
      <trkpt lat="44.50562" lon="1.65143">
        <ele>194</ele>
        <time>2017-09-21T15:37:23Z</time>
      </trkpt>
      <trkpt lat="44.50565" lon="1.65136">
        <ele>195</ele>
        <time>2017-09-21T15:37:29Z</time>
      </trkpt>
      <trkpt lat="44.50572" lon="1.65127">
        <ele>197</ele>
        <time>2017-09-21T15:37:39Z</time>
      </trkpt>
      <trkpt lat="44.50574" lon="1.65124">
        <ele>197</ele>
        <time>2017-09-21T15:37:42Z</time>
      </trkpt>
      <trkpt lat="44.50576" lon="1.65122">
        <ele>198</ele>
        <time>2017-09-21T15:37:44Z</time>
      </trkpt>
      <trkpt lat="44.50578" lon="1.65119">
        <ele>199</ele>
        <time>2017-09-21T15:37:47Z</time>
      </trkpt>
      <trkpt lat="44.50581" lon="1.65118">
        <ele>199</ele>
        <time>2017-09-21T15:37:50Z</time>
      </trkpt>
      <trkpt lat="44.50611" lon="1.6509">
        <ele>192</ele>
        <time>2017-09-21T15:38:22Z</time>
      </trkpt>
      <trkpt lat="44.50634" lon="1.65062">
        <ele>206</ele>
        <time>2017-09-21T15:38:50Z</time>
      </trkpt>
      <trkpt lat="44.50638" lon="1.65054">
        <ele>207</ele>
        <time>2017-09-21T15:38:56Z</time>
      </trkpt>
      <trkpt lat="44.5064" lon="1.65051">
        <ele>207</ele>
        <time>2017-09-21T15:38:58Z</time>
      </trkpt>
      <trkpt lat="44.50643" lon="1.65041">
        <ele>209</ele>
        <time>2017-09-21T15:39:05Z</time>
      </trkpt>
      <trkpt lat="44.50651" lon="1.65019">
        <ele>211</ele>
        <time>2017-09-21T15:39:21Z</time>
      </trkpt>
      <trkpt lat="44.50664" lon="1.65004">
        <ele>212</ele>
        <time>2017-09-21T15:39:35Z</time>
      </trkpt>
      <trkpt lat="44.50673" lon="1.64984">
        <ele>210</ele>
        <time>2017-09-21T15:39:50Z</time>
      </trkpt>
      <trkpt lat="44.50678" lon="1.64973">
        <ele>210</ele>
        <time>2017-09-21T15:39:59Z</time>
      </trkpt>
      <trkpt lat="44.50678" lon="1.64966">
        <ele>211</ele>
        <time>2017-09-21T15:40:03Z</time>
      </trkpt>
      <trkpt lat="44.50686" lon="1.64949">
        <ele>213</ele>
        <time>2017-09-21T15:40:16Z</time>
      </trkpt>
      <trkpt lat="44.50696" lon="1.64934">
        <ele>214</ele>
        <time>2017-09-21T15:40:29Z</time>
      </trkpt>
      <trkpt lat="44.50698" lon="1.64932">
        <ele>214</ele>
        <time>2017-09-21T15:40:31Z</time>
      </trkpt>
      <trkpt lat="44.507" lon="1.64929">
        <ele>214</ele>
        <time>2017-09-21T15:40:34Z</time>
      </trkpt>
      <trkpt lat="44.50704" lon="1.64922">
        <ele>213</ele>
        <time>2017-09-21T15:40:39Z</time>
      </trkpt>
      <trkpt lat="44.50708" lon="1.64917">
        <ele>213</ele>
        <time>2017-09-21T15:40:43Z</time>
      </trkpt>
      <trkpt lat="44.5071" lon="1.64913">
        <ele>228</ele>
        <time>2017-09-21T15:40:47Z</time>
      </trkpt>
      <trkpt lat="44.50712" lon="1.64911">
        <ele>227</ele>
        <time>2017-09-21T15:40:49Z</time>
      </trkpt>
      <trkpt lat="44.50716" lon="1.64906">
        <ele>227</ele>
        <time>2017-09-21T15:40:53Z</time>
      </trkpt>
      <trkpt lat="44.50718" lon="1.64903">
        <ele>226</ele>
        <time>2017-09-21T15:40:56Z</time>
      </trkpt>
      <trkpt lat="44.50722" lon="1.64897">
        <ele>226</ele>
        <time>2017-09-21T15:41:00Z</time>
      </trkpt>
      <trkpt lat="44.50728" lon="1.64882">
        <ele>228</ele>
        <time>2017-09-21T15:41:10Z</time>
      </trkpt>
      <trkpt lat="44.5073" lon="1.64878">
        <ele>229</ele>
        <time>2017-09-21T15:41:13Z</time>
      </trkpt>
      <trkpt lat="44.50731" lon="1.64875">
        <ele>229</ele>
        <time>2017-09-21T15:41:15Z</time>
      </trkpt>
      <trkpt lat="44.50733" lon="1.64868">
        <ele>230</ele>
        <time>2017-09-21T15:41:20Z</time>
      </trkpt>
      <trkpt lat="44.50734" lon="1.64864">
        <ele>231</ele>
        <time>2017-09-21T15:41:22Z</time>
      </trkpt>
      <trkpt lat="44.50736" lon="1.64854">
        <ele>232</ele>
        <time>2017-09-21T15:41:28Z</time>
      </trkpt>
      <trkpt lat="44.50736" lon="1.64847">
        <ele>233</ele>
        <time>2017-09-21T15:41:32Z</time>
      </trkpt>
      <trkpt lat="44.50737" lon="1.64844">
        <ele>233</ele>
        <time>2017-09-21T15:41:34Z</time>
      </trkpt>
      <trkpt lat="44.50738" lon="1.64838">
        <ele>233</ele>
        <time>2017-09-21T15:41:38Z</time>
      </trkpt>
      <trkpt lat="44.50738" lon="1.64832">
        <ele>240</ele>
        <time>2017-09-21T15:41:42Z</time>
      </trkpt>
      <trkpt lat="44.5074" lon="1.64828">
        <ele>240</ele>
        <time>2017-09-21T15:41:45Z</time>
      </trkpt>
      <trkpt lat="44.5074" lon="1.64823">
        <ele>241</ele>
        <time>2017-09-21T15:41:57Z</time>
      </trkpt>
      <trkpt lat="44.50739" lon="1.64821">
        <ele>243</ele>
        <time>2017-09-21T15:42:00Z</time>
      </trkpt>
      <trkpt lat="44.50738" lon="1.64818">
        <ele>244</ele>
        <time>2017-09-21T15:42:04Z</time>
      </trkpt>
      <trkpt lat="44.50739" lon="1.64815">
        <ele>244</ele>
        <time>2017-09-21T15:42:07Z</time>
      </trkpt>
      <trkpt lat="44.50746" lon="1.64797">
        <ele>248</ele>
        <time>2017-09-21T15:42:20Z</time>
      </trkpt>
      <trkpt lat="44.50749" lon="1.6479">
        <ele>249</ele>
        <time>2017-09-21T15:42:25Z</time>
      </trkpt>
      <trkpt lat="44.50751" lon="1.64783">
        <ele>237</ele>
        <time>2017-09-21T15:42:29Z</time>
      </trkpt>
      <trkpt lat="44.5075" lon="1.64779">
        <ele>238</ele>
        <time>2017-09-21T15:42:31Z</time>
      </trkpt>
      <trkpt lat="44.50764" lon="1.64735">
        <ele>250</ele>
        <time>2017-09-21T15:43:01Z</time>
      </trkpt>
      <trkpt lat="44.50765" lon="1.64732">
        <ele>250</ele>
        <time>2017-09-21T15:43:03Z</time>
      </trkpt>
      <trkpt lat="44.50765" lon="1.64725">
        <ele>250</ele>
        <time>2017-09-21T15:43:07Z</time>
      </trkpt>
      <trkpt lat="44.50766" lon="1.64722">
        <ele>250</ele>
        <time>2017-09-21T15:43:09Z</time>
      </trkpt>
      <trkpt lat="44.50765" lon="1.64716">
        <ele>251</ele>
        <time>2017-09-21T15:43:13Z</time>
      </trkpt>
      <trkpt lat="44.50768" lon="1.64705">
        <ele>252</ele>
        <time>2017-09-21T15:43:21Z</time>
      </trkpt>
      <trkpt lat="44.50768" lon="1.64701">
        <ele>252</ele>
        <time>2017-09-21T15:43:23Z</time>
      </trkpt>
      <trkpt lat="44.5077" lon="1.64692">
        <ele>253</ele>
        <time>2017-09-21T15:43:30Z</time>
      </trkpt>
      <trkpt lat="44.5077" lon="1.64688">
        <ele>254</ele>
        <time>2017-09-21T15:43:32Z</time>
      </trkpt>
      <trkpt lat="44.5077" lon="1.64681">
        <ele>255</ele>
        <time>2017-09-21T15:43:36Z</time>
      </trkpt>
      <trkpt lat="44.5077" lon="1.64673">
        <ele>256</ele>
        <time>2017-09-21T15:43:41Z</time>
      </trkpt>
      <trkpt lat="44.5077" lon="1.64669">
        <ele>257</ele>
        <time>2017-09-21T15:43:44Z</time>
      </trkpt>
      <trkpt lat="44.50769" lon="1.64666">
        <ele>263</ele>
        <time>2017-09-21T15:43:46Z</time>
      </trkpt>
      <trkpt lat="44.50768" lon="1.64664">
        <ele>263</ele>
        <time>2017-09-21T15:43:48Z</time>
      </trkpt>
      <trkpt lat="44.50767" lon="1.64661">
        <ele>264</ele>
        <time>2017-09-21T15:43:50Z</time>
      </trkpt>
      <trkpt lat="44.50767" lon="1.64659">
        <ele>264</ele>
        <time>2017-09-21T15:43:52Z</time>
      </trkpt>
      <trkpt lat="44.50765" lon="1.64657">
        <ele>264</ele>
        <time>2017-09-21T15:44:03Z</time>
      </trkpt>
      <trkpt lat="44.50762" lon="1.64648">
        <ele>264</ele>
        <time>2017-09-21T15:44:31Z</time>
      </trkpt>
      <trkpt lat="44.50762" lon="1.64645">
        <ele>264</ele>
        <time>2017-09-21T15:44:33Z</time>
      </trkpt>
      <trkpt lat="44.50764" lon="1.64613">
        <ele>266</ele>
        <time>2017-09-21T15:44:52Z</time>
      </trkpt>
      <trkpt lat="44.50765" lon="1.64608">
        <ele>266</ele>
        <time>2017-09-21T15:44:55Z</time>
      </trkpt>
      <trkpt lat="44.50765" lon="1.64605">
        <ele>267</ele>
        <time>2017-09-21T15:44:57Z</time>
      </trkpt>
      <trkpt lat="44.50766" lon="1.646">
        <ele>267</ele>
        <time>2017-09-21T15:44:59Z</time>
      </trkpt>
      <trkpt lat="44.50766" lon="1.64585">
        <ele>269</ele>
        <time>2017-09-21T15:45:07Z</time>
      </trkpt>
      <trkpt lat="44.50768" lon="1.64554">
        <ele>275</ele>
        <time>2017-09-21T15:45:24Z</time>
      </trkpt>
      <trkpt lat="44.50766" lon="1.64536">
        <ele>276</ele>
        <time>2017-09-21T15:45:32Z</time>
      </trkpt>
      <trkpt lat="44.50766" lon="1.64524">
        <ele>277</ele>
        <time>2017-09-21T15:45:39Z</time>
      </trkpt>
      <trkpt lat="44.50766" lon="1.64521">
        <ele>277</ele>
        <time>2017-09-21T15:45:41Z</time>
      </trkpt>
      <trkpt lat="44.50766" lon="1.64517">
        <ele>278</ele>
        <time>2017-09-21T15:45:45Z</time>
      </trkpt>
      <trkpt lat="44.50769" lon="1.64517">
        <ele>277</ele>
        <time>2017-09-21T15:45:50Z</time>
      </trkpt>
      <trkpt lat="44.50771" lon="1.64518">
        <ele>277</ele>
        <time>2017-09-21T15:45:55Z</time>
      </trkpt>
      <trkpt lat="44.50775" lon="1.64514">
        <ele>277</ele>
        <time>2017-09-21T15:48:08Z</time>
      </trkpt>
      <trkpt lat="44.50784" lon="1.64506">
        <ele>277</ele>
        <time>2017-09-21T15:48:18Z</time>
      </trkpt>
      <trkpt lat="44.50786" lon="1.64501">
        <ele>277</ele>
        <time>2017-09-21T15:48:21Z</time>
      </trkpt>
      <trkpt lat="44.50788" lon="1.64496">
        <ele>283</ele>
        <time>2017-09-21T15:48:25Z</time>
      </trkpt>
      <trkpt lat="44.5079" lon="1.64492">
        <ele>284</ele>
        <time>2017-09-21T15:48:29Z</time>
      </trkpt>
      <trkpt lat="44.50798" lon="1.64488">
        <ele>283</ele>
        <time>2017-09-21T15:48:37Z</time>
      </trkpt>
      <trkpt lat="44.50804" lon="1.64489">
        <ele>283</ele>
        <time>2017-09-21T15:48:41Z</time>
      </trkpt>
      <trkpt lat="44.50811" lon="1.64493">
        <ele>283</ele>
        <time>2017-09-21T15:48:48Z</time>
      </trkpt>
      <trkpt lat="44.50825" lon="1.64502">
        <ele>278</ele>
        <time>2017-09-21T15:48:59Z</time>
      </trkpt>
      <trkpt lat="44.50828" lon="1.64504">
        <ele>278</ele>
        <time>2017-09-21T15:49:01Z</time>
      </trkpt>
      <trkpt lat="44.50834" lon="1.64504">
        <ele>278</ele>
        <time>2017-09-21T15:49:06Z</time>
      </trkpt>
      <trkpt lat="44.50845" lon="1.64507">
        <ele>275</ele>
        <time>2017-09-21T15:49:14Z</time>
      </trkpt>
      <trkpt lat="44.50847" lon="1.64507">
        <ele>275</ele>
        <time>2017-09-21T15:49:16Z</time>
      </trkpt>
      <trkpt lat="44.50849" lon="1.64505">
        <ele>275</ele>
        <time>2017-09-21T15:49:18Z</time>
      </trkpt>
      <trkpt lat="44.5085" lon="1.64501">
        <ele>275</ele>
        <time>2017-09-21T15:49:20Z</time>
      </trkpt>
      <trkpt lat="44.5085" lon="1.64498">
        <ele>280</ele>
        <time>2017-09-21T15:49:22Z</time>
      </trkpt>
      <trkpt lat="44.50837" lon="1.64483">
        <ele>281</ele>
        <time>2017-09-21T15:49:35Z</time>
      </trkpt>
      <trkpt lat="44.50825" lon="1.64472">
        <ele>283</ele>
        <time>2017-09-21T15:49:48Z</time>
      </trkpt>
      <trkpt lat="44.50821" lon="1.64469">
        <ele>284</ele>
        <time>2017-09-21T15:49:52Z</time>
      </trkpt>
      <trkpt lat="44.50796" lon="1.64446">
        <ele>286</ele>
        <time>2017-09-21T15:50:14Z</time>
      </trkpt>
      <trkpt lat="44.50792" lon="1.64439">
        <ele>286</ele>
        <time>2017-09-21T15:50:18Z</time>
      </trkpt>
      <trkpt lat="44.50792" lon="1.64437">
        <ele>286</ele>
        <time>2017-09-21T15:50:19Z</time>
      </trkpt>
      <trkpt lat="44.50791" lon="1.64435">
        <ele>286</ele>
        <time>2017-09-21T15:50:20Z</time>
      </trkpt>
      <trkpt lat="44.50791" lon="1.64433">
        <ele>286</ele>
        <time>2017-09-21T15:50:21Z</time>
      </trkpt>
      <trkpt lat="44.50792" lon="1.64431">
        <ele>286</ele>
        <time>2017-09-21T15:50:22Z</time>
      </trkpt>
      <trkpt lat="44.50796" lon="1.64427">
        <ele>286</ele>
        <time>2017-09-21T15:50:26Z</time>
      </trkpt>
      <trkpt lat="44.50813" lon="1.64427">
        <ele>287</ele>
        <time>2017-09-21T15:50:46Z</time>
      </trkpt>
      <trkpt lat="44.50817" lon="1.64429">
        <ele>287</ele>
        <time>2017-09-21T15:50:50Z</time>
      </trkpt>
      <trkpt lat="44.50848" lon="1.64424">
        <ele>286</ele>
        <time>2017-09-21T15:51:12Z</time>
      </trkpt>
      <trkpt lat="44.50852" lon="1.64418">
        <ele>285</ele>
        <time>2017-09-21T15:51:17Z</time>
      </trkpt>
      <trkpt lat="44.50857" lon="1.6441">
        <ele>288</ele>
        <time>2017-09-21T15:51:23Z</time>
      </trkpt>
      <trkpt lat="44.50862" lon="1.64394">
        <ele>288</ele>
        <time>2017-09-21T15:51:32Z</time>
      </trkpt>
      <trkpt lat="44.50862" lon="1.64391">
        <ele>288</ele>
        <time>2017-09-21T15:51:34Z</time>
      </trkpt>
      <trkpt lat="44.50862" lon="1.64387">
        <ele>288</ele>
        <time>2017-09-21T15:51:36Z</time>
      </trkpt>
      <trkpt lat="44.5086" lon="1.64383">
        <ele>288</ele>
        <time>2017-09-21T15:51:40Z</time>
      </trkpt>
      <trkpt lat="44.50859" lon="1.64381">
        <ele>288</ele>
        <time>2017-09-21T15:51:42Z</time>
      </trkpt>
      <trkpt lat="44.50856" lon="1.64379">
        <ele>288</ele>
        <time>2017-09-21T15:51:45Z</time>
      </trkpt>
      <trkpt lat="44.5085" lon="1.64379">
        <ele>289</ele>
        <time>2017-09-21T15:51:49Z</time>
      </trkpt>
      <trkpt lat="44.50842" lon="1.64377">
        <ele>289</ele>
        <time>2017-09-21T15:51:55Z</time>
      </trkpt>
      <trkpt lat="44.50839" lon="1.64375">
        <ele>289</ele>
        <time>2017-09-21T15:51:57Z</time>
      </trkpt>
      <trkpt lat="44.50827" lon="1.64362">
        <ele>294</ele>
        <time>2017-09-21T15:52:09Z</time>
      </trkpt>
      <trkpt lat="44.50814" lon="1.64344">
        <ele>295</ele>
        <time>2017-09-21T15:52:21Z</time>
      </trkpt>
      <trkpt lat="44.50814" lon="1.64342">
        <ele>295</ele>
        <time>2017-09-21T15:52:22Z</time>
      </trkpt>
      <trkpt lat="44.50813" lon="1.64341">
        <ele>295</ele>
        <time>2017-09-21T15:52:23Z</time>
      </trkpt>
      <trkpt lat="44.50797" lon="1.64292">
        <ele>301</ele>
        <time>2017-09-21T15:52:53Z</time>
      </trkpt>
      <trkpt lat="44.50794" lon="1.64278">
        <ele>301</ele>
        <time>2017-09-21T15:53:01Z</time>
      </trkpt>
      <trkpt lat="44.50793" lon="1.64275">
        <ele>301</ele>
        <time>2017-09-21T15:53:03Z</time>
      </trkpt>
      <trkpt lat="44.50793" lon="1.6427">
        <ele>301</ele>
        <time>2017-09-21T15:53:06Z</time>
      </trkpt>
      <trkpt lat="44.50793" lon="1.64268">
        <ele>301</ele>
        <time>2017-09-21T15:53:07Z</time>
      </trkpt>
      <trkpt lat="44.50792" lon="1.64266">
        <ele>301</ele>
        <time>2017-09-21T15:53:08Z</time>
      </trkpt>
      <trkpt lat="44.5078" lon="1.6423">
        <ele>304</ele>
        <time>2017-09-21T15:53:30Z</time>
      </trkpt>
      <trkpt lat="44.50774" lon="1.64214">
        <ele>304</ele>
        <time>2017-09-21T15:53:40Z</time>
      </trkpt>
      <trkpt lat="44.50773" lon="1.64212">
        <ele>304</ele>
        <time>2017-09-21T15:53:41Z</time>
      </trkpt>
      <trkpt lat="44.50769" lon="1.642">
        <ele>305</ele>
        <time>2017-09-21T15:53:48Z</time>
      </trkpt>
      <trkpt lat="44.50746" lon="1.6415">
        <ele>314</ele>
        <time>2017-09-21T15:54:19Z</time>
      </trkpt>
      <trkpt lat="44.50745" lon="1.64149">
        <ele>314</ele>
        <time>2017-09-21T15:54:20Z</time>
      </trkpt>
      <trkpt lat="44.50744" lon="1.64147">
        <ele>314</ele>
        <time>2017-09-21T15:54:21Z</time>
      </trkpt>
      <trkpt lat="44.50739" lon="1.64133">
        <ele>316</ele>
        <time>2017-09-21T15:54:29Z</time>
      </trkpt>
      <trkpt lat="44.50736" lon="1.64128">
        <ele>316</ele>
        <time>2017-09-21T15:54:32Z</time>
      </trkpt>
      <trkpt lat="44.50729" lon="1.64104">
        <ele>317</ele>
        <time>2017-09-21T15:54:47Z</time>
      </trkpt>
      <trkpt lat="44.50728" lon="1.64097">
        <ele>317</ele>
        <time>2017-09-21T15:54:50Z</time>
      </trkpt>
      <trkpt lat="44.50724" lon="1.64086">
        <ele>317</ele>
        <time>2017-09-21T15:54:56Z</time>
      </trkpt>
      <trkpt lat="44.50723" lon="1.64084">
        <ele>317</ele>
        <time>2017-09-21T15:54:57Z</time>
      </trkpt>
      <trkpt lat="44.50723" lon="1.64082">
        <ele>317</ele>
        <time>2017-09-21T15:54:59Z</time>
      </trkpt>
      <trkpt lat="44.50722" lon="1.6408">
        <ele>317</ele>
        <time>2017-09-21T15:55:00Z</time>
      </trkpt>
      <trkpt lat="44.50713" lon="1.64032">
        <ele>318</ele>
        <time>2017-09-21T15:55:26Z</time>
      </trkpt>
      <trkpt lat="44.50707" lon="1.63999">
        <ele>317</ele>
        <time>2017-09-21T15:55:44Z</time>
      </trkpt>
      <trkpt lat="44.50705" lon="1.63995">
        <ele>317</ele>
        <time>2017-09-21T15:55:47Z</time>
      </trkpt>
      <trkpt lat="44.50704" lon="1.63992">
        <ele>317</ele>
        <time>2017-09-21T15:55:49Z</time>
      </trkpt>
      <trkpt lat="44.50701" lon="1.6398">
        <ele>317</ele>
        <time>2017-09-21T15:55:57Z</time>
      </trkpt>
      <trkpt lat="44.507" lon="1.63978">
        <ele>317</ele>
        <time>2017-09-21T15:55:58Z</time>
      </trkpt>
      <trkpt lat="44.50689" lon="1.63942">
        <ele>318</ele>
        <time>2017-09-21T15:56:20Z</time>
      </trkpt>
      <trkpt lat="44.50687" lon="1.6394">
        <ele>318</ele>
        <time>2017-09-21T15:56:22Z</time>
      </trkpt>
      <trkpt lat="44.50684" lon="1.6392">
        <ele>319</ele>
        <time>2017-09-21T15:56:34Z</time>
      </trkpt>
      <trkpt lat="44.50683" lon="1.63896">
        <ele>316</ele>
        <time>2017-09-21T15:56:46Z</time>
      </trkpt>
      <trkpt lat="44.50684" lon="1.63884">
        <ele>316</ele>
        <time>2017-09-21T15:56:53Z</time>
      </trkpt>
      <trkpt lat="44.50688" lon="1.63857">
        <ele>315</ele>
        <time>2017-09-21T15:57:07Z</time>
      </trkpt>
      <trkpt lat="44.50689" lon="1.63853">
        <ele>315</ele>
        <time>2017-09-21T15:57:10Z</time>
      </trkpt>
      <trkpt lat="44.50691" lon="1.63839">
        <ele>316</ele>
        <time>2017-09-21T15:57:18Z</time>
      </trkpt>
      <trkpt lat="44.50697" lon="1.63802">
        <ele>316</ele>
        <time>2017-09-21T15:57:40Z</time>
      </trkpt>
      <trkpt lat="44.50697" lon="1.63795">
        <ele>316</ele>
        <time>2017-09-21T15:57:44Z</time>
      </trkpt>
      <trkpt lat="44.50698" lon="1.63792">
        <ele>316</ele>
        <time>2017-09-21T15:57:47Z</time>
      </trkpt>
      <trkpt lat="44.5071" lon="1.63738">
        <ele>318</ele>
        <time>2017-09-21T15:58:18Z</time>
      </trkpt>
      <trkpt lat="44.50719" lon="1.63711">
        <ele>317</ele>
        <time>2017-09-21T15:58:34Z</time>
      </trkpt>
      <trkpt lat="44.5072" lon="1.63707">
        <ele>317</ele>
        <time>2017-09-21T15:58:36Z</time>
      </trkpt>
      <trkpt lat="44.5072" lon="1.63704">
        <ele>317</ele>
        <time>2017-09-21T15:58:40Z</time>
      </trkpt>
      <trkpt lat="44.50724" lon="1.63698">
        <ele>317</ele>
        <time>2017-09-21T15:58:55Z</time>
      </trkpt>
      <trkpt lat="44.50725" lon="1.63691">
        <ele>317</ele>
        <time>2017-09-21T15:58:59Z</time>
      </trkpt>
      <trkpt lat="44.50728" lon="1.6368">
        <ele>316</ele>
        <time>2017-09-21T15:59:05Z</time>
      </trkpt>
      <trkpt lat="44.50734" lon="1.63653">
        <ele>318</ele>
        <time>2017-09-21T15:59:19Z</time>
      </trkpt>
      <trkpt lat="44.50734" lon="1.6365">
        <ele>318</ele>
        <time>2017-09-21T15:59:21Z</time>
      </trkpt>
      <trkpt lat="44.50737" lon="1.63643">
        <ele>319</ele>
        <time>2017-09-21T15:59:25Z</time>
      </trkpt>
      <trkpt lat="44.50738" lon="1.63639">
        <ele>319</ele>
        <time>2017-09-21T15:59:27Z</time>
      </trkpt>
      <trkpt lat="44.5075" lon="1.63612">
        <ele>313</ele>
        <time>2017-09-21T15:59:45Z</time>
      </trkpt>
      <trkpt lat="44.50761" lon="1.63593">
        <ele>315</ele>
        <time>2017-09-21T15:59:58Z</time>
      </trkpt>
      <trkpt lat="44.50763" lon="1.6359">
        <ele>315</ele>
        <time>2017-09-21T16:00:00Z</time>
      </trkpt>
      <trkpt lat="44.50766" lon="1.63583">
        <ele>318</ele>
        <time>2017-09-21T16:00:04Z</time>
      </trkpt>
      <trkpt lat="44.50774" lon="1.63573">
        <ele>318</ele>
        <time>2017-09-21T16:00:12Z</time>
      </trkpt>
      <trkpt lat="44.50776" lon="1.63574">
        <ele>318</ele>
        <time>2017-09-21T16:00:16Z</time>
      </trkpt>
      <trkpt lat="44.50778" lon="1.63567">
        <ele>318</ele>
        <time>2017-09-21T16:00:21Z</time>
      </trkpt>
      <trkpt lat="44.50805" lon="1.63528">
        <ele>318</ele>
        <time>2017-09-21T16:00:51Z</time>
      </trkpt>
      <trkpt lat="44.5081" lon="1.63518">
        <ele>318</ele>
        <time>2017-09-21T16:00:57Z</time>
      </trkpt>
      <trkpt lat="44.50811" lon="1.63511">
        <ele>318</ele>
        <time>2017-09-21T16:01:01Z</time>
      </trkpt>
      <trkpt lat="44.50812" lon="1.63509">
        <ele>318</ele>
        <time>2017-09-21T16:01:04Z</time>
      </trkpt>
      <trkpt lat="44.5081" lon="1.63494">
        <ele>320</ele>
        <time>2017-09-21T16:01:13Z</time>
      </trkpt>
      <trkpt lat="44.50809" lon="1.6349">
        <ele>320</ele>
        <time>2017-09-21T16:01:15Z</time>
      </trkpt>
      <trkpt lat="44.50806" lon="1.63464">
        <ele>321</ele>
        <time>2017-09-21T16:01:29Z</time>
      </trkpt>
      <trkpt lat="44.50811" lon="1.63418">
        <ele>321</ele>
        <time>2017-09-21T16:01:56Z</time>
      </trkpt>
      <trkpt lat="44.50811" lon="1.63416">
        <ele>321</ele>
        <time>2017-09-21T16:01:57Z</time>
      </trkpt>
      <trkpt lat="44.50811" lon="1.63414">
        <ele>321</ele>
        <time>2017-09-21T16:01:58Z</time>
      </trkpt>
      <trkpt lat="44.50807" lon="1.63393">
        <ele>321</ele>
        <time>2017-09-21T16:02:11Z</time>
      </trkpt>
      <trkpt lat="44.50806" lon="1.6339">
        <ele>321</ele>
        <time>2017-09-21T16:02:15Z</time>
      </trkpt>
      <trkpt lat="44.50805" lon="1.63387">
        <ele>321</ele>
        <time>2017-09-21T16:02:17Z</time>
      </trkpt>
      <trkpt lat="44.50805" lon="1.63383">
        <ele>321</ele>
        <time>2017-09-21T16:02:20Z</time>
      </trkpt>
      <trkpt lat="44.50803" lon="1.63374">
        <ele>321</ele>
        <time>2017-09-21T16:02:26Z</time>
      </trkpt>
      <trkpt lat="44.50801" lon="1.63371">
        <ele>321</ele>
        <time>2017-09-21T16:02:28Z</time>
      </trkpt>
      <trkpt lat="44.50801" lon="1.63368">
        <ele>321</ele>
        <time>2017-09-21T16:02:30Z</time>
      </trkpt>
      <trkpt lat="44.50799" lon="1.63365">
        <ele>321</ele>
        <time>2017-09-21T16:02:32Z</time>
      </trkpt>
      <trkpt lat="44.50798" lon="1.63361">
        <ele>321</ele>
        <time>2017-09-21T16:02:34Z</time>
      </trkpt>
      <trkpt lat="44.50796" lon="1.63359">
        <ele>321</ele>
        <time>2017-09-21T16:02:36Z</time>
      </trkpt>
      <trkpt lat="44.50795" lon="1.63357">
        <ele>321</ele>
        <time>2017-09-21T16:02:38Z</time>
      </trkpt>
      <trkpt lat="44.50794" lon="1.63355">
        <ele>321</ele>
        <time>2017-09-22T08:19:45Z</time>
      </trkpt>
      <trkpt lat="44.50794" lon="1.63353">
        <ele>321</ele>
        <time>2017-09-21T16:03:39Z</time>
      </trkpt>
      <trkpt lat="44.50794" lon="1.63351">
        <ele>321</ele>
        <time>2017-09-21T16:03:41Z</time>
      </trkpt>
      <trkpt lat="44.50793" lon="1.63348">
        <ele>321</ele>
        <time>2017-09-21T16:03:50Z</time>
      </trkpt>
      <trkpt lat="44.50791" lon="1.63346">
        <ele>321</ele>
        <time>2017-09-21T16:03:52Z</time>
      </trkpt>
      <trkpt lat="44.50787" lon="1.63346">
        <ele>321</ele>
        <time>2017-09-21T16:03:55Z</time>
      </trkpt>
      <trkpt lat="44.50785" lon="1.63346">
        <ele>321</ele>
        <time>2017-09-21T16:03:57Z</time>
      </trkpt>
      <trkpt lat="44.50776" lon="1.63351">
        <ele>321</ele>
        <time>2017-09-21T16:04:05Z</time>
      </trkpt>
      <trkpt lat="44.50772" lon="1.6336">
        <ele>321</ele>
        <time>2017-09-21T16:04:12Z</time>
      </trkpt>
      <trkpt lat="44.50769" lon="1.63364">
        <ele>321</ele>
        <time>2017-09-21T16:04:16Z</time>
      </trkpt>
      <trkpt lat="44.50765" lon="1.63367">
        <ele>321</ele>
        <time>2017-09-21T16:04:20Z</time>
      </trkpt>
      <trkpt lat="44.50763" lon="1.63368">
        <ele>321</ele>
        <time>2017-09-21T16:04:22Z</time>
      </trkpt>
      <trkpt lat="44.50763" lon="1.6337">
        <ele>322</ele>
        <time>2017-09-21T16:04:40Z</time>
      </trkpt>
      <trkpt lat="44.50768" lon="1.63375">
        <ele>322</ele>
        <time>2017-09-21T16:04:48Z</time>
      </trkpt>
      <trkpt lat="44.50769" lon="1.63379">
        <ele>322</ele>
        <time>2017-09-21T16:04:51Z</time>
      </trkpt>
      <trkpt lat="44.5077" lon="1.63382">
        <ele>322</ele>
        <time>2017-09-21T16:04:53Z</time>
      </trkpt>
      <trkpt lat="44.50772" lon="1.63385">
        <ele>322</ele>
        <time>2017-09-21T16:04:56Z</time>
      </trkpt>
      <trkpt lat="44.50775" lon="1.63384">
        <ele>322</ele>
        <time>2017-09-21T16:05:00Z</time>
      </trkpt>
      <trkpt lat="44.50776" lon="1.63382">
        <ele>322</ele>
        <time>2017-09-21T16:05:02Z</time>
      </trkpt>
      <trkpt lat="44.50776" lon="1.63379">
        <ele>322</ele>
        <time>2017-09-21T16:05:05Z</time>
      </trkpt>
      <trkpt lat="44.50774" lon="1.63378">
        <ele>322</ele>
        <time>2017-09-21T16:05:24Z</time>
      </trkpt>
      <trkpt lat="44.50775" lon="1.63376">
        <ele>322</ele>
        <time>2017-09-21T16:06:48Z</time>
      </trkpt>
      <trkpt lat="44.5078" lon="1.63381">
        <ele>322</ele>
        <time>2017-09-21T16:06:55Z</time>
      </trkpt>
      <trkpt lat="44.50785" lon="1.63338">
        <ele>321</ele>
        <time>2017-09-22T08:18:57Z</time>
      </trkpt>
      <trkpt lat="44.50784" lon="1.63337">
        <ele>321</ele>
        <time>2017-09-22T08:18:58Z</time>
      </trkpt>
      <trkpt lat="44.50784" lon="1.63335">
        <ele>321</ele>
        <time>2017-09-22T08:19:02Z</time>
      </trkpt>
      <trkpt lat="44.50787" lon="1.63336">
        <ele>321</ele>
        <time>2017-09-22T08:19:23Z</time>
      </trkpt>
      <trkpt lat="44.50798" lon="1.63365">
        <ele>321</ele>
        <time>2017-09-22T08:19:31Z</time>
      </trkpt>
      <trkpt lat="44.50794" lon="1.63355">
        <ele>321</ele>
        <time>2017-09-22T08:19:45Z</time>
      </trkpt>
      <trkpt lat="44.50788" lon="1.63328">
        <ele>319</ele>
        <time>2017-09-22T08:19:56Z</time>
      </trkpt>
      <trkpt lat="44.50785" lon="1.63325">
        <ele>319</ele>
        <time>2017-09-22T08:19:59Z</time>
      </trkpt>
      <trkpt lat="44.50785" lon="1.63321">
        <ele>319</ele>
        <time>2017-09-22T08:20:06Z</time>
      </trkpt>
      <trkpt lat="44.50787" lon="1.63283">
        <ele>318</ele>
        <time>2017-09-22T08:20:30Z</time>
      </trkpt>
      <trkpt lat="44.50787" lon="1.6328">
        <ele>318</ele>
        <time>2017-09-22T08:20:32Z</time>
      </trkpt>
      <trkpt lat="44.50786" lon="1.63226">
        <ele>314</ele>
        <time>2017-09-22T08:21:04Z</time>
      </trkpt>
      <trkpt lat="44.50787" lon="1.63221">
        <ele>314</ele>
        <time>2017-09-22T08:21:07Z</time>
      </trkpt>
      <trkpt lat="44.50786" lon="1.63206">
        <ele>314</ele>
        <time>2017-09-22T08:21:17Z</time>
      </trkpt>
      <trkpt lat="44.50776" lon="1.63151">
        <ele>313</ele>
        <time>2017-09-22T08:21:47Z</time>
      </trkpt>
      <trkpt lat="44.50775" lon="1.63147">
        <ele>313</ele>
        <time>2017-09-22T08:21:49Z</time>
      </trkpt>
      <trkpt lat="44.50772" lon="1.63133">
        <ele>313</ele>
        <time>2017-09-22T08:21:58Z</time>
      </trkpt>
      <trkpt lat="44.50766" lon="1.63086">
        <ele>314</ele>
        <time>2017-09-22T08:22:28Z</time>
      </trkpt>
      <trkpt lat="44.50763" lon="1.63056">
        <ele>313</ele>
        <time>2017-09-22T08:22:46Z</time>
      </trkpt>
      <trkpt lat="44.50763" lon="1.63051">
        <ele>313</ele>
        <time>2017-09-22T08:22:49Z</time>
      </trkpt>
      <trkpt lat="44.50761" lon="1.63036">
        <ele>313</ele>
        <time>2017-09-22T08:22:58Z</time>
      </trkpt>
      <trkpt lat="44.50759" lon="1.63015">
        <ele>314</ele>
        <time>2017-09-22T08:23:10Z</time>
      </trkpt>
      <trkpt lat="44.50759" lon="1.63009">
        <ele>314</ele>
        <time>2017-09-22T08:23:13Z</time>
      </trkpt>
      <trkpt lat="44.50758" lon="1.63004">
        <ele>314</ele>
        <time>2017-09-22T08:23:16Z</time>
      </trkpt>
      <trkpt lat="44.50756" lon="1.62993">
        <ele>314</ele>
        <time>2017-09-22T08:23:23Z</time>
      </trkpt>
      <trkpt lat="44.50752" lon="1.62973">
        <ele>314</ele>
        <time>2017-09-22T08:23:37Z</time>
      </trkpt>
      <trkpt lat="44.50748" lon="1.62945">
        <ele>315</ele>
        <time>2017-09-22T08:23:54Z</time>
      </trkpt>
      <trkpt lat="44.50744" lon="1.62896">
        <ele>315</ele>
        <time>2017-09-22T08:24:26Z</time>
      </trkpt>
      <trkpt lat="44.50744" lon="1.6289">
        <ele>315</ele>
        <time>2017-09-22T08:24:30Z</time>
      </trkpt>
      <trkpt lat="44.50743" lon="1.62884">
        <ele>315</ele>
        <time>2017-09-22T08:24:34Z</time>
      </trkpt>
      <trkpt lat="44.50742" lon="1.62873">
        <ele>315</ele>
        <time>2017-09-22T08:24:40Z</time>
      </trkpt>
      <trkpt lat="44.50742" lon="1.62867">
        <ele>315</ele>
        <time>2017-09-22T08:24:43Z</time>
      </trkpt>
      <trkpt lat="44.50741" lon="1.62863">
        <ele>315</ele>
        <time>2017-09-22T08:24:46Z</time>
      </trkpt>
      <trkpt lat="44.5074" lon="1.62852">
        <ele>315</ele>
        <time>2017-09-22T08:24:53Z</time>
      </trkpt>
      <trkpt lat="44.50739" lon="1.62845">
        <ele>315</ele>
        <time>2017-09-22T08:24:57Z</time>
      </trkpt>
      <trkpt lat="44.50739" lon="1.6284">
        <ele>315</ele>
        <time>2017-09-22T08:25:00Z</time>
      </trkpt>
      <trkpt lat="44.50737" lon="1.62827">
        <ele>316</ele>
        <time>2017-09-22T08:25:14Z</time>
      </trkpt>
      <trkpt lat="44.50737" lon="1.62817">
        <ele>316</ele>
        <time>2017-09-22T08:25:22Z</time>
      </trkpt>
      <trkpt lat="44.50736" lon="1.62812">
        <ele>316</ele>
        <time>2017-09-22T08:25:25Z</time>
      </trkpt>
      <trkpt lat="44.50736" lon="1.62807">
        <ele>316</ele>
        <time>2017-09-22T08:25:28Z</time>
      </trkpt>
      <trkpt lat="44.50736" lon="1.62802">
        <ele>316</ele>
        <time>2017-09-22T08:25:31Z</time>
      </trkpt>
      <trkpt lat="44.50736" lon="1.62797">
        <ele>316</ele>
        <time>2017-09-22T08:25:34Z</time>
      </trkpt>
      <trkpt lat="44.50735" lon="1.62791">
        <ele>317</ele>
        <time>2017-09-22T08:25:37Z</time>
      </trkpt>
      <trkpt lat="44.50734" lon="1.6278">
        <ele>317</ele>
        <time>2017-09-22T08:25:44Z</time>
      </trkpt>
      <trkpt lat="44.50732" lon="1.62752">
        <ele>318</ele>
        <time>2017-09-22T08:26:01Z</time>
      </trkpt>
      <trkpt lat="44.5073" lon="1.62741">
        <ele>319</ele>
        <time>2017-09-22T08:26:07Z</time>
      </trkpt>
      <trkpt lat="44.50728" lon="1.62731">
        <ele>319</ele>
        <time>2017-09-22T08:26:13Z</time>
      </trkpt>
      <trkpt lat="44.50727" lon="1.62722">
        <ele>319</ele>
        <time>2017-09-22T08:26:19Z</time>
      </trkpt>
      <trkpt lat="44.50726" lon="1.62715">
        <ele>319</ele>
        <time>2017-09-22T08:26:24Z</time>
      </trkpt>
      <trkpt lat="44.50721" lon="1.62688">
        <ele>319</ele>
        <time>2017-09-22T08:26:41Z</time>
      </trkpt>
      <trkpt lat="44.5072" lon="1.6268">
        <ele>319</ele>
        <time>2017-09-22T08:26:45Z</time>
      </trkpt>
      <trkpt lat="44.50719" lon="1.62675">
        <ele>319</ele>
        <time>2017-09-22T08:26:48Z</time>
      </trkpt>
      <trkpt lat="44.50718" lon="1.62671">
        <ele>319</ele>
        <time>2017-09-22T08:26:51Z</time>
      </trkpt>
      <trkpt lat="44.50718" lon="1.62668">
        <ele>319</ele>
        <time>2017-09-22T08:26:53Z</time>
      </trkpt>
      <trkpt lat="44.50706" lon="1.62628">
        <ele>319</ele>
        <time>2017-09-22T08:27:19Z</time>
      </trkpt>
      <trkpt lat="44.50706" lon="1.62623">
        <ele>319</ele>
        <time>2017-09-22T08:27:22Z</time>
      </trkpt>
      <trkpt lat="44.50699" lon="1.62597">
        <ele>319</ele>
        <time>2017-09-22T08:27:38Z</time>
      </trkpt>
      <trkpt lat="44.50695" lon="1.62588">
        <ele>318</ele>
        <time>2017-09-22T08:27:44Z</time>
      </trkpt>
      <trkpt lat="44.50694" lon="1.62583">
        <ele>318</ele>
        <time>2017-09-22T08:27:47Z</time>
      </trkpt>
      <trkpt lat="44.50679" lon="1.62542">
        <ele>320</ele>
        <time>2017-09-22T08:28:13Z</time>
      </trkpt>
      <trkpt lat="44.50669" lon="1.62503">
        <ele>319</ele>
        <time>2017-09-22T08:28:39Z</time>
      </trkpt>
      <trkpt lat="44.50667" lon="1.62494">
        <ele>321</ele>
        <time>2017-09-22T08:28:45Z</time>
      </trkpt>
      <trkpt lat="44.50666" lon="1.62488">
        <ele>320</ele>
        <time>2017-09-22T08:28:48Z</time>
      </trkpt>
      <trkpt lat="44.50667" lon="1.62484">
        <ele>322</ele>
        <time>2017-09-22T08:28:52Z</time>
      </trkpt>
      <trkpt lat="44.50665" lon="1.62474">
        <ele>321</ele>
        <time>2017-09-22T08:29:00Z</time>
      </trkpt>
      <trkpt lat="44.50658" lon="1.62456">
        <ele>322</ele>
        <time>2017-09-22T08:29:13Z</time>
      </trkpt>
      <trkpt lat="44.50648" lon="1.6244">
        <ele>322</ele>
        <time>2017-09-22T08:29:23Z</time>
      </trkpt>
      <trkpt lat="44.50631" lon="1.62426">
        <ele>323</ele>
        <time>2017-09-22T08:29:41Z</time>
      </trkpt>
      <trkpt lat="44.50622" lon="1.62414">
        <ele>328</ele>
        <time>2017-09-22T08:29:52Z</time>
      </trkpt>
      <trkpt lat="44.50612" lon="1.62403">
        <ele>328</ele>
        <time>2017-09-22T08:30:02Z</time>
      </trkpt>
      <trkpt lat="44.50593" lon="1.62365">
        <ele>330</ele>
        <time>2017-09-22T08:30:33Z</time>
      </trkpt>
      <trkpt lat="44.50588" lon="1.62356">
        <ele>331</ele>
        <time>2017-09-22T08:30:40Z</time>
      </trkpt>
      <trkpt lat="44.50586" lon="1.62352">
        <ele>331</ele>
        <time>2017-09-22T08:30:43Z</time>
      </trkpt>
      <trkpt lat="44.50577" lon="1.62333">
        <ele>333</ele>
        <time>2017-09-22T08:30:57Z</time>
      </trkpt>
      <trkpt lat="44.50574" lon="1.62328">
        <ele>333</ele>
        <time>2017-09-22T08:31:01Z</time>
      </trkpt>
      <trkpt lat="44.50575" lon="1.62323">
        <ele>333</ele>
        <time>2017-09-22T08:31:05Z</time>
      </trkpt>
      <trkpt lat="44.5058" lon="1.62314">
        <ele>333</ele>
        <time>2017-09-22T08:31:12Z</time>
      </trkpt>
      <trkpt lat="44.50601" lon="1.6229">
        <ele>335</ele>
        <time>2017-09-22T08:31:37Z</time>
      </trkpt>
      <trkpt lat="44.50608" lon="1.6228">
        <ele>336</ele>
        <time>2017-09-22T08:31:46Z</time>
      </trkpt>
      <trkpt lat="44.50612" lon="1.62268">
        <ele>336</ele>
        <time>2017-09-22T08:31:54Z</time>
      </trkpt>
      <trkpt lat="44.50616" lon="1.6224">
        <ele>338</ele>
        <time>2017-09-22T08:32:14Z</time>
      </trkpt>
      <trkpt lat="44.50617" lon="1.6223">
        <ele>338</ele>
        <time>2017-09-22T08:32:20Z</time>
      </trkpt>
      <trkpt lat="44.50616" lon="1.62225">
        <ele>338</ele>
        <time>2017-09-22T08:32:23Z</time>
      </trkpt>
      <trkpt lat="44.50617" lon="1.62206">
        <ele>338</ele>
        <time>2017-09-22T08:32:36Z</time>
      </trkpt>
      <trkpt lat="44.50618" lon="1.62197">
        <ele>338</ele>
        <time>2017-09-22T08:32:42Z</time>
      </trkpt>
      <trkpt lat="44.50619" lon="1.62185">
        <ele>338</ele>
        <time>2017-09-22T08:32:50Z</time>
      </trkpt>
      <trkpt lat="44.50619" lon="1.6218">
        <ele>338</ele>
        <time>2017-09-22T08:32:53Z</time>
      </trkpt>
      <trkpt lat="44.5062" lon="1.62154">
        <ele>338</ele>
        <time>2017-09-22T08:33:10Z</time>
      </trkpt>
      <trkpt lat="44.5062" lon="1.6215">
        <ele>338</ele>
        <time>2017-09-22T08:33:13Z</time>
      </trkpt>
      <trkpt lat="44.50627" lon="1.62111">
        <ele>338</ele>
        <time>2017-09-22T08:33:39Z</time>
      </trkpt>
      <trkpt lat="44.50628" lon="1.62096">
        <ele>338</ele>
        <time>2017-09-22T08:33:48Z</time>
      </trkpt>
      <trkpt lat="44.50628" lon="1.62091">
        <ele>338</ele>
        <time>2017-09-22T08:33:51Z</time>
      </trkpt>
      <trkpt lat="44.50629" lon="1.62082">
        <ele>338</ele>
        <time>2017-09-22T08:33:57Z</time>
      </trkpt>
      <trkpt lat="44.5063" lon="1.62076">
        <ele>338</ele>
        <time>2017-09-22T08:34:01Z</time>
      </trkpt>
      <trkpt lat="44.50632" lon="1.62066">
        <ele>338</ele>
        <time>2017-09-22T08:34:08Z</time>
      </trkpt>
      <trkpt lat="44.50635" lon="1.62048">
        <ele>338</ele>
        <time>2017-09-22T08:34:18Z</time>
      </trkpt>
      <trkpt lat="44.50639" lon="1.62012">
        <ele>339</ele>
        <time>2017-09-22T08:34:44Z</time>
      </trkpt>
      <trkpt lat="44.5064" lon="1.62007">
        <ele>339</ele>
        <time>2017-09-22T08:34:48Z</time>
      </trkpt>
      <trkpt lat="44.50643" lon="1.61957">
        <ele>338</ele>
        <time>2017-09-22T08:35:18Z</time>
      </trkpt>
      <trkpt lat="44.50643" lon="1.6195">
        <ele>338</ele>
        <time>2017-09-22T08:35:22Z</time>
      </trkpt>
      <trkpt lat="44.50645" lon="1.61944">
        <ele>338</ele>
        <time>2017-09-22T08:35:26Z</time>
      </trkpt>
      <trkpt lat="44.50647" lon="1.61934">
        <ele>338</ele>
        <time>2017-09-22T08:35:32Z</time>
      </trkpt>
      <trkpt lat="44.50649" lon="1.61928">
        <ele>339</ele>
        <time>2017-09-22T08:35:35Z</time>
      </trkpt>
      <trkpt lat="44.50656" lon="1.61907">
        <ele>338</ele>
        <time>2017-09-22T08:35:48Z</time>
      </trkpt>
      <trkpt lat="44.50657" lon="1.61901">
        <ele>338</ele>
        <time>2017-09-22T08:35:52Z</time>
      </trkpt>
      <trkpt lat="44.50658" lon="1.61895">
        <ele>338</ele>
        <time>2017-09-22T08:35:56Z</time>
      </trkpt>
      <trkpt lat="44.50659" lon="1.61891">
        <ele>338</ele>
        <time>2017-09-22T08:35:59Z</time>
      </trkpt>
      <trkpt lat="44.50661" lon="1.61884">
        <ele>338</ele>
        <time>2017-09-22T08:36:03Z</time>
      </trkpt>
      <trkpt lat="44.50668" lon="1.61833">
        <ele>338</ele>
        <time>2017-09-22T08:36:36Z</time>
      </trkpt>
      <trkpt lat="44.50669" lon="1.61827">
        <ele>337</ele>
        <time>2017-09-22T08:36:40Z</time>
      </trkpt>
      <trkpt lat="44.5067" lon="1.61822">
        <ele>337</ele>
        <time>2017-09-22T08:36:43Z</time>
      </trkpt>
      <trkpt lat="44.50669" lon="1.61807">
        <ele>337</ele>
        <time>2017-09-22T08:36:52Z</time>
      </trkpt>
      <trkpt lat="44.5067" lon="1.61802">
        <ele>337</ele>
        <time>2017-09-22T08:36:55Z</time>
      </trkpt>
      <trkpt lat="44.50671" lon="1.61796">
        <ele>336</ele>
        <time>2017-09-22T08:36:59Z</time>
      </trkpt>
      <trkpt lat="44.50672" lon="1.61783">
        <ele>336</ele>
        <time>2017-09-22T08:37:06Z</time>
      </trkpt>
      <trkpt lat="44.50671" lon="1.61757">
        <ele>337</ele>
        <time>2017-09-22T08:37:21Z</time>
      </trkpt>
      <trkpt lat="44.50671" lon="1.6175">
        <ele>337</ele>
        <time>2017-09-22T08:37:26Z</time>
      </trkpt>
      <trkpt lat="44.50671" lon="1.61738">
        <ele>336</ele>
        <time>2017-09-22T08:37:33Z</time>
      </trkpt>
      <trkpt lat="44.50668" lon="1.61729">
        <ele>335</ele>
        <time>2017-09-22T08:37:39Z</time>
      </trkpt>
      <trkpt lat="44.50667" lon="1.61711">
        <ele>334</ele>
        <time>2017-09-22T08:37:50Z</time>
      </trkpt>
      <trkpt lat="44.50667" lon="1.61705">
        <ele>334</ele>
        <time>2017-09-22T08:37:54Z</time>
      </trkpt>
      <trkpt lat="44.50667" lon="1.61698">
        <ele>334</ele>
        <time>2017-09-22T08:37:58Z</time>
      </trkpt>
      <trkpt lat="44.50667" lon="1.61691">
        <ele>334</ele>
        <time>2017-09-22T08:38:03Z</time>
      </trkpt>
      <trkpt lat="44.50666" lon="1.61684">
        <ele>334</ele>
        <time>2017-09-22T08:38:07Z</time>
      </trkpt>
      <trkpt lat="44.50664" lon="1.61678">
        <ele>334</ele>
        <time>2017-09-22T08:38:10Z</time>
      </trkpt>
      <trkpt lat="44.50665" lon="1.61671">
        <ele>334</ele>
        <time>2017-09-22T08:38:15Z</time>
      </trkpt>
      <trkpt lat="44.50664" lon="1.61665">
        <ele>334</ele>
        <time>2017-09-22T08:38:18Z</time>
      </trkpt>
      <trkpt lat="44.50665" lon="1.61658">
        <ele>333</ele>
        <time>2017-09-22T08:38:23Z</time>
      </trkpt>
      <trkpt lat="44.50664" lon="1.61652">
        <ele>333</ele>
        <time>2017-09-22T08:38:26Z</time>
      </trkpt>
      <trkpt lat="44.50663" lon="1.61632">
        <ele>332</ele>
        <time>2017-09-22T08:38:38Z</time>
      </trkpt>
      <trkpt lat="44.50661" lon="1.61626">
        <ele>332</ele>
        <time>2017-09-22T08:38:42Z</time>
      </trkpt>
      <trkpt lat="44.5066" lon="1.61599">
        <ele>331</ele>
        <time>2017-09-22T08:38:59Z</time>
      </trkpt>
      <trkpt lat="44.50662" lon="1.61575">
        <ele>330</ele>
        <time>2017-09-22T08:39:13Z</time>
      </trkpt>
      <trkpt lat="44.50661" lon="1.61569">
        <ele>330</ele>
        <time>2017-09-22T08:39:16Z</time>
      </trkpt>
      <trkpt lat="44.50662" lon="1.61563">
        <ele>330</ele>
        <time>2017-09-22T08:39:20Z</time>
      </trkpt>
      <trkpt lat="44.50663" lon="1.61558">
        <ele>330</ele>
        <time>2017-09-22T08:39:23Z</time>
      </trkpt>
      <trkpt lat="44.50663" lon="1.61552">
        <ele>330</ele>
        <time>2017-09-22T08:39:26Z</time>
      </trkpt>
      <trkpt lat="44.50662" lon="1.61546">
        <ele>330</ele>
        <time>2017-09-22T08:39:30Z</time>
      </trkpt>
      <trkpt lat="44.50662" lon="1.61541">
        <ele>330</ele>
        <time>2017-09-22T08:39:35Z</time>
      </trkpt>
      <trkpt lat="44.50663" lon="1.61535">
        <ele>330</ele>
        <time>2017-09-22T08:39:39Z</time>
      </trkpt>
      <trkpt lat="44.50665" lon="1.61519">
        <ele>330</ele>
        <time>2017-09-22T08:39:49Z</time>
      </trkpt>
      <trkpt lat="44.50666" lon="1.61511">
        <ele>330</ele>
        <time>2017-09-22T08:39:54Z</time>
      </trkpt>
      <trkpt lat="44.50668" lon="1.61505">
        <ele>331</ele>
        <time>2017-09-22T08:39:58Z</time>
      </trkpt>
      <trkpt lat="44.5067" lon="1.61499">
        <ele>331</ele>
        <time>2017-09-22T08:40:03Z</time>
      </trkpt>
      <trkpt lat="44.50674" lon="1.61487">
        <ele>331</ele>
        <time>2017-09-22T08:40:10Z</time>
      </trkpt>
      <trkpt lat="44.50678" lon="1.61473">
        <ele>331</ele>
        <time>2017-09-22T08:40:18Z</time>
      </trkpt>
      <trkpt lat="44.5068" lon="1.61466">
        <ele>331</ele>
        <time>2017-09-22T08:40:22Z</time>
      </trkpt>
      <trkpt lat="44.5068" lon="1.61452">
        <ele>332</ele>
        <time>2017-09-22T08:40:31Z</time>
      </trkpt>
      <trkpt lat="44.50682" lon="1.61447">
        <ele>332</ele>
        <time>2017-09-22T08:40:34Z</time>
      </trkpt>
      <trkpt lat="44.50684" lon="1.6144">
        <ele>332</ele>
        <time>2017-09-22T08:40:38Z</time>
      </trkpt>
      <trkpt lat="44.50685" lon="1.61433">
        <ele>332</ele>
        <time>2017-09-22T08:40:42Z</time>
      </trkpt>
      <trkpt lat="44.50684" lon="1.61421">
        <ele>332</ele>
        <time>2017-09-22T08:40:49Z</time>
      </trkpt>
      <trkpt lat="44.50681" lon="1.61409">
        <ele>333</ele>
        <time>2017-09-22T08:40:55Z</time>
      </trkpt>
      <trkpt lat="44.5068" lon="1.61404">
        <ele>333</ele>
        <time>2017-09-22T08:40:58Z</time>
      </trkpt>
      <trkpt lat="44.5068" lon="1.61398">
        <ele>332</ele>
        <time>2017-09-22T08:41:02Z</time>
      </trkpt>
      <trkpt lat="44.50679" lon="1.61393">
        <ele>332</ele>
        <time>2017-09-22T08:41:05Z</time>
      </trkpt>
      <trkpt lat="44.50667" lon="1.61347">
        <ele>332</ele>
        <time>2017-09-22T08:41:35Z</time>
      </trkpt>
      <trkpt lat="44.50656" lon="1.61323">
        <ele>332</ele>
        <time>2017-09-22T08:41:50Z</time>
      </trkpt>
      <trkpt lat="44.50655" lon="1.61318">
        <ele>332</ele>
        <time>2017-09-22T08:41:54Z</time>
      </trkpt>
      <trkpt lat="44.5065" lon="1.61301">
        <ele>331</ele>
        <time>2017-09-22T08:42:05Z</time>
      </trkpt>
      <trkpt lat="44.50645" lon="1.61279">
        <ele>331</ele>
        <time>2017-09-22T08:42:19Z</time>
      </trkpt>
      <trkpt lat="44.50643" lon="1.61275">
        <ele>331</ele>
        <time>2017-09-22T08:42:22Z</time>
      </trkpt>
      <trkpt lat="44.50639" lon="1.61254">
        <ele>331</ele>
        <time>2017-09-22T08:42:35Z</time>
      </trkpt>
      <trkpt lat="44.50639" lon="1.61249">
        <ele>331</ele>
        <time>2017-09-22T08:42:38Z</time>
      </trkpt>
      <trkpt lat="44.5064" lon="1.61239">
        <ele>331</ele>
        <time>2017-09-22T08:42:44Z</time>
      </trkpt>
      <trkpt lat="44.50642" lon="1.61234">
        <ele>331</ele>
        <time>2017-09-22T08:42:48Z</time>
      </trkpt>
      <trkpt lat="44.50646" lon="1.61224">
        <ele>331</ele>
        <time>2017-09-22T08:42:55Z</time>
      </trkpt>
      <trkpt lat="44.50651" lon="1.61214">
        <ele>331</ele>
        <time>2017-09-22T08:43:02Z</time>
      </trkpt>
      <trkpt lat="44.50658" lon="1.61192">
        <ele>330</ele>
        <time>2017-09-22T08:43:16Z</time>
      </trkpt>
      <trkpt lat="44.50658" lon="1.61168">
        <ele>330</ele>
        <time>2017-09-22T08:43:29Z</time>
      </trkpt>
      <trkpt lat="44.50658" lon="1.61161">
        <ele>329</ele>
        <time>2017-09-22T08:43:33Z</time>
      </trkpt>
      <trkpt lat="44.50658" lon="1.61156">
        <ele>329</ele>
        <time>2017-09-22T08:43:37Z</time>
      </trkpt>
      <trkpt lat="44.50657" lon="1.6115">
        <ele>329</ele>
        <time>2017-09-22T08:43:41Z</time>
      </trkpt>
      <trkpt lat="44.50655" lon="1.61144">
        <ele>329</ele>
        <time>2017-09-22T08:43:45Z</time>
      </trkpt>
      <trkpt lat="44.50652" lon="1.61132">
        <ele>328</ele>
        <time>2017-09-22T08:43:53Z</time>
      </trkpt>
      <trkpt lat="44.50649" lon="1.61114">
        <ele>328</ele>
        <time>2017-09-22T08:44:05Z</time>
      </trkpt>
      <trkpt lat="44.50648" lon="1.61104">
        <ele>328</ele>
        <time>2017-09-22T08:44:11Z</time>
      </trkpt>
      <trkpt lat="44.50646" lon="1.61068">
        <ele>326</ele>
        <time>2017-09-22T08:44:33Z</time>
      </trkpt>
      <trkpt lat="44.50646" lon="1.61063">
        <ele>326</ele>
        <time>2017-09-22T08:44:36Z</time>
      </trkpt>
      <trkpt lat="44.50646" lon="1.61059">
        <ele>326</ele>
        <time>2017-09-22T08:44:39Z</time>
      </trkpt>
      <trkpt lat="44.50645" lon="1.61048">
        <ele>326</ele>
        <time>2017-09-22T08:44:45Z</time>
      </trkpt>
      <trkpt lat="44.50645" lon="1.61043">
        <ele>326</ele>
        <time>2017-09-22T08:44:48Z</time>
      </trkpt>
      <trkpt lat="44.50645" lon="1.61037">
        <ele>326</ele>
        <time>2017-09-22T08:44:51Z</time>
      </trkpt>
      <trkpt lat="44.50645" lon="1.61022">
        <ele>327</ele>
        <time>2017-09-22T08:44:59Z</time>
      </trkpt>
      <trkpt lat="44.50644" lon="1.61012">
        <ele>327</ele>
        <time>2017-09-22T08:45:05Z</time>
      </trkpt>
      <trkpt lat="44.50644" lon="1.61005">
        <ele>327</ele>
        <time>2017-09-22T08:45:09Z</time>
      </trkpt>
      <trkpt lat="44.50647" lon="1.61">
        <ele>327</ele>
        <time>2017-09-22T08:45:13Z</time>
      </trkpt>
      <trkpt lat="44.5065" lon="1.60986">
        <ele>326</ele>
        <time>2017-09-22T08:45:22Z</time>
      </trkpt>
      <trkpt lat="44.50655" lon="1.60966">
        <ele>326</ele>
        <time>2017-09-22T08:45:34Z</time>
      </trkpt>
      <trkpt lat="44.50656" lon="1.60959">
        <ele>326</ele>
        <time>2017-09-22T08:45:38Z</time>
      </trkpt>
      <trkpt lat="44.50665" lon="1.60934">
        <ele>326</ele>
        <time>2017-09-22T08:45:55Z</time>
      </trkpt>
      <trkpt lat="44.5068" lon="1.60883">
        <ele>328</ele>
        <time>2017-09-22T08:46:29Z</time>
      </trkpt>
      <trkpt lat="44.5068" lon="1.60876">
        <ele>328</ele>
        <time>2017-09-22T08:46:33Z</time>
      </trkpt>
      <trkpt lat="44.50681" lon="1.60871">
        <ele>328</ele>
        <time>2017-09-22T08:46:36Z</time>
      </trkpt>
      <trkpt lat="44.50681" lon="1.60858">
        <ele>328</ele>
        <time>2017-09-22T08:46:44Z</time>
      </trkpt>
      <trkpt lat="44.50682" lon="1.60847">
        <ele>328</ele>
        <time>2017-09-22T08:46:51Z</time>
      </trkpt>
      <trkpt lat="44.50682" lon="1.60792">
        <ele>329</ele>
        <time>2017-09-22T08:47:23Z</time>
      </trkpt>
      <trkpt lat="44.50682" lon="1.60785">
        <ele>329</ele>
        <time>2017-09-22T08:47:28Z</time>
      </trkpt>
      <trkpt lat="44.50681" lon="1.60772">
        <ele>329</ele>
        <time>2017-09-22T08:47:37Z</time>
      </trkpt>
      <trkpt lat="44.50682" lon="1.60767">
        <ele>329</ele>
        <time>2017-09-22T08:47:40Z</time>
      </trkpt>
      <trkpt lat="44.50682" lon="1.6075">
        <ele>329</ele>
        <time>2017-09-22T08:47:50Z</time>
      </trkpt>
      <trkpt lat="44.50683" lon="1.60744">
        <ele>329</ele>
        <time>2017-09-22T08:47:54Z</time>
      </trkpt>
      <trkpt lat="44.50682" lon="1.60732">
        <ele>329</ele>
        <time>2017-09-22T08:48:01Z</time>
      </trkpt>
      <trkpt lat="44.50682" lon="1.60721">
        <ele>330</ele>
        <time>2017-09-22T08:48:07Z</time>
      </trkpt>
      <trkpt lat="44.50683" lon="1.6071">
        <ele>330</ele>
        <time>2017-09-22T08:48:13Z</time>
      </trkpt>
      <trkpt lat="44.50686" lon="1.60656">
        <ele>329</ele>
        <time>2017-09-22T08:48:45Z</time>
      </trkpt>
      <trkpt lat="44.50687" lon="1.60649">
        <ele>329</ele>
        <time>2017-09-22T08:48:49Z</time>
      </trkpt>
      <trkpt lat="44.50687" lon="1.60642">
        <ele>329</ele>
        <time>2017-09-22T08:48:53Z</time>
      </trkpt>
      <trkpt lat="44.50687" lon="1.60625">
        <ele>329</ele>
        <time>2017-09-22T08:49:03Z</time>
      </trkpt>
      <trkpt lat="44.50687" lon="1.60618">
        <ele>329</ele>
        <time>2017-09-22T08:49:07Z</time>
      </trkpt>
      <trkpt lat="44.50687" lon="1.60599">
        <ele>328</ele>
        <time>2017-09-22T08:49:18Z</time>
      </trkpt>
      <trkpt lat="44.50689" lon="1.60568">
        <ele>328</ele>
        <time>2017-09-22T08:49:36Z</time>
      </trkpt>
      <trkpt lat="44.50691" lon="1.6055">
        <ele>329</ele>
        <time>2017-09-22T08:49:50Z</time>
      </trkpt>
      <trkpt lat="44.5069" lon="1.60544">
        <ele>329</ele>
        <time>2017-09-22T08:49:53Z</time>
      </trkpt>
      <trkpt lat="44.50691" lon="1.60539">
        <ele>329</ele>
        <time>2017-09-22T08:49:58Z</time>
      </trkpt>
      <trkpt lat="44.5069" lon="1.60532">
        <ele>329</ele>
        <time>2017-09-22T08:50:02Z</time>
      </trkpt>
      <trkpt lat="44.50688" lon="1.60511">
        <ele>328</ele>
        <time>2017-09-22T08:50:14Z</time>
      </trkpt>
      <trkpt lat="44.50684" lon="1.60495">
        <ele>327</ele>
        <time>2017-09-22T08:50:25Z</time>
      </trkpt>
      <trkpt lat="44.50681" lon="1.60489">
        <ele>327</ele>
        <time>2017-09-22T08:50:29Z</time>
      </trkpt>
      <trkpt lat="44.5068" lon="1.60478">
        <ele>327</ele>
        <time>2017-09-22T08:50:35Z</time>
      </trkpt>
      <trkpt lat="44.50677" lon="1.60465">
        <ele>327</ele>
        <time>2017-09-22T08:50:43Z</time>
      </trkpt>
      <trkpt lat="44.50678" lon="1.60459">
        <ele>327</ele>
        <time>2017-09-22T08:50:47Z</time>
      </trkpt>
      <trkpt lat="44.50677" lon="1.60453">
        <ele>327</ele>
        <time>2017-09-22T08:50:50Z</time>
      </trkpt>
      <trkpt lat="44.50677" lon="1.60448">
        <ele>327</ele>
        <time>2017-09-22T08:50:53Z</time>
      </trkpt>
      <trkpt lat="44.50677" lon="1.60442">
        <ele>327</ele>
        <time>2017-09-22T08:50:56Z</time>
      </trkpt>
      <trkpt lat="44.50678" lon="1.60435">
        <ele>326</ele>
        <time>2017-09-22T08:51:00Z</time>
      </trkpt>
      <trkpt lat="44.50681" lon="1.60423">
        <ele>326</ele>
        <time>2017-09-22T08:51:08Z</time>
      </trkpt>
      <trkpt lat="44.50687" lon="1.60392">
        <ele>325</ele>
        <time>2017-09-22T08:51:26Z</time>
      </trkpt>
      <trkpt lat="44.50689" lon="1.6038">
        <ele>325</ele>
        <time>2017-09-22T08:51:33Z</time>
      </trkpt>
      <trkpt lat="44.5069" lon="1.60373">
        <ele>325</ele>
        <time>2017-09-22T08:51:37Z</time>
      </trkpt>
      <trkpt lat="44.50695" lon="1.60348">
        <ele>325</ele>
        <time>2017-09-22T08:51:52Z</time>
      </trkpt>
      <trkpt lat="44.50696" lon="1.60341">
        <ele>325</ele>
        <time>2017-09-22T08:51:56Z</time>
      </trkpt>
      <trkpt lat="44.50698" lon="1.60337">
        <ele>325</ele>
        <time>2017-09-22T08:51:59Z</time>
      </trkpt>
      <trkpt lat="44.50702" lon="1.60324">
        <ele>324</ele>
        <time>2017-09-22T08:52:07Z</time>
      </trkpt>
      <trkpt lat="44.50701" lon="1.60319">
        <ele>324</ele>
        <time>2017-09-22T08:52:11Z</time>
      </trkpt>
      <trkpt lat="44.50702" lon="1.60313">
        <ele>324</ele>
        <time>2017-09-22T08:52:15Z</time>
      </trkpt>
      <trkpt lat="44.50704" lon="1.60288">
        <ele>324</ele>
        <time>2017-09-22T08:52:29Z</time>
      </trkpt>
      <trkpt lat="44.50704" lon="1.60276">
        <ele>323</ele>
        <time>2017-09-22T08:52:38Z</time>
      </trkpt>
      <trkpt lat="44.50713" lon="1.60245">
        <ele>323</ele>
        <time>2017-09-22T08:52:57Z</time>
      </trkpt>
      <trkpt lat="44.50718" lon="1.60237">
        <ele>323</ele>
        <time>2017-09-22T08:53:04Z</time>
      </trkpt>
      <trkpt lat="44.50721" lon="1.60226">
        <ele>323</ele>
        <time>2017-09-22T08:53:11Z</time>
      </trkpt>
      <trkpt lat="44.50724" lon="1.60221">
        <ele>323</ele>
        <time>2017-09-22T08:53:15Z</time>
      </trkpt>
      <trkpt lat="44.50736" lon="1.60193">
        <ele>323</ele>
        <time>2017-09-22T08:53:32Z</time>
      </trkpt>
      <trkpt lat="44.50736" lon="1.60187">
        <ele>323</ele>
        <time>2017-09-22T08:53:36Z</time>
      </trkpt>
      <trkpt lat="44.50737" lon="1.60175">
        <ele>324</ele>
        <time>2017-09-22T08:53:42Z</time>
      </trkpt>
      <trkpt lat="44.50735" lon="1.6017">
        <ele>324</ele>
        <time>2017-09-22T08:53:45Z</time>
      </trkpt>
      <trkpt lat="44.50733" lon="1.60124">
        <ele>322</ele>
        <time>2017-09-22T08:54:10Z</time>
      </trkpt>
      <trkpt lat="44.50733" lon="1.60119">
        <ele>322</ele>
        <time>2017-09-22T08:54:13Z</time>
      </trkpt>
      <trkpt lat="44.50732" lon="1.60114">
        <ele>322</ele>
        <time>2017-09-22T08:54:16Z</time>
      </trkpt>
      <trkpt lat="44.50731" lon="1.60108">
        <ele>322</ele>
        <time>2017-09-22T08:54:19Z</time>
      </trkpt>
      <trkpt lat="44.50731" lon="1.60102">
        <ele>322</ele>
        <time>2017-09-22T08:54:22Z</time>
      </trkpt>
      <trkpt lat="44.50729" lon="1.60091">
        <ele>322</ele>
        <time>2017-09-22T08:54:28Z</time>
      </trkpt>
      <trkpt lat="44.50726" lon="1.60073">
        <ele>323</ele>
        <time>2017-09-22T08:54:38Z</time>
      </trkpt>
      <trkpt lat="44.50723" lon="1.60023">
        <ele>323</ele>
        <time>2017-09-22T08:55:07Z</time>
      </trkpt>
      <trkpt lat="44.50724" lon="1.60018">
        <ele>324</ele>
        <time>2017-09-22T08:55:10Z</time>
      </trkpt>
      <trkpt lat="44.50724" lon="1.60013">
        <ele>324</ele>
        <time>2017-09-22T08:55:13Z</time>
      </trkpt>
      <trkpt lat="44.50723" lon="1.60006">
        <ele>324</ele>
        <time>2017-09-22T08:55:17Z</time>
      </trkpt>
      <trkpt lat="44.50723" lon="1.6">
        <ele>324</ele>
        <time>2017-09-22T08:55:20Z</time>
      </trkpt>
      <trkpt lat="44.50724" lon="1.59996">
        <ele>326</ele>
        <time>2017-09-22T08:55:23Z</time>
      </trkpt>
      <trkpt lat="44.50724" lon="1.59972">
        <ele>326</ele>
        <time>2017-09-22T08:55:36Z</time>
      </trkpt>
      <trkpt lat="44.50726" lon="1.59966">
        <ele>327</ele>
        <time>2017-09-22T08:55:40Z</time>
      </trkpt>
      <trkpt lat="44.50721" lon="1.59959">
        <ele>327</ele>
        <time>2017-09-22T08:55:50Z</time>
      </trkpt>
      <trkpt lat="44.5072" lon="1.59955">
        <ele>327</ele>
        <time>2017-09-22T08:55:53Z</time>
      </trkpt>
      <trkpt lat="44.5072" lon="1.59946">
        <ele>327</ele>
        <time>2017-09-22T08:56:01Z</time>
      </trkpt>
      <trkpt lat="44.50721" lon="1.59942">
        <ele>327</ele>
        <time>2017-09-22T08:56:04Z</time>
      </trkpt>
      <trkpt lat="44.50722" lon="1.59938">
        <ele>327</ele>
        <time>2017-09-22T08:56:07Z</time>
      </trkpt>
      <trkpt lat="44.50723" lon="1.59933">
        <ele>328</ele>
        <time>2017-09-22T08:56:11Z</time>
      </trkpt>
      <trkpt lat="44.50723" lon="1.59921">
        <ele>328</ele>
        <time>2017-09-22T08:56:18Z</time>
      </trkpt>
      <trkpt lat="44.50724" lon="1.59914">
        <ele>329</ele>
        <time>2017-09-22T08:56:22Z</time>
      </trkpt>
      <trkpt lat="44.50726" lon="1.59897">
        <ele>329</ele>
        <time>2017-09-22T08:56:32Z</time>
      </trkpt>
      <trkpt lat="44.50726" lon="1.59892">
        <ele>328</ele>
        <time>2017-09-22T08:56:35Z</time>
      </trkpt>
      <trkpt lat="44.50728" lon="1.59871">
        <ele>328</ele>
        <time>2017-09-22T08:56:46Z</time>
      </trkpt>
      <trkpt lat="44.50728" lon="1.59864">
        <ele>328</ele>
        <time>2017-09-22T08:56:50Z</time>
      </trkpt>
      <trkpt lat="44.50728" lon="1.59851">
        <ele>328</ele>
        <time>2017-09-22T08:56:57Z</time>
      </trkpt>
      <trkpt lat="44.50728" lon="1.59846">
        <ele>328</ele>
        <time>2017-09-22T08:57:00Z</time>
      </trkpt>
      <trkpt lat="44.50731" lon="1.59802">
        <ele>325</ele>
        <time>2017-09-22T08:57:25Z</time>
      </trkpt>
      <trkpt lat="44.50734" lon="1.59775">
        <ele>324</ele>
        <time>2017-09-22T08:57:40Z</time>
      </trkpt>
      <trkpt lat="44.50736" lon="1.59768">
        <ele>324</ele>
        <time>2017-09-22T08:57:44Z</time>
      </trkpt>
      <trkpt lat="44.50735" lon="1.59763">
        <ele>324</ele>
        <time>2017-09-22T08:57:47Z</time>
      </trkpt>
      <trkpt lat="44.50738" lon="1.59744">
        <ele>322</ele>
        <time>2017-09-22T08:57:58Z</time>
      </trkpt>
      <trkpt lat="44.50742" lon="1.59722">
        <ele>321</ele>
        <time>2017-09-22T08:58:12Z</time>
      </trkpt>
      <trkpt lat="44.50747" lon="1.59675">
        <ele>321</ele>
        <time>2017-09-22T08:58:40Z</time>
      </trkpt>
      <trkpt lat="44.50753" lon="1.59646">
        <ele>320</ele>
        <time>2017-09-22T08:58:58Z</time>
      </trkpt>
      <trkpt lat="44.50758" lon="1.59615">
        <ele>319</ele>
        <time>2017-09-22T08:59:17Z</time>
      </trkpt>
      <trkpt lat="44.5076" lon="1.59611">
        <ele>318</ele>
        <time>2017-09-22T08:59:20Z</time>
      </trkpt>
      <trkpt lat="44.50763" lon="1.59595">
        <ele>318</ele>
        <time>2017-09-22T08:59:29Z</time>
      </trkpt>
      <trkpt lat="44.5077" lon="1.59582">
        <ele>315</ele>
        <time>2017-09-22T08:59:39Z</time>
      </trkpt>
      <trkpt lat="44.50778" lon="1.59575">
        <ele>314</ele>
        <time>2017-09-22T08:59:52Z</time>
      </trkpt>
      <trkpt lat="44.50781" lon="1.5957">
        <ele>314</ele>
        <time>2017-09-22T08:59:56Z</time>
      </trkpt>
      <trkpt lat="44.50784" lon="1.59565">
        <ele>314</ele>
        <time>2017-09-22T09:00:00Z</time>
      </trkpt>
      <trkpt lat="44.50789" lon="1.59557">
        <ele>314</ele>
        <time>2017-09-22T09:00:30Z</time>
      </trkpt>
      <trkpt lat="44.50794" lon="1.5955">
        <ele>313</ele>
        <time>2017-09-22T09:00:37Z</time>
      </trkpt>
      <trkpt lat="44.50794" lon="1.59545">
        <ele>313</ele>
        <time>2017-09-22T09:00:43Z</time>
      </trkpt>
      <trkpt lat="44.50818" lon="1.59522">
        <ele>312</ele>
        <time>2017-09-22T09:01:07Z</time>
      </trkpt>
      <trkpt lat="44.5082" lon="1.59518">
        <ele>312</ele>
        <time>2017-09-22T09:01:10Z</time>
      </trkpt>
      <trkpt lat="44.50845" lon="1.59484">
        <ele>308</ele>
        <time>2017-09-22T09:01:38Z</time>
      </trkpt>
      <trkpt lat="44.50863" lon="1.59447">
        <ele>306</ele>
        <time>2017-09-22T09:02:05Z</time>
      </trkpt>
      <trkpt lat="44.50869" lon="1.59423">
        <ele>306</ele>
        <time>2017-09-22T09:02:19Z</time>
      </trkpt>
      <trkpt lat="44.50872" lon="1.59414">
        <ele>304</ele>
        <time>2017-09-22T09:02:25Z</time>
      </trkpt>
      <trkpt lat="44.50876" lon="1.59394">
        <ele>305</ele>
        <time>2017-09-22T09:02:37Z</time>
      </trkpt>
      <trkpt lat="44.50879" lon="1.59374">
        <ele>305</ele>
        <time>2017-09-22T09:02:48Z</time>
      </trkpt>
      <trkpt lat="44.50881" lon="1.59367">
        <ele>305</ele>
        <time>2017-09-22T09:02:53Z</time>
      </trkpt>
      <trkpt lat="44.50888" lon="1.5932">
        <ele>307</ele>
        <time>2017-09-22T09:03:21Z</time>
      </trkpt>
      <trkpt lat="44.50888" lon="1.59315">
        <ele>307</ele>
        <time>2017-09-22T09:03:24Z</time>
      </trkpt>
      <trkpt lat="44.50889" lon="1.5931">
        <ele>307</ele>
        <time>2017-09-22T09:03:27Z</time>
      </trkpt>
      <trkpt lat="44.50887" lon="1.593">
        <ele>307</ele>
        <time>2017-09-22T09:03:33Z</time>
      </trkpt>
      <trkpt lat="44.50887" lon="1.59295">
        <ele>307</ele>
        <time>2017-09-22T09:03:36Z</time>
      </trkpt>
      <trkpt lat="44.50885" lon="1.5927">
        <ele>308</ele>
        <time>2017-09-22T09:03:50Z</time>
      </trkpt>
      <trkpt lat="44.50875" lon="1.59217">
        <ele>311</ele>
        <time>2017-09-22T09:04:21Z</time>
      </trkpt>
      <trkpt lat="44.50859" lon="1.59167">
        <ele>313</ele>
        <time>2017-09-22T09:04:53Z</time>
      </trkpt>
      <trkpt lat="44.50845" lon="1.59115">
        <ele>313</ele>
        <time>2017-09-22T09:05:24Z</time>
      </trkpt>
      <trkpt lat="44.50835" lon="1.59063">
        <ele>313</ele>
        <time>2017-09-22T09:05:56Z</time>
      </trkpt>
      <trkpt lat="44.50833" lon="1.59038">
        <ele>309</ele>
        <time>2017-09-22T09:06:11Z</time>
      </trkpt>
      <trkpt lat="44.50826" lon="1.59007">
        <ele>310</ele>
        <time>2017-09-22T09:06:33Z</time>
      </trkpt>
      <trkpt lat="44.50825" lon="1.58986">
        <ele>309</ele>
        <time>2017-09-22T09:06:47Z</time>
      </trkpt>
      <trkpt lat="44.50825" lon="1.58983">
        <ele>309</ele>
        <time>2017-09-22T09:06:49Z</time>
      </trkpt>
      <trkpt lat="44.50824" lon="1.58952">
        <ele>307</ele>
        <time>2017-09-22T09:07:09Z</time>
      </trkpt>
      <trkpt lat="44.50826" lon="1.58931">
        <ele>307</ele>
        <time>2017-09-22T09:07:22Z</time>
      </trkpt>
      <trkpt lat="44.50826" lon="1.58929">
        <ele>307</ele>
        <time>2017-09-22T09:07:24Z</time>
      </trkpt>
      <trkpt lat="44.50827" lon="1.58926">
        <ele>307</ele>
        <time>2017-09-22T09:07:27Z</time>
      </trkpt>
      <trkpt lat="44.50831" lon="1.58912">
        <ele>306</ele>
        <time>2017-09-22T09:07:37Z</time>
      </trkpt>
      <trkpt lat="44.50833" lon="1.58907">
        <ele>306</ele>
        <time>2017-09-22T09:07:41Z</time>
      </trkpt>
      <trkpt lat="44.50842" lon="1.58864">
        <ele>303</ele>
        <time>2017-09-22T09:08:09Z</time>
      </trkpt>
      <trkpt lat="44.50858" lon="1.58832">
        <ele>299</ele>
        <time>2017-09-22T09:08:34Z</time>
      </trkpt>
      <trkpt lat="44.5086" lon="1.58827">
        <ele>299</ele>
        <time>2017-09-22T09:08:42Z</time>
      </trkpt>
      <trkpt lat="44.50863" lon="1.58823">
        <ele>298</ele>
        <time>2017-09-22T09:08:47Z</time>
      </trkpt>
      <trkpt lat="44.50866" lon="1.58819">
        <ele>298</ele>
        <time>2017-09-22T09:08:52Z</time>
      </trkpt>
      <trkpt lat="44.50869" lon="1.58817">
        <ele>298</ele>
        <time>2017-09-22T09:08:56Z</time>
      </trkpt>
      <trkpt lat="44.50877" lon="1.58804">
        <ele>297</ele>
        <time>2017-09-22T09:09:06Z</time>
      </trkpt>
      <trkpt lat="44.50882" lon="1.58798">
        <ele>297</ele>
        <time>2017-09-22T09:09:13Z</time>
      </trkpt>
      <trkpt lat="44.50885" lon="1.58795">
        <ele>297</ele>
        <time>2017-09-22T09:09:17Z</time>
      </trkpt>
      <trkpt lat="44.50889" lon="1.58793">
        <ele>297</ele>
        <time>2017-09-22T09:09:22Z</time>
      </trkpt>
      <trkpt lat="44.50895" lon="1.58787">
        <ele>297</ele>
        <time>2017-09-22T09:09:29Z</time>
      </trkpt>
      <trkpt lat="44.50898" lon="1.58784">
        <ele>297</ele>
        <time>2017-09-22T09:09:33Z</time>
      </trkpt>
      <trkpt lat="44.509" lon="1.58784">
        <ele>297</ele>
        <time>2017-09-22T09:09:39Z</time>
      </trkpt>
      <trkpt lat="44.50902" lon="1.5878">
        <ele>297</ele>
        <time>2017-09-22T09:09:45Z</time>
      </trkpt>
      <trkpt lat="44.50907" lon="1.58775">
        <ele>297</ele>
        <time>2017-09-22T09:09:52Z</time>
      </trkpt>
      <trkpt lat="44.50909" lon="1.58772">
        <ele>297</ele>
        <time>2017-09-22T09:09:55Z</time>
      </trkpt>
      <trkpt lat="44.50915" lon="1.58764">
        <ele>296</ele>
        <time>2017-09-22T09:10:02Z</time>
      </trkpt>
      <trkpt lat="44.50917" lon="1.58759">
        <ele>297</ele>
        <time>2017-09-22T09:10:05Z</time>
      </trkpt>
      <trkpt lat="44.5092" lon="1.58756">
        <ele>297</ele>
        <time>2017-09-22T09:10:08Z</time>
      </trkpt>
      <trkpt lat="44.50926" lon="1.58749">
        <ele>297</ele>
        <time>2017-09-22T09:10:15Z</time>
      </trkpt>
      <trkpt lat="44.50929" lon="1.58745">
        <ele>298</ele>
        <time>2017-09-22T09:10:18Z</time>
      </trkpt>
      <trkpt lat="44.50932" lon="1.58742">
        <ele>298</ele>
        <time>2017-09-22T09:10:21Z</time>
      </trkpt>
      <trkpt lat="44.50936" lon="1.58737">
        <ele>299</ele>
        <time>2017-09-22T09:10:25Z</time>
      </trkpt>
      <trkpt lat="44.50939" lon="1.58732">
        <ele>299</ele>
        <time>2017-09-22T09:10:29Z</time>
      </trkpt>
      <trkpt lat="44.5094" lon="1.58725">
        <ele>299</ele>
        <time>2017-09-22T09:10:32Z</time>
      </trkpt>
      <trkpt lat="44.50941" lon="1.58714">
        <ele>299</ele>
        <time>2017-09-22T09:10:39Z</time>
      </trkpt>
      <trkpt lat="44.50939" lon="1.58707">
        <ele>299</ele>
        <time>2017-09-22T09:10:45Z</time>
      </trkpt>
      <trkpt lat="44.50935" lon="1.58697">
        <ele>299</ele>
        <time>2017-09-22T09:10:51Z</time>
      </trkpt>
      <trkpt lat="44.50925" lon="1.58684">
        <ele>298</ele>
        <time>2017-09-22T09:11:02Z</time>
      </trkpt>
      <trkpt lat="44.50922" lon="1.5868">
        <ele>298</ele>
        <time>2017-09-22T09:11:05Z</time>
      </trkpt>
      <trkpt lat="44.50916" lon="1.58666">
        <ele>296</ele>
        <time>2017-09-22T09:11:15Z</time>
      </trkpt>
      <trkpt lat="44.50905" lon="1.58648">
        <ele>293</ele>
        <time>2017-09-22T09:11:28Z</time>
      </trkpt>
      <trkpt lat="44.509" lon="1.58643">
        <ele>292</ele>
        <time>2017-09-22T09:11:33Z</time>
      </trkpt>
      <trkpt lat="44.50898" lon="1.5864">
        <ele>292</ele>
        <time>2017-09-22T09:11:36Z</time>
      </trkpt>
      <trkpt lat="44.5089" lon="1.58631">
        <ele>291</ele>
        <time>2017-09-22T09:11:46Z</time>
      </trkpt>
      <trkpt lat="44.50885" lon="1.58625">
        <ele>291</ele>
        <time>2017-09-22T09:11:52Z</time>
      </trkpt>
      <trkpt lat="44.50883" lon="1.58621">
        <ele>291</ele>
        <time>2017-09-22T09:11:55Z</time>
      </trkpt>
      <trkpt lat="44.50878" lon="1.5861">
        <ele>291</ele>
        <time>2017-09-22T09:12:03Z</time>
      </trkpt>
      <trkpt lat="44.50876" lon="1.58607">
        <ele>291</ele>
        <time>2017-09-22T09:12:05Z</time>
      </trkpt>
      <trkpt lat="44.50873" lon="1.58604">
        <ele>291</ele>
        <time>2017-09-22T09:12:07Z</time>
      </trkpt>
      <trkpt lat="44.50872" lon="1.586">
        <ele>291</ele>
        <time>2017-09-22T09:12:10Z</time>
      </trkpt>
      <trkpt lat="44.5087" lon="1.58596">
        <ele>291</ele>
        <time>2017-09-22T09:12:14Z</time>
      </trkpt>
      <trkpt lat="44.50863" lon="1.58582">
        <ele>293</ele>
        <time>2017-09-22T09:12:23Z</time>
      </trkpt>
      <trkpt lat="44.50861" lon="1.58576">
        <ele>293</ele>
        <time>2017-09-22T09:12:26Z</time>
      </trkpt>
      <trkpt lat="44.5086" lon="1.58561">
        <ele>293</ele>
        <time>2017-09-22T09:12:35Z</time>
      </trkpt>
      <trkpt lat="44.5086" lon="1.58555">
        <ele>294</ele>
        <time>2017-09-22T09:12:38Z</time>
      </trkpt>
      <trkpt lat="44.50857" lon="1.58535">
        <ele>294</ele>
        <time>2017-09-22T09:12:49Z</time>
      </trkpt>
      <trkpt lat="44.50856" lon="1.5853">
        <ele>294</ele>
        <time>2017-09-22T09:12:53Z</time>
      </trkpt>
      <trkpt lat="44.50854" lon="1.58524">
        <ele>295</ele>
        <time>2017-09-22T09:12:57Z</time>
      </trkpt>
      <trkpt lat="44.50853" lon="1.58518">
        <ele>295</ele>
        <time>2017-09-22T09:13:00Z</time>
      </trkpt>
      <trkpt lat="44.50847" lon="1.58508">
        <ele>295</ele>
        <time>2017-09-22T09:13:07Z</time>
      </trkpt>
      <trkpt lat="44.50835" lon="1.58488">
        <ele>297</ele>
        <time>2017-09-22T09:13:22Z</time>
      </trkpt>
      <trkpt lat="44.50829" lon="1.58474">
        <ele>295</ele>
        <time>2017-09-22T09:13:32Z</time>
      </trkpt>
      <trkpt lat="44.50821" lon="1.58461">
        <ele>295</ele>
        <time>2017-09-22T09:13:41Z</time>
      </trkpt>
      <trkpt lat="44.50815" lon="1.58451">
        <ele>295</ele>
        <time>2017-09-22T09:13:50Z</time>
      </trkpt>
      <trkpt lat="44.50811" lon="1.58446">
        <ele>296</ele>
        <time>2017-09-22T09:13:54Z</time>
      </trkpt>
      <trkpt lat="44.50804" lon="1.58433">
        <ele>296</ele>
        <time>2017-09-22T09:14:02Z</time>
      </trkpt>
      <trkpt lat="44.50793" lon="1.58418">
        <ele>296</ele>
        <time>2017-09-22T09:14:15Z</time>
      </trkpt>
      <trkpt lat="44.50787" lon="1.58411">
        <ele>300</ele>
        <time>2017-09-22T09:14:21Z</time>
      </trkpt>
      <trkpt lat="44.50778" lon="1.58395">
        <ele>300</ele>
        <time>2017-09-22T09:14:33Z</time>
      </trkpt>
      <trkpt lat="44.50771" lon="1.58387">
        <ele>301</ele>
        <time>2017-09-22T09:14:42Z</time>
      </trkpt>
      <trkpt lat="44.50769" lon="1.58382">
        <ele>301</ele>
        <time>2017-09-22T09:14:45Z</time>
      </trkpt>
      <trkpt lat="44.50771" lon="1.58378">
        <ele>301</ele>
        <time>2017-09-22T09:14:50Z</time>
      </trkpt>
      <trkpt lat="44.50775" lon="1.58376">
        <ele>301</ele>
        <time>2017-09-22T09:14:53Z</time>
      </trkpt>
      <trkpt lat="44.50778" lon="1.58375">
        <ele>302</ele>
        <time>2017-09-22T09:14:56Z</time>
      </trkpt>
      <trkpt lat="44.50783" lon="1.58373">
        <ele>302</ele>
        <time>2017-09-22T09:15:27Z</time>
      </trkpt>
      <trkpt lat="44.50787" lon="1.58372">
        <ele>302</ele>
        <time>2017-09-22T09:15:31Z</time>
      </trkpt>
      <trkpt lat="44.50797" lon="1.58367">
        <ele>303</ele>
        <time>2017-09-22T09:15:43Z</time>
      </trkpt>
      <trkpt lat="44.50805" lon="1.5836">
        <ele>303</ele>
        <time>2017-09-22T09:15:51Z</time>
      </trkpt>
      <trkpt lat="44.50813" lon="1.58358">
        <ele>304</ele>
        <time>2017-09-22T09:15:57Z</time>
      </trkpt>
      <trkpt lat="44.50818" lon="1.58357">
        <ele>304</ele>
        <time>2017-09-22T09:16:02Z</time>
      </trkpt>
      <trkpt lat="44.50822" lon="1.58357">
        <ele>304</ele>
        <time>2017-09-22T09:16:07Z</time>
      </trkpt>
      <trkpt lat="44.50829" lon="1.58359">
        <ele>304</ele>
        <time>2017-09-22T09:16:13Z</time>
      </trkpt>
      <trkpt lat="44.50833" lon="1.58358">
        <ele>305</ele>
        <time>2017-09-22T09:16:17Z</time>
      </trkpt>
      <trkpt lat="44.50836" lon="1.58356">
        <ele>308</ele>
        <time>2017-09-22T09:16:21Z</time>
      </trkpt>
      <trkpt lat="44.50838" lon="1.58343">
        <ele>308</ele>
        <time>2017-09-22T09:16:33Z</time>
      </trkpt>
      <trkpt lat="44.50837" lon="1.58335">
        <ele>309</ele>
        <time>2017-09-22T09:16:39Z</time>
      </trkpt>
      <trkpt lat="44.50835" lon="1.58332">
        <ele>309</ele>
        <time>2017-09-22T09:16:48Z</time>
      </trkpt>
      <trkpt lat="44.50823" lon="1.58303">
        <ele>310</ele>
        <time>2017-09-22T09:17:15Z</time>
      </trkpt>
      <trkpt lat="44.50817" lon="1.58286">
        <ele>310</ele>
        <time>2017-09-22T09:17:31Z</time>
      </trkpt>
      <trkpt lat="44.50819" lon="1.58278">
        <ele>311</ele>
        <time>2017-09-22T09:17:36Z</time>
      </trkpt>
      <trkpt lat="44.50823" lon="1.58265">
        <ele>313</ele>
        <time>2017-09-22T09:17:45Z</time>
      </trkpt>
      <trkpt lat="44.50824" lon="1.58261">
        <ele>313</ele>
        <time>2017-09-22T09:17:48Z</time>
      </trkpt>
      <trkpt lat="44.50826" lon="1.58256">
        <ele>314</ele>
        <time>2017-09-22T09:17:52Z</time>
      </trkpt>
      <trkpt lat="44.5083" lon="1.58238">
        <ele>315</ele>
        <time>2017-09-22T09:18:03Z</time>
      </trkpt>
      <trkpt lat="44.50833" lon="1.58232">
        <ele>315</ele>
        <time>2017-09-22T09:18:07Z</time>
      </trkpt>
      <trkpt lat="44.50838" lon="1.58211">
        <ele>318</ele>
        <time>2017-09-22T09:18:21Z</time>
      </trkpt>
      <trkpt lat="44.50848" lon="1.58194">
        <ele>318</ele>
        <time>2017-09-22T09:18:33Z</time>
      </trkpt>
      <trkpt lat="44.5085" lon="1.5819">
        <ele>319</ele>
        <time>2017-09-22T09:18:36Z</time>
      </trkpt>
      <trkpt lat="44.50852" lon="1.58186">
        <ele>319</ele>
        <time>2017-09-22T09:18:39Z</time>
      </trkpt>
      <trkpt lat="44.50857" lon="1.58182">
        <ele>319</ele>
        <time>2017-09-22T09:18:44Z</time>
      </trkpt>
      <trkpt lat="44.50861" lon="1.58179">
        <ele>319</ele>
        <time>2017-09-22T09:18:47Z</time>
      </trkpt>
      <trkpt lat="44.50864" lon="1.58178">
        <ele>319</ele>
        <time>2017-09-22T09:18:50Z</time>
      </trkpt>
      <trkpt lat="44.50891" lon="1.58164">
        <ele>321</ele>
        <time>2017-09-22T09:19:15Z</time>
      </trkpt>
      <trkpt lat="44.50899" lon="1.58158">
        <ele>322</ele>
        <time>2017-09-22T09:19:23Z</time>
      </trkpt>
      <trkpt lat="44.50928" lon="1.58134">
        <ele>325</ele>
        <time>2017-09-22T09:19:50Z</time>
      </trkpt>
      <trkpt lat="44.5094" lon="1.58127">
        <ele>325</ele>
        <time>2017-09-22T09:20:01Z</time>
      </trkpt>
      <trkpt lat="44.50958" lon="1.58109">
        <ele>326</ele>
        <time>2017-09-22T09:20:20Z</time>
      </trkpt>
      <trkpt lat="44.50962" lon="1.58108">
        <ele>326</ele>
        <time>2017-09-22T09:20:22Z</time>
      </trkpt>
      <trkpt lat="44.50972" lon="1.58101">
        <ele>327</ele>
        <time>2017-09-22T09:20:31Z</time>
      </trkpt>
      <trkpt lat="44.50979" lon="1.58095">
        <ele>328</ele>
        <time>2017-09-22T09:20:38Z</time>
      </trkpt>
      <trkpt lat="44.50997" lon="1.58079">
        <ele>330</ele>
        <time>2017-09-22T09:20:57Z</time>
      </trkpt>
      <trkpt lat="44.51007" lon="1.5807">
        <ele>332</ele>
        <time>2017-09-22T09:21:08Z</time>
      </trkpt>
      <trkpt lat="44.5101" lon="1.58068">
        <ele>332</ele>
        <time>2017-09-22T09:21:12Z</time>
      </trkpt>
      <trkpt lat="44.51013" lon="1.58065">
        <ele>333</ele>
        <time>2017-09-22T09:21:20Z</time>
      </trkpt>
      <trkpt lat="44.51014" lon="1.58062">
        <ele>333</ele>
        <time>2017-09-22T09:21:33Z</time>
      </trkpt>
      <trkpt lat="44.51016" lon="1.58059">
        <ele>333</ele>
        <time>2017-09-22T09:21:38Z</time>
      </trkpt>
      <trkpt lat="44.5102" lon="1.58059">
        <ele>333</ele>
        <time>2017-09-22T09:21:44Z</time>
      </trkpt>
      <trkpt lat="44.51023" lon="1.58059">
        <ele>333</ele>
        <time>2017-09-22T09:22:14Z</time>
      </trkpt>
      <trkpt lat="44.51026" lon="1.58058">
        <ele>333</ele>
        <time>2017-09-22T09:22:17Z</time>
      </trkpt>
      <trkpt lat="44.51035" lon="1.58048">
        <ele>334</ele>
        <time>2017-09-22T09:22:26Z</time>
      </trkpt>
      <trkpt lat="44.51041" lon="1.58038">
        <ele>334</ele>
        <time>2017-09-22T09:22:33Z</time>
      </trkpt>
      <trkpt lat="44.51054" lon="1.5802">
        <ele>335</ele>
        <time>2017-09-22T09:22:48Z</time>
      </trkpt>
      <trkpt lat="44.51059" lon="1.58012">
        <ele>336</ele>
        <time>2017-09-22T09:22:54Z</time>
      </trkpt>
      <trkpt lat="44.51062" lon="1.58011">
        <ele>336</ele>
        <time>2017-09-22T09:22:59Z</time>
      </trkpt>
      <trkpt lat="44.51066" lon="1.58009">
        <ele>337</ele>
        <time>2017-09-22T09:23:08Z</time>
      </trkpt>
      <trkpt lat="44.51069" lon="1.58008">
        <ele>337</ele>
        <time>2017-09-22T09:23:11Z</time>
      </trkpt>
      <trkpt lat="44.51074" lon="1.58014">
        <ele>337</ele>
        <time>2017-09-22T09:23:17Z</time>
      </trkpt>
      <trkpt lat="44.51077" lon="1.58018">
        <ele>337</ele>
        <time>2017-09-22T09:23:20Z</time>
      </trkpt>
      <trkpt lat="44.51089" lon="1.58044">
        <ele>342</ele>
        <time>2017-09-22T09:23:40Z</time>
      </trkpt>
      <trkpt lat="44.51093" lon="1.58051">
        <ele>341</ele>
        <time>2017-09-22T09:23:45Z</time>
      </trkpt>
      <trkpt lat="44.51096" lon="1.58053">
        <ele>342</ele>
        <time>2017-09-22T09:23:48Z</time>
      </trkpt>
      <trkpt lat="44.511" lon="1.58052">
        <ele>342</ele>
        <time>2017-09-22T09:23:52Z</time>
      </trkpt>
      <trkpt lat="44.51102" lon="1.58047">
        <ele>342</ele>
        <time>2017-09-22T09:23:56Z</time>
      </trkpt>
      <trkpt lat="44.51104" lon="1.58043">
        <ele>342</ele>
        <time>2017-09-22T09:23:59Z</time>
      </trkpt>
      <trkpt lat="44.51106" lon="1.58038">
        <ele>343</ele>
        <time>2017-09-22T09:24:02Z</time>
      </trkpt>
      <trkpt lat="44.51108" lon="1.58032">
        <ele>343</ele>
        <time>2017-09-22T09:24:07Z</time>
      </trkpt>
      <trkpt lat="44.51111" lon="1.58014">
        <ele>343</ele>
        <time>2017-09-22T09:24:18Z</time>
      </trkpt>
      <trkpt lat="44.51111" lon="1.58007">
        <ele>343</ele>
        <time>2017-09-22T09:24:22Z</time>
      </trkpt>
      <trkpt lat="44.51112" lon="1.58001">
        <ele>343</ele>
        <time>2017-09-22T09:24:25Z</time>
      </trkpt>
      <trkpt lat="44.51112" lon="1.57994">
        <ele>344</ele>
        <time>2017-09-22T09:24:28Z</time>
      </trkpt>
      <trkpt lat="44.51117" lon="1.57977">
        <ele>344</ele>
        <time>2017-09-22T09:24:39Z</time>
      </trkpt>
      <trkpt lat="44.51122" lon="1.57965">
        <ele>344</ele>
        <time>2017-09-22T09:24:47Z</time>
      </trkpt>
      <trkpt lat="44.51128" lon="1.57955">
        <ele>345</ele>
        <time>2017-09-22T09:24:56Z</time>
      </trkpt>
      <trkpt lat="44.51136" lon="1.57946">
        <ele>345</ele>
        <time>2017-09-22T09:25:07Z</time>
      </trkpt>
      <trkpt lat="44.51138" lon="1.57941">
        <ele>345</ele>
        <time>2017-09-22T09:25:11Z</time>
      </trkpt>
      <trkpt lat="44.51146" lon="1.57931">
        <ele>346</ele>
        <time>2017-09-22T09:25:18Z</time>
      </trkpt>
      <trkpt lat="44.51171" lon="1.57901">
        <ele>349</ele>
        <time>2017-09-22T09:25:47Z</time>
      </trkpt>
      <trkpt lat="44.51174" lon="1.57897">
        <ele>349</ele>
        <time>2017-09-22T09:25:50Z</time>
      </trkpt>
      <trkpt lat="44.51179" lon="1.57892">
        <ele>349</ele>
        <time>2017-09-22T09:25:54Z</time>
      </trkpt>
      <trkpt lat="44.51188" lon="1.57884">
        <ele>349</ele>
        <time>2017-09-22T09:26:02Z</time>
      </trkpt>
      <trkpt lat="44.51201" lon="1.57872">
        <ele>349</ele>
        <time>2017-09-22T09:26:14Z</time>
      </trkpt>
      <trkpt lat="44.51211" lon="1.57854">
        <ele>349</ele>
        <time>2017-09-22T09:26:27Z</time>
      </trkpt>
      <trkpt lat="44.51245" lon="1.57826">
        <ele>349</ele>
        <time>2017-09-22T09:26:57Z</time>
      </trkpt>
      <trkpt lat="44.51252" lon="1.57821">
        <ele>350</ele>
        <time>2017-09-22T09:27:03Z</time>
      </trkpt>
      <trkpt lat="44.51256" lon="1.57818">
        <ele>350</ele>
        <time>2017-09-22T09:27:06Z</time>
      </trkpt>
      <trkpt lat="44.5127" lon="1.57811">
        <ele>350</ele>
        <time>2017-09-22T09:27:18Z</time>
      </trkpt>
      <trkpt lat="44.5128" lon="1.578">
        <ele>350</ele>
        <time>2017-09-22T09:27:27Z</time>
      </trkpt>
      <trkpt lat="44.51304" lon="1.57762">
        <ele>349</ele>
        <time>2017-09-22T09:27:54Z</time>
      </trkpt>
      <trkpt lat="44.51309" lon="1.57749">
        <ele>347</ele>
        <time>2017-09-22T09:28:01Z</time>
      </trkpt>
      <trkpt lat="44.51313" lon="1.57738">
        <ele>347</ele>
        <time>2017-09-22T09:28:07Z</time>
      </trkpt>
      <trkpt lat="44.51315" lon="1.57733">
        <ele>347</ele>
        <time>2017-09-22T09:28:10Z</time>
      </trkpt>
      <trkpt lat="44.51317" lon="1.57728">
        <ele>346</ele>
        <time>2017-09-22T09:28:13Z</time>
      </trkpt>
      <trkpt lat="44.51322" lon="1.57723">
        <ele>346</ele>
        <time>2017-09-22T09:28:19Z</time>
      </trkpt>
      <trkpt lat="44.51324" lon="1.57715">
        <ele>346</ele>
        <time>2017-09-22T09:28:22Z</time>
      </trkpt>
      <trkpt lat="44.51326" lon="1.57708">
        <ele>346</ele>
        <time>2017-09-22T09:28:26Z</time>
      </trkpt>
      <trkpt lat="44.51329" lon="1.57696">
        <ele>346</ele>
        <time>2017-09-22T09:28:33Z</time>
      </trkpt>
      <trkpt lat="44.51333" lon="1.57684">
        <ele>346</ele>
        <time>2017-09-22T09:28:40Z</time>
      </trkpt>
      <trkpt lat="44.5134" lon="1.57662">
        <ele>346</ele>
        <time>2017-09-22T09:28:53Z</time>
      </trkpt>
      <trkpt lat="44.51343" lon="1.57656">
        <ele>346</ele>
        <time>2017-09-22T09:28:57Z</time>
      </trkpt>
      <trkpt lat="44.51354" lon="1.57624">
        <ele>346</ele>
        <time>2017-09-22T09:29:16Z</time>
      </trkpt>
      <trkpt lat="44.51376" lon="1.57577">
        <ele>344</ele>
        <time>2017-09-22T09:29:46Z</time>
      </trkpt>
      <trkpt lat="44.51399" lon="1.57531">
        <ele>344</ele>
        <time>2017-09-22T09:30:16Z</time>
      </trkpt>
      <trkpt lat="44.51412" lon="1.57509">
        <ele>345</ele>
        <time>2017-09-22T09:30:32Z</time>
      </trkpt>
      <trkpt lat="44.51416" lon="1.57504">
        <ele>346</ele>
        <time>2017-09-22T09:30:36Z</time>
      </trkpt>
      <trkpt lat="44.51418" lon="1.57501">
        <ele>346</ele>
        <time>2017-09-22T09:30:38Z</time>
      </trkpt>
      <trkpt lat="44.51442" lon="1.57468">
        <ele>343</ele>
        <time>2017-09-22T09:31:05Z</time>
      </trkpt>
      <trkpt lat="44.51444" lon="1.57467">
        <ele>343</ele>
        <time>2017-09-22T09:31:07Z</time>
      </trkpt>
      <trkpt lat="44.51452" lon="1.57456">
        <ele>342</ele>
        <time>2017-09-22T09:31:16Z</time>
      </trkpt>
      <trkpt lat="44.5147" lon="1.57432">
        <ele>341</ele>
        <time>2017-09-22T09:31:34Z</time>
      </trkpt>
      <trkpt lat="44.51472" lon="1.5743">
        <ele>341</ele>
        <time>2017-09-22T09:31:36Z</time>
      </trkpt>
      <trkpt lat="44.51487" lon="1.5741">
        <ele>338</ele>
        <time>2017-09-22T09:31:54Z</time>
      </trkpt>
      <trkpt lat="44.51492" lon="1.57405">
        <ele>338</ele>
        <time>2017-09-22T09:32:00Z</time>
      </trkpt>
      <trkpt lat="44.51515" lon="1.57375">
        <ele>335</ele>
        <time>2017-09-22T09:32:24Z</time>
      </trkpt>
      <trkpt lat="44.51516" lon="1.57374">
        <ele>335</ele>
        <time>2017-09-22T09:32:25Z</time>
      </trkpt>
      <trkpt lat="44.51538" lon="1.57341">
        <ele>335</ele>
        <time>2017-09-22T09:32:51Z</time>
      </trkpt>
      <trkpt lat="44.51557" lon="1.57321">
        <ele>333</ele>
        <time>2017-09-22T09:33:09Z</time>
      </trkpt>
      <trkpt lat="44.51561" lon="1.57319">
        <ele>333</ele>
        <time>2017-09-22T09:33:12Z</time>
      </trkpt>
      <trkpt lat="44.51577" lon="1.57301">
        <ele>332</ele>
        <time>2017-09-22T09:33:28Z</time>
      </trkpt>
      <trkpt lat="44.51579" lon="1.57299">
        <ele>332</ele>
        <time>2017-09-22T09:33:30Z</time>
      </trkpt>
      <trkpt lat="44.51584" lon="1.57296">
        <ele>330</ele>
        <time>2017-09-22T09:33:33Z</time>
      </trkpt>
      <trkpt lat="44.5159" lon="1.57293">
        <ele>330</ele>
        <time>2017-09-22T09:33:37Z</time>
      </trkpt>
      <trkpt lat="44.51595" lon="1.57289">
        <ele>330</ele>
        <time>2017-09-22T09:33:42Z</time>
      </trkpt>
      <trkpt lat="44.51602" lon="1.57275">
        <ele>329</ele>
        <time>2017-09-22T09:33:51Z</time>
      </trkpt>
      <trkpt lat="44.51603" lon="1.57273">
        <ele>329</ele>
        <time>2017-09-22T09:33:52Z</time>
      </trkpt>
      <trkpt lat="44.5161" lon="1.57263">
        <ele>329</ele>
        <time>2017-09-22T09:33:59Z</time>
      </trkpt>
      <trkpt lat="44.51611" lon="1.5726">
        <ele>329</ele>
        <time>2017-09-22T09:34:01Z</time>
      </trkpt>
      <trkpt lat="44.51615" lon="1.57252">
        <ele>329</ele>
        <time>2017-09-22T09:34:07Z</time>
      </trkpt>
      <trkpt lat="44.51617" lon="1.5725">
        <ele>326</ele>
        <time>2017-09-22T09:34:09Z</time>
      </trkpt>
      <trkpt lat="44.51619" lon="1.57247">
        <ele>326</ele>
        <time>2017-09-22T09:34:11Z</time>
      </trkpt>
      <trkpt lat="44.5162" lon="1.57243">
        <ele>326</ele>
        <time>2017-09-22T09:34:13Z</time>
      </trkpt>
      <trkpt lat="44.51623" lon="1.57238">
        <ele>326</ele>
        <time>2017-09-22T09:34:16Z</time>
      </trkpt>
      <trkpt lat="44.51625" lon="1.57235">
        <ele>326</ele>
        <time>2017-09-22T09:34:18Z</time>
      </trkpt>
      <trkpt lat="44.51632" lon="1.57224">
        <ele>325</ele>
        <time>2017-09-22T09:34:26Z</time>
      </trkpt>
      <trkpt lat="44.51644" lon="1.57195">
        <ele>325</ele>
        <time>2017-09-22T09:34:43Z</time>
      </trkpt>
      <trkpt lat="44.51647" lon="1.57189">
        <ele>324</ele>
        <time>2017-09-22T09:34:47Z</time>
      </trkpt>
      <trkpt lat="44.5165" lon="1.57184">
        <ele>324</ele>
        <time>2017-09-22T09:34:50Z</time>
      </trkpt>
      <trkpt lat="44.51657" lon="1.57173">
        <ele>323</ele>
        <time>2017-09-22T09:34:57Z</time>
      </trkpt>
      <trkpt lat="44.5166" lon="1.57167">
        <ele>322</ele>
        <time>2017-09-22T09:35:01Z</time>
      </trkpt>
      <trkpt lat="44.51661" lon="1.57165">
        <ele>322</ele>
        <time>2017-09-22T09:35:02Z</time>
      </trkpt>
      <trkpt lat="44.51668" lon="1.57153">
        <ele>321</ele>
        <time>2017-09-22T09:35:10Z</time>
      </trkpt>
      <trkpt lat="44.51671" lon="1.57149">
        <ele>321</ele>
        <time>2017-09-22T09:35:13Z</time>
      </trkpt>
      <trkpt lat="44.51673" lon="1.57145">
        <ele>321</ele>
        <time>2017-09-22T09:35:15Z</time>
      </trkpt>
      <trkpt lat="44.51681" lon="1.5713">
        <ele>320</ele>
        <time>2017-09-22T09:35:25Z</time>
      </trkpt>
      <trkpt lat="44.51683" lon="1.57125">
        <ele>320</ele>
        <time>2017-09-22T09:35:28Z</time>
      </trkpt>
      <trkpt lat="44.51693" lon="1.57104">
        <ele>320</ele>
        <time>2017-09-22T09:35:41Z</time>
      </trkpt>
      <trkpt lat="44.51709" lon="1.57081">
        <ele>316</ele>
        <time>2017-09-22T09:35:57Z</time>
      </trkpt>
      <trkpt lat="44.51716" lon="1.57069">
        <ele>316</ele>
        <time>2017-09-22T09:36:05Z</time>
      </trkpt>
      <trkpt lat="44.51718" lon="1.57067">
        <ele>316</ele>
        <time>2017-09-22T09:36:07Z</time>
      </trkpt>
      <trkpt lat="44.51724" lon="1.5706">
        <ele>316</ele>
        <time>2017-09-22T09:36:13Z</time>
      </trkpt>
      <trkpt lat="44.51746" lon="1.57022">
        <ele>316</ele>
        <time>2017-09-22T09:36:36Z</time>
      </trkpt>
      <trkpt lat="44.51756" lon="1.56982">
        <ele>319</ele>
        <time>2017-09-22T09:36:57Z</time>
      </trkpt>
      <trkpt lat="44.51756" lon="1.56979">
        <ele>319</ele>
        <time>2017-09-22T09:36:59Z</time>
      </trkpt>
      <trkpt lat="44.51758" lon="1.56975">
        <ele>320</ele>
        <time>2017-09-22T09:37:01Z</time>
      </trkpt>
      <trkpt lat="44.51762" lon="1.56958">
        <ele>320</ele>
        <time>2017-09-22T09:37:12Z</time>
      </trkpt>
      <trkpt lat="44.51768" lon="1.56935">
        <ele>319</ele>
        <time>2017-09-22T09:37:25Z</time>
      </trkpt>
      <trkpt lat="44.51772" lon="1.56913">
        <ele>320</ele>
        <time>2017-09-22T09:37:35Z</time>
      </trkpt>
      <trkpt lat="44.51772" lon="1.56897">
        <ele>320</ele>
        <time>2017-09-22T09:37:45Z</time>
      </trkpt>
      <trkpt lat="44.51774" lon="1.56863">
        <ele>321</ele>
        <time>2017-09-22T09:38:03Z</time>
      </trkpt>
      <trkpt lat="44.51774" lon="1.5686">
        <ele>321</ele>
        <time>2017-09-22T09:38:05Z</time>
      </trkpt>
      <trkpt lat="44.51776" lon="1.56834">
        <ele>320</ele>
        <time>2017-09-22T09:38:18Z</time>
      </trkpt>
      <trkpt lat="44.51777" lon="1.56775">
        <ele>321</ele>
        <time>2017-09-22T09:38:49Z</time>
      </trkpt>
      <trkpt lat="44.51772" lon="1.56716">
        <ele>320</ele>
        <time>2017-09-22T09:39:19Z</time>
      </trkpt>
      <trkpt lat="44.51771" lon="1.56711">
        <ele>320</ele>
        <time>2017-09-22T09:39:22Z</time>
      </trkpt>
      <trkpt lat="44.51766" lon="1.56645">
        <ele>316</ele>
        <time>2017-09-22T09:39:53Z</time>
      </trkpt>
      <trkpt lat="44.51764" lon="1.56598">
        <ele>315</ele>
        <time>2017-09-22T09:40:17Z</time>
      </trkpt>
      <trkpt lat="44.51765" lon="1.56585">
        <ele>315</ele>
        <time>2017-09-22T09:40:24Z</time>
      </trkpt>
      <trkpt lat="44.51765" lon="1.56574">
        <ele>312</ele>
        <time>2017-09-22T09:40:30Z</time>
      </trkpt>
      <trkpt lat="44.51763" lon="1.5654">
        <ele>311</ele>
        <time>2017-09-22T09:40:50Z</time>
      </trkpt>
      <trkpt lat="44.5176" lon="1.56516">
        <ele>310</ele>
        <time>2017-09-22T09:41:05Z</time>
      </trkpt>
      <trkpt lat="44.5176" lon="1.5651">
        <ele>310</ele>
        <time>2017-09-22T09:41:08Z</time>
      </trkpt>
      <trkpt lat="44.51759" lon="1.56506">
        <ele>310</ele>
        <time>2017-09-22T09:41:10Z</time>
      </trkpt>
      <trkpt lat="44.51758" lon="1.56496">
        <ele>307</ele>
        <time>2017-09-22T09:41:16Z</time>
      </trkpt>
      <trkpt lat="44.51758" lon="1.56481">
        <ele>304</ele>
        <time>2017-09-22T09:41:24Z</time>
      </trkpt>
      <trkpt lat="44.51753" lon="1.56461">
        <ele>302</ele>
        <time>2017-09-22T09:41:35Z</time>
      </trkpt>
      <trkpt lat="44.51751" lon="1.56452">
        <ele>301</ele>
        <time>2017-09-22T09:41:39Z</time>
      </trkpt>
      <trkpt lat="44.5175" lon="1.56448">
        <ele>301</ele>
        <time>2017-09-22T09:41:41Z</time>
      </trkpt>
      <trkpt lat="44.51748" lon="1.56434">
        <ele>301</ele>
        <time>2017-09-22T09:41:48Z</time>
      </trkpt>
      <trkpt lat="44.51747" lon="1.56429">
        <ele>301</ele>
        <time>2017-09-22T09:41:51Z</time>
      </trkpt>
      <trkpt lat="44.51745" lon="1.56399">
        <ele>297</ele>
        <time>2017-09-22T09:42:04Z</time>
      </trkpt>
      <trkpt lat="44.51745" lon="1.56381">
        <ele>295</ele>
        <time>2017-09-22T09:42:13Z</time>
      </trkpt>
      <trkpt lat="44.51745" lon="1.56357">
        <ele>293</ele>
        <time>2017-09-22T09:42:30Z</time>
      </trkpt>
      <trkpt lat="44.51746" lon="1.56339">
        <ele>292</ele>
        <time>2017-09-22T09:42:40Z</time>
      </trkpt>
      <trkpt lat="44.51747" lon="1.56328">
        <ele>290</ele>
        <time>2017-09-22T09:42:47Z</time>
      </trkpt>
      <trkpt lat="44.51757" lon="1.56293">
        <ele>283</ele>
        <time>2017-09-22T09:43:07Z</time>
      </trkpt>
      <trkpt lat="44.5176" lon="1.56289">
        <ele>283</ele>
        <time>2017-09-22T09:43:11Z</time>
      </trkpt>
      <trkpt lat="44.51763" lon="1.56285">
        <ele>283</ele>
        <time>2017-09-22T09:43:14Z</time>
      </trkpt>
      <trkpt lat="44.51766" lon="1.56281">
        <ele>282</ele>
        <time>2017-09-22T09:43:17Z</time>
      </trkpt>
      <trkpt lat="44.5177" lon="1.56273">
        <ele>282</ele>
        <time>2017-09-22T09:43:23Z</time>
      </trkpt>
      <trkpt lat="44.51772" lon="1.56266">
        <ele>282</ele>
        <time>2017-09-22T09:43:29Z</time>
      </trkpt>
      <trkpt lat="44.51775" lon="1.56259">
        <ele>282</ele>
        <time>2017-09-22T09:43:34Z</time>
      </trkpt>
      <trkpt lat="44.51777" lon="1.56255">
        <ele>281</ele>
        <time>2017-09-22T09:43:39Z</time>
      </trkpt>
      <trkpt lat="44.51777" lon="1.56251">
        <ele>281</ele>
        <time>2017-09-22T09:43:53Z</time>
      </trkpt>
      <trkpt lat="44.51777" lon="1.56246">
        <ele>276</ele>
        <time>2017-09-22T09:43:55Z</time>
      </trkpt>
      <trkpt lat="44.5178" lon="1.56242">
        <ele>275</ele>
        <time>2017-09-22T09:44:05Z</time>
      </trkpt>
      <trkpt lat="44.51782" lon="1.56239">
        <ele>274</ele>
        <time>2017-09-22T09:44:17Z</time>
      </trkpt>
      <trkpt lat="44.51786" lon="1.56237">
        <ele>274</ele>
        <time>2017-09-22T09:44:23Z</time>
      </trkpt>
      <trkpt lat="44.51789" lon="1.56232">
        <ele>273</ele>
        <time>2017-09-22T09:44:29Z</time>
      </trkpt>
      <trkpt lat="44.5179" lon="1.56228">
        <ele>273</ele>
        <time>2017-09-22T09:44:32Z</time>
      </trkpt>
      <trkpt lat="44.51796" lon="1.56222">
        <ele>272</ele>
        <time>2017-09-22T09:44:40Z</time>
      </trkpt>
      <trkpt lat="44.51802" lon="1.56212">
        <ele>271</ele>
        <time>2017-09-22T09:44:50Z</time>
      </trkpt>
      <trkpt lat="44.5182" lon="1.56204">
        <ele>269</ele>
        <time>2017-09-22T09:45:09Z</time>
      </trkpt>
      <trkpt lat="44.51824" lon="1.56203">
        <ele>269</ele>
        <time>2017-09-22T09:45:13Z</time>
      </trkpt>
      <trkpt lat="44.5183" lon="1.56202">
        <ele>268</ele>
        <time>2017-09-22T09:45:18Z</time>
      </trkpt>
      <trkpt lat="44.51833" lon="1.56202">
        <ele>257</ele>
        <time>2017-09-22T09:45:21Z</time>
      </trkpt>
      <trkpt lat="44.5185" lon="1.56204">
        <ele>255</ele>
        <time>2017-09-22T09:45:44Z</time>
      </trkpt>
      <trkpt lat="44.51855" lon="1.56207">
        <ele>255</ele>
        <time>2017-09-22T09:45:51Z</time>
      </trkpt>
      <trkpt lat="44.51861" lon="1.56213">
        <ele>255</ele>
        <time>2017-09-22T09:46:02Z</time>
      </trkpt>
      <trkpt lat="44.51863" lon="1.56215">
        <ele>254</ele>
        <time>2017-09-22T09:46:05Z</time>
      </trkpt>
      <trkpt lat="44.51868" lon="1.5622">
        <ele>254</ele>
        <time>2017-09-22T09:46:13Z</time>
      </trkpt>
      <trkpt lat="44.51872" lon="1.56227">
        <ele>254</ele>
        <time>2017-09-22T09:46:22Z</time>
      </trkpt>
      <trkpt lat="44.51874" lon="1.5623">
        <ele>253</ele>
        <time>2017-09-22T09:46:27Z</time>
      </trkpt>
      <trkpt lat="44.51876" lon="1.56232">
        <ele>253</ele>
        <time>2017-09-22T09:46:31Z</time>
      </trkpt>
      <trkpt lat="44.51878" lon="1.56236">
        <ele>253</ele>
        <time>2017-09-22T09:46:35Z</time>
      </trkpt>
      <trkpt lat="44.51881" lon="1.5624">
        <ele>252</ele>
        <time>2017-09-22T09:46:45Z</time>
      </trkpt>
      <trkpt lat="44.51882" lon="1.56246">
        <ele>252</ele>
        <time>2017-09-22T09:46:51Z</time>
      </trkpt>
      <trkpt lat="44.51883" lon="1.56249">
        <ele>252</ele>
        <time>2017-09-22T09:46:54Z</time>
      </trkpt>
      <trkpt lat="44.51884" lon="1.56259">
        <ele>256</ele>
        <time>2017-09-22T09:47:08Z</time>
      </trkpt>
      <trkpt lat="44.51884" lon="1.56269">
        <ele>256</ele>
        <time>2017-09-22T09:47:20Z</time>
      </trkpt>
      <trkpt lat="44.51883" lon="1.56275">
        <ele>257</ele>
        <time>2017-09-22T09:47:26Z</time>
      </trkpt>
      <trkpt lat="44.51883" lon="1.5628">
        <ele>257</ele>
        <time>2017-09-22T09:47:32Z</time>
      </trkpt>
      <trkpt lat="44.51882" lon="1.56294">
        <ele>258</ele>
        <time>2017-09-22T09:47:44Z</time>
      </trkpt>
      <trkpt lat="44.51884" lon="1.56308">
        <ele>257</ele>
        <time>2017-09-22T09:47:56Z</time>
      </trkpt>
      <trkpt lat="44.51884" lon="1.56314">
        <ele>257</ele>
        <time>2017-09-22T09:48:01Z</time>
      </trkpt>
      <trkpt lat="44.51884" lon="1.56323">
        <ele>257</ele>
        <time>2017-09-22T09:48:07Z</time>
      </trkpt>
      <trkpt lat="44.51885" lon="1.5633">
        <ele>257</ele>
        <time>2017-09-22T09:48:13Z</time>
      </trkpt>
      <trkpt lat="44.51885" lon="1.56336">
        <ele>263</ele>
        <time>2017-09-22T09:48:19Z</time>
      </trkpt>
      <trkpt lat="44.51885" lon="1.56342">
        <ele>264</ele>
        <time>2017-09-22T09:48:23Z</time>
      </trkpt>
      <trkpt lat="44.51888" lon="1.5635">
        <ele>264</ele>
        <time>2017-09-22T09:48:34Z</time>
      </trkpt>
      <trkpt lat="44.5189" lon="1.56344">
        <ele>263</ele>
        <time>2017-09-22T09:49:24Z</time>
      </trkpt>
      <trkpt lat="44.51896" lon="1.56343">
        <ele>260</ele>
        <time>2017-09-22T09:49:34Z</time>
      </trkpt>
      <trkpt lat="44.51901" lon="1.5634">
        <ele>258</ele>
        <time>2017-09-22T09:49:41Z</time>
      </trkpt>
      <trkpt lat="44.51912" lon="1.56334">
        <ele>251</ele>
        <time>2017-09-22T09:49:52Z</time>
      </trkpt>
      <trkpt lat="44.51917" lon="1.5633">
        <ele>246</ele>
        <time>2017-09-22T09:49:58Z</time>
      </trkpt>
      <trkpt lat="44.5192" lon="1.56326">
        <ele>245</ele>
        <time>2017-09-22T09:50:04Z</time>
      </trkpt>
      <trkpt lat="44.51928" lon="1.56314">
        <ele>243</ele>
        <time>2017-09-22T09:50:21Z</time>
      </trkpt>
      <trkpt lat="44.51932" lon="1.56309">
        <ele>243</ele>
        <time>2017-09-22T09:50:27Z</time>
      </trkpt>
      <trkpt lat="44.51937" lon="1.56306">
        <ele>242</ele>
        <time>2017-09-22T09:50:33Z</time>
      </trkpt>
      <trkpt lat="44.51941" lon="1.56303">
        <ele>242</ele>
        <time>2017-09-22T09:50:53Z</time>
      </trkpt>
      <trkpt lat="44.51949" lon="1.56296">
        <ele>241</ele>
        <time>2017-09-22T09:51:03Z</time>
      </trkpt>
      <trkpt lat="44.51958" lon="1.5629">
        <ele>240</ele>
        <time>2017-09-22T09:51:15Z</time>
      </trkpt>
      <trkpt lat="44.51963" lon="1.56283">
        <ele>239</ele>
        <time>2017-09-22T09:51:22Z</time>
      </trkpt>
      <trkpt lat="44.51969" lon="1.56282">
        <ele>239</ele>
        <time>2017-09-22T09:51:27Z</time>
      </trkpt>
      <trkpt lat="44.51976" lon="1.5628">
        <ele>238</ele>
        <time>2017-09-22T09:51:33Z</time>
      </trkpt>
      <trkpt lat="44.51981" lon="1.56275">
        <ele>237</ele>
        <time>2017-09-22T09:51:39Z</time>
      </trkpt>
      <trkpt lat="44.51984" lon="1.56269">
        <ele>236</ele>
        <time>2017-09-22T09:51:44Z</time>
      </trkpt>
      <trkpt lat="44.51994" lon="1.56258">
        <ele>232</ele>
        <time>2017-09-22T09:51:56Z</time>
      </trkpt>
      <trkpt lat="44.52007" lon="1.56244">
        <ele>231</ele>
        <time>2017-09-22T09:52:15Z</time>
      </trkpt>
      <trkpt lat="44.52008" lon="1.56237">
        <ele>232</ele>
        <time>2017-09-22T09:52:21Z</time>
      </trkpt>
      <trkpt lat="44.52008" lon="1.56228">
        <ele>232</ele>
        <time>2017-09-22T09:52:28Z</time>
      </trkpt>
      <trkpt lat="44.52008" lon="1.56221">
        <ele>232</ele>
        <time>2017-09-22T09:52:34Z</time>
      </trkpt>
      <trkpt lat="44.52008" lon="1.56216">
        <ele>232</ele>
        <time>2017-09-22T09:52:41Z</time>
      </trkpt>
      <trkpt lat="44.52008" lon="1.56209">
        <ele>231</ele>
        <time>2017-09-22T09:52:48Z</time>
      </trkpt>
      <trkpt lat="44.52008" lon="1.56197">
        <ele>230</ele>
        <time>2017-09-22T09:52:55Z</time>
      </trkpt>
      <trkpt lat="44.52009" lon="1.5619">
        <ele>228</ele>
        <time>2017-09-22T09:53:01Z</time>
      </trkpt>
      <trkpt lat="44.52008" lon="1.56182">
        <ele>225</ele>
        <time>2017-09-22T09:53:07Z</time>
      </trkpt>
      <trkpt lat="44.52008" lon="1.56174">
        <ele>222</ele>
        <time>2017-09-22T09:53:13Z</time>
      </trkpt>
      <trkpt lat="44.52008" lon="1.56169">
        <ele>220</ele>
        <time>2017-09-22T09:53:36Z</time>
      </trkpt>
      <trkpt lat="44.52007" lon="1.56157">
        <ele>218</ele>
        <time>2017-09-22T09:53:43Z</time>
      </trkpt>
      <trkpt lat="44.52005" lon="1.56149">
        <ele>219</ele>
        <time>2017-09-22T09:53:49Z</time>
      </trkpt>
      <trkpt lat="44.52007" lon="1.56131">
        <ele>219</ele>
        <time>2017-09-22T09:54:01Z</time>
      </trkpt>
      <trkpt lat="44.52007" lon="1.56124">
        <ele>218</ele>
        <time>2017-09-22T09:54:07Z</time>
      </trkpt>
      <trkpt lat="44.52008" lon="1.56119">
        <ele>218</ele>
        <time>2017-09-22T09:54:10Z</time>
      </trkpt>
      <trkpt lat="44.52009" lon="1.56113">
        <ele>217</ele>
        <time>2017-09-22T09:54:14Z</time>
      </trkpt>
      <trkpt lat="44.52009" lon="1.56107">
        <ele>215</ele>
        <time>2017-09-22T09:54:17Z</time>
      </trkpt>
      <trkpt lat="44.52009" lon="1.56102">
        <ele>214</ele>
        <time>2017-09-22T09:54:20Z</time>
      </trkpt>
      <trkpt lat="44.52008" lon="1.56096">
        <ele>211</ele>
        <time>2017-09-22T09:54:25Z</time>
      </trkpt>
      <trkpt lat="44.52009" lon="1.5609">
        <ele>209</ele>
        <time>2017-09-22T09:54:30Z</time>
      </trkpt>
      <trkpt lat="44.52009" lon="1.5608">
        <ele>205</ele>
        <time>2017-09-22T09:54:36Z</time>
      </trkpt>
      <trkpt lat="44.52006" lon="1.56064">
        <ele>206</ele>
        <time>2017-09-22T09:54:45Z</time>
      </trkpt>
      <trkpt lat="44.52005" lon="1.56059">
        <ele>207</ele>
        <time>2017-09-22T09:54:49Z</time>
      </trkpt>
      <trkpt lat="44.52005" lon="1.56054">
        <ele>207</ele>
        <time>2017-09-22T09:54:53Z</time>
      </trkpt>
      <trkpt lat="44.52" lon="1.56038">
        <ele>199</ele>
        <time>2017-09-22T09:55:05Z</time>
      </trkpt>
      <trkpt lat="44.51995" lon="1.56028">
        <ele>198</ele>
        <time>2017-09-22T09:55:14Z</time>
      </trkpt>
      <trkpt lat="44.51993" lon="1.56024">
        <ele>197</ele>
        <time>2017-09-22T09:55:18Z</time>
      </trkpt>
      <trkpt lat="44.51991" lon="1.56019">
        <ele>196</ele>
        <time>2017-09-22T09:55:23Z</time>
      </trkpt>
      <trkpt lat="44.51989" lon="1.56015">
        <ele>196</ele>
        <time>2017-09-22T09:55:27Z</time>
      </trkpt>
      <trkpt lat="44.51986" lon="1.56011">
        <ele>195</ele>
        <time>2017-09-22T09:55:32Z</time>
      </trkpt>
      <trkpt lat="44.51984" lon="1.56007">
        <ele>195</ele>
        <time>2017-09-22T09:55:36Z</time>
      </trkpt>
      <trkpt lat="44.51982" lon="1.56002">
        <ele>195</ele>
        <time>2017-09-22T09:55:39Z</time>
      </trkpt>
      <trkpt lat="44.51981" lon="1.55997">
        <ele>188</ele>
        <time>2017-09-22T09:55:43Z</time>
      </trkpt>
      <trkpt lat="44.51978" lon="1.55991">
        <ele>187</ele>
        <time>2017-09-22T09:55:49Z</time>
      </trkpt>
      <trkpt lat="44.51973" lon="1.55982">
        <ele>187</ele>
        <time>2017-09-22T09:55:59Z</time>
      </trkpt>
      <trkpt lat="44.51971" lon="1.55977">
        <ele>186</ele>
        <time>2017-09-22T09:56:02Z</time>
      </trkpt>
      <trkpt lat="44.51968" lon="1.55967">
        <ele>186</ele>
        <time>2017-09-22T09:56:11Z</time>
      </trkpt>
      <trkpt lat="44.51967" lon="1.55963">
        <ele>185</ele>
        <time>2017-09-22T09:56:14Z</time>
      </trkpt>
      <trkpt lat="44.51963" lon="1.55954">
        <ele>185</ele>
        <time>2017-09-22T09:56:21Z</time>
      </trkpt>
      <trkpt lat="44.5196" lon="1.5595">
        <ele>184</ele>
        <time>2017-09-22T09:56:24Z</time>
      </trkpt>
      <trkpt lat="44.51949" lon="1.55937">
        <ele>183</ele>
        <time>2017-09-22T09:56:41Z</time>
      </trkpt>
      <trkpt lat="44.51945" lon="1.55931">
        <ele>182</ele>
        <time>2017-09-22T09:56:46Z</time>
      </trkpt>
      <trkpt lat="44.51944" lon="1.55927">
        <ele>181</ele>
        <time>2017-09-22T09:56:50Z</time>
      </trkpt>
      <trkpt lat="44.51942" lon="1.55924">
        <ele>181</ele>
        <time>2017-09-22T09:56:55Z</time>
      </trkpt>
      <trkpt lat="44.51941" lon="1.55918">
        <ele>180</ele>
        <time>2017-09-22T09:56:59Z</time>
      </trkpt>
      <trkpt lat="44.5194" lon="1.55913">
        <ele>172</ele>
        <time>2017-09-22T09:57:02Z</time>
      </trkpt>
      <trkpt lat="44.51939" lon="1.55907">
        <ele>172</ele>
        <time>2017-09-22T09:57:06Z</time>
      </trkpt>
      <trkpt lat="44.51937" lon="1.55902">
        <ele>172</ele>
        <time>2017-09-22T09:57:11Z</time>
      </trkpt>
      <trkpt lat="44.51933" lon="1.55894">
        <ele>171</ele>
        <time>2017-09-22T09:57:17Z</time>
      </trkpt>
      <trkpt lat="44.51921" lon="1.55876">
        <ele>169</ele>
        <time>2017-09-22T09:57:31Z</time>
      </trkpt>
      <trkpt lat="44.5191" lon="1.55866">
        <ele>168</ele>
        <time>2017-09-22T09:57:41Z</time>
      </trkpt>
      <trkpt lat="44.51906" lon="1.55864">
        <ele>168</ele>
        <time>2017-09-22T09:57:44Z</time>
      </trkpt>
      <trkpt lat="44.51903" lon="1.5586">
        <ele>167</ele>
        <time>2017-09-22T09:57:48Z</time>
      </trkpt>
      <trkpt lat="44.51902" lon="1.55858">
        <ele>167</ele>
        <time>2017-09-22T09:57:51Z</time>
      </trkpt>
      <trkpt lat="44.519" lon="1.55855">
        <ele>167</ele>
        <time>2017-09-22T09:58:00Z</time>
      </trkpt>
      <trkpt lat="44.51903" lon="1.55853">
        <ele>166</ele>
        <time>2017-09-22T09:58:37Z</time>
      </trkpt>
      <trkpt lat="44.51905" lon="1.55853">
        <ele>166</ele>
        <time>2017-09-22T09:58:44Z</time>
      </trkpt>
      <trkpt lat="44.51909" lon="1.5585">
        <ele>165</ele>
        <time>2017-09-22T09:58:51Z</time>
      </trkpt>
      <trkpt lat="44.51913" lon="1.55847">
        <ele>164</ele>
        <time>2017-09-22T09:58:55Z</time>
      </trkpt>
      <trkpt lat="44.51917" lon="1.55841">
        <ele>163</ele>
        <time>2017-09-22T09:59:00Z</time>
      </trkpt>
      <trkpt lat="44.51923" lon="1.55838">
        <ele>163</ele>
        <time>2017-09-22T09:59:06Z</time>
      </trkpt>
      <trkpt lat="44.51929" lon="1.55834">
        <ele>164</ele>
        <time>2017-09-22T09:59:12Z</time>
      </trkpt>
      <trkpt lat="44.51936" lon="1.5583">
        <ele>160</ele>
        <time>2017-09-22T09:59:18Z</time>
      </trkpt>
      <trkpt lat="44.51945" lon="1.55829">
        <ele>161</ele>
        <time>2017-09-22T09:59:25Z</time>
      </trkpt>
      <trkpt lat="44.51946" lon="1.55829">
        <ele>161</ele>
        <time>2017-09-22T09:59:35Z</time>
      </trkpt>
      <trkpt lat="44.51949" lon="1.55831">
        <ele>161</ele>
        <time>2017-09-22T09:59:50Z</time>
      </trkpt>
      <trkpt lat="44.51953" lon="1.55828">
        <ele>161</ele>
        <time>2017-09-22T09:59:55Z</time>
      </trkpt>
      <trkpt lat="44.51963" lon="1.55823">
        <ele>161</ele>
        <time>2017-09-22T10:00:06Z</time>
      </trkpt>
      <trkpt lat="44.51977" lon="1.55815">
        <ele>162</ele>
        <time>2017-09-22T10:00:18Z</time>
      </trkpt>
      <trkpt lat="44.51981" lon="1.55815">
        <ele>162</ele>
        <time>2017-09-22T10:00:23Z</time>
      </trkpt>
      <trkpt lat="44.51993" lon="1.55815">
        <ele>163</ele>
        <time>2017-09-22T10:00:33Z</time>
      </trkpt>
      <trkpt lat="44.52004" lon="1.55816">
        <ele>167</ele>
        <time>2017-09-22T10:00:42Z</time>
      </trkpt>
      <trkpt lat="44.52009" lon="1.55814">
        <ele>167</ele>
        <time>2017-09-22T10:00:48Z</time>
      </trkpt>
      <trkpt lat="44.52014" lon="1.55813">
        <ele>167</ele>
        <time>2017-09-22T10:00:52Z</time>
      </trkpt>
      <trkpt lat="44.52019" lon="1.55812">
        <ele>168</ele>
        <time>2017-09-22T10:00:56Z</time>
      </trkpt>
      <trkpt lat="44.52042" lon="1.55807">
        <ele>169</ele>
        <time>2017-09-22T10:01:13Z</time>
      </trkpt>
      <trkpt lat="44.52053" lon="1.55795">
        <ele>169</ele>
        <time>2017-09-22T10:01:23Z</time>
      </trkpt>
      <trkpt lat="44.52061" lon="1.55789">
        <ele>168</ele>
        <time>2017-09-22T10:01:29Z</time>
      </trkpt>
      <trkpt lat="44.52088" lon="1.55765">
        <ele>171</ele>
        <time>2017-09-22T10:01:54Z</time>
      </trkpt>
      <trkpt lat="44.52091" lon="1.55761">
        <ele>171</ele>
        <time>2017-09-22T10:01:57Z</time>
      </trkpt>
      <trkpt lat="44.52126" lon="1.55726">
        <ele>165</ele>
        <time>2017-09-22T10:02:28Z</time>
      </trkpt>
      <trkpt lat="44.52144" lon="1.55711">
        <ele>165</ele>
        <time>2017-09-22T10:02:43Z</time>
      </trkpt>
      <trkpt lat="44.52148" lon="1.55707">
        <ele>165</ele>
        <time>2017-09-22T10:02:46Z</time>
      </trkpt>
      <trkpt lat="44.52152" lon="1.55705">
        <ele>165</ele>
        <time>2017-09-22T10:02:49Z</time>
      </trkpt>
      <trkpt lat="44.52156" lon="1.55704">
        <ele>165</ele>
        <time>2017-09-22T10:02:53Z</time>
      </trkpt>
      <trkpt lat="44.5216" lon="1.55705">
        <ele>166</ele>
        <time>2017-09-22T10:02:56Z</time>
      </trkpt>
      <trkpt lat="44.52165" lon="1.55707">
        <ele>166</ele>
        <time>2017-09-22T10:02:59Z</time>
      </trkpt>
      <trkpt lat="44.52182" lon="1.5571">
        <ele>171</ele>
        <time>2017-09-22T10:03:11Z</time>
      </trkpt>
      <trkpt lat="44.52186" lon="1.55711">
        <ele>171</ele>
        <time>2017-09-22T10:03:14Z</time>
      </trkpt>
      <trkpt lat="44.52195" lon="1.5571">
        <ele>171</ele>
        <time>2017-09-22T10:03:20Z</time>
      </trkpt>
      <trkpt lat="44.52196" lon="1.55713">
        <ele>171</ele>
        <time>2017-09-22T10:03:34Z</time>
      </trkpt>
      <trkpt lat="44.522" lon="1.55712">
        <ele>171</ele>
        <time>2017-09-22T10:03:38Z</time>
      </trkpt>
      <trkpt lat="44.52207" lon="1.55709">
        <ele>171</ele>
        <time>2017-09-22T10:03:44Z</time>
      </trkpt>
      <trkpt lat="44.52216" lon="1.55709">
        <ele>172</ele>
        <time>2017-09-22T10:03:50Z</time>
      </trkpt>
      <trkpt lat="44.52219" lon="1.55707">
        <ele>171</ele>
        <time>2017-09-22T10:03:53Z</time>
      </trkpt>
      <trkpt lat="44.52224" lon="1.55709">
        <ele>172</ele>
        <time>2017-09-22T10:03:56Z</time>
      </trkpt>
      <trkpt lat="44.52234" lon="1.55707">
        <ele>172</ele>
        <time>2017-09-22T10:04:17Z</time>
      </trkpt>
      <trkpt lat="44.52238" lon="1.55707">
        <ele>172</ele>
        <time>2017-09-22T10:04:20Z</time>
      </trkpt>
      <trkpt lat="44.52242" lon="1.55705">
        <ele>172</ele>
        <time>2017-09-22T10:04:23Z</time>
      </trkpt>
      <trkpt lat="44.52246" lon="1.55704">
        <ele>171</ele>
        <time>2017-09-22T10:04:26Z</time>
      </trkpt>
      <trkpt lat="44.52249" lon="1.55702">
        <ele>171</ele>
        <time>2017-09-22T10:04:28Z</time>
      </trkpt>
      <trkpt lat="44.52282" lon="1.55693">
        <ele>174</ele>
        <time>2017-09-22T10:04:50Z</time>
      </trkpt>
      <trkpt lat="44.52286" lon="1.55689">
        <ele>173</ele>
        <time>2017-09-22T10:04:54Z</time>
      </trkpt>
      <trkpt lat="44.52291" lon="1.55688">
        <ele>173</ele>
        <time>2017-09-22T10:04:57Z</time>
      </trkpt>
      <trkpt lat="44.52299" lon="1.55684">
        <ele>173</ele>
        <time>2017-09-22T10:05:03Z</time>
      </trkpt>
      <trkpt lat="44.52304" lon="1.55683">
        <ele>173</ele>
        <time>2017-09-22T10:05:06Z</time>
      </trkpt>
      <trkpt lat="44.52309" lon="1.55684">
        <ele>173</ele>
        <time>2017-09-22T10:05:09Z</time>
      </trkpt>
      <trkpt lat="44.52319" lon="1.55683">
        <ele>172</ele>
        <time>2017-09-22T10:05:15Z</time>
      </trkpt>
      <trkpt lat="44.5234" lon="1.55679">
        <ele>171</ele>
        <time>2017-09-22T10:05:32Z</time>
      </trkpt>
      <trkpt lat="44.5235" lon="1.5568">
        <ele>172</ele>
        <time>2017-09-22T10:05:42Z</time>
      </trkpt>
      <trkpt lat="44.52356" lon="1.55678">
        <ele>172</ele>
        <time>2017-09-22T10:05:47Z</time>
      </trkpt>
      <trkpt lat="44.52361" lon="1.55679">
        <ele>173</ele>
        <time>2017-09-22T10:05:51Z</time>
      </trkpt>
      <trkpt lat="44.52374" lon="1.55679">
        <ele>173</ele>
        <time>2017-09-22T10:06:01Z</time>
      </trkpt>
      <trkpt lat="44.52387" lon="1.55677">
        <ele>172</ele>
        <time>2017-09-22T10:06:11Z</time>
      </trkpt>
      <trkpt lat="44.52391" lon="1.55679">
        <ele>172</ele>
        <time>2017-09-22T10:06:15Z</time>
      </trkpt>
      <trkpt lat="44.5242" lon="1.55684">
        <ele>169</ele>
        <time>2017-09-22T10:06:37Z</time>
      </trkpt>
      <trkpt lat="44.52425" lon="1.55683">
        <ele>169</ele>
        <time>2017-09-22T10:06:42Z</time>
      </trkpt>
      <trkpt lat="44.52437" lon="1.55688">
        <ele>170</ele>
        <time>2017-09-22T10:06:52Z</time>
      </trkpt>
      <trkpt lat="44.52441" lon="1.55692">
        <ele>171</ele>
        <time>2017-09-22T10:06:57Z</time>
      </trkpt>
      <trkpt lat="44.52445" lon="1.55693">
        <ele>171</ele>
        <time>2017-09-22T10:07:00Z</time>
      </trkpt>
      <trkpt lat="44.5245" lon="1.55695">
        <ele>171</ele>
        <time>2017-09-22T10:07:03Z</time>
      </trkpt>
      <trkpt lat="44.52457" lon="1.55698">
        <ele>171</ele>
        <time>2017-09-22T10:07:09Z</time>
      </trkpt>
      <trkpt lat="44.52482" lon="1.55705">
        <ele>172</ele>
        <time>2017-09-22T10:07:29Z</time>
      </trkpt>
      <trkpt lat="44.52488" lon="1.55707">
        <ele>172</ele>
        <time>2017-09-22T10:07:36Z</time>
      </trkpt>
      <trkpt lat="44.52495" lon="1.55707">
        <ele>172</ele>
        <time>2017-09-22T10:07:42Z</time>
      </trkpt>
      <trkpt lat="44.525" lon="1.55708">
        <ele>172</ele>
        <time>2017-09-22T10:07:48Z</time>
      </trkpt>
      <trkpt lat="44.52503" lon="1.55707">
        <ele>170</ele>
        <time>2017-09-22T10:07:51Z</time>
      </trkpt>
      <trkpt lat="44.52535" lon="1.55724">
        <ele>172</ele>
        <time>2017-09-22T10:08:26Z</time>
      </trkpt>
      <trkpt lat="44.52541" lon="1.55724">
        <ele>172</ele>
        <time>2017-09-22T10:08:34Z</time>
      </trkpt>
      <trkpt lat="44.52552" lon="1.55723">
        <ele>172</ele>
        <time>2017-09-22T10:08:44Z</time>
      </trkpt>
      <trkpt lat="44.52589" lon="1.55728">
        <ele>172</ele>
        <time>2017-09-22T10:09:15Z</time>
      </trkpt>
      <trkpt lat="44.52625" lon="1.55729">
        <ele>171</ele>
        <time>2017-09-22T10:09:47Z</time>
      </trkpt>
      <trkpt lat="44.52648" lon="1.5573">
        <ele>171</ele>
        <time>2017-09-22T10:10:05Z</time>
      </trkpt>
      <trkpt lat="44.52654" lon="1.5573">
        <ele>171</ele>
        <time>2017-09-22T10:10:11Z</time>
      </trkpt>
      <trkpt lat="44.52662" lon="1.55731">
        <ele>172</ele>
        <time>2017-09-22T10:10:17Z</time>
      </trkpt>
      <trkpt lat="44.52713" lon="1.55718">
        <ele>173</ele>
        <time>2017-09-22T10:10:47Z</time>
      </trkpt>
      <trkpt lat="44.52717" lon="1.55715">
        <ele>173</ele>
        <time>2017-09-22T10:10:51Z</time>
      </trkpt>
      <trkpt lat="44.52728" lon="1.55693">
        <ele>172</ele>
        <time>2017-09-22T10:11:06Z</time>
      </trkpt>
      <trkpt lat="44.5273" lon="1.55687">
        <ele>172</ele>
        <time>2017-09-22T10:11:10Z</time>
      </trkpt>
      <trkpt lat="44.52739" lon="1.55675">
        <ele>171</ele>
        <time>2017-09-22T10:11:19Z</time>
      </trkpt>
      <trkpt lat="44.52754" lon="1.55655">
        <ele>176</ele>
        <time>2017-09-22T10:11:37Z</time>
      </trkpt>
      <trkpt lat="44.52764" lon="1.5564">
        <ele>179</ele>
        <time>2017-09-22T10:11:49Z</time>
      </trkpt>
      <trkpt lat="44.52767" lon="1.55625">
        <ele>180</ele>
        <time>2017-09-22T10:11:58Z</time>
      </trkpt>
      <trkpt lat="44.52768" lon="1.55594">
        <ele>177</ele>
        <time>2017-09-22T10:12:16Z</time>
      </trkpt>
      <trkpt lat="44.5277" lon="1.55577">
        <ele>172</ele>
        <time>2017-09-22T10:12:26Z</time>
      </trkpt>
      <trkpt lat="44.52774" lon="1.55559">
        <ele>173</ele>
        <time>2017-09-22T10:12:39Z</time>
      </trkpt>
      <trkpt lat="44.52777" lon="1.55545">
        <ele>173</ele>
        <time>2017-09-22T10:12:47Z</time>
      </trkpt>
      <trkpt lat="44.52777" lon="1.55539">
        <ele>173</ele>
        <time>2017-09-22T10:12:51Z</time>
      </trkpt>
      <trkpt lat="44.5278" lon="1.55529">
        <ele>173</ele>
        <time>2017-09-22T10:12:57Z</time>
      </trkpt>
      <trkpt lat="44.5278" lon="1.55524">
        <ele>173</ele>
        <time>2017-09-22T10:13:00Z</time>
      </trkpt>
      <trkpt lat="44.52786" lon="1.55492">
        <ele>168</ele>
        <time>2017-09-22T10:13:17Z</time>
      </trkpt>
      <trkpt lat="44.52787" lon="1.55486">
        <ele>168</ele>
        <time>2017-09-22T10:13:20Z</time>
      </trkpt>
      <trkpt lat="44.52789" lon="1.55482">
        <ele>168</ele>
        <time>2017-09-22T10:13:23Z</time>
      </trkpt>
      <trkpt lat="44.5279" lon="1.55476">
        <ele>168</ele>
        <time>2017-09-22T10:13:26Z</time>
      </trkpt>
      <trkpt lat="44.52793" lon="1.55471">
        <ele>168</ele>
        <time>2017-09-22T10:13:30Z</time>
      </trkpt>
      <trkpt lat="44.52795" lon="1.55464">
        <ele>168</ele>
        <time>2017-09-22T10:13:34Z</time>
      </trkpt>
      <trkpt lat="44.52798" lon="1.5546">
        <ele>167</ele>
        <time>2017-09-22T10:13:38Z</time>
      </trkpt>
      <trkpt lat="44.52807" lon="1.5545">
        <ele>167</ele>
        <time>2017-09-22T10:13:50Z</time>
      </trkpt>
      <trkpt lat="44.52826" lon="1.55444">
        <ele>167</ele>
        <time>2017-09-22T10:14:02Z</time>
      </trkpt>
      <trkpt lat="44.52833" lon="1.55442">
        <ele>167</ele>
        <time>2017-09-22T10:14:12Z</time>
      </trkpt>
      <trkpt lat="44.52839" lon="1.5544">
        <ele>167</ele>
        <time>2017-09-22T10:14:19Z</time>
      </trkpt>
      <trkpt lat="44.52851" lon="1.55443">
        <ele>168</ele>
        <time>2017-09-22T10:14:32Z</time>
      </trkpt>
      <trkpt lat="44.52854" lon="1.55441">
        <ele>168</ele>
        <time>2017-09-22T10:14:34Z</time>
      </trkpt>
      <trkpt lat="44.52858" lon="1.55445">
        <ele>168</ele>
        <time>2017-09-22T10:14:40Z</time>
      </trkpt>
      <trkpt lat="44.52865" lon="1.55451">
        <ele>168</ele>
        <time>2017-09-22T10:14:49Z</time>
      </trkpt>
      <trkpt lat="44.5287" lon="1.55467">
        <ele>168</ele>
        <time>2017-09-22T10:14:59Z</time>
      </trkpt>
      <trkpt lat="44.5287" lon="1.55474">
        <ele>168</ele>
        <time>2017-09-22T10:15:05Z</time>
      </trkpt>
      <trkpt lat="44.52874" lon="1.55482">
        <ele>168</ele>
        <time>2017-09-22T10:15:12Z</time>
      </trkpt>
      <trkpt lat="44.52874" lon="1.5549">
        <ele>168</ele>
        <time>2017-09-22T10:15:17Z</time>
      </trkpt>
      <trkpt lat="44.52874" lon="1.55497">
        <ele>168</ele>
        <time>2017-09-22T10:15:22Z</time>
      </trkpt>
      <trkpt lat="44.52875" lon="1.55505">
        <ele>176</ele>
        <time>2017-09-22T10:15:26Z</time>
      </trkpt>
      <trkpt lat="44.52879" lon="1.5551">
        <ele>176</ele>
        <time>2017-09-22T10:15:30Z</time>
      </trkpt>
      <trkpt lat="44.52888" lon="1.55525">
        <ele>177</ele>
        <time>2017-09-22T10:15:44Z</time>
      </trkpt>
      <trkpt lat="44.52895" lon="1.55535">
        <ele>178</ele>
        <time>2017-09-22T10:15:53Z</time>
      </trkpt>
      <trkpt lat="44.52899" lon="1.55537">
        <ele>178</ele>
        <time>2017-09-22T10:15:56Z</time>
      </trkpt>
      <trkpt lat="44.52902" lon="1.55542">
        <ele>179</ele>
        <time>2017-09-22T10:16:01Z</time>
      </trkpt>
      <trkpt lat="44.52907" lon="1.55548">
        <ele>180</ele>
        <time>2017-09-22T10:16:06Z</time>
      </trkpt>
      <trkpt lat="44.52913" lon="1.55553">
        <ele>181</ele>
        <time>2017-09-22T10:16:11Z</time>
      </trkpt>
      <trkpt lat="44.52918" lon="1.55557">
        <ele>178</ele>
        <time>2017-09-22T10:16:16Z</time>
      </trkpt>
      <trkpt lat="44.52935" lon="1.55574">
        <ele>179</ele>
        <time>2017-09-22T10:16:33Z</time>
      </trkpt>
      <trkpt lat="44.52939" lon="1.55582">
        <ele>179</ele>
        <time>2017-09-22T10:16:38Z</time>
      </trkpt>
      <trkpt lat="44.5296" lon="1.55605">
        <ele>195</ele>
        <time>2017-09-22T10:16:58Z</time>
      </trkpt>
      <trkpt lat="44.52966" lon="1.55613">
        <ele>196</ele>
        <time>2017-09-22T10:17:09Z</time>
      </trkpt>
      <trkpt lat="44.52982" lon="1.55615">
        <ele>195</ele>
        <time>2017-09-22T10:17:20Z</time>
      </trkpt>
      <trkpt lat="44.53005" lon="1.5562">
        <ele>193</ele>
        <time>2017-09-22T10:17:35Z</time>
      </trkpt>
      <trkpt lat="44.53011" lon="1.55616">
        <ele>191</ele>
        <time>2017-09-22T10:17:41Z</time>
      </trkpt>
      <trkpt lat="44.53023" lon="1.55611">
        <ele>190</ele>
        <time>2017-09-22T10:17:52Z</time>
      </trkpt>
      <trkpt lat="44.53034" lon="1.55607">
        <ele>190</ele>
        <time>2017-09-22T10:18:02Z</time>
      </trkpt>
      <trkpt lat="44.53045" lon="1.55603">
        <ele>190</ele>
        <time>2017-09-22T10:18:10Z</time>
      </trkpt>
      <trkpt lat="44.5305" lon="1.55599">
        <ele>189</ele>
        <time>2017-09-22T10:18:14Z</time>
      </trkpt>
      <trkpt lat="44.53054" lon="1.55594">
        <ele>188</ele>
        <time>2017-09-22T10:18:18Z</time>
      </trkpt>
      <trkpt lat="44.53062" lon="1.55585">
        <ele>185</ele>
        <time>2017-09-22T10:18:28Z</time>
      </trkpt>
      <trkpt lat="44.53063" lon="1.55582">
        <ele>173</ele>
        <time>2017-09-22T10:19:11Z</time>
      </trkpt>
      <trkpt lat="44.53066" lon="1.55578">
        <ele>173</ele>
        <time>2017-09-22T10:19:14Z</time>
      </trkpt>
      <trkpt lat="44.53068" lon="1.55573">
        <ele>173</ele>
        <time>2017-09-22T10:19:19Z</time>
      </trkpt>
      <trkpt lat="44.5307" lon="1.55565">
        <ele>172</ele>
        <time>2017-09-22T10:19:24Z</time>
      </trkpt>
      <trkpt lat="44.53067" lon="1.55554">
        <ele>171</ele>
        <time>2017-09-22T10:19:32Z</time>
      </trkpt>
      <trkpt lat="44.53065" lon="1.5555">
        <ele>171</ele>
        <time>2017-09-22T10:19:36Z</time>
      </trkpt>
      <trkpt lat="44.53061" lon="1.55546">
        <ele>171</ele>
        <time>2017-09-22T10:19:41Z</time>
      </trkpt>
      <trkpt lat="44.53053" lon="1.55536">
        <ele>170</ele>
        <time>2017-09-22T10:19:51Z</time>
      </trkpt>
      <trkpt lat="44.53051" lon="1.55534">
        <ele>170</ele>
        <time>2017-09-22T10:19:56Z</time>
      </trkpt>
      <trkpt lat="44.53049" lon="1.5553">
        <ele>170</ele>
        <time>2017-09-22T10:20:01Z</time>
      </trkpt>
      <trkpt lat="44.53048" lon="1.55528">
        <ele>169</ele>
        <time>2017-09-22T10:20:07Z</time>
      </trkpt>
      <trkpt lat="44.5305" lon="1.55522">
        <ele>169</ele>
        <time>2017-09-22T10:20:33Z</time>
      </trkpt>
      <trkpt lat="44.53045" lon="1.55509">
        <ele>169</ele>
        <time>2017-09-22T10:20:44Z</time>
      </trkpt>
      <trkpt lat="44.53045" lon="1.55506">
        <ele>169</ele>
        <time>2017-09-22T10:20:46Z</time>
      </trkpt>
      <trkpt lat="44.53042" lon="1.5549">
        <ele>170</ele>
        <time>2017-09-22T10:21:08Z</time>
      </trkpt>
      <trkpt lat="44.5304" lon="1.55487">
        <ele>170</ele>
        <time>2017-09-22T10:21:11Z</time>
      </trkpt>
      <trkpt lat="44.53037" lon="1.55477">
        <ele>170</ele>
        <time>2017-09-22T10:21:17Z</time>
      </trkpt>
      <trkpt lat="44.53036" lon="1.55471">
        <ele>171</ele>
        <time>2017-09-22T10:21:20Z</time>
      </trkpt>
      <trkpt lat="44.53038" lon="1.55458">
        <ele>171</ele>
        <time>2017-09-22T10:21:24Z</time>
      </trkpt>
      <trkpt lat="44.53041" lon="1.55449">
        <ele>172</ele>
        <time>2017-09-22T10:21:29Z</time>
      </trkpt>
      <trkpt lat="44.53043" lon="1.55444">
        <ele>172</ele>
        <time>2017-09-22T10:21:32Z</time>
      </trkpt>
      <trkpt lat="44.53047" lon="1.55442">
        <ele>172</ele>
        <time>2017-09-22T10:21:35Z</time>
      </trkpt>
      <trkpt lat="44.53053" lon="1.55433">
        <ele>172</ele>
        <time>2017-09-22T10:21:42Z</time>
      </trkpt>
      <trkpt lat="44.53057" lon="1.55429">
        <ele>173</ele>
        <time>2017-09-22T10:21:45Z</time>
      </trkpt>
      <trkpt lat="44.53067" lon="1.55416">
        <ele>182</ele>
        <time>2017-09-22T10:21:54Z</time>
      </trkpt>
      <trkpt lat="44.53075" lon="1.55404">
        <ele>182</ele>
        <time>2017-09-22T10:22:04Z</time>
      </trkpt>
      <trkpt lat="44.53078" lon="1.55398">
        <ele>183</ele>
        <time>2017-09-22T10:22:08Z</time>
      </trkpt>
      <trkpt lat="44.53087" lon="1.55388">
        <ele>187</ele>
        <time>2017-09-22T10:22:17Z</time>
      </trkpt>
      <trkpt lat="44.53103" lon="1.55374">
        <ele>191</ele>
        <time>2017-09-22T10:22:33Z</time>
      </trkpt>
      <trkpt lat="44.53109" lon="1.55373">
        <ele>192</ele>
        <time>2017-09-22T10:22:38Z</time>
      </trkpt>
      <trkpt lat="44.53125" lon="1.55372">
        <ele>192</ele>
        <time>2017-09-22T10:22:50Z</time>
      </trkpt>
      <trkpt lat="44.53141" lon="1.55377">
        <ele>191</ele>
        <time>2017-09-22T10:23:00Z</time>
      </trkpt>
      <trkpt lat="44.53144" lon="1.55378">
        <ele>190</ele>
        <time>2017-09-22T10:23:02Z</time>
      </trkpt>
      <trkpt lat="44.53165" lon="1.55389">
        <ele>186</ele>
        <time>2017-09-22T10:23:17Z</time>
      </trkpt>
      <trkpt lat="44.53197" lon="1.55419">
        <ele>177</ele>
        <time>2017-09-22T10:23:45Z</time>
      </trkpt>
      <trkpt lat="44.53224" lon="1.55464">
        <ele>177</ele>
        <time>2017-09-22T10:24:16Z</time>
      </trkpt>
      <trkpt lat="44.53229" lon="1.55478">
        <ele>176</ele>
        <time>2017-09-22T10:24:25Z</time>
      </trkpt>
      <trkpt lat="44.53236" lon="1.55491">
        <ele>176</ele>
        <time>2017-09-22T10:24:33Z</time>
      </trkpt>
      <trkpt lat="44.53242" lon="1.55508">
        <ele>173</ele>
        <time>2017-09-22T10:24:43Z</time>
      </trkpt>
      <trkpt lat="44.53246" lon="1.55516">
        <ele>173</ele>
        <time>2017-09-22T10:24:48Z</time>
      </trkpt>
      <trkpt lat="44.53248" lon="1.5552">
        <ele>173</ele>
        <time>2017-09-22T10:24:50Z</time>
      </trkpt>
      <trkpt lat="44.53248" lon="1.55524">
        <ele>173</ele>
        <time>2017-09-22T10:24:53Z</time>
      </trkpt>
      <trkpt lat="44.53263" lon="1.55583">
        <ele>178</ele>
        <time>2017-09-22T10:25:24Z</time>
      </trkpt>
      <trkpt lat="44.53277" lon="1.55636">
        <ele>177</ele>
        <time>2017-09-22T10:25:53Z</time>
      </trkpt>
      <trkpt lat="44.53286" lon="1.55651">
        <ele>178</ele>
        <time>2017-09-22T10:26:03Z</time>
      </trkpt>
      <trkpt lat="44.53301" lon="1.55658">
        <ele>179</ele>
        <time>2017-09-22T10:26:14Z</time>
      </trkpt>
      <trkpt lat="44.53321" lon="1.55673">
        <ele>178</ele>
        <time>2017-09-22T10:26:30Z</time>
      </trkpt>
      <trkpt lat="44.53357" lon="1.55702">
        <ele>177</ele>
        <time>2017-09-22T10:27:01Z</time>
      </trkpt>
      <trkpt lat="44.53377" lon="1.55717">
        <ele>176</ele>
        <time>2017-09-22T10:27:19Z</time>
      </trkpt>
      <trkpt lat="44.53384" lon="1.55724">
        <ele>176</ele>
        <time>2017-09-22T10:27:26Z</time>
      </trkpt>
      <trkpt lat="44.53396" lon="1.5573">
        <ele>176</ele>
        <time>2017-09-22T10:27:34Z</time>
      </trkpt>
      <trkpt lat="44.534" lon="1.55733">
        <ele>177</ele>
        <time>2017-09-22T10:27:37Z</time>
      </trkpt>
      <trkpt lat="44.53418" lon="1.55743">
        <ele>177</ele>
        <time>2017-09-22T10:27:50Z</time>
      </trkpt>
      <trkpt lat="44.53423" lon="1.55744">
        <ele>177</ele>
        <time>2017-09-22T10:27:54Z</time>
      </trkpt>
      <trkpt lat="44.53428" lon="1.55745">
        <ele>177</ele>
        <time>2017-09-22T10:27:58Z</time>
      </trkpt>
      <trkpt lat="44.53466" lon="1.55754">
        <ele>189</ele>
        <time>2017-09-22T10:28:28Z</time>
      </trkpt>
      <trkpt lat="44.5348" lon="1.55757">
        <ele>187</ele>
        <time>2017-09-22T10:28:38Z</time>
      </trkpt>
      <trkpt lat="44.53489" lon="1.55755">
        <ele>185</ele>
        <time>2017-09-22T10:28:46Z</time>
      </trkpt>
      <trkpt lat="44.53494" lon="1.55755">
        <ele>183</ele>
        <time>2017-09-22T10:28:50Z</time>
      </trkpt>
      <trkpt lat="44.53499" lon="1.55757">
        <ele>183</ele>
        <time>2017-09-22T10:28:53Z</time>
      </trkpt>
      <trkpt lat="44.53503" lon="1.55758">
        <ele>183</ele>
        <time>2017-09-22T10:28:57Z</time>
      </trkpt>
      <trkpt lat="44.53512" lon="1.55753">
        <ele>185</ele>
        <time>2017-09-22T10:29:06Z</time>
      </trkpt>
      <trkpt lat="44.53555" lon="1.55755">
        <ele>189</ele>
        <time>2017-09-22T10:29:37Z</time>
      </trkpt>
      <trkpt lat="44.53579" lon="1.55758">
        <ele>184</ele>
        <time>2017-09-22T10:29:56Z</time>
      </trkpt>
      <trkpt lat="44.53595" lon="1.55766">
        <ele>185</ele>
        <time>2017-09-22T10:30:10Z</time>
      </trkpt>
      <trkpt lat="44.53601" lon="1.55769">
        <ele>185</ele>
        <time>2017-09-22T10:30:16Z</time>
      </trkpt>
      <trkpt lat="44.53608" lon="1.5577">
        <ele>186</ele>
        <time>2017-09-22T10:30:20Z</time>
      </trkpt>
      <trkpt lat="44.53613" lon="1.55775">
        <ele>187</ele>
        <time>2017-09-22T10:30:27Z</time>
      </trkpt>
      <trkpt lat="44.53618" lon="1.55777">
        <ele>186</ele>
        <time>2017-09-22T10:30:29Z</time>
      </trkpt>
      <trkpt lat="44.53638" lon="1.55783">
        <ele>186</ele>
        <time>2017-09-22T10:30:42Z</time>
      </trkpt>
      <trkpt lat="44.53641" lon="1.55788">
        <ele>186</ele>
        <time>2017-09-22T10:30:46Z</time>
      </trkpt>
      <trkpt lat="44.5366" lon="1.55817">
        <ele>187</ele>
        <time>2017-09-22T10:31:07Z</time>
      </trkpt>
      <trkpt lat="44.53664" lon="1.55825">
        <ele>187</ele>
        <time>2017-09-22T10:31:13Z</time>
      </trkpt>
      <trkpt lat="44.53669" lon="1.55832">
        <ele>185</ele>
        <time>2017-09-22T10:31:18Z</time>
      </trkpt>
      <trkpt lat="44.53674" lon="1.55838">
        <ele>187</ele>
        <time>2017-09-22T10:31:23Z</time>
      </trkpt>
      <trkpt lat="44.53683" lon="1.55852">
        <ele>188</ele>
        <time>2017-09-22T10:31:33Z</time>
      </trkpt>
      <trkpt lat="44.53693" lon="1.55872">
        <ele>189</ele>
        <time>2017-09-22T10:31:47Z</time>
      </trkpt>
      <trkpt lat="44.53699" lon="1.55881">
        <ele>190</ele>
        <time>2017-09-22T10:31:54Z</time>
      </trkpt>
      <trkpt lat="44.53702" lon="1.55884">
        <ele>190</ele>
        <time>2017-09-22T10:31:58Z</time>
      </trkpt>
      <trkpt lat="44.53706" lon="1.55883">
        <ele>189</ele>
        <time>2017-09-22T10:32:01Z</time>
      </trkpt>
      <trkpt lat="44.53709" lon="1.55881">
        <ele>189</ele>
        <time>2017-09-22T10:32:03Z</time>
      </trkpt>
      <trkpt lat="44.53712" lon="1.55877">
        <ele>188</ele>
        <time>2017-09-22T10:32:06Z</time>
      </trkpt>
      <trkpt lat="44.53713" lon="1.55868">
        <ele>187</ele>
        <time>2017-09-22T10:32:12Z</time>
      </trkpt>
      <trkpt lat="44.53708" lon="1.55847">
        <ele>186</ele>
        <time>2017-09-22T10:32:26Z</time>
      </trkpt>
      <trkpt lat="44.53706" lon="1.55824">
        <ele>181</ele>
        <time>2017-09-22T10:32:38Z</time>
      </trkpt>
      <trkpt lat="44.53696" lon="1.55774">
        <ele>179</ele>
        <time>2017-09-22T10:33:08Z</time>
      </trkpt>
      <trkpt lat="44.53696" lon="1.55771">
        <ele>179</ele>
        <time>2017-09-22T10:33:10Z</time>
      </trkpt>
      <trkpt lat="44.53696" lon="1.55767">
        <ele>179</ele>
        <time>2017-09-22T10:33:12Z</time>
      </trkpt>
      <trkpt lat="44.53691" lon="1.55716">
        <ele>177</ele>
        <time>2017-09-22T10:33:42Z</time>
      </trkpt>
      <trkpt lat="44.5369" lon="1.55712">
        <ele>177</ele>
        <time>2017-09-22T10:33:44Z</time>
      </trkpt>
      <trkpt lat="44.53691" lon="1.55708">
        <ele>177</ele>
        <time>2017-09-22T10:33:47Z</time>
      </trkpt>
      <trkpt lat="44.537" lon="1.55688">
        <ele>177</ele>
        <time>2017-09-22T10:34:02Z</time>
      </trkpt>
      <trkpt lat="44.53705" lon="1.55682">
        <ele>177</ele>
        <time>2017-09-22T10:34:07Z</time>
      </trkpt>
      <trkpt lat="44.5371" lon="1.5568">
        <ele>177</ele>
        <time>2017-09-22T10:34:11Z</time>
      </trkpt>
      <trkpt lat="44.53735" lon="1.55682">
        <ele>177</ele>
        <time>2017-09-22T10:34:27Z</time>
      </trkpt>
      <trkpt lat="44.53739" lon="1.5568">
        <ele>178</ele>
        <time>2017-09-22T10:34:30Z</time>
      </trkpt>
      <trkpt lat="44.53743" lon="1.55678">
        <ele>178</ele>
        <time>2017-09-22T10:34:33Z</time>
      </trkpt>
      <trkpt lat="44.53748" lon="1.5566">
        <ele>179</ele>
        <time>2017-09-22T10:34:44Z</time>
      </trkpt>
      <trkpt lat="44.5375" lon="1.55655">
        <ele>180</ele>
        <time>2017-09-22T10:34:47Z</time>
      </trkpt>
      <trkpt lat="44.53752" lon="1.55649">
        <ele>181</ele>
        <time>2017-09-22T10:34:51Z</time>
      </trkpt>
      <trkpt lat="44.53755" lon="1.55642">
        <ele>181</ele>
        <time>2017-09-22T10:34:56Z</time>
      </trkpt>
      <trkpt lat="44.53759" lon="1.55635">
        <ele>182</ele>
        <time>2017-09-22T10:35:01Z</time>
      </trkpt>
      <trkpt lat="44.53768" lon="1.55624">
        <ele>182</ele>
        <time>2017-09-22T10:35:10Z</time>
      </trkpt>
      <trkpt lat="44.53768" lon="1.55616">
        <ele>182</ele>
        <time>2017-09-22T10:35:15Z</time>
      </trkpt>
      <trkpt lat="44.53768" lon="1.55607">
        <ele>182</ele>
        <time>2017-09-22T10:35:21Z</time>
      </trkpt>
      <trkpt lat="44.53768" lon="1.55599">
        <ele>182</ele>
        <time>2017-09-22T10:35:27Z</time>
      </trkpt>
      <trkpt lat="44.53765" lon="1.55593">
        <ele>182</ele>
        <time>2017-09-22T10:35:30Z</time>
      </trkpt>
      <trkpt lat="44.53771" lon="1.5558">
        <ele>188</ele>
        <time>2017-09-22T10:35:39Z</time>
      </trkpt>
      <trkpt lat="44.53772" lon="1.55573">
        <ele>189</ele>
        <time>2017-09-22T10:35:42Z</time>
      </trkpt>
      <trkpt lat="44.53779" lon="1.55559">
        <ele>191</ele>
        <time>2017-09-22T10:35:54Z</time>
      </trkpt>
      <trkpt lat="44.53786" lon="1.55555">
        <ele>192</ele>
        <time>2017-09-22T10:36:00Z</time>
      </trkpt>
      <trkpt lat="44.53791" lon="1.5555">
        <ele>192</ele>
        <time>2017-09-22T10:36:05Z</time>
      </trkpt>
      <trkpt lat="44.53798" lon="1.55547">
        <ele>192</ele>
        <time>2017-09-22T10:36:11Z</time>
      </trkpt>
      <trkpt lat="44.53802" lon="1.55542">
        <ele>193</ele>
        <time>2017-09-22T10:36:17Z</time>
      </trkpt>
      <trkpt lat="44.53823" lon="1.55532">
        <ele>194</ele>
        <time>2017-09-22T10:36:32Z</time>
      </trkpt>
      <trkpt lat="44.53848" lon="1.55517">
        <ele>192</ele>
        <time>2017-09-22T10:36:56Z</time>
      </trkpt>
      <trkpt lat="44.5386" lon="1.55513">
        <ele>190</ele>
        <time>2017-09-22T10:37:06Z</time>
      </trkpt>
      <trkpt lat="44.53865" lon="1.55511">
        <ele>190</ele>
        <time>2017-09-22T10:37:10Z</time>
      </trkpt>
      <trkpt lat="44.53874" lon="1.55498">
        <ele>198</ele>
        <time>2017-09-22T10:37:21Z</time>
      </trkpt>
      <trkpt lat="44.53878" lon="1.55491">
        <ele>198</ele>
        <time>2017-09-22T10:37:26Z</time>
      </trkpt>
      <trkpt lat="44.53885" lon="1.55485">
        <ele>197</ele>
        <time>2017-09-22T10:37:31Z</time>
      </trkpt>
      <trkpt lat="44.53897" lon="1.55462">
        <ele>198</ele>
        <time>2017-09-22T10:37:46Z</time>
      </trkpt>
      <trkpt lat="44.53904" lon="1.55452">
        <ele>198</ele>
        <time>2017-09-22T10:37:57Z</time>
      </trkpt>
      <trkpt lat="44.53912" lon="1.5545">
        <ele>197</ele>
        <time>2017-09-22T10:38:05Z</time>
      </trkpt>
      <trkpt lat="44.53914" lon="1.55448">
        <ele>197</ele>
        <time>2017-09-22T10:40:00Z</time>
      </trkpt>
      <trkpt lat="44.53914" lon="1.55439">
        <ele>197</ele>
        <time>2017-09-22T10:40:33Z</time>
      </trkpt>
      <trkpt lat="44.53919" lon="1.5544">
        <ele>190</ele>
        <time>2017-09-22T10:40:40Z</time>
      </trkpt>
      <trkpt lat="44.53923" lon="1.55437">
        <ele>190</ele>
        <time>2017-09-22T10:41:41Z</time>
      </trkpt>
      <trkpt lat="44.53929" lon="1.55434">
        <ele>190</ele>
        <time>2017-09-22T10:42:12Z</time>
      </trkpt>
      <trkpt lat="44.53926" lon="1.55431">
        <ele>190</ele>
        <time>2017-09-22T10:43:21Z</time>
      </trkpt>
      <trkpt lat="44.53931" lon="1.5543">
        <ele>190</ele>
        <time>2017-09-22T10:43:37Z</time>
      </trkpt>
      <trkpt lat="44.53935" lon="1.55422">
        <ele>190</ele>
        <time>2017-09-22T10:43:46Z</time>
      </trkpt>
      <trkpt lat="44.53939" lon="1.55415">
        <ele>192</ele>
        <time>2017-09-22T10:43:55Z</time>
      </trkpt>
      <trkpt lat="44.53944" lon="1.55409">
        <ele>192</ele>
        <time>2017-09-22T10:43:59Z</time>
      </trkpt>
      <trkpt lat="44.53947" lon="1.55401">
        <ele>192</ele>
        <time>2017-09-22T10:44:04Z</time>
      </trkpt>
      <trkpt lat="44.53958" lon="1.55391">
        <ele>192</ele>
        <time>2017-09-22T10:44:14Z</time>
      </trkpt>
      <trkpt lat="44.53965" lon="1.55387">
        <ele>192</ele>
        <time>2017-09-22T10:44:19Z</time>
      </trkpt>
      <trkpt lat="44.5397" lon="1.55381">
        <ele>191</ele>
        <time>2017-09-22T10:44:24Z</time>
      </trkpt>
      <trkpt lat="44.53975" lon="1.55375">
        <ele>191</ele>
        <time>2017-09-22T10:44:30Z</time>
      </trkpt>
      <trkpt lat="44.53986" lon="1.55361">
        <ele>191</ele>
        <time>2017-09-22T10:44:40Z</time>
      </trkpt>
      <trkpt lat="44.53993" lon="1.55341">
        <ele>189</ele>
        <time>2017-09-22T10:44:53Z</time>
      </trkpt>
      <trkpt lat="44.53997" lon="1.55333">
        <ele>189</ele>
        <time>2017-09-22T10:45:02Z</time>
      </trkpt>
      <trkpt lat="44.54009" lon="1.55319">
        <ele>191</ele>
        <time>2017-09-22T10:45:15Z</time>
      </trkpt>
      <trkpt lat="44.54016" lon="1.55318">
        <ele>192</ele>
        <time>2017-09-22T10:45:22Z</time>
      </trkpt>
      <trkpt lat="44.54042" lon="1.55321">
        <ele>192</ele>
        <time>2017-09-22T10:45:50Z</time>
      </trkpt>
      <trkpt lat="44.54047" lon="1.55321">
        <ele>191</ele>
        <time>2017-09-22T10:45:54Z</time>
      </trkpt>
      <trkpt lat="44.54061" lon="1.55326">
        <ele>189</ele>
        <time>2017-09-22T10:46:06Z</time>
      </trkpt>
      <trkpt lat="44.54069" lon="1.55325">
        <ele>188</ele>
        <time>2017-09-22T10:46:12Z</time>
      </trkpt>
      <trkpt lat="44.5408" lon="1.55323">
        <ele>186</ele>
        <time>2017-09-22T10:46:24Z</time>
      </trkpt>
      <trkpt lat="44.54086" lon="1.55321">
        <ele>184</ele>
        <time>2017-09-22T10:46:30Z</time>
      </trkpt>
      <trkpt lat="44.54092" lon="1.55317">
        <ele>185</ele>
        <time>2017-09-22T10:46:35Z</time>
      </trkpt>
      <trkpt lat="44.54098" lon="1.55314">
        <ele>186</ele>
        <time>2017-09-22T10:46:39Z</time>
      </trkpt>
      <trkpt lat="44.54104" lon="1.5531">
        <ele>186</ele>
        <time>2017-09-22T10:46:44Z</time>
      </trkpt>
      <trkpt lat="44.54109" lon="1.55307">
        <ele>187</ele>
        <time>2017-09-22T10:46:47Z</time>
      </trkpt>
      <trkpt lat="44.54129" lon="1.55292">
        <ele>187</ele>
        <time>2017-09-22T10:47:06Z</time>
      </trkpt>
      <trkpt lat="44.54134" lon="1.55286">
        <ele>187</ele>
        <time>2017-09-22T10:47:12Z</time>
      </trkpt>
      <trkpt lat="44.54138" lon="1.55278">
        <ele>187</ele>
        <time>2017-09-22T10:47:17Z</time>
      </trkpt>
      <trkpt lat="44.54142" lon="1.55269">
        <ele>187</ele>
        <time>2017-09-22T10:47:24Z</time>
      </trkpt>
      <trkpt lat="44.54145" lon="1.55261">
        <ele>187</ele>
        <time>2017-09-22T10:47:32Z</time>
      </trkpt>
      <trkpt lat="44.54151" lon="1.55252">
        <ele>186</ele>
        <time>2017-09-22T10:47:39Z</time>
      </trkpt>
      <trkpt lat="44.54157" lon="1.55245">
        <ele>190</ele>
        <time>2017-09-22T10:47:45Z</time>
      </trkpt>
      <trkpt lat="44.54164" lon="1.55236">
        <ele>191</ele>
        <time>2017-09-22T10:47:52Z</time>
      </trkpt>
      <trkpt lat="44.54171" lon="1.55228">
        <ele>187</ele>
        <time>2017-09-22T10:47:59Z</time>
      </trkpt>
      <trkpt lat="44.54179" lon="1.55219">
        <ele>188</ele>
        <time>2017-09-22T10:48:06Z</time>
      </trkpt>
      <trkpt lat="44.54193" lon="1.55202">
        <ele>189</ele>
        <time>2017-09-22T10:48:19Z</time>
      </trkpt>
      <trkpt lat="44.5421" lon="1.55192">
        <ele>188</ele>
        <time>2017-09-22T10:48:30Z</time>
      </trkpt>
      <trkpt lat="44.54213" lon="1.55185">
        <ele>188</ele>
        <time>2017-09-22T10:48:36Z</time>
      </trkpt>
      <trkpt lat="44.5422" lon="1.55183">
        <ele>188</ele>
        <time>2017-09-22T10:48:48Z</time>
      </trkpt>
      <trkpt lat="44.54225" lon="1.55179">
        <ele>187</ele>
        <time>2017-09-22T10:49:04Z</time>
      </trkpt>
      <trkpt lat="44.54234" lon="1.55168">
        <ele>186</ele>
        <time>2017-09-22T10:49:16Z</time>
      </trkpt>
      <trkpt lat="44.54244" lon="1.55149">
        <ele>191</ele>
        <time>2017-09-22T10:49:30Z</time>
      </trkpt>
      <trkpt lat="44.54247" lon="1.55142">
        <ele>193</ele>
        <time>2017-09-22T10:49:35Z</time>
      </trkpt>
      <trkpt lat="44.54256" lon="1.55129">
        <ele>185</ele>
        <time>2017-09-22T10:49:43Z</time>
      </trkpt>
      <trkpt lat="44.54266" lon="1.55117">
        <ele>186</ele>
        <time>2017-09-22T10:49:51Z</time>
      </trkpt>
      <trkpt lat="44.54268" lon="1.55099">
        <ele>186</ele>
        <time>2017-09-22T10:50:03Z</time>
      </trkpt>
      <trkpt lat="44.54266" lon="1.55091">
        <ele>187</ele>
        <time>2017-09-22T10:50:09Z</time>
      </trkpt>
      <trkpt lat="44.54256" lon="1.55062">
        <ele>188</ele>
        <time>2017-09-22T10:50:28Z</time>
      </trkpt>
      <trkpt lat="44.54253" lon="1.55053">
        <ele>188</ele>
        <time>2017-09-22T10:50:34Z</time>
      </trkpt>
      <trkpt lat="44.5425" lon="1.55044">
        <ele>188</ele>
        <time>2017-09-22T10:50:48Z</time>
      </trkpt>
      <trkpt lat="44.54252" lon="1.55035">
        <ele>189</ele>
        <time>2017-09-22T10:50:59Z</time>
      </trkpt>
      <trkpt lat="44.54257" lon="1.55022">
        <ele>190</ele>
        <time>2017-09-22T10:51:27Z</time>
      </trkpt>
      <trkpt lat="44.54254" lon="1.55026">
        <ele>189</ele>
        <time>2017-09-22T10:51:39Z</time>
      </trkpt>
      <trkpt lat="44.54254" lon="1.55033">
        <ele>189</ele>
        <time>2017-09-22T10:53:16Z</time>
      </trkpt>
      <trkpt lat="44.54261" lon="1.55036">
        <ele>188</ele>
        <time>2017-09-22T10:55:15Z</time>
      </trkpt>
      <trkpt lat="44.5426" lon="1.55026">
        <ele>189</ele>
        <time>2017-09-22T10:56:49Z</time>
      </trkpt>
      <trkpt lat="44.54258" lon="1.55024">
        <ele>190</ele>
        <time>2017-09-22T10:57:03Z</time>
      </trkpt>
      <trkpt lat="44.54257" lon="1.55028">
        <ele>189</ele>
        <time>2017-09-22T10:57:07Z</time>
      </trkpt>
      <trkpt lat="44.54258" lon="1.55032">
        <ele>189</ele>
        <time>2017-09-22T10:57:10Z</time>
      </trkpt>
      <trkpt lat="44.54256" lon="1.55031">
        <ele>189</ele>
        <time>2017-09-22T10:57:33Z</time>
      </trkpt>
      <trkpt lat="44.54257" lon="1.55027">
        <ele>189</ele>
        <time>2017-09-22T10:57:38Z</time>
      </trkpt>
      <trkpt lat="44.54257" lon="1.55022">
        <ele>190</ele>
        <time>2017-09-22T10:57:56Z</time>
      </trkpt>
      <trkpt lat="44.54257" lon="1.55021">
        <ele>190</ele>
        <time>2017-09-22T10:57:56Z</time>
      </trkpt>
      <trkpt lat="44.54256" lon="1.55015">
        <ele>191</ele>
        <time>2017-09-22T11:02:59Z</time>
      </trkpt>
      <trkpt lat="44.54265" lon="1.55018">
        <ele>189</ele>
        <time>2017-09-22T11:04:29Z</time>
      </trkpt>
      <trkpt lat="44.54265" lon="1.55025">
        <ele>189</ele>
        <time>2017-09-22T11:10:55Z</time>
      </trkpt>
      <trkpt lat="44.54262" lon="1.55022">
        <ele>189</ele>
        <time>2017-09-22T11:13:02Z</time>
      </trkpt>
      <trkpt lat="44.54259" lon="1.55021">
        <ele>190</ele>
        <time>2017-09-22T11:20:12Z</time>
      </trkpt>
      <trkpt lat="44.54253" lon="1.55022">
        <ele>190</ele>
        <time>2017-09-22T11:31:51Z</time>
      </trkpt>
      <trkpt lat="44.54253" lon="1.55022">
        <ele>190</ele>
        <time>2017-09-22T11:31:51Z</time>
      </trkpt>
      <trkpt lat="44.54256" lon="1.55027">
        <ele>189</ele>
        <time>2017-09-22T11:32:06Z</time>
      </trkpt>
      <trkpt lat="44.54258" lon="1.55031">
        <ele>189</ele>
        <time>2017-09-22T11:33:02Z</time>
      </trkpt>
      <trkpt lat="44.54254" lon="1.55034">
        <ele>189</ele>
        <time>2017-09-22T11:33:06Z</time>
      </trkpt>
      <trkpt lat="44.54255" lon="1.55033">
        <ele>189</ele>
        <time>2017-09-22T11:41:09Z</time>
      </trkpt>
      <trkpt lat="44.54251" lon="1.55029">
        <ele>189</ele>
        <time>2017-09-22T11:42:08Z</time>
      </trkpt>
      <trkpt lat="44.54249" lon="1.55035">
        <ele>204</ele>
        <time>2017-09-22T11:42:17Z</time>
      </trkpt>
      <trkpt lat="44.54246" lon="1.55033">
        <ele>204</ele>
        <time>2017-09-22T11:42:24Z</time>
      </trkpt>
      <trkpt lat="44.54246" lon="1.55027">
        <ele>204</ele>
        <time>2017-09-22T11:42:30Z</time>
      </trkpt>
      <trkpt lat="44.54245" lon="1.55021">
        <ele>203</ele>
        <time>2017-09-22T11:42:35Z</time>
      </trkpt>
      <trkpt lat="44.54243" lon="1.55007">
        <ele>200</ele>
        <time>2017-09-22T11:42:44Z</time>
      </trkpt>
      <trkpt lat="44.54248" lon="1.54987">
        <ele>206</ele>
        <time>2017-09-22T11:42:57Z</time>
      </trkpt>
      <trkpt lat="44.54261" lon="1.54944">
        <ele>195</ele>
        <time>2017-09-22T11:43:24Z</time>
      </trkpt>
      <trkpt lat="44.54267" lon="1.54934">
        <ele>196</ele>
        <time>2017-09-22T11:43:32Z</time>
      </trkpt>
      <trkpt lat="44.54267" lon="1.54929">
        <ele>196</ele>
        <time>2017-09-22T11:43:35Z</time>
      </trkpt>
      <trkpt lat="44.54273" lon="1.54916">
        <ele>199</ele>
        <time>2017-09-22T11:43:44Z</time>
      </trkpt>
      <trkpt lat="44.54275" lon="1.54908">
        <ele>198</ele>
        <time>2017-09-22T11:43:49Z</time>
      </trkpt>
      <trkpt lat="44.54279" lon="1.54901">
        <ele>198</ele>
        <time>2017-09-22T11:43:53Z</time>
      </trkpt>
      <trkpt lat="44.54282" lon="1.54894">
        <ele>197</ele>
        <time>2017-09-22T11:43:58Z</time>
      </trkpt>
      <trkpt lat="44.54285" lon="1.54886">
        <ele>196</ele>
        <time>2017-09-22T11:44:02Z</time>
      </trkpt>
      <trkpt lat="44.54288" lon="1.5488">
        <ele>196</ele>
        <time>2017-09-22T11:44:06Z</time>
      </trkpt>
      <trkpt lat="44.54294" lon="1.54867">
        <ele>196</ele>
        <time>2017-09-22T11:44:15Z</time>
      </trkpt>
      <trkpt lat="44.543" lon="1.54853">
        <ele>195</ele>
        <time>2017-09-22T11:44:23Z</time>
      </trkpt>
      <trkpt lat="44.54302" lon="1.54847">
        <ele>195</ele>
        <time>2017-09-22T11:44:28Z</time>
      </trkpt>
      <trkpt lat="44.54305" lon="1.5484">
        <ele>194</ele>
        <time>2017-09-22T11:44:33Z</time>
      </trkpt>
      <trkpt lat="44.5431" lon="1.54826">
        <ele>194</ele>
        <time>2017-09-22T11:44:42Z</time>
      </trkpt>
      <trkpt lat="44.54313" lon="1.54804">
        <ele>195</ele>
        <time>2017-09-22T11:44:55Z</time>
      </trkpt>
      <trkpt lat="44.54314" lon="1.54796">
        <ele>196</ele>
        <time>2017-09-22T11:45:00Z</time>
      </trkpt>
      <trkpt lat="44.54318" lon="1.54777">
        <ele>195</ele>
        <time>2017-09-22T11:45:11Z</time>
      </trkpt>
      <trkpt lat="44.54317" lon="1.54771">
        <ele>194</ele>
        <time>2017-09-22T11:45:14Z</time>
      </trkpt>
      <trkpt lat="44.54319" lon="1.54766">
        <ele>194</ele>
        <time>2017-09-22T11:45:17Z</time>
      </trkpt>
      <trkpt lat="44.5432" lon="1.54761">
        <ele>193</ele>
        <time>2017-09-22T11:45:20Z</time>
      </trkpt>
      <trkpt lat="44.5432" lon="1.54718">
        <ele>191</ele>
        <time>2017-09-22T11:45:45Z</time>
      </trkpt>
      <trkpt lat="44.5432" lon="1.54712">
        <ele>191</ele>
        <time>2017-09-22T11:45:50Z</time>
      </trkpt>
      <trkpt lat="44.54316" lon="1.54701">
        <ele>191</ele>
        <time>2017-09-22T11:45:57Z</time>
      </trkpt>
      <trkpt lat="44.54314" lon="1.54689">
        <ele>190</ele>
        <time>2017-09-22T11:46:05Z</time>
      </trkpt>
      <trkpt lat="44.54311" lon="1.54679">
        <ele>190</ele>
        <time>2017-09-22T11:46:12Z</time>
      </trkpt>
      <trkpt lat="44.54309" lon="1.54673">
        <ele>190</ele>
        <time>2017-09-22T11:46:17Z</time>
      </trkpt>
      <trkpt lat="44.54306" lon="1.54669">
        <ele>190</ele>
        <time>2017-09-22T11:46:20Z</time>
      </trkpt>
      <trkpt lat="44.54294" lon="1.54647">
        <ele>189</ele>
        <time>2017-09-22T11:46:38Z</time>
      </trkpt>
      <trkpt lat="44.54289" lon="1.54641">
        <ele>189</ele>
        <time>2017-09-22T11:46:43Z</time>
      </trkpt>
      <trkpt lat="44.54287" lon="1.54639">
        <ele>189</ele>
        <time>2017-09-22T11:46:46Z</time>
      </trkpt>
      <trkpt lat="44.54275" lon="1.54633">
        <ele>189</ele>
        <time>2017-09-22T11:46:56Z</time>
      </trkpt>
      <trkpt lat="44.54272" lon="1.54632">
        <ele>189</ele>
        <time>2017-09-22T11:46:58Z</time>
      </trkpt>
      <trkpt lat="44.54263" lon="1.54639">
        <ele>189</ele>
        <time>2017-09-22T11:47:07Z</time>
      </trkpt>
      <trkpt lat="44.54262" lon="1.54641">
        <ele>189</ele>
        <time>2017-09-22T11:47:09Z</time>
      </trkpt>
      <trkpt lat="44.54256" lon="1.5466">
        <ele>190</ele>
        <time>2017-09-22T11:47:26Z</time>
      </trkpt>
      <trkpt lat="44.54255" lon="1.54664">
        <ele>190</ele>
        <time>2017-09-22T11:47:29Z</time>
      </trkpt>
      <trkpt lat="44.54249" lon="1.54674">
        <ele>192</ele>
        <time>2017-09-22T11:47:42Z</time>
      </trkpt>
      <trkpt lat="44.54245" lon="1.54678">
        <ele>194</ele>
        <time>2017-09-22T11:47:46Z</time>
      </trkpt>
      <trkpt lat="44.54234" lon="1.54693">
        <ele>197</ele>
        <time>2017-09-22T11:48:02Z</time>
      </trkpt>
      <trkpt lat="44.54223" lon="1.547">
        <ele>198</ele>
        <time>2017-09-22T11:48:15Z</time>
      </trkpt>
      <trkpt lat="44.54217" lon="1.54702">
        <ele>199</ele>
        <time>2017-09-22T11:48:19Z</time>
      </trkpt>
      <trkpt lat="44.54197" lon="1.54703">
        <ele>199</ele>
        <time>2017-09-22T11:48:34Z</time>
      </trkpt>
      <trkpt lat="44.54192" lon="1.54703">
        <ele>199</ele>
        <time>2017-09-22T11:48:39Z</time>
      </trkpt>
      <trkpt lat="44.54189" lon="1.54702">
        <ele>198</ele>
        <time>2017-09-22T11:48:45Z</time>
      </trkpt>
      <trkpt lat="44.5418" lon="1.54696">
        <ele>197</ele>
        <time>2017-09-22T11:48:52Z</time>
      </trkpt>
      <trkpt lat="44.54176" lon="1.54692">
        <ele>196</ele>
        <time>2017-09-22T11:48:55Z</time>
      </trkpt>
      <trkpt lat="44.54167" lon="1.54684">
        <ele>199</ele>
        <time>2017-09-22T11:49:02Z</time>
      </trkpt>
      <trkpt lat="44.54158" lon="1.54675">
        <ele>197</ele>
        <time>2017-09-22T11:49:09Z</time>
      </trkpt>
      <trkpt lat="44.5414" lon="1.54653">
        <ele>194</ele>
        <time>2017-09-22T11:49:27Z</time>
      </trkpt>
      <trkpt lat="44.54138" lon="1.54651">
        <ele>194</ele>
        <time>2017-09-22T11:49:29Z</time>
      </trkpt>
      <trkpt lat="44.54137" lon="1.54648">
        <ele>195</ele>
        <time>2017-09-22T11:49:31Z</time>
      </trkpt>
      <trkpt lat="44.54136" lon="1.54644">
        <ele>195</ele>
        <time>2017-09-22T11:49:33Z</time>
      </trkpt>
      <trkpt lat="44.54124" lon="1.5462">
        <ele>195</ele>
        <time>2017-09-22T11:49:53Z</time>
      </trkpt>
      <trkpt lat="44.5412" lon="1.54613">
        <ele>195</ele>
        <time>2017-09-22T11:49:58Z</time>
      </trkpt>
      <trkpt lat="44.54115" lon="1.54607">
        <ele>194</ele>
        <time>2017-09-22T11:50:04Z</time>
      </trkpt>
      <trkpt lat="44.54112" lon="1.54604">
        <ele>194</ele>
        <time>2017-09-22T11:50:07Z</time>
      </trkpt>
      <trkpt lat="44.5411" lon="1.54601">
        <ele>194</ele>
        <time>2017-09-22T11:50:10Z</time>
      </trkpt>
      <trkpt lat="44.54107" lon="1.54599">
        <ele>194</ele>
        <time>2017-09-22T11:50:13Z</time>
      </trkpt>
      <trkpt lat="44.54104" lon="1.54597">
        <ele>194</ele>
        <time>2017-09-22T11:50:17Z</time>
      </trkpt>
      <trkpt lat="44.541" lon="1.54594">
        <ele>194</ele>
        <time>2017-09-22T11:50:21Z</time>
      </trkpt>
      <trkpt lat="44.54097" lon="1.54591">
        <ele>194</ele>
        <time>2017-09-22T11:50:26Z</time>
      </trkpt>
      <trkpt lat="44.54094" lon="1.54587">
        <ele>193</ele>
        <time>2017-09-22T11:50:28Z</time>
      </trkpt>
      <trkpt lat="44.54093" lon="1.54583">
        <ele>192</ele>
        <time>2017-09-22T11:50:31Z</time>
      </trkpt>
      <trkpt lat="44.54091" lon="1.5458">
        <ele>192</ele>
        <time>2017-09-22T11:50:34Z</time>
      </trkpt>
      <trkpt lat="44.54089" lon="1.54576">
        <ele>192</ele>
        <time>2017-09-22T11:50:37Z</time>
      </trkpt>
      <trkpt lat="44.54087" lon="1.54571">
        <ele>192</ele>
        <time>2017-09-22T11:50:41Z</time>
      </trkpt>
      <trkpt lat="44.54084" lon="1.54567">
        <ele>192</ele>
        <time>2017-09-22T11:50:45Z</time>
      </trkpt>
      <trkpt lat="44.54077" lon="1.54557">
        <ele>199</ele>
        <time>2017-09-22T11:50:56Z</time>
      </trkpt>
      <trkpt lat="44.54074" lon="1.54552">
        <ele>199</ele>
        <time>2017-09-22T11:51:02Z</time>
      </trkpt>
      <trkpt lat="44.54068" lon="1.54547">
        <ele>200</ele>
        <time>2017-09-22T11:51:08Z</time>
      </trkpt>
      <trkpt lat="44.54063" lon="1.54543">
        <ele>200</ele>
        <time>2017-09-22T11:51:14Z</time>
      </trkpt>
      <trkpt lat="44.5406" lon="1.54537">
        <ele>201</ele>
        <time>2017-09-22T11:51:20Z</time>
      </trkpt>
      <trkpt lat="44.54057" lon="1.54529">
        <ele>201</ele>
        <time>2017-09-22T11:51:26Z</time>
      </trkpt>
      <trkpt lat="44.54058" lon="1.54519">
        <ele>200</ele>
        <time>2017-09-22T11:51:33Z</time>
      </trkpt>
      <trkpt lat="44.54058" lon="1.54514">
        <ele>199</ele>
        <time>2017-09-22T11:51:36Z</time>
      </trkpt>
      <trkpt lat="44.54059" lon="1.54512">
        <ele>199</ele>
        <time>2017-09-22T11:51:38Z</time>
      </trkpt>
      <trkpt lat="44.54061" lon="1.54508">
        <ele>198</ele>
        <time>2017-09-22T11:51:41Z</time>
      </trkpt>
      <trkpt lat="44.54063" lon="1.54504">
        <ele>197</ele>
        <time>2017-09-22T11:51:45Z</time>
      </trkpt>
      <trkpt lat="44.54067" lon="1.54491">
        <ele>194</ele>
        <time>2017-09-22T11:51:55Z</time>
      </trkpt>
      <trkpt lat="44.54074" lon="1.54482">
        <ele>194</ele>
        <time>2017-09-22T11:52:08Z</time>
      </trkpt>
      <trkpt lat="44.54075" lon="1.54479">
        <ele>194</ele>
        <time>2017-09-22T11:52:49Z</time>
      </trkpt>
      <trkpt lat="44.54074" lon="1.54477">
        <ele>195</ele>
        <time>2017-09-22T11:53:05Z</time>
      </trkpt>
      <trkpt lat="44.54076" lon="1.54474">
        <ele>195</ele>
        <time>2017-09-22T11:53:14Z</time>
      </trkpt>
      <trkpt lat="44.54076" lon="1.54469">
        <ele>195</ele>
        <time>2017-09-22T11:53:18Z</time>
      </trkpt>
      <trkpt lat="44.54074" lon="1.54463">
        <ele>196</ele>
        <time>2017-09-22T11:53:27Z</time>
      </trkpt>
      <trkpt lat="44.54073" lon="1.54458">
        <ele>196</ele>
        <time>2017-09-22T11:53:31Z</time>
      </trkpt>
      <trkpt lat="44.54073" lon="1.5445">
        <ele>196</ele>
        <time>2017-09-22T11:53:37Z</time>
      </trkpt>
      <trkpt lat="44.54072" lon="1.54445">
        <ele>196</ele>
        <time>2017-09-22T11:53:41Z</time>
      </trkpt>
      <trkpt lat="44.54071" lon="1.54439">
        <ele>196</ele>
        <time>2017-09-22T11:53:46Z</time>
      </trkpt>
      <trkpt lat="44.54071" lon="1.54433">
        <ele>196</ele>
        <time>2017-09-22T11:53:50Z</time>
      </trkpt>
      <trkpt lat="44.54071" lon="1.54414">
        <ele>196</ele>
        <time>2017-09-22T11:54:02Z</time>
      </trkpt>
      <trkpt lat="44.54071" lon="1.54409">
        <ele>196</ele>
        <time>2017-09-22T11:54:06Z</time>
      </trkpt>
      <trkpt lat="44.54072" lon="1.54405">
        <ele>197</ele>
        <time>2017-09-22T11:54:09Z</time>
      </trkpt>
      <trkpt lat="44.54074" lon="1.54398">
        <ele>197</ele>
        <time>2017-09-22T11:54:14Z</time>
      </trkpt>
      <trkpt lat="44.54074" lon="1.54389">
        <ele>197</ele>
        <time>2017-09-22T11:54:20Z</time>
      </trkpt>
      <trkpt lat="44.54082" lon="1.54376">
        <ele>197</ele>
        <time>2017-09-22T11:54:31Z</time>
      </trkpt>
      <trkpt lat="44.54087" lon="1.54365">
        <ele>204</ele>
        <time>2017-09-22T11:54:38Z</time>
      </trkpt>
      <trkpt lat="44.5409" lon="1.5436">
        <ele>204</ele>
        <time>2017-09-22T11:54:41Z</time>
      </trkpt>
      <trkpt lat="44.54093" lon="1.54355">
        <ele>204</ele>
        <time>2017-09-22T11:54:45Z</time>
      </trkpt>
      <trkpt lat="44.54097" lon="1.54348">
        <ele>204</ele>
        <time>2017-09-22T11:54:50Z</time>
      </trkpt>
      <trkpt lat="44.54099" lon="1.54336">
        <ele>203</ele>
        <time>2017-09-22T11:54:56Z</time>
      </trkpt>
      <trkpt lat="44.54099" lon="1.54332">
        <ele>205</ele>
        <time>2017-09-22T11:54:58Z</time>
      </trkpt>
      <trkpt lat="44.54099" lon="1.54327">
        <ele>205</ele>
        <time>2017-09-22T11:55:01Z</time>
      </trkpt>
      <trkpt lat="44.54098" lon="1.54321">
        <ele>206</ele>
        <time>2017-09-22T11:55:04Z</time>
      </trkpt>
      <trkpt lat="44.54093" lon="1.54307">
        <ele>208</ele>
        <time>2017-09-22T11:55:13Z</time>
      </trkpt>
      <trkpt lat="44.54091" lon="1.54304">
        <ele>208</ele>
        <time>2017-09-22T11:55:16Z</time>
      </trkpt>
      <trkpt lat="44.54091" lon="1.54297">
        <ele>208</ele>
        <time>2017-09-22T11:55:22Z</time>
      </trkpt>
      <trkpt lat="44.54088" lon="1.54291">
        <ele>208</ele>
        <time>2017-09-22T11:55:26Z</time>
      </trkpt>
      <trkpt lat="44.54087" lon="1.54284">
        <ele>208</ele>
        <time>2017-09-22T11:55:31Z</time>
      </trkpt>
      <trkpt lat="44.54084" lon="1.54277">
        <ele>208</ele>
        <time>2017-09-22T11:55:36Z</time>
      </trkpt>
      <trkpt lat="44.54082" lon="1.54273">
        <ele>198</ele>
        <time>2017-09-22T11:55:38Z</time>
      </trkpt>
      <trkpt lat="44.5408" lon="1.54267">
        <ele>198</ele>
        <time>2017-09-22T11:55:43Z</time>
      </trkpt>
      <trkpt lat="44.54077" lon="1.54261">
        <ele>198</ele>
        <time>2017-09-22T11:55:48Z</time>
      </trkpt>
      <trkpt lat="44.54073" lon="1.54256">
        <ele>198</ele>
        <time>2017-09-22T11:55:51Z</time>
      </trkpt>
      <trkpt lat="44.54071" lon="1.54251">
        <ele>198</ele>
        <time>2017-09-22T11:55:55Z</time>
      </trkpt>
      <trkpt lat="44.54067" lon="1.54246">
        <ele>199</ele>
        <time>2017-09-22T11:55:59Z</time>
      </trkpt>
      <trkpt lat="44.5406" lon="1.54235">
        <ele>199</ele>
        <time>2017-09-22T11:56:06Z</time>
      </trkpt>
      <trkpt lat="44.54057" lon="1.54229">
        <ele>199</ele>
        <time>2017-09-22T11:56:09Z</time>
      </trkpt>
      <trkpt lat="44.54049" lon="1.54215">
        <ele>199</ele>
        <time>2017-09-22T11:56:18Z</time>
      </trkpt>
      <trkpt lat="44.54047" lon="1.54209">
        <ele>199</ele>
        <time>2017-09-22T11:56:22Z</time>
      </trkpt>
      <trkpt lat="44.54044" lon="1.54203">
        <ele>199</ele>
        <time>2017-09-22T11:56:26Z</time>
      </trkpt>
      <trkpt lat="44.54042" lon="1.54198">
        <ele>199</ele>
        <time>2017-09-22T11:56:29Z</time>
      </trkpt>
      <trkpt lat="44.5404" lon="1.54191">
        <ele>199</ele>
        <time>2017-09-22T11:56:34Z</time>
      </trkpt>
      <trkpt lat="44.54037" lon="1.54185">
        <ele>199</ele>
        <time>2017-09-22T11:56:37Z</time>
      </trkpt>
      <trkpt lat="44.54034" lon="1.5418">
        <ele>199</ele>
        <time>2017-09-22T11:56:43Z</time>
      </trkpt>
      <trkpt lat="44.54032" lon="1.54175">
        <ele>198</ele>
        <time>2017-09-22T11:56:48Z</time>
      </trkpt>
      <trkpt lat="44.54027" lon="1.54161">
        <ele>199</ele>
        <time>2017-09-22T11:56:56Z</time>
      </trkpt>
      <trkpt lat="44.54024" lon="1.54151">
        <ele>199</ele>
        <time>2017-09-22T11:57:03Z</time>
      </trkpt>
      <trkpt lat="44.54023" lon="1.54145">
        <ele>199</ele>
        <time>2017-09-22T11:57:06Z</time>
      </trkpt>
      <trkpt lat="44.54023" lon="1.54124">
        <ele>200</ele>
        <time>2017-09-22T11:57:18Z</time>
      </trkpt>
      <trkpt lat="44.54024" lon="1.54114">
        <ele>200</ele>
        <time>2017-09-22T11:57:23Z</time>
      </trkpt>
      <trkpt lat="44.54025" lon="1.54109">
        <ele>200</ele>
        <time>2017-09-22T11:57:26Z</time>
      </trkpt>
      <trkpt lat="44.54027" lon="1.54099">
        <ele>200</ele>
        <time>2017-09-22T11:57:32Z</time>
      </trkpt>
      <trkpt lat="44.54042" lon="1.54045">
        <ele>203</ele>
        <time>2017-09-22T11:58:03Z</time>
      </trkpt>
      <trkpt lat="44.54044" lon="1.54036">
        <ele>203</ele>
        <time>2017-09-22T11:58:09Z</time>
      </trkpt>
      <trkpt lat="44.5405" lon="1.54013">
        <ele>203</ele>
        <time>2017-09-22T11:58:23Z</time>
      </trkpt>
      <trkpt lat="44.54052" lon="1.54008">
        <ele>203</ele>
        <time>2017-09-22T11:58:26Z</time>
      </trkpt>
      <trkpt lat="44.54053" lon="1.54">
        <ele>206</ele>
        <time>2017-09-22T11:58:31Z</time>
      </trkpt>
      <trkpt lat="44.54056" lon="1.5399">
        <ele>205</ele>
        <time>2017-09-22T11:58:37Z</time>
      </trkpt>
      <trkpt lat="44.54057" lon="1.53981">
        <ele>206</ele>
        <time>2017-09-22T11:58:42Z</time>
      </trkpt>
      <trkpt lat="44.54059" lon="1.53977">
        <ele>206</ele>
        <time>2017-09-22T11:58:45Z</time>
      </trkpt>
      <trkpt lat="44.5406" lon="1.53972">
        <ele>206</ele>
        <time>2017-09-22T11:58:49Z</time>
      </trkpt>
      <trkpt lat="44.54065" lon="1.53963">
        <ele>206</ele>
        <time>2017-09-22T11:58:56Z</time>
      </trkpt>
      <trkpt lat="44.54065" lon="1.53957">
        <ele>206</ele>
        <time>2017-09-22T11:58:59Z</time>
      </trkpt>
      <trkpt lat="44.54067" lon="1.53952">
        <ele>206</ele>
        <time>2017-09-22T11:59:02Z</time>
      </trkpt>
      <trkpt lat="44.54074" lon="1.53928">
        <ele>203</ele>
        <time>2017-09-22T11:59:17Z</time>
      </trkpt>
      <trkpt lat="44.54095" lon="1.53885">
        <ele>203</ele>
        <time>2017-09-22T11:59:47Z</time>
      </trkpt>
      <trkpt lat="44.54097" lon="1.53881">
        <ele>203</ele>
        <time>2017-09-22T11:59:50Z</time>
      </trkpt>
      <trkpt lat="44.541" lon="1.53876">
        <ele>203</ele>
        <time>2017-09-22T11:59:53Z</time>
      </trkpt>
      <trkpt lat="44.54101" lon="1.53872">
        <ele>203</ele>
        <time>2017-09-22T11:59:56Z</time>
      </trkpt>
      <trkpt lat="44.54121" lon="1.53849">
        <ele>203</ele>
        <time>2017-09-22T12:00:18Z</time>
      </trkpt>
      <trkpt lat="44.54129" lon="1.53836">
        <ele>203</ele>
        <time>2017-09-22T12:00:27Z</time>
      </trkpt>
      <trkpt lat="44.54132" lon="1.53832">
        <ele>202</ele>
        <time>2017-09-22T12:00:30Z</time>
      </trkpt>
      <trkpt lat="44.54136" lon="1.53826">
        <ele>202</ele>
        <time>2017-09-22T12:00:37Z</time>
      </trkpt>
      <trkpt lat="44.5414" lon="1.53822">
        <ele>201</ele>
        <time>2017-09-22T12:00:42Z</time>
      </trkpt>
      <trkpt lat="44.54144" lon="1.53819">
        <ele>201</ele>
        <time>2017-09-22T12:00:47Z</time>
      </trkpt>
      <trkpt lat="44.54148" lon="1.53817">
        <ele>201</ele>
        <time>2017-09-22T12:00:52Z</time>
      </trkpt>
      <trkpt lat="44.54157" lon="1.53813">
        <ele>201</ele>
        <time>2017-09-22T12:00:59Z</time>
      </trkpt>
      <trkpt lat="44.54166" lon="1.53813">
        <ele>200</ele>
        <time>2017-09-22T12:01:05Z</time>
      </trkpt>
      <trkpt lat="44.54189" lon="1.53824">
        <ele>202</ele>
        <time>2017-09-22T12:01:28Z</time>
      </trkpt>
      <trkpt lat="44.54196" lon="1.53827">
        <ele>203</ele>
        <time>2017-09-22T12:01:34Z</time>
      </trkpt>
      <trkpt lat="44.542" lon="1.53825">
        <ele>203</ele>
        <time>2017-09-22T12:01:38Z</time>
      </trkpt>
      <trkpt lat="44.54215" lon="1.53815">
        <ele>205</ele>
        <time>2017-09-22T12:01:54Z</time>
      </trkpt>
      <trkpt lat="44.54232" lon="1.53785">
        <ele>205</ele>
        <time>2017-09-22T12:02:18Z</time>
      </trkpt>
      <trkpt lat="44.54233" lon="1.53781">
        <ele>205</ele>
        <time>2017-09-22T12:02:21Z</time>
      </trkpt>
      <trkpt lat="44.54238" lon="1.53767">
        <ele>205</ele>
        <time>2017-09-22T12:02:30Z</time>
      </trkpt>
      <trkpt lat="44.54243" lon="1.5372">
        <ele>202</ele>
        <time>2017-09-22T12:02:58Z</time>
      </trkpt>
      <trkpt lat="44.54244" lon="1.53702">
        <ele>202</ele>
        <time>2017-09-22T12:03:09Z</time>
      </trkpt>
      <trkpt lat="44.54247" lon="1.53646">
        <ele>200</ele>
        <time>2017-09-22T12:03:39Z</time>
      </trkpt>
      <trkpt lat="44.54247" lon="1.53643">
        <ele>200</ele>
        <time>2017-09-22T12:03:41Z</time>
      </trkpt>
      <trkpt lat="44.54249" lon="1.53623">
        <ele>199</ele>
        <time>2017-09-22T12:03:52Z</time>
      </trkpt>
      <trkpt lat="44.5425" lon="1.53615">
        <ele>209</ele>
        <time>2017-09-22T12:03:57Z</time>
      </trkpt>
      <trkpt lat="44.54253" lon="1.53607">
        <ele>208</ele>
        <time>2017-09-22T12:04:02Z</time>
      </trkpt>
      <trkpt lat="44.54255" lon="1.53599">
        <ele>206</ele>
        <time>2017-09-22T12:04:07Z</time>
      </trkpt>
      <trkpt lat="44.54256" lon="1.53594">
        <ele>205</ele>
        <time>2017-09-22T12:04:10Z</time>
      </trkpt>
      <trkpt lat="44.54257" lon="1.5359">
        <ele>203</ele>
        <time>2017-09-22T12:04:13Z</time>
      </trkpt>
      <trkpt lat="44.54258" lon="1.53585">
        <ele>203</ele>
        <time>2017-09-22T12:04:16Z</time>
      </trkpt>
      <trkpt lat="44.54266" lon="1.53559">
        <ele>204</ele>
        <time>2017-09-22T12:04:33Z</time>
      </trkpt>
      <trkpt lat="44.54268" lon="1.53555">
        <ele>204</ele>
        <time>2017-09-22T12:04:36Z</time>
      </trkpt>
      <trkpt lat="44.54271" lon="1.53545">
        <ele>204</ele>
        <time>2017-09-22T12:04:42Z</time>
      </trkpt>
      <trkpt lat="44.54276" lon="1.53534">
        <ele>204</ele>
        <time>2017-09-22T12:04:50Z</time>
      </trkpt>
      <trkpt lat="44.54278" lon="1.5353">
        <ele>204</ele>
        <time>2017-09-22T12:04:53Z</time>
      </trkpt>
      <trkpt lat="44.54279" lon="1.53526">
        <ele>204</ele>
        <time>2017-09-22T12:04:56Z</time>
      </trkpt>
      <trkpt lat="44.54283" lon="1.53514">
        <ele>204</ele>
        <time>2017-09-22T12:05:03Z</time>
      </trkpt>
      <trkpt lat="44.54284" lon="1.53509">
        <ele>204</ele>
        <time>2017-09-22T12:05:06Z</time>
      </trkpt>
      <trkpt lat="44.54289" lon="1.53491">
        <ele>199</ele>
        <time>2017-09-22T12:05:18Z</time>
      </trkpt>
      <trkpt lat="44.54294" lon="1.53474">
        <ele>199</ele>
        <time>2017-09-22T12:05:28Z</time>
      </trkpt>
      <trkpt lat="44.54298" lon="1.53465">
        <ele>199</ele>
        <time>2017-09-22T12:05:34Z</time>
      </trkpt>
      <trkpt lat="44.54299" lon="1.53462">
        <ele>199</ele>
        <time>2017-09-22T12:05:37Z</time>
      </trkpt>
      <trkpt lat="44.54303" lon="1.53454">
        <ele>199</ele>
        <time>2017-09-22T12:05:42Z</time>
      </trkpt>
      <trkpt lat="44.54305" lon="1.5345">
        <ele>199</ele>
        <time>2017-09-22T12:05:45Z</time>
      </trkpt>
      <trkpt lat="44.5431" lon="1.53442">
        <ele>198</ele>
        <time>2017-09-22T12:05:51Z</time>
      </trkpt>
      <trkpt lat="44.54319" lon="1.5343">
        <ele>198</ele>
        <time>2017-09-22T12:06:00Z</time>
      </trkpt>
      <trkpt lat="44.54322" lon="1.53425">
        <ele>197</ele>
        <time>2017-09-22T12:06:05Z</time>
      </trkpt>
      <trkpt lat="44.54328" lon="1.53422">
        <ele>197</ele>
        <time>2017-09-22T12:06:11Z</time>
      </trkpt>
      <trkpt lat="44.54332" lon="1.5342">
        <ele>196</ele>
        <time>2017-09-22T12:06:15Z</time>
      </trkpt>
      <trkpt lat="44.54363" lon="1.5341">
        <ele>198</ele>
        <time>2017-09-22T12:06:40Z</time>
      </trkpt>
      <trkpt lat="44.54367" lon="1.53408">
        <ele>198</ele>
        <time>2017-09-22T12:06:43Z</time>
      </trkpt>
      <trkpt lat="44.5437" lon="1.53406">
        <ele>199</ele>
        <time>2017-09-22T12:06:46Z</time>
      </trkpt>
      <trkpt lat="44.54375" lon="1.53405">
        <ele>199</ele>
        <time>2017-09-22T12:06:49Z</time>
      </trkpt>
      <trkpt lat="44.54383" lon="1.53404">
        <ele>199</ele>
        <time>2017-09-22T12:06:57Z</time>
      </trkpt>
      <trkpt lat="44.54388" lon="1.53403">
        <ele>199</ele>
        <time>2017-09-22T12:07:02Z</time>
      </trkpt>
      <trkpt lat="44.54396" lon="1.53401">
        <ele>200</ele>
        <time>2017-09-22T12:07:10Z</time>
      </trkpt>
      <trkpt lat="44.54405" lon="1.53397">
        <ele>200</ele>
        <time>2017-09-22T12:07:17Z</time>
      </trkpt>
      <trkpt lat="44.54408" lon="1.53395">
        <ele>200</ele>
        <time>2017-09-22T12:07:20Z</time>
      </trkpt>
      <trkpt lat="44.54411" lon="1.53383">
        <ele>200</ele>
        <time>2017-09-22T12:07:29Z</time>
      </trkpt>
      <trkpt lat="44.54412" lon="1.5338">
        <ele>200</ele>
        <time>2017-09-22T12:07:40Z</time>
      </trkpt>
      <trkpt lat="44.54413" lon="1.53377">
        <ele>200</ele>
        <time>2017-09-22T12:08:17Z</time>
      </trkpt>
      <trkpt lat="44.54413" lon="1.53377">
        <ele>200</ele>
        <time>2017-09-22T12:08:17Z</time>
      </trkpt>
      <trkpt lat="44.54412" lon="1.53374">
        <ele>200</ele>
        <time>2017-09-22T12:08:36Z</time>
      </trkpt>
      <trkpt lat="44.5441" lon="1.53373">
        <ele>200</ele>
        <time>2017-09-22T12:08:56Z</time>
      </trkpt>
      <trkpt lat="44.54404" lon="1.53372">
        <ele>200</ele>
        <time>2017-09-22T12:09:03Z</time>
      </trkpt>
      <trkpt lat="44.544" lon="1.53371">
        <ele>200</ele>
        <time>2017-09-22T12:09:07Z</time>
      </trkpt>
      <trkpt lat="44.54393" lon="1.53371">
        <ele>200</ele>
        <time>2017-09-22T12:09:14Z</time>
      </trkpt>
      <trkpt lat="44.5439" lon="1.53371">
        <ele>199</ele>
        <time>2017-09-22T12:09:17Z</time>
      </trkpt>
      <trkpt lat="44.54352" lon="1.53365">
        <ele>198</ele>
        <time>2017-09-22T12:09:48Z</time>
      </trkpt>
      <trkpt lat="44.54344" lon="1.53363">
        <ele>197</ele>
        <time>2017-09-22T12:09:53Z</time>
      </trkpt>
      <trkpt lat="44.54342" lon="1.53361">
        <ele>197</ele>
        <time>2017-09-22T12:09:56Z</time>
      </trkpt>
      <trkpt lat="44.54339" lon="1.53358">
        <ele>197</ele>
        <time>2017-09-22T12:09:59Z</time>
      </trkpt>
      <trkpt lat="44.54339" lon="1.53354">
        <ele>197</ele>
        <time>2017-09-22T12:10:01Z</time>
      </trkpt>
      <trkpt lat="44.54339" lon="1.53346">
        <ele>196</ele>
        <time>2017-09-22T12:10:06Z</time>
      </trkpt>
      <trkpt lat="44.54341" lon="1.53343">
        <ele>196</ele>
        <time>2017-09-22T12:10:08Z</time>
      </trkpt>
      <trkpt lat="44.54342" lon="1.53338">
        <ele>196</ele>
        <time>2017-09-22T12:10:11Z</time>
      </trkpt>
      <trkpt lat="44.54346" lon="1.53322">
        <ele>197</ele>
        <time>2017-09-22T12:10:21Z</time>
      </trkpt>
      <trkpt lat="44.54349" lon="1.53319">
        <ele>198</ele>
        <time>2017-09-22T12:10:25Z</time>
      </trkpt>
      <trkpt lat="44.54351" lon="1.53311">
        <ele>198</ele>
        <time>2017-09-22T12:10:30Z</time>
      </trkpt>
      <trkpt lat="44.54359" lon="1.53297">
        <ele>199</ele>
        <time>2017-09-22T12:10:41Z</time>
      </trkpt>
      <trkpt lat="44.54359" lon="1.53293">
        <ele>199</ele>
        <time>2017-09-22T12:10:44Z</time>
      </trkpt>
      <trkpt lat="44.54377" lon="1.53269">
        <ele>201</ele>
        <time>2017-09-22T12:11:03Z</time>
      </trkpt>
      <trkpt lat="44.5438" lon="1.53266">
        <ele>202</ele>
        <time>2017-09-22T12:11:07Z</time>
      </trkpt>
      <trkpt lat="44.54393" lon="1.53257">
        <ele>203</ele>
        <time>2017-09-22T12:11:19Z</time>
      </trkpt>
      <trkpt lat="44.54405" lon="1.53243">
        <ele>206</ele>
        <time>2017-09-22T12:11:32Z</time>
      </trkpt>
      <trkpt lat="44.5441" lon="1.53235">
        <ele>206</ele>
        <time>2017-09-22T12:11:38Z</time>
      </trkpt>
      <trkpt lat="44.54412" lon="1.5323">
        <ele>206</ele>
        <time>2017-09-22T12:11:41Z</time>
      </trkpt>
      <trkpt lat="44.54416" lon="1.53211">
        <ele>205</ele>
        <time>2017-09-22T12:11:54Z</time>
      </trkpt>
      <trkpt lat="44.54416" lon="1.53205">
        <ele>205</ele>
        <time>2017-09-22T12:11:57Z</time>
      </trkpt>
      <trkpt lat="44.54417" lon="1.53198">
        <ele>219</ele>
        <time>2017-09-22T12:12:00Z</time>
      </trkpt>
      <trkpt lat="44.54414" lon="1.53185">
        <ele>205</ele>
        <time>2017-09-22T12:12:08Z</time>
      </trkpt>
      <trkpt lat="44.54414" lon="1.53138">
        <ele>204</ele>
        <time>2017-09-22T12:12:32Z</time>
      </trkpt>
      <trkpt lat="44.54413" lon="1.53134">
        <ele>204</ele>
        <time>2017-09-22T12:12:34Z</time>
      </trkpt>
      <trkpt lat="44.54411" lon="1.53093">
        <ele>205</ele>
        <time>2017-09-22T12:12:57Z</time>
      </trkpt>
      <trkpt lat="44.5441" lon="1.53089">
        <ele>206</ele>
        <time>2017-09-22T12:13:00Z</time>
      </trkpt>
      <trkpt lat="44.54409" lon="1.53085">
        <ele>206</ele>
        <time>2017-09-22T12:13:04Z</time>
      </trkpt>
      <trkpt lat="44.54408" lon="1.53036">
        <ele>205</ele>
        <time>2017-09-22T12:13:31Z</time>
      </trkpt>
      <trkpt lat="44.54399" lon="1.52998">
        <ele>208</ele>
        <time>2017-09-22T12:13:53Z</time>
      </trkpt>
      <trkpt lat="44.5438" lon="1.52946">
        <ele>204</ele>
        <time>2017-09-22T12:14:25Z</time>
      </trkpt>
      <trkpt lat="44.54377" lon="1.52933">
        <ele>204</ele>
        <time>2017-09-22T12:14:33Z</time>
      </trkpt>
      <trkpt lat="44.54376" lon="1.5293">
        <ele>204</ele>
        <time>2017-09-22T12:14:35Z</time>
      </trkpt>
      <trkpt lat="44.54373" lon="1.5292">
        <ele>203</ele>
        <time>2017-09-22T12:14:41Z</time>
      </trkpt>
      <trkpt lat="44.54372" lon="1.52917">
        <ele>203</ele>
        <time>2017-09-22T12:14:43Z</time>
      </trkpt>
      <trkpt lat="44.54373" lon="1.52913">
        <ele>203</ele>
        <time>2017-09-22T12:14:45Z</time>
      </trkpt>
      <trkpt lat="44.54379" lon="1.529">
        <ele>203</ele>
        <time>2017-09-22T12:14:55Z</time>
      </trkpt>
      <trkpt lat="44.5438" lon="1.52897">
        <ele>204</ele>
        <time>2017-09-22T12:14:57Z</time>
      </trkpt>
      <trkpt lat="44.54382" lon="1.52894">
        <ele>204</ele>
        <time>2017-09-22T12:14:59Z</time>
      </trkpt>
      <trkpt lat="44.54387" lon="1.52886">
        <ele>204</ele>
        <time>2017-09-22T12:15:05Z</time>
      </trkpt>
      <trkpt lat="44.54389" lon="1.5288">
        <ele>204</ele>
        <time>2017-09-22T12:15:09Z</time>
      </trkpt>
      <trkpt lat="44.54396" lon="1.5286">
        <ele>203</ele>
        <time>2017-09-22T12:15:23Z</time>
      </trkpt>
      <trkpt lat="44.54399" lon="1.52849">
        <ele>203</ele>
        <time>2017-09-22T12:15:29Z</time>
      </trkpt>
      <trkpt lat="44.54399" lon="1.52835">
        <ele>203</ele>
        <time>2017-09-22T12:15:37Z</time>
      </trkpt>
      <trkpt lat="44.54393" lon="1.52794">
        <ele>203</ele>
        <time>2017-09-22T12:15:59Z</time>
      </trkpt>
      <trkpt lat="44.54394" lon="1.52786">
        <ele>203</ele>
        <time>2017-09-22T12:16:04Z</time>
      </trkpt>
      <trkpt lat="44.54394" lon="1.52768">
        <ele>204</ele>
        <time>2017-09-22T12:16:15Z</time>
      </trkpt>
      <trkpt lat="44.54392" lon="1.52763">
        <ele>204</ele>
        <time>2017-09-22T12:16:18Z</time>
      </trkpt>
      <trkpt lat="44.54391" lon="1.5276">
        <ele>204</ele>
        <time>2017-09-22T12:16:20Z</time>
      </trkpt>
      <trkpt lat="44.5439" lon="1.52757">
        <ele>204</ele>
        <time>2017-09-22T12:16:22Z</time>
      </trkpt>
      <trkpt lat="44.54389" lon="1.5275">
        <ele>205</ele>
        <time>2017-09-22T12:16:26Z</time>
      </trkpt>
      <trkpt lat="44.54389" lon="1.52747">
        <ele>205</ele>
        <time>2017-09-22T12:16:28Z</time>
      </trkpt>
      <trkpt lat="44.5439" lon="1.52732">
        <ele>205</ele>
        <time>2017-09-22T12:16:37Z</time>
      </trkpt>
      <trkpt lat="44.54394" lon="1.52709">
        <ele>206</ele>
        <time>2017-09-22T12:16:50Z</time>
      </trkpt>
      <trkpt lat="44.54399" lon="1.52687">
        <ele>207</ele>
        <time>2017-09-22T12:17:02Z</time>
      </trkpt>
      <trkpt lat="44.544" lon="1.52682">
        <ele>207</ele>
        <time>2017-09-22T12:17:04Z</time>
      </trkpt>
      <trkpt lat="44.54402" lon="1.52674">
        <ele>207</ele>
        <time>2017-09-22T12:17:08Z</time>
      </trkpt>
      <trkpt lat="44.54404" lon="1.52668">
        <ele>208</ele>
        <time>2017-09-22T12:17:12Z</time>
      </trkpt>
      <trkpt lat="44.54409" lon="1.52654">
        <ele>208</ele>
        <time>2017-09-22T12:17:21Z</time>
      </trkpt>
      <trkpt lat="44.54414" lon="1.52636">
        <ele>206</ele>
        <time>2017-09-22T12:17:32Z</time>
      </trkpt>
      <trkpt lat="44.54415" lon="1.52631">
        <ele>206</ele>
        <time>2017-09-22T12:17:34Z</time>
      </trkpt>
      <trkpt lat="44.54421" lon="1.52594">
        <ele>212</ele>
        <time>2017-09-22T12:17:56Z</time>
      </trkpt>
      <trkpt lat="44.5443" lon="1.52567">
        <ele>211</ele>
        <time>2017-09-22T12:18:12Z</time>
      </trkpt>
      <trkpt lat="44.54451" lon="1.52533">
        <ele>214</ele>
        <time>2017-09-22T12:18:40Z</time>
      </trkpt>
      <trkpt lat="44.54453" lon="1.52531">
        <ele>214</ele>
        <time>2017-09-22T12:18:42Z</time>
      </trkpt>
      <trkpt lat="44.54455" lon="1.52526">
        <ele>214</ele>
        <time>2017-09-22T12:18:45Z</time>
      </trkpt>
      <trkpt lat="44.54463" lon="1.52508">
        <ele>215</ele>
        <time>2017-09-22T12:18:58Z</time>
      </trkpt>
      <trkpt lat="44.54473" lon="1.52474">
        <ele>210</ele>
        <time>2017-09-22T12:19:18Z</time>
      </trkpt>
      <trkpt lat="44.54476" lon="1.52462">
        <ele>210</ele>
        <time>2017-09-22T12:19:25Z</time>
      </trkpt>
      <trkpt lat="44.54477" lon="1.52458">
        <ele>209</ele>
        <time>2017-09-22T12:19:27Z</time>
      </trkpt>
      <trkpt lat="44.54477" lon="1.52455">
        <ele>209</ele>
        <time>2017-09-22T12:19:29Z</time>
      </trkpt>
      <trkpt lat="44.54479" lon="1.52447">
        <ele>209</ele>
        <time>2017-09-22T12:19:33Z</time>
      </trkpt>
      <trkpt lat="44.5448" lon="1.52444">
        <ele>209</ele>
        <time>2017-09-22T12:19:35Z</time>
      </trkpt>
      <trkpt lat="44.54482" lon="1.52435">
        <ele>210</ele>
        <time>2017-09-22T12:19:39Z</time>
      </trkpt>
      <trkpt lat="44.54482" lon="1.52432">
        <ele>210</ele>
        <time>2017-09-22T12:19:41Z</time>
      </trkpt>
      <trkpt lat="44.54486" lon="1.52418">
        <ele>211</ele>
        <time>2017-09-22T12:19:49Z</time>
      </trkpt>
      <trkpt lat="44.5449" lon="1.52391">
        <ele>206</ele>
        <time>2017-09-22T12:20:03Z</time>
      </trkpt>
      <trkpt lat="44.54489" lon="1.52371">
        <ele>204</ele>
        <time>2017-09-22T12:20:13Z</time>
      </trkpt>
      <trkpt lat="44.54488" lon="1.52366">
        <ele>204</ele>
        <time>2017-09-22T12:20:16Z</time>
      </trkpt>
      <trkpt lat="44.54486" lon="1.52345">
        <ele>204</ele>
        <time>2017-09-22T12:20:27Z</time>
      </trkpt>
      <trkpt lat="44.54486" lon="1.52341">
        <ele>204</ele>
        <time>2017-09-22T12:20:29Z</time>
      </trkpt>
      <trkpt lat="44.54489" lon="1.5229">
        <ele>201</ele>
        <time>2017-09-22T12:20:55Z</time>
      </trkpt>
      <trkpt lat="44.5449" lon="1.52288">
        <ele>201</ele>
        <time>2017-09-22T12:20:57Z</time>
      </trkpt>
      <trkpt lat="44.5449" lon="1.52275">
        <ele>201</ele>
        <time>2017-09-22T12:21:06Z</time>
      </trkpt>
      <trkpt lat="44.54487" lon="1.52262">
        <ele>201</ele>
        <time>2017-09-22T12:21:15Z</time>
      </trkpt>
      <trkpt lat="44.54485" lon="1.52256">
        <ele>201</ele>
        <time>2017-09-22T12:21:20Z</time>
      </trkpt>
      <trkpt lat="44.54484" lon="1.52243">
        <ele>204</ele>
        <time>2017-09-22T12:21:30Z</time>
      </trkpt>
      <trkpt lat="44.54483" lon="1.52239">
        <ele>204</ele>
        <time>2017-09-22T12:21:32Z</time>
      </trkpt>
      <trkpt lat="44.54482" lon="1.52235">
        <ele>205</ele>
        <time>2017-09-22T12:21:35Z</time>
      </trkpt>
      <trkpt lat="44.5448" lon="1.5223">
        <ele>205</ele>
        <time>2017-09-22T12:21:39Z</time>
      </trkpt>
      <trkpt lat="44.5448" lon="1.52223">
        <ele>206</ele>
        <time>2017-09-22T12:21:44Z</time>
      </trkpt>
      <trkpt lat="44.54482" lon="1.52219">
        <ele>206</ele>
        <time>2017-09-22T12:21:47Z</time>
      </trkpt>
      <trkpt lat="44.54485" lon="1.52216">
        <ele>206</ele>
        <time>2017-09-22T12:21:51Z</time>
      </trkpt>
      <trkpt lat="44.5449" lon="1.52214">
        <ele>207</ele>
        <time>2017-09-22T12:21:55Z</time>
      </trkpt>
      <trkpt lat="44.54494" lon="1.52213">
        <ele>207</ele>
        <time>2017-09-22T12:22:00Z</time>
      </trkpt>
      <trkpt lat="44.54506" lon="1.52206">
        <ele>211</ele>
        <time>2017-09-22T12:22:10Z</time>
      </trkpt>
      <trkpt lat="44.5453" lon="1.52197">
        <ele>212</ele>
        <time>2017-09-22T12:22:29Z</time>
      </trkpt>
      <trkpt lat="44.54535" lon="1.52196">
        <ele>213</ele>
        <time>2017-09-22T12:22:33Z</time>
      </trkpt>
      <trkpt lat="44.54543" lon="1.52197">
        <ele>213</ele>
        <time>2017-09-22T12:22:39Z</time>
      </trkpt>
      <trkpt lat="44.54571" lon="1.52205">
        <ele>213</ele>
        <time>2017-09-22T12:23:03Z</time>
      </trkpt>
      <trkpt lat="44.54587" lon="1.52208">
        <ele>218</ele>
        <time>2017-09-22T12:23:15Z</time>
      </trkpt>
      <trkpt lat="44.54591" lon="1.52211">
        <ele>218</ele>
        <time>2017-09-22T12:23:19Z</time>
      </trkpt>
      <trkpt lat="44.54597" lon="1.52212">
        <ele>218</ele>
        <time>2017-09-22T12:23:24Z</time>
      </trkpt>
      <trkpt lat="44.54602" lon="1.52212">
        <ele>218</ele>
        <time>2017-09-22T12:23:28Z</time>
      </trkpt>
      <trkpt lat="44.54607" lon="1.52214">
        <ele>218</ele>
        <time>2017-09-22T12:23:31Z</time>
      </trkpt>
      <trkpt lat="44.54612" lon="1.52215">
        <ele>218</ele>
        <time>2017-09-22T12:23:35Z</time>
      </trkpt>
      <trkpt lat="44.54616" lon="1.52214">
        <ele>219</ele>
        <time>2017-09-22T12:23:39Z</time>
      </trkpt>
      <trkpt lat="44.54621" lon="1.52216">
        <ele>219</ele>
        <time>2017-09-22T12:23:42Z</time>
      </trkpt>
      <trkpt lat="44.54626" lon="1.52215">
        <ele>219</ele>
        <time>2017-09-22T12:23:45Z</time>
      </trkpt>
      <trkpt lat="44.54637" lon="1.52217">
        <ele>219</ele>
        <time>2017-09-22T12:23:54Z</time>
      </trkpt>
      <trkpt lat="44.54641" lon="1.52219">
        <ele>219</ele>
        <time>2017-09-22T12:23:57Z</time>
      </trkpt>
      <trkpt lat="44.54645" lon="1.52222">
        <ele>219</ele>
        <time>2017-09-22T12:24:01Z</time>
      </trkpt>
      <trkpt lat="44.54657" lon="1.5223">
        <ele>218</ele>
        <time>2017-09-22T12:24:12Z</time>
      </trkpt>
      <trkpt lat="44.54662" lon="1.52232">
        <ele>217</ele>
        <time>2017-09-22T12:24:17Z</time>
      </trkpt>
      <trkpt lat="44.54666" lon="1.52236">
        <ele>216</ele>
        <time>2017-09-22T12:24:20Z</time>
      </trkpt>
      <trkpt lat="44.54671" lon="1.52238">
        <ele>219</ele>
        <time>2017-09-22T12:24:24Z</time>
      </trkpt>
      <trkpt lat="44.54682" lon="1.52252">
        <ele>213</ele>
        <time>2017-09-22T12:24:36Z</time>
      </trkpt>
      <trkpt lat="44.54691" lon="1.52257">
        <ele>213</ele>
        <time>2017-09-22T12:24:44Z</time>
      </trkpt>
      <trkpt lat="44.54694" lon="1.5226">
        <ele>213</ele>
        <time>2017-09-22T12:24:47Z</time>
      </trkpt>
      <trkpt lat="44.54702" lon="1.52263">
        <ele>213</ele>
        <time>2017-09-22T12:24:52Z</time>
      </trkpt>
      <trkpt lat="44.54705" lon="1.52266">
        <ele>214</ele>
        <time>2017-09-22T12:24:55Z</time>
      </trkpt>
      <trkpt lat="44.54709" lon="1.52267">
        <ele>214</ele>
        <time>2017-09-22T12:24:59Z</time>
      </trkpt>
      <trkpt lat="44.54723" lon="1.52269">
        <ele>214</ele>
        <time>2017-09-22T12:25:11Z</time>
      </trkpt>
      <trkpt lat="44.54731" lon="1.52266">
        <ele>215</ele>
        <time>2017-09-22T12:25:17Z</time>
      </trkpt>
      <trkpt lat="44.5474" lon="1.52265">
        <ele>216</ele>
        <time>2017-09-22T12:25:25Z</time>
      </trkpt>
      <trkpt lat="44.54749" lon="1.52264">
        <ele>216</ele>
        <time>2017-09-22T12:25:32Z</time>
      </trkpt>
      <trkpt lat="44.54766" lon="1.52265">
        <ele>217</ele>
        <time>2017-09-22T12:25:45Z</time>
      </trkpt>
      <trkpt lat="44.54775" lon="1.52263">
        <ele>217</ele>
        <time>2017-09-22T12:25:52Z</time>
      </trkpt>
      <trkpt lat="44.54785" lon="1.52263">
        <ele>217</ele>
        <time>2017-09-22T12:26:01Z</time>
      </trkpt>
      <trkpt lat="44.54796" lon="1.52261">
        <ele>217</ele>
        <time>2017-09-22T12:26:09Z</time>
      </trkpt>
      <trkpt lat="44.54801" lon="1.5226">
        <ele>217</ele>
        <time>2017-09-22T12:26:13Z</time>
      </trkpt>
      <trkpt lat="44.54826" lon="1.52255">
        <ele>217</ele>
        <time>2017-09-22T12:26:33Z</time>
      </trkpt>
      <trkpt lat="44.54831" lon="1.52252">
        <ele>218</ele>
        <time>2017-09-22T12:26:38Z</time>
      </trkpt>
      <trkpt lat="44.54841" lon="1.52246">
        <ele>221</ele>
        <time>2017-09-22T12:26:46Z</time>
      </trkpt>
      <trkpt lat="44.54846" lon="1.52243">
        <ele>223</ele>
        <time>2017-09-22T12:26:51Z</time>
      </trkpt>
      <trkpt lat="44.54851" lon="1.5224">
        <ele>224</ele>
        <time>2017-09-22T12:26:56Z</time>
      </trkpt>
      <trkpt lat="44.54856" lon="1.52238">
        <ele>225</ele>
        <time>2017-09-22T12:26:59Z</time>
      </trkpt>
      <trkpt lat="44.54861" lon="1.52235">
        <ele>226</ele>
        <time>2017-09-22T12:27:03Z</time>
      </trkpt>
      <trkpt lat="44.54867" lon="1.52231">
        <ele>227</ele>
        <time>2017-09-22T12:27:08Z</time>
      </trkpt>
      <trkpt lat="44.54884" lon="1.52226">
        <ele>227</ele>
        <time>2017-09-22T12:27:22Z</time>
      </trkpt>
      <trkpt lat="44.549" lon="1.52218">
        <ele>227</ele>
        <time>2017-09-22T12:27:34Z</time>
      </trkpt>
      <trkpt lat="44.54906" lon="1.52219">
        <ele>227</ele>
        <time>2017-09-22T12:27:40Z</time>
      </trkpt>
      <trkpt lat="44.54916" lon="1.52218">
        <ele>227</ele>
        <time>2017-09-22T12:27:50Z</time>
      </trkpt>
      <trkpt lat="44.54927" lon="1.52217">
        <ele>227</ele>
        <time>2017-09-22T12:27:58Z</time>
      </trkpt>
      <trkpt lat="44.54931" lon="1.52215">
        <ele>227</ele>
        <time>2017-09-22T12:28:01Z</time>
      </trkpt>
      <trkpt lat="44.54936" lon="1.52214">
        <ele>228</ele>
        <time>2017-09-22T12:28:06Z</time>
      </trkpt>
      <trkpt lat="44.54948" lon="1.52214">
        <ele>228</ele>
        <time>2017-09-22T12:28:17Z</time>
      </trkpt>
      <trkpt lat="44.54953" lon="1.52214">
        <ele>228</ele>
        <time>2017-09-22T12:28:21Z</time>
      </trkpt>
      <trkpt lat="44.54992" lon="1.52216">
        <ele>228</ele>
        <time>2017-09-22T12:28:48Z</time>
      </trkpt>
      <trkpt lat="44.54997" lon="1.52218">
        <ele>227</ele>
        <time>2017-09-22T12:28:52Z</time>
      </trkpt>
      <trkpt lat="44.55" lon="1.5222">
        <ele>230</ele>
        <time>2017-09-22T12:28:55Z</time>
      </trkpt>
      <trkpt lat="44.55004" lon="1.52222">
        <ele>229</ele>
        <time>2017-09-22T12:28:58Z</time>
      </trkpt>
      <trkpt lat="44.55007" lon="1.52223">
        <ele>229</ele>
        <time>2017-09-22T12:29:01Z</time>
      </trkpt>
      <trkpt lat="44.55011" lon="1.52224">
        <ele>229</ele>
        <time>2017-09-22T12:29:04Z</time>
      </trkpt>
      <trkpt lat="44.55017" lon="1.52224">
        <ele>230</ele>
        <time>2017-09-22T12:29:08Z</time>
      </trkpt>
      <trkpt lat="44.55021" lon="1.52223">
        <ele>230</ele>
        <time>2017-09-22T12:29:11Z</time>
      </trkpt>
      <trkpt lat="44.55029" lon="1.52222">
        <ele>231</ele>
        <time>2017-09-22T12:29:17Z</time>
      </trkpt>
      <trkpt lat="44.55033" lon="1.52225">
        <ele>231</ele>
        <time>2017-09-22T12:29:21Z</time>
      </trkpt>
      <trkpt lat="44.55037" lon="1.52226">
        <ele>231</ele>
        <time>2017-09-22T12:29:24Z</time>
      </trkpt>
      <trkpt lat="44.55041" lon="1.52229">
        <ele>231</ele>
        <time>2017-09-22T12:29:27Z</time>
      </trkpt>
      <trkpt lat="44.55045" lon="1.52229">
        <ele>231</ele>
        <time>2017-09-22T12:29:31Z</time>
      </trkpt>
      <trkpt lat="44.55049" lon="1.5223">
        <ele>231</ele>
        <time>2017-09-22T12:29:34Z</time>
      </trkpt>
      <trkpt lat="44.55053" lon="1.52232">
        <ele>231</ele>
        <time>2017-09-22T12:29:38Z</time>
      </trkpt>
      <trkpt lat="44.55057" lon="1.52234">
        <ele>230</ele>
        <time>2017-09-22T12:29:41Z</time>
      </trkpt>
      <trkpt lat="44.5506" lon="1.52237">
        <ele>230</ele>
        <time>2017-09-22T12:29:45Z</time>
      </trkpt>
      <trkpt lat="44.55067" lon="1.52243">
        <ele>228</ele>
        <time>2017-09-22T12:29:51Z</time>
      </trkpt>
      <trkpt lat="44.5507" lon="1.52246">
        <ele>227</ele>
        <time>2017-09-22T12:29:54Z</time>
      </trkpt>
      <trkpt lat="44.55073" lon="1.52247">
        <ele>227</ele>
        <time>2017-09-22T12:29:56Z</time>
      </trkpt>
      <trkpt lat="44.55077" lon="1.52248">
        <ele>226</ele>
        <time>2017-09-22T12:29:59Z</time>
      </trkpt>
      <trkpt lat="44.55081" lon="1.52249">
        <ele>224</ele>
        <time>2017-09-22T12:30:03Z</time>
      </trkpt>
      <trkpt lat="44.55112" lon="1.52255">
        <ele>223</ele>
        <time>2017-09-22T12:30:29Z</time>
      </trkpt>
      <trkpt lat="44.55117" lon="1.52256">
        <ele>223</ele>
        <time>2017-09-22T12:30:32Z</time>
      </trkpt>
      <trkpt lat="44.55122" lon="1.52259">
        <ele>223</ele>
        <time>2017-09-22T12:30:36Z</time>
      </trkpt>
      <trkpt lat="44.55127" lon="1.5226">
        <ele>223</ele>
        <time>2017-09-22T12:30:40Z</time>
      </trkpt>
      <trkpt lat="44.55132" lon="1.52263">
        <ele>223</ele>
        <time>2017-09-22T12:30:44Z</time>
      </trkpt>
      <trkpt lat="44.55137" lon="1.52265">
        <ele>223</ele>
        <time>2017-09-22T12:30:48Z</time>
      </trkpt>
      <trkpt lat="44.55145" lon="1.52269">
        <ele>224</ele>
        <time>2017-09-22T12:30:54Z</time>
      </trkpt>
      <trkpt lat="44.55155" lon="1.52271">
        <ele>224</ele>
        <time>2017-09-22T12:31:02Z</time>
      </trkpt>
      <trkpt lat="44.5516" lon="1.52271">
        <ele>225</ele>
        <time>2017-09-22T12:31:07Z</time>
      </trkpt>
      <trkpt lat="44.55172" lon="1.52269">
        <ele>226</ele>
        <time>2017-09-22T12:31:17Z</time>
      </trkpt>
      <trkpt lat="44.55177" lon="1.52267">
        <ele>226</ele>
        <time>2017-09-22T12:31:22Z</time>
      </trkpt>
      <trkpt lat="44.55182" lon="1.52265">
        <ele>226</ele>
        <time>2017-09-22T12:31:26Z</time>
      </trkpt>
      <trkpt lat="44.55195" lon="1.52261">
        <ele>226</ele>
        <time>2017-09-22T12:31:36Z</time>
      </trkpt>
      <trkpt lat="44.55201" lon="1.52258">
        <ele>226</ele>
        <time>2017-09-22T12:31:42Z</time>
      </trkpt>
      <trkpt lat="44.55207" lon="1.52256">
        <ele>226</ele>
        <time>2017-09-22T12:31:46Z</time>
      </trkpt>
      <trkpt lat="44.55212" lon="1.52255">
        <ele>226</ele>
        <time>2017-09-22T12:31:50Z</time>
      </trkpt>
      <trkpt lat="44.55217" lon="1.52253">
        <ele>226</ele>
        <time>2017-09-22T12:31:55Z</time>
      </trkpt>
      <trkpt lat="44.55222" lon="1.52251">
        <ele>226</ele>
        <time>2017-09-22T12:32:00Z</time>
      </trkpt>
      <trkpt lat="44.5523" lon="1.52248">
        <ele>236</ele>
        <time>2017-09-22T12:32:06Z</time>
      </trkpt>
      <trkpt lat="44.55234" lon="1.52248">
        <ele>234</ele>
        <time>2017-09-22T12:32:09Z</time>
      </trkpt>
      <trkpt lat="44.55245" lon="1.52244">
        <ele>231</ele>
        <time>2017-09-22T12:32:18Z</time>
      </trkpt>
      <trkpt lat="44.5525" lon="1.52242">
        <ele>232</ele>
        <time>2017-09-22T12:32:23Z</time>
      </trkpt>
      <trkpt lat="44.55255" lon="1.52241">
        <ele>230</ele>
        <time>2017-09-22T12:32:28Z</time>
      </trkpt>
      <trkpt lat="44.55277" lon="1.52233">
        <ele>233</ele>
        <time>2017-09-22T12:32:45Z</time>
      </trkpt>
      <trkpt lat="44.55283" lon="1.52231">
        <ele>233</ele>
        <time>2017-09-22T12:32:49Z</time>
      </trkpt>
      <trkpt lat="44.55289" lon="1.52228">
        <ele>233</ele>
        <time>2017-09-22T12:32:53Z</time>
      </trkpt>
      <trkpt lat="44.55295" lon="1.52222">
        <ele>234</ele>
        <time>2017-09-22T12:33:00Z</time>
      </trkpt>
      <trkpt lat="44.55317" lon="1.52207">
        <ele>234</ele>
        <time>2017-09-22T12:33:19Z</time>
      </trkpt>
      <trkpt lat="44.55328" lon="1.52199">
        <ele>234</ele>
        <time>2017-09-22T12:33:28Z</time>
      </trkpt>
      <trkpt lat="44.55339" lon="1.52191">
        <ele>231</ele>
        <time>2017-09-22T12:33:38Z</time>
      </trkpt>
      <trkpt lat="44.55344" lon="1.52191">
        <ele>230</ele>
        <time>2017-09-22T12:33:41Z</time>
      </trkpt>
      <trkpt lat="44.55354" lon="1.52183">
        <ele>231</ele>
        <time>2017-09-22T12:33:50Z</time>
      </trkpt>
      <trkpt lat="44.55359" lon="1.5218">
        <ele>230</ele>
        <time>2017-09-22T12:33:54Z</time>
      </trkpt>
      <trkpt lat="44.55366" lon="1.52177">
        <ele>230</ele>
        <time>2017-09-22T12:34:01Z</time>
      </trkpt>
      <trkpt lat="44.55373" lon="1.52176">
        <ele>229</ele>
        <time>2017-09-22T12:34:08Z</time>
      </trkpt>
      <trkpt lat="44.55404" lon="1.52164">
        <ele>233</ele>
        <time>2017-09-22T12:34:34Z</time>
      </trkpt>
      <trkpt lat="44.55408" lon="1.52161">
        <ele>233</ele>
        <time>2017-09-22T12:34:37Z</time>
      </trkpt>
      <trkpt lat="44.55418" lon="1.52155">
        <ele>230</ele>
        <time>2017-09-22T12:34:44Z</time>
      </trkpt>
      <trkpt lat="44.55423" lon="1.52151">
        <ele>231</ele>
        <time>2017-09-22T12:34:50Z</time>
      </trkpt>
      <trkpt lat="44.55435" lon="1.52144">
        <ele>233</ele>
        <time>2017-09-22T12:35:01Z</time>
      </trkpt>
      <trkpt lat="44.55463" lon="1.52136">
        <ele>233</ele>
        <time>2017-09-22T12:35:24Z</time>
      </trkpt>
      <trkpt lat="44.55468" lon="1.52134">
        <ele>233</ele>
        <time>2017-09-22T12:35:29Z</time>
      </trkpt>
      <trkpt lat="44.55492" lon="1.52119">
        <ele>235</ele>
        <time>2017-09-22T12:35:49Z</time>
      </trkpt>
      <trkpt lat="44.55502" lon="1.52111">
        <ele>234</ele>
        <time>2017-09-22T12:35:57Z</time>
      </trkpt>
      <trkpt lat="44.55507" lon="1.52109">
        <ele>235</ele>
        <time>2017-09-22T12:36:01Z</time>
      </trkpt>
      <trkpt lat="44.55516" lon="1.52099">
        <ele>236</ele>
        <time>2017-09-22T12:36:10Z</time>
      </trkpt>
      <trkpt lat="44.55522" lon="1.52096">
        <ele>235</ele>
        <time>2017-09-22T12:36:15Z</time>
      </trkpt>
      <trkpt lat="44.55527" lon="1.52093">
        <ele>235</ele>
        <time>2017-09-22T12:36:19Z</time>
      </trkpt>
      <trkpt lat="44.55532" lon="1.52089">
        <ele>235</ele>
        <time>2017-09-22T12:36:25Z</time>
      </trkpt>
      <trkpt lat="44.55537" lon="1.52088">
        <ele>235</ele>
        <time>2017-09-22T12:36:30Z</time>
      </trkpt>
      <trkpt lat="44.55542" lon="1.52087">
        <ele>235</ele>
        <time>2017-09-22T12:36:34Z</time>
      </trkpt>
      <trkpt lat="44.55554" lon="1.52086">
        <ele>234</ele>
        <time>2017-09-22T12:36:42Z</time>
      </trkpt>
      <trkpt lat="44.55571" lon="1.52089">
        <ele>235</ele>
        <time>2017-09-22T12:37:00Z</time>
      </trkpt>
      <trkpt lat="44.55585" lon="1.52087">
        <ele>236</ele>
        <time>2017-09-22T12:37:08Z</time>
      </trkpt>
      <trkpt lat="44.5559" lon="1.52085">
        <ele>236</ele>
        <time>2017-09-22T12:37:12Z</time>
      </trkpt>
      <trkpt lat="44.556" lon="1.52082">
        <ele>245</ele>
        <time>2017-09-22T12:37:21Z</time>
      </trkpt>
      <trkpt lat="44.55606" lon="1.52081">
        <ele>246</ele>
        <time>2017-09-22T12:37:27Z</time>
      </trkpt>
      <trkpt lat="44.55612" lon="1.52081">
        <ele>247</ele>
        <time>2017-09-22T12:37:32Z</time>
      </trkpt>
      <trkpt lat="44.55627" lon="1.52082">
        <ele>248</ele>
        <time>2017-09-22T12:37:43Z</time>
      </trkpt>
      <trkpt lat="44.55632" lon="1.52084">
        <ele>235</ele>
        <time>2017-09-22T12:37:47Z</time>
      </trkpt>
      <trkpt lat="44.55637" lon="1.52083">
        <ele>248</ele>
        <time>2017-09-22T12:37:51Z</time>
      </trkpt>
      <trkpt lat="44.55648" lon="1.52083">
        <ele>246</ele>
        <time>2017-09-22T12:37:59Z</time>
      </trkpt>
      <trkpt lat="44.55653" lon="1.52084">
        <ele>236</ele>
        <time>2017-09-22T12:38:03Z</time>
      </trkpt>
      <trkpt lat="44.55663" lon="1.52088">
        <ele>237</ele>
        <time>2017-09-22T12:38:11Z</time>
      </trkpt>
      <trkpt lat="44.55667" lon="1.52092">
        <ele>239</ele>
        <time>2017-09-22T12:38:15Z</time>
      </trkpt>
      <trkpt lat="44.55672" lon="1.52094">
        <ele>238</ele>
        <time>2017-09-22T12:38:19Z</time>
      </trkpt>
      <trkpt lat="44.55681" lon="1.52096">
        <ele>238</ele>
        <time>2017-09-22T12:38:27Z</time>
      </trkpt>
      <trkpt lat="44.55686" lon="1.52097">
        <ele>238</ele>
        <time>2017-09-22T12:38:30Z</time>
      </trkpt>
      <trkpt lat="44.5569" lon="1.52099">
        <ele>239</ele>
        <time>2017-09-22T12:38:34Z</time>
      </trkpt>
      <trkpt lat="44.55695" lon="1.52101">
        <ele>239</ele>
        <time>2017-09-22T12:38:38Z</time>
      </trkpt>
      <trkpt lat="44.55703" lon="1.52107">
        <ele>239</ele>
        <time>2017-09-22T12:38:45Z</time>
      </trkpt>
      <trkpt lat="44.55711" lon="1.52113">
        <ele>239</ele>
        <time>2017-09-22T12:38:51Z</time>
      </trkpt>
      <trkpt lat="44.55718" lon="1.5212">
        <ele>239</ele>
        <time>2017-09-22T12:38:57Z</time>
      </trkpt>
      <trkpt lat="44.55727" lon="1.52125">
        <ele>238</ele>
        <time>2017-09-22T12:39:04Z</time>
      </trkpt>
      <trkpt lat="44.55745" lon="1.52137">
        <ele>237</ele>
        <time>2017-09-22T12:39:19Z</time>
      </trkpt>
      <trkpt lat="44.55758" lon="1.52145">
        <ele>244</ele>
        <time>2017-09-22T12:39:32Z</time>
      </trkpt>
      <trkpt lat="44.55762" lon="1.52147">
        <ele>244</ele>
        <time>2017-09-22T12:39:36Z</time>
      </trkpt>
      <trkpt lat="44.55766" lon="1.52149">
        <ele>244</ele>
        <time>2017-09-22T12:39:40Z</time>
      </trkpt>
      <trkpt lat="44.55791" lon="1.5216">
        <ele>248</ele>
        <time>2017-09-22T12:40:00Z</time>
      </trkpt>
      <trkpt lat="44.55796" lon="1.52161">
        <ele>249</ele>
        <time>2017-09-22T12:40:03Z</time>
      </trkpt>
      <trkpt lat="44.55804" lon="1.52171">
        <ele>241</ele>
        <time>2017-09-22T12:40:09Z</time>
      </trkpt>
      <trkpt lat="44.55809" lon="1.52182">
        <ele>242</ele>
        <time>2017-09-22T12:40:16Z</time>
      </trkpt>
      <trkpt lat="44.55813" lon="1.52187">
        <ele>242</ele>
        <time>2017-09-22T12:40:20Z</time>
      </trkpt>
      <trkpt lat="44.55816" lon="1.52192">
        <ele>242</ele>
        <time>2017-09-22T12:40:23Z</time>
      </trkpt>
      <trkpt lat="44.5583" lon="1.52223">
        <ele>240</ele>
        <time>2017-09-22T12:40:43Z</time>
      </trkpt>
      <trkpt lat="44.55833" lon="1.52228">
        <ele>239</ele>
        <time>2017-09-22T12:40:48Z</time>
      </trkpt>
      <trkpt lat="44.55837" lon="1.52232">
        <ele>247</ele>
        <time>2017-09-22T12:40:52Z</time>
      </trkpt>
      <trkpt lat="44.55839" lon="1.52238">
        <ele>245</ele>
        <time>2017-09-22T12:40:56Z</time>
      </trkpt>
      <trkpt lat="44.55842" lon="1.52243">
        <ele>245</ele>
        <time>2017-09-22T12:41:00Z</time>
      </trkpt>
      <trkpt lat="44.55845" lon="1.52249">
        <ele>245</ele>
        <time>2017-09-22T12:41:04Z</time>
      </trkpt>
      <trkpt lat="44.5585" lon="1.52261">
        <ele>241</ele>
        <time>2017-09-22T12:41:12Z</time>
      </trkpt>
      <trkpt lat="44.55854" lon="1.52266">
        <ele>242</ele>
        <time>2017-09-22T12:41:16Z</time>
      </trkpt>
      <trkpt lat="44.55857" lon="1.52272">
        <ele>242</ele>
        <time>2017-09-22T12:41:20Z</time>
      </trkpt>
      <trkpt lat="44.5586" lon="1.52278">
        <ele>243</ele>
        <time>2017-09-22T12:41:27Z</time>
      </trkpt>
      <trkpt lat="44.55858" lon="1.52281">
        <ele>242</ele>
        <time>2017-09-22T12:42:08Z</time>
      </trkpt>
      <trkpt lat="44.5587" lon="1.52276">
        <ele>244</ele>
        <time>2017-09-22T12:43:23Z</time>
      </trkpt>
      <trkpt lat="44.55867" lon="1.5227">
        <ele>244</ele>
        <time>2017-09-22T12:43:31Z</time>
      </trkpt>
      <trkpt lat="44.55864" lon="1.52271">
        <ele>243</ele>
        <time>2017-09-22T12:43:58Z</time>
      </trkpt>
      <trkpt lat="44.55862" lon="1.52275">
        <ele>243</ele>
        <time>2017-09-22T12:44:02Z</time>
      </trkpt>
      <trkpt lat="44.55863" lon="1.52287">
        <ele>243</ele>
        <time>2017-09-22T12:44:49Z</time>
      </trkpt>
      <trkpt lat="44.55866" lon="1.5229">
        <ele>243</ele>
        <time>2017-09-22T12:45:20Z</time>
      </trkpt>
      <trkpt lat="44.55868" lon="1.52295">
        <ele>243</ele>
        <time>2017-09-22T12:45:43Z</time>
      </trkpt>
      <trkpt lat="44.5587" lon="1.52301">
        <ele>243</ele>
        <time>2017-09-22T12:45:49Z</time>
      </trkpt>
      <trkpt lat="44.55872" lon="1.52307">
        <ele>242</ele>
        <time>2017-09-22T12:45:57Z</time>
      </trkpt>
      <trkpt lat="44.55877" lon="1.52308">
        <ele>243</ele>
        <time>2017-09-22T12:46:05Z</time>
      </trkpt>
      <trkpt lat="44.55875" lon="1.52311">
        <ele>242</ele>
        <time>2017-09-22T12:47:08Z</time>
      </trkpt>
      <trkpt lat="44.55876" lon="1.52314">
        <ele>242</ele>
        <time>2017-09-22T12:47:17Z</time>
      </trkpt>
      <trkpt lat="44.55881" lon="1.52321">
        <ele>242</ele>
        <time>2017-09-22T12:47:23Z</time>
      </trkpt>
      <trkpt lat="44.55881" lon="1.52324">
        <ele>242</ele>
        <time>2017-09-22T12:47:25Z</time>
      </trkpt>
      <trkpt lat="44.55884" lon="1.52326">
        <ele>243</ele>
        <time>2017-09-22T12:47:30Z</time>
      </trkpt>
      <trkpt lat="44.55887" lon="1.5233">
        <ele>243</ele>
        <time>2017-09-22T12:47:34Z</time>
      </trkpt>
      <trkpt lat="44.55895" lon="1.52343">
        <ele>240</ele>
        <time>2017-09-22T12:47:47Z</time>
      </trkpt>
      <trkpt lat="44.55909" lon="1.52356">
        <ele>240</ele>
        <time>2017-09-22T12:47:59Z</time>
      </trkpt>
      <trkpt lat="44.55919" lon="1.52362">
        <ele>242</ele>
        <time>2017-09-22T12:48:08Z</time>
      </trkpt>
      <trkpt lat="44.55923" lon="1.52365">
        <ele>241</ele>
        <time>2017-09-22T12:48:12Z</time>
      </trkpt>
      <trkpt lat="44.55927" lon="1.52371">
        <ele>241</ele>
        <time>2017-09-22T12:48:17Z</time>
      </trkpt>
      <trkpt lat="44.55931" lon="1.52374">
        <ele>241</ele>
        <time>2017-09-22T12:48:20Z</time>
      </trkpt>
      <trkpt lat="44.55934" lon="1.5238">
        <ele>241</ele>
        <time>2017-09-22T12:48:24Z</time>
      </trkpt>
      <trkpt lat="44.55938" lon="1.52382">
        <ele>241</ele>
        <time>2017-09-22T12:48:28Z</time>
      </trkpt>
      <trkpt lat="44.55959" lon="1.52398">
        <ele>240</ele>
        <time>2017-09-22T12:48:46Z</time>
      </trkpt>
      <trkpt lat="44.55965" lon="1.524">
        <ele>241</ele>
        <time>2017-09-22T12:48:51Z</time>
      </trkpt>
      <trkpt lat="44.5597" lon="1.52401">
        <ele>241</ele>
        <time>2017-09-22T12:48:55Z</time>
      </trkpt>
      <trkpt lat="44.55973" lon="1.524">
        <ele>241</ele>
        <time>2017-09-22T12:48:57Z</time>
      </trkpt>
      <trkpt lat="44.55981" lon="1.52395">
        <ele>241</ele>
        <time>2017-09-22T12:49:05Z</time>
      </trkpt>
      <trkpt lat="44.55983" lon="1.52393">
        <ele>241</ele>
        <time>2017-09-22T12:49:07Z</time>
      </trkpt>
      <trkpt lat="44.55986" lon="1.5239">
        <ele>241</ele>
        <time>2017-09-22T12:49:10Z</time>
      </trkpt>
      <trkpt lat="44.55992" lon="1.52385">
        <ele>242</ele>
        <time>2017-09-22T12:49:16Z</time>
      </trkpt>
      <trkpt lat="44.5601" lon="1.52363">
        <ele>247</ele>
        <time>2017-09-22T12:49:40Z</time>
      </trkpt>
      <trkpt lat="44.56015" lon="1.52359">
        <ele>247</ele>
        <time>2017-09-22T12:49:46Z</time>
      </trkpt>
      <trkpt lat="44.5603" lon="1.52351">
        <ele>247</ele>
        <time>2017-09-22T12:49:58Z</time>
      </trkpt>
      <trkpt lat="44.56034" lon="1.52352">
        <ele>247</ele>
        <time>2017-09-22T12:50:02Z</time>
      </trkpt>
      <trkpt lat="44.56044" lon="1.52351">
        <ele>247</ele>
        <time>2017-09-22T12:50:10Z</time>
      </trkpt>
      <trkpt lat="44.56049" lon="1.52352">
        <ele>247</ele>
        <time>2017-09-22T12:50:15Z</time>
      </trkpt>
      <trkpt lat="44.56073" lon="1.52359">
        <ele>247</ele>
        <time>2017-09-22T12:50:35Z</time>
      </trkpt>
      <trkpt lat="44.56078" lon="1.5236">
        <ele>247</ele>
        <time>2017-09-22T12:50:39Z</time>
      </trkpt>
      <trkpt lat="44.56083" lon="1.52363">
        <ele>247</ele>
        <time>2017-09-22T12:50:43Z</time>
      </trkpt>
      <trkpt lat="44.56088" lon="1.52364">
        <ele>249</ele>
        <time>2017-09-22T12:50:47Z</time>
      </trkpt>
      <trkpt lat="44.56093" lon="1.52365">
        <ele>249</ele>
        <time>2017-09-22T12:50:52Z</time>
      </trkpt>
      <trkpt lat="44.56099" lon="1.52365">
        <ele>249</ele>
        <time>2017-09-22T12:50:56Z</time>
      </trkpt>
      <trkpt lat="44.56104" lon="1.52367">
        <ele>249</ele>
        <time>2017-09-22T12:51:00Z</time>
      </trkpt>
      <trkpt lat="44.5611" lon="1.52368">
        <ele>249</ele>
        <time>2017-09-22T12:51:05Z</time>
      </trkpt>
      <trkpt lat="44.56115" lon="1.52368">
        <ele>249</ele>
        <time>2017-09-22T12:51:09Z</time>
      </trkpt>
      <trkpt lat="44.5612" lon="1.52367">
        <ele>249</ele>
        <time>2017-09-22T12:51:12Z</time>
      </trkpt>
      <trkpt lat="44.56126" lon="1.52368">
        <ele>250</ele>
        <time>2017-09-22T12:51:17Z</time>
      </trkpt>
      <trkpt lat="44.56131" lon="1.52369">
        <ele>250</ele>
        <time>2017-09-22T12:51:21Z</time>
      </trkpt>
      <trkpt lat="44.56137" lon="1.52371">
        <ele>250</ele>
        <time>2017-09-22T12:51:26Z</time>
      </trkpt>
      <trkpt lat="44.56142" lon="1.52374">
        <ele>250</ele>
        <time>2017-09-22T12:51:29Z</time>
      </trkpt>
      <trkpt lat="44.56146" lon="1.52377">
        <ele>250</ele>
        <time>2017-09-22T12:51:32Z</time>
      </trkpt>
      <trkpt lat="44.56156" lon="1.5238">
        <ele>249</ele>
        <time>2017-09-22T12:51:43Z</time>
      </trkpt>
      <trkpt lat="44.56163" lon="1.52382">
        <ele>249</ele>
        <time>2017-09-22T12:51:49Z</time>
      </trkpt>
      <trkpt lat="44.56169" lon="1.52382">
        <ele>252</ele>
        <time>2017-09-22T12:51:53Z</time>
      </trkpt>
      <trkpt lat="44.56179" lon="1.52383">
        <ele>252</ele>
        <time>2017-09-22T12:52:00Z</time>
      </trkpt>
      <trkpt lat="44.56185" lon="1.52385">
        <ele>251</ele>
        <time>2017-09-22T12:52:05Z</time>
      </trkpt>
      <trkpt lat="44.56196" lon="1.52386">
        <ele>252</ele>
        <time>2017-09-22T12:52:15Z</time>
      </trkpt>
      <trkpt lat="44.5623" lon="1.52388">
        <ele>252</ele>
        <time>2017-09-22T12:52:41Z</time>
      </trkpt>
      <trkpt lat="44.56236" lon="1.52388">
        <ele>251</ele>
        <time>2017-09-22T12:52:46Z</time>
      </trkpt>
      <trkpt lat="44.56241" lon="1.52389">
        <ele>251</ele>
        <time>2017-09-22T12:52:50Z</time>
      </trkpt>
      <trkpt lat="44.56246" lon="1.52389">
        <ele>251</ele>
        <time>2017-09-22T12:52:54Z</time>
      </trkpt>
      <trkpt lat="44.56251" lon="1.52387">
        <ele>253</ele>
        <time>2017-09-22T12:52:59Z</time>
      </trkpt>
      <trkpt lat="44.56255" lon="1.52385">
        <ele>253</ele>
        <time>2017-09-22T12:53:03Z</time>
      </trkpt>
      <trkpt lat="44.56272" lon="1.52381">
        <ele>254</ele>
        <time>2017-09-22T12:53:17Z</time>
      </trkpt>
      <trkpt lat="44.56289" lon="1.52381">
        <ele>254</ele>
        <time>2017-09-22T12:53:31Z</time>
      </trkpt>
      <trkpt lat="44.56294" lon="1.5238">
        <ele>255</ele>
        <time>2017-09-22T12:53:34Z</time>
      </trkpt>
      <trkpt lat="44.56305" lon="1.52378">
        <ele>255</ele>
        <time>2017-09-22T12:53:44Z</time>
      </trkpt>
      <trkpt lat="44.5633" lon="1.52372">
        <ele>256</ele>
        <time>2017-09-22T12:54:03Z</time>
      </trkpt>
      <trkpt lat="44.56335" lon="1.52371">
        <ele>256</ele>
        <time>2017-09-22T12:54:06Z</time>
      </trkpt>
      <trkpt lat="44.56351" lon="1.52366">
        <ele>256</ele>
        <time>2017-09-22T12:54:18Z</time>
      </trkpt>
      <trkpt lat="44.56355" lon="1.52364">
        <ele>256</ele>
        <time>2017-09-22T12:54:22Z</time>
      </trkpt>
      <trkpt lat="44.56361" lon="1.52364">
        <ele>256</ele>
        <time>2017-09-22T12:54:26Z</time>
      </trkpt>
      <trkpt lat="44.56367" lon="1.52362">
        <ele>256</ele>
        <time>2017-09-22T12:54:32Z</time>
      </trkpt>
      <trkpt lat="44.56372" lon="1.5236">
        <ele>256</ele>
        <time>2017-09-22T12:54:36Z</time>
      </trkpt>
      <trkpt lat="44.56376" lon="1.52362">
        <ele>256</ele>
        <time>2017-09-22T12:54:39Z</time>
      </trkpt>
      <trkpt lat="44.56392" lon="1.52361">
        <ele>256</ele>
        <time>2017-09-22T12:54:51Z</time>
      </trkpt>
      <trkpt lat="44.56396" lon="1.52362">
        <ele>256</ele>
        <time>2017-09-22T12:54:54Z</time>
      </trkpt>
      <trkpt lat="44.56402" lon="1.5236">
        <ele>256</ele>
        <time>2017-09-22T12:54:58Z</time>
      </trkpt>
      <trkpt lat="44.56406" lon="1.52359">
        <ele>256</ele>
        <time>2017-09-22T12:55:01Z</time>
      </trkpt>
      <trkpt lat="44.56411" lon="1.52357">
        <ele>256</ele>
        <time>2017-09-22T12:55:04Z</time>
      </trkpt>
      <trkpt lat="44.56417" lon="1.52356">
        <ele>257</ele>
        <time>2017-09-22T12:55:09Z</time>
      </trkpt>
      <trkpt lat="44.56422" lon="1.52358">
        <ele>257</ele>
        <time>2017-09-22T12:55:14Z</time>
      </trkpt>
      <trkpt lat="44.56426" lon="1.52359">
        <ele>257</ele>
        <time>2017-09-22T12:55:19Z</time>
      </trkpt>
      <trkpt lat="44.56431" lon="1.5236">
        <ele>257</ele>
        <time>2017-09-22T12:55:24Z</time>
      </trkpt>
      <trkpt lat="44.56435" lon="1.5236">
        <ele>257</ele>
        <time>2017-09-22T12:55:26Z</time>
      </trkpt>
      <trkpt lat="44.56452" lon="1.52365">
        <ele>257</ele>
        <time>2017-09-22T12:55:43Z</time>
      </trkpt>
      <trkpt lat="44.56457" lon="1.52366">
        <ele>258</ele>
        <time>2017-09-22T12:55:47Z</time>
      </trkpt>
      <trkpt lat="44.56461" lon="1.52368">
        <ele>258</ele>
        <time>2017-09-22T12:55:51Z</time>
      </trkpt>
      <trkpt lat="44.56467" lon="1.5237">
        <ele>258</ele>
        <time>2017-09-22T12:55:57Z</time>
      </trkpt>
      <trkpt lat="44.56497" lon="1.52377">
        <ele>258</ele>
        <time>2017-09-22T12:56:20Z</time>
      </trkpt>
      <trkpt lat="44.56504" lon="1.52383">
        <ele>260</ele>
        <time>2017-09-22T12:56:30Z</time>
      </trkpt>
      <trkpt lat="44.56509" lon="1.52385">
        <ele>260</ele>
        <time>2017-09-22T12:56:35Z</time>
      </trkpt>
      <trkpt lat="44.56515" lon="1.52389">
        <ele>259</ele>
        <time>2017-09-22T12:56:41Z</time>
      </trkpt>
      <trkpt lat="44.56521" lon="1.5239">
        <ele>260</ele>
        <time>2017-09-22T12:56:45Z</time>
      </trkpt>
      <trkpt lat="44.56526" lon="1.52392">
        <ele>260</ele>
        <time>2017-09-22T12:56:50Z</time>
      </trkpt>
      <trkpt lat="44.56531" lon="1.52395">
        <ele>260</ele>
        <time>2017-09-22T12:56:54Z</time>
      </trkpt>
      <trkpt lat="44.56548" lon="1.52397">
        <ele>260</ele>
        <time>2017-09-22T12:57:06Z</time>
      </trkpt>
      <trkpt lat="44.5656" lon="1.52395">
        <ele>260</ele>
        <time>2017-09-22T12:57:16Z</time>
      </trkpt>
      <trkpt lat="44.56573" lon="1.52395">
        <ele>259</ele>
        <time>2017-09-22T12:57:25Z</time>
      </trkpt>
      <trkpt lat="44.56579" lon="1.52397">
        <ele>259</ele>
        <time>2017-09-22T12:57:30Z</time>
      </trkpt>
      <trkpt lat="44.56584" lon="1.52399">
        <ele>259</ele>
        <time>2017-09-22T12:57:34Z</time>
      </trkpt>
      <trkpt lat="44.56589" lon="1.524">
        <ele>259</ele>
        <time>2017-09-22T12:57:38Z</time>
      </trkpt>
      <trkpt lat="44.56599" lon="1.52403">
        <ele>259</ele>
        <time>2017-09-22T12:57:46Z</time>
      </trkpt>
      <trkpt lat="44.56604" lon="1.52405">
        <ele>260</ele>
        <time>2017-09-22T12:57:50Z</time>
      </trkpt>
      <trkpt lat="44.56608" lon="1.52406">
        <ele>260</ele>
        <time>2017-09-22T12:57:53Z</time>
      </trkpt>
      <trkpt lat="44.56612" lon="1.52406">
        <ele>260</ele>
        <time>2017-09-22T12:57:56Z</time>
      </trkpt>
      <trkpt lat="44.56617" lon="1.52406">
        <ele>261</ele>
        <time>2017-09-22T12:57:59Z</time>
      </trkpt>
      <trkpt lat="44.56627" lon="1.52407">
        <ele>261</ele>
        <time>2017-09-22T12:58:06Z</time>
      </trkpt>
      <trkpt lat="44.56636" lon="1.52409">
        <ele>260</ele>
        <time>2017-09-22T12:58:12Z</time>
      </trkpt>
      <trkpt lat="44.56643" lon="1.52408">
        <ele>260</ele>
        <time>2017-09-22T12:58:17Z</time>
      </trkpt>
      <trkpt lat="44.56648" lon="1.52409">
        <ele>260</ele>
        <time>2017-09-22T12:58:21Z</time>
      </trkpt>
      <trkpt lat="44.56665" lon="1.52408">
        <ele>258</ele>
        <time>2017-09-22T12:58:33Z</time>
      </trkpt>
      <trkpt lat="44.56697" lon="1.52396">
        <ele>262</ele>
        <time>2017-09-22T12:59:04Z</time>
      </trkpt>
      <trkpt lat="44.56714" lon="1.52398">
        <ele>262</ele>
        <time>2017-09-22T12:59:16Z</time>
      </trkpt>
      <trkpt lat="44.56718" lon="1.52397">
        <ele>262</ele>
        <time>2017-09-22T12:59:19Z</time>
      </trkpt>
      <trkpt lat="44.56723" lon="1.52398">
        <ele>262</ele>
        <time>2017-09-22T12:59:22Z</time>
      </trkpt>
      <trkpt lat="44.56729" lon="1.52397">
        <ele>261</ele>
        <time>2017-09-22T12:59:27Z</time>
      </trkpt>
      <trkpt lat="44.56746" lon="1.52397">
        <ele>261</ele>
        <time>2017-09-22T12:59:42Z</time>
      </trkpt>
      <trkpt lat="44.56763" lon="1.52398">
        <ele>264</ele>
        <time>2017-09-22T12:59:56Z</time>
      </trkpt>
      <trkpt lat="44.56768" lon="1.52399">
        <ele>264</ele>
        <time>2017-09-22T12:59:59Z</time>
      </trkpt>
      <trkpt lat="44.56774" lon="1.52399">
        <ele>265</ele>
        <time>2017-09-22T13:00:03Z</time>
      </trkpt>
      <trkpt lat="44.56785" lon="1.52399">
        <ele>265</ele>
        <time>2017-09-22T13:00:12Z</time>
      </trkpt>
      <trkpt lat="44.5679" lon="1.52398">
        <ele>266</ele>
        <time>2017-09-22T13:00:18Z</time>
      </trkpt>
      <trkpt lat="44.56795" lon="1.52397">
        <ele>266</ele>
        <time>2017-09-22T13:00:24Z</time>
      </trkpt>
      <trkpt lat="44.568" lon="1.52398">
        <ele>266</ele>
        <time>2017-09-22T13:00:28Z</time>
      </trkpt>
      <trkpt lat="44.56814" lon="1.52399">
        <ele>266</ele>
        <time>2017-09-22T13:00:38Z</time>
      </trkpt>
      <trkpt lat="44.56822" lon="1.52397">
        <ele>266</ele>
        <time>2017-09-22T13:00:44Z</time>
      </trkpt>
      <trkpt lat="44.56828" lon="1.52395">
        <ele>266</ele>
        <time>2017-09-22T13:00:49Z</time>
      </trkpt>
      <trkpt lat="44.56839" lon="1.52393">
        <ele>269</ele>
        <time>2017-09-22T13:00:56Z</time>
      </trkpt>
      <trkpt lat="44.56844" lon="1.52389">
        <ele>269</ele>
        <time>2017-09-22T13:00:59Z</time>
      </trkpt>
      <trkpt lat="44.56868" lon="1.52382">
        <ele>270</ele>
        <time>2017-09-22T13:01:20Z</time>
      </trkpt>
      <trkpt lat="44.56873" lon="1.52381">
        <ele>271</ele>
        <time>2017-09-22T13:01:23Z</time>
      </trkpt>
      <trkpt lat="44.56881" lon="1.52376">
        <ele>271</ele>
        <time>2017-09-22T13:01:29Z</time>
      </trkpt>
      <trkpt lat="44.56885" lon="1.52375">
        <ele>271</ele>
        <time>2017-09-22T13:01:32Z</time>
      </trkpt>
      <trkpt lat="44.5689" lon="1.52374">
        <ele>271</ele>
        <time>2017-09-22T13:01:36Z</time>
      </trkpt>
      <trkpt lat="44.56926" lon="1.52377">
        <ele>271</ele>
        <time>2017-09-22T13:02:06Z</time>
      </trkpt>
      <trkpt lat="44.56937" lon="1.52374">
        <ele>272</ele>
        <time>2017-09-22T13:02:17Z</time>
      </trkpt>
      <trkpt lat="44.56939" lon="1.52373">
        <ele>272</ele>
        <time>2017-09-22T13:02:19Z</time>
      </trkpt>
      <trkpt lat="44.56953" lon="1.52373">
        <ele>272</ele>
        <time>2017-09-22T13:02:32Z</time>
      </trkpt>
      <trkpt lat="44.56965" lon="1.52372">
        <ele>272</ele>
        <time>2017-09-22T13:02:41Z</time>
      </trkpt>
      <trkpt lat="44.56968" lon="1.52373">
        <ele>272</ele>
        <time>2017-09-22T13:02:44Z</time>
      </trkpt>
      <trkpt lat="44.56971" lon="1.52373">
        <ele>272</ele>
        <time>2017-09-22T13:02:47Z</time>
      </trkpt>
      <trkpt lat="44.56974" lon="1.52374">
        <ele>272</ele>
        <time>2017-09-22T13:02:51Z</time>
      </trkpt>
      <trkpt lat="44.5698" lon="1.52378">
        <ele>272</ele>
        <time>2017-09-22T13:02:58Z</time>
      </trkpt>
      <trkpt lat="44.57025" lon="1.52388">
        <ele>273</ele>
        <time>2017-09-22T13:03:33Z</time>
      </trkpt>
      <trkpt lat="44.57031" lon="1.52389">
        <ele>273</ele>
        <time>2017-09-22T13:03:37Z</time>
      </trkpt>
      <trkpt lat="44.57036" lon="1.52388">
        <ele>273</ele>
        <time>2017-09-22T13:03:41Z</time>
      </trkpt>
      <trkpt lat="44.57041" lon="1.52388">
        <ele>274</ele>
        <time>2017-09-22T13:03:45Z</time>
      </trkpt>
      <trkpt lat="44.57046" lon="1.52386">
        <ele>274</ele>
        <time>2017-09-22T13:03:48Z</time>
      </trkpt>
      <trkpt lat="44.57057" lon="1.52384">
        <ele>274</ele>
        <time>2017-09-22T13:03:57Z</time>
      </trkpt>
      <trkpt lat="44.57062" lon="1.52384">
        <ele>274</ele>
        <time>2017-09-22T13:04:01Z</time>
      </trkpt>
      <trkpt lat="44.57068" lon="1.52383">
        <ele>274</ele>
        <time>2017-09-22T13:04:06Z</time>
      </trkpt>
      <trkpt lat="44.57108" lon="1.52381">
        <ele>275</ele>
        <time>2017-09-22T13:04:35Z</time>
      </trkpt>
      <trkpt lat="44.57112" lon="1.52381">
        <ele>275</ele>
        <time>2017-09-22T13:04:38Z</time>
      </trkpt>
      <trkpt lat="44.57116" lon="1.52379">
        <ele>276</ele>
        <time>2017-09-22T13:04:42Z</time>
      </trkpt>
      <trkpt lat="44.5712" lon="1.52376">
        <ele>276</ele>
        <time>2017-09-22T13:04:45Z</time>
      </trkpt>
      <trkpt lat="44.57124" lon="1.52374">
        <ele>276</ele>
        <time>2017-09-22T13:04:48Z</time>
      </trkpt>
      <trkpt lat="44.57132" lon="1.52368">
        <ele>276</ele>
        <time>2017-09-22T13:04:55Z</time>
      </trkpt>
      <trkpt lat="44.57136" lon="1.52366">
        <ele>276</ele>
        <time>2017-09-22T13:04:58Z</time>
      </trkpt>
      <trkpt lat="44.57149" lon="1.52357">
        <ele>275</ele>
        <time>2017-09-22T13:05:08Z</time>
      </trkpt>
      <trkpt lat="44.57152" lon="1.52352">
        <ele>275</ele>
        <time>2017-09-22T13:05:11Z</time>
      </trkpt>
      <trkpt lat="44.57164" lon="1.52338">
        <ele>274</ele>
        <time>2017-09-22T13:05:27Z</time>
      </trkpt>
      <trkpt lat="44.57168" lon="1.52334">
        <ele>273</ele>
        <time>2017-09-22T13:05:31Z</time>
      </trkpt>
      <trkpt lat="44.57175" lon="1.52324">
        <ele>276</ele>
        <time>2017-09-22T13:05:38Z</time>
      </trkpt>
      <trkpt lat="44.57177" lon="1.52319">
        <ele>277</ele>
        <time>2017-09-22T13:05:41Z</time>
      </trkpt>
      <trkpt lat="44.5718" lon="1.52314">
        <ele>277</ele>
        <time>2017-09-22T13:05:45Z</time>
      </trkpt>
      <trkpt lat="44.57186" lon="1.52312">
        <ele>278</ele>
        <time>2017-09-22T13:05:50Z</time>
      </trkpt>
      <trkpt lat="44.5719" lon="1.52311">
        <ele>278</ele>
        <time>2017-09-22T13:05:53Z</time>
      </trkpt>
      <trkpt lat="44.57195" lon="1.52311">
        <ele>278</ele>
        <time>2017-09-22T13:05:56Z</time>
      </trkpt>
      <trkpt lat="44.57213" lon="1.52307">
        <ele>278</ele>
        <time>2017-09-22T13:06:26Z</time>
      </trkpt>
      <trkpt lat="44.57216" lon="1.52305">
        <ele>278</ele>
        <time>2017-09-22T13:06:40Z</time>
      </trkpt>
      <trkpt lat="44.57247" lon="1.52293">
        <ele>277</ele>
        <time>2017-09-22T13:07:05Z</time>
      </trkpt>
      <trkpt lat="44.57263" lon="1.52289">
        <ele>275</ele>
        <time>2017-09-22T13:07:15Z</time>
      </trkpt>
      <trkpt lat="44.57266" lon="1.52287">
        <ele>275</ele>
        <time>2017-09-22T13:07:17Z</time>
      </trkpt>
      <trkpt lat="44.57272" lon="1.52287">
        <ele>275</ele>
        <time>2017-09-22T13:07:21Z</time>
      </trkpt>
      <trkpt lat="44.57276" lon="1.52291">
        <ele>276</ele>
        <time>2017-09-22T13:07:28Z</time>
      </trkpt>
      <trkpt lat="44.57292" lon="1.52286">
        <ele>276</ele>
        <time>2017-09-22T13:07:41Z</time>
      </trkpt>
      <trkpt lat="44.57306" lon="1.52283">
        <ele>276</ele>
        <time>2017-09-22T13:07:53Z</time>
      </trkpt>
      <trkpt lat="44.57312" lon="1.52278">
        <ele>276</ele>
        <time>2017-09-22T13:07:57Z</time>
      </trkpt>
      <trkpt lat="44.57315" lon="1.5227">
        <ele>276</ele>
        <time>2017-09-22T13:08:03Z</time>
      </trkpt>
      <trkpt lat="44.57319" lon="1.52262">
        <ele>275</ele>
        <time>2017-09-22T13:08:10Z</time>
      </trkpt>
      <trkpt lat="44.57321" lon="1.5225">
        <ele>277</ele>
        <time>2017-09-22T13:08:17Z</time>
      </trkpt>
      <trkpt lat="44.57325" lon="1.52242">
        <ele>277</ele>
        <time>2017-09-22T13:08:29Z</time>
      </trkpt>
      <trkpt lat="44.57327" lon="1.52234">
        <ele>278</ele>
        <time>2017-09-22T13:08:37Z</time>
      </trkpt>
      <trkpt lat="44.57332" lon="1.52228">
        <ele>279</ele>
        <time>2017-09-22T13:08:42Z</time>
      </trkpt>
      <trkpt lat="44.57338" lon="1.52216">
        <ele>285</ele>
        <time>2017-09-22T13:08:54Z</time>
      </trkpt>
      <trkpt lat="44.57342" lon="1.52209">
        <ele>286</ele>
        <time>2017-09-22T13:08:56Z</time>
      </trkpt>
      <trkpt lat="44.57346" lon="1.52205">
        <ele>286</ele>
        <time>2017-09-22T13:09:00Z</time>
      </trkpt>
      <trkpt lat="44.57359" lon="1.52187">
        <ele>288</ele>
        <time>2017-09-22T13:09:11Z</time>
      </trkpt>
      <trkpt lat="44.57362" lon="1.52181">
        <ele>288</ele>
        <time>2017-09-22T13:09:15Z</time>
      </trkpt>
      <trkpt lat="44.57366" lon="1.52175">
        <ele>289</ele>
        <time>2017-09-22T13:09:19Z</time>
      </trkpt>
      <trkpt lat="44.5737" lon="1.5217">
        <ele>289</ele>
        <time>2017-09-22T13:09:23Z</time>
      </trkpt>
      <trkpt lat="44.57382" lon="1.52154">
        <ele>293</ele>
        <time>2017-09-22T13:09:36Z</time>
      </trkpt>
      <trkpt lat="44.57388" lon="1.52144">
        <ele>293</ele>
        <time>2017-09-22T13:09:45Z</time>
      </trkpt>
      <trkpt lat="44.57391" lon="1.5214">
        <ele>293</ele>
        <time>2017-09-22T13:09:49Z</time>
      </trkpt>
      <trkpt lat="44.57395" lon="1.52136">
        <ele>293</ele>
        <time>2017-09-22T13:09:57Z</time>
      </trkpt>
      <trkpt lat="44.57398" lon="1.52131">
        <ele>293</ele>
        <time>2017-09-22T13:10:02Z</time>
      </trkpt>
      <trkpt lat="44.57403" lon="1.52123">
        <ele>293</ele>
        <time>2017-09-22T13:10:12Z</time>
      </trkpt>
      <trkpt lat="44.57407" lon="1.52118">
        <ele>293</ele>
        <time>2017-09-22T13:10:16Z</time>
      </trkpt>
      <trkpt lat="44.57411" lon="1.52112">
        <ele>292</ele>
        <time>2017-09-22T13:10:23Z</time>
      </trkpt>
      <trkpt lat="44.57413" lon="1.52106">
        <ele>292</ele>
        <time>2017-09-22T13:10:27Z</time>
      </trkpt>
      <trkpt lat="44.57416" lon="1.52101">
        <ele>291</ele>
        <time>2017-09-22T13:10:32Z</time>
      </trkpt>
      <trkpt lat="44.57419" lon="1.52094">
        <ele>297</ele>
        <time>2017-09-22T13:10:37Z</time>
      </trkpt>
      <trkpt lat="44.57421" lon="1.52087">
        <ele>294</ele>
        <time>2017-09-22T13:10:41Z</time>
      </trkpt>
      <trkpt lat="44.57424" lon="1.5208">
        <ele>293</ele>
        <time>2017-09-22T13:10:44Z</time>
      </trkpt>
      <trkpt lat="44.57426" lon="1.52074">
        <ele>295</ele>
        <time>2017-09-22T13:10:48Z</time>
      </trkpt>
      <trkpt lat="44.57431" lon="1.52052">
        <ele>298</ele>
        <time>2017-09-22T13:11:02Z</time>
      </trkpt>
      <trkpt lat="44.57446" lon="1.5202">
        <ele>299</ele>
        <time>2017-09-22T13:11:23Z</time>
      </trkpt>
      <trkpt lat="44.57449" lon="1.52014">
        <ele>299</ele>
        <time>2017-09-22T13:11:27Z</time>
      </trkpt>
      <trkpt lat="44.57451" lon="1.5201">
        <ele>299</ele>
        <time>2017-09-22T13:11:31Z</time>
      </trkpt>
      <trkpt lat="44.57455" lon="1.52005">
        <ele>300</ele>
        <time>2017-09-22T13:11:36Z</time>
      </trkpt>
      <trkpt lat="44.5746" lon="1.51993">
        <ele>296</ele>
        <time>2017-09-22T13:11:49Z</time>
      </trkpt>
      <trkpt lat="44.57465" lon="1.51988">
        <ele>296</ele>
        <time>2017-09-22T13:11:57Z</time>
      </trkpt>
      <trkpt lat="44.57473" lon="1.51975">
        <ele>296</ele>
        <time>2017-09-22T13:12:05Z</time>
      </trkpt>
      <trkpt lat="44.57476" lon="1.51971">
        <ele>296</ele>
        <time>2017-09-22T13:12:08Z</time>
      </trkpt>
      <trkpt lat="44.57481" lon="1.51966">
        <ele>296</ele>
        <time>2017-09-22T13:12:13Z</time>
      </trkpt>
      <trkpt lat="44.57501" lon="1.51952">
        <ele>304</ele>
        <time>2017-09-22T13:12:33Z</time>
      </trkpt>
      <trkpt lat="44.57505" lon="1.51949">
        <ele>304</ele>
        <time>2017-09-22T13:12:37Z</time>
      </trkpt>
      <trkpt lat="44.5751" lon="1.51946">
        <ele>303</ele>
        <time>2017-09-22T13:12:42Z</time>
      </trkpt>
      <trkpt lat="44.57516" lon="1.51942">
        <ele>303</ele>
        <time>2017-09-22T13:12:47Z</time>
      </trkpt>
      <trkpt lat="44.57526" lon="1.51934">
        <ele>304</ele>
        <time>2017-09-22T13:12:56Z</time>
      </trkpt>
      <trkpt lat="44.57532" lon="1.51931">
        <ele>305</ele>
        <time>2017-09-22T13:13:01Z</time>
      </trkpt>
      <trkpt lat="44.57564" lon="1.51912">
        <ele>300</ele>
        <time>2017-09-22T13:13:35Z</time>
      </trkpt>
      <trkpt lat="44.57569" lon="1.5191">
        <ele>301</ele>
        <time>2017-09-22T13:13:39Z</time>
      </trkpt>
      <trkpt lat="44.57592" lon="1.51903">
        <ele>308</ele>
        <time>2017-09-22T13:14:00Z</time>
      </trkpt>
      <trkpt lat="44.57604" lon="1.519">
        <ele>308</ele>
        <time>2017-09-22T13:14:09Z</time>
      </trkpt>
      <trkpt lat="44.5763" lon="1.51888">
        <ele>310</ele>
        <time>2017-09-22T13:14:34Z</time>
      </trkpt>
      <trkpt lat="44.57635" lon="1.51886">
        <ele>310</ele>
        <time>2017-09-22T13:14:39Z</time>
      </trkpt>
      <trkpt lat="44.57642" lon="1.51883">
        <ele>310</ele>
        <time>2017-09-22T13:14:48Z</time>
      </trkpt>
      <trkpt lat="44.57661" lon="1.51876">
        <ele>310</ele>
        <time>2017-09-22T13:15:09Z</time>
      </trkpt>
      <trkpt lat="44.57666" lon="1.51874">
        <ele>310</ele>
        <time>2017-09-22T13:15:12Z</time>
      </trkpt>
      <trkpt lat="44.57673" lon="1.51872">
        <ele>317</ele>
        <time>2017-09-22T13:15:19Z</time>
      </trkpt>
      <trkpt lat="44.57679" lon="1.51869">
        <ele>317</ele>
        <time>2017-09-22T13:15:25Z</time>
      </trkpt>
      <trkpt lat="44.57686" lon="1.51869">
        <ele>317</ele>
        <time>2017-09-22T13:15:30Z</time>
      </trkpt>
      <trkpt lat="44.57693" lon="1.51868">
        <ele>318</ele>
        <time>2017-09-22T13:15:35Z</time>
      </trkpt>
      <trkpt lat="44.57698" lon="1.51865">
        <ele>318</ele>
        <time>2017-09-22T13:15:39Z</time>
      </trkpt>
      <trkpt lat="44.57724" lon="1.51863">
        <ele>319</ele>
        <time>2017-09-22T13:16:01Z</time>
      </trkpt>
      <trkpt lat="44.5773" lon="1.5186">
        <ele>318</ele>
        <time>2017-09-22T13:16:05Z</time>
      </trkpt>
      <trkpt lat="44.57756" lon="1.51858">
        <ele>320</ele>
        <time>2017-09-22T13:16:23Z</time>
      </trkpt>
      <trkpt lat="44.57759" lon="1.51856">
        <ele>319</ele>
        <time>2017-09-22T13:16:25Z</time>
      </trkpt>
      <trkpt lat="44.57778" lon="1.51853">
        <ele>320</ele>
        <time>2017-09-22T13:16:37Z</time>
      </trkpt>
      <trkpt lat="44.57784" lon="1.51853">
        <ele>320</ele>
        <time>2017-09-22T13:16:42Z</time>
      </trkpt>
      <trkpt lat="44.57803" lon="1.51855">
        <ele>320</ele>
        <time>2017-09-22T13:16:56Z</time>
      </trkpt>
      <trkpt lat="44.57805" lon="1.51857">
        <ele>320</ele>
        <time>2017-09-22T13:16:58Z</time>
      </trkpt>
      <trkpt lat="44.57827" lon="1.51857">
        <ele>319</ele>
        <time>2017-09-22T13:17:14Z</time>
      </trkpt>
      <trkpt lat="44.57831" lon="1.51856">
        <ele>318</ele>
        <time>2017-09-22T13:17:18Z</time>
      </trkpt>
      <trkpt lat="44.57861" lon="1.51858">
        <ele>317</ele>
        <time>2017-09-22T13:17:42Z</time>
      </trkpt>
      <trkpt lat="44.57875" lon="1.51861">
        <ele>317</ele>
        <time>2017-09-22T13:17:51Z</time>
      </trkpt>
      <trkpt lat="44.57893" lon="1.51865">
        <ele>317</ele>
        <time>2017-09-22T13:18:06Z</time>
      </trkpt>
      <trkpt lat="44.57907" lon="1.5187">
        <ele>317</ele>
        <time>2017-09-22T13:18:26Z</time>
      </trkpt>
      <trkpt lat="44.57916" lon="1.51874">
        <ele>317</ele>
        <time>2017-09-22T13:18:34Z</time>
      </trkpt>
      <trkpt lat="44.57923" lon="1.51876">
        <ele>317</ele>
        <time>2017-09-22T13:18:40Z</time>
      </trkpt>
      <trkpt lat="44.57934" lon="1.51876">
        <ele>317</ele>
        <time>2017-09-22T13:18:47Z</time>
      </trkpt>
      <trkpt lat="44.57957" lon="1.51881">
        <ele>318</ele>
        <time>2017-09-22T13:19:08Z</time>
      </trkpt>
      <trkpt lat="44.57964" lon="1.51884">
        <ele>318</ele>
        <time>2017-09-22T13:19:13Z</time>
      </trkpt>
      <trkpt lat="44.57984" lon="1.51891">
        <ele>320</ele>
        <time>2017-09-22T13:19:32Z</time>
      </trkpt>
      <trkpt lat="44.57991" lon="1.51893">
        <ele>321</ele>
        <time>2017-09-22T13:19:38Z</time>
      </trkpt>
      <trkpt lat="44.57997" lon="1.51899">
        <ele>322</ele>
        <time>2017-09-22T13:19:45Z</time>
      </trkpt>
      <trkpt lat="44.58004" lon="1.51903">
        <ele>324</ele>
        <time>2017-09-22T13:19:54Z</time>
      </trkpt>
      <trkpt lat="44.58013" lon="1.51906">
        <ele>324</ele>
        <time>2017-09-22T13:20:02Z</time>
      </trkpt>
      <trkpt lat="44.5802" lon="1.51911">
        <ele>324</ele>
        <time>2017-09-22T13:20:09Z</time>
      </trkpt>
      <trkpt lat="44.58034" lon="1.51915">
        <ele>323</ele>
        <time>2017-09-22T13:20:19Z</time>
      </trkpt>
      <trkpt lat="44.58041" lon="1.51918">
        <ele>334</ele>
        <time>2017-09-22T13:20:23Z</time>
      </trkpt>
      <trkpt lat="44.58048" lon="1.51919">
        <ele>334</ele>
        <time>2017-09-22T13:20:29Z</time>
      </trkpt>
      <trkpt lat="44.58055" lon="1.51922">
        <ele>334</ele>
        <time>2017-09-22T13:20:36Z</time>
      </trkpt>
      <trkpt lat="44.58062" lon="1.51922">
        <ele>333</ele>
        <time>2017-09-22T13:20:42Z</time>
      </trkpt>
      <trkpt lat="44.58067" lon="1.51921">
        <ele>331</ele>
        <time>2017-09-22T13:20:47Z</time>
      </trkpt>
      <trkpt lat="44.5808" lon="1.5192">
        <ele>327</ele>
        <time>2017-09-22T13:20:55Z</time>
      </trkpt>
      <trkpt lat="44.58095" lon="1.51922">
        <ele>330</ele>
        <time>2017-09-22T13:21:07Z</time>
      </trkpt>
      <trkpt lat="44.58115" lon="1.51921">
        <ele>335</ele>
        <time>2017-09-22T13:21:23Z</time>
      </trkpt>
      <trkpt lat="44.58128" lon="1.51919">
        <ele>335</ele>
        <time>2017-09-22T13:21:32Z</time>
      </trkpt>
      <trkpt lat="44.5814" lon="1.51917">
        <ele>335</ele>
        <time>2017-09-22T13:21:42Z</time>
      </trkpt>
      <trkpt lat="44.58185" lon="1.5192">
        <ele>334</ele>
        <time>2017-09-22T13:22:14Z</time>
      </trkpt>
      <trkpt lat="44.58196" lon="1.5192">
        <ele>336</ele>
        <time>2017-09-22T13:22:21Z</time>
      </trkpt>
      <trkpt lat="44.58234" lon="1.51923">
        <ele>336</ele>
        <time>2017-09-22T13:22:52Z</time>
      </trkpt>
      <trkpt lat="44.5826" lon="1.51917">
        <ele>336</ele>
        <time>2017-09-22T13:23:14Z</time>
      </trkpt>
      <trkpt lat="44.58274" lon="1.51918">
        <ele>340</ele>
        <time>2017-09-22T13:23:25Z</time>
      </trkpt>
      <trkpt lat="44.5828" lon="1.51919">
        <ele>341</ele>
        <time>2017-09-22T13:23:30Z</time>
      </trkpt>
      <trkpt lat="44.58292" lon="1.51913">
        <ele>339</ele>
        <time>2017-09-22T13:23:40Z</time>
      </trkpt>
      <trkpt lat="44.58304" lon="1.51908">
        <ele>340</ele>
        <time>2017-09-22T13:23:49Z</time>
      </trkpt>
      <trkpt lat="44.58311" lon="1.51909">
        <ele>340</ele>
        <time>2017-09-22T13:23:54Z</time>
      </trkpt>
      <trkpt lat="44.58323" lon="1.51912">
        <ele>342</ele>
        <time>2017-09-22T13:24:04Z</time>
      </trkpt>
      <trkpt lat="44.58329" lon="1.51913">
        <ele>342</ele>
        <time>2017-09-22T13:24:09Z</time>
      </trkpt>
      <trkpt lat="44.58342" lon="1.51909">
        <ele>345</ele>
        <time>2017-09-22T13:24:20Z</time>
      </trkpt>
      <trkpt lat="44.58381" lon="1.51915">
        <ele>349</ele>
        <time>2017-09-22T13:24:54Z</time>
      </trkpt>
      <trkpt lat="44.58394" lon="1.51918">
        <ele>355</ele>
        <time>2017-09-22T13:25:05Z</time>
      </trkpt>
      <trkpt lat="44.584" lon="1.51918">
        <ele>355</ele>
        <time>2017-09-22T13:25:11Z</time>
      </trkpt>
      <trkpt lat="44.58406" lon="1.51917">
        <ele>354</ele>
        <time>2017-09-22T13:25:16Z</time>
      </trkpt>
      <trkpt lat="44.5843" lon="1.51929">
        <ele>361</ele>
        <time>2017-09-22T13:25:35Z</time>
      </trkpt>
      <trkpt lat="44.58435" lon="1.51931">
        <ele>362</ele>
        <time>2017-09-22T13:25:40Z</time>
      </trkpt>
      <trkpt lat="44.58438" lon="1.51927">
        <ele>362</ele>
        <time>2017-09-22T13:25:44Z</time>
      </trkpt>
      <trkpt lat="44.5844" lon="1.51924">
        <ele>362</ele>
        <time>2017-09-22T13:25:47Z</time>
      </trkpt>
      <trkpt lat="44.58453" lon="1.51911">
        <ele>358</ele>
        <time>2017-09-22T13:25:58Z</time>
      </trkpt>
      <trkpt lat="44.58473" lon="1.51902">
        <ele>359</ele>
        <time>2017-09-22T13:26:15Z</time>
      </trkpt>
      <trkpt lat="44.58478" lon="1.519">
        <ele>360</ele>
        <time>2017-09-22T13:26:19Z</time>
      </trkpt>
      <trkpt lat="44.58496" lon="1.5189">
        <ele>360</ele>
        <time>2017-09-22T13:26:36Z</time>
      </trkpt>
      <trkpt lat="44.58526" lon="1.51884">
        <ele>366</ele>
        <time>2017-09-22T13:27:06Z</time>
      </trkpt>
      <trkpt lat="44.5854" lon="1.51884">
        <ele>367</ele>
        <time>2017-09-22T13:27:16Z</time>
      </trkpt>
      <trkpt lat="44.58544" lon="1.51884">
        <ele>367</ele>
        <time>2017-09-22T13:27:20Z</time>
      </trkpt>
      <trkpt lat="44.58581" lon="1.51879">
        <ele>368</ele>
        <time>2017-09-22T13:27:49Z</time>
      </trkpt>
      <trkpt lat="44.58586" lon="1.51879">
        <ele>372</ele>
        <time>2017-09-22T13:27:53Z</time>
      </trkpt>
      <trkpt lat="44.58625" lon="1.51879">
        <ele>373</ele>
        <time>2017-09-22T13:28:23Z</time>
      </trkpt>
      <trkpt lat="44.58629" lon="1.51878">
        <ele>373</ele>
        <time>2017-09-22T13:28:25Z</time>
      </trkpt>
      <trkpt lat="44.58631" lon="1.51876">
        <ele>373</ele>
        <time>2017-09-22T13:28:27Z</time>
      </trkpt>
      <trkpt lat="44.58633" lon="1.51869">
        <ele>373</ele>
        <time>2017-09-22T13:29:12Z</time>
      </trkpt>
      <trkpt lat="44.58635" lon="1.51863">
        <ele>373</ele>
        <time>2017-09-22T13:29:18Z</time>
      </trkpt>
      <trkpt lat="44.58637" lon="1.51852">
        <ele>373</ele>
        <time>2017-09-22T13:29:26Z</time>
      </trkpt>
      <trkpt lat="44.58638" lon="1.51847">
        <ele>373</ele>
        <time>2017-09-22T13:29:30Z</time>
      </trkpt>
      <trkpt lat="44.58638" lon="1.51841">
        <ele>373</ele>
        <time>2017-09-22T13:29:34Z</time>
      </trkpt>
      <trkpt lat="44.58642" lon="1.51829">
        <ele>374</ele>
        <time>2017-09-22T13:29:46Z</time>
      </trkpt>
      <trkpt lat="44.58642" lon="1.51798">
        <ele>376</ele>
        <time>2017-09-22T13:30:13Z</time>
      </trkpt>
      <trkpt lat="44.58644" lon="1.51786">
        <ele>376</ele>
        <time>2017-09-22T13:30:22Z</time>
      </trkpt>
      <trkpt lat="44.58641" lon="1.51772">
        <ele>377</ele>
        <time>2017-09-22T13:30:33Z</time>
      </trkpt>
      <trkpt lat="44.58643" lon="1.51763">
        <ele>378</ele>
        <time>2017-09-22T13:30:40Z</time>
      </trkpt>
      <trkpt lat="44.58638" lon="1.51754">
        <ele>378</ele>
        <time>2017-09-22T13:30:43Z</time>
      </trkpt>
      <trkpt lat="44.58632" lon="1.51728">
        <ele>385</ele>
        <time>2017-09-22T13:30:53Z</time>
      </trkpt>
      <trkpt lat="44.58631" lon="1.51724">
        <ele>386</ele>
        <time>2017-09-22T13:30:55Z</time>
      </trkpt>
      <trkpt lat="44.58629" lon="1.51717">
        <ele>386</ele>
        <time>2017-09-22T13:30:59Z</time>
      </trkpt>
      <trkpt lat="44.58618" lon="1.5169">
        <ele>388</ele>
        <time>2017-09-22T13:31:15Z</time>
      </trkpt>
      <trkpt lat="44.58615" lon="1.51682">
        <ele>388</ele>
        <time>2017-09-22T13:31:20Z</time>
      </trkpt>
      <trkpt lat="44.58614" lon="1.51677">
        <ele>388</ele>
        <time>2017-09-22T13:31:23Z</time>
      </trkpt>
      <trkpt lat="44.58604" lon="1.5166">
        <ele>394</ele>
        <time>2017-09-22T13:31:36Z</time>
      </trkpt>
      <trkpt lat="44.58599" lon="1.51651">
        <ele>394</ele>
        <time>2017-09-22T13:31:44Z</time>
      </trkpt>
      <trkpt lat="44.58592" lon="1.51646">
        <ele>394</ele>
        <time>2017-09-22T13:31:50Z</time>
      </trkpt>
      <trkpt lat="44.58587" lon="1.51644">
        <ele>394</ele>
        <time>2017-09-22T13:31:55Z</time>
      </trkpt>
      <trkpt lat="44.58585" lon="1.51643">
        <ele>394</ele>
        <time>2017-09-22T13:32:08Z</time>
      </trkpt>
      <trkpt lat="44.58583" lon="1.5164">
        <ele>394</ele>
        <time>2017-09-22T13:32:30Z</time>
      </trkpt>
      <trkpt lat="44.58581" lon="1.51639">
        <ele>394</ele>
        <time>2017-09-22T13:32:35Z</time>
      </trkpt>
      <trkpt lat="44.58578" lon="1.51637">
        <ele>394</ele>
        <time>2017-09-22T13:32:38Z</time>
      </trkpt>
      <trkpt lat="44.58577" lon="1.51636">
        <ele>394</ele>
        <time>2017-09-22T13:32:41Z</time>
      </trkpt>
      <trkpt lat="44.58575" lon="1.51634">
        <ele>394</ele>
        <time>2017-09-22T13:32:44Z</time>
      </trkpt>
      <trkpt lat="44.58574" lon="1.51632">
        <ele>394</ele>
        <time>2017-09-22T13:32:46Z</time>
      </trkpt>
      <trkpt lat="44.58572" lon="1.51631">
        <ele>394</ele>
        <time>2017-09-22T13:32:49Z</time>
      </trkpt>
      <trkpt lat="44.58564" lon="1.51626">
        <ele>395</ele>
        <time>2017-09-22T13:33:00Z</time>
      </trkpt>
      <trkpt lat="44.58561" lon="1.51625">
        <ele>395</ele>
        <time>2017-09-22T13:33:03Z</time>
      </trkpt>
      <trkpt lat="44.5856" lon="1.51617">
        <ele>395</ele>
        <time>2017-09-22T13:33:53Z</time>
      </trkpt>
      <trkpt lat="44.5856" lon="1.51613">
        <ele>395</ele>
        <time>2017-09-22T13:34:38Z</time>
      </trkpt>
      <trkpt lat="44.58562" lon="1.5161">
        <ele>396</ele>
        <time>2017-09-22T13:34:45Z</time>
      </trkpt>
      <trkpt lat="44.58565" lon="1.51609">
        <ele>396</ele>
        <time>2017-09-22T13:34:52Z</time>
      </trkpt>
      <trkpt lat="44.58565" lon="1.51606">
        <ele>396</ele>
        <time>2017-09-22T13:35:10Z</time>
      </trkpt>
      <trkpt lat="44.58564" lon="1.51605">
        <ele>396</ele>
        <time>2017-09-22T13:35:19Z</time>
      </trkpt>
      <trkpt lat="44.58556" lon="1.51605">
        <ele>396</ele>
        <time>2017-09-22T13:35:27Z</time>
      </trkpt>
      <trkpt lat="44.58554" lon="1.51605">
        <ele>396</ele>
        <time>2017-09-22T13:35:29Z</time>
      </trkpt>
      <trkpt lat="44.58545" lon="1.51605">
        <ele>395</ele>
        <time>2017-09-22T13:35:36Z</time>
      </trkpt>
      <trkpt lat="44.58528" lon="1.51605">
        <ele>395</ele>
        <time>2017-09-22T13:35:51Z</time>
      </trkpt>
      <trkpt lat="44.58522" lon="1.51605">
        <ele>395</ele>
        <time>2017-09-22T13:35:56Z</time>
      </trkpt>
      <trkpt lat="44.58516" lon="1.51607">
        <ele>395</ele>
        <time>2017-09-22T13:36:01Z</time>
      </trkpt>
      <trkpt lat="44.58505" lon="1.51605">
        <ele>395</ele>
        <time>2017-09-22T13:36:10Z</time>
      </trkpt>
      <trkpt lat="44.58488" lon="1.51608">
        <ele>394</ele>
        <time>2017-09-22T13:36:23Z</time>
      </trkpt>
      <trkpt lat="44.58486" lon="1.51608">
        <ele>394</ele>
        <time>2017-09-22T13:36:25Z</time>
      </trkpt>
      <trkpt lat="44.58468" lon="1.51612">
        <ele>394</ele>
        <time>2017-09-22T13:36:40Z</time>
      </trkpt>
      <trkpt lat="44.58464" lon="1.51612">
        <ele>394</ele>
        <time>2017-09-22T13:36:43Z</time>
      </trkpt>
      <trkpt lat="44.58458" lon="1.51613">
        <ele>394</ele>
        <time>2017-09-22T13:36:49Z</time>
      </trkpt>
      <trkpt lat="44.58447" lon="1.51616">
        <ele>394</ele>
        <time>2017-09-22T13:36:58Z</time>
      </trkpt>
      <trkpt lat="44.58435" lon="1.51619">
        <ele>394</ele>
        <time>2017-09-22T13:37:08Z</time>
      </trkpt>
      <trkpt lat="44.58433" lon="1.51619">
        <ele>394</ele>
        <time>2017-09-22T13:37:10Z</time>
      </trkpt>
      <trkpt lat="44.58423" lon="1.51625">
        <ele>393</ele>
        <time>2017-09-22T13:37:19Z</time>
      </trkpt>
      <trkpt lat="44.5842" lon="1.51625">
        <ele>393</ele>
        <time>2017-09-22T13:37:21Z</time>
      </trkpt>
      <trkpt lat="44.58411" lon="1.51627">
        <ele>389</ele>
        <time>2017-09-22T13:37:30Z</time>
      </trkpt>
      <trkpt lat="44.58404" lon="1.5163">
        <ele>389</ele>
        <time>2017-09-22T13:37:36Z</time>
      </trkpt>
      <trkpt lat="44.58397" lon="1.51629">
        <ele>388</ele>
        <time>2017-09-22T13:37:42Z</time>
      </trkpt>
      <trkpt lat="44.58393" lon="1.51628">
        <ele>388</ele>
        <time>2017-09-22T13:37:45Z</time>
      </trkpt>
      <trkpt lat="44.58386" lon="1.51626">
        <ele>388</ele>
        <time>2017-09-22T13:37:51Z</time>
      </trkpt>
      <trkpt lat="44.58382" lon="1.51625">
        <ele>388</ele>
        <time>2017-09-22T13:37:54Z</time>
      </trkpt>
      <trkpt lat="44.58378" lon="1.5162">
        <ele>387</ele>
        <time>2017-09-22T13:38:00Z</time>
      </trkpt>
      <trkpt lat="44.58374" lon="1.51615">
        <ele>387</ele>
        <time>2017-09-22T13:38:04Z</time>
      </trkpt>
      <trkpt lat="44.58372" lon="1.51612">
        <ele>387</ele>
        <time>2017-09-22T13:38:06Z</time>
      </trkpt>
      <trkpt lat="44.58368" lon="1.51599">
        <ele>387</ele>
        <time>2017-09-22T13:38:14Z</time>
      </trkpt>
      <trkpt lat="44.58367" lon="1.5159">
        <ele>386</ele>
        <time>2017-09-22T13:38:19Z</time>
      </trkpt>
      <trkpt lat="44.58368" lon="1.51582">
        <ele>388</ele>
        <time>2017-09-22T13:38:34Z</time>
      </trkpt>
      <trkpt lat="44.58363" lon="1.51568">
        <ele>387</ele>
        <time>2017-09-22T13:38:51Z</time>
      </trkpt>
      <trkpt lat="44.58363" lon="1.51554">
        <ele>388</ele>
        <time>2017-09-22T13:38:59Z</time>
      </trkpt>
      <trkpt lat="44.58369" lon="1.51531">
        <ele>389</ele>
        <time>2017-09-22T13:39:09Z</time>
      </trkpt>
      <trkpt lat="44.58372" lon="1.51511">
        <ele>389</ele>
        <time>2017-09-22T13:39:16Z</time>
      </trkpt>
      <trkpt lat="44.58373" lon="1.51509">
        <ele>389</ele>
        <time>2017-09-22T13:39:48Z</time>
      </trkpt>
      <trkpt lat="44.58374" lon="1.51509">
        <ele>389</ele>
        <time>2017-09-22T13:39:50Z</time>
      </trkpt>
      <trkpt lat="44.58374" lon="1.51507">
        <ele>389</ele>
        <time>2017-09-22T13:40:36Z</time>
      </trkpt>
      <trkpt lat="44.58373" lon="1.51505">
        <ele>389</ele>
        <time>2017-09-22T13:40:38Z</time>
      </trkpt>
      <trkpt lat="44.58373" lon="1.51503">
        <ele>389</ele>
        <time>2017-09-22T13:40:43Z</time>
      </trkpt>
      <trkpt lat="44.58373" lon="1.51501">
        <ele>389</ele>
        <time>2017-09-22T13:40:49Z</time>
      </trkpt>
      <trkpt lat="44.58373" lon="1.51499">
        <ele>390</ele>
        <time>2017-09-22T13:40:51Z</time>
      </trkpt>
      <trkpt lat="44.58373" lon="1.51496">
        <ele>390</ele>
        <time>2017-09-22T13:40:55Z</time>
      </trkpt>
      <trkpt lat="44.58374" lon="1.5149">
        <ele>390</ele>
        <time>2017-09-22T13:41:01Z</time>
      </trkpt>
      <trkpt lat="44.58375" lon="1.51487">
        <ele>390</ele>
        <time>2017-09-22T13:41:04Z</time>
      </trkpt>
      <trkpt lat="44.58376" lon="1.5148">
        <ele>390</ele>
        <time>2017-09-22T13:41:08Z</time>
      </trkpt>
      <trkpt lat="44.58377" lon="1.51477">
        <ele>390</ele>
        <time>2017-09-22T13:41:10Z</time>
      </trkpt>
      <trkpt lat="44.58384" lon="1.51443">
        <ele>391</ele>
        <time>2017-09-22T13:41:33Z</time>
      </trkpt>
      <trkpt lat="44.58385" lon="1.51431">
        <ele>391</ele>
        <time>2017-09-22T13:41:41Z</time>
      </trkpt>
      <trkpt lat="44.58386" lon="1.51426">
        <ele>391</ele>
        <time>2017-09-22T13:41:44Z</time>
      </trkpt>
      <trkpt lat="44.58392" lon="1.51401">
        <ele>392</ele>
        <time>2017-09-22T13:42:00Z</time>
      </trkpt>
      <trkpt lat="44.58393" lon="1.51396">
        <ele>392</ele>
        <time>2017-09-22T13:42:03Z</time>
      </trkpt>
      <trkpt lat="44.58395" lon="1.51394">
        <ele>392</ele>
        <time>2017-09-22T13:42:06Z</time>
      </trkpt>
      <trkpt lat="44.584" lon="1.51379">
        <ele>392</ele>
        <time>2017-09-22T13:42:16Z</time>
      </trkpt>
      <trkpt lat="44.58402" lon="1.51367">
        <ele>392</ele>
        <time>2017-09-22T13:42:26Z</time>
      </trkpt>
      <trkpt lat="44.58403" lon="1.51363">
        <ele>392</ele>
        <time>2017-09-22T13:42:29Z</time>
      </trkpt>
      <trkpt lat="44.58403" lon="1.51356">
        <ele>392</ele>
        <time>2017-09-22T13:42:37Z</time>
      </trkpt>
      <trkpt lat="44.58405" lon="1.51344">
        <ele>392</ele>
        <time>2017-09-22T13:42:44Z</time>
      </trkpt>
      <trkpt lat="44.5842" lon="1.51297">
        <ele>392</ele>
        <time>2017-09-22T13:43:14Z</time>
      </trkpt>
      <trkpt lat="44.58421" lon="1.51293">
        <ele>392</ele>
        <time>2017-09-22T13:43:16Z</time>
      </trkpt>
      <trkpt lat="44.58421" lon="1.51289">
        <ele>392</ele>
        <time>2017-09-22T13:43:19Z</time>
      </trkpt>
      <trkpt lat="44.58427" lon="1.5126">
        <ele>391</ele>
        <time>2017-09-22T13:43:35Z</time>
      </trkpt>
      <trkpt lat="44.58428" lon="1.51256">
        <ele>391</ele>
        <time>2017-09-22T13:43:37Z</time>
      </trkpt>
      <trkpt lat="44.58429" lon="1.51248">
        <ele>389</ele>
        <time>2017-09-22T13:43:42Z</time>
      </trkpt>
      <trkpt lat="44.58429" lon="1.51244">
        <ele>389</ele>
        <time>2017-09-22T13:43:44Z</time>
      </trkpt>
      <trkpt lat="44.5843" lon="1.51232">
        <ele>389</ele>
        <time>2017-09-22T13:43:50Z</time>
      </trkpt>
      <trkpt lat="44.58432" lon="1.5118">
        <ele>388</ele>
        <time>2017-09-22T13:44:19Z</time>
      </trkpt>
      <trkpt lat="44.58433" lon="1.51175">
        <ele>388</ele>
        <time>2017-09-22T13:44:22Z</time>
      </trkpt>
      <trkpt lat="44.58434" lon="1.51156">
        <ele>387</ele>
        <time>2017-09-22T13:44:33Z</time>
      </trkpt>
      <trkpt lat="44.58435" lon="1.51151">
        <ele>387</ele>
        <time>2017-09-22T13:44:36Z</time>
      </trkpt>
      <trkpt lat="44.58433" lon="1.5114">
        <ele>387</ele>
        <time>2017-09-22T13:44:41Z</time>
      </trkpt>
      <trkpt lat="44.58431" lon="1.51129">
        <ele>386</ele>
        <time>2017-09-22T13:44:47Z</time>
      </trkpt>
      <trkpt lat="44.58431" lon="1.51123">
        <ele>386</ele>
        <time>2017-09-22T13:44:50Z</time>
      </trkpt>
      <trkpt lat="44.58432" lon="1.51119">
        <ele>386</ele>
        <time>2017-09-22T13:44:53Z</time>
      </trkpt>
      <trkpt lat="44.58432" lon="1.51113">
        <ele>386</ele>
        <time>2017-09-22T13:44:56Z</time>
      </trkpt>
      <trkpt lat="44.58432" lon="1.51107">
        <ele>386</ele>
        <time>2017-09-22T13:44:59Z</time>
      </trkpt>
      <trkpt lat="44.58436" lon="1.51094">
        <ele>386</ele>
        <time>2017-09-22T13:45:07Z</time>
      </trkpt>
      <trkpt lat="44.58439" lon="1.51087">
        <ele>386</ele>
        <time>2017-09-22T13:45:11Z</time>
      </trkpt>
      <trkpt lat="44.58444" lon="1.51074">
        <ele>385</ele>
        <time>2017-09-22T13:45:19Z</time>
      </trkpt>
      <trkpt lat="44.58457" lon="1.51055">
        <ele>385</ele>
        <time>2017-09-22T13:45:32Z</time>
      </trkpt>
      <trkpt lat="44.58467" lon="1.51042">
        <ele>385</ele>
        <time>2017-09-22T13:45:43Z</time>
      </trkpt>
      <trkpt lat="44.585" lon="1.51018">
        <ele>386</ele>
        <time>2017-09-22T13:46:10Z</time>
      </trkpt>
      <trkpt lat="44.58518" lon="1.51009">
        <ele>388</ele>
        <time>2017-09-22T13:46:25Z</time>
      </trkpt>
      <trkpt lat="44.58556" lon="1.51009">
        <ele>389</ele>
        <time>2017-09-22T13:46:55Z</time>
      </trkpt>
      <trkpt lat="44.58559" lon="1.51009">
        <ele>389</ele>
        <time>2017-09-22T13:46:59Z</time>
      </trkpt>
      <trkpt lat="44.58582" lon="1.51">
        <ele>388</ele>
        <time>2017-09-22T13:47:15Z</time>
      </trkpt>
      <trkpt lat="44.58591" lon="1.50991">
        <ele>388</ele>
        <time>2017-09-22T13:47:23Z</time>
      </trkpt>
      <trkpt lat="44.58611" lon="1.50949">
        <ele>387</ele>
        <time>2017-09-22T13:47:49Z</time>
      </trkpt>
      <trkpt lat="44.58615" lon="1.50932">
        <ele>387</ele>
        <time>2017-09-22T13:47:57Z</time>
      </trkpt>
      <trkpt lat="44.58621" lon="1.50916">
        <ele>387</ele>
        <time>2017-09-22T13:48:07Z</time>
      </trkpt>
      <trkpt lat="44.58622" lon="1.50911">
        <ele>387</ele>
        <time>2017-09-22T13:48:11Z</time>
      </trkpt>
      <trkpt lat="44.58626" lon="1.509">
        <ele>387</ele>
        <time>2017-09-22T13:48:18Z</time>
      </trkpt>
      <trkpt lat="44.58628" lon="1.50894">
        <ele>387</ele>
        <time>2017-09-22T13:48:21Z</time>
      </trkpt>
      <trkpt lat="44.58637" lon="1.50859">
        <ele>388</ele>
        <time>2017-09-22T13:48:40Z</time>
      </trkpt>
      <trkpt lat="44.58639" lon="1.50853">
        <ele>389</ele>
        <time>2017-09-22T13:48:44Z</time>
      </trkpt>
      <trkpt lat="44.58641" lon="1.50848">
        <ele>389</ele>
        <time>2017-09-22T13:48:47Z</time>
      </trkpt>
      <trkpt lat="44.58641" lon="1.50841">
        <ele>389</ele>
        <time>2017-09-22T13:48:50Z</time>
      </trkpt>
      <trkpt lat="44.58642" lon="1.50831">
        <ele>391</ele>
        <time>2017-09-22T13:48:56Z</time>
      </trkpt>
      <trkpt lat="44.58641" lon="1.50802">
        <ele>391</ele>
        <time>2017-09-22T13:49:11Z</time>
      </trkpt>
      <trkpt lat="44.5864" lon="1.50797">
        <ele>391</ele>
        <time>2017-09-22T13:49:14Z</time>
      </trkpt>
      <trkpt lat="44.5864" lon="1.50791">
        <ele>391</ele>
        <time>2017-09-22T13:49:17Z</time>
      </trkpt>
      <trkpt lat="44.58643" lon="1.50758">
        <ele>391</ele>
        <time>2017-09-22T13:49:34Z</time>
      </trkpt>
      <trkpt lat="44.5865" lon="1.50742">
        <ele>391</ele>
        <time>2017-09-22T13:49:44Z</time>
      </trkpt>
      <trkpt lat="44.58676" lon="1.50707">
        <ele>392</ele>
        <time>2017-09-22T13:50:15Z</time>
      </trkpt>
      <trkpt lat="44.58706" lon="1.50674">
        <ele>392</ele>
        <time>2017-09-22T13:50:46Z</time>
      </trkpt>
      <trkpt lat="44.58714" lon="1.50661">
        <ele>389</ele>
        <time>2017-09-22T13:50:55Z</time>
      </trkpt>
      <trkpt lat="44.5873" lon="1.50633">
        <ele>389</ele>
        <time>2017-09-22T13:51:15Z</time>
      </trkpt>
      <trkpt lat="44.58745" lon="1.50599">
        <ele>389</ele>
        <time>2017-09-22T13:51:35Z</time>
      </trkpt>
      <trkpt lat="44.58752" lon="1.50589">
        <ele>391</ele>
        <time>2017-09-22T13:51:43Z</time>
      </trkpt>
      <trkpt lat="44.58763" lon="1.50573">
        <ele>392</ele>
        <time>2017-09-22T13:51:54Z</time>
      </trkpt>
      <trkpt lat="44.58772" lon="1.50557">
        <ele>392</ele>
        <time>2017-09-22T13:52:05Z</time>
      </trkpt>
      <trkpt lat="44.58791" lon="1.50537">
        <ele>393</ele>
        <time>2017-09-22T13:52:23Z</time>
      </trkpt>
      <trkpt lat="44.58795" lon="1.50535">
        <ele>393</ele>
        <time>2017-09-22T13:52:27Z</time>
      </trkpt>
      <trkpt lat="44.58824" lon="1.5051">
        <ele>394</ele>
        <time>2017-09-22T13:52:53Z</time>
      </trkpt>
      <trkpt lat="44.58832" lon="1.50505">
        <ele>395</ele>
        <time>2017-09-22T13:52:59Z</time>
      </trkpt>
      <trkpt lat="44.58836" lon="1.50502">
        <ele>395</ele>
        <time>2017-09-22T13:53:04Z</time>
      </trkpt>
      <trkpt lat="44.58839" lon="1.50499">
        <ele>396</ele>
        <time>2017-09-22T13:53:08Z</time>
      </trkpt>
      <trkpt lat="44.58842" lon="1.50496">
        <ele>396</ele>
        <time>2017-09-22T13:54:14Z</time>
      </trkpt>
      <trkpt lat="44.58845" lon="1.50493">
        <ele>397</ele>
        <time>2017-09-22T13:54:43Z</time>
      </trkpt>
      <trkpt lat="44.58848" lon="1.50482">
        <ele>397</ele>
        <time>2017-09-22T13:54:47Z</time>
      </trkpt>
      <trkpt lat="44.5885" lon="1.50476">
        <ele>398</ele>
        <time>2017-09-22T13:54:49Z</time>
      </trkpt>
      <trkpt lat="44.58853" lon="1.50472">
        <ele>398</ele>
        <time>2017-09-22T13:54:52Z</time>
      </trkpt>
      <trkpt lat="44.58855" lon="1.50467">
        <ele>398</ele>
        <time>2017-09-22T13:54:57Z</time>
      </trkpt>
      <trkpt lat="44.58857" lon="1.50462">
        <ele>398</ele>
        <time>2017-09-22T13:55:01Z</time>
      </trkpt>
      <trkpt lat="44.58877" lon="1.50434">
        <ele>399</ele>
        <time>2017-09-22T13:55:26Z</time>
      </trkpt>
      <trkpt lat="44.5888" lon="1.5043">
        <ele>400</ele>
        <time>2017-09-22T13:55:30Z</time>
      </trkpt>
      <trkpt lat="44.5889" lon="1.50417">
        <ele>400</ele>
        <time>2017-09-22T13:55:42Z</time>
      </trkpt>
      <trkpt lat="44.58894" lon="1.50413">
        <ele>401</ele>
        <time>2017-09-22T13:55:47Z</time>
      </trkpt>
      <trkpt lat="44.58899" lon="1.5041">
        <ele>401</ele>
        <time>2017-09-22T13:55:52Z</time>
      </trkpt>
      <trkpt lat="44.58903" lon="1.50408">
        <ele>401</ele>
        <time>2017-09-22T13:55:55Z</time>
      </trkpt>
      <trkpt lat="44.58908" lon="1.50405">
        <ele>401</ele>
        <time>2017-09-22T13:56:03Z</time>
      </trkpt>
      <trkpt lat="44.58911" lon="1.50406">
        <ele>401</ele>
        <time>2017-09-22T13:56:06Z</time>
      </trkpt>
      <trkpt lat="44.58921" lon="1.50409">
        <ele>402</ele>
        <time>2017-09-22T13:56:15Z</time>
      </trkpt>
      <trkpt lat="44.58929" lon="1.50413">
        <ele>402</ele>
        <time>2017-09-22T13:56:22Z</time>
      </trkpt>
      <trkpt lat="44.58934" lon="1.50414">
        <ele>402</ele>
        <time>2017-09-22T13:56:26Z</time>
      </trkpt>
      <trkpt lat="44.58943" lon="1.50418">
        <ele>402</ele>
        <time>2017-09-22T13:56:34Z</time>
      </trkpt>
      <trkpt lat="44.58956" lon="1.50416">
        <ele>402</ele>
        <time>2017-09-22T13:57:13Z</time>
      </trkpt>
      <trkpt lat="44.58971" lon="1.50411">
        <ele>401</ele>
        <time>2017-09-22T13:57:33Z</time>
      </trkpt>
      <trkpt lat="44.58976" lon="1.5041">
        <ele>401</ele>
        <time>2017-09-22T13:57:37Z</time>
      </trkpt>
      <trkpt lat="44.58986" lon="1.50407">
        <ele>401</ele>
        <time>2017-09-22T13:57:45Z</time>
      </trkpt>
      <trkpt lat="44.5899" lon="1.50406">
        <ele>401</ele>
        <time>2017-09-22T13:57:49Z</time>
      </trkpt>
      <trkpt lat="44.58994" lon="1.50406">
        <ele>401</ele>
        <time>2017-09-22T13:57:56Z</time>
      </trkpt>
      <trkpt lat="44.58998" lon="1.50403">
        <ele>401</ele>
        <time>2017-09-22T13:58:01Z</time>
      </trkpt>
      <trkpt lat="44.59007" lon="1.50397">
        <ele>398</ele>
        <time>2017-09-22T13:58:14Z</time>
      </trkpt>
      <trkpt lat="44.59015" lon="1.50394">
        <ele>397</ele>
        <time>2017-09-22T13:58:22Z</time>
      </trkpt>
      <trkpt lat="44.59026" lon="1.50393">
        <ele>396</ele>
        <time>2017-09-22T13:58:33Z</time>
      </trkpt>
      <trkpt lat="44.59053" lon="1.50381">
        <ele>394</ele>
        <time>2017-09-22T13:58:54Z</time>
      </trkpt>
      <trkpt lat="44.5906" lon="1.50373">
        <ele>394</ele>
        <time>2017-09-22T13:59:01Z</time>
      </trkpt>
      <trkpt lat="44.5907" lon="1.50359">
        <ele>392</ele>
        <time>2017-09-22T13:59:16Z</time>
      </trkpt>
      <trkpt lat="44.59073" lon="1.50355">
        <ele>392</ele>
        <time>2017-09-22T13:59:19Z</time>
      </trkpt>
      <trkpt lat="44.59077" lon="1.50353">
        <ele>391</ele>
        <time>2017-09-22T13:59:23Z</time>
      </trkpt>
      <trkpt lat="44.59096" lon="1.50342">
        <ele>385</ele>
        <time>2017-09-22T13:59:48Z</time>
      </trkpt>
      <trkpt lat="44.59098" lon="1.50339">
        <ele>385</ele>
        <time>2017-09-22T13:59:52Z</time>
      </trkpt>
      <trkpt lat="44.59101" lon="1.50337">
        <ele>384</ele>
        <time>2017-09-22T13:59:56Z</time>
      </trkpt>
      <trkpt lat="44.59104" lon="1.50334">
        <ele>384</ele>
        <time>2017-09-22T14:00:01Z</time>
      </trkpt>
      <trkpt lat="44.59108" lon="1.50331">
        <ele>377</ele>
        <time>2017-09-22T14:00:06Z</time>
      </trkpt>
      <trkpt lat="44.59112" lon="1.50326">
        <ele>376</ele>
        <time>2017-09-22T14:00:12Z</time>
      </trkpt>
      <trkpt lat="44.59115" lon="1.50322">
        <ele>375</ele>
        <time>2017-09-22T14:00:17Z</time>
      </trkpt>
      <trkpt lat="44.59116" lon="1.50317">
        <ele>375</ele>
        <time>2017-09-22T14:00:20Z</time>
      </trkpt>
      <trkpt lat="44.59119" lon="1.50313">
        <ele>374</ele>
        <time>2017-09-22T14:00:26Z</time>
      </trkpt>
      <trkpt lat="44.59122" lon="1.5031">
        <ele>373</ele>
        <time>2017-09-22T14:00:30Z</time>
      </trkpt>
      <trkpt lat="44.59125" lon="1.50306">
        <ele>373</ele>
        <time>2017-09-22T14:00:34Z</time>
      </trkpt>
      <trkpt lat="44.59126" lon="1.50302">
        <ele>372</ele>
        <time>2017-09-22T14:00:38Z</time>
      </trkpt>
      <trkpt lat="44.59128" lon="1.50298">
        <ele>372</ele>
        <time>2017-09-22T14:00:43Z</time>
      </trkpt>
      <trkpt lat="44.59131" lon="1.50294">
        <ele>371</ele>
        <time>2017-09-22T14:00:48Z</time>
      </trkpt>
      <trkpt lat="44.59136" lon="1.50288">
        <ele>370</ele>
        <time>2017-09-22T14:00:57Z</time>
      </trkpt>
      <trkpt lat="44.59139" lon="1.50283">
        <ele>369</ele>
        <time>2017-09-22T14:01:01Z</time>
      </trkpt>
      <trkpt lat="44.59145" lon="1.50273">
        <ele>367</ele>
        <time>2017-09-22T14:01:13Z</time>
      </trkpt>
      <trkpt lat="44.59147" lon="1.5027">
        <ele>366</ele>
        <time>2017-09-22T14:01:18Z</time>
      </trkpt>
      <trkpt lat="44.59149" lon="1.50267">
        <ele>365</ele>
        <time>2017-09-22T14:01:21Z</time>
      </trkpt>
      <trkpt lat="44.59151" lon="1.50263">
        <ele>364</ele>
        <time>2017-09-22T14:01:25Z</time>
      </trkpt>
      <trkpt lat="44.59153" lon="1.50259">
        <ele>363</ele>
        <time>2017-09-22T14:01:30Z</time>
      </trkpt>
      <trkpt lat="44.59159" lon="1.50247">
        <ele>355</ele>
        <time>2017-09-22T14:01:42Z</time>
      </trkpt>
      <trkpt lat="44.59162" lon="1.50242">
        <ele>355</ele>
        <time>2017-09-22T14:01:47Z</time>
      </trkpt>
      <trkpt lat="44.59166" lon="1.50232">
        <ele>356</ele>
        <time>2017-09-22T14:01:55Z</time>
      </trkpt>
      <trkpt lat="44.59166" lon="1.50223">
        <ele>356</ele>
        <time>2017-09-22T14:02:01Z</time>
      </trkpt>
      <trkpt lat="44.59165" lon="1.50219">
        <ele>356</ele>
        <time>2017-09-22T14:02:04Z</time>
      </trkpt>
      <trkpt lat="44.59164" lon="1.50212">
        <ele>355</ele>
        <time>2017-09-22T14:02:10Z</time>
      </trkpt>
      <trkpt lat="44.59161" lon="1.50199">
        <ele>354</ele>
        <time>2017-09-22T14:02:19Z</time>
      </trkpt>
      <trkpt lat="44.59159" lon="1.50192">
        <ele>353</ele>
        <time>2017-09-22T14:02:24Z</time>
      </trkpt>
      <trkpt lat="44.59157" lon="1.50184">
        <ele>352</ele>
        <time>2017-09-22T14:02:30Z</time>
      </trkpt>
      <trkpt lat="44.59157" lon="1.50179">
        <ele>351</ele>
        <time>2017-09-22T14:02:34Z</time>
      </trkpt>
      <trkpt lat="44.59157" lon="1.50176">
        <ele>350</ele>
        <time>2017-09-22T14:02:49Z</time>
      </trkpt>
      <trkpt lat="44.59156" lon="1.50171">
        <ele>349</ele>
        <time>2017-09-22T14:02:55Z</time>
      </trkpt>
      <trkpt lat="44.59155" lon="1.50166">
        <ele>347</ele>
        <time>2017-09-22T14:02:58Z</time>
      </trkpt>
      <trkpt lat="44.59154" lon="1.50161">
        <ele>347</ele>
        <time>2017-09-22T14:03:01Z</time>
      </trkpt>
      <trkpt lat="44.59152" lon="1.50154">
        <ele>348</ele>
        <time>2017-09-22T14:03:05Z</time>
      </trkpt>
      <trkpt lat="44.59142" lon="1.50129">
        <ele>350</ele>
        <time>2017-09-23T08:00:05Z</time>
      </trkpt>
      <trkpt lat="44.59142" lon="1.50128">
        <ele>350</ele>
        <time>2017-09-23T08:00:06Z</time>
      </trkpt>
      <trkpt lat="44.59142" lon="1.50122">
        <ele>350</ele>
        <time>2017-09-23T08:00:11Z</time>
      </trkpt>
      <trkpt lat="44.59142" lon="1.50117">
        <ele>350</ele>
        <time>2017-09-23T08:00:15Z</time>
      </trkpt>
      <trkpt lat="44.5914" lon="1.50113">
        <ele>350</ele>
        <time>2017-09-23T08:00:19Z</time>
      </trkpt>
      <trkpt lat="44.5914" lon="1.50108">
        <ele>350</ele>
        <time>2017-09-23T08:00:23Z</time>
      </trkpt>
      <trkpt lat="44.59139" lon="1.50102">
        <ele>350</ele>
        <time>2017-09-23T08:00:29Z</time>
      </trkpt>
      <trkpt lat="44.59133" lon="1.50084">
        <ele>350</ele>
        <time>2017-09-23T08:00:43Z</time>
      </trkpt>
      <trkpt lat="44.59133" lon="1.50078">
        <ele>349</ele>
        <time>2017-09-23T08:00:46Z</time>
      </trkpt>
      <trkpt lat="44.59126" lon="1.50061">
        <ele>349</ele>
        <time>2017-09-23T08:00:58Z</time>
      </trkpt>
      <trkpt lat="44.59119" lon="1.5004">
        <ele>349</ele>
        <time>2017-09-23T08:01:14Z</time>
      </trkpt>
      <trkpt lat="44.59117" lon="1.5003">
        <ele>348</ele>
        <time>2017-09-23T08:01:23Z</time>
      </trkpt>
      <trkpt lat="44.59115" lon="1.50024">
        <ele>348</ele>
        <time>2017-09-23T08:01:28Z</time>
      </trkpt>
      <trkpt lat="44.59113" lon="1.50012">
        <ele>347</ele>
        <time>2017-09-23T08:01:38Z</time>
      </trkpt>
      <trkpt lat="44.59111" lon="1.50006">
        <ele>347</ele>
        <time>2017-09-23T08:01:43Z</time>
      </trkpt>
      <trkpt lat="44.59109" lon="1.49995">
        <ele>348</ele>
        <time>2017-09-23T08:01:52Z</time>
      </trkpt>
      <trkpt lat="44.59104" lon="1.49983">
        <ele>348</ele>
        <time>2017-09-23T08:02:07Z</time>
      </trkpt>
      <trkpt lat="44.59102" lon="1.49975">
        <ele>348</ele>
        <time>2017-09-23T08:02:13Z</time>
      </trkpt>
      <trkpt lat="44.591" lon="1.49968">
        <ele>349</ele>
        <time>2017-09-23T08:02:18Z</time>
      </trkpt>
      <trkpt lat="44.59087" lon="1.49932">
        <ele>347</ele>
        <time>2017-09-23T08:02:43Z</time>
      </trkpt>
      <trkpt lat="44.59085" lon="1.49927">
        <ele>346</ele>
        <time>2017-09-23T08:02:47Z</time>
      </trkpt>
      <trkpt lat="44.59082" lon="1.49922">
        <ele>343</ele>
        <time>2017-09-23T08:02:51Z</time>
      </trkpt>
      <trkpt lat="44.59079" lon="1.49916">
        <ele>343</ele>
        <time>2017-09-23T08:02:55Z</time>
      </trkpt>
      <trkpt lat="44.59074" lon="1.49898">
        <ele>343</ele>
        <time>2017-09-23T08:03:05Z</time>
      </trkpt>
      <trkpt lat="44.59073" lon="1.49893">
        <ele>343</ele>
        <time>2017-09-23T08:03:08Z</time>
      </trkpt>
      <trkpt lat="44.59058" lon="1.49866">
        <ele>343</ele>
        <time>2017-09-23T08:03:28Z</time>
      </trkpt>
      <trkpt lat="44.59055" lon="1.49859">
        <ele>343</ele>
        <time>2017-09-23T08:03:34Z</time>
      </trkpt>
      <trkpt lat="44.59042" lon="1.49845">
        <ele>342</ele>
        <time>2017-09-23T08:03:47Z</time>
      </trkpt>
      <trkpt lat="44.59036" lon="1.49839">
        <ele>341</ele>
        <time>2017-09-23T08:03:53Z</time>
      </trkpt>
      <trkpt lat="44.59032" lon="1.49836">
        <ele>341</ele>
        <time>2017-09-23T08:03:56Z</time>
      </trkpt>
      <trkpt lat="44.59022" lon="1.49831">
        <ele>339</ele>
        <time>2017-09-23T08:04:02Z</time>
      </trkpt>
      <trkpt lat="44.59013" lon="1.49827">
        <ele>338</ele>
        <time>2017-09-23T08:04:08Z</time>
      </trkpt>
      <trkpt lat="44.58999" lon="1.49826">
        <ele>334</ele>
        <time>2017-09-23T08:04:18Z</time>
      </trkpt>
      <trkpt lat="44.58995" lon="1.49825">
        <ele>334</ele>
        <time>2017-09-23T08:04:22Z</time>
      </trkpt>
      <trkpt lat="44.5899" lon="1.49823">
        <ele>334</ele>
        <time>2017-09-23T08:04:27Z</time>
      </trkpt>
      <trkpt lat="44.5897" lon="1.49789">
        <ele>334</ele>
        <time>2017-09-23T08:04:57Z</time>
      </trkpt>
      <trkpt lat="44.58964" lon="1.49783">
        <ele>334</ele>
        <time>2017-09-23T08:05:02Z</time>
      </trkpt>
      <trkpt lat="44.58959" lon="1.49779">
        <ele>334</ele>
        <time>2017-09-23T08:05:06Z</time>
      </trkpt>
      <trkpt lat="44.58957" lon="1.49773">
        <ele>333</ele>
        <time>2017-09-23T08:05:09Z</time>
      </trkpt>
      <trkpt lat="44.58955" lon="1.49766">
        <ele>333</ele>
        <time>2017-09-23T08:05:14Z</time>
      </trkpt>
      <trkpt lat="44.58949" lon="1.49741">
        <ele>331</ele>
        <time>2017-09-23T08:05:34Z</time>
      </trkpt>
      <trkpt lat="44.58945" lon="1.49736">
        <ele>331</ele>
        <time>2017-09-23T08:05:40Z</time>
      </trkpt>
      <trkpt lat="44.5894" lon="1.49733">
        <ele>331</ele>
        <time>2017-09-23T08:05:44Z</time>
      </trkpt>
      <trkpt lat="44.58933" lon="1.49712">
        <ele>332</ele>
        <time>2017-09-23T08:06:01Z</time>
      </trkpt>
      <trkpt lat="44.58931" lon="1.49704">
        <ele>332</ele>
        <time>2017-09-23T08:06:06Z</time>
      </trkpt>
      <trkpt lat="44.58934" lon="1.49695">
        <ele>333</ele>
        <time>2017-09-23T08:06:12Z</time>
      </trkpt>
      <trkpt lat="44.58939" lon="1.49689">
        <ele>333</ele>
        <time>2017-09-23T08:06:17Z</time>
      </trkpt>
      <trkpt lat="44.58942" lon="1.49679">
        <ele>333</ele>
        <time>2017-09-23T08:06:23Z</time>
      </trkpt>
      <trkpt lat="44.58947" lon="1.49674">
        <ele>333</ele>
        <time>2017-09-23T08:06:29Z</time>
      </trkpt>
      <trkpt lat="44.58951" lon="1.49669">
        <ele>333</ele>
        <time>2017-09-23T08:06:37Z</time>
      </trkpt>
      <trkpt lat="44.58953" lon="1.4966">
        <ele>335</ele>
        <time>2017-09-23T08:06:46Z</time>
      </trkpt>
      <trkpt lat="44.58958" lon="1.49654">
        <ele>335</ele>
        <time>2017-09-23T08:06:52Z</time>
      </trkpt>
      <trkpt lat="44.58964" lon="1.49649">
        <ele>335</ele>
        <time>2017-09-23T08:06:57Z</time>
      </trkpt>
      <trkpt lat="44.58973" lon="1.49636">
        <ele>334</ele>
        <time>2017-09-23T08:07:08Z</time>
      </trkpt>
      <trkpt lat="44.5898" lon="1.49601">
        <ele>333</ele>
        <time>2017-09-23T08:07:29Z</time>
      </trkpt>
      <trkpt lat="44.58987" lon="1.49584">
        <ele>331</ele>
        <time>2017-09-23T08:07:45Z</time>
      </trkpt>
      <trkpt lat="44.58991" lon="1.49574">
        <ele>333</ele>
        <time>2017-09-23T08:07:52Z</time>
      </trkpt>
      <trkpt lat="44.58992" lon="1.49564">
        <ele>334</ele>
        <time>2017-09-23T08:07:58Z</time>
      </trkpt>
      <trkpt lat="44.58995" lon="1.49556">
        <ele>335</ele>
        <time>2017-09-23T08:08:04Z</time>
      </trkpt>
      <trkpt lat="44.59001" lon="1.49542">
        <ele>334</ele>
        <time>2017-09-23T08:08:17Z</time>
      </trkpt>
      <trkpt lat="44.59004" lon="1.49524">
        <ele>333</ele>
        <time>2017-09-23T08:08:29Z</time>
      </trkpt>
      <trkpt lat="44.59005" lon="1.49512">
        <ele>332</ele>
        <time>2017-09-23T08:08:38Z</time>
      </trkpt>
      <trkpt lat="44.59008" lon="1.49503">
        <ele>331</ele>
        <time>2017-09-23T08:08:46Z</time>
      </trkpt>
      <trkpt lat="44.59008" lon="1.49492">
        <ele>331</ele>
        <time>2017-09-23T08:08:53Z</time>
      </trkpt>
      <trkpt lat="44.59008" lon="1.4948">
        <ele>332</ele>
        <time>2017-09-23T08:08:58Z</time>
      </trkpt>
      <trkpt lat="44.59009" lon="1.49469">
        <ele>332</ele>
        <time>2017-09-23T08:09:06Z</time>
      </trkpt>
      <trkpt lat="44.59012" lon="1.49461">
        <ele>333</ele>
        <time>2017-09-23T08:09:10Z</time>
      </trkpt>
      <trkpt lat="44.59021" lon="1.49435">
        <ele>332</ele>
        <time>2017-09-23T08:09:29Z</time>
      </trkpt>
      <trkpt lat="44.59019" lon="1.49424">
        <ele>332</ele>
        <time>2017-09-23T08:09:35Z</time>
      </trkpt>
      <trkpt lat="44.59022" lon="1.49416">
        <ele>330</ele>
        <time>2017-09-23T08:09:42Z</time>
      </trkpt>
      <trkpt lat="44.59023" lon="1.49407">
        <ele>331</ele>
        <time>2017-09-23T08:09:48Z</time>
      </trkpt>
      <trkpt lat="44.59025" lon="1.49397">
        <ele>331</ele>
        <time>2017-09-23T08:09:55Z</time>
      </trkpt>
      <trkpt lat="44.59028" lon="1.49364">
        <ele>331</ele>
        <time>2017-09-23T08:10:12Z</time>
      </trkpt>
      <trkpt lat="44.59029" lon="1.49354">
        <ele>331</ele>
        <time>2017-09-23T08:10:19Z</time>
      </trkpt>
      <trkpt lat="44.59033" lon="1.49332">
        <ele>330</ele>
        <time>2017-09-23T08:10:32Z</time>
      </trkpt>
      <trkpt lat="44.59035" lon="1.49323">
        <ele>330</ele>
        <time>2017-09-23T08:10:39Z</time>
      </trkpt>
      <trkpt lat="44.59037" lon="1.49312">
        <ele>330</ele>
        <time>2017-09-23T08:10:46Z</time>
      </trkpt>
      <trkpt lat="44.59041" lon="1.49304">
        <ele>330</ele>
        <time>2017-09-23T08:10:50Z</time>
      </trkpt>
      <trkpt lat="44.59047" lon="1.49287">
        <ele>330</ele>
        <time>2017-09-23T08:11:01Z</time>
      </trkpt>
      <trkpt lat="44.59047" lon="1.49277">
        <ele>330</ele>
        <time>2017-09-23T08:11:07Z</time>
      </trkpt>
      <trkpt lat="44.59048" lon="1.49268">
        <ele>329</ele>
        <time>2017-09-23T08:11:12Z</time>
      </trkpt>
      <trkpt lat="44.59052" lon="1.49259">
        <ele>329</ele>
        <time>2017-09-23T08:11:18Z</time>
      </trkpt>
      <trkpt lat="44.5905" lon="1.49249">
        <ele>328</ele>
        <time>2017-09-23T08:11:24Z</time>
      </trkpt>
      <trkpt lat="44.59051" lon="1.49239">
        <ele>328</ele>
        <time>2017-09-23T08:11:29Z</time>
      </trkpt>
      <trkpt lat="44.59051" lon="1.49227">
        <ele>328</ele>
        <time>2017-09-23T08:11:36Z</time>
      </trkpt>
      <trkpt lat="44.5906" lon="1.49213">
        <ele>328</ele>
        <time>2017-09-23T08:11:45Z</time>
      </trkpt>
      <trkpt lat="44.59059" lon="1.49205">
        <ele>327</ele>
        <time>2017-09-23T08:11:49Z</time>
      </trkpt>
      <trkpt lat="44.59057" lon="1.49186">
        <ele>327</ele>
        <time>2017-09-23T08:11:59Z</time>
      </trkpt>
      <trkpt lat="44.5906" lon="1.49177">
        <ele>326</ele>
        <time>2017-09-23T08:12:05Z</time>
      </trkpt>
      <trkpt lat="44.59062" lon="1.49165">
        <ele>325</ele>
        <time>2017-09-23T08:12:11Z</time>
      </trkpt>
      <trkpt lat="44.59062" lon="1.49154">
        <ele>325</ele>
        <time>2017-09-23T08:12:16Z</time>
      </trkpt>
      <trkpt lat="44.5906" lon="1.49146">
        <ele>325</ele>
        <time>2017-09-23T08:12:21Z</time>
      </trkpt>
      <trkpt lat="44.59061" lon="1.49137">
        <ele>325</ele>
        <time>2017-09-23T08:12:28Z</time>
      </trkpt>
      <trkpt lat="44.59062" lon="1.49126">
        <ele>325</ele>
        <time>2017-09-23T08:12:33Z</time>
      </trkpt>
      <trkpt lat="44.5906" lon="1.49117">
        <ele>325</ele>
        <time>2017-09-23T08:12:40Z</time>
      </trkpt>
      <trkpt lat="44.59062" lon="1.49109">
        <ele>325</ele>
        <time>2017-09-23T08:12:54Z</time>
      </trkpt>
      <trkpt lat="44.59063" lon="1.49101">
        <ele>324</ele>
        <time>2017-09-23T08:13:00Z</time>
      </trkpt>
      <trkpt lat="44.59065" lon="1.49084">
        <ele>323</ele>
        <time>2017-09-23T08:13:10Z</time>
      </trkpt>
      <trkpt lat="44.59064" lon="1.49061">
        <ele>323</ele>
        <time>2017-09-23T08:13:26Z</time>
      </trkpt>
      <trkpt lat="44.59063" lon="1.49051">
        <ele>323</ele>
        <time>2017-09-23T08:13:31Z</time>
      </trkpt>
      <trkpt lat="44.59063" lon="1.49041">
        <ele>323</ele>
        <time>2017-09-23T08:13:37Z</time>
      </trkpt>
      <trkpt lat="44.59065" lon="1.49032">
        <ele>322</ele>
        <time>2017-09-23T08:13:44Z</time>
      </trkpt>
      <trkpt lat="44.59067" lon="1.49023">
        <ele>322</ele>
        <time>2017-09-23T08:13:49Z</time>
      </trkpt>
      <trkpt lat="44.59066" lon="1.49015">
        <ele>321</ele>
        <time>2017-09-23T08:13:55Z</time>
      </trkpt>
      <trkpt lat="44.59067" lon="1.48988">
        <ele>318</ele>
        <time>2017-09-23T08:14:12Z</time>
      </trkpt>
      <trkpt lat="44.59067" lon="1.48979">
        <ele>318</ele>
        <time>2017-09-23T08:14:17Z</time>
      </trkpt>
      <trkpt lat="44.59066" lon="1.48969">
        <ele>318</ele>
        <time>2017-09-23T08:14:22Z</time>
      </trkpt>
      <trkpt lat="44.59067" lon="1.4895">
        <ele>318</ele>
        <time>2017-09-23T08:14:32Z</time>
      </trkpt>
      <trkpt lat="44.59066" lon="1.48943">
        <ele>317</ele>
        <time>2017-09-23T08:14:35Z</time>
      </trkpt>
      <trkpt lat="44.59067" lon="1.48936">
        <ele>317</ele>
        <time>2017-09-23T08:14:39Z</time>
      </trkpt>
      <trkpt lat="44.59064" lon="1.48924">
        <ele>316</ele>
        <time>2017-09-23T08:14:44Z</time>
      </trkpt>
      <trkpt lat="44.59064" lon="1.48918">
        <ele>316</ele>
        <time>2017-09-23T08:14:47Z</time>
      </trkpt>
      <trkpt lat="44.59064" lon="1.48914">
        <ele>312</ele>
        <time>2017-09-23T08:14:49Z</time>
      </trkpt>
      <trkpt lat="44.59064" lon="1.48908">
        <ele>312</ele>
        <time>2017-09-23T08:14:52Z</time>
      </trkpt>
      <trkpt lat="44.59063" lon="1.48903">
        <ele>312</ele>
        <time>2017-09-23T08:14:54Z</time>
      </trkpt>
      <trkpt lat="44.59069" lon="1.4888">
        <ele>311</ele>
        <time>2017-09-23T08:15:06Z</time>
      </trkpt>
      <trkpt lat="44.59073" lon="1.48865">
        <ele>310</ele>
        <time>2017-09-23T08:15:14Z</time>
      </trkpt>
      <trkpt lat="44.59081" lon="1.48843">
        <ele>306</ele>
        <time>2017-09-23T08:15:28Z</time>
      </trkpt>
      <trkpt lat="44.59082" lon="1.4884">
        <ele>306</ele>
        <time>2017-09-23T08:15:30Z</time>
      </trkpt>
      <trkpt lat="44.59084" lon="1.48837">
        <ele>305</ele>
        <time>2017-09-23T08:15:32Z</time>
      </trkpt>
      <trkpt lat="44.59098" lon="1.48811">
        <ele>305</ele>
        <time>2017-09-23T08:15:53Z</time>
      </trkpt>
      <trkpt lat="44.59103" lon="1.48794">
        <ele>304</ele>
        <time>2017-09-23T08:16:05Z</time>
      </trkpt>
      <trkpt lat="44.59104" lon="1.4879">
        <ele>304</ele>
        <time>2017-09-23T08:16:08Z</time>
      </trkpt>
      <trkpt lat="44.59105" lon="1.48782">
        <ele>304</ele>
        <time>2017-09-23T08:16:13Z</time>
      </trkpt>
      <trkpt lat="44.59106" lon="1.48773">
        <ele>304</ele>
        <time>2017-09-23T08:16:19Z</time>
      </trkpt>
      <trkpt lat="44.5911" lon="1.48761">
        <ele>304</ele>
        <time>2017-09-23T08:16:26Z</time>
      </trkpt>
      <trkpt lat="44.59111" lon="1.48757">
        <ele>304</ele>
        <time>2017-09-23T08:16:29Z</time>
      </trkpt>
      <trkpt lat="44.59113" lon="1.48753">
        <ele>304</ele>
        <time>2017-09-23T08:16:35Z</time>
      </trkpt>
      <trkpt lat="44.59115" lon="1.48752">
        <ele>304</ele>
        <time>2017-09-23T08:16:38Z</time>
      </trkpt>
      <trkpt lat="44.59117" lon="1.4875">
        <ele>303</ele>
        <time>2017-09-23T08:16:41Z</time>
      </trkpt>
      <trkpt lat="44.59119" lon="1.48748">
        <ele>303</ele>
        <time>2017-09-23T08:16:53Z</time>
      </trkpt>
      <trkpt lat="44.59118" lon="1.48745">
        <ele>303</ele>
        <time>2017-09-23T08:16:59Z</time>
      </trkpt>
      <trkpt lat="44.59117" lon="1.48742">
        <ele>303</ele>
        <time>2017-09-23T08:17:04Z</time>
      </trkpt>
      <trkpt lat="44.59115" lon="1.4874">
        <ele>303</ele>
        <time>2017-09-23T08:17:06Z</time>
      </trkpt>
      <trkpt lat="44.59113" lon="1.48736">
        <ele>303</ele>
        <time>2017-09-23T08:17:08Z</time>
      </trkpt>
      <trkpt lat="44.59112" lon="1.48732">
        <ele>303</ele>
        <time>2017-09-23T08:17:13Z</time>
      </trkpt>
      <trkpt lat="44.59111" lon="1.48727">
        <ele>303</ele>
        <time>2017-09-23T08:17:16Z</time>
      </trkpt>
      <trkpt lat="44.59109" lon="1.48721">
        <ele>303</ele>
        <time>2017-09-23T08:17:20Z</time>
      </trkpt>
      <trkpt lat="44.59106" lon="1.48706">
        <ele>303</ele>
        <time>2017-09-23T08:17:30Z</time>
      </trkpt>
      <trkpt lat="44.59107" lon="1.48701">
        <ele>303</ele>
        <time>2017-09-23T08:17:33Z</time>
      </trkpt>
      <trkpt lat="44.59106" lon="1.4867">
        <ele>303</ele>
        <time>2017-09-23T08:17:49Z</time>
      </trkpt>
      <trkpt lat="44.59106" lon="1.48667">
        <ele>303</ele>
        <time>2017-09-23T08:17:51Z</time>
      </trkpt>
      <trkpt lat="44.59106" lon="1.48639">
        <ele>303</ele>
        <time>2017-09-23T08:18:06Z</time>
      </trkpt>
      <trkpt lat="44.59106" lon="1.48637">
        <ele>303</ele>
        <time>2017-09-23T08:18:07Z</time>
      </trkpt>
      <trkpt lat="44.59105" lon="1.48634">
        <ele>303</ele>
        <time>2017-09-23T08:18:08Z</time>
      </trkpt>
      <trkpt lat="44.59105" lon="1.4863">
        <ele>303</ele>
        <time>2017-09-23T08:18:10Z</time>
      </trkpt>
      <trkpt lat="44.59102" lon="1.48613">
        <ele>303</ele>
        <time>2017-09-23T08:18:20Z</time>
      </trkpt>
      <trkpt lat="44.59099" lon="1.48574">
        <ele>303</ele>
        <time>2017-09-23T08:18:45Z</time>
      </trkpt>
      <trkpt lat="44.59098" lon="1.4856">
        <ele>303</ele>
        <time>2017-09-23T08:18:53Z</time>
      </trkpt>
      <trkpt lat="44.59093" lon="1.48547">
        <ele>302</ele>
        <time>2017-09-23T08:19:01Z</time>
      </trkpt>
      <trkpt lat="44.59091" lon="1.48541">
        <ele>302</ele>
        <time>2017-09-23T08:19:04Z</time>
      </trkpt>
      <trkpt lat="44.59089" lon="1.48534">
        <ele>302</ele>
        <time>2017-09-23T08:19:08Z</time>
      </trkpt>
      <trkpt lat="44.59088" lon="1.48527">
        <ele>301</ele>
        <time>2017-09-23T08:19:13Z</time>
      </trkpt>
      <trkpt lat="44.59084" lon="1.48521">
        <ele>301</ele>
        <time>2017-09-23T08:19:16Z</time>
      </trkpt>
      <trkpt lat="44.59083" lon="1.48513">
        <ele>302</ele>
        <time>2017-09-23T08:19:21Z</time>
      </trkpt>
      <trkpt lat="44.59085" lon="1.48507">
        <ele>299</ele>
        <time>2017-09-23T08:19:26Z</time>
      </trkpt>
      <trkpt lat="44.59081" lon="1.48469">
        <ele>301</ele>
        <time>2017-09-23T08:19:45Z</time>
      </trkpt>
      <trkpt lat="44.59079" lon="1.48462">
        <ele>301</ele>
        <time>2017-09-23T08:19:50Z</time>
      </trkpt>
      <trkpt lat="44.59078" lon="1.48455">
        <ele>300</ele>
        <time>2017-09-23T08:19:54Z</time>
      </trkpt>
      <trkpt lat="44.59078" lon="1.48443">
        <ele>300</ele>
        <time>2017-09-23T08:20:03Z</time>
      </trkpt>
      <trkpt lat="44.59077" lon="1.48436">
        <ele>299</ele>
        <time>2017-09-23T08:20:09Z</time>
      </trkpt>
      <trkpt lat="44.59075" lon="1.48428">
        <ele>299</ele>
        <time>2017-09-23T08:20:13Z</time>
      </trkpt>
      <trkpt lat="44.59075" lon="1.48396">
        <ele>299</ele>
        <time>2017-09-23T08:20:32Z</time>
      </trkpt>
      <trkpt lat="44.59072" lon="1.48381">
        <ele>299</ele>
        <time>2017-09-23T08:20:39Z</time>
      </trkpt>
      <trkpt lat="44.59071" lon="1.48372">
        <ele>299</ele>
        <time>2017-09-23T08:20:44Z</time>
      </trkpt>
      <trkpt lat="44.59067" lon="1.4835">
        <ele>299</ele>
        <time>2017-09-23T08:20:57Z</time>
      </trkpt>
      <trkpt lat="44.5907" lon="1.48343">
        <ele>299</ele>
        <time>2017-09-23T08:21:01Z</time>
      </trkpt>
      <trkpt lat="44.59068" lon="1.48334">
        <ele>299</ele>
        <time>2017-09-23T08:21:07Z</time>
      </trkpt>
      <trkpt lat="44.59064" lon="1.48327">
        <ele>300</ele>
        <time>2017-09-23T08:21:11Z</time>
      </trkpt>
      <trkpt lat="44.59061" lon="1.48319">
        <ele>301</ele>
        <time>2017-09-23T08:21:16Z</time>
      </trkpt>
      <trkpt lat="44.59058" lon="1.48302">
        <ele>302</ele>
        <time>2017-09-23T08:21:24Z</time>
      </trkpt>
      <trkpt lat="44.59054" lon="1.48269">
        <ele>302</ele>
        <time>2017-09-23T08:21:44Z</time>
      </trkpt>
      <trkpt lat="44.59053" lon="1.48261">
        <ele>302</ele>
        <time>2017-09-23T08:21:48Z</time>
      </trkpt>
      <trkpt lat="44.59055" lon="1.48253">
        <ele>302</ele>
        <time>2017-09-23T08:21:52Z</time>
      </trkpt>
      <trkpt lat="44.59058" lon="1.48245">
        <ele>301</ele>
        <time>2017-09-23T08:21:57Z</time>
      </trkpt>
      <trkpt lat="44.59057" lon="1.48236">
        <ele>301</ele>
        <time>2017-09-23T08:22:02Z</time>
      </trkpt>
      <trkpt lat="44.59056" lon="1.48212">
        <ele>302</ele>
        <time>2017-09-23T08:22:15Z</time>
      </trkpt>
      <trkpt lat="44.59055" lon="1.48188">
        <ele>301</ele>
        <time>2017-09-23T08:22:27Z</time>
      </trkpt>
      <trkpt lat="44.59057" lon="1.48181">
        <ele>301</ele>
        <time>2017-09-23T08:22:31Z</time>
      </trkpt>
      <trkpt lat="44.59056" lon="1.48172">
        <ele>300</ele>
        <time>2017-09-23T08:22:36Z</time>
      </trkpt>
      <trkpt lat="44.59058" lon="1.48157">
        <ele>299</ele>
        <time>2017-09-23T08:22:45Z</time>
      </trkpt>
      <trkpt lat="44.59054" lon="1.48133">
        <ele>300</ele>
        <time>2017-09-23T08:22:59Z</time>
      </trkpt>
      <trkpt lat="44.59056" lon="1.48111">
        <ele>300</ele>
        <time>2017-09-23T08:23:11Z</time>
      </trkpt>
      <trkpt lat="44.59056" lon="1.48095">
        <ele>299</ele>
        <time>2017-09-23T08:23:21Z</time>
      </trkpt>
      <trkpt lat="44.59056" lon="1.48089">
        <ele>299</ele>
        <time>2017-09-23T08:23:25Z</time>
      </trkpt>
      <trkpt lat="44.59054" lon="1.48073">
        <ele>298</ele>
        <time>2017-09-23T08:23:34Z</time>
      </trkpt>
      <trkpt lat="44.59056" lon="1.48064">
        <ele>298</ele>
        <time>2017-09-23T08:23:39Z</time>
      </trkpt>
      <trkpt lat="44.5906" lon="1.48047">
        <ele>298</ele>
        <time>2017-09-23T08:23:53Z</time>
      </trkpt>
      <trkpt lat="44.59066" lon="1.4803">
        <ele>297</ele>
        <time>2017-09-23T08:24:03Z</time>
      </trkpt>
      <trkpt lat="44.59075" lon="1.48015">
        <ele>296</ele>
        <time>2017-09-23T08:24:12Z</time>
      </trkpt>
      <trkpt lat="44.59079" lon="1.48007">
        <ele>294</ele>
        <time>2017-09-23T08:24:16Z</time>
      </trkpt>
      <trkpt lat="44.59081" lon="1.47997">
        <ele>293</ele>
        <time>2017-09-23T08:24:22Z</time>
      </trkpt>
      <trkpt lat="44.59091" lon="1.47973">
        <ele>293</ele>
        <time>2017-09-23T08:24:39Z</time>
      </trkpt>
      <trkpt lat="44.59099" lon="1.47954">
        <ele>293</ele>
        <time>2017-09-23T08:24:50Z</time>
      </trkpt>
      <trkpt lat="44.59101" lon="1.47946">
        <ele>293</ele>
        <time>2017-09-23T08:24:54Z</time>
      </trkpt>
      <trkpt lat="44.59104" lon="1.4794">
        <ele>293</ele>
        <time>2017-09-23T08:24:58Z</time>
      </trkpt>
      <trkpt lat="44.59117" lon="1.47918">
        <ele>293</ele>
        <time>2017-09-23T08:25:12Z</time>
      </trkpt>
      <trkpt lat="44.5912" lon="1.4791">
        <ele>293</ele>
        <time>2017-09-23T08:25:17Z</time>
      </trkpt>
      <trkpt lat="44.59121" lon="1.47901">
        <ele>293</ele>
        <time>2017-09-23T08:25:22Z</time>
      </trkpt>
      <trkpt lat="44.59124" lon="1.47894">
        <ele>293</ele>
        <time>2017-09-23T08:25:26Z</time>
      </trkpt>
      <trkpt lat="44.59144" lon="1.4785">
        <ele>293</ele>
        <time>2017-09-23T08:25:50Z</time>
      </trkpt>
      <trkpt lat="44.59147" lon="1.47846">
        <ele>293</ele>
        <time>2017-09-23T08:25:52Z</time>
      </trkpt>
      <trkpt lat="44.59156" lon="1.4783">
        <ele>293</ele>
        <time>2017-09-23T08:26:06Z</time>
      </trkpt>
      <trkpt lat="44.59158" lon="1.47825">
        <ele>293</ele>
        <time>2017-09-23T08:26:11Z</time>
      </trkpt>
      <trkpt lat="44.5916" lon="1.4782">
        <ele>293</ele>
        <time>2017-09-23T08:26:16Z</time>
      </trkpt>
      <trkpt lat="44.59159" lon="1.47812">
        <ele>294</ele>
        <time>2017-09-23T08:26:24Z</time>
      </trkpt>
      <trkpt lat="44.59161" lon="1.47807">
        <ele>294</ele>
        <time>2017-09-23T08:26:29Z</time>
      </trkpt>
      <trkpt lat="44.59163" lon="1.47803">
        <ele>294</ele>
        <time>2017-09-23T08:26:35Z</time>
      </trkpt>
      <trkpt lat="44.59162" lon="1.47799">
        <ele>295</ele>
        <time>2017-09-23T08:26:42Z</time>
      </trkpt>
      <trkpt lat="44.59163" lon="1.47795">
        <ele>295</ele>
        <time>2017-09-23T08:26:55Z</time>
      </trkpt>
      <trkpt lat="44.59161" lon="1.47791">
        <ele>295</ele>
        <time>2017-09-23T08:27:04Z</time>
      </trkpt>
      <trkpt lat="44.59162" lon="1.47787">
        <ele>295</ele>
        <time>2017-09-23T08:27:12Z</time>
      </trkpt>
      <trkpt lat="44.59161" lon="1.47783">
        <ele>295</ele>
        <time>2017-09-23T08:27:15Z</time>
      </trkpt>
      <trkpt lat="44.59161" lon="1.47781">
        <ele>295</ele>
        <time>2017-09-23T08:27:21Z</time>
      </trkpt>
      <trkpt lat="44.59159" lon="1.47779">
        <ele>295</ele>
        <time>2017-09-23T08:27:25Z</time>
      </trkpt>
      <trkpt lat="44.59159" lon="1.47777">
        <ele>295</ele>
        <time>2017-09-23T08:27:31Z</time>
      </trkpt>
      <trkpt lat="44.59156" lon="1.47768">
        <ele>295</ele>
        <time>2017-09-23T08:27:37Z</time>
      </trkpt>
      <trkpt lat="44.59154" lon="1.47765">
        <ele>294</ele>
        <time>2017-09-23T08:27:40Z</time>
      </trkpt>
      <trkpt lat="44.59153" lon="1.47762">
        <ele>294</ele>
        <time>2017-09-23T08:27:43Z</time>
      </trkpt>
      <trkpt lat="44.59152" lon="1.4776">
        <ele>294</ele>
        <time>2017-09-23T08:27:45Z</time>
      </trkpt>
      <trkpt lat="44.59147" lon="1.47753">
        <ele>295</ele>
        <time>2017-09-23T08:27:52Z</time>
      </trkpt>
      <trkpt lat="44.59141" lon="1.4774">
        <ele>298</ele>
        <time>2017-09-23T08:28:03Z</time>
      </trkpt>
      <trkpt lat="44.59139" lon="1.47736">
        <ele>298</ele>
        <time>2017-09-23T08:28:06Z</time>
      </trkpt>
      <trkpt lat="44.59138" lon="1.47722">
        <ele>299</ele>
        <time>2017-09-23T08:28:15Z</time>
      </trkpt>
      <trkpt lat="44.59138" lon="1.47715">
        <ele>299</ele>
        <time>2017-09-23T08:28:20Z</time>
      </trkpt>
      <trkpt lat="44.59138" lon="1.47708">
        <ele>299</ele>
        <time>2017-09-23T08:28:25Z</time>
      </trkpt>
      <trkpt lat="44.59141" lon="1.47701">
        <ele>299</ele>
        <time>2017-09-23T08:28:30Z</time>
      </trkpt>
      <trkpt lat="44.59147" lon="1.4769">
        <ele>298</ele>
        <time>2017-09-23T08:28:38Z</time>
      </trkpt>
      <trkpt lat="44.5915" lon="1.47685">
        <ele>298</ele>
        <time>2017-09-23T08:28:42Z</time>
      </trkpt>
      <trkpt lat="44.5915" lon="1.4768">
        <ele>298</ele>
        <time>2017-09-23T08:28:45Z</time>
      </trkpt>
      <trkpt lat="44.59164" lon="1.47652">
        <ele>299</ele>
        <time>2017-09-23T08:29:04Z</time>
      </trkpt>
      <trkpt lat="44.59167" lon="1.47647">
        <ele>293</ele>
        <time>2017-09-23T08:29:07Z</time>
      </trkpt>
      <trkpt lat="44.59175" lon="1.47631">
        <ele>293</ele>
        <time>2017-09-23T08:29:17Z</time>
      </trkpt>
      <trkpt lat="44.59177" lon="1.47627">
        <ele>293</ele>
        <time>2017-09-23T08:29:20Z</time>
      </trkpt>
      <trkpt lat="44.59179" lon="1.47622">
        <ele>293</ele>
        <time>2017-09-23T08:29:23Z</time>
      </trkpt>
      <trkpt lat="44.5918" lon="1.47616">
        <ele>293</ele>
        <time>2017-09-23T08:29:27Z</time>
      </trkpt>
      <trkpt lat="44.59198" lon="1.47581">
        <ele>296</ele>
        <time>2017-09-23T08:29:59Z</time>
      </trkpt>
      <trkpt lat="44.59217" lon="1.4754">
        <ele>294</ele>
        <time>2017-09-23T08:30:28Z</time>
      </trkpt>
      <trkpt lat="44.5922" lon="1.47534">
        <ele>294</ele>
        <time>2017-09-23T08:30:32Z</time>
      </trkpt>
      <trkpt lat="44.59224" lon="1.47527">
        <ele>293</ele>
        <time>2017-09-23T08:30:37Z</time>
      </trkpt>
      <trkpt lat="44.59229" lon="1.47518">
        <ele>292</ele>
        <time>2017-09-23T08:30:45Z</time>
      </trkpt>
      <trkpt lat="44.59232" lon="1.47512">
        <ele>291</ele>
        <time>2017-09-23T08:30:48Z</time>
      </trkpt>
      <trkpt lat="44.59235" lon="1.47503">
        <ele>290</ele>
        <time>2017-09-23T08:30:55Z</time>
      </trkpt>
      <trkpt lat="44.5924" lon="1.47492">
        <ele>291</ele>
        <time>2017-09-23T08:31:03Z</time>
      </trkpt>
      <trkpt lat="44.59244" lon="1.47479">
        <ele>293</ele>
        <time>2017-09-23T08:31:13Z</time>
      </trkpt>
      <trkpt lat="44.59248" lon="1.47475">
        <ele>293</ele>
        <time>2017-09-23T08:31:17Z</time>
      </trkpt>
      <trkpt lat="44.59249" lon="1.47469">
        <ele>294</ele>
        <time>2017-09-23T08:31:21Z</time>
      </trkpt>
      <trkpt lat="44.59252" lon="1.47462">
        <ele>286</ele>
        <time>2017-09-23T08:31:25Z</time>
      </trkpt>
      <trkpt lat="44.59255" lon="1.47457">
        <ele>286</ele>
        <time>2017-09-23T08:31:29Z</time>
      </trkpt>
      <trkpt lat="44.59265" lon="1.47398">
        <ele>289</ele>
        <time>2017-09-23T08:32:01Z</time>
      </trkpt>
      <trkpt lat="44.59267" lon="1.47393">
        <ele>289</ele>
        <time>2017-09-23T08:32:04Z</time>
      </trkpt>
      <trkpt lat="44.59268" lon="1.47387">
        <ele>289</ele>
        <time>2017-09-23T08:32:09Z</time>
      </trkpt>
      <trkpt lat="44.59275" lon="1.47368">
        <ele>289</ele>
        <time>2017-09-23T08:32:20Z</time>
      </trkpt>
      <trkpt lat="44.59282" lon="1.47359">
        <ele>289</ele>
        <time>2017-09-23T08:32:28Z</time>
      </trkpt>
      <trkpt lat="44.59298" lon="1.4733">
        <ele>289</ele>
        <time>2017-09-23T08:32:47Z</time>
      </trkpt>
      <trkpt lat="44.59305" lon="1.47312">
        <ele>289</ele>
        <time>2017-09-23T08:32:57Z</time>
      </trkpt>
      <trkpt lat="44.59307" lon="1.47292">
        <ele>289</ele>
        <time>2017-09-23T08:33:10Z</time>
      </trkpt>
      <trkpt lat="44.59309" lon="1.47286">
        <ele>289</ele>
        <time>2017-09-23T08:33:14Z</time>
      </trkpt>
      <trkpt lat="44.5931" lon="1.47279">
        <ele>289</ele>
        <time>2017-09-23T08:33:18Z</time>
      </trkpt>
      <trkpt lat="44.59311" lon="1.47274">
        <ele>289</ele>
        <time>2017-09-23T08:33:21Z</time>
      </trkpt>
      <trkpt lat="44.59313" lon="1.47268">
        <ele>288</ele>
        <time>2017-09-23T08:33:25Z</time>
      </trkpt>
      <trkpt lat="44.59313" lon="1.47262">
        <ele>288</ele>
        <time>2017-09-23T08:33:28Z</time>
      </trkpt>
      <trkpt lat="44.59313" lon="1.47255">
        <ele>288</ele>
        <time>2017-09-23T08:33:32Z</time>
      </trkpt>
      <trkpt lat="44.59315" lon="1.47242">
        <ele>289</ele>
        <time>2017-09-23T08:33:39Z</time>
      </trkpt>
      <trkpt lat="44.59316" lon="1.47236">
        <ele>289</ele>
        <time>2017-09-23T08:33:43Z</time>
      </trkpt>
      <trkpt lat="44.59319" lon="1.47223">
        <ele>290</ele>
        <time>2017-09-23T08:33:51Z</time>
      </trkpt>
      <trkpt lat="44.59318" lon="1.47217">
        <ele>290</ele>
        <time>2017-09-23T08:33:54Z</time>
      </trkpt>
      <trkpt lat="44.59323" lon="1.472">
        <ele>290</ele>
        <time>2017-09-23T08:34:02Z</time>
      </trkpt>
      <trkpt lat="44.59324" lon="1.47197">
        <ele>290</ele>
        <time>2017-09-23T08:34:05Z</time>
      </trkpt>
      <trkpt lat="44.59327" lon="1.47188">
        <ele>289</ele>
        <time>2017-09-23T08:34:11Z</time>
      </trkpt>
      <trkpt lat="44.59328" lon="1.47186">
        <ele>289</ele>
        <time>2017-09-23T08:34:13Z</time>
      </trkpt>
      <trkpt lat="44.59327" lon="1.4718">
        <ele>288</ele>
        <time>2017-09-23T08:34:17Z</time>
      </trkpt>
      <trkpt lat="44.59326" lon="1.47179">
        <ele>288</ele>
        <time>2017-09-23T08:34:19Z</time>
      </trkpt>
      <trkpt lat="44.59326" lon="1.47177">
        <ele>288</ele>
        <time>2017-09-23T08:34:22Z</time>
      </trkpt>
      <trkpt lat="44.59324" lon="1.47175">
        <ele>288</ele>
        <time>2017-09-23T08:34:44Z</time>
      </trkpt>
      <trkpt lat="44.59323" lon="1.47172">
        <ele>288</ele>
        <time>2017-09-23T08:34:46Z</time>
      </trkpt>
      <trkpt lat="44.59323" lon="1.4717">
        <ele>288</ele>
        <time>2017-09-23T08:34:48Z</time>
      </trkpt>
      <trkpt lat="44.59322" lon="1.47167">
        <ele>288</ele>
        <time>2017-09-23T08:34:50Z</time>
      </trkpt>
      <trkpt lat="44.59322" lon="1.47165">
        <ele>287</ele>
        <time>2017-09-23T08:34:52Z</time>
      </trkpt>
      <trkpt lat="44.59321" lon="1.47158">
        <ele>287</ele>
        <time>2017-09-23T08:35:04Z</time>
      </trkpt>
      <trkpt lat="44.59304" lon="1.47118">
        <ele>289</ele>
        <time>2017-09-23T08:35:30Z</time>
      </trkpt>
      <trkpt lat="44.59301" lon="1.47112">
        <ele>289</ele>
        <time>2017-09-23T08:35:35Z</time>
      </trkpt>
      <trkpt lat="44.59298" lon="1.47101">
        <ele>289</ele>
        <time>2017-09-23T08:35:42Z</time>
      </trkpt>
      <trkpt lat="44.59298" lon="1.47095">
        <ele>288</ele>
        <time>2017-09-23T08:35:47Z</time>
      </trkpt>
      <trkpt lat="44.59298" lon="1.4709">
        <ele>288</ele>
        <time>2017-09-23T08:35:52Z</time>
      </trkpt>
      <trkpt lat="44.59298" lon="1.47085">
        <ele>288</ele>
        <time>2017-09-23T08:35:56Z</time>
      </trkpt>
      <trkpt lat="44.59296" lon="1.47075">
        <ele>285</ele>
        <time>2017-09-23T08:36:02Z</time>
      </trkpt>
      <trkpt lat="44.59282" lon="1.47045">
        <ele>285</ele>
        <time>2017-09-23T08:36:22Z</time>
      </trkpt>
      <trkpt lat="44.5928" lon="1.47041">
        <ele>285</ele>
        <time>2017-09-23T08:36:25Z</time>
      </trkpt>
      <trkpt lat="44.59268" lon="1.47027">
        <ele>285</ele>
        <time>2017-09-23T08:36:35Z</time>
      </trkpt>
      <trkpt lat="44.59266" lon="1.47021">
        <ele>285</ele>
        <time>2017-09-23T08:36:38Z</time>
      </trkpt>
      <trkpt lat="44.59264" lon="1.47016">
        <ele>285</ele>
        <time>2017-09-23T08:36:42Z</time>
      </trkpt>
      <trkpt lat="44.59263" lon="1.47011">
        <ele>285</ele>
        <time>2017-09-23T08:36:48Z</time>
      </trkpt>
      <trkpt lat="44.59264" lon="1.47004">
        <ele>285</ele>
        <time>2017-09-23T08:36:54Z</time>
      </trkpt>
      <trkpt lat="44.59266" lon="1.46996">
        <ele>284</ele>
        <time>2017-09-23T08:36:58Z</time>
      </trkpt>
      <trkpt lat="44.59272" lon="1.46984">
        <ele>284</ele>
        <time>2017-09-23T08:37:06Z</time>
      </trkpt>
      <trkpt lat="44.59272" lon="1.46977">
        <ele>284</ele>
        <time>2017-09-23T08:37:10Z</time>
      </trkpt>
      <trkpt lat="44.59276" lon="1.46957">
        <ele>284</ele>
        <time>2017-09-23T08:37:21Z</time>
      </trkpt>
      <trkpt lat="44.59274" lon="1.46939">
        <ele>284</ele>
        <time>2017-09-23T08:37:31Z</time>
      </trkpt>
      <trkpt lat="44.59274" lon="1.46931">
        <ele>285</ele>
        <time>2017-09-23T08:37:38Z</time>
      </trkpt>
      <trkpt lat="44.59272" lon="1.46926">
        <ele>285</ele>
        <time>2017-09-23T08:37:42Z</time>
      </trkpt>
      <trkpt lat="44.5927" lon="1.46908">
        <ele>285</ele>
        <time>2017-09-23T08:37:51Z</time>
      </trkpt>
      <trkpt lat="44.59269" lon="1.469">
        <ele>285</ele>
        <time>2017-09-23T08:37:55Z</time>
      </trkpt>
      <trkpt lat="44.59268" lon="1.46894">
        <ele>285</ele>
        <time>2017-09-23T08:37:59Z</time>
      </trkpt>
      <trkpt lat="44.59261" lon="1.46879">
        <ele>284</ele>
        <time>2017-09-23T08:38:10Z</time>
      </trkpt>
      <trkpt lat="44.59261" lon="1.46873">
        <ele>284</ele>
        <time>2017-09-23T08:38:14Z</time>
      </trkpt>
      <trkpt lat="44.59257" lon="1.4686">
        <ele>284</ele>
        <time>2017-09-23T08:38:21Z</time>
      </trkpt>
      <trkpt lat="44.59254" lon="1.46854">
        <ele>285</ele>
        <time>2017-09-23T08:38:24Z</time>
      </trkpt>
      <trkpt lat="44.59252" lon="1.46848">
        <ele>285</ele>
        <time>2017-09-23T08:38:28Z</time>
      </trkpt>
      <trkpt lat="44.59249" lon="1.46842">
        <ele>291</ele>
        <time>2017-09-23T08:38:31Z</time>
      </trkpt>
      <trkpt lat="44.59244" lon="1.46829">
        <ele>290</ele>
        <time>2017-09-23T08:38:37Z</time>
      </trkpt>
      <trkpt lat="44.59244" lon="1.46821">
        <ele>292</ele>
        <time>2017-09-23T08:38:43Z</time>
      </trkpt>
      <trkpt lat="44.59245" lon="1.46807">
        <ele>294</ele>
        <time>2017-09-23T08:38:52Z</time>
      </trkpt>
      <trkpt lat="44.59249" lon="1.46791">
        <ele>294</ele>
        <time>2017-09-23T08:39:06Z</time>
      </trkpt>
      <trkpt lat="44.59257" lon="1.46775">
        <ele>284</ele>
        <time>2017-09-23T08:39:20Z</time>
      </trkpt>
      <trkpt lat="44.59259" lon="1.46769">
        <ele>284</ele>
        <time>2017-09-23T08:39:23Z</time>
      </trkpt>
      <trkpt lat="44.59262" lon="1.46764">
        <ele>284</ele>
        <time>2017-09-23T08:39:27Z</time>
      </trkpt>
      <trkpt lat="44.59264" lon="1.46757">
        <ele>284</ele>
        <time>2017-09-23T08:39:32Z</time>
      </trkpt>
      <trkpt lat="44.59266" lon="1.46752">
        <ele>284</ele>
        <time>2017-09-23T08:39:36Z</time>
      </trkpt>
      <trkpt lat="44.59267" lon="1.46745">
        <ele>283</ele>
        <time>2017-09-23T08:39:42Z</time>
      </trkpt>
      <trkpt lat="44.5927" lon="1.46737">
        <ele>283</ele>
        <time>2017-09-23T08:39:50Z</time>
      </trkpt>
      <trkpt lat="44.59273" lon="1.46731">
        <ele>282</ele>
        <time>2017-09-23T08:39:54Z</time>
      </trkpt>
      <trkpt lat="44.59275" lon="1.46725">
        <ele>281</ele>
        <time>2017-09-23T08:39:59Z</time>
      </trkpt>
      <trkpt lat="44.59276" lon="1.46717">
        <ele>281</ele>
        <time>2017-09-23T08:40:03Z</time>
      </trkpt>
      <trkpt lat="44.59284" lon="1.46696">
        <ele>280</ele>
        <time>2017-09-23T08:40:19Z</time>
      </trkpt>
      <trkpt lat="44.59284" lon="1.46688">
        <ele>280</ele>
        <time>2017-09-23T08:40:23Z</time>
      </trkpt>
      <trkpt lat="44.59285" lon="1.46682">
        <ele>280</ele>
        <time>2017-09-23T08:40:26Z</time>
      </trkpt>
      <trkpt lat="44.59286" lon="1.46677">
        <ele>280</ele>
        <time>2017-09-23T08:40:29Z</time>
      </trkpt>
      <trkpt lat="44.59285" lon="1.4667">
        <ele>280</ele>
        <time>2017-09-23T08:40:35Z</time>
      </trkpt>
      <trkpt lat="44.59282" lon="1.46666">
        <ele>279</ele>
        <time>2017-09-23T08:40:38Z</time>
      </trkpt>
      <trkpt lat="44.59281" lon="1.4666">
        <ele>279</ele>
        <time>2017-09-23T08:40:43Z</time>
      </trkpt>
      <trkpt lat="44.59279" lon="1.46655">
        <ele>279</ele>
        <time>2017-09-23T08:40:48Z</time>
      </trkpt>
      <trkpt lat="44.59279" lon="1.46635">
        <ele>278</ele>
        <time>2017-09-23T08:41:03Z</time>
      </trkpt>
      <trkpt lat="44.59277" lon="1.46629">
        <ele>278</ele>
        <time>2017-09-23T08:41:08Z</time>
      </trkpt>
      <trkpt lat="44.59279" lon="1.46623">
        <ele>278</ele>
        <time>2017-09-23T08:41:15Z</time>
      </trkpt>
      <trkpt lat="44.59281" lon="1.46616">
        <ele>278</ele>
        <time>2017-09-23T08:41:21Z</time>
      </trkpt>
      <trkpt lat="44.59282" lon="1.4661">
        <ele>278</ele>
        <time>2017-09-23T08:41:26Z</time>
      </trkpt>
      <trkpt lat="44.59284" lon="1.46605">
        <ele>278</ele>
        <time>2017-09-23T08:41:30Z</time>
      </trkpt>
      <trkpt lat="44.59287" lon="1.466">
        <ele>277</ele>
        <time>2017-09-23T08:41:35Z</time>
      </trkpt>
      <trkpt lat="44.59288" lon="1.46594">
        <ele>277</ele>
        <time>2017-09-23T08:41:39Z</time>
      </trkpt>
      <trkpt lat="44.59289" lon="1.46587">
        <ele>277</ele>
        <time>2017-09-23T08:41:45Z</time>
      </trkpt>
      <trkpt lat="44.59293" lon="1.46581">
        <ele>276</ele>
        <time>2017-09-23T08:41:50Z</time>
      </trkpt>
      <trkpt lat="44.59295" lon="1.46575">
        <ele>275</ele>
        <time>2017-09-23T08:41:55Z</time>
      </trkpt>
      <trkpt lat="44.59294" lon="1.4656">
        <ele>275</ele>
        <time>2017-09-23T08:42:08Z</time>
      </trkpt>
      <trkpt lat="44.59293" lon="1.46554">
        <ele>275</ele>
        <time>2017-09-23T08:42:12Z</time>
      </trkpt>
      <trkpt lat="44.59292" lon="1.46549">
        <ele>275</ele>
        <time>2017-09-23T08:42:16Z</time>
      </trkpt>
      <trkpt lat="44.59293" lon="1.46542">
        <ele>275</ele>
        <time>2017-09-23T08:42:20Z</time>
      </trkpt>
      <trkpt lat="44.59291" lon="1.46535">
        <ele>275</ele>
        <time>2017-09-23T08:42:26Z</time>
      </trkpt>
      <trkpt lat="44.59291" lon="1.46528">
        <ele>275</ele>
        <time>2017-09-23T08:42:31Z</time>
      </trkpt>
      <trkpt lat="44.59289" lon="1.46522">
        <ele>275</ele>
        <time>2017-09-23T08:42:38Z</time>
      </trkpt>
      <trkpt lat="44.59287" lon="1.46516">
        <ele>275</ele>
        <time>2017-09-23T08:42:43Z</time>
      </trkpt>
      <trkpt lat="44.59277" lon="1.4648">
        <ele>273</ele>
        <time>2017-09-23T08:43:11Z</time>
      </trkpt>
      <trkpt lat="44.59274" lon="1.46476">
        <ele>273</ele>
        <time>2017-09-23T08:43:14Z</time>
      </trkpt>
      <trkpt lat="44.59269" lon="1.46465">
        <ele>273</ele>
        <time>2017-09-23T08:43:21Z</time>
      </trkpt>
      <trkpt lat="44.59266" lon="1.46461">
        <ele>273</ele>
        <time>2017-09-23T08:43:24Z</time>
      </trkpt>
      <trkpt lat="44.59263" lon="1.46455">
        <ele>273</ele>
        <time>2017-09-23T08:43:29Z</time>
      </trkpt>
      <trkpt lat="44.59253" lon="1.4644">
        <ele>272</ele>
        <time>2017-09-23T08:43:40Z</time>
      </trkpt>
      <trkpt lat="44.5925" lon="1.46434">
        <ele>271</ele>
        <time>2017-09-23T08:43:44Z</time>
      </trkpt>
      <trkpt lat="44.59242" lon="1.46424">
        <ele>273</ele>
        <time>2017-09-23T08:43:52Z</time>
      </trkpt>
      <trkpt lat="44.59234" lon="1.46414">
        <ele>273</ele>
        <time>2017-09-23T08:44:02Z</time>
      </trkpt>
      <trkpt lat="44.5923" lon="1.46409">
        <ele>274</ele>
        <time>2017-09-23T08:44:06Z</time>
      </trkpt>
      <trkpt lat="44.59226" lon="1.46405">
        <ele>274</ele>
        <time>2017-09-23T08:44:09Z</time>
      </trkpt>
      <trkpt lat="44.59223" lon="1.464">
        <ele>275</ele>
        <time>2017-09-23T08:44:13Z</time>
      </trkpt>
      <trkpt lat="44.59217" lon="1.46387">
        <ele>276</ele>
        <time>2017-09-23T08:44:23Z</time>
      </trkpt>
      <trkpt lat="44.59215" lon="1.4638">
        <ele>276</ele>
        <time>2017-09-23T08:44:29Z</time>
      </trkpt>
      <trkpt lat="44.59214" lon="1.46375">
        <ele>276</ele>
        <time>2017-09-23T08:44:32Z</time>
      </trkpt>
      <trkpt lat="44.59212" lon="1.4637">
        <ele>276</ele>
        <time>2017-09-23T08:44:35Z</time>
      </trkpt>
      <trkpt lat="44.59207" lon="1.46361">
        <ele>276</ele>
        <time>2017-09-23T08:44:41Z</time>
      </trkpt>
      <trkpt lat="44.59205" lon="1.46356">
        <ele>276</ele>
        <time>2017-09-23T08:44:44Z</time>
      </trkpt>
      <trkpt lat="44.59203" lon="1.46351">
        <ele>276</ele>
        <time>2017-09-23T08:44:47Z</time>
      </trkpt>
      <trkpt lat="44.592" lon="1.46347">
        <ele>276</ele>
        <time>2017-09-23T08:44:51Z</time>
      </trkpt>
      <trkpt lat="44.59195" lon="1.46341">
        <ele>276</ele>
        <time>2017-09-23T08:44:57Z</time>
      </trkpt>
      <trkpt lat="44.5919" lon="1.46336">
        <ele>277</ele>
        <time>2017-09-23T08:45:03Z</time>
      </trkpt>
      <trkpt lat="44.59186" lon="1.4633">
        <ele>275</ele>
        <time>2017-09-23T08:45:08Z</time>
      </trkpt>
      <trkpt lat="44.59182" lon="1.46322">
        <ele>275</ele>
        <time>2017-09-23T08:45:14Z</time>
      </trkpt>
      <trkpt lat="44.59178" lon="1.46315">
        <ele>275</ele>
        <time>2017-09-23T08:45:20Z</time>
      </trkpt>
      <trkpt lat="44.59169" lon="1.46297">
        <ele>274</ele>
        <time>2017-09-23T08:45:37Z</time>
      </trkpt>
      <trkpt lat="44.59167" lon="1.46288">
        <ele>273</ele>
        <time>2017-09-23T08:45:43Z</time>
      </trkpt>
      <trkpt lat="44.59159" lon="1.46259">
        <ele>276</ele>
        <time>2017-09-23T08:46:02Z</time>
      </trkpt>
      <trkpt lat="44.59156" lon="1.4625">
        <ele>273</ele>
        <time>2017-09-23T08:46:08Z</time>
      </trkpt>
      <trkpt lat="44.59156" lon="1.46239">
        <ele>274</ele>
        <time>2017-09-23T08:46:15Z</time>
      </trkpt>
      <trkpt lat="44.59153" lon="1.46228">
        <ele>275</ele>
        <time>2017-09-23T08:46:22Z</time>
      </trkpt>
      <trkpt lat="44.59153" lon="1.46219">
        <ele>275</ele>
        <time>2017-09-23T08:46:26Z</time>
      </trkpt>
      <trkpt lat="44.59152" lon="1.46211">
        <ele>275</ele>
        <time>2017-09-23T08:46:30Z</time>
      </trkpt>
      <trkpt lat="44.59139" lon="1.4615">
        <ele>272</ele>
        <time>2017-09-23T08:47:03Z</time>
      </trkpt>
      <trkpt lat="44.59137" lon="1.46142">
        <ele>273</ele>
        <time>2017-09-23T08:47:08Z</time>
      </trkpt>
      <trkpt lat="44.59134" lon="1.46135">
        <ele>273</ele>
        <time>2017-09-23T08:47:19Z</time>
      </trkpt>
      <trkpt lat="44.59133" lon="1.46127">
        <ele>273</ele>
        <time>2017-09-23T08:47:31Z</time>
      </trkpt>
      <trkpt lat="44.5913" lon="1.46118">
        <ele>274</ele>
        <time>2017-09-23T08:47:39Z</time>
      </trkpt>
      <trkpt lat="44.59126" lon="1.4611">
        <ele>274</ele>
        <time>2017-09-23T08:47:51Z</time>
      </trkpt>
      <trkpt lat="44.59123" lon="1.46101">
        <ele>274</ele>
        <time>2017-09-23T08:48:05Z</time>
      </trkpt>
      <trkpt lat="44.59121" lon="1.46091">
        <ele>274</ele>
        <time>2017-09-23T08:48:16Z</time>
      </trkpt>
      <trkpt lat="44.59116" lon="1.46079">
        <ele>273</ele>
        <time>2017-09-23T08:48:25Z</time>
      </trkpt>
      <trkpt lat="44.59113" lon="1.46069">
        <ele>273</ele>
        <time>2017-09-23T08:48:34Z</time>
      </trkpt>
      <trkpt lat="44.59103" lon="1.46038">
        <ele>272</ele>
        <time>2017-09-23T08:48:57Z</time>
      </trkpt>
      <trkpt lat="44.59099" lon="1.46028">
        <ele>272</ele>
        <time>2017-09-23T08:49:05Z</time>
      </trkpt>
      <trkpt lat="44.59097" lon="1.46018">
        <ele>271</ele>
        <time>2017-09-23T08:49:12Z</time>
      </trkpt>
      <trkpt lat="44.59094" lon="1.46009">
        <ele>271</ele>
        <time>2017-09-23T08:49:18Z</time>
      </trkpt>
      <trkpt lat="44.59092" lon="1.45998">
        <ele>270</ele>
        <time>2017-09-23T08:49:25Z</time>
      </trkpt>
      <trkpt lat="44.59091" lon="1.45989">
        <ele>269</ele>
        <time>2017-09-23T08:49:32Z</time>
      </trkpt>
      <trkpt lat="44.59087" lon="1.4597">
        <ele>268</ele>
        <time>2017-09-23T08:49:47Z</time>
      </trkpt>
      <trkpt lat="44.59087" lon="1.45962">
        <ele>268</ele>
        <time>2017-09-23T08:49:53Z</time>
      </trkpt>
      <trkpt lat="44.59073" lon="1.45896">
        <ele>268</ele>
        <time>2017-09-23T08:50:24Z</time>
      </trkpt>
      <trkpt lat="44.59069" lon="1.45882">
        <ele>268</ele>
        <time>2017-09-23T08:50:31Z</time>
      </trkpt>
      <trkpt lat="44.59068" lon="1.45869">
        <ele>268</ele>
        <time>2017-09-23T08:50:39Z</time>
      </trkpt>
      <trkpt lat="44.59068" lon="1.45863">
        <ele>268</ele>
        <time>2017-09-23T08:50:43Z</time>
      </trkpt>
      <trkpt lat="44.59067" lon="1.45858">
        <ele>268</ele>
        <time>2017-09-23T08:50:46Z</time>
      </trkpt>
      <trkpt lat="44.59065" lon="1.45843">
        <ele>267</ele>
        <time>2017-09-23T08:50:56Z</time>
      </trkpt>
      <trkpt lat="44.59053" lon="1.45821">
        <ele>264</ele>
        <time>2017-09-23T08:51:09Z</time>
      </trkpt>
      <trkpt lat="44.5905" lon="1.45812">
        <ele>265</ele>
        <time>2017-09-23T08:51:14Z</time>
      </trkpt>
      <trkpt lat="44.59042" lon="1.45799">
        <ele>265</ele>
        <time>2017-09-23T08:51:26Z</time>
      </trkpt>
      <trkpt lat="44.59038" lon="1.45794">
        <ele>265</ele>
        <time>2017-09-23T08:51:34Z</time>
      </trkpt>
      <trkpt lat="44.59031" lon="1.45756">
        <ele>264</ele>
        <time>2017-09-23T08:52:13Z</time>
      </trkpt>
      <trkpt lat="44.59027" lon="1.45745">
        <ele>261</ele>
        <time>2017-09-23T08:52:34Z</time>
      </trkpt>
      <trkpt lat="44.59019" lon="1.45738">
        <ele>261</ele>
        <time>2017-09-23T08:52:38Z</time>
      </trkpt>
      <trkpt lat="44.59007" lon="1.45726">
        <ele>261</ele>
        <time>2017-09-23T08:52:47Z</time>
      </trkpt>
      <trkpt lat="44.59" lon="1.45723">
        <ele>263</ele>
        <time>2017-09-23T08:52:52Z</time>
      </trkpt>
      <trkpt lat="44.58994" lon="1.45714">
        <ele>262</ele>
        <time>2017-09-23T08:52:57Z</time>
      </trkpt>
      <trkpt lat="44.58986" lon="1.45709">
        <ele>262</ele>
        <time>2017-09-23T08:53:03Z</time>
      </trkpt>
      <trkpt lat="44.58978" lon="1.45703">
        <ele>262</ele>
        <time>2017-09-23T08:53:08Z</time>
      </trkpt>
      <trkpt lat="44.58968" lon="1.45701">
        <ele>262</ele>
        <time>2017-09-23T08:53:18Z</time>
      </trkpt>
      <trkpt lat="44.58961" lon="1.45696">
        <ele>262</ele>
        <time>2017-09-23T08:53:23Z</time>
      </trkpt>
      <trkpt lat="44.58912" lon="1.45661">
        <ele>259</ele>
        <time>2017-09-23T08:53:53Z</time>
      </trkpt>
      <trkpt lat="44.58907" lon="1.45658">
        <ele>259</ele>
        <time>2017-09-23T08:53:56Z</time>
      </trkpt>
      <trkpt lat="44.58904" lon="1.45656">
        <ele>259</ele>
        <time>2017-09-23T08:53:59Z</time>
      </trkpt>
      <trkpt lat="44.5889" lon="1.45644">
        <ele>259</ele>
        <time>2017-09-23T08:54:07Z</time>
      </trkpt>
      <trkpt lat="44.58885" lon="1.4564">
        <ele>258</ele>
        <time>2017-09-23T08:54:11Z</time>
      </trkpt>
      <trkpt lat="44.58881" lon="1.45639">
        <ele>258</ele>
        <time>2017-09-23T08:54:15Z</time>
      </trkpt>
      <trkpt lat="44.58877" lon="1.45638">
        <ele>258</ele>
        <time>2017-09-23T08:54:18Z</time>
      </trkpt>
      <trkpt lat="44.5886" lon="1.45632">
        <ele>258</ele>
        <time>2017-09-23T08:54:30Z</time>
      </trkpt>
      <trkpt lat="44.58853" lon="1.45629">
        <ele>258</ele>
        <time>2017-09-23T08:54:36Z</time>
      </trkpt>
      <trkpt lat="44.5885" lon="1.45627">
        <ele>258</ele>
        <time>2017-09-23T08:54:39Z</time>
      </trkpt>
      <trkpt lat="44.58846" lon="1.45626">
        <ele>258</ele>
        <time>2017-09-23T08:54:43Z</time>
      </trkpt>
      <trkpt lat="44.58831" lon="1.4561">
        <ele>261</ele>
        <time>2017-09-23T08:54:58Z</time>
      </trkpt>
      <trkpt lat="44.58819" lon="1.45605">
        <ele>261</ele>
        <time>2017-09-23T08:55:11Z</time>
      </trkpt>
      <trkpt lat="44.58808" lon="1.45603">
        <ele>262</ele>
        <time>2017-09-23T08:55:20Z</time>
      </trkpt>
      <trkpt lat="44.58797" lon="1.45597">
        <ele>263</ele>
        <time>2017-09-23T08:55:28Z</time>
      </trkpt>
      <trkpt lat="44.58791" lon="1.45596">
        <ele>263</ele>
        <time>2017-09-23T08:55:34Z</time>
      </trkpt>
      <trkpt lat="44.58774" lon="1.45584">
        <ele>263</ele>
        <time>2017-09-23T08:55:50Z</time>
      </trkpt>
      <trkpt lat="44.58769" lon="1.45581">
        <ele>258</ele>
        <time>2017-09-23T08:55:55Z</time>
      </trkpt>
      <trkpt lat="44.58747" lon="1.4557">
        <ele>262</ele>
        <time>2017-09-23T08:56:19Z</time>
      </trkpt>
      <trkpt lat="44.58742" lon="1.45564">
        <ele>262</ele>
        <time>2017-09-23T08:56:24Z</time>
      </trkpt>
      <trkpt lat="44.58712" lon="1.45548">
        <ele>264</ele>
        <time>2017-09-23T08:56:49Z</time>
      </trkpt>
      <trkpt lat="44.58703" lon="1.45545">
        <ele>264</ele>
        <time>2017-09-23T08:56:59Z</time>
      </trkpt>
      <trkpt lat="44.58697" lon="1.45544">
        <ele>264</ele>
        <time>2017-09-23T08:57:04Z</time>
      </trkpt>
      <trkpt lat="44.58689" lon="1.45538">
        <ele>264</ele>
        <time>2017-09-23T08:57:14Z</time>
      </trkpt>
      <trkpt lat="44.58679" lon="1.4552">
        <ele>263</ele>
        <time>2017-09-23T08:57:23Z</time>
      </trkpt>
      <trkpt lat="44.58675" lon="1.45509">
        <ele>261</ele>
        <time>2017-09-23T08:57:29Z</time>
      </trkpt>
      <trkpt lat="44.58672" lon="1.45504">
        <ele>261</ele>
        <time>2017-09-23T08:57:32Z</time>
      </trkpt>
      <trkpt lat="44.5867" lon="1.45499">
        <ele>259</ele>
        <time>2017-09-23T08:57:36Z</time>
      </trkpt>
      <trkpt lat="44.58651" lon="1.45444">
        <ele>261</ele>
        <time>2017-09-23T08:58:06Z</time>
      </trkpt>
      <trkpt lat="44.58648" lon="1.45437">
        <ele>260</ele>
        <time>2017-09-23T08:58:10Z</time>
      </trkpt>
      <trkpt lat="44.58638" lon="1.45418">
        <ele>261</ele>
        <time>2017-09-23T08:58:22Z</time>
      </trkpt>
      <trkpt lat="44.58636" lon="1.45411">
        <ele>257</ele>
        <time>2017-09-23T08:58:26Z</time>
      </trkpt>
      <trkpt lat="44.58633" lon="1.45406">
        <ele>258</ele>
        <time>2017-09-23T08:58:31Z</time>
      </trkpt>
      <trkpt lat="44.58625" lon="1.45394">
        <ele>258</ele>
        <time>2017-09-23T08:58:39Z</time>
      </trkpt>
      <trkpt lat="44.58621" lon="1.45389">
        <ele>259</ele>
        <time>2017-09-23T08:58:43Z</time>
      </trkpt>
      <trkpt lat="44.5859" lon="1.45357">
        <ele>259</ele>
        <time>2017-09-23T08:59:11Z</time>
      </trkpt>
      <trkpt lat="44.58587" lon="1.45352">
        <ele>259</ele>
        <time>2017-09-23T08:59:15Z</time>
      </trkpt>
      <trkpt lat="44.58576" lon="1.45333">
        <ele>261</ele>
        <time>2017-09-23T08:59:26Z</time>
      </trkpt>
      <trkpt lat="44.58574" lon="1.45327">
        <ele>262</ele>
        <time>2017-09-23T08:59:57Z</time>
      </trkpt>
      <trkpt lat="44.58572" lon="1.4532">
        <ele>263</ele>
        <time>2017-09-23T09:00:04Z</time>
      </trkpt>
      <trkpt lat="44.5857" lon="1.45314">
        <ele>264</ele>
        <time>2017-09-23T09:00:08Z</time>
      </trkpt>
      <trkpt lat="44.58562" lon="1.45285">
        <ele>264</ele>
        <time>2017-09-23T09:00:25Z</time>
      </trkpt>
      <trkpt lat="44.58559" lon="1.45279">
        <ele>263</ele>
        <time>2017-09-23T09:00:29Z</time>
      </trkpt>
      <trkpt lat="44.58552" lon="1.45256">
        <ele>263</ele>
        <time>2017-09-23T09:00:42Z</time>
      </trkpt>
      <trkpt lat="44.5855" lon="1.45239">
        <ele>257</ele>
        <time>2017-09-23T09:00:54Z</time>
      </trkpt>
      <trkpt lat="44.5855" lon="1.45231">
        <ele>256</ele>
        <time>2017-09-23T09:00:57Z</time>
      </trkpt>
      <trkpt lat="44.58548" lon="1.45224">
        <ele>256</ele>
        <time>2017-09-23T09:01:01Z</time>
      </trkpt>
      <trkpt lat="44.5855" lon="1.45218">
        <ele>256</ele>
        <time>2017-09-23T09:01:04Z</time>
      </trkpt>
      <trkpt lat="44.58552" lon="1.45213">
        <ele>256</ele>
        <time>2017-09-23T09:01:07Z</time>
      </trkpt>
      <trkpt lat="44.58555" lon="1.45208">
        <ele>255</ele>
        <time>2017-09-23T09:01:11Z</time>
      </trkpt>
      <trkpt lat="44.58558" lon="1.45202">
        <ele>255</ele>
        <time>2017-09-23T09:01:15Z</time>
      </trkpt>
      <trkpt lat="44.58559" lon="1.45194">
        <ele>254</ele>
        <time>2017-09-23T09:01:21Z</time>
      </trkpt>
      <trkpt lat="44.58557" lon="1.45187">
        <ele>254</ele>
        <time>2017-09-23T09:01:24Z</time>
      </trkpt>
      <trkpt lat="44.58554" lon="1.45181">
        <ele>254</ele>
        <time>2017-09-23T09:01:27Z</time>
      </trkpt>
      <trkpt lat="44.58537" lon="1.45166">
        <ele>250</ele>
        <time>2017-09-23T09:01:41Z</time>
      </trkpt>
      <trkpt lat="44.58529" lon="1.45157">
        <ele>250</ele>
        <time>2017-09-23T09:01:49Z</time>
      </trkpt>
      <trkpt lat="44.58524" lon="1.45153">
        <ele>251</ele>
        <time>2017-09-23T09:01:53Z</time>
      </trkpt>
      <trkpt lat="44.58516" lon="1.45145">
        <ele>251</ele>
        <time>2017-09-23T09:02:00Z</time>
      </trkpt>
      <trkpt lat="44.58497" lon="1.45127">
        <ele>252</ele>
        <time>2017-09-23T09:02:18Z</time>
      </trkpt>
      <trkpt lat="44.58494" lon="1.45123">
        <ele>252</ele>
        <time>2017-09-23T09:02:21Z</time>
      </trkpt>
      <trkpt lat="44.58461" lon="1.45079">
        <ele>248</ele>
        <time>2017-09-23T09:02:52Z</time>
      </trkpt>
      <trkpt lat="44.58439" lon="1.45046">
        <ele>248</ele>
        <time>2017-09-23T09:03:17Z</time>
      </trkpt>
      <trkpt lat="44.58434" lon="1.45038">
        <ele>248</ele>
        <time>2017-09-23T09:03:23Z</time>
      </trkpt>
      <trkpt lat="44.58425" lon="1.45023">
        <ele>247</ele>
        <time>2017-09-23T09:03:33Z</time>
      </trkpt>
      <trkpt lat="44.58422" lon="1.45019">
        <ele>247</ele>
        <time>2017-09-23T09:03:36Z</time>
      </trkpt>
      <trkpt lat="44.58418" lon="1.45014">
        <ele>247</ele>
        <time>2017-09-23T09:03:40Z</time>
      </trkpt>
      <trkpt lat="44.58416" lon="1.45009">
        <ele>249</ele>
        <time>2017-09-23T09:03:45Z</time>
      </trkpt>
      <trkpt lat="44.5841" lon="1.45001">
        <ele>248</ele>
        <time>2017-09-23T09:03:51Z</time>
      </trkpt>
      <trkpt lat="44.58408" lon="1.44995">
        <ele>247</ele>
        <time>2017-09-23T09:03:55Z</time>
      </trkpt>
      <trkpt lat="44.584" lon="1.44986">
        <ele>247</ele>
        <time>2017-09-23T09:04:04Z</time>
      </trkpt>
      <trkpt lat="44.58398" lon="1.44981">
        <ele>248</ele>
        <time>2017-09-23T09:04:09Z</time>
      </trkpt>
      <trkpt lat="44.58373" lon="1.44942">
        <ele>248</ele>
        <time>2017-09-23T09:04:40Z</time>
      </trkpt>
      <trkpt lat="44.58372" lon="1.44936">
        <ele>247</ele>
        <time>2017-09-23T09:04:43Z</time>
      </trkpt>
      <trkpt lat="44.58374" lon="1.44932">
        <ele>247</ele>
        <time>2017-09-23T09:04:47Z</time>
      </trkpt>
      <trkpt lat="44.58382" lon="1.44927">
        <ele>247</ele>
        <time>2017-09-23T09:04:55Z</time>
      </trkpt>
      <trkpt lat="44.58386" lon="1.44923">
        <ele>247</ele>
        <time>2017-09-23T09:05:01Z</time>
      </trkpt>
      <trkpt lat="44.5839" lon="1.44921">
        <ele>247</ele>
        <time>2017-09-23T09:05:05Z</time>
      </trkpt>
      <trkpt lat="44.58425" lon="1.44892">
        <ele>248</ele>
        <time>2017-09-23T09:05:35Z</time>
      </trkpt>
      <trkpt lat="44.58449" lon="1.4486">
        <ele>250</ele>
        <time>2017-09-23T09:06:02Z</time>
      </trkpt>
      <trkpt lat="44.58452" lon="1.44858">
        <ele>251</ele>
        <time>2017-09-23T09:06:06Z</time>
      </trkpt>
      <trkpt lat="44.58459" lon="1.44847">
        <ele>251</ele>
        <time>2017-09-23T09:06:14Z</time>
      </trkpt>
      <trkpt lat="44.58464" lon="1.44836">
        <ele>252</ele>
        <time>2017-09-23T09:06:22Z</time>
      </trkpt>
      <trkpt lat="44.58463" lon="1.4483">
        <ele>256</ele>
        <time>2017-09-23T09:06:26Z</time>
      </trkpt>
      <trkpt lat="44.58461" lon="1.44828">
        <ele>255</ele>
        <time>2017-09-23T09:06:42Z</time>
      </trkpt>
      <trkpt lat="44.58451" lon="1.44818">
        <ele>254</ele>
        <time>2017-09-23T09:06:53Z</time>
      </trkpt>
      <trkpt lat="44.58449" lon="1.44816">
        <ele>254</ele>
        <time>2017-09-23T09:06:55Z</time>
      </trkpt>
      <trkpt lat="44.58447" lon="1.44815">
        <ele>254</ele>
        <time>2017-09-23T09:06:57Z</time>
      </trkpt>
      <trkpt lat="44.5844" lon="1.44809">
        <ele>254</ele>
        <time>2017-09-23T09:07:04Z</time>
      </trkpt>
      <trkpt lat="44.58432" lon="1.44799">
        <ele>253</ele>
        <time>2017-09-23T09:07:13Z</time>
      </trkpt>
      <trkpt lat="44.58429" lon="1.44796">
        <ele>253</ele>
        <time>2017-09-23T09:07:16Z</time>
      </trkpt>
      <trkpt lat="44.58418" lon="1.44785">
        <ele>253</ele>
        <time>2017-09-23T09:07:26Z</time>
      </trkpt>
      <trkpt lat="44.58412" lon="1.44779">
        <ele>247</ele>
        <time>2017-09-23T09:07:34Z</time>
      </trkpt>
      <trkpt lat="44.58408" lon="1.44776">
        <ele>248</ele>
        <time>2017-09-23T09:07:38Z</time>
      </trkpt>
      <trkpt lat="44.58383" lon="1.44745">
        <ele>248</ele>
        <time>2017-09-23T09:08:04Z</time>
      </trkpt>
      <trkpt lat="44.58368" lon="1.44722">
        <ele>247</ele>
        <time>2017-09-23T09:08:21Z</time>
      </trkpt>
      <trkpt lat="44.58362" lon="1.44701">
        <ele>247</ele>
        <time>2017-09-23T09:08:33Z</time>
      </trkpt>
      <trkpt lat="44.5836" lon="1.44691">
        <ele>246</ele>
        <time>2017-09-23T09:08:38Z</time>
      </trkpt>
      <trkpt lat="44.58357" lon="1.44676">
        <ele>246</ele>
        <time>2017-09-23T09:08:46Z</time>
      </trkpt>
      <trkpt lat="44.58357" lon="1.44672">
        <ele>246</ele>
        <time>2017-09-23T09:08:48Z</time>
      </trkpt>
      <trkpt lat="44.5835" lon="1.44629">
        <ele>246</ele>
        <time>2017-09-23T09:09:11Z</time>
      </trkpt>
      <trkpt lat="44.58348" lon="1.44606">
        <ele>246</ele>
        <time>2017-09-23T09:09:23Z</time>
      </trkpt>
      <trkpt lat="44.58349" lon="1.44601">
        <ele>246</ele>
        <time>2017-09-23T09:09:28Z</time>
      </trkpt>
      <trkpt lat="44.58348" lon="1.44596">
        <ele>245</ele>
        <time>2017-09-23T09:09:34Z</time>
      </trkpt>
      <trkpt lat="44.58348" lon="1.44579">
        <ele>245</ele>
        <time>2017-09-23T09:09:43Z</time>
      </trkpt>
      <trkpt lat="44.58349" lon="1.44568">
        <ele>246</ele>
        <time>2017-09-23T09:09:49Z</time>
      </trkpt>
      <trkpt lat="44.5835" lon="1.44541">
        <ele>247</ele>
        <time>2017-09-23T09:10:03Z</time>
      </trkpt>
      <trkpt lat="44.5835" lon="1.44524">
        <ele>247</ele>
        <time>2017-09-23T09:10:13Z</time>
      </trkpt>
      <trkpt lat="44.5835" lon="1.44502">
        <ele>246</ele>
        <time>2017-09-23T09:10:26Z</time>
      </trkpt>
      <trkpt lat="44.5835" lon="1.44486">
        <ele>246</ele>
        <time>2017-09-23T09:10:35Z</time>
      </trkpt>
      <trkpt lat="44.5835" lon="1.44482">
        <ele>246</ele>
        <time>2017-09-23T09:10:37Z</time>
      </trkpt>
      <trkpt lat="44.58349" lon="1.44434">
        <ele>245</ele>
        <time>2017-09-23T09:11:03Z</time>
      </trkpt>
      <trkpt lat="44.58349" lon="1.44429">
        <ele>245</ele>
        <time>2017-09-23T09:11:06Z</time>
      </trkpt>
      <trkpt lat="44.58346" lon="1.44412">
        <ele>244</ele>
        <time>2017-09-23T09:11:15Z</time>
      </trkpt>
      <trkpt lat="44.58337" lon="1.44374">
        <ele>245</ele>
        <time>2017-09-23T09:11:37Z</time>
      </trkpt>
      <trkpt lat="44.58336" lon="1.44346">
        <ele>243</ele>
        <time>2017-09-23T09:11:59Z</time>
      </trkpt>
      <trkpt lat="44.58337" lon="1.44342">
        <ele>242</ele>
        <time>2017-09-23T09:12:02Z</time>
      </trkpt>
      <trkpt lat="44.58337" lon="1.44332">
        <ele>241</ele>
        <time>2017-09-23T09:12:07Z</time>
      </trkpt>
      <trkpt lat="44.58344" lon="1.44283">
        <ele>244</ele>
        <time>2017-09-23T09:12:37Z</time>
      </trkpt>
      <trkpt lat="44.58347" lon="1.44266">
        <ele>244</ele>
        <time>2017-09-23T09:12:47Z</time>
      </trkpt>
      <trkpt lat="44.58349" lon="1.44254">
        <ele>243</ele>
        <time>2017-09-23T09:12:53Z</time>
      </trkpt>
      <trkpt lat="44.5836" lon="1.44206">
        <ele>243</ele>
        <time>2017-09-23T09:13:24Z</time>
      </trkpt>
      <trkpt lat="44.58364" lon="1.44194">
        <ele>243</ele>
        <time>2017-09-23T09:13:32Z</time>
      </trkpt>
      <trkpt lat="44.58365" lon="1.44188">
        <ele>243</ele>
        <time>2017-09-23T09:13:36Z</time>
      </trkpt>
      <trkpt lat="44.58372" lon="1.4416">
        <ele>242</ele>
        <time>2017-09-23T09:13:54Z</time>
      </trkpt>
      <trkpt lat="44.58384" lon="1.44117">
        <ele>243</ele>
        <time>2017-09-23T09:14:23Z</time>
      </trkpt>
      <trkpt lat="44.58384" lon="1.44105">
        <ele>243</ele>
        <time>2017-09-23T09:14:30Z</time>
      </trkpt>
      <trkpt lat="44.58385" lon="1.4409">
        <ele>243</ele>
        <time>2017-09-23T09:14:37Z</time>
      </trkpt>
      <trkpt lat="44.58385" lon="1.44085">
        <ele>243</ele>
        <time>2017-09-23T09:14:40Z</time>
      </trkpt>
      <trkpt lat="44.58384" lon="1.44078">
        <ele>242</ele>
        <time>2017-09-23T09:14:43Z</time>
      </trkpt>
      <trkpt lat="44.58383" lon="1.44057">
        <ele>242</ele>
        <time>2017-09-23T09:14:54Z</time>
      </trkpt>
      <trkpt lat="44.58383" lon="1.44052">
        <ele>241</ele>
        <time>2017-09-23T09:14:57Z</time>
      </trkpt>
      <trkpt lat="44.58383" lon="1.44047">
        <ele>241</ele>
        <time>2017-09-23T09:15:00Z</time>
      </trkpt>
      <trkpt lat="44.58382" lon="1.44029">
        <ele>241</ele>
        <time>2017-09-23T09:15:10Z</time>
      </trkpt>
      <trkpt lat="44.58385" lon="1.43977">
        <ele>241</ele>
        <time>2017-09-23T09:15:39Z</time>
      </trkpt>
      <trkpt lat="44.58388" lon="1.43961">
        <ele>241</ele>
        <time>2017-09-23T09:15:48Z</time>
      </trkpt>
      <trkpt lat="44.5839" lon="1.43953">
        <ele>241</ele>
        <time>2017-09-23T09:15:53Z</time>
      </trkpt>
      <trkpt lat="44.58395" lon="1.43931">
        <ele>241</ele>
        <time>2017-09-23T09:16:06Z</time>
      </trkpt>
      <trkpt lat="44.58397" lon="1.43909">
        <ele>241</ele>
        <time>2017-09-23T09:16:18Z</time>
      </trkpt>
      <trkpt lat="44.584" lon="1.43879">
        <ele>240</ele>
        <time>2017-09-23T09:16:35Z</time>
      </trkpt>
      <trkpt lat="44.58401" lon="1.43869">
        <ele>240</ele>
        <time>2017-09-23T09:16:41Z</time>
      </trkpt>
      <trkpt lat="44.584" lon="1.43834">
        <ele>241</ele>
        <time>2017-09-23T09:17:00Z</time>
      </trkpt>
      <trkpt lat="44.58389" lon="1.43783">
        <ele>238</ele>
        <time>2017-09-23T09:17:32Z</time>
      </trkpt>
      <trkpt lat="44.58387" lon="1.43768">
        <ele>238</ele>
        <time>2017-09-23T09:17:42Z</time>
      </trkpt>
      <trkpt lat="44.58384" lon="1.43757">
        <ele>238</ele>
        <time>2017-09-23T09:17:48Z</time>
      </trkpt>
      <trkpt lat="44.58372" lon="1.43703">
        <ele>237</ele>
        <time>2017-09-23T09:18:20Z</time>
      </trkpt>
      <trkpt lat="44.58368" lon="1.43681">
        <ele>237</ele>
        <time>2017-09-23T09:18:35Z</time>
      </trkpt>
      <trkpt lat="44.58365" lon="1.43663">
        <ele>237</ele>
        <time>2017-09-23T09:18:45Z</time>
      </trkpt>
      <trkpt lat="44.58364" lon="1.43658">
        <ele>237</ele>
        <time>2017-09-23T09:18:49Z</time>
      </trkpt>
      <trkpt lat="44.58362" lon="1.43648">
        <ele>237</ele>
        <time>2017-09-23T09:18:57Z</time>
      </trkpt>
      <trkpt lat="44.58353" lon="1.43609">
        <ele>237</ele>
        <time>2017-09-23T09:19:20Z</time>
      </trkpt>
      <trkpt lat="44.58351" lon="1.43594">
        <ele>237</ele>
        <time>2017-09-23T09:19:30Z</time>
      </trkpt>
      <trkpt lat="44.58348" lon="1.43589">
        <ele>236</ele>
        <time>2017-09-23T09:19:34Z</time>
      </trkpt>
      <trkpt lat="44.58346" lon="1.43581">
        <ele>236</ele>
        <time>2017-09-23T09:19:39Z</time>
      </trkpt>
      <trkpt lat="44.58339" lon="1.43544">
        <ele>237</ele>
        <time>2017-09-23T09:20:00Z</time>
      </trkpt>
      <trkpt lat="44.58336" lon="1.43537">
        <ele>237</ele>
        <time>2017-09-23T09:20:05Z</time>
      </trkpt>
      <trkpt lat="44.58332" lon="1.4352">
        <ele>235</ele>
        <time>2017-09-23T09:20:15Z</time>
      </trkpt>
      <trkpt lat="44.58333" lon="1.43511">
        <ele>235</ele>
        <time>2017-09-23T09:20:26Z</time>
      </trkpt>
      <trkpt lat="44.58336" lon="1.43508">
        <ele>235</ele>
        <time>2017-09-23T09:21:20Z</time>
      </trkpt>
      <trkpt lat="44.58338" lon="1.43503">
        <ele>235</ele>
        <time>2017-09-23T09:22:40Z</time>
      </trkpt>
      <trkpt lat="44.58337" lon="1.43491">
        <ele>235</ele>
        <time>2017-09-23T09:22:47Z</time>
      </trkpt>
      <trkpt lat="44.58337" lon="1.43485">
        <ele>236</ele>
        <time>2017-09-23T09:22:50Z</time>
      </trkpt>
      <trkpt lat="44.58335" lon="1.43482">
        <ele>236</ele>
        <time>2017-09-23T09:22:52Z</time>
      </trkpt>
      <trkpt lat="44.58331" lon="1.43476">
        <ele>235</ele>
        <time>2017-09-23T09:22:57Z</time>
      </trkpt>
      <trkpt lat="44.5833" lon="1.43472">
        <ele>235</ele>
        <time>2017-09-23T09:22:59Z</time>
      </trkpt>
      <trkpt lat="44.58328" lon="1.43469">
        <ele>235</ele>
        <time>2017-09-23T09:23:01Z</time>
      </trkpt>
      <trkpt lat="44.58327" lon="1.43466">
        <ele>235</ele>
        <time>2017-09-23T09:23:03Z</time>
      </trkpt>
      <trkpt lat="44.58326" lon="1.43459">
        <ele>235</ele>
        <time>2017-09-23T09:23:07Z</time>
      </trkpt>
      <trkpt lat="44.58326" lon="1.43455">
        <ele>235</ele>
        <time>2017-09-23T09:23:09Z</time>
      </trkpt>
      <trkpt lat="44.58326" lon="1.4345">
        <ele>235</ele>
        <time>2017-09-23T09:23:12Z</time>
      </trkpt>
      <trkpt lat="44.58327" lon="1.4343">
        <ele>235</ele>
        <time>2017-09-23T09:23:22Z</time>
      </trkpt>
      <trkpt lat="44.58328" lon="1.43425">
        <ele>235</ele>
        <time>2017-09-23T09:23:25Z</time>
      </trkpt>
      <trkpt lat="44.58327" lon="1.43421">
        <ele>235</ele>
        <time>2017-09-23T09:23:27Z</time>
      </trkpt>
      <trkpt lat="44.58323" lon="1.434">
        <ele>234</ele>
        <time>2017-09-23T09:23:39Z</time>
      </trkpt>
      <trkpt lat="44.58322" lon="1.43393">
        <ele>234</ele>
        <time>2017-09-23T09:23:43Z</time>
      </trkpt>
      <trkpt lat="44.5832" lon="1.43386">
        <ele>234</ele>
        <time>2017-09-23T09:23:48Z</time>
      </trkpt>
      <trkpt lat="44.58318" lon="1.43383">
        <ele>234</ele>
        <time>2017-09-23T09:23:50Z</time>
      </trkpt>
      <trkpt lat="44.58314" lon="1.43379">
        <ele>234</ele>
        <time>2017-09-23T09:23:54Z</time>
      </trkpt>
      <trkpt lat="44.58312" lon="1.43377">
        <ele>234</ele>
        <time>2017-09-23T09:23:56Z</time>
      </trkpt>
      <trkpt lat="44.58301" lon="1.43361">
        <ele>234</ele>
        <time>2017-09-23T09:24:08Z</time>
      </trkpt>
      <trkpt lat="44.58298" lon="1.43357">
        <ele>234</ele>
        <time>2017-09-23T09:24:11Z</time>
      </trkpt>
      <trkpt lat="44.58296" lon="1.43349">
        <ele>234</ele>
        <time>2017-09-23T09:24:15Z</time>
      </trkpt>
      <trkpt lat="44.58286" lon="1.43328">
        <ele>234</ele>
        <time>2017-09-23T09:24:28Z</time>
      </trkpt>
      <trkpt lat="44.58284" lon="1.43325">
        <ele>234</ele>
        <time>2017-09-23T09:24:30Z</time>
      </trkpt>
      <trkpt lat="44.58282" lon="1.43323">
        <ele>234</ele>
        <time>2017-09-23T09:24:32Z</time>
      </trkpt>
      <trkpt lat="44.58279" lon="1.43322">
        <ele>234</ele>
        <time>2017-09-23T09:24:35Z</time>
      </trkpt>
      <trkpt lat="44.5827" lon="1.43331">
        <ele>234</ele>
        <time>2017-09-23T09:24:43Z</time>
      </trkpt>
      <trkpt lat="44.58268" lon="1.43332">
        <ele>234</ele>
        <time>2017-09-23T09:24:45Z</time>
      </trkpt>
      <trkpt lat="44.58261" lon="1.43339">
        <ele>234</ele>
        <time>2017-09-23T09:24:51Z</time>
      </trkpt>
      <trkpt lat="44.58259" lon="1.43342">
        <ele>234</ele>
        <time>2017-09-23T09:24:53Z</time>
      </trkpt>
      <trkpt lat="44.58249" lon="1.43346">
        <ele>235</ele>
        <time>2017-09-23T09:25:01Z</time>
      </trkpt>
      <trkpt lat="44.58238" lon="1.43346">
        <ele>235</ele>
        <time>2017-09-23T09:25:09Z</time>
      </trkpt>
      <trkpt lat="44.58236" lon="1.43345">
        <ele>235</ele>
        <time>2017-09-23T09:25:11Z</time>
      </trkpt>
      <trkpt lat="44.58232" lon="1.43343">
        <ele>235</ele>
        <time>2017-09-23T09:25:15Z</time>
      </trkpt>
      <trkpt lat="44.58217" lon="1.43325">
        <ele>234</ele>
        <time>2017-09-23T09:25:29Z</time>
      </trkpt>
      <trkpt lat="44.58215" lon="1.43323">
        <ele>234</ele>
        <time>2017-09-23T09:25:31Z</time>
      </trkpt>
      <trkpt lat="44.58213" lon="1.43321">
        <ele>234</ele>
        <time>2017-09-23T09:25:33Z</time>
      </trkpt>
      <trkpt lat="44.58209" lon="1.43315">
        <ele>234</ele>
        <time>2017-09-23T09:25:37Z</time>
      </trkpt>
      <trkpt lat="44.58206" lon="1.43308">
        <ele>234</ele>
        <time>2017-09-23T09:25:42Z</time>
      </trkpt>
      <trkpt lat="44.58206" lon="1.43305">
        <ele>233</ele>
        <time>2017-09-23T09:25:44Z</time>
      </trkpt>
      <trkpt lat="44.58204" lon="1.43302">
        <ele>233</ele>
        <time>2017-09-23T09:26:07Z</time>
      </trkpt>
      <trkpt lat="44.582" lon="1.4329">
        <ele>233</ele>
        <time>2017-09-23T09:26:13Z</time>
      </trkpt>
      <trkpt lat="44.58194" lon="1.43278">
        <ele>233</ele>
        <time>2017-09-23T09:26:21Z</time>
      </trkpt>
      <trkpt lat="44.58167" lon="1.43237">
        <ele>232</ele>
        <time>2017-09-23T09:26:51Z</time>
      </trkpt>
      <trkpt lat="44.58149" lon="1.43209">
        <ele>232</ele>
        <time>2017-09-23T09:27:11Z</time>
      </trkpt>
      <trkpt lat="44.58146" lon="1.43202">
        <ele>232</ele>
        <time>2017-09-23T09:27:15Z</time>
      </trkpt>
      <trkpt lat="44.58126" lon="1.43162">
        <ele>230</ele>
        <time>2017-09-23T09:27:41Z</time>
      </trkpt>
      <trkpt lat="44.58124" lon="1.43158">
        <ele>230</ele>
        <time>2017-09-23T09:27:43Z</time>
      </trkpt>
      <trkpt lat="44.581" lon="1.43112">
        <ele>230</ele>
        <time>2017-09-23T09:28:13Z</time>
      </trkpt>
      <trkpt lat="44.58089" lon="1.43078">
        <ele>229</ele>
        <time>2017-09-23T09:28:34Z</time>
      </trkpt>
      <trkpt lat="44.58087" lon="1.43074">
        <ele>229</ele>
        <time>2017-09-23T09:28:38Z</time>
      </trkpt>
      <trkpt lat="44.58084" lon="1.43068">
        <ele>229</ele>
        <time>2017-09-23T09:28:45Z</time>
      </trkpt>
      <trkpt lat="44.58068" lon="1.43035">
        <ele>229</ele>
        <time>2017-09-23T09:29:07Z</time>
      </trkpt>
      <trkpt lat="44.58065" lon="1.43032">
        <ele>229</ele>
        <time>2017-09-23T09:29:29Z</time>
      </trkpt>
      <trkpt lat="44.58062" lon="1.43028">
        <ele>229</ele>
        <time>2017-09-23T09:29:33Z</time>
      </trkpt>
      <trkpt lat="44.58059" lon="1.43025">
        <ele>229</ele>
        <time>2017-09-23T09:29:35Z</time>
      </trkpt>
      <trkpt lat="44.58041" lon="1.43001">
        <ele>229</ele>
        <time>2017-09-23T09:29:53Z</time>
      </trkpt>
      <trkpt lat="44.58035" lon="1.42994">
        <ele>228</ele>
        <time>2017-09-23T09:29:59Z</time>
      </trkpt>
      <trkpt lat="44.58032" lon="1.42991">
        <ele>228</ele>
        <time>2017-09-23T09:30:03Z</time>
      </trkpt>
      <trkpt lat="44.58027" lon="1.42988">
        <ele>228</ele>
        <time>2017-09-23T09:30:07Z</time>
      </trkpt>
      <trkpt lat="44.58024" lon="1.42983">
        <ele>228</ele>
        <time>2017-09-23T09:30:10Z</time>
      </trkpt>
      <trkpt lat="44.58007" lon="1.4297">
        <ele>228</ele>
        <time>2017-09-23T09:30:26Z</time>
      </trkpt>
      <trkpt lat="44.57981" lon="1.42942">
        <ele>228</ele>
        <time>2017-09-23T09:30:50Z</time>
      </trkpt>
      <trkpt lat="44.57977" lon="1.42939">
        <ele>228</ele>
        <time>2017-09-23T09:30:53Z</time>
      </trkpt>
      <trkpt lat="44.57974" lon="1.42934">
        <ele>228</ele>
        <time>2017-09-23T09:30:57Z</time>
      </trkpt>
      <trkpt lat="44.57959" lon="1.4292">
        <ele>228</ele>
        <time>2017-09-23T09:31:11Z</time>
      </trkpt>
      <trkpt lat="44.57954" lon="1.42916">
        <ele>227</ele>
        <time>2017-09-23T09:31:16Z</time>
      </trkpt>
      <trkpt lat="44.5795" lon="1.42912">
        <ele>227</ele>
        <time>2017-09-23T09:31:21Z</time>
      </trkpt>
      <trkpt lat="44.57943" lon="1.42908">
        <ele>227</ele>
        <time>2017-09-23T09:31:27Z</time>
      </trkpt>
      <trkpt lat="44.57932" lon="1.42896">
        <ele>227</ele>
        <time>2017-09-23T09:31:36Z</time>
      </trkpt>
      <trkpt lat="44.57926" lon="1.42893">
        <ele>227</ele>
        <time>2017-09-23T09:31:40Z</time>
      </trkpt>
      <trkpt lat="44.57889" lon="1.42853">
        <ele>226</ele>
        <time>2017-09-23T09:32:11Z</time>
      </trkpt>
      <trkpt lat="44.57874" lon="1.42845">
        <ele>226</ele>
        <time>2017-09-23T09:32:22Z</time>
      </trkpt>
      <trkpt lat="44.57872" lon="1.42842">
        <ele>226</ele>
        <time>2017-09-23T09:32:24Z</time>
      </trkpt>
      <trkpt lat="44.5787" lon="1.4284">
        <ele>226</ele>
        <time>2017-09-23T09:32:26Z</time>
      </trkpt>
      <trkpt lat="44.57868" lon="1.42838">
        <ele>226</ele>
        <time>2017-09-23T09:32:28Z</time>
      </trkpt>
      <trkpt lat="44.57867" lon="1.42835">
        <ele>226</ele>
        <time>2017-09-23T09:32:31Z</time>
      </trkpt>
      <trkpt lat="44.57861" lon="1.42826">
        <ele>226</ele>
        <time>2017-09-23T09:32:37Z</time>
      </trkpt>
      <trkpt lat="44.57836" lon="1.42802">
        <ele>226</ele>
        <time>2017-09-23T09:32:59Z</time>
      </trkpt>
      <trkpt lat="44.57813" lon="1.42787">
        <ele>226</ele>
        <time>2017-09-23T09:33:17Z</time>
      </trkpt>
      <trkpt lat="44.57811" lon="1.42785">
        <ele>226</ele>
        <time>2017-09-23T09:33:20Z</time>
      </trkpt>
      <trkpt lat="44.57808" lon="1.42782">
        <ele>226</ele>
        <time>2017-09-23T09:33:22Z</time>
      </trkpt>
      <trkpt lat="44.57776" lon="1.42741">
        <ele>225</ele>
        <time>2017-09-23T09:33:53Z</time>
      </trkpt>
      <trkpt lat="44.57759" lon="1.42719">
        <ele>224</ele>
        <time>2017-09-23T09:34:09Z</time>
      </trkpt>
      <trkpt lat="44.57757" lon="1.42716">
        <ele>224</ele>
        <time>2017-09-23T09:34:11Z</time>
      </trkpt>
      <trkpt lat="44.57752" lon="1.42692">
        <ele>224</ele>
        <time>2017-09-23T09:34:24Z</time>
      </trkpt>
      <trkpt lat="44.57752" lon="1.42688">
        <ele>224</ele>
        <time>2017-09-23T09:34:26Z</time>
      </trkpt>
      <trkpt lat="44.57752" lon="1.42684">
        <ele>224</ele>
        <time>2017-09-23T09:34:28Z</time>
      </trkpt>
      <trkpt lat="44.57749" lon="1.42673">
        <ele>224</ele>
        <time>2017-09-23T09:34:34Z</time>
      </trkpt>
      <trkpt lat="44.57736" lon="1.4264">
        <ele>223</ele>
        <time>2017-09-23T09:34:54Z</time>
      </trkpt>
      <trkpt lat="44.57732" lon="1.42635">
        <ele>223</ele>
        <time>2017-09-23T09:34:58Z</time>
      </trkpt>
      <trkpt lat="44.57727" lon="1.42626">
        <ele>223</ele>
        <time>2017-09-23T09:35:04Z</time>
      </trkpt>
      <trkpt lat="44.57726" lon="1.42623">
        <ele>223</ele>
        <time>2017-09-23T09:35:06Z</time>
      </trkpt>
      <trkpt lat="44.57725" lon="1.4262">
        <ele>223</ele>
        <time>2017-09-23T09:35:08Z</time>
      </trkpt>
      <trkpt lat="44.57717" lon="1.42603">
        <ele>223</ele>
        <time>2017-09-23T09:35:19Z</time>
      </trkpt>
      <trkpt lat="44.57714" lon="1.42598">
        <ele>223</ele>
        <time>2017-09-23T09:35:22Z</time>
      </trkpt>
      <trkpt lat="44.57711" lon="1.42594">
        <ele>223</ele>
        <time>2017-09-23T09:35:27Z</time>
      </trkpt>
      <trkpt lat="44.57709" lon="1.42588">
        <ele>223</ele>
        <time>2017-09-23T09:35:32Z</time>
      </trkpt>
      <trkpt lat="44.57706" lon="1.42582">
        <ele>222</ele>
        <time>2017-09-23T09:35:37Z</time>
      </trkpt>
      <trkpt lat="44.57701" lon="1.42575">
        <ele>222</ele>
        <time>2017-09-23T09:35:42Z</time>
      </trkpt>
      <trkpt lat="44.57682" lon="1.42541">
        <ele>222</ele>
        <time>2017-09-23T09:36:08Z</time>
      </trkpt>
      <trkpt lat="44.57677" lon="1.42533">
        <ele>222</ele>
        <time>2017-09-23T09:36:13Z</time>
      </trkpt>
      <trkpt lat="44.57674" lon="1.42526">
        <ele>222</ele>
        <time>2017-09-23T09:36:18Z</time>
      </trkpt>
      <trkpt lat="44.57668" lon="1.42509">
        <ele>223</ele>
        <time>2017-09-23T09:36:26Z</time>
      </trkpt>
      <trkpt lat="44.57665" lon="1.42501">
        <ele>223</ele>
        <time>2017-09-23T09:36:31Z</time>
      </trkpt>
      <trkpt lat="44.57664" lon="1.42493">
        <ele>223</ele>
        <time>2017-09-23T09:36:36Z</time>
      </trkpt>
      <trkpt lat="44.5766" lon="1.42485">
        <ele>223</ele>
        <time>2017-09-23T09:36:42Z</time>
      </trkpt>
      <trkpt lat="44.57657" lon="1.42477">
        <ele>223</ele>
        <time>2017-09-23T09:36:46Z</time>
      </trkpt>
      <trkpt lat="44.57618" lon="1.42427">
        <ele>223</ele>
        <time>2017-09-23T09:37:17Z</time>
      </trkpt>
      <trkpt lat="44.5761" lon="1.42416">
        <ele>223</ele>
        <time>2017-09-23T09:37:23Z</time>
      </trkpt>
      <trkpt lat="44.57597" lon="1.42396">
        <ele>223</ele>
        <time>2017-09-23T09:37:35Z</time>
      </trkpt>
      <trkpt lat="44.57586" lon="1.42378">
        <ele>223</ele>
        <time>2017-09-23T09:37:47Z</time>
      </trkpt>
      <trkpt lat="44.57573" lon="1.42362">
        <ele>223</ele>
        <time>2017-09-23T09:37:59Z</time>
      </trkpt>
      <trkpt lat="44.57543" lon="1.42312">
        <ele>222</ele>
        <time>2017-09-23T09:38:32Z</time>
      </trkpt>
      <trkpt lat="44.57515" lon="1.42265">
        <ele>222</ele>
        <time>2017-09-23T09:39:03Z</time>
      </trkpt>
      <trkpt lat="44.57488" lon="1.42211">
        <ele>222</ele>
        <time>2017-09-23T09:39:34Z</time>
      </trkpt>
      <trkpt lat="44.57471" lon="1.42175">
        <ele>222</ele>
        <time>2017-09-23T09:39:58Z</time>
      </trkpt>
      <trkpt lat="44.57469" lon="1.4217">
        <ele>222</ele>
        <time>2017-09-23T09:40:02Z</time>
      </trkpt>
      <trkpt lat="44.57463" lon="1.4216">
        <ele>221</ele>
        <time>2017-09-23T09:40:12Z</time>
      </trkpt>
      <trkpt lat="44.5744" lon="1.4211">
        <ele>221</ele>
        <time>2017-09-23T09:40:41Z</time>
      </trkpt>
      <trkpt lat="44.57433" lon="1.42098">
        <ele>221</ele>
        <time>2017-09-23T09:40:49Z</time>
      </trkpt>
      <trkpt lat="44.5743" lon="1.42093">
        <ele>221</ele>
        <time>2017-09-23T09:40:52Z</time>
      </trkpt>
      <trkpt lat="44.57417" lon="1.42069">
        <ele>220</ele>
        <time>2017-09-23T09:41:10Z</time>
      </trkpt>
      <trkpt lat="44.57414" lon="1.42062">
        <ele>220</ele>
        <time>2017-09-23T09:41:13Z</time>
      </trkpt>
      <trkpt lat="44.57403" lon="1.42048">
        <ele>220</ele>
        <time>2017-09-23T09:41:23Z</time>
      </trkpt>
      <trkpt lat="44.5737" lon="1.42015">
        <ele>220</ele>
        <time>2017-09-23T09:41:54Z</time>
      </trkpt>
      <trkpt lat="44.5736" lon="1.42007">
        <ele>220</ele>
        <time>2017-09-23T09:42:03Z</time>
      </trkpt>
      <trkpt lat="44.57343" lon="1.41995">
        <ele>219</ele>
        <time>2017-09-23T09:42:16Z</time>
      </trkpt>
      <trkpt lat="44.57336" lon="1.41993">
        <ele>220</ele>
        <time>2017-09-23T09:42:20Z</time>
      </trkpt>
      <trkpt lat="44.573" lon="1.41971">
        <ele>220</ele>
        <time>2017-09-23T09:42:49Z</time>
      </trkpt>
      <trkpt lat="44.57287" lon="1.4196">
        <ele>220</ele>
        <time>2017-09-23T09:43:00Z</time>
      </trkpt>
      <trkpt lat="44.57282" lon="1.41958">
        <ele>220</ele>
        <time>2017-09-23T09:43:03Z</time>
      </trkpt>
      <trkpt lat="44.57276" lon="1.41956">
        <ele>220</ele>
        <time>2017-09-23T09:43:07Z</time>
      </trkpt>
      <trkpt lat="44.57256" lon="1.41941">
        <ele>220</ele>
        <time>2017-09-23T09:43:24Z</time>
      </trkpt>
      <trkpt lat="44.57243" lon="1.41929">
        <ele>221</ele>
        <time>2017-09-23T09:43:33Z</time>
      </trkpt>
      <trkpt lat="44.57237" lon="1.41929">
        <ele>221</ele>
        <time>2017-09-23T09:43:37Z</time>
      </trkpt>
      <trkpt lat="44.57214" lon="1.41916">
        <ele>219</ele>
        <time>2017-09-23T09:43:56Z</time>
      </trkpt>
      <trkpt lat="44.57208" lon="1.41911">
        <ele>219</ele>
        <time>2017-09-23T09:44:00Z</time>
      </trkpt>
      <trkpt lat="44.57178" lon="1.419">
        <ele>219</ele>
        <time>2017-09-23T09:44:21Z</time>
      </trkpt>
      <trkpt lat="44.5714" lon="1.4189">
        <ele>221</ele>
        <time>2017-09-23T09:44:50Z</time>
      </trkpt>
      <trkpt lat="44.57135" lon="1.41889">
        <ele>221</ele>
        <time>2017-09-23T09:44:52Z</time>
      </trkpt>
      <trkpt lat="44.57088" lon="1.4188">
        <ele>222</ele>
        <time>2017-09-23T09:45:23Z</time>
      </trkpt>
      <trkpt lat="44.57084" lon="1.4188">
        <ele>222</ele>
        <time>2017-09-23T09:45:26Z</time>
      </trkpt>
      <trkpt lat="44.5708" lon="1.4188">
        <ele>224</ele>
        <time>2017-09-23T09:45:30Z</time>
      </trkpt>
      <trkpt lat="44.57073" lon="1.41878">
        <ele>224</ele>
        <time>2017-09-23T09:45:34Z</time>
      </trkpt>
      <trkpt lat="44.57053" lon="1.41879">
        <ele>225</ele>
        <time>2017-09-23T09:45:48Z</time>
      </trkpt>
      <trkpt lat="44.57049" lon="1.4188">
        <ele>225</ele>
        <time>2017-09-23T09:45:51Z</time>
      </trkpt>
      <trkpt lat="44.57045" lon="1.41881">
        <ele>225</ele>
        <time>2017-09-23T09:45:54Z</time>
      </trkpt>
      <trkpt lat="44.57039" lon="1.41882">
        <ele>225</ele>
        <time>2017-09-23T09:45:58Z</time>
      </trkpt>
      <trkpt lat="44.57034" lon="1.41883">
        <ele>225</ele>
        <time>2017-09-23T09:46:02Z</time>
      </trkpt>
      <trkpt lat="44.57024" lon="1.41889">
        <ele>226</ele>
        <time>2017-09-23T09:46:09Z</time>
      </trkpt>
      <trkpt lat="44.57015" lon="1.4189">
        <ele>226</ele>
        <time>2017-09-23T09:46:16Z</time>
      </trkpt>
      <trkpt lat="44.57005" lon="1.41895">
        <ele>227</ele>
        <time>2017-09-23T09:46:23Z</time>
      </trkpt>
      <trkpt lat="44.57002" lon="1.41899">
        <ele>227</ele>
        <time>2017-09-23T09:46:27Z</time>
      </trkpt>
      <trkpt lat="44.57001" lon="1.41894">
        <ele>226</ele>
        <time>2017-09-23T09:48:41Z</time>
      </trkpt>
      <trkpt lat="44.56982" lon="1.41881">
        <ele>229</ele>
        <time>2017-09-23T09:48:54Z</time>
      </trkpt>
      <trkpt lat="44.56979" lon="1.41879">
        <ele>229</ele>
        <time>2017-09-23T09:48:56Z</time>
      </trkpt>
      <trkpt lat="44.56978" lon="1.41875">
        <ele>229</ele>
        <time>2017-09-23T09:48:58Z</time>
      </trkpt>
      <trkpt lat="44.56978" lon="1.41872">
        <ele>229</ele>
        <time>2017-09-23T09:48:59Z</time>
      </trkpt>
      <trkpt lat="44.56985" lon="1.41862">
        <ele>228</ele>
        <time>2017-09-23T09:49:07Z</time>
      </trkpt>
      <trkpt lat="44.57002" lon="1.41847">
        <ele>224</ele>
        <time>2017-09-23T09:49:21Z</time>
      </trkpt>
      <trkpt lat="44.57004" lon="1.41845">
        <ele>224</ele>
        <time>2017-09-23T09:49:23Z</time>
      </trkpt>
      <trkpt lat="44.57006" lon="1.41842">
        <ele>224</ele>
        <time>2017-09-23T09:49:26Z</time>
      </trkpt>
      <trkpt lat="44.5701" lon="1.41838">
        <ele>224</ele>
        <time>2017-09-23T09:49:30Z</time>
      </trkpt>
      <trkpt lat="44.57015" lon="1.41823">
        <ele>222</ele>
        <time>2017-09-23T09:49:39Z</time>
      </trkpt>
      <trkpt lat="44.57016" lon="1.4182">
        <ele>222</ele>
        <time>2017-09-23T09:49:41Z</time>
      </trkpt>
      <trkpt lat="44.57017" lon="1.41815">
        <ele>221</ele>
        <time>2017-09-23T09:49:43Z</time>
      </trkpt>
      <trkpt lat="44.57019" lon="1.41791">
        <ele>221</ele>
        <time>2017-09-23T09:49:57Z</time>
      </trkpt>
      <trkpt lat="44.57017" lon="1.41768">
        <ele>220</ele>
        <time>2017-09-23T09:50:09Z</time>
      </trkpt>
      <trkpt lat="44.57015" lon="1.41758">
        <ele>220</ele>
        <time>2017-09-23T09:50:15Z</time>
      </trkpt>
      <trkpt lat="44.57014" lon="1.41751">
        <ele>221</ele>
        <time>2017-09-23T09:50:19Z</time>
      </trkpt>
      <trkpt lat="44.57011" lon="1.41743">
        <ele>219</ele>
        <time>2017-09-23T09:50:23Z</time>
      </trkpt>
      <trkpt lat="44.56999" lon="1.4172">
        <ele>222</ele>
        <time>2017-09-23T09:50:39Z</time>
      </trkpt>
      <trkpt lat="44.56995" lon="1.41714">
        <ele>222</ele>
        <time>2017-09-23T09:50:43Z</time>
      </trkpt>
      <trkpt lat="44.56983" lon="1.41695">
        <ele>221</ele>
        <time>2017-09-23T09:50:57Z</time>
      </trkpt>
      <trkpt lat="44.56969" lon="1.41674">
        <ele>221</ele>
        <time>2017-09-23T09:51:12Z</time>
      </trkpt>
      <trkpt lat="44.56967" lon="1.41671">
        <ele>222</ele>
        <time>2017-09-23T09:51:15Z</time>
      </trkpt>
      <trkpt lat="44.56964" lon="1.41668">
        <ele>222</ele>
        <time>2017-09-23T09:51:20Z</time>
      </trkpt>
      <trkpt lat="44.56961" lon="1.41665">
        <ele>218</ele>
        <time>2017-09-23T09:51:23Z</time>
      </trkpt>
      <trkpt lat="44.56958" lon="1.41661">
        <ele>218</ele>
        <time>2017-09-23T09:51:27Z</time>
      </trkpt>
      <trkpt lat="44.56949" lon="1.41649">
        <ele>219</ele>
        <time>2017-09-23T09:51:34Z</time>
      </trkpt>
      <trkpt lat="44.56931" lon="1.41635">
        <ele>219</ele>
        <time>2017-09-23T09:51:46Z</time>
      </trkpt>
      <trkpt lat="44.56922" lon="1.41625">
        <ele>219</ele>
        <time>2017-09-23T09:51:52Z</time>
      </trkpt>
      <trkpt lat="44.56909" lon="1.41612">
        <ele>224</ele>
        <time>2017-09-23T09:52:03Z</time>
      </trkpt>
      <trkpt lat="44.56904" lon="1.41608">
        <ele>224</ele>
        <time>2017-09-23T09:52:08Z</time>
      </trkpt>
      <trkpt lat="44.569" lon="1.41602">
        <ele>223</ele>
        <time>2017-09-23T09:52:12Z</time>
      </trkpt>
      <trkpt lat="44.5687" lon="1.41561">
        <ele>222</ele>
        <time>2017-09-23T09:52:42Z</time>
      </trkpt>
      <trkpt lat="44.56859" lon="1.41539">
        <ele>222</ele>
        <time>2017-09-23T09:52:56Z</time>
      </trkpt>
      <trkpt lat="44.56852" lon="1.41526">
        <ele>222</ele>
        <time>2017-09-23T09:53:04Z</time>
      </trkpt>
      <trkpt lat="44.56848" lon="1.41519">
        <ele>223</ele>
        <time>2017-09-23T09:53:08Z</time>
      </trkpt>
      <trkpt lat="44.56845" lon="1.41513">
        <ele>223</ele>
        <time>2017-09-23T09:53:14Z</time>
      </trkpt>
      <trkpt lat="44.56837" lon="1.41499">
        <ele>224</ele>
        <time>2017-09-23T09:53:25Z</time>
      </trkpt>
      <trkpt lat="44.5683" lon="1.41476">
        <ele>226</ele>
        <time>2017-09-23T09:53:39Z</time>
      </trkpt>
      <trkpt lat="44.56821" lon="1.41457">
        <ele>226</ele>
        <time>2017-09-23T09:53:51Z</time>
      </trkpt>
      <trkpt lat="44.5682" lon="1.41452">
        <ele>225</ele>
        <time>2017-09-23T09:53:54Z</time>
      </trkpt>
      <trkpt lat="44.56819" lon="1.41439">
        <ele>224</ele>
        <time>2017-09-23T09:54:05Z</time>
      </trkpt>
      <trkpt lat="44.56795" lon="1.41392">
        <ele>221</ele>
        <time>2017-09-23T09:54:35Z</time>
      </trkpt>
      <trkpt lat="44.5677" lon="1.41333">
        <ele>220</ele>
        <time>2017-09-23T09:55:05Z</time>
      </trkpt>
      <trkpt lat="44.56767" lon="1.41312">
        <ele>220</ele>
        <time>2017-09-23T09:55:14Z</time>
      </trkpt>
      <trkpt lat="44.56765" lon="1.41304">
        <ele>219</ele>
        <time>2017-09-23T09:55:18Z</time>
      </trkpt>
      <trkpt lat="44.56762" lon="1.41297">
        <ele>219</ele>
        <time>2017-09-23T09:55:22Z</time>
      </trkpt>
      <trkpt lat="44.56761" lon="1.41293">
        <ele>219</ele>
        <time>2017-09-23T09:55:24Z</time>
      </trkpt>
      <trkpt lat="44.56756" lon="1.4128">
        <ele>218</ele>
        <time>2017-09-23T09:55:32Z</time>
      </trkpt>
      <trkpt lat="44.56755" lon="1.41276">
        <ele>218</ele>
        <time>2017-09-23T09:55:34Z</time>
      </trkpt>
      <trkpt lat="44.56755" lon="1.41272">
        <ele>218</ele>
        <time>2017-09-23T09:55:36Z</time>
      </trkpt>
      <trkpt lat="44.56754" lon="1.41268">
        <ele>218</ele>
        <time>2017-09-23T09:55:38Z</time>
      </trkpt>
      <trkpt lat="44.56752" lon="1.41265">
        <ele>218</ele>
        <time>2017-09-23T09:55:40Z</time>
      </trkpt>
      <trkpt lat="44.56751" lon="1.41261">
        <ele>218</ele>
        <time>2017-09-23T09:55:42Z</time>
      </trkpt>
      <trkpt lat="44.56749" lon="1.4125">
        <ele>218</ele>
        <time>2017-09-23T09:55:48Z</time>
      </trkpt>
      <trkpt lat="44.56731" lon="1.41194">
        <ele>218</ele>
        <time>2017-09-23T09:56:19Z</time>
      </trkpt>
      <trkpt lat="44.56708" lon="1.41145">
        <ele>214</ele>
        <time>2017-09-23T09:56:50Z</time>
      </trkpt>
      <trkpt lat="44.56706" lon="1.41138">
        <ele>214</ele>
        <time>2017-09-23T09:56:54Z</time>
      </trkpt>
      <trkpt lat="44.56705" lon="1.41135">
        <ele>214</ele>
        <time>2017-09-23T09:56:56Z</time>
      </trkpt>
      <trkpt lat="44.56685" lon="1.41084">
        <ele>213</ele>
        <time>2017-09-23T09:57:26Z</time>
      </trkpt>
      <trkpt lat="44.5668" lon="1.41074">
        <ele>211</ele>
        <time>2017-09-23T09:57:32Z</time>
      </trkpt>
      <trkpt lat="44.56673" lon="1.41067">
        <ele>211</ele>
        <time>2017-09-23T09:57:38Z</time>
      </trkpt>
      <trkpt lat="44.56634" lon="1.41045">
        <ele>213</ele>
        <time>2017-09-23T09:58:08Z</time>
      </trkpt>
      <trkpt lat="44.56604" lon="1.4103">
        <ele>213</ele>
        <time>2017-09-23T09:58:31Z</time>
      </trkpt>
      <trkpt lat="44.56603" lon="1.4103">
        <ele>213</ele>
        <time>2017-09-23T09:58:32Z</time>
      </trkpt>
      <trkpt lat="44.566" lon="1.41028">
        <ele>213</ele>
        <time>2017-09-23T09:58:34Z</time>
      </trkpt>
      <trkpt lat="44.56567" lon="1.4101">
        <ele>217</ele>
        <time>2017-09-23T09:59:01Z</time>
      </trkpt>
      <trkpt lat="44.56531" lon="1.40994">
        <ele>214</ele>
        <time>2017-09-23T09:59:29Z</time>
      </trkpt>
      <trkpt lat="44.56525" lon="1.40989">
        <ele>215</ele>
        <time>2017-09-23T09:59:34Z</time>
      </trkpt>
      <trkpt lat="44.56498" lon="1.40983">
        <ele>221</ele>
        <time>2017-09-23T09:59:54Z</time>
      </trkpt>
      <trkpt lat="44.56496" lon="1.40983">
        <ele>222</ele>
        <time>2017-09-23T09:59:56Z</time>
      </trkpt>
      <trkpt lat="44.56476" lon="1.40975">
        <ele>222</ele>
        <time>2017-09-23T10:00:10Z</time>
      </trkpt>
      <trkpt lat="44.56451" lon="1.40955">
        <ele>223</ele>
        <time>2017-09-23T10:00:31Z</time>
      </trkpt>
      <trkpt lat="44.56439" lon="1.40945">
        <ele>223</ele>
        <time>2017-09-23T10:00:41Z</time>
      </trkpt>
      <trkpt lat="44.56416" lon="1.40917">
        <ele>220</ele>
        <time>2017-09-23T10:01:03Z</time>
      </trkpt>
      <trkpt lat="44.56415" lon="1.40913">
        <ele>221</ele>
        <time>2017-09-23T10:01:05Z</time>
      </trkpt>
      <trkpt lat="44.56413" lon="1.40911">
        <ele>222</ele>
        <time>2017-09-23T10:01:07Z</time>
      </trkpt>
      <trkpt lat="44.56408" lon="1.40906">
        <ele>223</ele>
        <time>2017-09-23T10:01:11Z</time>
      </trkpt>
      <trkpt lat="44.56398" lon="1.40887">
        <ele>224</ele>
        <time>2017-09-23T10:01:24Z</time>
      </trkpt>
      <trkpt lat="44.5639" lon="1.40876">
        <ele>225</ele>
        <time>2017-09-23T10:01:33Z</time>
      </trkpt>
      <trkpt lat="44.56388" lon="1.40873">
        <ele>224</ele>
        <time>2017-09-23T10:01:35Z</time>
      </trkpt>
      <trkpt lat="44.56386" lon="1.40871">
        <ele>225</ele>
        <time>2017-09-23T10:01:37Z</time>
      </trkpt>
      <trkpt lat="44.5638" lon="1.40859">
        <ele>224</ele>
        <time>2017-09-23T10:01:46Z</time>
      </trkpt>
      <trkpt lat="44.56378" lon="1.40856">
        <ele>224</ele>
        <time>2017-09-23T10:01:48Z</time>
      </trkpt>
      <trkpt lat="44.56373" lon="1.40848">
        <ele>224</ele>
        <time>2017-09-23T10:01:54Z</time>
      </trkpt>
      <trkpt lat="44.56372" lon="1.40845">
        <ele>224</ele>
        <time>2017-09-23T10:01:57Z</time>
      </trkpt>
      <trkpt lat="44.56371" lon="1.40842">
        <ele>224</ele>
        <time>2017-09-23T10:02:00Z</time>
      </trkpt>
      <trkpt lat="44.56368" lon="1.40839">
        <ele>224</ele>
        <time>2017-09-23T10:02:03Z</time>
      </trkpt>
      <trkpt lat="44.56365" lon="1.40837">
        <ele>225</ele>
        <time>2017-09-23T10:02:05Z</time>
      </trkpt>
      <trkpt lat="44.56351" lon="1.40806">
        <ele>217</ele>
        <time>2017-09-23T10:02:23Z</time>
      </trkpt>
      <trkpt lat="44.56338" lon="1.40787">
        <ele>215</ele>
        <time>2017-09-23T10:02:37Z</time>
      </trkpt>
      <trkpt lat="44.56336" lon="1.40786">
        <ele>215</ele>
        <time>2017-09-23T10:02:39Z</time>
      </trkpt>
      <trkpt lat="44.56333" lon="1.40784">
        <ele>225</ele>
        <time>2017-09-23T10:02:41Z</time>
      </trkpt>
      <trkpt lat="44.56332" lon="1.40781">
        <ele>225</ele>
        <time>2017-09-23T10:02:43Z</time>
      </trkpt>
      <trkpt lat="44.56318" lon="1.4076">
        <ele>222</ele>
        <time>2017-09-23T10:02:58Z</time>
      </trkpt>
      <trkpt lat="44.56317" lon="1.40758">
        <ele>222</ele>
        <time>2017-09-23T10:02:59Z</time>
      </trkpt>
      <trkpt lat="44.56301" lon="1.40737">
        <ele>217</ele>
        <time>2017-09-23T10:03:15Z</time>
      </trkpt>
      <trkpt lat="44.563" lon="1.40736">
        <ele>217</ele>
        <time>2017-09-23T10:03:16Z</time>
      </trkpt>
      <trkpt lat="44.56299" lon="1.40734">
        <ele>217</ele>
        <time>2017-09-23T10:03:18Z</time>
      </trkpt>
      <trkpt lat="44.56284" lon="1.40715">
        <ele>218</ele>
        <time>2017-09-23T10:03:34Z</time>
      </trkpt>
      <trkpt lat="44.56281" lon="1.40714">
        <ele>218</ele>
        <time>2017-09-23T10:03:36Z</time>
      </trkpt>
      <trkpt lat="44.56274" lon="1.40711">
        <ele>219</ele>
        <time>2017-09-23T10:03:42Z</time>
      </trkpt>
      <trkpt lat="44.56269" lon="1.40706">
        <ele>219</ele>
        <time>2017-09-23T10:03:48Z</time>
      </trkpt>
      <trkpt lat="44.56266" lon="1.40705">
        <ele>219</ele>
        <time>2017-09-23T10:03:50Z</time>
      </trkpt>
      <trkpt lat="44.56258" lon="1.40698">
        <ele>219</ele>
        <time>2017-09-23T10:03:56Z</time>
      </trkpt>
      <trkpt lat="44.56255" lon="1.40697">
        <ele>219</ele>
        <time>2017-09-23T10:03:58Z</time>
      </trkpt>
      <trkpt lat="44.56245" lon="1.40695">
        <ele>225</ele>
        <time>2017-09-23T10:04:06Z</time>
      </trkpt>
      <trkpt lat="44.56245" lon="1.40692">
        <ele>224</ele>
        <time>2017-09-23T10:05:18Z</time>
      </trkpt>
      <trkpt lat="44.56246" lon="1.40692">
        <ele>224</ele>
        <time>2017-09-23T10:06:28Z</time>
      </trkpt>
      <trkpt lat="44.56248" lon="1.40694">
        <ele>224</ele>
        <time>2017-09-23T10:06:31Z</time>
      </trkpt>
      <trkpt lat="44.56251" lon="1.40693">
        <ele>219</ele>
        <time>2017-09-23T10:06:34Z</time>
      </trkpt>
      <trkpt lat="44.56254" lon="1.40689">
        <ele>219</ele>
        <time>2017-09-23T10:06:37Z</time>
      </trkpt>
      <trkpt lat="44.56255" lon="1.40684">
        <ele>219</ele>
        <time>2017-09-23T10:06:40Z</time>
      </trkpt>
      <trkpt lat="44.56256" lon="1.40678">
        <ele>219</ele>
        <time>2017-09-23T10:06:44Z</time>
      </trkpt>
      <trkpt lat="44.56259" lon="1.40673">
        <ele>218</ele>
        <time>2017-09-23T10:06:47Z</time>
      </trkpt>
      <trkpt lat="44.56262" lon="1.40666">
        <ele>217</ele>
        <time>2017-09-23T10:06:51Z</time>
      </trkpt>
      <trkpt lat="44.56266" lon="1.4066">
        <ele>217</ele>
        <time>2017-09-23T10:06:55Z</time>
      </trkpt>
      <trkpt lat="44.56265" lon="1.40645">
        <ele>216</ele>
        <time>2017-09-23T10:07:03Z</time>
      </trkpt>
      <trkpt lat="44.56269" lon="1.4064">
        <ele>216</ele>
        <time>2017-09-23T10:07:07Z</time>
      </trkpt>
      <trkpt lat="44.5627" lon="1.40631">
        <ele>216</ele>
        <time>2017-09-23T10:07:14Z</time>
      </trkpt>
      <trkpt lat="44.56273" lon="1.40624">
        <ele>216</ele>
        <time>2017-09-23T10:07:20Z</time>
      </trkpt>
      <trkpt lat="44.56274" lon="1.40614">
        <ele>216</ele>
        <time>2017-09-23T10:07:26Z</time>
      </trkpt>
      <trkpt lat="44.56272" lon="1.40605">
        <ele>217</ele>
        <time>2017-09-23T10:07:32Z</time>
      </trkpt>
      <trkpt lat="44.56271" lon="1.40592">
        <ele>218</ele>
        <time>2017-09-23T10:07:40Z</time>
      </trkpt>
      <trkpt lat="44.56272" lon="1.40581">
        <ele>218</ele>
        <time>2017-09-23T10:07:44Z</time>
      </trkpt>
      <trkpt lat="44.56273" lon="1.40574">
        <ele>218</ele>
        <time>2017-09-23T10:07:48Z</time>
      </trkpt>
      <trkpt lat="44.56274" lon="1.40564">
        <ele>217</ele>
        <time>2017-09-23T10:07:54Z</time>
      </trkpt>
      <trkpt lat="44.56275" lon="1.40556">
        <ele>217</ele>
        <time>2017-09-23T10:07:58Z</time>
      </trkpt>
      <trkpt lat="44.56271" lon="1.40539">
        <ele>217</ele>
        <time>2017-09-23T10:08:05Z</time>
      </trkpt>
      <trkpt lat="44.56268" lon="1.40516">
        <ele>219</ele>
        <time>2017-09-23T10:08:16Z</time>
      </trkpt>
      <trkpt lat="44.5627" lon="1.40508">
        <ele>219</ele>
        <time>2017-09-23T10:08:21Z</time>
      </trkpt>
      <trkpt lat="44.56273" lon="1.40499">
        <ele>218</ele>
        <time>2017-09-23T10:08:26Z</time>
      </trkpt>
      <trkpt lat="44.56274" lon="1.40488">
        <ele>218</ele>
        <time>2017-09-23T10:08:31Z</time>
      </trkpt>
      <trkpt lat="44.5627" lon="1.40479">
        <ele>218</ele>
        <time>2017-09-23T10:08:36Z</time>
      </trkpt>
      <trkpt lat="44.56266" lon="1.40471">
        <ele>218</ele>
        <time>2017-09-23T10:08:39Z</time>
      </trkpt>
      <trkpt lat="44.56268" lon="1.40462">
        <ele>218</ele>
        <time>2017-09-23T10:08:43Z</time>
      </trkpt>
      <trkpt lat="44.56266" lon="1.40454">
        <ele>218</ele>
        <time>2017-09-23T10:08:47Z</time>
      </trkpt>
      <trkpt lat="44.56267" lon="1.40445">
        <ele>218</ele>
        <time>2017-09-23T10:08:52Z</time>
      </trkpt>
      <trkpt lat="44.56265" lon="1.40436">
        <ele>219</ele>
        <time>2017-09-23T10:08:57Z</time>
      </trkpt>
      <trkpt lat="44.56268" lon="1.40424">
        <ele>220</ele>
        <time>2017-09-23T10:09:04Z</time>
      </trkpt>
      <trkpt lat="44.56268" lon="1.40415">
        <ele>220</ele>
        <time>2017-09-23T10:09:08Z</time>
      </trkpt>
      <trkpt lat="44.56268" lon="1.40406">
        <ele>220</ele>
        <time>2017-09-23T10:09:13Z</time>
      </trkpt>
      <trkpt lat="44.56271" lon="1.40397">
        <ele>219</ele>
        <time>2017-09-23T10:09:18Z</time>
      </trkpt>
      <trkpt lat="44.56273" lon="1.40371">
        <ele>217</ele>
        <time>2017-09-23T10:09:34Z</time>
      </trkpt>
      <trkpt lat="44.56274" lon="1.40361">
        <ele>218</ele>
        <time>2017-09-23T10:09:40Z</time>
      </trkpt>
      <trkpt lat="44.56276" lon="1.40354">
        <ele>218</ele>
        <time>2017-09-23T10:09:45Z</time>
      </trkpt>
      <trkpt lat="44.56273" lon="1.40345">
        <ele>219</ele>
        <time>2017-09-23T10:09:51Z</time>
      </trkpt>
      <trkpt lat="44.56273" lon="1.40336">
        <ele>219</ele>
        <time>2017-09-23T10:09:56Z</time>
      </trkpt>
      <trkpt lat="44.56274" lon="1.40327">
        <ele>218</ele>
        <time>2017-09-23T10:10:01Z</time>
      </trkpt>
      <trkpt lat="44.56272" lon="1.40319">
        <ele>218</ele>
        <time>2017-09-23T10:10:05Z</time>
      </trkpt>
      <trkpt lat="44.56269" lon="1.40308">
        <ele>218</ele>
        <time>2017-09-23T10:10:09Z</time>
      </trkpt>
      <trkpt lat="44.56271" lon="1.40291">
        <ele>217</ele>
        <time>2017-09-23T10:10:20Z</time>
      </trkpt>
      <trkpt lat="44.56274" lon="1.40282">
        <ele>216</ele>
        <time>2017-09-23T10:10:24Z</time>
      </trkpt>
      <trkpt lat="44.56278" lon="1.40275">
        <ele>216</ele>
        <time>2017-09-23T10:10:29Z</time>
      </trkpt>
      <trkpt lat="44.56274" lon="1.40262">
        <ele>217</ele>
        <time>2017-09-23T10:10:35Z</time>
      </trkpt>
      <trkpt lat="44.56274" lon="1.40209">
        <ele>216</ele>
        <time>2017-09-23T10:11:01Z</time>
      </trkpt>
      <trkpt lat="44.56273" lon="1.40199">
        <ele>216</ele>
        <time>2017-09-23T10:11:05Z</time>
      </trkpt>
      <trkpt lat="44.56273" lon="1.40189">
        <ele>217</ele>
        <time>2017-09-23T10:11:10Z</time>
      </trkpt>
      <trkpt lat="44.56271" lon="1.4018">
        <ele>218</ele>
        <time>2017-09-23T10:11:15Z</time>
      </trkpt>
      <trkpt lat="44.56268" lon="1.40173">
        <ele>219</ele>
        <time>2017-09-23T10:11:19Z</time>
      </trkpt>
      <trkpt lat="44.56268" lon="1.40154">
        <ele>218</ele>
        <time>2017-09-23T10:11:28Z</time>
      </trkpt>
      <trkpt lat="44.56269" lon="1.40145">
        <ele>217</ele>
        <time>2017-09-23T10:11:33Z</time>
      </trkpt>
      <trkpt lat="44.56268" lon="1.40137">
        <ele>216</ele>
        <time>2017-09-23T10:11:38Z</time>
      </trkpt>
      <trkpt lat="44.56269" lon="1.40127">
        <ele>216</ele>
        <time>2017-09-23T10:11:43Z</time>
      </trkpt>
      <trkpt lat="44.56266" lon="1.4012">
        <ele>216</ele>
        <time>2017-09-23T10:11:46Z</time>
      </trkpt>
      <trkpt lat="44.56261" lon="1.40054">
        <ele>213</ele>
        <time>2017-09-23T10:12:17Z</time>
      </trkpt>
      <trkpt lat="44.56261" lon="1.40048">
        <ele>212</ele>
        <time>2017-09-23T10:12:20Z</time>
      </trkpt>
      <trkpt lat="44.56261" lon="1.40044">
        <ele>212</ele>
        <time>2017-09-23T10:12:22Z</time>
      </trkpt>
      <trkpt lat="44.5626" lon="1.40011">
        <ele>210</ele>
        <time>2017-09-23T10:12:34Z</time>
      </trkpt>
      <trkpt lat="44.56259" lon="1.40007">
        <ele>210</ele>
        <time>2017-09-23T10:12:36Z</time>
      </trkpt>
      <trkpt lat="44.56259" lon="1.39999">
        <ele>208</ele>
        <time>2017-09-23T10:12:40Z</time>
      </trkpt>
      <trkpt lat="44.56257" lon="1.39992">
        <ele>208</ele>
        <time>2017-09-23T10:12:44Z</time>
      </trkpt>
      <trkpt lat="44.56259" lon="1.39937">
        <ele>206</ele>
        <time>2017-09-23T10:13:14Z</time>
      </trkpt>
      <trkpt lat="44.56261" lon="1.39916">
        <ele>205</ele>
        <time>2017-09-23T10:13:26Z</time>
      </trkpt>
      <trkpt lat="44.56257" lon="1.3986">
        <ele>205</ele>
        <time>2017-09-23T10:13:57Z</time>
      </trkpt>
      <trkpt lat="44.56253" lon="1.39806">
        <ele>205</ele>
        <time>2017-09-23T10:14:28Z</time>
      </trkpt>
      <trkpt lat="44.56249" lon="1.39757">
        <ele>212</ele>
        <time>2017-09-23T10:14:56Z</time>
      </trkpt>
      <trkpt lat="44.5625" lon="1.39754">
        <ele>210</ele>
        <time>2017-09-23T10:14:58Z</time>
      </trkpt>
      <trkpt lat="44.56249" lon="1.39744">
        <ele>211</ele>
        <time>2017-09-23T10:15:04Z</time>
      </trkpt>
      <trkpt lat="44.56248" lon="1.39738">
        <ele>213</ele>
        <time>2017-09-23T10:15:08Z</time>
      </trkpt>
      <trkpt lat="44.56249" lon="1.39718">
        <ele>216</ele>
        <time>2017-09-23T10:15:19Z</time>
      </trkpt>
      <trkpt lat="44.56249" lon="1.39709">
        <ele>216</ele>
        <time>2017-09-23T10:15:32Z</time>
      </trkpt>
      <trkpt lat="44.56245" lon="1.39689">
        <ele>214</ele>
        <time>2017-09-23T10:15:46Z</time>
      </trkpt>
      <trkpt lat="44.56246" lon="1.3968">
        <ele>212</ele>
        <time>2017-09-23T10:15:51Z</time>
      </trkpt>
      <trkpt lat="44.56241" lon="1.39629">
        <ele>211</ele>
        <time>2017-09-23T10:16:21Z</time>
      </trkpt>
      <trkpt lat="44.56235" lon="1.39575">
        <ele>205</ele>
        <time>2017-09-23T10:16:51Z</time>
      </trkpt>
      <trkpt lat="44.56233" lon="1.39561">
        <ele>206</ele>
        <time>2017-09-23T10:16:59Z</time>
      </trkpt>
      <trkpt lat="44.56232" lon="1.3955">
        <ele>207</ele>
        <time>2017-09-23T10:17:06Z</time>
      </trkpt>
      <trkpt lat="44.56232" lon="1.39543">
        <ele>207</ele>
        <time>2017-09-23T10:17:11Z</time>
      </trkpt>
      <trkpt lat="44.56231" lon="1.39537">
        <ele>207</ele>
        <time>2017-09-23T10:17:14Z</time>
      </trkpt>
      <trkpt lat="44.56228" lon="1.3949">
        <ele>203</ele>
        <time>2017-09-23T10:17:39Z</time>
      </trkpt>
      <trkpt lat="44.56227" lon="1.39484">
        <ele>204</ele>
        <time>2017-09-23T10:17:43Z</time>
      </trkpt>
      <trkpt lat="44.56227" lon="1.39476">
        <ele>204</ele>
        <time>2017-09-23T10:17:47Z</time>
      </trkpt>
      <trkpt lat="44.56223" lon="1.39414">
        <ele>202</ele>
        <time>2017-09-23T10:18:20Z</time>
      </trkpt>
      <trkpt lat="44.56219" lon="1.39356">
        <ele>203</ele>
        <time>2017-09-23T10:18:50Z</time>
      </trkpt>
      <trkpt lat="44.56217" lon="1.39328">
        <ele>204</ele>
        <time>2017-09-23T10:19:04Z</time>
      </trkpt>
      <trkpt lat="44.56217" lon="1.39295">
        <ele>205</ele>
        <time>2017-09-23T10:19:22Z</time>
      </trkpt>
      <trkpt lat="44.56214" lon="1.39287">
        <ele>205</ele>
        <time>2017-09-23T10:19:27Z</time>
      </trkpt>
      <trkpt lat="44.56209" lon="1.39281">
        <ele>206</ele>
        <time>2017-09-23T10:19:31Z</time>
      </trkpt>
      <trkpt lat="44.56207" lon="1.39262">
        <ele>206</ele>
        <time>2017-09-23T10:19:44Z</time>
      </trkpt>
      <trkpt lat="44.5621" lon="1.39249">
        <ele>209</ele>
        <time>2017-09-23T10:19:55Z</time>
      </trkpt>
      <trkpt lat="44.5621" lon="1.39239">
        <ele>209</ele>
        <time>2017-09-23T10:20:00Z</time>
      </trkpt>
      <trkpt lat="44.56211" lon="1.39237">
        <ele>209</ele>
        <time>2017-09-23T10:21:10Z</time>
      </trkpt>
      <trkpt lat="44.5621" lon="1.39246">
        <ele>209</ele>
        <time>2017-09-23T10:21:18Z</time>
      </trkpt>
      <trkpt lat="44.56207" lon="1.39253">
        <ele>206</ele>
        <time>2017-09-23T10:21:26Z</time>
      </trkpt>
      <trkpt lat="44.56203" lon="1.39253">
        <ele>207</ele>
        <time>2017-09-23T10:21:34Z</time>
      </trkpt>
      <trkpt lat="44.56203" lon="1.39242">
        <ele>210</ele>
        <time>2017-09-23T10:22:04Z</time>
      </trkpt>
      <trkpt lat="44.56204" lon="1.3923">
        <ele>210</ele>
        <time>2017-09-23T10:22:14Z</time>
      </trkpt>
      <trkpt lat="44.56201" lon="1.39222">
        <ele>210</ele>
        <time>2017-09-23T10:22:21Z</time>
      </trkpt>
      <trkpt lat="44.56196" lon="1.39217">
        <ele>211</ele>
        <time>2017-09-23T10:22:24Z</time>
      </trkpt>
      <trkpt lat="44.56192" lon="1.39218">
        <ele>211</ele>
        <time>2017-09-23T10:22:27Z</time>
      </trkpt>
      <trkpt lat="44.56188" lon="1.39218">
        <ele>211</ele>
        <time>2017-09-23T10:22:30Z</time>
      </trkpt>
      <trkpt lat="44.5618" lon="1.39216">
        <ele>212</ele>
        <time>2017-09-23T10:22:37Z</time>
      </trkpt>
      <trkpt lat="44.56177" lon="1.39215">
        <ele>212</ele>
        <time>2017-09-23T10:22:40Z</time>
      </trkpt>
      <trkpt lat="44.56152" lon="1.39208">
        <ele>219</ele>
        <time>2017-09-23T10:23:02Z</time>
      </trkpt>
      <trkpt lat="44.56146" lon="1.39205">
        <ele>219</ele>
        <time>2017-09-23T10:23:14Z</time>
      </trkpt>
      <trkpt lat="44.5614" lon="1.39204">
        <ele>219</ele>
        <time>2017-09-23T10:23:19Z</time>
      </trkpt>
      <trkpt lat="44.56129" lon="1.39203">
        <ele>220</ele>
        <time>2017-09-23T10:23:30Z</time>
      </trkpt>
      <trkpt lat="44.56122" lon="1.39201">
        <ele>220</ele>
        <time>2017-09-23T10:23:36Z</time>
      </trkpt>
      <trkpt lat="44.56115" lon="1.39199">
        <ele>220</ele>
        <time>2017-09-23T10:23:45Z</time>
      </trkpt>
      <trkpt lat="44.5611" lon="1.39195">
        <ele>221</ele>
        <time>2017-09-23T10:23:52Z</time>
      </trkpt>
      <trkpt lat="44.56099" lon="1.39192">
        <ele>221</ele>
        <time>2017-09-23T10:24:00Z</time>
      </trkpt>
      <trkpt lat="44.56085" lon="1.39186">
        <ele>222</ele>
        <time>2017-09-23T10:24:17Z</time>
      </trkpt>
      <trkpt lat="44.56078" lon="1.39183">
        <ele>225</ele>
        <time>2017-09-23T10:24:22Z</time>
      </trkpt>
      <trkpt lat="44.56073" lon="1.3918">
        <ele>226</ele>
        <time>2017-09-23T10:24:29Z</time>
      </trkpt>
      <trkpt lat="44.56052" lon="1.39174">
        <ele>227</ele>
        <time>2017-09-23T10:24:54Z</time>
      </trkpt>
      <trkpt lat="44.56047" lon="1.39171">
        <ele>227</ele>
        <time>2017-09-23T10:24:58Z</time>
      </trkpt>
      <trkpt lat="44.56043" lon="1.3917">
        <ele>228</ele>
        <time>2017-09-23T10:25:02Z</time>
      </trkpt>
      <trkpt lat="44.56007" lon="1.39155">
        <ele>233</ele>
        <time>2017-09-23T10:25:33Z</time>
      </trkpt>
      <trkpt lat="44.55991" lon="1.39147">
        <ele>238</ele>
        <time>2017-09-23T10:25:45Z</time>
      </trkpt>
      <trkpt lat="44.55986" lon="1.39143">
        <ele>239</ele>
        <time>2017-09-23T10:25:49Z</time>
      </trkpt>
      <trkpt lat="44.55958" lon="1.3913">
        <ele>241</ele>
        <time>2017-09-23T10:26:19Z</time>
      </trkpt>
      <trkpt lat="44.55945" lon="1.39123">
        <ele>242</ele>
        <time>2017-09-23T10:26:33Z</time>
      </trkpt>
      <trkpt lat="44.55938" lon="1.3912">
        <ele>242</ele>
        <time>2017-09-23T10:26:40Z</time>
      </trkpt>
      <trkpt lat="44.55926" lon="1.39118">
        <ele>243</ele>
        <time>2017-09-23T10:26:53Z</time>
      </trkpt>
      <trkpt lat="44.55921" lon="1.39112">
        <ele>243</ele>
        <time>2017-09-23T10:27:01Z</time>
      </trkpt>
      <trkpt lat="44.55911" lon="1.39101">
        <ele>249</ele>
        <time>2017-09-23T10:27:12Z</time>
      </trkpt>
      <trkpt lat="44.55907" lon="1.39095">
        <ele>249</ele>
        <time>2017-09-23T10:27:19Z</time>
      </trkpt>
      <trkpt lat="44.55903" lon="1.39091">
        <ele>249</ele>
        <time>2017-09-23T10:27:24Z</time>
      </trkpt>
      <trkpt lat="44.55888" lon="1.39069">
        <ele>254</ele>
        <time>2017-09-23T10:27:49Z</time>
      </trkpt>
      <trkpt lat="44.55882" lon="1.39064">
        <ele>255</ele>
        <time>2017-09-23T10:27:55Z</time>
      </trkpt>
      <trkpt lat="44.55876" lon="1.3906">
        <ele>256</ele>
        <time>2017-09-23T10:28:01Z</time>
      </trkpt>
      <trkpt lat="44.55867" lon="1.3905">
        <ele>257</ele>
        <time>2017-09-23T10:28:13Z</time>
      </trkpt>
      <trkpt lat="44.55864" lon="1.39042">
        <ele>257</ele>
        <time>2017-09-23T10:28:22Z</time>
      </trkpt>
      <trkpt lat="44.55861" lon="1.39035">
        <ele>258</ele>
        <time>2017-09-23T10:28:34Z</time>
      </trkpt>
      <trkpt lat="44.55858" lon="1.39029">
        <ele>258</ele>
        <time>2017-09-23T10:28:40Z</time>
      </trkpt>
      <trkpt lat="44.55855" lon="1.39023">
        <ele>259</ele>
        <time>2017-09-23T10:28:46Z</time>
      </trkpt>
      <trkpt lat="44.55852" lon="1.39016">
        <ele>260</ele>
        <time>2017-09-23T10:28:55Z</time>
      </trkpt>
      <trkpt lat="44.55849" lon="1.39011">
        <ele>261</ele>
        <time>2017-09-23T10:28:59Z</time>
      </trkpt>
      <trkpt lat="44.55846" lon="1.39003">
        <ele>263</ele>
        <time>2017-09-23T10:29:07Z</time>
      </trkpt>
      <trkpt lat="44.55841" lon="1.38993">
        <ele>265</ele>
        <time>2017-09-23T10:29:15Z</time>
      </trkpt>
      <trkpt lat="44.55837" lon="1.38983">
        <ele>265</ele>
        <time>2017-09-23T10:29:25Z</time>
      </trkpt>
      <trkpt lat="44.55829" lon="1.38969">
        <ele>271</ele>
        <time>2017-09-23T10:29:46Z</time>
      </trkpt>
      <trkpt lat="44.55823" lon="1.38964">
        <ele>272</ele>
        <time>2017-09-23T10:29:51Z</time>
      </trkpt>
      <trkpt lat="44.55816" lon="1.3896">
        <ele>272</ele>
        <time>2017-09-23T10:29:58Z</time>
      </trkpt>
      <trkpt lat="44.55812" lon="1.38959">
        <ele>272</ele>
        <time>2017-09-23T10:30:01Z</time>
      </trkpt>
      <trkpt lat="44.55808" lon="1.38964">
        <ele>272</ele>
        <time>2017-09-23T10:30:12Z</time>
      </trkpt>
      <trkpt lat="44.55806" lon="1.38971">
        <ele>272</ele>
        <time>2017-09-23T10:30:18Z</time>
      </trkpt>
      <trkpt lat="44.55803" lon="1.38978">
        <ele>272</ele>
        <time>2017-09-23T10:30:23Z</time>
      </trkpt>
      <trkpt lat="44.55797" lon="1.3898">
        <ele>272</ele>
        <time>2017-09-23T10:30:28Z</time>
      </trkpt>
      <trkpt lat="44.55797" lon="1.38984">
        <ele>272</ele>
        <time>2017-09-23T10:30:35Z</time>
      </trkpt>
      <trkpt lat="44.55794" lon="1.38981">
        <ele>272</ele>
        <time>2017-09-23T10:30:39Z</time>
      </trkpt>
      <trkpt lat="44.55791" lon="1.38979">
        <ele>273</ele>
        <time>2017-09-23T10:30:42Z</time>
      </trkpt>
      <trkpt lat="44.55789" lon="1.38977">
        <ele>273</ele>
        <time>2017-09-23T10:30:46Z</time>
      </trkpt>
      <trkpt lat="44.55785" lon="1.38975">
        <ele>273</ele>
        <time>2017-09-23T10:30:50Z</time>
      </trkpt>
      <trkpt lat="44.5578" lon="1.38973">
        <ele>273</ele>
        <time>2017-09-23T10:30:55Z</time>
      </trkpt>
      <trkpt lat="44.55779" lon="1.38969">
        <ele>274</ele>
        <time>2017-09-23T10:30:59Z</time>
      </trkpt>
      <trkpt lat="44.55779" lon="1.38964">
        <ele>274</ele>
        <time>2017-09-23T10:31:04Z</time>
      </trkpt>
      <trkpt lat="44.5578" lon="1.38958">
        <ele>274</ele>
        <time>2017-09-23T10:31:08Z</time>
      </trkpt>
      <trkpt lat="44.55784" lon="1.38907">
        <ele>280</ele>
        <time>2017-09-23T10:31:36Z</time>
      </trkpt>
      <trkpt lat="44.55783" lon="1.38889">
        <ele>281</ele>
        <time>2017-09-23T10:31:48Z</time>
      </trkpt>
      <trkpt lat="44.55784" lon="1.3888">
        <ele>282</ele>
        <time>2017-09-23T10:31:53Z</time>
      </trkpt>
      <trkpt lat="44.55784" lon="1.38872">
        <ele>283</ele>
        <time>2017-09-23T10:31:58Z</time>
      </trkpt>
      <trkpt lat="44.55785" lon="1.38863">
        <ele>283</ele>
        <time>2017-09-23T10:32:04Z</time>
      </trkpt>
      <trkpt lat="44.55784" lon="1.38852">
        <ele>284</ele>
        <time>2017-09-23T10:32:10Z</time>
      </trkpt>
      <trkpt lat="44.55786" lon="1.38842">
        <ele>284</ele>
        <time>2017-09-23T10:32:17Z</time>
      </trkpt>
      <trkpt lat="44.55788" lon="1.38832">
        <ele>289</ele>
        <time>2017-09-23T10:32:22Z</time>
      </trkpt>
      <trkpt lat="44.5579" lon="1.38811">
        <ele>289</ele>
        <time>2017-09-23T10:32:32Z</time>
      </trkpt>
      <trkpt lat="44.55789" lon="1.38801">
        <ele>289</ele>
        <time>2017-09-23T10:32:38Z</time>
      </trkpt>
      <trkpt lat="44.55791" lon="1.38793">
        <ele>289</ele>
        <time>2017-09-23T10:32:43Z</time>
      </trkpt>
      <trkpt lat="44.55791" lon="1.38776">
        <ele>290</ele>
        <time>2017-09-23T10:32:51Z</time>
      </trkpt>
      <trkpt lat="44.5579" lon="1.38767">
        <ele>290</ele>
        <time>2017-09-23T10:32:57Z</time>
      </trkpt>
      <trkpt lat="44.55793" lon="1.38759">
        <ele>290</ele>
        <time>2017-09-23T10:33:03Z</time>
      </trkpt>
      <trkpt lat="44.55795" lon="1.38748">
        <ele>290</ele>
        <time>2017-09-23T10:33:12Z</time>
      </trkpt>
      <trkpt lat="44.55798" lon="1.38719">
        <ele>290</ele>
        <time>2017-09-23T10:33:26Z</time>
      </trkpt>
      <trkpt lat="44.55793" lon="1.38703">
        <ele>291</ele>
        <time>2017-09-23T10:33:34Z</time>
      </trkpt>
      <trkpt lat="44.5579" lon="1.38688">
        <ele>291</ele>
        <time>2017-09-23T10:33:42Z</time>
      </trkpt>
      <trkpt lat="44.55777" lon="1.38653">
        <ele>293</ele>
        <time>2017-09-23T10:34:02Z</time>
      </trkpt>
      <trkpt lat="44.55774" lon="1.38629">
        <ele>293</ele>
        <time>2017-09-23T10:34:14Z</time>
      </trkpt>
      <trkpt lat="44.55771" lon="1.38618">
        <ele>293</ele>
        <time>2017-09-23T10:34:19Z</time>
      </trkpt>
      <trkpt lat="44.5577" lon="1.38609">
        <ele>293</ele>
        <time>2017-09-23T10:34:25Z</time>
      </trkpt>
      <trkpt lat="44.55767" lon="1.38588">
        <ele>295</ele>
        <time>2017-09-23T10:34:37Z</time>
      </trkpt>
      <trkpt lat="44.55768" lon="1.38569">
        <ele>294</ele>
        <time>2017-09-23T10:34:47Z</time>
      </trkpt>
      <trkpt lat="44.55769" lon="1.38561">
        <ele>293</ele>
        <time>2017-09-23T10:34:52Z</time>
      </trkpt>
      <trkpt lat="44.55773" lon="1.38551">
        <ele>292</ele>
        <time>2017-09-23T10:34:58Z</time>
      </trkpt>
      <trkpt lat="44.55777" lon="1.38529">
        <ele>292</ele>
        <time>2017-09-23T10:35:10Z</time>
      </trkpt>
      <trkpt lat="44.55778" lon="1.38518">
        <ele>292</ele>
        <time>2017-09-23T10:35:17Z</time>
      </trkpt>
      <trkpt lat="44.55778" lon="1.38507">
        <ele>292</ele>
        <time>2017-09-23T10:35:22Z</time>
      </trkpt>
      <trkpt lat="44.55779" lon="1.38494">
        <ele>291</ele>
        <time>2017-09-23T10:35:28Z</time>
      </trkpt>
      <trkpt lat="44.5578" lon="1.38484">
        <ele>291</ele>
        <time>2017-09-23T10:35:33Z</time>
      </trkpt>
      <trkpt lat="44.55782" lon="1.38475">
        <ele>290</ele>
        <time>2017-09-23T10:35:39Z</time>
      </trkpt>
      <trkpt lat="44.55786" lon="1.38463">
        <ele>290</ele>
        <time>2017-09-23T10:35:46Z</time>
      </trkpt>
      <trkpt lat="44.55787" lon="1.38454">
        <ele>290</ele>
        <time>2017-09-23T10:35:51Z</time>
      </trkpt>
      <trkpt lat="44.55795" lon="1.38427">
        <ele>290</ele>
        <time>2017-09-23T10:36:07Z</time>
      </trkpt>
      <trkpt lat="44.55805" lon="1.38392">
        <ele>290</ele>
        <time>2017-09-23T10:36:29Z</time>
      </trkpt>
      <trkpt lat="44.55806" lon="1.38385">
        <ele>290</ele>
        <time>2017-09-23T10:36:34Z</time>
      </trkpt>
      <trkpt lat="44.55807" lon="1.38379">
        <ele>290</ele>
        <time>2017-09-23T10:36:44Z</time>
      </trkpt>
      <trkpt lat="44.55808" lon="1.38352">
        <ele>291</ele>
        <time>2017-09-23T10:37:05Z</time>
      </trkpt>
      <trkpt lat="44.55808" lon="1.38336">
        <ele>291</ele>
        <time>2017-09-23T10:37:15Z</time>
      </trkpt>
      <trkpt lat="44.55808" lon="1.38329">
        <ele>291</ele>
        <time>2017-09-23T10:37:20Z</time>
      </trkpt>
      <trkpt lat="44.5581" lon="1.38325">
        <ele>291</ele>
        <time>2017-09-23T10:37:24Z</time>
      </trkpt>
      <trkpt lat="44.55811" lon="1.38319">
        <ele>291</ele>
        <time>2017-09-23T10:37:28Z</time>
      </trkpt>
      <trkpt lat="44.55812" lon="1.38305">
        <ele>290</ele>
        <time>2017-09-23T10:37:37Z</time>
      </trkpt>
      <trkpt lat="44.5581" lon="1.38308">
        <ele>290</ele>
        <time>2017-09-23T10:37:46Z</time>
      </trkpt>
      <trkpt lat="44.5581" lon="1.38311">
        <ele>290</ele>
        <time>2017-09-23T10:37:48Z</time>
      </trkpt>
      <trkpt lat="44.55809" lon="1.38315">
        <ele>290</ele>
        <time>2017-09-23T10:37:51Z</time>
      </trkpt>
      <trkpt lat="44.55807" lon="1.38317">
        <ele>290</ele>
        <time>2017-09-23T10:37:54Z</time>
      </trkpt>
      <trkpt lat="44.55805" lon="1.38318">
        <ele>290</ele>
        <time>2017-09-23T10:37:56Z</time>
      </trkpt>
      <trkpt lat="44.55802" lon="1.38319">
        <ele>290</ele>
        <time>2017-09-23T10:37:59Z</time>
      </trkpt>
      <trkpt lat="44.558" lon="1.38319">
        <ele>290</ele>
        <time>2017-09-23T10:38:01Z</time>
      </trkpt>
      <trkpt lat="44.55798" lon="1.38318">
        <ele>290</ele>
        <time>2017-09-23T10:38:03Z</time>
      </trkpt>
      <trkpt lat="44.55795" lon="1.38319">
        <ele>290</ele>
        <time>2017-09-23T10:38:06Z</time>
      </trkpt>
      <trkpt lat="44.55793" lon="1.38317">
        <ele>290</ele>
        <time>2017-09-23T10:38:09Z</time>
      </trkpt>
      <trkpt lat="44.55791" lon="1.38317">
        <ele>290</ele>
        <time>2017-09-23T10:38:11Z</time>
      </trkpt>
      <trkpt lat="44.55788" lon="1.38317">
        <ele>290</ele>
        <time>2017-09-23T10:38:13Z</time>
      </trkpt>
      <trkpt lat="44.55758" lon="1.38302">
        <ele>290</ele>
        <time>2017-09-23T10:38:44Z</time>
      </trkpt>
      <trkpt lat="44.55746" lon="1.38295">
        <ele>285</ele>
        <time>2017-09-23T10:38:56Z</time>
      </trkpt>
      <trkpt lat="44.55744" lon="1.38294">
        <ele>285</ele>
        <time>2017-09-23T10:38:58Z</time>
      </trkpt>
      <trkpt lat="44.55712" lon="1.38279">
        <ele>283</ele>
        <time>2017-09-23T10:39:29Z</time>
      </trkpt>
      <trkpt lat="44.55692" lon="1.3827">
        <ele>281</ele>
        <time>2017-09-23T10:39:44Z</time>
      </trkpt>
      <trkpt lat="44.55687" lon="1.38264">
        <ele>281</ele>
        <time>2017-09-23T10:39:50Z</time>
      </trkpt>
      <trkpt lat="44.55685" lon="1.38261">
        <ele>280</ele>
        <time>2017-09-23T10:39:53Z</time>
      </trkpt>
      <trkpt lat="44.55685" lon="1.38255">
        <ele>280</ele>
        <time>2017-09-23T10:39:57Z</time>
      </trkpt>
      <trkpt lat="44.55686" lon="1.38248">
        <ele>279</ele>
        <time>2017-09-23T10:40:01Z</time>
      </trkpt>
      <trkpt lat="44.55687" lon="1.38242">
        <ele>279</ele>
        <time>2017-09-23T10:40:06Z</time>
      </trkpt>
      <trkpt lat="44.55687" lon="1.38195">
        <ele>279</ele>
        <time>2017-09-23T10:40:33Z</time>
      </trkpt>
      <trkpt lat="44.55687" lon="1.38189">
        <ele>279</ele>
        <time>2017-09-23T10:40:36Z</time>
      </trkpt>
      <trkpt lat="44.55687" lon="1.38178">
        <ele>278</ele>
        <time>2017-09-23T10:40:42Z</time>
      </trkpt>
      <trkpt lat="44.55681" lon="1.3814">
        <ele>279</ele>
        <time>2017-09-23T10:41:05Z</time>
      </trkpt>
      <trkpt lat="44.55679" lon="1.38135">
        <ele>279</ele>
        <time>2017-09-23T10:41:09Z</time>
      </trkpt>
      <trkpt lat="44.55678" lon="1.38129">
        <ele>279</ele>
        <time>2017-09-23T10:41:13Z</time>
      </trkpt>
      <trkpt lat="44.55677" lon="1.38123">
        <ele>279</ele>
        <time>2017-09-23T10:41:17Z</time>
      </trkpt>
      <trkpt lat="44.5567" lon="1.38098">
        <ele>279</ele>
        <time>2017-09-23T10:41:32Z</time>
      </trkpt>
      <trkpt lat="44.55666" lon="1.38086">
        <ele>278</ele>
        <time>2017-09-23T10:41:39Z</time>
      </trkpt>
      <trkpt lat="44.55654" lon="1.38061">
        <ele>275</ele>
        <time>2017-09-23T10:41:55Z</time>
      </trkpt>
      <trkpt lat="44.55649" lon="1.38048">
        <ele>275</ele>
        <time>2017-09-23T10:42:03Z</time>
      </trkpt>
      <trkpt lat="44.55645" lon="1.38037">
        <ele>274</ele>
        <time>2017-09-23T10:42:10Z</time>
      </trkpt>
      <trkpt lat="44.55639" lon="1.38023">
        <ele>274</ele>
        <time>2017-09-23T10:42:20Z</time>
      </trkpt>
      <trkpt lat="44.55634" lon="1.3801">
        <ele>274</ele>
        <time>2017-09-23T10:42:30Z</time>
      </trkpt>
      <trkpt lat="44.5563" lon="1.38001">
        <ele>274</ele>
        <time>2017-09-23T10:42:36Z</time>
      </trkpt>
      <trkpt lat="44.55626" lon="1.37993">
        <ele>274</ele>
        <time>2017-09-23T10:42:42Z</time>
      </trkpt>
      <trkpt lat="44.55624" lon="1.37988">
        <ele>273</ele>
        <time>2017-09-23T10:42:45Z</time>
      </trkpt>
      <trkpt lat="44.55623" lon="1.37984">
        <ele>273</ele>
        <time>2017-09-23T10:42:48Z</time>
      </trkpt>
      <trkpt lat="44.55621" lon="1.37981">
        <ele>273</ele>
        <time>2017-09-23T10:42:50Z</time>
      </trkpt>
      <trkpt lat="44.5562" lon="1.37978">
        <ele>273</ele>
        <time>2017-09-23T10:42:52Z</time>
      </trkpt>
      <trkpt lat="44.55615" lon="1.37967">
        <ele>273</ele>
        <time>2017-09-23T10:42:58Z</time>
      </trkpt>
      <trkpt lat="44.55614" lon="1.37964">
        <ele>273</ele>
        <time>2017-09-23T10:43:00Z</time>
      </trkpt>
      <trkpt lat="44.5561" lon="1.37955">
        <ele>273</ele>
        <time>2017-09-23T10:43:06Z</time>
      </trkpt>
      <trkpt lat="44.55609" lon="1.37952">
        <ele>273</ele>
        <time>2017-09-23T10:43:08Z</time>
      </trkpt>
      <trkpt lat="44.55605" lon="1.37946">
        <ele>273</ele>
        <time>2017-09-23T10:43:13Z</time>
      </trkpt>
      <trkpt lat="44.556" lon="1.37934">
        <ele>273</ele>
        <time>2017-09-23T10:43:22Z</time>
      </trkpt>
      <trkpt lat="44.55598" lon="1.37931">
        <ele>273</ele>
        <time>2017-09-23T10:43:24Z</time>
      </trkpt>
      <trkpt lat="44.55596" lon="1.37929">
        <ele>272</ele>
        <time>2017-09-23T10:43:26Z</time>
      </trkpt>
      <trkpt lat="44.55588" lon="1.37906">
        <ele>272</ele>
        <time>2017-09-23T10:43:42Z</time>
      </trkpt>
      <trkpt lat="44.55574" lon="1.3788">
        <ele>269</ele>
        <time>2017-09-23T10:44:00Z</time>
      </trkpt>
      <trkpt lat="44.55565" lon="1.37857">
        <ele>268</ele>
        <time>2017-09-23T10:44:17Z</time>
      </trkpt>
      <trkpt lat="44.55562" lon="1.37853">
        <ele>268</ele>
        <time>2017-09-23T10:44:20Z</time>
      </trkpt>
      <trkpt lat="44.55556" lon="1.37845">
        <ele>268</ele>
        <time>2017-09-23T10:44:28Z</time>
      </trkpt>
      <trkpt lat="44.55553" lon="1.37841">
        <ele>268</ele>
        <time>2017-09-23T10:44:32Z</time>
      </trkpt>
      <trkpt lat="44.55551" lon="1.3784">
        <ele>268</ele>
        <time>2017-09-23T10:44:36Z</time>
      </trkpt>
      <trkpt lat="44.55549" lon="1.37839">
        <ele>268</ele>
        <time>2017-09-23T10:44:38Z</time>
      </trkpt>
      <trkpt lat="44.55524" lon="1.37819">
        <ele>269</ele>
        <time>2017-09-23T10:45:05Z</time>
      </trkpt>
      <trkpt lat="44.55522" lon="1.37815">
        <ele>269</ele>
        <time>2017-09-23T10:45:08Z</time>
      </trkpt>
      <trkpt lat="44.55513" lon="1.37793">
        <ele>269</ele>
        <time>2017-09-23T10:45:25Z</time>
      </trkpt>
      <trkpt lat="44.55508" lon="1.37781">
        <ele>270</ele>
        <time>2017-09-23T10:45:32Z</time>
      </trkpt>
      <trkpt lat="44.55504" lon="1.37778">
        <ele>270</ele>
        <time>2017-09-23T10:45:36Z</time>
      </trkpt>
      <trkpt lat="44.55501" lon="1.37773">
        <ele>270</ele>
        <time>2017-09-23T10:45:40Z</time>
      </trkpt>
      <trkpt lat="44.55493" lon="1.37757">
        <ele>269</ele>
        <time>2017-09-23T10:45:53Z</time>
      </trkpt>
      <trkpt lat="44.55492" lon="1.3775">
        <ele>270</ele>
        <time>2017-09-23T10:45:58Z</time>
      </trkpt>
      <trkpt lat="44.55483" lon="1.37741">
        <ele>270</ele>
        <time>2017-09-23T10:46:09Z</time>
      </trkpt>
      <trkpt lat="44.55482" lon="1.37732">
        <ele>269</ele>
        <time>2017-09-23T10:47:26Z</time>
      </trkpt>
      <trkpt lat="44.55478" lon="1.37732">
        <ele>269</ele>
        <time>2017-09-23T10:49:06Z</time>
      </trkpt>
      <trkpt lat="44.55478" lon="1.37732">
        <ele>269</ele>
        <time>2017-09-23T10:49:06Z</time>
      </trkpt>
      <trkpt lat="44.55479" lon="1.37726">
        <ele>269</ele>
        <time>2017-09-23T10:50:36Z</time>
      </trkpt>
      <trkpt lat="44.55484" lon="1.37731">
        <ele>269</ele>
        <time>2017-09-23T10:51:31Z</time>
      </trkpt>
      <trkpt lat="44.55484" lon="1.37738">
        <ele>270</ele>
        <time>2017-09-23T10:51:43Z</time>
      </trkpt>
      <trkpt lat="44.55488" lon="1.37743">
        <ele>270</ele>
        <time>2017-09-23T10:51:48Z</time>
      </trkpt>
      <trkpt lat="44.55488" lon="1.37745">
        <ele>270</ele>
        <time>2017-09-23T11:03:33Z</time>
      </trkpt>
      <trkpt lat="44.55488" lon="1.3774">
        <ele>270</ele>
        <time>2017-09-23T11:18:21Z</time>
      </trkpt>
      <trkpt lat="44.55485" lon="1.37738">
        <ele>270</ele>
        <time>2017-09-23T11:18:34Z</time>
      </trkpt>
      <trkpt lat="44.55481" lon="1.37734">
        <ele>269</ele>
        <time>2017-09-23T11:18:40Z</time>
      </trkpt>
      <trkpt lat="44.55478" lon="1.3773">
        <ele>269</ele>
        <time>2017-09-23T11:18:45Z</time>
      </trkpt>
      <trkpt lat="44.55473" lon="1.37726">
        <ele>269</ele>
        <time>2017-09-23T11:18:53Z</time>
      </trkpt>
      <trkpt lat="44.55469" lon="1.37729">
        <ele>269</ele>
        <time>2017-09-23T11:19:25Z</time>
      </trkpt>
      <trkpt lat="44.55467" lon="1.37724">
        <ele>269</ele>
        <time>2017-09-23T11:21:18Z</time>
      </trkpt>
      <trkpt lat="44.55468" lon="1.37718">
        <ele>269</ele>
        <time>2017-09-23T11:24:22Z</time>
      </trkpt>
      <trkpt lat="44.55464" lon="1.37715">
        <ele>269</ele>
        <time>2017-09-23T11:24:26Z</time>
      </trkpt>
      <trkpt lat="44.55461" lon="1.37709">
        <ele>269</ele>
        <time>2017-09-23T11:24:31Z</time>
      </trkpt>
      <trkpt lat="44.55457" lon="1.37706">
        <ele>269</ele>
        <time>2017-09-23T11:24:35Z</time>
      </trkpt>
      <trkpt lat="44.55453" lon="1.37701">
        <ele>269</ele>
        <time>2017-09-23T11:24:40Z</time>
      </trkpt>
      <trkpt lat="44.5544" lon="1.37691">
        <ele>269</ele>
        <time>2017-09-23T11:24:53Z</time>
      </trkpt>
      <trkpt lat="44.55432" lon="1.37683">
        <ele>269</ele>
        <time>2017-09-23T11:25:02Z</time>
      </trkpt>
      <trkpt lat="44.55429" lon="1.37677">
        <ele>270</ele>
        <time>2017-09-23T11:25:07Z</time>
      </trkpt>
      <trkpt lat="44.55428" lon="1.37671">
        <ele>270</ele>
        <time>2017-09-23T11:25:12Z</time>
      </trkpt>
      <trkpt lat="44.55425" lon="1.37666">
        <ele>271</ele>
        <time>2017-09-23T11:25:15Z</time>
      </trkpt>
      <trkpt lat="44.55421" lon="1.37653">
        <ele>271</ele>
        <time>2017-09-23T11:25:24Z</time>
      </trkpt>
      <trkpt lat="44.55412" lon="1.37625">
        <ele>272</ele>
        <time>2017-09-23T11:25:43Z</time>
      </trkpt>
      <trkpt lat="44.5541" lon="1.37619">
        <ele>272</ele>
        <time>2017-09-23T11:25:47Z</time>
      </trkpt>
      <trkpt lat="44.55408" lon="1.37607">
        <ele>273</ele>
        <time>2017-09-23T11:25:55Z</time>
      </trkpt>
      <trkpt lat="44.55407" lon="1.376">
        <ele>273</ele>
        <time>2017-09-23T11:26:00Z</time>
      </trkpt>
      <trkpt lat="44.55405" lon="1.37597">
        <ele>274</ele>
        <time>2017-09-23T11:26:22Z</time>
      </trkpt>
      <trkpt lat="44.55405" lon="1.37601">
        <ele>273</ele>
        <time>2017-09-23T11:26:26Z</time>
      </trkpt>
      <trkpt lat="44.55407" lon="1.37604">
        <ele>273</ele>
        <time>2017-09-23T11:26:29Z</time>
      </trkpt>
      <trkpt lat="44.55408" lon="1.37612">
        <ele>273</ele>
        <time>2017-09-23T11:26:35Z</time>
      </trkpt>
      <trkpt lat="44.55408" lon="1.37614">
        <ele>273</ele>
        <time>2017-09-23T11:26:50Z</time>
      </trkpt>
      <trkpt lat="44.55405" lon="1.37615">
        <ele>272</ele>
        <time>2017-09-23T11:27:10Z</time>
      </trkpt>
      <trkpt lat="44.55407" lon="1.37617">
        <ele>272</ele>
        <time>2017-09-23T11:27:12Z</time>
      </trkpt>
      <trkpt lat="44.55413" lon="1.37645">
        <ele>271</ele>
        <time>2017-09-23T11:27:20Z</time>
      </trkpt>
      <trkpt lat="44.55417" lon="1.37649">
        <ele>271</ele>
        <time>2017-09-23T11:27:24Z</time>
      </trkpt>
      <trkpt lat="44.55417" lon="1.37652">
        <ele>271</ele>
        <time>2017-09-23T11:27:58Z</time>
      </trkpt>
      <trkpt lat="44.55422" lon="1.37669">
        <ele>270</ele>
        <time>2017-09-23T11:28:08Z</time>
      </trkpt>
      <trkpt lat="44.55434" lon="1.37685">
        <ele>269</ele>
        <time>2017-09-23T11:28:21Z</time>
      </trkpt>
      <trkpt lat="44.55436" lon="1.37687">
        <ele>269</ele>
        <time>2017-09-23T11:28:23Z</time>
      </trkpt>
      <trkpt lat="44.55449" lon="1.37698">
        <ele>269</ele>
        <time>2017-09-23T11:28:35Z</time>
      </trkpt>
      <trkpt lat="44.55455" lon="1.37704">
        <ele>269</ele>
        <time>2017-09-23T11:28:41Z</time>
      </trkpt>
      <trkpt lat="44.55454" lon="1.37702">
        <ele>269</ele>
        <time>2017-09-23T11:29:03Z</time>
      </trkpt>
      <trkpt lat="44.55451" lon="1.37699">
        <ele>269</ele>
        <time>2017-09-23T11:29:06Z</time>
      </trkpt>
      <trkpt lat="44.55432" lon="1.37681">
        <ele>270</ele>
        <time>2017-09-23T11:29:25Z</time>
      </trkpt>
      <trkpt lat="44.55419" lon="1.37657">
        <ele>271</ele>
        <time>2017-09-23T11:29:47Z</time>
      </trkpt>
      <trkpt lat="44.55418" lon="1.37652">
        <ele>271</ele>
        <time>2017-09-23T11:29:50Z</time>
      </trkpt>
      <trkpt lat="44.55416" lon="1.37647">
        <ele>271</ele>
        <time>2017-09-23T11:29:53Z</time>
      </trkpt>
      <trkpt lat="44.55413" lon="1.37633">
        <ele>272</ele>
        <time>2017-09-23T11:30:03Z</time>
      </trkpt>
      <trkpt lat="44.55411" lon="1.3763">
        <ele>272</ele>
        <time>2017-09-23T11:30:08Z</time>
      </trkpt>
      <trkpt lat="44.5541" lon="1.37626">
        <ele>272</ele>
        <time>2017-09-23T11:30:11Z</time>
      </trkpt>
      <trkpt lat="44.5541" lon="1.37622">
        <ele>272</ele>
        <time>2017-09-23T11:30:14Z</time>
      </trkpt>
      <trkpt lat="44.55409" lon="1.37617">
        <ele>272</ele>
        <time>2017-09-23T11:30:21Z</time>
      </trkpt>
      <trkpt lat="44.55409" lon="1.37613">
        <ele>273</ele>
        <time>2017-09-23T11:30:34Z</time>
      </trkpt>
      <trkpt lat="44.55404" lon="1.37591">
        <ele>274</ele>
        <time>2017-09-23T11:30:52Z</time>
      </trkpt>
      <trkpt lat="44.55401" lon="1.3758">
        <ele>275</ele>
        <time>2017-09-23T11:30:58Z</time>
      </trkpt>
      <trkpt lat="44.55399" lon="1.37573">
        <ele>275</ele>
        <time>2017-09-23T11:31:03Z</time>
      </trkpt>
      <trkpt lat="44.55398" lon="1.37569">
        <ele>275</ele>
        <time>2017-09-23T11:31:06Z</time>
      </trkpt>
      <trkpt lat="44.55395" lon="1.37555">
        <ele>275</ele>
        <time>2017-09-23T11:31:16Z</time>
      </trkpt>
      <trkpt lat="44.55394" lon="1.3755">
        <ele>275</ele>
        <time>2017-09-23T11:31:19Z</time>
      </trkpt>
      <trkpt lat="44.55393" lon="1.3754">
        <ele>275</ele>
        <time>2017-09-23T11:31:28Z</time>
      </trkpt>
      <trkpt lat="44.55392" lon="1.37535">
        <ele>275</ele>
        <time>2017-09-23T11:31:31Z</time>
      </trkpt>
      <trkpt lat="44.5539" lon="1.37511">
        <ele>275</ele>
        <time>2017-09-23T11:31:48Z</time>
      </trkpt>
      <trkpt lat="44.55389" lon="1.37506">
        <ele>275</ele>
        <time>2017-09-23T11:31:51Z</time>
      </trkpt>
      <trkpt lat="44.55389" lon="1.375">
        <ele>277</ele>
        <time>2017-09-23T11:31:55Z</time>
      </trkpt>
      <trkpt lat="44.5539" lon="1.37496">
        <ele>277</ele>
        <time>2017-09-23T11:32:05Z</time>
      </trkpt>
      <trkpt lat="44.55386" lon="1.37495">
        <ele>277</ele>
        <time>2017-09-23T11:32:27Z</time>
      </trkpt>
      <trkpt lat="44.55385" lon="1.37492">
        <ele>277</ele>
        <time>2017-09-23T11:32:35Z</time>
      </trkpt>
      <trkpt lat="44.55386" lon="1.37492">
        <ele>277</ele>
        <time>2017-09-23T11:33:37Z</time>
      </trkpt>
      <trkpt lat="44.55386" lon="1.37491">
        <ele>277</ele>
        <time>2017-09-23T11:33:37Z</time>
      </trkpt>
      <trkpt lat="44.55386" lon="1.37488">
        <ele>277</ele>
        <time>2017-09-23T11:33:39Z</time>
      </trkpt>
      <trkpt lat="44.55382" lon="1.37483">
        <ele>277</ele>
        <time>2017-09-23T11:33:43Z</time>
      </trkpt>
      <trkpt lat="44.55381" lon="1.3748">
        <ele>277</ele>
        <time>2017-09-23T11:33:45Z</time>
      </trkpt>
      <trkpt lat="44.5538" lon="1.37477">
        <ele>277</ele>
        <time>2017-09-23T11:33:47Z</time>
      </trkpt>
      <trkpt lat="44.55379" lon="1.37475">
        <ele>277</ele>
        <time>2017-09-23T11:33:49Z</time>
      </trkpt>
      <trkpt lat="44.55365" lon="1.3743">
        <ele>278</ele>
        <time>2017-09-23T11:34:20Z</time>
      </trkpt>
      <trkpt lat="44.55362" lon="1.37419">
        <ele>278</ele>
        <time>2017-09-23T11:34:26Z</time>
      </trkpt>
      <trkpt lat="44.55357" lon="1.37402">
        <ele>281</ele>
        <time>2017-09-23T11:34:37Z</time>
      </trkpt>
      <trkpt lat="44.55355" lon="1.37393">
        <ele>281</ele>
        <time>2017-09-23T11:34:43Z</time>
      </trkpt>
      <trkpt lat="44.5533" lon="1.3735">
        <ele>285</ele>
        <time>2017-09-23T11:35:13Z</time>
      </trkpt>
      <trkpt lat="44.55299" lon="1.37327">
        <ele>288</ele>
        <time>2017-09-23T11:35:41Z</time>
      </trkpt>
      <trkpt lat="44.55264" lon="1.37309">
        <ele>291</ele>
        <time>2017-09-23T11:36:12Z</time>
      </trkpt>
      <trkpt lat="44.55258" lon="1.37308">
        <ele>291</ele>
        <time>2017-09-23T11:36:17Z</time>
      </trkpt>
      <trkpt lat="44.55254" lon="1.37306">
        <ele>291</ele>
        <time>2017-09-23T11:36:20Z</time>
      </trkpt>
      <trkpt lat="44.5525" lon="1.37304">
        <ele>291</ele>
        <time>2017-09-23T11:36:23Z</time>
      </trkpt>
      <trkpt lat="44.55241" lon="1.37301">
        <ele>296</ele>
        <time>2017-09-23T11:36:32Z</time>
      </trkpt>
      <trkpt lat="44.55238" lon="1.37299">
        <ele>296</ele>
        <time>2017-09-23T11:36:35Z</time>
      </trkpt>
      <trkpt lat="44.55235" lon="1.37297">
        <ele>296</ele>
        <time>2017-09-23T11:36:42Z</time>
      </trkpt>
      <trkpt lat="44.55232" lon="1.37294">
        <ele>296</ele>
        <time>2017-09-23T11:36:53Z</time>
      </trkpt>
      <trkpt lat="44.55228" lon="1.37293">
        <ele>297</ele>
        <time>2017-09-23T11:37:00Z</time>
      </trkpt>
      <trkpt lat="44.55217" lon="1.37292">
        <ele>297</ele>
        <time>2017-09-23T11:37:09Z</time>
      </trkpt>
      <trkpt lat="44.55202" lon="1.37293">
        <ele>297</ele>
        <time>2017-09-23T11:37:24Z</time>
      </trkpt>
      <trkpt lat="44.55191" lon="1.37292">
        <ele>298</ele>
        <time>2017-09-23T11:37:32Z</time>
      </trkpt>
      <trkpt lat="44.55188" lon="1.37291">
        <ele>298</ele>
        <time>2017-09-23T11:37:35Z</time>
      </trkpt>
      <trkpt lat="44.55183" lon="1.37292">
        <ele>298</ele>
        <time>2017-09-23T11:37:40Z</time>
      </trkpt>
      <trkpt lat="44.5518" lon="1.37294">
        <ele>298</ele>
        <time>2017-09-23T11:37:43Z</time>
      </trkpt>
      <trkpt lat="44.55167" lon="1.37299">
        <ele>304</ele>
        <time>2017-09-23T11:37:53Z</time>
      </trkpt>
      <trkpt lat="44.55152" lon="1.37302">
        <ele>304</ele>
        <time>2017-09-23T11:38:03Z</time>
      </trkpt>
      <trkpt lat="44.55145" lon="1.37302">
        <ele>305</ele>
        <time>2017-09-23T11:38:09Z</time>
      </trkpt>
      <trkpt lat="44.55142" lon="1.37301">
        <ele>305</ele>
        <time>2017-09-23T11:38:13Z</time>
      </trkpt>
      <trkpt lat="44.55131" lon="1.37299">
        <ele>306</ele>
        <time>2017-09-23T11:38:21Z</time>
      </trkpt>
      <trkpt lat="44.55112" lon="1.37299">
        <ele>307</ele>
        <time>2017-09-23T11:38:36Z</time>
      </trkpt>
      <trkpt lat="44.55109" lon="1.37298">
        <ele>307</ele>
        <time>2017-09-23T11:38:39Z</time>
      </trkpt>
      <trkpt lat="44.55105" lon="1.37295">
        <ele>308</ele>
        <time>2017-09-23T11:38:44Z</time>
      </trkpt>
      <trkpt lat="44.55102" lon="1.37292">
        <ele>308</ele>
        <time>2017-09-23T11:38:47Z</time>
      </trkpt>
      <trkpt lat="44.55099" lon="1.37287">
        <ele>308</ele>
        <time>2017-09-23T11:38:49Z</time>
      </trkpt>
      <trkpt lat="44.55096" lon="1.37278">
        <ele>309</ele>
        <time>2017-09-23T11:38:53Z</time>
      </trkpt>
      <trkpt lat="44.55095" lon="1.37269">
        <ele>310</ele>
        <time>2017-09-23T11:38:58Z</time>
      </trkpt>
      <trkpt lat="44.55096" lon="1.3725">
        <ele>311</ele>
        <time>2017-09-23T11:39:10Z</time>
      </trkpt>
      <trkpt lat="44.551" lon="1.37229">
        <ele>309</ele>
        <time>2017-09-23T11:39:24Z</time>
      </trkpt>
      <trkpt lat="44.55097" lon="1.3721">
        <ele>309</ele>
        <time>2017-09-23T11:39:36Z</time>
      </trkpt>
      <trkpt lat="44.55096" lon="1.37205">
        <ele>309</ele>
        <time>2017-09-23T11:39:39Z</time>
      </trkpt>
      <trkpt lat="44.55097" lon="1.37199">
        <ele>309</ele>
        <time>2017-09-23T11:39:43Z</time>
      </trkpt>
      <trkpt lat="44.55098" lon="1.37181">
        <ele>310</ele>
        <time>2017-09-23T11:39:55Z</time>
      </trkpt>
      <trkpt lat="44.551" lon="1.37168">
        <ele>310</ele>
        <time>2017-09-23T11:40:03Z</time>
      </trkpt>
      <trkpt lat="44.55107" lon="1.3715">
        <ele>309</ele>
        <time>2017-09-23T11:40:15Z</time>
      </trkpt>
      <trkpt lat="44.55109" lon="1.37142">
        <ele>308</ele>
        <time>2017-09-23T11:40:21Z</time>
      </trkpt>
      <trkpt lat="44.5511" lon="1.37134">
        <ele>308</ele>
        <time>2017-09-23T11:40:29Z</time>
      </trkpt>
      <trkpt lat="44.55111" lon="1.37128">
        <ele>308</ele>
        <time>2017-09-23T11:40:35Z</time>
      </trkpt>
      <trkpt lat="44.55112" lon="1.37122">
        <ele>308</ele>
        <time>2017-09-23T11:40:41Z</time>
      </trkpt>
      <trkpt lat="44.55114" lon="1.37114">
        <ele>307</ele>
        <time>2017-09-23T11:40:47Z</time>
      </trkpt>
      <trkpt lat="44.55117" lon="1.37107">
        <ele>307</ele>
        <time>2017-09-23T11:40:53Z</time>
      </trkpt>
      <trkpt lat="44.55119" lon="1.37101">
        <ele>307</ele>
        <time>2017-09-23T11:40:56Z</time>
      </trkpt>
      <trkpt lat="44.55121" lon="1.37094">
        <ele>307</ele>
        <time>2017-09-23T11:41:00Z</time>
      </trkpt>
      <trkpt lat="44.55124" lon="1.37086">
        <ele>307</ele>
        <time>2017-09-23T11:41:05Z</time>
      </trkpt>
      <trkpt lat="44.55124" lon="1.3708">
        <ele>308</ele>
        <time>2017-09-23T11:41:09Z</time>
      </trkpt>
      <trkpt lat="44.55126" lon="1.37074">
        <ele>308</ele>
        <time>2017-09-23T11:41:12Z</time>
      </trkpt>
      <trkpt lat="44.55127" lon="1.37067">
        <ele>308</ele>
        <time>2017-09-23T11:41:16Z</time>
      </trkpt>
      <trkpt lat="44.55128" lon="1.3706">
        <ele>308</ele>
        <time>2017-09-23T11:41:20Z</time>
      </trkpt>
      <trkpt lat="44.55128" lon="1.37054">
        <ele>308</ele>
        <time>2017-09-23T11:41:23Z</time>
      </trkpt>
      <trkpt lat="44.55129" lon="1.37047">
        <ele>308</ele>
        <time>2017-09-23T11:41:26Z</time>
      </trkpt>
      <trkpt lat="44.55131" lon="1.37042">
        <ele>308</ele>
        <time>2017-09-23T11:41:28Z</time>
      </trkpt>
      <trkpt lat="44.55133" lon="1.37036">
        <ele>308</ele>
        <time>2017-09-23T11:41:33Z</time>
      </trkpt>
      <trkpt lat="44.55136" lon="1.37031">
        <ele>309</ele>
        <time>2017-09-23T11:41:39Z</time>
      </trkpt>
      <trkpt lat="44.5514" lon="1.37024">
        <ele>309</ele>
        <time>2017-09-23T11:41:43Z</time>
      </trkpt>
      <trkpt lat="44.55143" lon="1.37018">
        <ele>309</ele>
        <time>2017-09-23T11:41:47Z</time>
      </trkpt>
      <trkpt lat="44.55155" lon="1.36999">
        <ele>312</ele>
        <time>2017-09-23T11:41:59Z</time>
      </trkpt>
      <trkpt lat="44.55163" lon="1.36973">
        <ele>312</ele>
        <time>2017-09-23T11:42:13Z</time>
      </trkpt>
      <trkpt lat="44.55165" lon="1.36967">
        <ele>312</ele>
        <time>2017-09-23T11:42:17Z</time>
      </trkpt>
      <trkpt lat="44.55167" lon="1.36951">
        <ele>312</ele>
        <time>2017-09-23T11:42:26Z</time>
      </trkpt>
      <trkpt lat="44.5517" lon="1.36939">
        <ele>313</ele>
        <time>2017-09-23T11:42:36Z</time>
      </trkpt>
      <trkpt lat="44.55172" lon="1.36931">
        <ele>314</ele>
        <time>2017-09-23T11:42:43Z</time>
      </trkpt>
      <trkpt lat="44.5518" lon="1.36917">
        <ele>314</ele>
        <time>2017-09-23T11:42:54Z</time>
      </trkpt>
      <trkpt lat="44.55183" lon="1.36903">
        <ele>316</ele>
        <time>2017-09-23T11:43:02Z</time>
      </trkpt>
      <trkpt lat="44.55185" lon="1.3688">
        <ele>315</ele>
        <time>2017-09-23T11:43:12Z</time>
      </trkpt>
      <trkpt lat="44.55185" lon="1.36873">
        <ele>315</ele>
        <time>2017-09-23T11:43:15Z</time>
      </trkpt>
      <trkpt lat="44.55186" lon="1.36866">
        <ele>316</ele>
        <time>2017-09-23T11:43:19Z</time>
      </trkpt>
      <trkpt lat="44.55186" lon="1.36845">
        <ele>316</ele>
        <time>2017-09-23T11:43:32Z</time>
      </trkpt>
      <trkpt lat="44.55186" lon="1.36838">
        <ele>316</ele>
        <time>2017-09-23T11:43:36Z</time>
      </trkpt>
      <trkpt lat="44.55187" lon="1.3682">
        <ele>317</ele>
        <time>2017-09-23T11:43:46Z</time>
      </trkpt>
      <trkpt lat="44.55188" lon="1.36815">
        <ele>317</ele>
        <time>2017-09-23T11:43:51Z</time>
      </trkpt>
      <trkpt lat="44.55192" lon="1.3681">
        <ele>317</ele>
        <time>2017-09-23T11:43:54Z</time>
      </trkpt>
      <trkpt lat="44.55193" lon="1.36805">
        <ele>317</ele>
        <time>2017-09-23T11:43:59Z</time>
      </trkpt>
      <trkpt lat="44.55195" lon="1.36799">
        <ele>317</ele>
        <time>2017-09-23T11:44:09Z</time>
      </trkpt>
      <trkpt lat="44.55195" lon="1.36794">
        <ele>317</ele>
        <time>2017-09-23T11:44:13Z</time>
      </trkpt>
      <trkpt lat="44.55196" lon="1.36787">
        <ele>317</ele>
        <time>2017-09-23T11:44:16Z</time>
      </trkpt>
      <trkpt lat="44.55196" lon="1.36781">
        <ele>317</ele>
        <time>2017-09-23T11:44:20Z</time>
      </trkpt>
      <trkpt lat="44.55197" lon="1.36775">
        <ele>317</ele>
        <time>2017-09-23T11:44:25Z</time>
      </trkpt>
      <trkpt lat="44.55199" lon="1.3677">
        <ele>317</ele>
        <time>2017-09-23T11:44:29Z</time>
      </trkpt>
      <trkpt lat="44.55201" lon="1.36766">
        <ele>317</ele>
        <time>2017-09-23T11:44:33Z</time>
      </trkpt>
      <trkpt lat="44.55201" lon="1.36761">
        <ele>317</ele>
        <time>2017-09-23T11:44:36Z</time>
      </trkpt>
      <trkpt lat="44.55202" lon="1.36757">
        <ele>317</ele>
        <time>2017-09-23T11:44:38Z</time>
      </trkpt>
      <trkpt lat="44.55204" lon="1.36755">
        <ele>316</ele>
        <time>2017-09-23T11:44:40Z</time>
      </trkpt>
      <trkpt lat="44.55205" lon="1.36751">
        <ele>316</ele>
        <time>2017-09-23T11:44:43Z</time>
      </trkpt>
      <trkpt lat="44.55221" lon="1.36731">
        <ele>315</ele>
        <time>2017-09-23T11:45:02Z</time>
      </trkpt>
      <trkpt lat="44.55225" lon="1.36727">
        <ele>315</ele>
        <time>2017-09-23T11:45:07Z</time>
      </trkpt>
      <trkpt lat="44.55238" lon="1.36714">
        <ele>315</ele>
        <time>2017-09-23T11:45:19Z</time>
      </trkpt>
      <trkpt lat="44.55241" lon="1.36708">
        <ele>315</ele>
        <time>2017-09-23T11:45:24Z</time>
      </trkpt>
      <trkpt lat="44.55246" lon="1.36703">
        <ele>315</ele>
        <time>2017-09-23T11:45:31Z</time>
      </trkpt>
      <trkpt lat="44.55254" lon="1.36692">
        <ele>311</ele>
        <time>2017-09-23T11:45:42Z</time>
      </trkpt>
      <trkpt lat="44.55259" lon="1.36688">
        <ele>311</ele>
        <time>2017-09-23T11:45:48Z</time>
      </trkpt>
      <trkpt lat="44.55263" lon="1.3668">
        <ele>311</ele>
        <time>2017-09-23T11:45:53Z</time>
      </trkpt>
      <trkpt lat="44.55267" lon="1.36675">
        <ele>311</ele>
        <time>2017-09-23T11:45:57Z</time>
      </trkpt>
      <trkpt lat="44.5527" lon="1.36669">
        <ele>311</ele>
        <time>2017-09-23T11:46:02Z</time>
      </trkpt>
      <trkpt lat="44.55275" lon="1.36666">
        <ele>310</ele>
        <time>2017-09-23T11:46:10Z</time>
      </trkpt>
      <trkpt lat="44.55278" lon="1.36661">
        <ele>309</ele>
        <time>2017-09-23T11:46:16Z</time>
      </trkpt>
      <trkpt lat="44.55282" lon="1.36658">
        <ele>309</ele>
        <time>2017-09-23T11:46:18Z</time>
      </trkpt>
      <trkpt lat="44.55286" lon="1.36652">
        <ele>308</ele>
        <time>2017-09-23T11:46:23Z</time>
      </trkpt>
      <trkpt lat="44.55287" lon="1.36645">
        <ele>308</ele>
        <time>2017-09-23T11:46:29Z</time>
      </trkpt>
      <trkpt lat="44.55292" lon="1.36631">
        <ele>307</ele>
        <time>2017-09-23T11:46:39Z</time>
      </trkpt>
      <trkpt lat="44.55294" lon="1.36624">
        <ele>307</ele>
        <time>2017-09-23T11:46:44Z</time>
      </trkpt>
      <trkpt lat="44.55296" lon="1.36609">
        <ele>306</ele>
        <time>2017-09-23T11:46:53Z</time>
      </trkpt>
      <trkpt lat="44.55296" lon="1.36603">
        <ele>306</ele>
        <time>2017-09-23T11:46:56Z</time>
      </trkpt>
      <trkpt lat="44.55297" lon="1.36596">
        <ele>306</ele>
        <time>2017-09-23T11:47:00Z</time>
      </trkpt>
      <trkpt lat="44.55297" lon="1.3659">
        <ele>306</ele>
        <time>2017-09-23T11:47:03Z</time>
      </trkpt>
      <trkpt lat="44.55298" lon="1.36585">
        <ele>306</ele>
        <time>2017-09-23T11:47:06Z</time>
      </trkpt>
      <trkpt lat="44.55299" lon="1.36578">
        <ele>302</ele>
        <time>2017-09-23T11:47:11Z</time>
      </trkpt>
      <trkpt lat="44.55299" lon="1.36572">
        <ele>302</ele>
        <time>2017-09-23T11:47:14Z</time>
      </trkpt>
      <trkpt lat="44.553" lon="1.36566">
        <ele>302</ele>
        <time>2017-09-23T11:47:18Z</time>
      </trkpt>
      <trkpt lat="44.55299" lon="1.36552">
        <ele>301</ele>
        <time>2017-09-23T11:47:26Z</time>
      </trkpt>
      <trkpt lat="44.55297" lon="1.36546">
        <ele>301</ele>
        <time>2017-09-23T11:47:29Z</time>
      </trkpt>
      <trkpt lat="44.55297" lon="1.36539">
        <ele>301</ele>
        <time>2017-09-23T11:47:33Z</time>
      </trkpt>
      <trkpt lat="44.55295" lon="1.36535">
        <ele>301</ele>
        <time>2017-09-23T11:47:35Z</time>
      </trkpt>
      <trkpt lat="44.55294" lon="1.36522">
        <ele>300</ele>
        <time>2017-09-23T11:47:41Z</time>
      </trkpt>
      <trkpt lat="44.55293" lon="1.36517">
        <ele>300</ele>
        <time>2017-09-23T11:47:43Z</time>
      </trkpt>
      <trkpt lat="44.55293" lon="1.36511">
        <ele>300</ele>
        <time>2017-09-23T11:47:46Z</time>
      </trkpt>
      <trkpt lat="44.55294" lon="1.36506">
        <ele>300</ele>
        <time>2017-09-23T11:47:49Z</time>
      </trkpt>
      <trkpt lat="44.55295" lon="1.365">
        <ele>300</ele>
        <time>2017-09-23T11:47:53Z</time>
      </trkpt>
      <trkpt lat="44.55298" lon="1.36478">
        <ele>298</ele>
        <time>2017-09-23T11:48:08Z</time>
      </trkpt>
      <trkpt lat="44.55299" lon="1.36471">
        <ele>298</ele>
        <time>2017-09-23T11:48:11Z</time>
      </trkpt>
      <trkpt lat="44.55303" lon="1.36458">
        <ele>297</ele>
        <time>2017-09-23T11:48:19Z</time>
      </trkpt>
      <trkpt lat="44.55304" lon="1.36451">
        <ele>297</ele>
        <time>2017-09-23T11:48:23Z</time>
      </trkpt>
      <trkpt lat="44.55306" lon="1.36444">
        <ele>297</ele>
        <time>2017-09-23T11:48:27Z</time>
      </trkpt>
      <trkpt lat="44.55305" lon="1.3642">
        <ele>297</ele>
        <time>2017-09-23T11:48:39Z</time>
      </trkpt>
      <trkpt lat="44.55304" lon="1.36413">
        <ele>298</ele>
        <time>2017-09-23T11:48:44Z</time>
      </trkpt>
      <trkpt lat="44.55301" lon="1.36403">
        <ele>298</ele>
        <time>2017-09-23T11:48:50Z</time>
      </trkpt>
      <trkpt lat="44.55298" lon="1.36395">
        <ele>298</ele>
        <time>2017-09-23T11:48:55Z</time>
      </trkpt>
      <trkpt lat="44.55296" lon="1.3639">
        <ele>298</ele>
        <time>2017-09-23T11:48:57Z</time>
      </trkpt>
      <trkpt lat="44.55295" lon="1.36386">
        <ele>298</ele>
        <time>2017-09-23T11:49:00Z</time>
      </trkpt>
      <trkpt lat="44.55294" lon="1.36381">
        <ele>298</ele>
        <time>2017-09-23T11:49:03Z</time>
      </trkpt>
      <trkpt lat="44.55286" lon="1.36356">
        <ele>299</ele>
        <time>2017-09-23T11:49:17Z</time>
      </trkpt>
      <trkpt lat="44.55283" lon="1.36351">
        <ele>299</ele>
        <time>2017-09-23T11:49:21Z</time>
      </trkpt>
      <trkpt lat="44.5528" lon="1.36347">
        <ele>299</ele>
        <time>2017-09-23T11:49:24Z</time>
      </trkpt>
      <trkpt lat="44.55277" lon="1.36337">
        <ele>299</ele>
        <time>2017-09-23T11:49:32Z</time>
      </trkpt>
      <trkpt lat="44.55274" lon="1.36308">
        <ele>299</ele>
        <time>2017-09-23T11:49:48Z</time>
      </trkpt>
      <trkpt lat="44.55274" lon="1.36277">
        <ele>299</ele>
        <time>2017-09-23T11:50:06Z</time>
      </trkpt>
      <trkpt lat="44.55274" lon="1.36274">
        <ele>299</ele>
        <time>2017-09-23T11:50:08Z</time>
      </trkpt>
      <trkpt lat="44.55274" lon="1.36267">
        <ele>299</ele>
        <time>2017-09-23T11:50:12Z</time>
      </trkpt>
      <trkpt lat="44.55275" lon="1.36263">
        <ele>299</ele>
        <time>2017-09-23T11:50:15Z</time>
      </trkpt>
      <trkpt lat="44.55276" lon="1.36261">
        <ele>299</ele>
        <time>2017-09-23T11:50:18Z</time>
      </trkpt>
      <trkpt lat="44.55275" lon="1.36258">
        <ele>299</ele>
        <time>2017-09-23T11:50:33Z</time>
      </trkpt>
      <trkpt lat="44.55275" lon="1.36254">
        <ele>299</ele>
        <time>2017-09-23T11:50:37Z</time>
      </trkpt>
      <trkpt lat="44.55275" lon="1.3625">
        <ele>297</ele>
        <time>2017-09-23T11:50:40Z</time>
      </trkpt>
      <trkpt lat="44.55272" lon="1.36247">
        <ele>297</ele>
        <time>2017-09-23T11:50:47Z</time>
      </trkpt>
      <trkpt lat="44.55272" lon="1.36243">
        <ele>297</ele>
        <time>2017-09-23T11:50:49Z</time>
      </trkpt>
      <trkpt lat="44.5527" lon="1.36238">
        <ele>297</ele>
        <time>2017-09-23T11:50:52Z</time>
      </trkpt>
      <trkpt lat="44.55269" lon="1.36226">
        <ele>296</ele>
        <time>2017-09-23T11:51:02Z</time>
      </trkpt>
      <trkpt lat="44.55267" lon="1.36219">
        <ele>296</ele>
        <time>2017-09-23T11:51:07Z</time>
      </trkpt>
      <trkpt lat="44.55264" lon="1.36214">
        <ele>296</ele>
        <time>2017-09-23T11:51:10Z</time>
      </trkpt>
      <trkpt lat="44.55262" lon="1.36211">
        <ele>296</ele>
        <time>2017-09-23T11:51:12Z</time>
      </trkpt>
      <trkpt lat="44.5526" lon="1.36201">
        <ele>295</ele>
        <time>2017-09-23T11:51:18Z</time>
      </trkpt>
      <trkpt lat="44.55259" lon="1.36194">
        <ele>294</ele>
        <time>2017-09-23T11:51:22Z</time>
      </trkpt>
      <trkpt lat="44.55259" lon="1.36182">
        <ele>293</ele>
        <time>2017-09-23T11:51:31Z</time>
      </trkpt>
      <trkpt lat="44.55258" lon="1.36177">
        <ele>293</ele>
        <time>2017-09-23T11:51:34Z</time>
      </trkpt>
      <trkpt lat="44.55258" lon="1.36173">
        <ele>293</ele>
        <time>2017-09-23T11:51:38Z</time>
      </trkpt>
      <trkpt lat="44.55258" lon="1.36166">
        <ele>290</ele>
        <time>2017-09-23T11:51:43Z</time>
      </trkpt>
      <trkpt lat="44.55257" lon="1.36162">
        <ele>290</ele>
        <time>2017-09-23T11:51:46Z</time>
      </trkpt>
      <trkpt lat="44.55257" lon="1.36156">
        <ele>289</ele>
        <time>2017-09-23T11:51:50Z</time>
      </trkpt>
      <trkpt lat="44.55255" lon="1.3615">
        <ele>289</ele>
        <time>2017-09-23T11:51:55Z</time>
      </trkpt>
      <trkpt lat="44.55254" lon="1.36145">
        <ele>288</ele>
        <time>2017-09-23T11:51:58Z</time>
      </trkpt>
      <trkpt lat="44.55253" lon="1.3614">
        <ele>288</ele>
        <time>2017-09-23T11:52:01Z</time>
      </trkpt>
      <trkpt lat="44.55252" lon="1.3613">
        <ele>287</ele>
        <time>2017-09-23T11:52:07Z</time>
      </trkpt>
      <trkpt lat="44.5525" lon="1.36124">
        <ele>287</ele>
        <time>2017-09-23T11:52:10Z</time>
      </trkpt>
      <trkpt lat="44.55239" lon="1.36087">
        <ele>285</ele>
        <time>2017-09-23T11:52:31Z</time>
      </trkpt>
      <trkpt lat="44.55237" lon="1.36083">
        <ele>283</ele>
        <time>2017-09-23T11:52:34Z</time>
      </trkpt>
      <trkpt lat="44.55234" lon="1.36065">
        <ele>283</ele>
        <time>2017-09-23T11:52:44Z</time>
      </trkpt>
      <trkpt lat="44.55232" lon="1.3606">
        <ele>283</ele>
        <time>2017-09-23T11:52:48Z</time>
      </trkpt>
      <trkpt lat="44.55236" lon="1.3604">
        <ele>282</ele>
        <time>2017-09-23T11:53:01Z</time>
      </trkpt>
      <trkpt lat="44.55239" lon="1.36007">
        <ele>281</ele>
        <time>2017-09-23T11:53:20Z</time>
      </trkpt>
      <trkpt lat="44.55239" lon="1.36003">
        <ele>280</ele>
        <time>2017-09-23T11:53:31Z</time>
      </trkpt>
      <trkpt lat="44.55239" lon="1.36">
        <ele>280</ele>
        <time>2017-09-23T11:53:57Z</time>
      </trkpt>
      <trkpt lat="44.5524" lon="1.35995">
        <ele>279</ele>
        <time>2017-09-23T11:54:36Z</time>
      </trkpt>
      <trkpt lat="44.55245" lon="1.35967">
        <ele>279</ele>
        <time>2017-09-23T11:54:55Z</time>
      </trkpt>
      <trkpt lat="44.55247" lon="1.35953">
        <ele>279</ele>
        <time>2017-09-23T11:55:04Z</time>
      </trkpt>
      <trkpt lat="44.55247" lon="1.35949">
        <ele>279</ele>
        <time>2017-09-23T11:55:07Z</time>
      </trkpt>
      <trkpt lat="44.55247" lon="1.35944">
        <ele>279</ele>
        <time>2017-09-23T11:55:10Z</time>
      </trkpt>
      <trkpt lat="44.55247" lon="1.35939">
        <ele>278</ele>
        <time>2017-09-23T11:55:13Z</time>
      </trkpt>
      <trkpt lat="44.55248" lon="1.35934">
        <ele>278</ele>
        <time>2017-09-23T11:55:16Z</time>
      </trkpt>
      <trkpt lat="44.5525" lon="1.35886">
        <ele>276</ele>
        <time>2017-09-23T11:55:42Z</time>
      </trkpt>
      <trkpt lat="44.55248" lon="1.35877">
        <ele>276</ele>
        <time>2017-09-23T11:55:47Z</time>
      </trkpt>
      <trkpt lat="44.55248" lon="1.35872">
        <ele>276</ele>
        <time>2017-09-23T11:55:50Z</time>
      </trkpt>
      <trkpt lat="44.55247" lon="1.35867">
        <ele>276</ele>
        <time>2017-09-23T11:55:53Z</time>
      </trkpt>
      <trkpt lat="44.55245" lon="1.35857">
        <ele>275</ele>
        <time>2017-09-23T11:55:59Z</time>
      </trkpt>
      <trkpt lat="44.55233" lon="1.35827">
        <ele>274</ele>
        <time>2017-09-23T11:56:17Z</time>
      </trkpt>
      <trkpt lat="44.55198" lon="1.35792">
        <ele>273</ele>
        <time>2017-09-23T11:56:48Z</time>
      </trkpt>
      <trkpt lat="44.55165" lon="1.35762">
        <ele>270</ele>
        <time>2017-09-23T11:57:18Z</time>
      </trkpt>
      <trkpt lat="44.55137" lon="1.35736">
        <ele>271</ele>
        <time>2017-09-23T11:57:43Z</time>
      </trkpt>
      <trkpt lat="44.55123" lon="1.35733">
        <ele>271</ele>
        <time>2017-09-23T11:57:53Z</time>
      </trkpt>
      <trkpt lat="44.55106" lon="1.35735">
        <ele>271</ele>
        <time>2017-09-23T11:58:06Z</time>
      </trkpt>
      <trkpt lat="44.551" lon="1.35735">
        <ele>271</ele>
        <time>2017-09-23T11:58:11Z</time>
      </trkpt>
      <trkpt lat="44.55096" lon="1.35733">
        <ele>271</ele>
        <time>2017-09-23T11:58:14Z</time>
      </trkpt>
      <trkpt lat="44.55054" lon="1.35721">
        <ele>273</ele>
        <time>2017-09-23T11:58:45Z</time>
      </trkpt>
      <trkpt lat="44.55025" lon="1.35714">
        <ele>273</ele>
        <time>2017-09-23T11:59:05Z</time>
      </trkpt>
      <trkpt lat="44.54999" lon="1.35713">
        <ele>273</ele>
        <time>2017-09-23T11:59:27Z</time>
      </trkpt>
      <trkpt lat="44.54996" lon="1.35713">
        <ele>273</ele>
        <time>2017-09-23T11:59:29Z</time>
      </trkpt>
      <trkpt lat="44.54994" lon="1.3571">
        <ele>273</ele>
        <time>2017-09-23T11:59:32Z</time>
      </trkpt>
      <trkpt lat="44.54992" lon="1.35708">
        <ele>273</ele>
        <time>2017-09-23T11:59:38Z</time>
      </trkpt>
      <trkpt lat="44.54992" lon="1.35705">
        <ele>273</ele>
        <time>2017-09-23T11:59:41Z</time>
      </trkpt>
      <trkpt lat="44.55" lon="1.35677">
        <ele>274</ele>
        <time>2017-09-23T11:59:58Z</time>
      </trkpt>
      <trkpt lat="44.55003" lon="1.3566">
        <ele>275</ele>
        <time>2017-09-23T12:00:10Z</time>
      </trkpt>
      <trkpt lat="44.55004" lon="1.35655">
        <ele>275</ele>
        <time>2017-09-23T12:00:13Z</time>
      </trkpt>
      <trkpt lat="44.55004" lon="1.35644">
        <ele>274</ele>
        <time>2017-09-23T12:00:19Z</time>
      </trkpt>
      <trkpt lat="44.54996" lon="1.35584">
        <ele>275</ele>
        <time>2017-09-23T12:00:50Z</time>
      </trkpt>
      <trkpt lat="44.54996" lon="1.35573">
        <ele>274</ele>
        <time>2017-09-23T12:00:56Z</time>
      </trkpt>
      <trkpt lat="44.54999" lon="1.35555">
        <ele>274</ele>
        <time>2017-09-23T12:01:07Z</time>
      </trkpt>
      <trkpt lat="44.55" lon="1.3555">
        <ele>274</ele>
        <time>2017-09-23T12:01:10Z</time>
      </trkpt>
      <trkpt lat="44.55001" lon="1.35545">
        <ele>274</ele>
        <time>2017-09-23T12:01:13Z</time>
      </trkpt>
      <trkpt lat="44.55001" lon="1.35538">
        <ele>274</ele>
        <time>2017-09-23T12:01:17Z</time>
      </trkpt>
      <trkpt lat="44.55002" lon="1.35532">
        <ele>274</ele>
        <time>2017-09-23T12:01:20Z</time>
      </trkpt>
      <trkpt lat="44.5501" lon="1.35499">
        <ele>274</ele>
        <time>2017-09-23T12:01:40Z</time>
      </trkpt>
      <trkpt lat="44.55011" lon="1.35492">
        <ele>274</ele>
        <time>2017-09-23T12:01:43Z</time>
      </trkpt>
      <trkpt lat="44.55011" lon="1.35486">
        <ele>274</ele>
        <time>2017-09-23T12:01:47Z</time>
      </trkpt>
      <trkpt lat="44.5502" lon="1.35431">
        <ele>271</ele>
        <time>2017-09-23T12:02:19Z</time>
      </trkpt>
      <trkpt lat="44.55021" lon="1.35398">
        <ele>268</ele>
        <time>2017-09-23T12:02:38Z</time>
      </trkpt>
      <trkpt lat="44.55021" lon="1.35386">
        <ele>268</ele>
        <time>2017-09-23T12:02:49Z</time>
      </trkpt>
      <trkpt lat="44.55021" lon="1.35378">
        <ele>267</ele>
        <time>2017-09-23T12:02:54Z</time>
      </trkpt>
      <trkpt lat="44.55018" lon="1.35361">
        <ele>266</ele>
        <time>2017-09-23T12:03:05Z</time>
      </trkpt>
      <trkpt lat="44.55017" lon="1.35357">
        <ele>266</ele>
        <time>2017-09-23T12:03:08Z</time>
      </trkpt>
      <trkpt lat="44.55019" lon="1.35353">
        <ele>266</ele>
        <time>2017-09-23T12:03:11Z</time>
      </trkpt>
      <trkpt lat="44.55022" lon="1.35351">
        <ele>266</ele>
        <time>2017-09-23T12:03:14Z</time>
      </trkpt>
      <trkpt lat="44.55025" lon="1.35351">
        <ele>266</ele>
        <time>2017-09-23T12:03:17Z</time>
      </trkpt>
      <trkpt lat="44.55046" lon="1.3534">
        <ele>266</ele>
        <time>2017-09-23T12:03:35Z</time>
      </trkpt>
      <trkpt lat="44.5506" lon="1.35334">
        <ele>266</ele>
        <time>2017-09-23T12:03:47Z</time>
      </trkpt>
      <trkpt lat="44.55071" lon="1.35325">
        <ele>264</ele>
        <time>2017-09-23T12:03:57Z</time>
      </trkpt>
      <trkpt lat="44.55077" lon="1.35319">
        <ele>264</ele>
        <time>2017-09-23T12:04:03Z</time>
      </trkpt>
      <trkpt lat="44.55079" lon="1.35314">
        <ele>264</ele>
        <time>2017-09-23T12:04:07Z</time>
      </trkpt>
      <trkpt lat="44.55083" lon="1.35311">
        <ele>263</ele>
        <time>2017-09-23T12:04:12Z</time>
      </trkpt>
      <trkpt lat="44.55085" lon="1.35308">
        <ele>263</ele>
        <time>2017-09-23T12:04:15Z</time>
      </trkpt>
      <trkpt lat="44.55111" lon="1.35276">
        <ele>261</ele>
        <time>2017-09-23T12:04:44Z</time>
      </trkpt>
      <trkpt lat="44.55118" lon="1.3527">
        <ele>261</ele>
        <time>2017-09-23T12:04:51Z</time>
      </trkpt>
      <trkpt lat="44.55141" lon="1.35256">
        <ele>259</ele>
        <time>2017-09-23T12:05:26Z</time>
      </trkpt>
      <trkpt lat="44.55146" lon="1.35254">
        <ele>258</ele>
        <time>2017-09-23T12:05:32Z</time>
      </trkpt>
      <trkpt lat="44.55151" lon="1.35252">
        <ele>257</ele>
        <time>2017-09-23T12:05:38Z</time>
      </trkpt>
      <trkpt lat="44.55155" lon="1.35249">
        <ele>254</ele>
        <time>2017-09-23T12:05:44Z</time>
      </trkpt>
      <trkpt lat="44.55159" lon="1.35246">
        <ele>254</ele>
        <time>2017-09-23T12:05:48Z</time>
      </trkpt>
      <trkpt lat="44.55168" lon="1.3524">
        <ele>252</ele>
        <time>2017-09-23T12:05:56Z</time>
      </trkpt>
      <trkpt lat="44.55171" lon="1.35237">
        <ele>252</ele>
        <time>2017-09-23T12:06:00Z</time>
      </trkpt>
      <trkpt lat="44.55196" lon="1.35219">
        <ele>249</ele>
        <time>2017-09-23T12:06:31Z</time>
      </trkpt>
      <trkpt lat="44.55199" lon="1.35216">
        <ele>249</ele>
        <time>2017-09-23T12:06:40Z</time>
      </trkpt>
      <trkpt lat="44.55211" lon="1.35208">
        <ele>248</ele>
        <time>2017-09-23T12:06:52Z</time>
      </trkpt>
      <trkpt lat="44.55217" lon="1.35199">
        <ele>247</ele>
        <time>2017-09-23T12:06:59Z</time>
      </trkpt>
      <trkpt lat="44.5523" lon="1.35186">
        <ele>245</ele>
        <time>2017-09-23T12:07:12Z</time>
      </trkpt>
      <trkpt lat="44.55232" lon="1.35183">
        <ele>244</ele>
        <time>2017-09-23T12:07:15Z</time>
      </trkpt>
      <trkpt lat="44.55235" lon="1.3518">
        <ele>243</ele>
        <time>2017-09-23T12:07:18Z</time>
      </trkpt>
      <trkpt lat="44.55239" lon="1.35178">
        <ele>242</ele>
        <time>2017-09-23T12:07:21Z</time>
      </trkpt>
      <trkpt lat="44.55244" lon="1.35171">
        <ele>239</ele>
        <time>2017-09-23T12:07:29Z</time>
      </trkpt>
      <trkpt lat="44.5525" lon="1.35164">
        <ele>235</ele>
        <time>2017-09-23T12:07:37Z</time>
      </trkpt>
      <trkpt lat="44.55253" lon="1.35161">
        <ele>234</ele>
        <time>2017-09-23T12:07:40Z</time>
      </trkpt>
      <trkpt lat="44.55259" lon="1.35155">
        <ele>233</ele>
        <time>2017-09-23T12:07:50Z</time>
      </trkpt>
      <trkpt lat="44.55263" lon="1.35154">
        <ele>232</ele>
        <time>2017-09-23T12:07:54Z</time>
      </trkpt>
      <trkpt lat="44.5529" lon="1.35146">
        <ele>230</ele>
        <time>2017-09-23T12:08:18Z</time>
      </trkpt>
      <trkpt lat="44.55294" lon="1.35145">
        <ele>230</ele>
        <time>2017-09-23T12:08:23Z</time>
      </trkpt>
      <trkpt lat="44.553" lon="1.35144">
        <ele>229</ele>
        <time>2017-09-23T12:08:28Z</time>
      </trkpt>
      <trkpt lat="44.55303" lon="1.35143">
        <ele>229</ele>
        <time>2017-09-23T12:08:31Z</time>
      </trkpt>
      <trkpt lat="44.55307" lon="1.35142">
        <ele>229</ele>
        <time>2017-09-23T12:08:35Z</time>
      </trkpt>
      <trkpt lat="44.55311" lon="1.35142">
        <ele>229</ele>
        <time>2017-09-23T12:08:38Z</time>
      </trkpt>
      <trkpt lat="44.55333" lon="1.35136">
        <ele>228</ele>
        <time>2017-09-23T12:08:59Z</time>
      </trkpt>
      <trkpt lat="44.55338" lon="1.35135">
        <ele>222</ele>
        <time>2017-09-23T12:09:04Z</time>
      </trkpt>
      <trkpt lat="44.55353" lon="1.35133">
        <ele>221</ele>
        <time>2017-09-23T12:09:15Z</time>
      </trkpt>
      <trkpt lat="44.55365" lon="1.35133">
        <ele>220</ele>
        <time>2017-09-23T12:09:24Z</time>
      </trkpt>
      <trkpt lat="44.55369" lon="1.35132">
        <ele>219</ele>
        <time>2017-09-23T12:09:28Z</time>
      </trkpt>
      <trkpt lat="44.5538" lon="1.35129">
        <ele>218</ele>
        <time>2017-09-23T12:09:41Z</time>
      </trkpt>
      <trkpt lat="44.55384" lon="1.35128">
        <ele>218</ele>
        <time>2017-09-23T12:09:45Z</time>
      </trkpt>
      <trkpt lat="44.55388" lon="1.35128">
        <ele>218</ele>
        <time>2017-09-23T12:09:49Z</time>
      </trkpt>
      <trkpt lat="44.55393" lon="1.35128">
        <ele>217</ele>
        <time>2017-09-23T12:09:55Z</time>
      </trkpt>
      <trkpt lat="44.55399" lon="1.35129">
        <ele>217</ele>
        <time>2017-09-23T12:10:00Z</time>
      </trkpt>
      <trkpt lat="44.55407" lon="1.35131">
        <ele>217</ele>
        <time>2017-09-23T12:10:06Z</time>
      </trkpt>
      <trkpt lat="44.55411" lon="1.3513">
        <ele>217</ele>
        <time>2017-09-23T12:10:09Z</time>
      </trkpt>
      <trkpt lat="44.55419" lon="1.35131">
        <ele>210</ele>
        <time>2017-09-23T12:10:17Z</time>
      </trkpt>
      <trkpt lat="44.55451" lon="1.35137">
        <ele>209</ele>
        <time>2017-09-23T12:10:45Z</time>
      </trkpt>
      <trkpt lat="44.55465" lon="1.35137">
        <ele>209</ele>
        <time>2017-09-23T12:10:58Z</time>
      </trkpt>
      <trkpt lat="44.55473" lon="1.35135">
        <ele>208</ele>
        <time>2017-09-23T12:11:04Z</time>
      </trkpt>
      <trkpt lat="44.55475" lon="1.35134">
        <ele>208</ele>
        <time>2017-09-23T12:11:06Z</time>
      </trkpt>
      <trkpt lat="44.55482" lon="1.3513">
        <ele>207</ele>
        <time>2017-09-23T12:11:12Z</time>
      </trkpt>
      <trkpt lat="44.55489" lon="1.35125">
        <ele>207</ele>
        <time>2017-09-23T12:11:20Z</time>
      </trkpt>
      <trkpt lat="44.55505" lon="1.35119">
        <ele>203</ele>
        <time>2017-09-23T12:11:33Z</time>
      </trkpt>
      <trkpt lat="44.55507" lon="1.35116">
        <ele>203</ele>
        <time>2017-09-23T12:11:36Z</time>
      </trkpt>
      <trkpt lat="44.55542" lon="1.35096">
        <ele>201</ele>
        <time>2017-09-23T12:12:07Z</time>
      </trkpt>
      <trkpt lat="44.55565" lon="1.35079">
        <ele>195</ele>
        <time>2017-09-23T12:12:28Z</time>
      </trkpt>
      <trkpt lat="44.55571" lon="1.35074">
        <ele>195</ele>
        <time>2017-09-23T12:12:35Z</time>
      </trkpt>
      <trkpt lat="44.55579" lon="1.35069">
        <ele>195</ele>
        <time>2017-09-23T12:12:42Z</time>
      </trkpt>
      <trkpt lat="44.55588" lon="1.35065">
        <ele>190</ele>
        <time>2017-09-23T12:12:50Z</time>
      </trkpt>
      <trkpt lat="44.55593" lon="1.35062">
        <ele>189</ele>
        <time>2017-09-23T12:12:54Z</time>
      </trkpt>
      <trkpt lat="44.55609" lon="1.35054">
        <ele>188</ele>
        <time>2017-09-23T12:13:09Z</time>
      </trkpt>
      <trkpt lat="44.55619" lon="1.35048">
        <ele>187</ele>
        <time>2017-09-23T12:13:17Z</time>
      </trkpt>
      <trkpt lat="44.5562" lon="1.35043">
        <ele>187</ele>
        <time>2017-09-23T12:13:32Z</time>
      </trkpt>
      <trkpt lat="44.55622" lon="1.35039">
        <ele>187</ele>
        <time>2017-09-23T12:13:36Z</time>
      </trkpt>
      <trkpt lat="44.55621" lon="1.35031">
        <ele>187</ele>
        <time>2017-09-23T12:13:43Z</time>
      </trkpt>
      <trkpt lat="44.55617" lon="1.35017">
        <ele>187</ele>
        <time>2017-09-23T12:13:52Z</time>
      </trkpt>
      <trkpt lat="44.55616" lon="1.35007">
        <ele>187</ele>
        <time>2017-09-23T12:13:58Z</time>
      </trkpt>
      <trkpt lat="44.55618" lon="1.35001">
        <ele>187</ele>
        <time>2017-09-23T12:14:02Z</time>
      </trkpt>
      <trkpt lat="44.55619" lon="1.34994">
        <ele>187</ele>
        <time>2017-09-23T12:14:08Z</time>
      </trkpt>
      <trkpt lat="44.5562" lon="1.34987">
        <ele>187</ele>
        <time>2017-09-23T12:14:14Z</time>
      </trkpt>
      <trkpt lat="44.5562" lon="1.34981">
        <ele>187</ele>
        <time>2017-09-23T12:14:18Z</time>
      </trkpt>
      <trkpt lat="44.5562" lon="1.34974">
        <ele>187</ele>
        <time>2017-09-23T12:14:24Z</time>
      </trkpt>
      <trkpt lat="44.55619" lon="1.34959">
        <ele>187</ele>
        <time>2017-09-23T12:14:34Z</time>
      </trkpt>
      <trkpt lat="44.55617" lon="1.34953">
        <ele>188</ele>
        <time>2017-09-23T12:14:37Z</time>
      </trkpt>
      <trkpt lat="44.55616" lon="1.34947">
        <ele>188</ele>
        <time>2017-09-23T12:14:42Z</time>
      </trkpt>
      <trkpt lat="44.55615" lon="1.34941">
        <ele>189</ele>
        <time>2017-09-23T12:14:47Z</time>
      </trkpt>
      <trkpt lat="44.55612" lon="1.34932">
        <ele>189</ele>
        <time>2017-09-23T12:14:53Z</time>
      </trkpt>
      <trkpt lat="44.55611" lon="1.34923">
        <ele>190</ele>
        <time>2017-09-23T12:15:05Z</time>
      </trkpt>
      <trkpt lat="44.55608" lon="1.34916">
        <ele>192</ele>
        <time>2017-09-23T12:15:08Z</time>
      </trkpt>
      <trkpt lat="44.55604" lon="1.34904">
        <ele>192</ele>
        <time>2017-09-23T12:15:12Z</time>
      </trkpt>
      <trkpt lat="44.55603" lon="1.34898">
        <ele>192</ele>
        <time>2017-09-23T12:15:16Z</time>
      </trkpt>
      <trkpt lat="44.55601" lon="1.34885">
        <ele>191</ele>
        <time>2017-09-23T12:15:24Z</time>
      </trkpt>
      <trkpt lat="44.55601" lon="1.34877">
        <ele>191</ele>
        <time>2017-09-23T12:15:30Z</time>
      </trkpt>
      <trkpt lat="44.55599" lon="1.34872">
        <ele>191</ele>
        <time>2017-09-23T12:15:34Z</time>
      </trkpt>
      <trkpt lat="44.556" lon="1.34865">
        <ele>191</ele>
        <time>2017-09-23T12:15:41Z</time>
      </trkpt>
      <trkpt lat="44.55601" lon="1.34857">
        <ele>191</ele>
        <time>2017-09-23T12:15:48Z</time>
      </trkpt>
      <trkpt lat="44.55601" lon="1.34849">
        <ele>192</ele>
        <time>2017-09-23T12:15:54Z</time>
      </trkpt>
      <trkpt lat="44.55598" lon="1.34835">
        <ele>194</ele>
        <time>2017-09-23T12:16:04Z</time>
      </trkpt>
      <trkpt lat="44.55595" lon="1.34819">
        <ele>192</ele>
        <time>2017-09-23T12:16:15Z</time>
      </trkpt>
      <trkpt lat="44.55594" lon="1.34811">
        <ele>191</ele>
        <time>2017-09-23T12:16:21Z</time>
      </trkpt>
      <trkpt lat="44.55591" lon="1.34804">
        <ele>190</ele>
        <time>2017-09-23T12:16:24Z</time>
      </trkpt>
      <trkpt lat="44.5559" lon="1.34797">
        <ele>189</ele>
        <time>2017-09-23T12:16:31Z</time>
      </trkpt>
      <trkpt lat="44.55589" lon="1.34789">
        <ele>189</ele>
        <time>2017-09-23T12:16:38Z</time>
      </trkpt>
      <trkpt lat="44.55588" lon="1.34779">
        <ele>189</ele>
        <time>2017-09-23T12:16:43Z</time>
      </trkpt>
      <trkpt lat="44.55587" lon="1.34764">
        <ele>191</ele>
        <time>2017-09-23T12:16:55Z</time>
      </trkpt>
      <trkpt lat="44.55586" lon="1.34756">
        <ele>193</ele>
        <time>2017-09-23T12:17:00Z</time>
      </trkpt>
      <trkpt lat="44.55585" lon="1.34749">
        <ele>194</ele>
        <time>2017-09-23T12:17:09Z</time>
      </trkpt>
      <trkpt lat="44.55585" lon="1.34741">
        <ele>190</ele>
        <time>2017-09-23T12:17:16Z</time>
      </trkpt>
      <trkpt lat="44.55586" lon="1.34725">
        <ele>186</ele>
        <time>2017-09-23T12:17:26Z</time>
      </trkpt>
      <trkpt lat="44.55585" lon="1.34716">
        <ele>185</ele>
        <time>2017-09-23T12:17:31Z</time>
      </trkpt>
      <trkpt lat="44.55588" lon="1.34708">
        <ele>184</ele>
        <time>2017-09-23T12:17:36Z</time>
      </trkpt>
      <trkpt lat="44.55588" lon="1.34701">
        <ele>184</ele>
        <time>2017-09-23T12:17:41Z</time>
      </trkpt>
      <trkpt lat="44.55587" lon="1.34694">
        <ele>184</ele>
        <time>2017-09-23T12:17:47Z</time>
      </trkpt>
      <trkpt lat="44.55587" lon="1.34687">
        <ele>185</ele>
        <time>2017-09-23T12:17:53Z</time>
      </trkpt>
      <trkpt lat="44.55588" lon="1.3468">
        <ele>185</ele>
        <time>2017-09-23T12:18:00Z</time>
      </trkpt>
      <trkpt lat="44.55587" lon="1.34671">
        <ele>186</ele>
        <time>2017-09-23T12:18:05Z</time>
      </trkpt>
      <trkpt lat="44.55588" lon="1.34663">
        <ele>186</ele>
        <time>2017-09-23T12:18:11Z</time>
      </trkpt>
      <trkpt lat="44.55591" lon="1.34638">
        <ele>182</ele>
        <time>2017-09-23T12:18:40Z</time>
      </trkpt>
      <trkpt lat="44.55591" lon="1.3462">
        <ele>181</ele>
        <time>2017-09-23T12:18:55Z</time>
      </trkpt>
      <trkpt lat="44.55591" lon="1.3461">
        <ele>181</ele>
        <time>2017-09-23T12:19:05Z</time>
      </trkpt>
      <trkpt lat="44.55591" lon="1.34603">
        <ele>181</ele>
        <time>2017-09-23T12:19:12Z</time>
      </trkpt>
      <trkpt lat="44.5559" lon="1.34594">
        <ele>182</ele>
        <time>2017-09-23T12:19:18Z</time>
      </trkpt>
      <trkpt lat="44.5559" lon="1.34586">
        <ele>183</ele>
        <time>2017-09-23T12:19:26Z</time>
      </trkpt>
      <trkpt lat="44.5559" lon="1.34577">
        <ele>183</ele>
        <time>2017-09-23T12:19:33Z</time>
      </trkpt>
      <trkpt lat="44.55592" lon="1.34569">
        <ele>182</ele>
        <time>2017-09-23T12:19:39Z</time>
      </trkpt>
      <trkpt lat="44.55592" lon="1.34562">
        <ele>181</ele>
        <time>2017-09-23T12:19:45Z</time>
      </trkpt>
      <trkpt lat="44.55589" lon="1.34548">
        <ele>180</ele>
        <time>2017-09-23T12:19:55Z</time>
      </trkpt>
      <trkpt lat="44.55587" lon="1.34541">
        <ele>180</ele>
        <time>2017-09-23T12:20:01Z</time>
      </trkpt>
      <trkpt lat="44.55583" lon="1.34534">
        <ele>192</ele>
        <time>2017-09-23T12:20:07Z</time>
      </trkpt>
      <trkpt lat="44.55576" lon="1.34523">
        <ele>191</ele>
        <time>2017-09-23T12:20:20Z</time>
      </trkpt>
      <trkpt lat="44.55573" lon="1.34518">
        <ele>191</ele>
        <time>2017-09-23T12:20:27Z</time>
      </trkpt>
      <trkpt lat="44.55568" lon="1.34513">
        <ele>191</ele>
        <time>2017-09-23T12:20:33Z</time>
      </trkpt>
      <trkpt lat="44.55563" lon="1.34509">
        <ele>192</ele>
        <time>2017-09-23T12:20:39Z</time>
      </trkpt>
      <trkpt lat="44.55563" lon="1.34501">
        <ele>191</ele>
        <time>2017-09-23T12:20:49Z</time>
      </trkpt>
      <trkpt lat="44.55563" lon="1.34493">
        <ele>188</ele>
        <time>2017-09-23T12:20:56Z</time>
      </trkpt>
      <trkpt lat="44.55567" lon="1.34484">
        <ele>187</ele>
        <time>2017-09-23T12:21:06Z</time>
      </trkpt>
      <trkpt lat="44.55567" lon="1.34476">
        <ele>188</ele>
        <time>2017-09-23T12:21:12Z</time>
      </trkpt>
      <trkpt lat="44.55571" lon="1.34461">
        <ele>187</ele>
        <time>2017-09-23T12:21:27Z</time>
      </trkpt>
      <trkpt lat="44.55572" lon="1.34451">
        <ele>186</ele>
        <time>2017-09-23T12:21:35Z</time>
      </trkpt>
      <trkpt lat="44.55574" lon="1.3443">
        <ele>184</ele>
        <time>2017-09-23T12:21:55Z</time>
      </trkpt>
      <trkpt lat="44.55573" lon="1.34422">
        <ele>183</ele>
        <time>2017-09-23T12:22:05Z</time>
      </trkpt>
      <trkpt lat="44.5557" lon="1.34415">
        <ele>181</ele>
        <time>2017-09-23T12:22:14Z</time>
      </trkpt>
      <trkpt lat="44.5557" lon="1.34406">
        <ele>182</ele>
        <time>2017-09-23T12:22:25Z</time>
      </trkpt>
      <trkpt lat="44.55571" lon="1.34397">
        <ele>182</ele>
        <time>2017-09-23T12:22:34Z</time>
      </trkpt>
      <trkpt lat="44.55572" lon="1.34388">
        <ele>182</ele>
        <time>2017-09-23T12:22:40Z</time>
      </trkpt>
      <trkpt lat="44.55572" lon="1.3438">
        <ele>182</ele>
        <time>2017-09-23T12:22:46Z</time>
      </trkpt>
      <trkpt lat="44.55572" lon="1.34372">
        <ele>182</ele>
        <time>2017-09-23T12:22:52Z</time>
      </trkpt>
      <trkpt lat="44.55571" lon="1.34364">
        <ele>182</ele>
        <time>2017-09-23T12:23:03Z</time>
      </trkpt>
      <trkpt lat="44.55573" lon="1.34353">
        <ele>182</ele>
        <time>2017-09-23T12:23:13Z</time>
      </trkpt>
      <trkpt lat="44.55573" lon="1.34344">
        <ele>181</ele>
        <time>2017-09-23T12:23:20Z</time>
      </trkpt>
      <trkpt lat="44.55573" lon="1.34322">
        <ele>181</ele>
        <time>2017-09-23T12:23:42Z</time>
      </trkpt>
      <trkpt lat="44.5557" lon="1.34314">
        <ele>182</ele>
        <time>2017-09-23T12:23:47Z</time>
      </trkpt>
      <trkpt lat="44.55568" lon="1.34304">
        <ele>183</ele>
        <time>2017-09-23T12:23:58Z</time>
      </trkpt>
      <trkpt lat="44.55569" lon="1.34293">
        <ele>183</ele>
        <time>2017-09-23T12:24:18Z</time>
      </trkpt>
      <trkpt lat="44.55564" lon="1.34285">
        <ele>183</ele>
        <time>2017-09-23T12:24:26Z</time>
      </trkpt>
      <trkpt lat="44.55562" lon="1.34269">
        <ele>183</ele>
        <time>2017-09-23T12:24:39Z</time>
      </trkpt>
      <trkpt lat="44.55559" lon="1.34261">
        <ele>183</ele>
        <time>2017-09-23T12:24:45Z</time>
      </trkpt>
      <trkpt lat="44.55558" lon="1.34253">
        <ele>183</ele>
        <time>2017-09-23T12:24:53Z</time>
      </trkpt>
      <trkpt lat="44.55561" lon="1.3425">
        <ele>181</ele>
        <time>2017-09-23T12:25:24Z</time>
      </trkpt>
      <trkpt lat="44.55555" lon="1.34244">
        <ele>182</ele>
        <time>2017-09-23T12:25:38Z</time>
      </trkpt>
      <trkpt lat="44.55553" lon="1.34236">
        <ele>182</ele>
        <time>2017-09-23T12:25:46Z</time>
      </trkpt>
      <trkpt lat="44.55552" lon="1.34229">
        <ele>182</ele>
        <time>2017-09-23T12:25:53Z</time>
      </trkpt>
      <trkpt lat="44.5555" lon="1.34192">
        <ele>181</ele>
        <time>2017-09-23T12:26:19Z</time>
      </trkpt>
      <trkpt lat="44.55545" lon="1.34147">
        <ele>178</ele>
        <time>2017-09-23T12:26:52Z</time>
      </trkpt>
      <trkpt lat="44.55543" lon="1.3413">
        <ele>178</ele>
        <time>2017-09-23T12:27:04Z</time>
      </trkpt>
      <trkpt lat="44.55543" lon="1.34123">
        <ele>178</ele>
        <time>2017-09-23T12:27:09Z</time>
      </trkpt>
      <trkpt lat="44.55536" lon="1.34073">
        <ele>177</ele>
        <time>2017-09-23T12:27:39Z</time>
      </trkpt>
      <trkpt lat="44.55525" lon="1.34026">
        <ele>177</ele>
        <time>2017-09-23T12:28:08Z</time>
      </trkpt>
      <trkpt lat="44.55522" lon="1.34017">
        <ele>177</ele>
        <time>2017-09-23T12:28:14Z</time>
      </trkpt>
      <trkpt lat="44.55518" lon="1.34012">
        <ele>178</ele>
        <time>2017-09-23T12:28:24Z</time>
      </trkpt>
      <trkpt lat="44.55513" lon="1.34009">
        <ele>179</ele>
        <time>2017-09-23T12:28:30Z</time>
      </trkpt>
      <trkpt lat="44.55507" lon="1.34009">
        <ele>179</ele>
        <time>2017-09-23T12:28:37Z</time>
      </trkpt>
      <trkpt lat="44.55503" lon="1.34048">
        <ele>178</ele>
        <time>2017-09-23T12:29:07Z</time>
      </trkpt>
      <trkpt lat="44.55502" lon="1.34057">
        <ele>179</ele>
        <time>2017-09-23T12:29:13Z</time>
      </trkpt>
      <trkpt lat="44.55498" lon="1.34065">
        <ele>186</ele>
        <time>2017-09-23T12:29:20Z</time>
      </trkpt>
      <trkpt lat="44.55491" lon="1.34067">
        <ele>186</ele>
        <time>2017-09-23T12:29:26Z</time>
      </trkpt>
      <trkpt lat="44.55477" lon="1.34068">
        <ele>187</ele>
        <time>2017-09-23T12:29:36Z</time>
      </trkpt>
      <trkpt lat="44.5547" lon="1.34067">
        <ele>188</ele>
        <time>2017-09-23T12:29:42Z</time>
      </trkpt>
      <trkpt lat="44.5547" lon="1.34057">
        <ele>188</ele>
        <time>2017-09-23T12:32:00Z</time>
      </trkpt>
      <trkpt lat="44.5547" lon="1.34049">
        <ele>188</ele>
        <time>2017-09-23T12:32:05Z</time>
      </trkpt>
      <trkpt lat="44.55467" lon="1.34046">
        <ele>188</ele>
        <time>2017-09-23T12:32:57Z</time>
      </trkpt>
      <trkpt lat="44.55465" lon="1.34042">
        <ele>188</ele>
        <time>2017-09-23T12:33:55Z</time>
      </trkpt>
      <trkpt lat="44.55463" lon="1.34036">
        <ele>189</ele>
        <time>2017-09-23T12:37:15Z</time>
      </trkpt>
      <trkpt lat="44.55469" lon="1.34033">
        <ele>188</ele>
        <time>2017-09-23T12:37:37Z</time>
      </trkpt>
      <trkpt lat="44.55479" lon="1.34036">
        <ele>187</ele>
        <time>2017-09-23T12:37:49Z</time>
      </trkpt>
      <trkpt lat="44.55483" lon="1.34027">
        <ele>187</ele>
        <time>2017-09-23T12:37:58Z</time>
      </trkpt>
      <trkpt lat="44.55485" lon="1.34023">
        <ele>186</ele>
        <time>2017-09-23T12:38:01Z</time>
      </trkpt>
      <trkpt lat="44.55489" lon="1.34004">
        <ele>184</ele>
        <time>2017-09-23T12:38:14Z</time>
      </trkpt>
      <trkpt lat="44.55488" lon="1.33999">
        <ele>183</ele>
        <time>2017-09-23T12:38:17Z</time>
      </trkpt>
      <trkpt lat="44.55489" lon="1.33987">
        <ele>184</ele>
        <time>2017-09-23T12:38:25Z</time>
      </trkpt>
      <trkpt lat="44.55489" lon="1.33976">
        <ele>184</ele>
        <time>2017-09-23T12:38:33Z</time>
      </trkpt>
      <trkpt lat="44.55491" lon="1.33969">
        <ele>184</ele>
        <time>2017-09-23T12:38:38Z</time>
      </trkpt>
      <trkpt lat="44.55504" lon="1.33936">
        <ele>174</ele>
        <time>2017-09-23T12:39:02Z</time>
      </trkpt>
      <trkpt lat="44.55503" lon="1.33929">
        <ele>174</ele>
        <time>2017-09-23T12:39:07Z</time>
      </trkpt>
      <trkpt lat="44.55507" lon="1.33924">
        <ele>174</ele>
        <time>2017-09-23T12:39:13Z</time>
      </trkpt>
      <trkpt lat="44.5551" lon="1.33917">
        <ele>174</ele>
        <time>2017-09-23T12:39:20Z</time>
      </trkpt>
      <trkpt lat="44.5551" lon="1.33911">
        <ele>173</ele>
        <time>2017-09-23T12:39:28Z</time>
      </trkpt>
      <trkpt lat="44.55516" lon="1.3391">
        <ele>172</ele>
        <time>2017-09-23T12:41:06Z</time>
      </trkpt>
      <trkpt lat="44.55512" lon="1.33903">
        <ele>172</ele>
        <time>2017-09-23T12:41:18Z</time>
      </trkpt>
      <trkpt lat="44.5551" lon="1.33895">
        <ele>172</ele>
        <time>2017-09-23T12:42:37Z</time>
      </trkpt>
      <trkpt lat="44.55505" lon="1.33894">
        <ele>172</ele>
        <time>2017-09-23T12:43:32Z</time>
      </trkpt>
      <trkpt lat="44.55505" lon="1.33889">
        <ele>172</ele>
        <time>2017-09-23T12:44:39Z</time>
      </trkpt>
      <trkpt lat="44.55504" lon="1.33881">
        <ele>171</ele>
        <time>2017-09-23T12:45:17Z</time>
      </trkpt>
      <trkpt lat="44.55506" lon="1.33875">
        <ele>171</ele>
        <time>2017-09-23T12:46:36Z</time>
      </trkpt>
      <trkpt lat="44.5551" lon="1.33873">
        <ele>171</ele>
        <time>2017-09-23T12:46:45Z</time>
      </trkpt>
      <trkpt lat="44.55515" lon="1.33871">
        <ele>171</ele>
        <time>2017-09-23T12:46:50Z</time>
      </trkpt>
      <trkpt lat="44.55524" lon="1.33862">
        <ele>171</ele>
        <time>2017-09-23T12:47:00Z</time>
      </trkpt>
      <trkpt lat="44.55528" lon="1.33857">
        <ele>170</ele>
        <time>2017-09-23T12:47:10Z</time>
      </trkpt>
      <trkpt lat="44.55528" lon="1.3385">
        <ele>170</ele>
        <time>2017-09-23T12:47:15Z</time>
      </trkpt>
      <trkpt lat="44.55519" lon="1.33831">
        <ele>171</ele>
        <time>2017-09-23T12:47:29Z</time>
      </trkpt>
      <trkpt lat="44.55515" lon="1.33819">
        <ele>171</ele>
        <time>2017-09-23T12:47:37Z</time>
      </trkpt>
      <trkpt lat="44.55497" lon="1.3377">
        <ele>179</ele>
        <time>2017-09-23T12:48:08Z</time>
      </trkpt>
      <trkpt lat="44.55474" lon="1.33726">
        <ele>182</ele>
        <time>2017-09-23T12:48:38Z</time>
      </trkpt>
      <trkpt lat="44.55469" lon="1.33709">
        <ele>183</ele>
        <time>2017-09-23T12:48:47Z</time>
      </trkpt>
      <trkpt lat="44.55466" lon="1.33695">
        <ele>183</ele>
        <time>2017-09-23T12:48:55Z</time>
      </trkpt>
      <trkpt lat="44.55465" lon="1.33691">
        <ele>183</ele>
        <time>2017-09-23T12:48:58Z</time>
      </trkpt>
      <trkpt lat="44.55464" lon="1.33685">
        <ele>184</ele>
        <time>2017-09-23T12:49:02Z</time>
      </trkpt>
      <trkpt lat="44.55463" lon="1.33679">
        <ele>184</ele>
        <time>2017-09-23T12:49:06Z</time>
      </trkpt>
      <trkpt lat="44.55462" lon="1.33673">
        <ele>184</ele>
        <time>2017-09-23T12:49:09Z</time>
      </trkpt>
      <trkpt lat="44.55457" lon="1.33645">
        <ele>184</ele>
        <time>2017-09-23T12:49:25Z</time>
      </trkpt>
      <trkpt lat="44.5545" lon="1.33629">
        <ele>186</ele>
        <time>2017-09-23T12:49:35Z</time>
      </trkpt>
      <trkpt lat="44.5544" lon="1.33616">
        <ele>187</ele>
        <time>2017-09-23T12:49:45Z</time>
      </trkpt>
      <trkpt lat="44.55437" lon="1.33611">
        <ele>188</ele>
        <time>2017-09-23T12:49:49Z</time>
      </trkpt>
      <trkpt lat="44.55437" lon="1.33607">
        <ele>188</ele>
        <time>2017-09-23T12:49:54Z</time>
      </trkpt>
      <trkpt lat="44.55435" lon="1.33603">
        <ele>189</ele>
        <time>2017-09-23T12:50:14Z</time>
      </trkpt>
      <trkpt lat="44.55425" lon="1.33582">
        <ele>193</ele>
        <time>2017-09-23T12:50:29Z</time>
      </trkpt>
      <trkpt lat="44.55422" lon="1.33578">
        <ele>193</ele>
        <time>2017-09-23T12:50:32Z</time>
      </trkpt>
      <trkpt lat="44.55421" lon="1.33574">
        <ele>192</ele>
        <time>2017-09-23T12:50:40Z</time>
      </trkpt>
      <trkpt lat="44.55402" lon="1.33531">
        <ele>205</ele>
        <time>2017-09-23T12:51:11Z</time>
      </trkpt>
      <trkpt lat="44.55376" lon="1.33484">
        <ele>204</ele>
        <time>2017-09-23T12:51:41Z</time>
      </trkpt>
      <trkpt lat="44.55363" lon="1.33461">
        <ele>205</ele>
        <time>2017-09-23T12:51:57Z</time>
      </trkpt>
      <trkpt lat="44.55359" lon="1.33456">
        <ele>206</ele>
        <time>2017-09-23T12:52:02Z</time>
      </trkpt>
      <trkpt lat="44.55352" lon="1.33447">
        <ele>206</ele>
        <time>2017-09-23T12:52:11Z</time>
      </trkpt>
      <trkpt lat="44.55349" lon="1.3344">
        <ele>207</ele>
        <time>2017-09-23T12:52:16Z</time>
      </trkpt>
      <trkpt lat="44.55348" lon="1.33434">
        <ele>207</ele>
        <time>2017-09-23T12:52:21Z</time>
      </trkpt>
      <trkpt lat="44.55345" lon="1.3343">
        <ele>208</ele>
        <time>2017-09-23T12:52:25Z</time>
      </trkpt>
      <trkpt lat="44.55341" lon="1.33417">
        <ele>211</ele>
        <time>2017-09-23T12:52:34Z</time>
      </trkpt>
      <trkpt lat="44.55329" lon="1.33393">
        <ele>215</ele>
        <time>2017-09-23T12:52:53Z</time>
      </trkpt>
      <trkpt lat="44.55325" lon="1.33387">
        <ele>215</ele>
        <time>2017-09-23T12:52:59Z</time>
      </trkpt>
      <trkpt lat="44.5532" lon="1.33381">
        <ele>215</ele>
        <time>2017-09-23T12:53:04Z</time>
      </trkpt>
      <trkpt lat="44.55293" lon="1.33331">
        <ele>203</ele>
        <time>2017-09-23T12:53:37Z</time>
      </trkpt>
      <trkpt lat="44.5529" lon="1.33326">
        <ele>204</ele>
        <time>2017-09-23T12:53:41Z</time>
      </trkpt>
      <trkpt lat="44.55273" lon="1.33292">
        <ele>203</ele>
        <time>2017-09-23T12:54:04Z</time>
      </trkpt>
      <trkpt lat="44.55269" lon="1.33285">
        <ele>203</ele>
        <time>2017-09-23T12:54:08Z</time>
      </trkpt>
      <trkpt lat="44.55266" lon="1.33278">
        <ele>203</ele>
        <time>2017-09-23T12:54:13Z</time>
      </trkpt>
      <trkpt lat="44.55262" lon="1.33275">
        <ele>203</ele>
        <time>2017-09-23T12:54:19Z</time>
      </trkpt>
      <trkpt lat="44.55253" lon="1.33253">
        <ele>204</ele>
        <time>2017-09-23T12:54:34Z</time>
      </trkpt>
      <trkpt lat="44.55251" lon="1.33245">
        <ele>201</ele>
        <time>2017-09-23T12:54:39Z</time>
      </trkpt>
      <trkpt lat="44.55248" lon="1.3324">
        <ele>205</ele>
        <time>2017-09-23T12:54:43Z</time>
      </trkpt>
      <trkpt lat="44.55246" lon="1.33233">
        <ele>205</ele>
        <time>2017-09-23T12:54:47Z</time>
      </trkpt>
      <trkpt lat="44.55235" lon="1.33217">
        <ele>205</ele>
        <time>2017-09-23T12:54:57Z</time>
      </trkpt>
      <trkpt lat="44.55224" lon="1.33197">
        <ele>203</ele>
        <time>2017-09-23T12:55:14Z</time>
      </trkpt>
      <trkpt lat="44.55204" lon="1.33179">
        <ele>205</ele>
        <time>2017-09-23T12:55:32Z</time>
      </trkpt>
      <trkpt lat="44.55189" lon="1.33167">
        <ele>208</ele>
        <time>2017-09-23T12:55:45Z</time>
      </trkpt>
      <trkpt lat="44.55181" lon="1.33158">
        <ele>202</ele>
        <time>2017-09-23T12:55:54Z</time>
      </trkpt>
      <trkpt lat="44.55175" lon="1.33155">
        <ele>203</ele>
        <time>2017-09-23T12:55:59Z</time>
      </trkpt>
      <trkpt lat="44.55171" lon="1.33152">
        <ele>203</ele>
        <time>2017-09-23T12:56:04Z</time>
      </trkpt>
      <trkpt lat="44.55167" lon="1.33147">
        <ele>201</ele>
        <time>2017-09-23T12:56:10Z</time>
      </trkpt>
      <trkpt lat="44.55162" lon="1.33143">
        <ele>206</ele>
        <time>2017-09-23T12:56:16Z</time>
      </trkpt>
      <trkpt lat="44.55155" lon="1.33137">
        <ele>205</ele>
        <time>2017-09-23T12:56:22Z</time>
      </trkpt>
      <trkpt lat="44.55151" lon="1.33134">
        <ele>205</ele>
        <time>2017-09-23T12:56:25Z</time>
      </trkpt>
      <trkpt lat="44.55146" lon="1.33128">
        <ele>204</ele>
        <time>2017-09-23T12:56:29Z</time>
      </trkpt>
      <trkpt lat="44.55119" lon="1.33092">
        <ele>200</ele>
        <time>2017-09-23T12:56:57Z</time>
      </trkpt>
      <trkpt lat="44.55116" lon="1.33087">
        <ele>200</ele>
        <time>2017-09-23T12:57:01Z</time>
      </trkpt>
      <trkpt lat="44.55091" lon="1.33065">
        <ele>191</ele>
        <time>2017-09-23T12:57:23Z</time>
      </trkpt>
      <trkpt lat="44.55079" lon="1.33053">
        <ele>194</ele>
        <time>2017-09-23T12:57:37Z</time>
      </trkpt>
      <trkpt lat="44.55059" lon="1.33029">
        <ele>193</ele>
        <time>2017-09-23T12:57:57Z</time>
      </trkpt>
      <trkpt lat="44.55054" lon="1.33022">
        <ele>193</ele>
        <time>2017-09-23T12:58:11Z</time>
      </trkpt>
      <trkpt lat="44.55051" lon="1.33017">
        <ele>193</ele>
        <time>2017-09-23T12:58:28Z</time>
      </trkpt>
      <trkpt lat="44.55046" lon="1.33011">
        <ele>194</ele>
        <time>2017-09-23T12:58:36Z</time>
      </trkpt>
      <trkpt lat="44.55044" lon="1.33005">
        <ele>194</ele>
        <time>2017-09-23T12:58:40Z</time>
      </trkpt>
      <trkpt lat="44.55041" lon="1.32998">
        <ele>187</ele>
        <time>2017-09-23T12:58:44Z</time>
      </trkpt>
      <trkpt lat="44.55017" lon="1.32959">
        <ele>186</ele>
        <time>2017-09-23T12:59:10Z</time>
      </trkpt>
      <trkpt lat="44.55009" lon="1.32947">
        <ele>186</ele>
        <time>2017-09-23T12:59:21Z</time>
      </trkpt>
      <trkpt lat="44.55004" lon="1.32941">
        <ele>186</ele>
        <time>2017-09-23T12:59:26Z</time>
      </trkpt>
      <trkpt lat="44.55001" lon="1.32935">
        <ele>186</ele>
        <time>2017-09-23T12:59:31Z</time>
      </trkpt>
      <trkpt lat="44.55001" lon="1.32928">
        <ele>186</ele>
        <time>2017-09-23T12:59:36Z</time>
      </trkpt>
      <trkpt lat="44.55001" lon="1.32924">
        <ele>186</ele>
        <time>2017-09-23T13:00:15Z</time>
      </trkpt>
      <trkpt lat="44.54991" lon="1.3292">
        <ele>189</ele>
        <time>2017-09-23T13:00:47Z</time>
      </trkpt>
      <trkpt lat="44.54985" lon="1.32919">
        <ele>190</ele>
        <time>2017-09-23T13:00:54Z</time>
      </trkpt>
      <trkpt lat="44.54979" lon="1.32916">
        <ele>185</ele>
        <time>2017-09-23T13:00:58Z</time>
      </trkpt>
      <trkpt lat="44.54973" lon="1.32912">
        <ele>185</ele>
        <time>2017-09-23T13:01:02Z</time>
      </trkpt>
      <trkpt lat="44.54963" lon="1.32907">
        <ele>185</ele>
        <time>2017-09-23T13:01:09Z</time>
      </trkpt>
      <trkpt lat="44.54958" lon="1.32904">
        <ele>186</ele>
        <time>2017-09-23T13:01:13Z</time>
      </trkpt>
      <trkpt lat="44.54941" lon="1.32901">
        <ele>187</ele>
        <time>2017-09-23T13:01:29Z</time>
      </trkpt>
      <trkpt lat="44.54934" lon="1.32901">
        <ele>188</ele>
        <time>2017-09-23T13:01:35Z</time>
      </trkpt>
      <trkpt lat="44.54886" lon="1.32897">
        <ele>192</ele>
        <time>2017-09-23T13:02:10Z</time>
      </trkpt>
      <trkpt lat="44.54851" lon="1.32892">
        <ele>194</ele>
        <time>2017-09-23T13:02:41Z</time>
      </trkpt>
      <trkpt lat="44.54845" lon="1.32889">
        <ele>194</ele>
        <time>2017-09-23T13:02:48Z</time>
      </trkpt>
      <trkpt lat="44.54839" lon="1.32887">
        <ele>194</ele>
        <time>2017-09-23T13:02:53Z</time>
      </trkpt>
      <trkpt lat="44.5483" lon="1.32883">
        <ele>197</ele>
        <time>2017-09-23T13:03:03Z</time>
      </trkpt>
      <trkpt lat="44.54784" lon="1.32862">
        <ele>197</ele>
        <time>2017-09-23T13:03:35Z</time>
      </trkpt>
      <trkpt lat="44.54742" lon="1.32842">
        <ele>198</ele>
        <time>2017-09-23T13:04:07Z</time>
      </trkpt>
      <trkpt lat="44.54737" lon="1.3284">
        <ele>198</ele>
        <time>2017-09-23T13:04:11Z</time>
      </trkpt>
      <trkpt lat="44.54718" lon="1.32838">
        <ele>200</ele>
        <time>2017-09-23T13:04:28Z</time>
      </trkpt>
      <trkpt lat="44.54712" lon="1.32837">
        <ele>200</ele>
        <time>2017-09-23T13:04:33Z</time>
      </trkpt>
      <trkpt lat="44.54705" lon="1.32838">
        <ele>201</ele>
        <time>2017-09-23T13:04:39Z</time>
      </trkpt>
      <trkpt lat="44.54689" lon="1.32836">
        <ele>201</ele>
        <time>2017-09-23T13:04:49Z</time>
      </trkpt>
      <trkpt lat="44.54683" lon="1.32836">
        <ele>201</ele>
        <time>2017-09-23T13:04:53Z</time>
      </trkpt>
      <trkpt lat="44.54648" lon="1.32827">
        <ele>194</ele>
        <time>2017-09-23T13:05:21Z</time>
      </trkpt>
      <trkpt lat="44.54642" lon="1.32827">
        <ele>193</ele>
        <time>2017-09-23T13:05:25Z</time>
      </trkpt>
      <trkpt lat="44.54628" lon="1.32822">
        <ele>191</ele>
        <time>2017-09-23T13:05:36Z</time>
      </trkpt>
      <trkpt lat="44.54595" lon="1.32802">
        <ele>190</ele>
        <time>2017-09-23T13:06:07Z</time>
      </trkpt>
      <trkpt lat="44.54584" lon="1.32794">
        <ele>189</ele>
        <time>2017-09-23T13:06:16Z</time>
      </trkpt>
      <trkpt lat="44.5458" lon="1.3279">
        <ele>183</ele>
        <time>2017-09-23T13:06:21Z</time>
      </trkpt>
      <trkpt lat="44.54575" lon="1.32784">
        <ele>182</ele>
        <time>2017-09-23T13:06:26Z</time>
      </trkpt>
      <trkpt lat="44.54571" lon="1.32779">
        <ele>182</ele>
        <time>2017-09-23T13:06:31Z</time>
      </trkpt>
      <trkpt lat="44.54565" lon="1.32774">
        <ele>182</ele>
        <time>2017-09-23T13:06:40Z</time>
      </trkpt>
      <trkpt lat="44.54561" lon="1.32769">
        <ele>181</ele>
        <time>2017-09-23T13:06:44Z</time>
      </trkpt>
      <trkpt lat="44.54556" lon="1.32762">
        <ele>181</ele>
        <time>2017-09-23T13:06:49Z</time>
      </trkpt>
      <trkpt lat="44.54533" lon="1.32722">
        <ele>172</ele>
        <time>2017-09-23T13:07:18Z</time>
      </trkpt>
      <trkpt lat="44.54525" lon="1.32704">
        <ele>171</ele>
        <time>2017-09-23T13:07:31Z</time>
      </trkpt>
      <trkpt lat="44.54522" lon="1.32698">
        <ele>170</ele>
        <time>2017-09-23T13:07:35Z</time>
      </trkpt>
      <trkpt lat="44.54521" lon="1.32692">
        <ele>170</ele>
        <time>2017-09-23T13:07:39Z</time>
      </trkpt>
      <trkpt lat="44.54519" lon="1.32687">
        <ele>169</ele>
        <time>2017-09-23T13:07:45Z</time>
      </trkpt>
      <trkpt lat="44.54518" lon="1.32681">
        <ele>169</ele>
        <time>2017-09-23T13:07:50Z</time>
      </trkpt>
      <trkpt lat="44.54515" lon="1.32678">
        <ele>169</ele>
        <time>2017-09-23T13:08:26Z</time>
      </trkpt>
      <trkpt lat="44.54514" lon="1.32671">
        <ele>168</ele>
        <time>2017-09-23T13:09:15Z</time>
      </trkpt>
      <trkpt lat="44.5451" lon="1.32668">
        <ele>168</ele>
        <time>2017-09-23T13:09:25Z</time>
      </trkpt>
      <trkpt lat="44.54483" lon="1.32676">
        <ele>167</ele>
        <time>2017-09-23T13:09:52Z</time>
      </trkpt>
      <trkpt lat="44.54479" lon="1.32679">
        <ele>168</ele>
        <time>2017-09-23T13:09:56Z</time>
      </trkpt>
      <trkpt lat="44.54445" lon="1.32694">
        <ele>168</ele>
        <time>2017-09-23T13:10:30Z</time>
      </trkpt>
      <trkpt lat="44.54436" lon="1.32698">
        <ele>168</ele>
        <time>2017-09-23T13:10:37Z</time>
      </trkpt>
      <trkpt lat="44.54399" lon="1.32709">
        <ele>168</ele>
        <time>2017-09-23T13:11:10Z</time>
      </trkpt>
      <trkpt lat="44.5439" lon="1.32711">
        <ele>168</ele>
        <time>2017-09-23T13:11:17Z</time>
      </trkpt>
      <trkpt lat="44.54386" lon="1.32711">
        <ele>168</ele>
        <time>2017-09-23T13:11:22Z</time>
      </trkpt>
      <trkpt lat="44.54375" lon="1.32716">
        <ele>168</ele>
        <time>2017-09-23T13:11:33Z</time>
      </trkpt>
      <trkpt lat="44.54338" lon="1.3274">
        <ele>168</ele>
        <time>2017-09-23T13:12:04Z</time>
      </trkpt>
      <trkpt lat="44.54316" lon="1.32764">
        <ele>171</ele>
        <time>2017-09-23T13:12:26Z</time>
      </trkpt>
      <trkpt lat="44.54289" lon="1.32799">
        <ele>173</ele>
        <time>2017-09-23T13:12:57Z</time>
      </trkpt>
      <trkpt lat="44.54288" lon="1.32802">
        <ele>173</ele>
        <time>2017-09-23T13:12:59Z</time>
      </trkpt>
      <trkpt lat="44.54285" lon="1.32806">
        <ele>173</ele>
        <time>2017-09-23T13:13:03Z</time>
      </trkpt>
      <trkpt lat="44.54283" lon="1.3281">
        <ele>173</ele>
        <time>2017-09-23T13:13:07Z</time>
      </trkpt>
      <trkpt lat="44.54282" lon="1.32811">
        <ele>173</ele>
        <time>2017-09-23T13:13:08Z</time>
      </trkpt>
      <trkpt lat="44.5426" lon="1.32849">
        <ele>180</ele>
        <time>2017-09-23T13:13:40Z</time>
      </trkpt>
      <trkpt lat="44.54241" lon="1.32863">
        <ele>176</ele>
        <time>2017-09-23T13:14:00Z</time>
      </trkpt>
      <trkpt lat="44.54228" lon="1.32876">
        <ele>177</ele>
        <time>2017-09-23T13:14:27Z</time>
      </trkpt>
      <trkpt lat="44.54227" lon="1.32882">
        <ele>178</ele>
        <time>2017-09-23T13:14:41Z</time>
      </trkpt>
      <trkpt lat="44.54219" lon="1.32892">
        <ele>178</ele>
        <time>2017-09-23T13:14:56Z</time>
      </trkpt>
      <trkpt lat="44.54215" lon="1.32897">
        <ele>178</ele>
        <time>2017-09-23T13:15:04Z</time>
      </trkpt>
      <trkpt lat="44.54211" lon="1.329">
        <ele>178</ele>
        <time>2017-09-23T13:15:15Z</time>
      </trkpt>
      <trkpt lat="44.54202" lon="1.32898">
        <ele>177</ele>
        <time>2017-09-23T13:15:42Z</time>
      </trkpt>
      <trkpt lat="44.54196" lon="1.32898">
        <ele>176</ele>
        <time>2017-09-23T13:15:46Z</time>
      </trkpt>
      <trkpt lat="44.5419" lon="1.32901">
        <ele>176</ele>
        <time>2017-09-23T13:15:51Z</time>
      </trkpt>
      <trkpt lat="44.54177" lon="1.32903">
        <ele>175</ele>
        <time>2017-09-23T13:16:00Z</time>
      </trkpt>
      <trkpt lat="44.5417" lon="1.32905">
        <ele>175</ele>
        <time>2017-09-23T13:16:06Z</time>
      </trkpt>
      <trkpt lat="44.54146" lon="1.32908">
        <ele>173</ele>
        <time>2017-09-23T13:16:24Z</time>
      </trkpt>
      <trkpt lat="44.54135" lon="1.32911">
        <ele>173</ele>
        <time>2017-09-23T13:16:35Z</time>
      </trkpt>
      <trkpt lat="44.54119" lon="1.32915">
        <ele>173</ele>
        <time>2017-09-23T13:16:44Z</time>
      </trkpt>
      <trkpt lat="44.54088" lon="1.32916">
        <ele>174</ele>
        <time>2017-09-23T13:16:59Z</time>
      </trkpt>
      <trkpt lat="44.54054" lon="1.32916">
        <ele>176</ele>
        <time>2017-09-23T13:17:15Z</time>
      </trkpt>
      <trkpt lat="44.54047" lon="1.32916">
        <ele>176</ele>
        <time>2017-09-23T13:17:19Z</time>
      </trkpt>
      <trkpt lat="44.54031" lon="1.32921">
        <ele>178</ele>
        <time>2017-09-23T13:17:29Z</time>
      </trkpt>
      <trkpt lat="44.53999" lon="1.32928">
        <ele>176</ele>
        <time>2017-09-23T13:17:51Z</time>
      </trkpt>
      <trkpt lat="44.5399" lon="1.32934">
        <ele>178</ele>
        <time>2017-09-23T13:17:58Z</time>
      </trkpt>
      <trkpt lat="44.53978" lon="1.32947">
        <ele>180</ele>
        <time>2017-09-23T13:18:09Z</time>
      </trkpt>
      <trkpt lat="44.5395" lon="1.32993">
        <ele>181</ele>
        <time>2017-09-23T13:18:39Z</time>
      </trkpt>
      <trkpt lat="44.53947" lon="1.32997">
        <ele>180</ele>
        <time>2017-09-23T13:18:42Z</time>
      </trkpt>
      <trkpt lat="44.53941" lon="1.33009">
        <ele>184</ele>
        <time>2017-09-23T13:18:49Z</time>
      </trkpt>
      <trkpt lat="44.53914" lon="1.33057">
        <ele>185</ele>
        <time>2017-09-23T13:19:19Z</time>
      </trkpt>
      <trkpt lat="44.53912" lon="1.33062">
        <ele>186</ele>
        <time>2017-09-23T13:19:22Z</time>
      </trkpt>
      <trkpt lat="44.5391" lon="1.33066">
        <ele>186</ele>
        <time>2017-09-23T13:19:25Z</time>
      </trkpt>
      <trkpt lat="44.53902" lon="1.33086">
        <ele>188</ele>
        <time>2017-09-23T13:19:37Z</time>
      </trkpt>
      <trkpt lat="44.53884" lon="1.33127">
        <ele>192</ele>
        <time>2017-09-23T13:20:00Z</time>
      </trkpt>
      <trkpt lat="44.53882" lon="1.33132">
        <ele>192</ele>
        <time>2017-09-23T13:20:03Z</time>
      </trkpt>
      <trkpt lat="44.5388" lon="1.33138">
        <ele>193</ele>
        <time>2017-09-23T13:20:07Z</time>
      </trkpt>
      <trkpt lat="44.53874" lon="1.33146">
        <ele>192</ele>
        <time>2017-09-23T13:20:16Z</time>
      </trkpt>
      <trkpt lat="44.53869" lon="1.33154">
        <ele>192</ele>
        <time>2017-09-23T13:20:23Z</time>
      </trkpt>
      <trkpt lat="44.53864" lon="1.33159">
        <ele>191</ele>
        <time>2017-09-23T13:20:27Z</time>
      </trkpt>
      <trkpt lat="44.53861" lon="1.33165">
        <ele>191</ele>
        <time>2017-09-23T13:20:30Z</time>
      </trkpt>
      <trkpt lat="44.53853" lon="1.3318">
        <ele>196</ele>
        <time>2017-09-23T13:20:39Z</time>
      </trkpt>
      <trkpt lat="44.53818" lon="1.33225">
        <ele>196</ele>
        <time>2017-09-23T13:21:13Z</time>
      </trkpt>
      <trkpt lat="44.53814" lon="1.33234">
        <ele>196</ele>
        <time>2017-09-23T13:21:18Z</time>
      </trkpt>
      <trkpt lat="44.53812" lon="1.33244">
        <ele>196</ele>
        <time>2017-09-23T13:21:23Z</time>
      </trkpt>
      <trkpt lat="44.53809" lon="1.33253">
        <ele>200</ele>
        <time>2017-09-23T13:21:28Z</time>
      </trkpt>
      <trkpt lat="44.53804" lon="1.33259">
        <ele>200</ele>
        <time>2017-09-23T13:21:32Z</time>
      </trkpt>
      <trkpt lat="44.53786" lon="1.3328">
        <ele>201</ele>
        <time>2017-09-23T13:21:48Z</time>
      </trkpt>
      <trkpt lat="44.53782" lon="1.33287">
        <ele>201</ele>
        <time>2017-09-23T13:21:53Z</time>
      </trkpt>
      <trkpt lat="44.53777" lon="1.33296">
        <ele>202</ele>
        <time>2017-09-23T13:21:58Z</time>
      </trkpt>
      <trkpt lat="44.53773" lon="1.33316">
        <ele>202</ele>
        <time>2017-09-23T13:22:08Z</time>
      </trkpt>
      <trkpt lat="44.53745" lon="1.33358">
        <ele>208</ele>
        <time>2017-09-23T13:22:38Z</time>
      </trkpt>
      <trkpt lat="44.53741" lon="1.33367">
        <ele>210</ele>
        <time>2017-09-23T13:22:44Z</time>
      </trkpt>
      <trkpt lat="44.53738" lon="1.33377">
        <ele>211</ele>
        <time>2017-09-23T13:22:49Z</time>
      </trkpt>
      <trkpt lat="44.53728" lon="1.33392">
        <ele>213</ele>
        <time>2017-09-23T13:22:59Z</time>
      </trkpt>
      <trkpt lat="44.53722" lon="1.33396">
        <ele>213</ele>
        <time>2017-09-23T13:23:04Z</time>
      </trkpt>
      <trkpt lat="44.53719" lon="1.33404">
        <ele>213</ele>
        <time>2017-09-23T13:23:09Z</time>
      </trkpt>
      <trkpt lat="44.53716" lon="1.3341">
        <ele>213</ele>
        <time>2017-09-23T13:23:13Z</time>
      </trkpt>
      <trkpt lat="44.53711" lon="1.33414">
        <ele>213</ele>
        <time>2017-09-23T13:23:18Z</time>
      </trkpt>
      <trkpt lat="44.53707" lon="1.33421">
        <ele>218</ele>
        <time>2017-09-23T13:23:23Z</time>
      </trkpt>
      <trkpt lat="44.53695" lon="1.33428">
        <ele>217</ele>
        <time>2017-09-23T13:23:30Z</time>
      </trkpt>
      <trkpt lat="44.5369" lon="1.33434">
        <ele>217</ele>
        <time>2017-09-23T13:23:35Z</time>
      </trkpt>
      <trkpt lat="44.53685" lon="1.33438">
        <ele>217</ele>
        <time>2017-09-23T13:23:39Z</time>
      </trkpt>
      <trkpt lat="44.53673" lon="1.33455">
        <ele>218</ele>
        <time>2017-09-23T13:23:52Z</time>
      </trkpt>
      <trkpt lat="44.53669" lon="1.33459">
        <ele>218</ele>
        <time>2017-09-23T13:23:56Z</time>
      </trkpt>
      <trkpt lat="44.53666" lon="1.33462">
        <ele>221</ele>
        <time>2017-09-23T13:24:11Z</time>
      </trkpt>
      <trkpt lat="44.53644" lon="1.33495">
        <ele>222</ele>
        <time>2017-09-23T13:24:35Z</time>
      </trkpt>
      <trkpt lat="44.5362" lon="1.33552">
        <ele>226</ele>
        <time>2017-09-23T13:25:07Z</time>
      </trkpt>
      <trkpt lat="44.53602" lon="1.33595">
        <ele>228</ele>
        <time>2017-09-23T13:25:33Z</time>
      </trkpt>
      <trkpt lat="44.53591" lon="1.33613">
        <ele>229</ele>
        <time>2017-09-23T13:25:46Z</time>
      </trkpt>
      <trkpt lat="44.53588" lon="1.3362">
        <ele>229</ele>
        <time>2017-09-23T13:25:50Z</time>
      </trkpt>
      <trkpt lat="44.5358" lon="1.3364">
        <ele>230</ele>
        <time>2017-09-23T13:26:03Z</time>
      </trkpt>
      <trkpt lat="44.5357" lon="1.33666">
        <ele>229</ele>
        <time>2017-09-23T13:26:19Z</time>
      </trkpt>
      <trkpt lat="44.53569" lon="1.33675">
        <ele>231</ele>
        <time>2017-09-23T13:26:25Z</time>
      </trkpt>
      <trkpt lat="44.53545" lon="1.33723">
        <ele>234</ele>
        <time>2017-09-23T13:26:55Z</time>
      </trkpt>
      <trkpt lat="44.53517" lon="1.33758">
        <ele>237</ele>
        <time>2017-09-23T13:27:23Z</time>
      </trkpt>
      <trkpt lat="44.53516" lon="1.33763">
        <ele>237</ele>
        <time>2017-09-23T13:27:27Z</time>
      </trkpt>
      <trkpt lat="44.53506" lon="1.33779">
        <ele>237</ele>
        <time>2017-09-23T13:27:38Z</time>
      </trkpt>
      <trkpt lat="44.535" lon="1.33789">
        <ele>238</ele>
        <time>2017-09-23T13:27:45Z</time>
      </trkpt>
      <trkpt lat="44.53496" lon="1.33792">
        <ele>238</ele>
        <time>2017-09-23T13:27:48Z</time>
      </trkpt>
      <trkpt lat="44.53488" lon="1.33808">
        <ele>238</ele>
        <time>2017-09-23T13:27:58Z</time>
      </trkpt>
      <trkpt lat="44.53482" lon="1.3382">
        <ele>238</ele>
        <time>2017-09-23T13:28:07Z</time>
      </trkpt>
      <trkpt lat="44.53479" lon="1.33825">
        <ele>238</ele>
        <time>2017-09-23T13:28:16Z</time>
      </trkpt>
      <trkpt lat="44.53472" lon="1.33842">
        <ele>240</ele>
        <time>2017-09-23T13:28:27Z</time>
      </trkpt>
      <trkpt lat="44.5347" lon="1.33849">
        <ele>240</ele>
        <time>2017-09-23T13:28:31Z</time>
      </trkpt>
      <trkpt lat="44.53467" lon="1.33849">
        <ele>240</ele>
        <time>2017-09-23T13:31:00Z</time>
      </trkpt>
      <trkpt lat="44.53466" lon="1.33855">
        <ele>240</ele>
        <time>2017-09-23T13:31:50Z</time>
      </trkpt>
      <trkpt lat="44.53451" lon="1.33866">
        <ele>241</ele>
        <time>2017-09-23T13:32:06Z</time>
      </trkpt>
      <trkpt lat="44.53411" lon="1.33885">
        <ele>246</ele>
        <time>2017-09-23T13:32:37Z</time>
      </trkpt>
      <trkpt lat="44.53396" lon="1.33889">
        <ele>247</ele>
        <time>2017-09-23T13:32:48Z</time>
      </trkpt>
      <trkpt lat="44.53392" lon="1.33889">
        <ele>247</ele>
        <time>2017-09-23T13:32:51Z</time>
      </trkpt>
      <trkpt lat="44.53388" lon="1.33889">
        <ele>247</ele>
        <time>2017-09-23T13:32:54Z</time>
      </trkpt>
      <trkpt lat="44.53371" lon="1.33895">
        <ele>248</ele>
        <time>2017-09-23T13:33:08Z</time>
      </trkpt>
      <trkpt lat="44.53366" lon="1.33895">
        <ele>248</ele>
        <time>2017-09-23T13:33:12Z</time>
      </trkpt>
      <trkpt lat="44.53326" lon="1.33878">
        <ele>252</ele>
        <time>2017-09-23T13:33:44Z</time>
      </trkpt>
      <trkpt lat="44.53311" lon="1.3387">
        <ele>252</ele>
        <time>2017-09-23T13:33:57Z</time>
      </trkpt>
      <trkpt lat="44.53307" lon="1.33868">
        <ele>252</ele>
        <time>2017-09-23T13:34:00Z</time>
      </trkpt>
      <trkpt lat="44.53271" lon="1.33845">
        <ele>254</ele>
        <time>2017-09-23T13:34:30Z</time>
      </trkpt>
      <trkpt lat="44.53245" lon="1.33829">
        <ele>256</ele>
        <time>2017-09-23T13:34:50Z</time>
      </trkpt>
      <trkpt lat="44.53227" lon="1.33824">
        <ele>256</ele>
        <time>2017-09-23T13:35:04Z</time>
      </trkpt>
      <trkpt lat="44.53217" lon="1.33825">
        <ele>257</ele>
        <time>2017-09-23T13:35:13Z</time>
      </trkpt>
      <trkpt lat="44.53212" lon="1.33824">
        <ele>257</ele>
        <time>2017-09-23T13:35:17Z</time>
      </trkpt>
      <trkpt lat="44.5317" lon="1.33834">
        <ele>259</ele>
        <time>2017-09-23T13:35:48Z</time>
      </trkpt>
      <trkpt lat="44.53167" lon="1.33835">
        <ele>259</ele>
        <time>2017-09-23T13:35:51Z</time>
      </trkpt>
      <trkpt lat="44.53159" lon="1.33838">
        <ele>259</ele>
        <time>2017-09-23T13:35:58Z</time>
      </trkpt>
      <trkpt lat="44.53146" lon="1.33838">
        <ele>260</ele>
        <time>2017-09-23T13:36:08Z</time>
      </trkpt>
      <trkpt lat="44.53118" lon="1.33847">
        <ele>259</ele>
        <time>2017-09-23T13:36:30Z</time>
      </trkpt>
      <trkpt lat="44.5311" lon="1.33852">
        <ele>259</ele>
        <time>2017-09-23T13:36:39Z</time>
      </trkpt>
      <trkpt lat="44.53104" lon="1.33854">
        <ele>259</ele>
        <time>2017-09-23T13:36:44Z</time>
      </trkpt>
      <trkpt lat="44.53092" lon="1.33854">
        <ele>259</ele>
        <time>2017-09-23T13:36:53Z</time>
      </trkpt>
      <trkpt lat="44.53087" lon="1.33858">
        <ele>259</ele>
        <time>2017-09-23T13:36:58Z</time>
      </trkpt>
      <trkpt lat="44.53081" lon="1.33857">
        <ele>259</ele>
        <time>2017-09-23T13:37:02Z</time>
      </trkpt>
      <trkpt lat="44.53071" lon="1.33862">
        <ele>259</ele>
        <time>2017-09-23T13:37:10Z</time>
      </trkpt>
      <trkpt lat="44.5306" lon="1.33866">
        <ele>259</ele>
        <time>2017-09-23T13:37:18Z</time>
      </trkpt>
      <trkpt lat="44.53049" lon="1.33869">
        <ele>259</ele>
        <time>2017-09-23T13:37:26Z</time>
      </trkpt>
      <trkpt lat="44.5304" lon="1.33876">
        <ele>260</ele>
        <time>2017-09-23T13:37:34Z</time>
      </trkpt>
      <trkpt lat="44.53036" lon="1.33878">
        <ele>260</ele>
        <time>2017-09-23T13:37:37Z</time>
      </trkpt>
      <trkpt lat="44.53027" lon="1.33889">
        <ele>259</ele>
        <time>2017-09-23T13:37:46Z</time>
      </trkpt>
      <trkpt lat="44.53013" lon="1.33897">
        <ele>259</ele>
        <time>2017-09-23T13:38:02Z</time>
      </trkpt>
      <trkpt lat="44.52999" lon="1.33902">
        <ele>259</ele>
        <time>2017-09-23T13:38:13Z</time>
      </trkpt>
      <trkpt lat="44.52978" lon="1.33897">
        <ele>260</ele>
        <time>2017-09-23T13:38:30Z</time>
      </trkpt>
      <trkpt lat="44.52966" lon="1.33892">
        <ele>260</ele>
        <time>2017-09-23T13:38:39Z</time>
      </trkpt>
      <trkpt lat="44.52932" lon="1.33869">
        <ele>262</ele>
        <time>2017-09-23T13:39:09Z</time>
      </trkpt>
      <trkpt lat="44.5292" lon="1.33856">
        <ele>263</ele>
        <time>2017-09-23T13:39:21Z</time>
      </trkpt>
      <trkpt lat="44.52918" lon="1.33853">
        <ele>263</ele>
        <time>2017-09-23T13:39:24Z</time>
      </trkpt>
      <trkpt lat="44.52914" lon="1.33851">
        <ele>263</ele>
        <time>2017-09-23T13:39:27Z</time>
      </trkpt>
      <trkpt lat="44.5291" lon="1.33845">
        <ele>263</ele>
        <time>2017-09-23T13:39:31Z</time>
      </trkpt>
      <trkpt lat="44.5289" lon="1.33829">
        <ele>265</ele>
        <time>2017-09-23T13:39:49Z</time>
      </trkpt>
      <trkpt lat="44.52887" lon="1.33825">
        <ele>265</ele>
        <time>2017-09-23T13:39:52Z</time>
      </trkpt>
      <trkpt lat="44.52878" lon="1.33815">
        <ele>265</ele>
        <time>2017-09-23T13:40:01Z</time>
      </trkpt>
      <trkpt lat="44.52872" lon="1.33808">
        <ele>265</ele>
        <time>2017-09-23T13:40:08Z</time>
      </trkpt>
      <trkpt lat="44.52838" lon="1.3377">
        <ele>268</ele>
        <time>2017-09-23T13:40:40Z</time>
      </trkpt>
      <trkpt lat="44.52808" lon="1.33741">
        <ele>273</ele>
        <time>2017-09-23T13:41:07Z</time>
      </trkpt>
      <trkpt lat="44.52777" lon="1.33722">
        <ele>274</ele>
        <time>2017-09-23T13:41:33Z</time>
      </trkpt>
      <trkpt lat="44.52772" lon="1.33719">
        <ele>275</ele>
        <time>2017-09-23T13:41:38Z</time>
      </trkpt>
      <trkpt lat="44.52737" lon="1.33693">
        <ele>275</ele>
        <time>2017-09-23T13:42:08Z</time>
      </trkpt>
      <trkpt lat="44.52735" lon="1.33689">
        <ele>276</ele>
        <time>2017-09-23T13:42:10Z</time>
      </trkpt>
      <trkpt lat="44.52733" lon="1.33687">
        <ele>276</ele>
        <time>2017-09-23T13:42:12Z</time>
      </trkpt>
      <trkpt lat="44.52731" lon="1.33685">
        <ele>276</ele>
        <time>2017-09-23T13:42:14Z</time>
      </trkpt>
      <trkpt lat="44.52728" lon="1.33683">
        <ele>276</ele>
        <time>2017-09-23T13:42:17Z</time>
      </trkpt>
      <trkpt lat="44.52721" lon="1.33682">
        <ele>275</ele>
        <time>2017-09-23T13:42:23Z</time>
      </trkpt>
      <trkpt lat="44.52715" lon="1.33683">
        <ele>275</ele>
        <time>2017-09-23T13:42:27Z</time>
      </trkpt>
      <trkpt lat="44.5268" lon="1.33708">
        <ele>274</ele>
        <time>2017-09-23T13:42:57Z</time>
      </trkpt>
      <trkpt lat="44.52678" lon="1.3371">
        <ele>274</ele>
        <time>2017-09-23T13:42:59Z</time>
      </trkpt>
      <trkpt lat="44.5266" lon="1.33723">
        <ele>273</ele>
        <time>2017-09-23T13:43:15Z</time>
      </trkpt>
      <trkpt lat="44.52641" lon="1.33727">
        <ele>273</ele>
        <time>2017-09-23T13:43:31Z</time>
      </trkpt>
      <trkpt lat="44.52624" lon="1.33728">
        <ele>272</ele>
        <time>2017-09-23T13:43:43Z</time>
      </trkpt>
      <trkpt lat="44.52622" lon="1.33726">
        <ele>272</ele>
        <time>2017-09-23T13:43:45Z</time>
      </trkpt>
      <trkpt lat="44.5262" lon="1.33725">
        <ele>272</ele>
        <time>2017-09-23T13:43:47Z</time>
      </trkpt>
      <trkpt lat="44.52612" lon="1.3372">
        <ele>272</ele>
        <time>2017-09-23T13:43:53Z</time>
      </trkpt>
      <trkpt lat="44.52603" lon="1.33706">
        <ele>272</ele>
        <time>2017-09-23T13:44:03Z</time>
      </trkpt>
      <trkpt lat="44.52598" lon="1.33701">
        <ele>272</ele>
        <time>2017-09-23T13:44:07Z</time>
      </trkpt>
      <trkpt lat="44.52596" lon="1.337">
        <ele>272</ele>
        <time>2017-09-23T13:44:09Z</time>
      </trkpt>
      <trkpt lat="44.52594" lon="1.33699">
        <ele>272</ele>
        <time>2017-09-23T13:44:11Z</time>
      </trkpt>
      <trkpt lat="44.52592" lon="1.33698">
        <ele>272</ele>
        <time>2017-09-23T13:44:13Z</time>
      </trkpt>
      <trkpt lat="44.52589" lon="1.33698">
        <ele>272</ele>
        <time>2017-09-23T13:44:15Z</time>
      </trkpt>
      <trkpt lat="44.52582" lon="1.33698">
        <ele>270</ele>
        <time>2017-09-23T13:44:21Z</time>
      </trkpt>
      <trkpt lat="44.52581" lon="1.33697">
        <ele>270</ele>
        <time>2017-09-23T13:44:23Z</time>
      </trkpt>
      <trkpt lat="44.52579" lon="1.337">
        <ele>270</ele>
        <time>2017-09-23T13:44:40Z</time>
      </trkpt>
      <trkpt lat="44.52577" lon="1.33699">
        <ele>270</ele>
        <time>2017-09-23T13:44:48Z</time>
      </trkpt>
      <trkpt lat="44.52574" lon="1.33699">
        <ele>270</ele>
        <time>2017-09-23T13:44:50Z</time>
      </trkpt>
      <trkpt lat="44.52572" lon="1.33699">
        <ele>270</ele>
        <time>2017-09-23T13:44:52Z</time>
      </trkpt>
      <trkpt lat="44.52567" lon="1.33701">
        <ele>269</ele>
        <time>2017-09-23T13:44:57Z</time>
      </trkpt>
      <trkpt lat="44.52557" lon="1.33706">
        <ele>269</ele>
        <time>2017-09-23T13:45:06Z</time>
      </trkpt>
      <trkpt lat="44.5255" lon="1.33711">
        <ele>269</ele>
        <time>2017-09-23T13:45:12Z</time>
      </trkpt>
      <trkpt lat="44.52545" lon="1.33714">
        <ele>269</ele>
        <time>2017-09-23T13:45:16Z</time>
      </trkpt>
      <trkpt lat="44.52541" lon="1.33717">
        <ele>269</ele>
        <time>2017-09-23T13:45:20Z</time>
      </trkpt>
      <trkpt lat="44.52533" lon="1.33722">
        <ele>268</ele>
        <time>2017-09-23T13:45:27Z</time>
      </trkpt>
      <trkpt lat="44.52522" lon="1.33727">
        <ele>268</ele>
        <time>2017-09-23T13:45:35Z</time>
      </trkpt>
      <trkpt lat="44.52507" lon="1.33729">
        <ele>268</ele>
        <time>2017-09-23T13:45:47Z</time>
      </trkpt>
      <trkpt lat="44.52492" lon="1.33724">
        <ele>265</ele>
        <time>2017-09-23T13:45:58Z</time>
      </trkpt>
      <trkpt lat="44.52489" lon="1.33723">
        <ele>265</ele>
        <time>2017-09-23T13:46:01Z</time>
      </trkpt>
      <trkpt lat="44.52483" lon="1.3372">
        <ele>265</ele>
        <time>2017-09-23T13:46:06Z</time>
      </trkpt>
      <trkpt lat="44.52477" lon="1.33719">
        <ele>265</ele>
        <time>2017-09-23T13:46:10Z</time>
      </trkpt>
      <trkpt lat="44.52474" lon="1.33719">
        <ele>265</ele>
        <time>2017-09-23T13:46:13Z</time>
      </trkpt>
      <trkpt lat="44.52461" lon="1.33717">
        <ele>265</ele>
        <time>2017-09-23T13:46:22Z</time>
      </trkpt>
      <trkpt lat="44.52457" lon="1.33719">
        <ele>264</ele>
        <time>2017-09-23T13:46:30Z</time>
      </trkpt>
      <trkpt lat="44.52454" lon="1.33717">
        <ele>264</ele>
        <time>2017-09-23T13:46:36Z</time>
      </trkpt>
      <trkpt lat="44.52451" lon="1.33717">
        <ele>264</ele>
        <time>2017-09-23T13:46:39Z</time>
      </trkpt>
      <trkpt lat="44.52444" lon="1.33714">
        <ele>264</ele>
        <time>2017-09-23T13:46:45Z</time>
      </trkpt>
      <trkpt lat="44.52419" lon="1.33707">
        <ele>264</ele>
        <time>2017-09-23T13:47:07Z</time>
      </trkpt>
      <trkpt lat="44.52399" lon="1.33703">
        <ele>259</ele>
        <time>2017-09-23T13:47:22Z</time>
      </trkpt>
      <trkpt lat="44.52395" lon="1.33701">
        <ele>259</ele>
        <time>2017-09-23T13:47:25Z</time>
      </trkpt>
      <trkpt lat="44.52388" lon="1.33697">
        <ele>259</ele>
        <time>2017-09-23T13:47:31Z</time>
      </trkpt>
      <trkpt lat="44.52383" lon="1.3369">
        <ele>259</ele>
        <time>2017-09-23T13:47:35Z</time>
      </trkpt>
      <trkpt lat="44.52375" lon="1.33677">
        <ele>259</ele>
        <time>2017-09-23T13:47:43Z</time>
      </trkpt>
      <trkpt lat="44.5237" lon="1.33672">
        <ele>259</ele>
        <time>2017-09-23T13:47:48Z</time>
      </trkpt>
      <trkpt lat="44.52366" lon="1.33669">
        <ele>259</ele>
        <time>2017-09-23T13:47:51Z</time>
      </trkpt>
      <trkpt lat="44.52362" lon="1.33668">
        <ele>258</ele>
        <time>2017-09-23T13:47:55Z</time>
      </trkpt>
      <trkpt lat="44.52359" lon="1.33668">
        <ele>258</ele>
        <time>2017-09-23T13:47:58Z</time>
      </trkpt>
      <trkpt lat="44.52354" lon="1.33665">
        <ele>260</ele>
        <time>2017-09-23T13:48:02Z</time>
      </trkpt>
      <trkpt lat="44.52343" lon="1.33661">
        <ele>259</ele>
        <time>2017-09-23T13:48:11Z</time>
      </trkpt>
      <trkpt lat="44.52339" lon="1.33661">
        <ele>259</ele>
        <time>2017-09-23T13:48:14Z</time>
      </trkpt>
      <trkpt lat="44.52329" lon="1.33657">
        <ele>257</ele>
        <time>2017-09-23T13:48:20Z</time>
      </trkpt>
      <trkpt lat="44.52324" lon="1.33657">
        <ele>257</ele>
        <time>2017-09-23T13:48:24Z</time>
      </trkpt>
      <trkpt lat="44.52306" lon="1.33651">
        <ele>256</ele>
        <time>2017-09-23T13:48:37Z</time>
      </trkpt>
      <trkpt lat="44.52289" lon="1.33655">
        <ele>255</ele>
        <time>2017-09-23T13:48:50Z</time>
      </trkpt>
      <trkpt lat="44.5228" lon="1.33656">
        <ele>255</ele>
        <time>2017-09-23T13:48:57Z</time>
      </trkpt>
      <trkpt lat="44.52275" lon="1.33656">
        <ele>255</ele>
        <time>2017-09-23T13:49:01Z</time>
      </trkpt>
      <trkpt lat="44.5227" lon="1.33657">
        <ele>254</ele>
        <time>2017-09-23T13:49:05Z</time>
      </trkpt>
      <trkpt lat="44.5226" lon="1.33655">
        <ele>254</ele>
        <time>2017-09-23T13:49:12Z</time>
      </trkpt>
      <trkpt lat="44.52237" lon="1.33655">
        <ele>253</ele>
        <time>2017-09-23T13:49:28Z</time>
      </trkpt>
      <trkpt lat="44.52225" lon="1.33659">
        <ele>253</ele>
        <time>2017-09-23T13:49:38Z</time>
      </trkpt>
      <trkpt lat="44.52189" lon="1.33671">
        <ele>254</ele>
        <time>2017-09-23T13:50:07Z</time>
      </trkpt>
      <trkpt lat="44.52186" lon="1.33671">
        <ele>254</ele>
        <time>2017-09-23T13:50:10Z</time>
      </trkpt>
      <trkpt lat="44.52179" lon="1.33666">
        <ele>255</ele>
        <time>2017-09-23T13:50:17Z</time>
      </trkpt>
      <trkpt lat="44.52176" lon="1.33666">
        <ele>255</ele>
        <time>2017-09-23T13:50:20Z</time>
      </trkpt>
      <trkpt lat="44.52172" lon="1.33665">
        <ele>255</ele>
        <time>2017-09-23T13:50:23Z</time>
      </trkpt>
      <trkpt lat="44.52166" lon="1.3366">
        <ele>257</ele>
        <time>2017-09-23T13:50:29Z</time>
      </trkpt>
      <trkpt lat="44.52144" lon="1.33637">
        <ele>259</ele>
        <time>2017-09-23T13:50:50Z</time>
      </trkpt>
      <trkpt lat="44.5214" lon="1.33634">
        <ele>259</ele>
        <time>2017-09-23T13:50:53Z</time>
      </trkpt>
      <trkpt lat="44.52123" lon="1.33617">
        <ele>260</ele>
        <time>2017-09-23T13:51:08Z</time>
      </trkpt>
      <trkpt lat="44.5212" lon="1.33615">
        <ele>260</ele>
        <time>2017-09-23T13:51:11Z</time>
      </trkpt>
      <trkpt lat="44.52095" lon="1.3359">
        <ele>263</ele>
        <time>2017-09-23T13:51:35Z</time>
      </trkpt>
      <trkpt lat="44.5209" lon="1.33582">
        <ele>263</ele>
        <time>2017-09-23T13:51:41Z</time>
      </trkpt>
      <trkpt lat="44.52077" lon="1.33564">
        <ele>265</ele>
        <time>2017-09-23T13:51:56Z</time>
      </trkpt>
      <trkpt lat="44.52074" lon="1.3356">
        <ele>265</ele>
        <time>2017-09-23T13:51:58Z</time>
      </trkpt>
      <trkpt lat="44.52068" lon="1.33551">
        <ele>265</ele>
        <time>2017-09-23T13:52:04Z</time>
      </trkpt>
      <trkpt lat="44.52066" lon="1.33546">
        <ele>265</ele>
        <time>2017-09-23T13:52:07Z</time>
      </trkpt>
      <trkpt lat="44.52061" lon="1.33541">
        <ele>265</ele>
        <time>2017-09-23T13:52:13Z</time>
      </trkpt>
      <trkpt lat="44.52053" lon="1.3353">
        <ele>265</ele>
        <time>2017-09-23T13:52:39Z</time>
      </trkpt>
      <trkpt lat="44.52051" lon="1.33526">
        <ele>264</ele>
        <time>2017-09-23T13:52:42Z</time>
      </trkpt>
      <trkpt lat="44.52049" lon="1.33521">
        <ele>264</ele>
        <time>2017-09-23T13:52:45Z</time>
      </trkpt>
      <trkpt lat="44.52047" lon="1.3352">
        <ele>265</ele>
        <time>2017-09-23T13:52:59Z</time>
      </trkpt>
      <trkpt lat="44.52042" lon="1.33519">
        <ele>265</ele>
        <time>2017-09-23T13:53:07Z</time>
      </trkpt>
      <trkpt lat="44.52039" lon="1.33514">
        <ele>265</ele>
        <time>2017-09-23T13:53:14Z</time>
      </trkpt>
      <trkpt lat="44.52017" lon="1.335">
        <ele>266</ele>
        <time>2017-09-23T13:53:33Z</time>
      </trkpt>
      <trkpt lat="44.52004" lon="1.33496">
        <ele>265</ele>
        <time>2017-09-23T13:53:43Z</time>
      </trkpt>
      <trkpt lat="44.51993" lon="1.33496">
        <ele>264</ele>
        <time>2017-09-23T13:53:52Z</time>
      </trkpt>
      <trkpt lat="44.51975" lon="1.33496">
        <ele>263</ele>
        <time>2017-09-23T13:54:06Z</time>
      </trkpt>
      <trkpt lat="44.5197" lon="1.33496">
        <ele>262</ele>
        <time>2017-09-23T13:54:10Z</time>
      </trkpt>
      <trkpt lat="44.51965" lon="1.33495">
        <ele>262</ele>
        <time>2017-09-23T13:54:14Z</time>
      </trkpt>
      <trkpt lat="44.5196" lon="1.33496">
        <ele>262</ele>
        <time>2017-09-23T13:54:18Z</time>
      </trkpt>
      <trkpt lat="44.51931" lon="1.33502">
        <ele>265</ele>
        <time>2017-09-23T13:54:41Z</time>
      </trkpt>
      <trkpt lat="44.51905" lon="1.33512">
        <ele>263</ele>
        <time>2017-09-23T13:55:03Z</time>
      </trkpt>
      <trkpt lat="44.51869" lon="1.33527">
        <ele>263</ele>
        <time>2017-09-23T13:55:32Z</time>
      </trkpt>
      <trkpt lat="44.51865" lon="1.33529">
        <ele>263</ele>
        <time>2017-09-23T13:55:36Z</time>
      </trkpt>
      <trkpt lat="44.51856" lon="1.33531">
        <ele>263</ele>
        <time>2017-09-23T13:55:42Z</time>
      </trkpt>
      <trkpt lat="44.51833" lon="1.33535">
        <ele>259</ele>
        <time>2017-09-23T13:56:00Z</time>
      </trkpt>
      <trkpt lat="44.51829" lon="1.33535">
        <ele>259</ele>
        <time>2017-09-23T13:56:03Z</time>
      </trkpt>
      <trkpt lat="44.51826" lon="1.33536">
        <ele>259</ele>
        <time>2017-09-23T13:56:06Z</time>
      </trkpt>
      <trkpt lat="44.51822" lon="1.33538">
        <ele>259</ele>
        <time>2017-09-23T13:56:10Z</time>
      </trkpt>
      <trkpt lat="44.51783" lon="1.33551">
        <ele>257</ele>
        <time>2017-09-23T13:56:40Z</time>
      </trkpt>
      <trkpt lat="44.51779" lon="1.33552">
        <ele>257</ele>
        <time>2017-09-23T13:56:43Z</time>
      </trkpt>
      <trkpt lat="44.51775" lon="1.33552">
        <ele>257</ele>
        <time>2017-09-23T13:56:46Z</time>
      </trkpt>
      <trkpt lat="44.51745" lon="1.33537">
        <ele>253</ele>
        <time>2017-09-23T13:57:10Z</time>
      </trkpt>
      <trkpt lat="44.51738" lon="1.33536">
        <ele>252</ele>
        <time>2017-09-23T13:57:16Z</time>
      </trkpt>
      <trkpt lat="44.51706" lon="1.33519">
        <ele>252</ele>
        <time>2017-09-23T13:57:40Z</time>
      </trkpt>
      <trkpt lat="44.51679" lon="1.33506">
        <ele>250</ele>
        <time>2017-09-23T13:58:01Z</time>
      </trkpt>
      <trkpt lat="44.51662" lon="1.33507">
        <ele>250</ele>
        <time>2017-09-23T13:58:13Z</time>
      </trkpt>
      <trkpt lat="44.51658" lon="1.33508">
        <ele>251</ele>
        <time>2017-09-23T13:58:16Z</time>
      </trkpt>
      <trkpt lat="44.51654" lon="1.33508">
        <ele>251</ele>
        <time>2017-09-23T13:58:19Z</time>
      </trkpt>
      <trkpt lat="44.51646" lon="1.33506">
        <ele>252</ele>
        <time>2017-09-23T13:58:25Z</time>
      </trkpt>
      <trkpt lat="44.51638" lon="1.33505">
        <ele>252</ele>
        <time>2017-09-23T13:58:31Z</time>
      </trkpt>
      <trkpt lat="44.51634" lon="1.33504">
        <ele>253</ele>
        <time>2017-09-23T13:58:34Z</time>
      </trkpt>
      <trkpt lat="44.5163" lon="1.33503">
        <ele>253</ele>
        <time>2017-09-23T13:58:38Z</time>
      </trkpt>
      <trkpt lat="44.51599" lon="1.33509">
        <ele>255</ele>
        <time>2017-09-23T13:59:02Z</time>
      </trkpt>
      <trkpt lat="44.51596" lon="1.33509">
        <ele>255</ele>
        <time>2017-09-23T13:59:08Z</time>
      </trkpt>
      <trkpt lat="44.51593" lon="1.3351">
        <ele>256</ele>
        <time>2017-09-23T13:59:12Z</time>
      </trkpt>
      <trkpt lat="44.51565" lon="1.33509">
        <ele>259</ele>
        <time>2017-09-23T13:59:40Z</time>
      </trkpt>
      <trkpt lat="44.5156" lon="1.3351">
        <ele>259</ele>
        <time>2017-09-23T13:59:44Z</time>
      </trkpt>
      <trkpt lat="44.51557" lon="1.33512">
        <ele>259</ele>
        <time>2017-09-23T13:59:48Z</time>
      </trkpt>
      <trkpt lat="44.51547" lon="1.33516">
        <ele>259</ele>
        <time>2017-09-23T13:59:57Z</time>
      </trkpt>
      <trkpt lat="44.51542" lon="1.33519">
        <ele>260</ele>
        <time>2017-09-23T14:00:01Z</time>
      </trkpt>
      <trkpt lat="44.51535" lon="1.33524">
        <ele>260</ele>
        <time>2017-09-23T14:00:13Z</time>
      </trkpt>
      <trkpt lat="44.51532" lon="1.33526">
        <ele>260</ele>
        <time>2017-09-23T14:00:16Z</time>
      </trkpt>
      <trkpt lat="44.51529" lon="1.33523">
        <ele>260</ele>
        <time>2017-09-23T14:00:20Z</time>
      </trkpt>
      <trkpt lat="44.51527" lon="1.33526">
        <ele>260</ele>
        <time>2017-09-23T14:00:24Z</time>
      </trkpt>
      <trkpt lat="44.51523" lon="1.33528">
        <ele>260</ele>
        <time>2017-09-23T14:00:28Z</time>
      </trkpt>
      <trkpt lat="44.5152" lon="1.33527">
        <ele>260</ele>
        <time>2017-09-23T14:00:36Z</time>
      </trkpt>
      <trkpt lat="44.5152" lon="1.33521">
        <ele>260</ele>
        <time>2017-09-23T14:00:44Z</time>
      </trkpt>
      <trkpt lat="44.51519" lon="1.33517">
        <ele>260</ele>
        <time>2017-09-23T14:00:51Z</time>
      </trkpt>
      <trkpt lat="44.51519" lon="1.33512">
        <ele>260</ele>
        <time>2017-09-23T14:02:37Z</time>
      </trkpt>
      <trkpt lat="44.5152" lon="1.33507">
        <ele>260</ele>
        <time>2017-09-23T14:02:47Z</time>
      </trkpt>
      <trkpt lat="44.51523" lon="1.33503">
        <ele>260</ele>
        <time>2017-09-23T14:02:54Z</time>
      </trkpt>
      <trkpt lat="44.51524" lon="1.33482">
        <ele>259</ele>
        <time>2017-09-23T14:03:08Z</time>
      </trkpt>
      <trkpt lat="44.51523" lon="1.33477">
        <ele>259</ele>
        <time>2017-09-23T14:03:11Z</time>
      </trkpt>
      <trkpt lat="44.51522" lon="1.33472">
        <ele>259</ele>
        <time>2017-09-23T14:03:15Z</time>
      </trkpt>
      <trkpt lat="44.51519" lon="1.33444">
        <ele>259</ele>
        <time>2017-09-23T14:03:31Z</time>
      </trkpt>
      <trkpt lat="44.51517" lon="1.33439">
        <ele>259</ele>
        <time>2017-09-23T14:03:34Z</time>
      </trkpt>
      <trkpt lat="44.51517" lon="1.33436">
        <ele>259</ele>
        <time>2017-09-23T14:03:37Z</time>
      </trkpt>
      <trkpt lat="44.51517" lon="1.33429">
        <ele>259</ele>
        <time>2017-09-23T14:03:42Z</time>
      </trkpt>
      <trkpt lat="44.51516" lon="1.33424">
        <ele>259</ele>
        <time>2017-09-23T14:03:47Z</time>
      </trkpt>
      <trkpt lat="44.51515" lon="1.33419">
        <ele>259</ele>
        <time>2017-09-23T14:03:50Z</time>
      </trkpt>
      <trkpt lat="44.51513" lon="1.33415">
        <ele>259</ele>
        <time>2017-09-23T14:03:53Z</time>
      </trkpt>
      <trkpt lat="44.51512" lon="1.33411">
        <ele>259</ele>
        <time>2017-09-23T14:03:56Z</time>
      </trkpt>
      <trkpt lat="44.51484" lon="1.3337">
        <ele>256</ele>
        <time>2017-09-23T14:04:28Z</time>
      </trkpt>
      <trkpt lat="44.51457" lon="1.33331">
        <ele>254</ele>
        <time>2017-09-23T14:04:57Z</time>
      </trkpt>
      <trkpt lat="44.51442" lon="1.33293">
        <ele>254</ele>
        <time>2017-09-23T14:05:24Z</time>
      </trkpt>
      <trkpt lat="44.51432" lon="1.33255">
        <ele>252</ele>
        <time>2017-09-23T14:05:46Z</time>
      </trkpt>
      <trkpt lat="44.5143" lon="1.33251">
        <ele>252</ele>
        <time>2017-09-23T14:05:49Z</time>
      </trkpt>
      <trkpt lat="44.5142" lon="1.33215">
        <ele>250</ele>
        <time>2017-09-23T14:06:09Z</time>
      </trkpt>
      <trkpt lat="44.51417" lon="1.33205">
        <ele>249</ele>
        <time>2017-09-23T14:06:16Z</time>
      </trkpt>
      <trkpt lat="44.51413" lon="1.33189">
        <ele>246</ele>
        <time>2017-09-23T14:06:27Z</time>
      </trkpt>
      <trkpt lat="44.51398" lon="1.3314">
        <ele>244</ele>
        <time>2017-09-23T14:06:59Z</time>
      </trkpt>
      <trkpt lat="44.51381" lon="1.33106">
        <ele>243</ele>
        <time>2017-09-23T14:07:21Z</time>
      </trkpt>
      <trkpt lat="44.51359" lon="1.3305">
        <ele>240</ele>
        <time>2017-09-23T14:07:56Z</time>
      </trkpt>
      <trkpt lat="44.5135" lon="1.33011">
        <ele>238</ele>
        <time>2017-09-23T14:08:18Z</time>
      </trkpt>
      <trkpt lat="44.51328" lon="1.32959">
        <ele>235</ele>
        <time>2017-09-23T14:08:49Z</time>
      </trkpt>
      <trkpt lat="44.51306" lon="1.32913">
        <ele>233</ele>
        <time>2017-09-23T14:09:19Z</time>
      </trkpt>
      <trkpt lat="44.513" lon="1.32899">
        <ele>233</ele>
        <time>2017-09-23T14:09:28Z</time>
      </trkpt>
      <trkpt lat="44.51284" lon="1.32888">
        <ele>232</ele>
        <time>2017-09-23T14:09:43Z</time>
      </trkpt>
      <trkpt lat="44.51278" lon="1.32889">
        <ele>232</ele>
        <time>2017-09-23T14:09:47Z</time>
      </trkpt>
      <trkpt lat="44.51276" lon="1.32888">
        <ele>232</ele>
        <time>2017-09-23T14:09:49Z</time>
      </trkpt>
      <trkpt lat="44.51264" lon="1.32886">
        <ele>232</ele>
        <time>2017-09-23T14:09:59Z</time>
      </trkpt>
      <trkpt lat="44.51261" lon="1.32881">
        <ele>232</ele>
        <time>2017-09-23T14:10:03Z</time>
      </trkpt>
      <trkpt lat="44.51259" lon="1.32878">
        <ele>232</ele>
        <time>2017-09-23T14:10:05Z</time>
      </trkpt>
      <trkpt lat="44.51258" lon="1.32875">
        <ele>232</ele>
        <time>2017-09-23T14:10:07Z</time>
      </trkpt>
      <trkpt lat="44.51258" lon="1.32872">
        <ele>232</ele>
        <time>2017-09-23T14:10:08Z</time>
      </trkpt>
      <trkpt lat="44.51258" lon="1.32868">
        <ele>232</ele>
        <time>2017-09-23T14:10:10Z</time>
      </trkpt>
      <trkpt lat="44.5126" lon="1.32863">
        <ele>232</ele>
        <time>2017-09-23T14:10:14Z</time>
      </trkpt>
      <trkpt lat="44.51261" lon="1.3286">
        <ele>232</ele>
        <time>2017-09-23T14:10:16Z</time>
      </trkpt>
      <trkpt lat="44.51262" lon="1.32857">
        <ele>232</ele>
        <time>2017-09-23T14:10:18Z</time>
      </trkpt>
      <trkpt lat="44.51263" lon="1.32848">
        <ele>232</ele>
        <time>2017-09-23T14:10:24Z</time>
      </trkpt>
      <trkpt lat="44.51264" lon="1.32842">
        <ele>232</ele>
        <time>2017-09-23T14:10:27Z</time>
      </trkpt>
      <trkpt lat="44.51267" lon="1.32826">
        <ele>232</ele>
        <time>2017-09-23T14:10:37Z</time>
      </trkpt>
      <trkpt lat="44.51266" lon="1.32791">
        <ele>232</ele>
        <time>2017-09-23T14:10:54Z</time>
      </trkpt>
      <trkpt lat="44.51263" lon="1.32776">
        <ele>233</ele>
        <time>2017-09-23T14:11:02Z</time>
      </trkpt>
      <trkpt lat="44.51259" lon="1.32765">
        <ele>232</ele>
        <time>2017-09-23T14:11:08Z</time>
      </trkpt>
      <trkpt lat="44.51252" lon="1.32753">
        <ele>232</ele>
        <time>2017-09-23T14:11:16Z</time>
      </trkpt>
      <trkpt lat="44.5122" lon="1.32714">
        <ele>232</ele>
        <time>2017-09-23T14:11:47Z</time>
      </trkpt>
      <trkpt lat="44.51211" lon="1.32706">
        <ele>232</ele>
        <time>2017-09-23T14:11:54Z</time>
      </trkpt>
      <trkpt lat="44.51209" lon="1.32702">
        <ele>232</ele>
        <time>2017-09-23T14:11:56Z</time>
      </trkpt>
      <trkpt lat="44.51207" lon="1.32697">
        <ele>232</ele>
        <time>2017-09-23T14:11:59Z</time>
      </trkpt>
      <trkpt lat="44.51207" lon="1.32684">
        <ele>232</ele>
        <time>2017-09-23T14:12:06Z</time>
      </trkpt>
      <trkpt lat="44.51212" lon="1.32665">
        <ele>234</ele>
        <time>2017-09-23T14:12:16Z</time>
      </trkpt>
      <trkpt lat="44.51228" lon="1.32617">
        <ele>235</ele>
        <time>2017-09-23T14:12:46Z</time>
      </trkpt>
      <trkpt lat="44.5125" lon="1.32565">
        <ele>240</ele>
        <time>2017-09-23T14:13:17Z</time>
      </trkpt>
      <trkpt lat="44.51256" lon="1.32551">
        <ele>241</ele>
        <time>2017-09-23T14:13:26Z</time>
      </trkpt>
      <trkpt lat="44.51258" lon="1.32547">
        <ele>241</ele>
        <time>2017-09-23T14:13:29Z</time>
      </trkpt>
      <trkpt lat="44.51262" lon="1.3253">
        <ele>242</ele>
        <time>2017-09-23T14:13:38Z</time>
      </trkpt>
      <trkpt lat="44.51262" lon="1.32524">
        <ele>242</ele>
        <time>2017-09-23T14:13:41Z</time>
      </trkpt>
      <trkpt lat="44.51266" lon="1.32501">
        <ele>243</ele>
        <time>2017-09-23T14:13:52Z</time>
      </trkpt>
      <trkpt lat="44.51266" lon="1.32487">
        <ele>246</ele>
        <time>2017-09-23T14:13:59Z</time>
      </trkpt>
      <trkpt lat="44.51265" lon="1.32481">
        <ele>246</ele>
        <time>2017-09-23T14:14:02Z</time>
      </trkpt>
      <trkpt lat="44.51266" lon="1.32476">
        <ele>246</ele>
        <time>2017-09-23T14:14:05Z</time>
      </trkpt>
      <trkpt lat="44.51264" lon="1.32469">
        <ele>246</ele>
        <time>2017-09-23T14:14:09Z</time>
      </trkpt>
      <trkpt lat="44.51258" lon="1.32451">
        <ele>247</ele>
        <time>2017-09-23T14:14:20Z</time>
      </trkpt>
      <trkpt lat="44.5124" lon="1.32415">
        <ele>254</ele>
        <time>2017-09-23T14:14:42Z</time>
      </trkpt>
      <trkpt lat="44.51222" lon="1.32401">
        <ele>257</ele>
        <time>2017-09-23T14:15:00Z</time>
      </trkpt>
      <trkpt lat="44.51216" lon="1.32396">
        <ele>258</ele>
        <time>2017-09-23T14:15:04Z</time>
      </trkpt>
      <trkpt lat="44.51212" lon="1.32391">
        <ele>259</ele>
        <time>2017-09-23T14:15:08Z</time>
      </trkpt>
      <trkpt lat="44.51207" lon="1.32386">
        <ele>259</ele>
        <time>2017-09-23T14:15:13Z</time>
      </trkpt>
      <trkpt lat="44.51206" lon="1.32379">
        <ele>260</ele>
        <time>2017-09-23T14:15:17Z</time>
      </trkpt>
      <trkpt lat="44.51208" lon="1.32363">
        <ele>261</ele>
        <time>2017-09-23T14:15:29Z</time>
      </trkpt>
      <trkpt lat="44.5122" lon="1.32337">
        <ele>261</ele>
        <time>2017-09-23T14:15:46Z</time>
      </trkpt>
      <trkpt lat="44.51224" lon="1.32331">
        <ele>268</ele>
        <time>2017-09-23T14:15:49Z</time>
      </trkpt>
      <trkpt lat="44.51229" lon="1.32323">
        <ele>267</ele>
        <time>2017-09-23T14:15:54Z</time>
      </trkpt>
      <trkpt lat="44.51231" lon="1.32319">
        <ele>267</ele>
        <time>2017-09-23T14:15:57Z</time>
      </trkpt>
      <trkpt lat="44.51232" lon="1.32316">
        <ele>268</ele>
        <time>2017-09-23T14:16:16Z</time>
      </trkpt>
      <trkpt lat="44.51266" lon="1.32278">
        <ele>267</ele>
        <time>2017-09-23T14:16:47Z</time>
      </trkpt>
      <trkpt lat="44.51272" lon="1.32271">
        <ele>267</ele>
        <time>2017-09-23T14:16:53Z</time>
      </trkpt>
      <trkpt lat="44.51276" lon="1.32269">
        <ele>267</ele>
        <time>2017-09-23T14:16:56Z</time>
      </trkpt>
      <trkpt lat="44.51306" lon="1.32239">
        <ele>274</ele>
        <time>2017-09-23T14:17:28Z</time>
      </trkpt>
      <trkpt lat="44.51331" lon="1.32223">
        <ele>274</ele>
        <time>2017-09-23T14:17:46Z</time>
      </trkpt>
      <trkpt lat="44.51337" lon="1.3222">
        <ele>274</ele>
        <time>2017-09-23T14:17:50Z</time>
      </trkpt>
      <trkpt lat="44.51356" lon="1.32213">
        <ele>275</ele>
        <time>2017-09-23T14:18:05Z</time>
      </trkpt>
      <trkpt lat="44.51362" lon="1.32211">
        <ele>275</ele>
        <time>2017-09-23T14:18:10Z</time>
      </trkpt>
      <trkpt lat="44.51374" lon="1.32208">
        <ele>275</ele>
        <time>2017-09-23T14:18:19Z</time>
      </trkpt>
      <trkpt lat="44.51384" lon="1.32204">
        <ele>276</ele>
        <time>2017-09-23T14:18:27Z</time>
      </trkpt>
      <trkpt lat="44.51405" lon="1.32181">
        <ele>278</ele>
        <time>2017-09-23T14:18:45Z</time>
      </trkpt>
      <trkpt lat="44.51409" lon="1.32175">
        <ele>278</ele>
        <time>2017-09-23T14:18:49Z</time>
      </trkpt>
      <trkpt lat="44.51412" lon="1.32167">
        <ele>279</ele>
        <time>2017-09-23T14:18:55Z</time>
      </trkpt>
      <trkpt lat="44.51415" lon="1.32164">
        <ele>280</ele>
        <time>2017-09-23T14:19:04Z</time>
      </trkpt>
      <trkpt lat="44.51415" lon="1.32156">
        <ele>280</ele>
        <time>2017-09-23T14:19:14Z</time>
      </trkpt>
      <trkpt lat="44.51417" lon="1.3215">
        <ele>280</ele>
        <time>2017-09-23T14:19:17Z</time>
      </trkpt>
      <trkpt lat="44.51419" lon="1.32145">
        <ele>281</ele>
        <time>2017-09-23T14:19:20Z</time>
      </trkpt>
      <trkpt lat="44.51421" lon="1.32139">
        <ele>281</ele>
        <time>2017-09-23T14:19:24Z</time>
      </trkpt>
      <trkpt lat="44.51424" lon="1.32138">
        <ele>281</ele>
        <time>2017-09-23T14:19:45Z</time>
      </trkpt>
      <trkpt lat="44.51425" lon="1.32134">
        <ele>281</ele>
        <time>2017-09-23T14:20:21Z</time>
      </trkpt>
      <trkpt lat="44.51422" lon="1.32135">
        <ele>281</ele>
        <time>2017-09-23T14:20:28Z</time>
      </trkpt>
      <trkpt lat="44.51418" lon="1.32139">
        <ele>281</ele>
        <time>2017-09-23T14:20:32Z</time>
      </trkpt>
      <trkpt lat="44.51416" lon="1.32141">
        <ele>281</ele>
        <time>2017-09-23T14:20:34Z</time>
      </trkpt>
      <trkpt lat="44.51413" lon="1.32141">
        <ele>281</ele>
        <time>2017-09-23T14:20:36Z</time>
      </trkpt>
      <trkpt lat="44.51411" lon="1.3214">
        <ele>281</ele>
        <time>2017-09-23T14:20:38Z</time>
      </trkpt>
      <trkpt lat="44.51402" lon="1.32132">
        <ele>281</ele>
        <time>2017-09-23T14:20:47Z</time>
      </trkpt>
      <trkpt lat="44.51383" lon="1.32088">
        <ele>282</ele>
        <time>2017-09-23T14:21:15Z</time>
      </trkpt>
      <trkpt lat="44.5136" lon="1.32042">
        <ele>283</ele>
        <time>2017-09-23T14:21:45Z</time>
      </trkpt>
      <trkpt lat="44.51357" lon="1.32032">
        <ele>283</ele>
        <time>2017-09-23T14:21:51Z</time>
      </trkpt>
      <trkpt lat="44.51332" lon="1.31985">
        <ele>285</ele>
        <time>2017-09-23T14:22:22Z</time>
      </trkpt>
      <trkpt lat="44.51303" lon="1.3194">
        <ele>284</ele>
        <time>2017-09-23T14:22:55Z</time>
      </trkpt>
      <trkpt lat="44.513" lon="1.31937">
        <ele>284</ele>
        <time>2017-09-23T14:22:59Z</time>
      </trkpt>
      <trkpt lat="44.51266" lon="1.319">
        <ele>281</ele>
        <time>2017-09-23T14:23:29Z</time>
      </trkpt>
      <trkpt lat="44.51254" lon="1.31889">
        <ele>280</ele>
        <time>2017-09-23T14:23:39Z</time>
      </trkpt>
      <trkpt lat="44.51247" lon="1.31881">
        <ele>280</ele>
        <time>2017-09-23T14:23:46Z</time>
      </trkpt>
      <trkpt lat="44.51238" lon="1.31874">
        <ele>280</ele>
        <time>2017-09-23T14:23:54Z</time>
      </trkpt>
      <trkpt lat="44.51228" lon="1.31863">
        <ele>280</ele>
        <time>2017-09-23T14:24:02Z</time>
      </trkpt>
      <trkpt lat="44.51219" lon="1.31856">
        <ele>279</ele>
        <time>2017-09-23T14:24:10Z</time>
      </trkpt>
      <trkpt lat="44.51216" lon="1.31852">
        <ele>279</ele>
        <time>2017-09-23T14:24:15Z</time>
      </trkpt>
      <trkpt lat="44.51212" lon="1.31848">
        <ele>279</ele>
        <time>2017-09-23T14:24:18Z</time>
      </trkpt>
      <trkpt lat="44.51208" lon="1.31846">
        <ele>279</ele>
        <time>2017-09-23T14:24:22Z</time>
      </trkpt>
      <trkpt lat="44.51204" lon="1.31841">
        <ele>279</ele>
        <time>2017-09-23T14:24:25Z</time>
      </trkpt>
      <trkpt lat="44.51193" lon="1.31829">
        <ele>276</ele>
        <time>2017-09-23T14:24:34Z</time>
      </trkpt>
      <trkpt lat="44.51191" lon="1.31825">
        <ele>276</ele>
        <time>2017-09-23T14:24:41Z</time>
      </trkpt>
      <trkpt lat="44.51187" lon="1.31821">
        <ele>276</ele>
        <time>2017-09-23T14:24:45Z</time>
      </trkpt>
      <trkpt lat="44.51176" lon="1.31807">
        <ele>275</ele>
        <time>2017-09-23T14:24:56Z</time>
      </trkpt>
      <trkpt lat="44.51173" lon="1.31803">
        <ele>275</ele>
        <time>2017-09-23T14:24:59Z</time>
      </trkpt>
      <trkpt lat="44.51159" lon="1.31785">
        <ele>274</ele>
        <time>2017-09-23T14:25:14Z</time>
      </trkpt>
      <trkpt lat="44.51145" lon="1.31763">
        <ele>274</ele>
        <time>2017-09-23T14:25:31Z</time>
      </trkpt>
      <trkpt lat="44.51142" lon="1.31759">
        <ele>274</ele>
        <time>2017-09-23T14:25:34Z</time>
      </trkpt>
      <trkpt lat="44.5114" lon="1.31755">
        <ele>274</ele>
        <time>2017-09-23T14:25:37Z</time>
      </trkpt>
      <trkpt lat="44.51136" lon="1.31745">
        <ele>273</ele>
        <time>2017-09-23T14:25:43Z</time>
      </trkpt>
      <trkpt lat="44.51125" lon="1.31724">
        <ele>273</ele>
        <time>2017-09-23T14:25:58Z</time>
      </trkpt>
      <trkpt lat="44.51108" lon="1.3167">
        <ele>272</ele>
        <time>2017-09-23T14:26:29Z</time>
      </trkpt>
      <trkpt lat="44.51101" lon="1.31653">
        <ele>271</ele>
        <time>2017-09-23T14:26:38Z</time>
      </trkpt>
      <trkpt lat="44.5108" lon="1.31603">
        <ele>270</ele>
        <time>2017-09-23T14:27:08Z</time>
      </trkpt>
      <trkpt lat="44.51078" lon="1.31597">
        <ele>270</ele>
        <time>2017-09-23T14:27:13Z</time>
      </trkpt>
      <trkpt lat="44.51076" lon="1.31592">
        <ele>270</ele>
        <time>2017-09-23T14:27:16Z</time>
      </trkpt>
      <trkpt lat="44.51074" lon="1.31583">
        <ele>269</ele>
        <time>2017-09-23T14:27:21Z</time>
      </trkpt>
      <trkpt lat="44.51072" lon="1.31578">
        <ele>268</ele>
        <time>2017-09-23T14:27:24Z</time>
      </trkpt>
      <trkpt lat="44.51072" lon="1.31572">
        <ele>268</ele>
        <time>2017-09-23T14:27:27Z</time>
      </trkpt>
      <trkpt lat="44.51059" lon="1.31524">
        <ele>266</ele>
        <time>2017-09-23T14:27:50Z</time>
      </trkpt>
      <trkpt lat="44.51058" lon="1.31519">
        <ele>266</ele>
        <time>2017-09-23T14:27:53Z</time>
      </trkpt>
      <trkpt lat="44.51057" lon="1.3151">
        <ele>266</ele>
        <time>2017-09-23T14:27:58Z</time>
      </trkpt>
      <trkpt lat="44.51055" lon="1.31505">
        <ele>266</ele>
        <time>2017-09-23T14:28:01Z</time>
      </trkpt>
      <trkpt lat="44.51054" lon="1.315">
        <ele>266</ele>
        <time>2017-09-23T14:28:04Z</time>
      </trkpt>
      <trkpt lat="44.51049" lon="1.31478">
        <ele>266</ele>
        <time>2017-09-23T14:28:16Z</time>
      </trkpt>
      <trkpt lat="44.51045" lon="1.31468">
        <ele>266</ele>
        <time>2017-09-23T14:28:22Z</time>
      </trkpt>
      <trkpt lat="44.51031" lon="1.31451">
        <ele>266</ele>
        <time>2017-09-23T14:28:35Z</time>
      </trkpt>
      <trkpt lat="44.51013" lon="1.31443">
        <ele>266</ele>
        <time>2017-09-23T14:28:49Z</time>
      </trkpt>
      <trkpt lat="44.51009" lon="1.31441">
        <ele>266</ele>
        <time>2017-09-23T14:28:53Z</time>
      </trkpt>
      <trkpt lat="44.51004" lon="1.31439">
        <ele>265</ele>
        <time>2017-09-23T14:28:56Z</time>
      </trkpt>
      <trkpt lat="44.50969" lon="1.31424">
        <ele>262</ele>
        <time>2017-09-23T14:29:23Z</time>
      </trkpt>
      <trkpt lat="44.50965" lon="1.31421">
        <ele>262</ele>
        <time>2017-09-23T14:29:26Z</time>
      </trkpt>
      <trkpt lat="44.50957" lon="1.31416">
        <ele>265</ele>
        <time>2017-09-23T14:29:34Z</time>
      </trkpt>
      <trkpt lat="44.50948" lon="1.3141">
        <ele>265</ele>
        <time>2017-09-23T14:29:41Z</time>
      </trkpt>
      <trkpt lat="44.50944" lon="1.31409">
        <ele>265</ele>
        <time>2017-09-23T14:29:45Z</time>
      </trkpt>
      <trkpt lat="44.50925" lon="1.31397">
        <ele>264</ele>
        <time>2017-09-23T14:29:58Z</time>
      </trkpt>
      <trkpt lat="44.50922" lon="1.31393">
        <ele>264</ele>
        <time>2017-09-23T14:30:01Z</time>
      </trkpt>
      <trkpt lat="44.50904" lon="1.31378">
        <ele>261</ele>
        <time>2017-09-23T14:30:16Z</time>
      </trkpt>
      <trkpt lat="44.50901" lon="1.31373">
        <ele>261</ele>
        <time>2017-09-23T14:30:19Z</time>
      </trkpt>
      <trkpt lat="44.50897" lon="1.31368">
        <ele>261</ele>
        <time>2017-09-23T14:30:23Z</time>
      </trkpt>
      <trkpt lat="44.50895" lon="1.31365">
        <ele>261</ele>
        <time>2017-09-23T14:30:26Z</time>
      </trkpt>
      <trkpt lat="44.50891" lon="1.3136">
        <ele>261</ele>
        <time>2017-09-23T14:30:29Z</time>
      </trkpt>
      <trkpt lat="44.50887" lon="1.31356">
        <ele>261</ele>
        <time>2017-09-23T14:30:33Z</time>
      </trkpt>
      <trkpt lat="44.50884" lon="1.31352">
        <ele>261</ele>
        <time>2017-09-23T14:30:36Z</time>
      </trkpt>
      <trkpt lat="44.50881" lon="1.31348">
        <ele>261</ele>
        <time>2017-09-23T14:30:39Z</time>
      </trkpt>
      <trkpt lat="44.50865" lon="1.3133">
        <ele>262</ele>
        <time>2017-09-23T14:30:54Z</time>
      </trkpt>
      <trkpt lat="44.50858" lon="1.31324">
        <ele>262</ele>
        <time>2017-09-23T14:30:59Z</time>
      </trkpt>
      <trkpt lat="44.50839" lon="1.31301">
        <ele>262</ele>
        <time>2017-09-23T14:31:18Z</time>
      </trkpt>
      <trkpt lat="44.50834" lon="1.31291">
        <ele>262</ele>
        <time>2017-09-23T14:31:24Z</time>
      </trkpt>
      <trkpt lat="44.50831" lon="1.31287">
        <ele>261</ele>
        <time>2017-09-23T14:31:28Z</time>
      </trkpt>
      <trkpt lat="44.50824" lon="1.31271">
        <ele>261</ele>
        <time>2017-09-23T14:31:38Z</time>
      </trkpt>
      <trkpt lat="44.50822" lon="1.31265">
        <ele>261</ele>
        <time>2017-09-23T14:31:42Z</time>
      </trkpt>
      <trkpt lat="44.5082" lon="1.3126">
        <ele>261</ele>
        <time>2017-09-23T14:31:45Z</time>
      </trkpt>
      <trkpt lat="44.50818" lon="1.31255">
        <ele>261</ele>
        <time>2017-09-23T14:31:48Z</time>
      </trkpt>
      <trkpt lat="44.50815" lon="1.31249">
        <ele>261</ele>
        <time>2017-09-23T14:31:53Z</time>
      </trkpt>
      <trkpt lat="44.5081" lon="1.31239">
        <ele>262</ele>
        <time>2017-09-23T14:32:00Z</time>
      </trkpt>
      <trkpt lat="44.50808" lon="1.31234">
        <ele>262</ele>
        <time>2017-09-23T14:32:03Z</time>
      </trkpt>
      <trkpt lat="44.50806" lon="1.3123">
        <ele>262</ele>
        <time>2017-09-23T14:32:06Z</time>
      </trkpt>
      <trkpt lat="44.508" lon="1.31215">
        <ele>262</ele>
        <time>2017-09-23T14:32:15Z</time>
      </trkpt>
      <trkpt lat="44.50798" lon="1.31207">
        <ele>262</ele>
        <time>2017-09-23T14:32:20Z</time>
      </trkpt>
      <trkpt lat="44.50793" lon="1.31185">
        <ele>262</ele>
        <time>2017-09-23T14:32:32Z</time>
      </trkpt>
      <trkpt lat="44.50791" lon="1.31181">
        <ele>262</ele>
        <time>2017-09-23T14:32:35Z</time>
      </trkpt>
      <trkpt lat="44.50788" lon="1.31169">
        <ele>262</ele>
        <time>2017-09-23T14:32:43Z</time>
      </trkpt>
      <trkpt lat="44.50782" lon="1.31143">
        <ele>265</ele>
        <time>2017-09-23T14:32:59Z</time>
      </trkpt>
      <trkpt lat="44.50781" lon="1.31138">
        <ele>265</ele>
        <time>2017-09-23T14:33:02Z</time>
      </trkpt>
      <trkpt lat="44.50781" lon="1.31133">
        <ele>266</ele>
        <time>2017-09-23T14:33:05Z</time>
      </trkpt>
      <trkpt lat="44.5078" lon="1.31122">
        <ele>266</ele>
        <time>2017-09-23T14:33:13Z</time>
      </trkpt>
      <trkpt lat="44.5078" lon="1.31115">
        <ele>266</ele>
        <time>2017-09-23T14:33:17Z</time>
      </trkpt>
      <trkpt lat="44.50781" lon="1.31108">
        <ele>267</ele>
        <time>2017-09-23T14:33:21Z</time>
      </trkpt>
      <trkpt lat="44.50781" lon="1.31103">
        <ele>267</ele>
        <time>2017-09-23T14:33:24Z</time>
      </trkpt>
      <trkpt lat="44.50782" lon="1.31096">
        <ele>267</ele>
        <time>2017-09-23T14:33:28Z</time>
      </trkpt>
      <trkpt lat="44.50781" lon="1.31091">
        <ele>267</ele>
        <time>2017-09-23T14:33:31Z</time>
      </trkpt>
      <trkpt lat="44.5078" lon="1.31085">
        <ele>267</ele>
        <time>2017-09-23T14:33:34Z</time>
      </trkpt>
      <trkpt lat="44.5078" lon="1.3108">
        <ele>272</ele>
        <time>2017-09-23T14:33:37Z</time>
      </trkpt>
      <trkpt lat="44.50778" lon="1.31057">
        <ele>273</ele>
        <time>2017-09-23T14:33:51Z</time>
      </trkpt>
      <trkpt lat="44.50773" lon="1.31044">
        <ele>273</ele>
        <time>2017-09-23T14:34:00Z</time>
      </trkpt>
      <trkpt lat="44.50771" lon="1.3104">
        <ele>274</ele>
        <time>2017-09-23T14:34:04Z</time>
      </trkpt>
      <trkpt lat="44.50767" lon="1.31031">
        <ele>274</ele>
        <time>2017-09-23T14:34:11Z</time>
      </trkpt>
      <trkpt lat="44.50764" lon="1.31027">
        <ele>275</ele>
        <time>2017-09-23T14:34:15Z</time>
      </trkpt>
      <trkpt lat="44.50741" lon="1.30993">
        <ele>280</ele>
        <time>2017-09-23T14:34:43Z</time>
      </trkpt>
      <trkpt lat="44.50739" lon="1.3099">
        <ele>280</ele>
        <time>2017-09-23T14:34:47Z</time>
      </trkpt>
      <trkpt lat="44.50736" lon="1.30986">
        <ele>280</ele>
        <time>2017-09-23T14:34:51Z</time>
      </trkpt>
      <trkpt lat="44.50728" lon="1.30974">
        <ele>281</ele>
        <time>2017-09-23T14:35:00Z</time>
      </trkpt>
      <trkpt lat="44.50725" lon="1.3097">
        <ele>281</ele>
        <time>2017-09-23T14:35:03Z</time>
      </trkpt>
      <trkpt lat="44.50723" lon="1.30966">
        <ele>281</ele>
        <time>2017-09-23T14:35:06Z</time>
      </trkpt>
      <trkpt lat="44.50721" lon="1.30963">
        <ele>281</ele>
        <time>2017-09-23T14:35:09Z</time>
      </trkpt>
      <trkpt lat="44.5072" lon="1.3096">
        <ele>281</ele>
        <time>2017-09-23T14:35:11Z</time>
      </trkpt>
      <trkpt lat="44.50718" lon="1.30956">
        <ele>281</ele>
        <time>2017-09-23T14:35:16Z</time>
      </trkpt>
      <trkpt lat="44.50706" lon="1.3094">
        <ele>282</ele>
        <time>2017-09-23T14:35:28Z</time>
      </trkpt>
      <trkpt lat="44.50703" lon="1.30936">
        <ele>282</ele>
        <time>2017-09-23T14:35:32Z</time>
      </trkpt>
      <trkpt lat="44.50701" lon="1.30933">
        <ele>282</ele>
        <time>2017-09-23T14:35:35Z</time>
      </trkpt>
      <trkpt lat="44.5069" lon="1.30917">
        <ele>282</ele>
        <time>2017-09-23T14:35:48Z</time>
      </trkpt>
      <trkpt lat="44.50685" lon="1.30908">
        <ele>283</ele>
        <time>2017-09-23T14:35:54Z</time>
      </trkpt>
      <trkpt lat="44.50683" lon="1.30904">
        <ele>283</ele>
        <time>2017-09-23T14:35:57Z</time>
      </trkpt>
      <trkpt lat="44.50676" lon="1.30892">
        <ele>283</ele>
        <time>2017-09-23T14:36:05Z</time>
      </trkpt>
      <trkpt lat="44.50674" lon="1.30887">
        <ele>283</ele>
        <time>2017-09-23T14:36:08Z</time>
      </trkpt>
      <trkpt lat="44.5065" lon="1.30843">
        <ele>281</ele>
        <time>2017-09-23T14:36:39Z</time>
      </trkpt>
      <trkpt lat="44.50641" lon="1.30825">
        <ele>280</ele>
        <time>2017-09-23T14:36:52Z</time>
      </trkpt>
      <trkpt lat="44.5064" lon="1.30821">
        <ele>280</ele>
        <time>2017-09-23T14:36:54Z</time>
      </trkpt>
      <trkpt lat="44.50624" lon="1.30778">
        <ele>280</ele>
        <time>2017-09-23T14:37:17Z</time>
      </trkpt>
      <trkpt lat="44.50622" lon="1.30774">
        <ele>280</ele>
        <time>2017-09-23T14:37:20Z</time>
      </trkpt>
      <trkpt lat="44.5062" lon="1.30771">
        <ele>280</ele>
        <time>2017-09-23T14:37:23Z</time>
      </trkpt>
      <trkpt lat="44.50619" lon="1.30767">
        <ele>280</ele>
        <time>2017-09-23T14:37:26Z</time>
      </trkpt>
      <trkpt lat="44.50618" lon="1.30763">
        <ele>280</ele>
        <time>2017-09-23T14:37:29Z</time>
      </trkpt>
      <trkpt lat="44.50618" lon="1.30758">
        <ele>280</ele>
        <time>2017-09-23T14:37:33Z</time>
      </trkpt>
      <trkpt lat="44.50618" lon="1.30755">
        <ele>280</ele>
        <time>2017-09-23T14:38:04Z</time>
      </trkpt>
      <trkpt lat="44.50619" lon="1.3075">
        <ele>278</ele>
        <time>2017-09-23T14:38:22Z</time>
      </trkpt>
      <trkpt lat="44.5062" lon="1.30747">
        <ele>278</ele>
        <time>2017-09-23T14:38:23Z</time>
      </trkpt>
      <trkpt lat="44.50624" lon="1.30745">
        <ele>278</ele>
        <time>2017-09-23T14:38:30Z</time>
      </trkpt>
      <trkpt lat="44.5063" lon="1.30747">
        <ele>278</ele>
        <time>2017-09-23T14:38:36Z</time>
      </trkpt>
      <trkpt lat="44.50636" lon="1.30748">
        <ele>278</ele>
        <time>2017-09-23T14:38:43Z</time>
      </trkpt>
      <trkpt lat="44.5064" lon="1.30749">
        <ele>278</ele>
        <time>2017-09-23T14:38:46Z</time>
      </trkpt>
      <trkpt lat="44.50648" lon="1.30751">
        <ele>280</ele>
        <time>2017-09-23T14:38:53Z</time>
      </trkpt>
      <trkpt lat="44.50663" lon="1.30753">
        <ele>280</ele>
        <time>2017-09-23T14:39:06Z</time>
      </trkpt>
      <trkpt lat="44.50673" lon="1.30753">
        <ele>280</ele>
        <time>2017-09-23T14:39:15Z</time>
      </trkpt>
      <trkpt lat="44.50682" lon="1.30755">
        <ele>281</ele>
        <time>2017-09-23T14:39:23Z</time>
      </trkpt>
      <trkpt lat="44.50696" lon="1.30757">
        <ele>281</ele>
        <time>2017-09-23T14:39:35Z</time>
      </trkpt>
      <trkpt lat="44.50725" lon="1.3076">
        <ele>281</ele>
        <time>2017-09-23T14:39:59Z</time>
      </trkpt>
      <trkpt lat="44.5073" lon="1.30761">
        <ele>281</ele>
        <time>2017-09-23T14:40:02Z</time>
      </trkpt>
      <trkpt lat="44.50734" lon="1.30761">
        <ele>281</ele>
        <time>2017-09-23T14:40:05Z</time>
      </trkpt>
      <trkpt lat="44.50769" lon="1.30763">
        <ele>281</ele>
        <time>2017-09-23T14:40:34Z</time>
      </trkpt>
      <trkpt lat="44.5078" lon="1.30763">
        <ele>281</ele>
        <time>2017-09-23T14:40:44Z</time>
      </trkpt>
      <trkpt lat="44.50812" lon="1.30764">
        <ele>282</ele>
        <time>2017-09-23T14:41:12Z</time>
      </trkpt>
      <trkpt lat="44.50846" lon="1.30763">
        <ele>283</ele>
        <time>2017-09-23T14:41:36Z</time>
      </trkpt>
      <trkpt lat="44.5086" lon="1.30761">
        <ele>283</ele>
        <time>2017-09-23T14:41:47Z</time>
      </trkpt>
      <trkpt lat="44.50899" lon="1.30749">
        <ele>285</ele>
        <time>2017-09-23T14:42:15Z</time>
      </trkpt>
      <trkpt lat="44.50904" lon="1.30748">
        <ele>285</ele>
        <time>2017-09-23T14:42:19Z</time>
      </trkpt>
      <trkpt lat="44.50935" lon="1.30734">
        <ele>286</ele>
        <time>2017-09-23T14:42:47Z</time>
      </trkpt>
      <trkpt lat="44.50957" lon="1.30727">
        <ele>286</ele>
        <time>2017-09-23T14:43:04Z</time>
      </trkpt>
      <trkpt lat="44.50963" lon="1.30726">
        <ele>286</ele>
        <time>2017-09-23T14:43:08Z</time>
      </trkpt>
      <trkpt lat="44.50968" lon="1.30724">
        <ele>286</ele>
        <time>2017-09-23T14:43:12Z</time>
      </trkpt>
      <trkpt lat="44.50973" lon="1.30722">
        <ele>286</ele>
        <time>2017-09-23T14:43:16Z</time>
      </trkpt>
      <trkpt lat="44.50985" lon="1.30718">
        <ele>286</ele>
        <time>2017-09-23T14:43:27Z</time>
      </trkpt>
      <trkpt lat="44.50991" lon="1.30716">
        <ele>286</ele>
        <time>2017-09-23T14:43:32Z</time>
      </trkpt>
      <trkpt lat="44.50996" lon="1.30714">
        <ele>286</ele>
        <time>2017-09-23T14:43:35Z</time>
      </trkpt>
      <trkpt lat="44.51002" lon="1.30711">
        <ele>285</ele>
        <time>2017-09-23T14:43:40Z</time>
      </trkpt>
      <trkpt lat="44.51003" lon="1.30704">
        <ele>286</ele>
        <time>2017-09-23T14:43:45Z</time>
      </trkpt>
      <trkpt lat="44.51" lon="1.30697">
        <ele>286</ele>
        <time>2017-09-23T14:43:48Z</time>
      </trkpt>
      <trkpt lat="44.50998" lon="1.30691">
        <ele>287</ele>
        <time>2017-09-23T14:43:52Z</time>
      </trkpt>
      <trkpt lat="44.50997" lon="1.30685">
        <ele>287</ele>
        <time>2017-09-23T14:43:56Z</time>
      </trkpt>
      <trkpt lat="44.50997" lon="1.30672">
        <ele>288</ele>
        <time>2017-09-23T14:44:06Z</time>
      </trkpt>
      <trkpt lat="44.50997" lon="1.30665">
        <ele>288</ele>
        <time>2017-09-23T14:44:12Z</time>
      </trkpt>
      <trkpt lat="44.50997" lon="1.30656">
        <ele>287</ele>
        <time>2017-09-23T14:44:18Z</time>
      </trkpt>
      <trkpt lat="44.50996" lon="1.30651">
        <ele>287</ele>
        <time>2017-09-23T14:44:21Z</time>
      </trkpt>
      <trkpt lat="44.50997" lon="1.30644">
        <ele>286</ele>
        <time>2017-09-23T14:44:25Z</time>
      </trkpt>
      <trkpt lat="44.50997" lon="1.30639">
        <ele>286</ele>
        <time>2017-09-23T14:44:29Z</time>
      </trkpt>
      <trkpt lat="44.50996" lon="1.30633">
        <ele>286</ele>
        <time>2017-09-23T14:44:32Z</time>
      </trkpt>
      <trkpt lat="44.50994" lon="1.30627">
        <ele>285</ele>
        <time>2017-09-23T14:44:35Z</time>
      </trkpt>
      <trkpt lat="44.50989" lon="1.30619">
        <ele>285</ele>
        <time>2017-09-23T14:44:40Z</time>
      </trkpt>
      <trkpt lat="44.50987" lon="1.30616">
        <ele>285</ele>
        <time>2017-09-23T14:44:42Z</time>
      </trkpt>
      <trkpt lat="44.50985" lon="1.30585">
        <ele>284</ele>
        <time>2017-09-23T14:44:59Z</time>
      </trkpt>
      <trkpt lat="44.50984" lon="1.30579">
        <ele>282</ele>
        <time>2017-09-23T14:45:02Z</time>
      </trkpt>
      <trkpt lat="44.50983" lon="1.30568">
        <ele>282</ele>
        <time>2017-09-23T14:45:07Z</time>
      </trkpt>
      <trkpt lat="44.50983" lon="1.30561">
        <ele>282</ele>
        <time>2017-09-23T14:45:11Z</time>
      </trkpt>
      <trkpt lat="44.50981" lon="1.30556">
        <ele>281</ele>
        <time>2017-09-23T14:45:14Z</time>
      </trkpt>
      <trkpt lat="44.5098" lon="1.3055">
        <ele>281</ele>
        <time>2017-09-23T14:45:17Z</time>
      </trkpt>
      <trkpt lat="44.50979" lon="1.30544">
        <ele>281</ele>
        <time>2017-09-23T14:45:20Z</time>
      </trkpt>
      <trkpt lat="44.50978" lon="1.30539">
        <ele>281</ele>
        <time>2017-09-23T14:45:23Z</time>
      </trkpt>
      <trkpt lat="44.50978" lon="1.30531">
        <ele>281</ele>
        <time>2017-09-23T14:45:29Z</time>
      </trkpt>
      <trkpt lat="44.50978" lon="1.30526">
        <ele>281</ele>
        <time>2017-09-23T14:45:32Z</time>
      </trkpt>
      <trkpt lat="44.50975" lon="1.30515">
        <ele>281</ele>
        <time>2017-09-23T14:45:39Z</time>
      </trkpt>
      <trkpt lat="44.50974" lon="1.3051">
        <ele>281</ele>
        <time>2017-09-23T14:45:41Z</time>
      </trkpt>
      <trkpt lat="44.50972" lon="1.30499">
        <ele>279</ele>
        <time>2017-09-23T14:45:47Z</time>
      </trkpt>
      <trkpt lat="44.50972" lon="1.30493">
        <ele>279</ele>
        <time>2017-09-23T14:45:50Z</time>
      </trkpt>
      <trkpt lat="44.50963" lon="1.30463">
        <ele>278</ele>
        <time>2017-09-23T14:46:06Z</time>
      </trkpt>
      <trkpt lat="44.50955" lon="1.30428">
        <ele>277</ele>
        <time>2017-09-23T14:46:28Z</time>
      </trkpt>
      <trkpt lat="44.50953" lon="1.30421">
        <ele>277</ele>
        <time>2017-09-23T14:46:32Z</time>
      </trkpt>
      <trkpt lat="44.50953" lon="1.30416">
        <ele>276</ele>
        <time>2017-09-23T14:46:35Z</time>
      </trkpt>
      <trkpt lat="44.50951" lon="1.30412">
        <ele>276</ele>
        <time>2017-09-23T14:46:38Z</time>
      </trkpt>
      <trkpt lat="44.5095" lon="1.30407">
        <ele>276</ele>
        <time>2017-09-23T14:46:41Z</time>
      </trkpt>
      <trkpt lat="44.50948" lon="1.30398">
        <ele>276</ele>
        <time>2017-09-23T14:46:48Z</time>
      </trkpt>
      <trkpt lat="44.50947" lon="1.30392">
        <ele>276</ele>
        <time>2017-09-23T14:46:51Z</time>
      </trkpt>
      <trkpt lat="44.5094" lon="1.30365">
        <ele>276</ele>
        <time>2017-09-23T14:47:07Z</time>
      </trkpt>
      <trkpt lat="44.50938" lon="1.3036">
        <ele>276</ele>
        <time>2017-09-23T14:47:10Z</time>
      </trkpt>
      <trkpt lat="44.50935" lon="1.30348">
        <ele>276</ele>
        <time>2017-09-23T14:47:16Z</time>
      </trkpt>
      <trkpt lat="44.50932" lon="1.30344">
        <ele>276</ele>
        <time>2017-09-23T14:47:19Z</time>
      </trkpt>
      <trkpt lat="44.50931" lon="1.3034">
        <ele>277</ele>
        <time>2017-09-23T14:47:22Z</time>
      </trkpt>
      <trkpt lat="44.50927" lon="1.30327">
        <ele>277</ele>
        <time>2017-09-23T14:47:31Z</time>
      </trkpt>
      <trkpt lat="44.50921" lon="1.30316">
        <ele>277</ele>
        <time>2017-09-23T14:47:38Z</time>
      </trkpt>
      <trkpt lat="44.50916" lon="1.30303">
        <ele>280</ele>
        <time>2017-09-23T14:47:47Z</time>
      </trkpt>
      <trkpt lat="44.50913" lon="1.30298">
        <ele>280</ele>
        <time>2017-09-23T14:47:51Z</time>
      </trkpt>
      <trkpt lat="44.50911" lon="1.30292">
        <ele>280</ele>
        <time>2017-09-23T14:47:56Z</time>
      </trkpt>
      <trkpt lat="44.50908" lon="1.30288">
        <ele>280</ele>
        <time>2017-09-23T14:47:59Z</time>
      </trkpt>
      <trkpt lat="44.50894" lon="1.30271">
        <ele>281</ele>
        <time>2017-09-23T14:48:12Z</time>
      </trkpt>
      <trkpt lat="44.50891" lon="1.30269">
        <ele>281</ele>
        <time>2017-09-23T14:48:14Z</time>
      </trkpt>
      <trkpt lat="44.50876" lon="1.30254">
        <ele>282</ele>
        <time>2017-09-23T14:48:29Z</time>
      </trkpt>
      <trkpt lat="44.50872" lon="1.30252">
        <ele>282</ele>
        <time>2017-09-23T14:48:34Z</time>
      </trkpt>
      <trkpt lat="44.50865" lon="1.30245">
        <ele>284</ele>
        <time>2017-09-23T14:48:43Z</time>
      </trkpt>
      <trkpt lat="44.50863" lon="1.30243">
        <ele>284</ele>
        <time>2017-09-23T14:48:47Z</time>
      </trkpt>
      <trkpt lat="44.5086" lon="1.30239">
        <ele>284</ele>
        <time>2017-09-23T14:48:50Z</time>
      </trkpt>
      <trkpt lat="44.50858" lon="1.30236">
        <ele>284</ele>
        <time>2017-09-23T14:48:53Z</time>
      </trkpt>
      <trkpt lat="44.50855" lon="1.30233">
        <ele>285</ele>
        <time>2017-09-23T14:48:56Z</time>
      </trkpt>
      <trkpt lat="44.50853" lon="1.30231">
        <ele>285</ele>
        <time>2017-09-23T14:48:59Z</time>
      </trkpt>
      <trkpt lat="44.50851" lon="1.30228">
        <ele>285</ele>
        <time>2017-09-23T14:49:01Z</time>
      </trkpt>
      <trkpt lat="44.50848" lon="1.30226">
        <ele>285</ele>
        <time>2017-09-23T14:49:04Z</time>
      </trkpt>
      <trkpt lat="44.50845" lon="1.30224">
        <ele>285</ele>
        <time>2017-09-23T14:49:07Z</time>
      </trkpt>
      <trkpt lat="44.50842" lon="1.30222">
        <ele>285</ele>
        <time>2017-09-23T14:49:10Z</time>
      </trkpt>
      <trkpt lat="44.5084" lon="1.3022">
        <ele>285</ele>
        <time>2017-09-23T14:49:14Z</time>
      </trkpt>
      <trkpt lat="44.50836" lon="1.30218">
        <ele>285</ele>
        <time>2017-09-23T14:49:17Z</time>
      </trkpt>
      <trkpt lat="44.50833" lon="1.30218">
        <ele>285</ele>
        <time>2017-09-23T14:49:20Z</time>
      </trkpt>
      <trkpt lat="44.50827" lon="1.30213">
        <ele>285</ele>
        <time>2017-09-23T14:49:26Z</time>
      </trkpt>
      <trkpt lat="44.50824" lon="1.30211">
        <ele>285</ele>
        <time>2017-09-23T14:49:29Z</time>
      </trkpt>
      <trkpt lat="44.5082" lon="1.3021">
        <ele>285</ele>
        <time>2017-09-23T14:49:33Z</time>
      </trkpt>
      <trkpt lat="44.50815" lon="1.30204">
        <ele>285</ele>
        <time>2017-09-23T14:49:39Z</time>
      </trkpt>
      <trkpt lat="44.50812" lon="1.30203">
        <ele>285</ele>
        <time>2017-09-23T14:49:42Z</time>
      </trkpt>
      <trkpt lat="44.50809" lon="1.30201">
        <ele>285</ele>
        <time>2017-09-23T14:49:45Z</time>
      </trkpt>
      <trkpt lat="44.50806" lon="1.30198">
        <ele>285</ele>
        <time>2017-09-23T14:49:49Z</time>
      </trkpt>
      <trkpt lat="44.50803" lon="1.30196">
        <ele>285</ele>
        <time>2017-09-23T14:49:52Z</time>
      </trkpt>
      <trkpt lat="44.508" lon="1.30195">
        <ele>285</ele>
        <time>2017-09-23T14:49:55Z</time>
      </trkpt>
      <trkpt lat="44.50795" lon="1.30191">
        <ele>285</ele>
        <time>2017-09-23T14:50:00Z</time>
      </trkpt>
      <trkpt lat="44.50791" lon="1.30188">
        <ele>285</ele>
        <time>2017-09-23T14:50:03Z</time>
      </trkpt>
      <trkpt lat="44.50788" lon="1.30186">
        <ele>285</ele>
        <time>2017-09-23T14:50:07Z</time>
      </trkpt>
      <trkpt lat="44.50784" lon="1.3018">
        <ele>285</ele>
        <time>2017-09-23T14:50:12Z</time>
      </trkpt>
      <trkpt lat="44.50782" lon="1.30176">
        <ele>285</ele>
        <time>2017-09-23T14:50:15Z</time>
      </trkpt>
      <trkpt lat="44.50781" lon="1.30171">
        <ele>285</ele>
        <time>2017-09-23T14:50:18Z</time>
      </trkpt>
      <trkpt lat="44.50779" lon="1.30167">
        <ele>286</ele>
        <time>2017-09-23T14:50:21Z</time>
      </trkpt>
      <trkpt lat="44.50774" lon="1.30157">
        <ele>287</ele>
        <time>2017-09-23T14:50:29Z</time>
      </trkpt>
      <trkpt lat="44.50769" lon="1.30149">
        <ele>287</ele>
        <time>2017-09-23T14:50:36Z</time>
      </trkpt>
      <trkpt lat="44.50767" lon="1.30146">
        <ele>287</ele>
        <time>2017-09-23T14:50:38Z</time>
      </trkpt>
      <trkpt lat="44.5076" lon="1.30133">
        <ele>287</ele>
        <time>2017-09-23T14:50:47Z</time>
      </trkpt>
      <trkpt lat="44.50758" lon="1.30129">
        <ele>287</ele>
        <time>2017-09-23T14:50:50Z</time>
      </trkpt>
      <trkpt lat="44.50755" lon="1.30125">
        <ele>287</ele>
        <time>2017-09-23T14:50:53Z</time>
      </trkpt>
      <trkpt lat="44.50753" lon="1.30119">
        <ele>287</ele>
        <time>2017-09-23T14:51:01Z</time>
      </trkpt>
      <trkpt lat="44.50744" lon="1.30103">
        <ele>287</ele>
        <time>2017-09-23T14:51:16Z</time>
      </trkpt>
      <trkpt lat="44.50742" lon="1.301">
        <ele>288</ele>
        <time>2017-09-23T14:51:19Z</time>
      </trkpt>
      <trkpt lat="44.50739" lon="1.30097">
        <ele>288</ele>
        <time>2017-09-23T14:51:23Z</time>
      </trkpt>
      <trkpt lat="44.50736" lon="1.30095">
        <ele>288</ele>
        <time>2017-09-23T14:51:27Z</time>
      </trkpt>
      <trkpt lat="44.50727" lon="1.30083">
        <ele>289</ele>
        <time>2017-09-23T14:51:37Z</time>
      </trkpt>
      <trkpt lat="44.50721" lon="1.30076">
        <ele>289</ele>
        <time>2017-09-23T14:51:44Z</time>
      </trkpt>
      <trkpt lat="44.50705" lon="1.30058">
        <ele>289</ele>
        <time>2017-09-23T14:52:01Z</time>
      </trkpt>
      <trkpt lat="44.50703" lon="1.30055">
        <ele>289</ele>
        <time>2017-09-23T14:52:04Z</time>
      </trkpt>
      <trkpt lat="44.50696" lon="1.30048">
        <ele>289</ele>
        <time>2017-09-23T14:52:10Z</time>
      </trkpt>
      <trkpt lat="44.50693" lon="1.30045">
        <ele>289</ele>
        <time>2017-09-23T14:52:13Z</time>
      </trkpt>
      <trkpt lat="44.5069" lon="1.30042">
        <ele>289</ele>
        <time>2017-09-23T14:52:15Z</time>
      </trkpt>
      <trkpt lat="44.50688" lon="1.30037">
        <ele>289</ele>
        <time>2017-09-23T14:52:18Z</time>
      </trkpt>
      <trkpt lat="44.50686" lon="1.30033">
        <ele>289</ele>
        <time>2017-09-23T14:52:21Z</time>
      </trkpt>
      <trkpt lat="44.50683" lon="1.30028">
        <ele>290</ele>
        <time>2017-09-23T14:52:24Z</time>
      </trkpt>
      <trkpt lat="44.5068" lon="1.30024">
        <ele>290</ele>
        <time>2017-09-23T14:52:27Z</time>
      </trkpt>
      <trkpt lat="44.50667" lon="1.30006">
        <ele>291</ele>
        <time>2017-09-23T14:52:41Z</time>
      </trkpt>
      <trkpt lat="44.50665" lon="1.30003">
        <ele>291</ele>
        <time>2017-09-23T14:52:43Z</time>
      </trkpt>
      <trkpt lat="44.50661" lon="1.29999">
        <ele>291</ele>
        <time>2017-09-23T14:52:48Z</time>
      </trkpt>
      <trkpt lat="44.50658" lon="1.29994">
        <ele>291</ele>
        <time>2017-09-23T14:52:52Z</time>
      </trkpt>
      <trkpt lat="44.50656" lon="1.29991">
        <ele>291</ele>
        <time>2017-09-23T14:52:55Z</time>
      </trkpt>
      <trkpt lat="44.50652" lon="1.29987">
        <ele>290</ele>
        <time>2017-09-23T14:53:00Z</time>
      </trkpt>
      <trkpt lat="44.50647" lon="1.29979">
        <ele>290</ele>
        <time>2017-09-23T14:53:06Z</time>
      </trkpt>
      <trkpt lat="44.50644" lon="1.29975">
        <ele>290</ele>
        <time>2017-09-23T14:53:09Z</time>
      </trkpt>
      <trkpt lat="44.50637" lon="1.29963">
        <ele>289</ele>
        <time>2017-09-23T14:53:18Z</time>
      </trkpt>
      <trkpt lat="44.50623" lon="1.29935">
        <ele>289</ele>
        <time>2017-09-23T14:53:34Z</time>
      </trkpt>
      <trkpt lat="44.50622" lon="1.29933">
        <ele>289</ele>
        <time>2017-09-23T14:53:36Z</time>
      </trkpt>
      <trkpt lat="44.50616" lon="1.29911">
        <ele>286</ele>
        <time>2017-09-23T14:53:52Z</time>
      </trkpt>
      <trkpt lat="44.50613" lon="1.29907">
        <ele>286</ele>
        <time>2017-09-23T14:53:55Z</time>
      </trkpt>
      <trkpt lat="44.50612" lon="1.29902">
        <ele>285</ele>
        <time>2017-09-23T14:53:58Z</time>
      </trkpt>
      <trkpt lat="44.50605" lon="1.29883">
        <ele>285</ele>
        <time>2017-09-23T14:54:17Z</time>
      </trkpt>
      <trkpt lat="44.50601" lon="1.29879">
        <ele>285</ele>
        <time>2017-09-23T14:54:22Z</time>
      </trkpt>
      <trkpt lat="44.506" lon="1.29877">
        <ele>284</ele>
        <time>2017-09-23T14:54:24Z</time>
      </trkpt>
      <trkpt lat="44.50598" lon="1.29873">
        <ele>284</ele>
        <time>2017-09-23T14:54:27Z</time>
      </trkpt>
      <trkpt lat="44.50591" lon="1.29863">
        <ele>284</ele>
        <time>2017-09-23T14:54:37Z</time>
      </trkpt>
      <trkpt lat="44.50584" lon="1.29853">
        <ele>283</ele>
        <time>2017-09-23T14:54:43Z</time>
      </trkpt>
      <trkpt lat="44.50583" lon="1.29841">
        <ele>279</ele>
        <time>2017-09-23T14:54:48Z</time>
      </trkpt>
      <trkpt lat="44.50581" lon="1.29836">
        <ele>279</ele>
        <time>2017-09-23T14:54:51Z</time>
      </trkpt>
      <trkpt lat="44.5058" lon="1.29831">
        <ele>278</ele>
        <time>2017-09-23T14:54:55Z</time>
      </trkpt>
      <trkpt lat="44.50579" lon="1.29826">
        <ele>277</ele>
        <time>2017-09-23T14:54:58Z</time>
      </trkpt>
      <trkpt lat="44.50573" lon="1.29812">
        <ele>274</ele>
        <time>2017-09-23T14:55:08Z</time>
      </trkpt>
      <trkpt lat="44.50567" lon="1.29803">
        <ele>272</ele>
        <time>2017-09-23T14:55:15Z</time>
      </trkpt>
      <trkpt lat="44.50561" lon="1.29789">
        <ele>271</ele>
        <time>2017-09-23T14:55:24Z</time>
      </trkpt>
      <trkpt lat="44.50559" lon="1.29785">
        <ele>271</ele>
        <time>2017-09-23T14:55:27Z</time>
      </trkpt>
      <trkpt lat="44.50539" lon="1.29753">
        <ele>269</ele>
        <time>2017-09-23T14:55:48Z</time>
      </trkpt>
      <trkpt lat="44.50538" lon="1.2975">
        <ele>267</ele>
        <time>2017-09-23T14:55:50Z</time>
      </trkpt>
      <trkpt lat="44.50537" lon="1.29742">
        <ele>267</ele>
        <time>2017-09-23T14:55:54Z</time>
      </trkpt>
      <trkpt lat="44.50532" lon="1.29727">
        <ele>267</ele>
        <time>2017-09-23T14:56:05Z</time>
      </trkpt>
      <trkpt lat="44.5053" lon="1.29724">
        <ele>267</ele>
        <time>2017-09-23T14:56:07Z</time>
      </trkpt>
      <trkpt lat="44.50529" lon="1.2972">
        <ele>267</ele>
        <time>2017-09-23T14:56:10Z</time>
      </trkpt>
      <trkpt lat="44.50528" lon="1.29714">
        <ele>267</ele>
        <time>2017-09-23T14:56:13Z</time>
      </trkpt>
      <trkpt lat="44.50526" lon="1.29711">
        <ele>267</ele>
        <time>2017-09-23T14:56:17Z</time>
      </trkpt>
      <trkpt lat="44.50513" lon="1.29698">
        <ele>267</ele>
        <time>2017-09-23T14:56:28Z</time>
      </trkpt>
      <trkpt lat="44.5051" lon="1.29696">
        <ele>267</ele>
        <time>2017-09-23T14:56:30Z</time>
      </trkpt>
      <trkpt lat="44.50505" lon="1.29695">
        <ele>267</ele>
        <time>2017-09-23T14:56:35Z</time>
      </trkpt>
      <trkpt lat="44.50498" lon="1.29694">
        <ele>268</ele>
        <time>2017-09-23T14:56:41Z</time>
      </trkpt>
      <trkpt lat="44.50491" lon="1.29694">
        <ele>268</ele>
        <time>2017-09-23T14:56:47Z</time>
      </trkpt>
      <trkpt lat="44.50479" lon="1.29694">
        <ele>268</ele>
        <time>2017-09-23T14:56:56Z</time>
      </trkpt>
      <trkpt lat="44.50473" lon="1.29694">
        <ele>269</ele>
        <time>2017-09-23T14:57:01Z</time>
      </trkpt>
      <trkpt lat="44.50459" lon="1.29692">
        <ele>269</ele>
        <time>2017-09-23T14:57:12Z</time>
      </trkpt>
      <trkpt lat="44.50455" lon="1.29692">
        <ele>269</ele>
        <time>2017-09-23T14:57:15Z</time>
      </trkpt>
      <trkpt lat="44.50452" lon="1.29691">
        <ele>269</ele>
        <time>2017-09-23T14:57:18Z</time>
      </trkpt>
      <trkpt lat="44.50449" lon="1.2969">
        <ele>269</ele>
        <time>2017-09-23T14:57:21Z</time>
      </trkpt>
      <trkpt lat="44.50445" lon="1.2969">
        <ele>269</ele>
        <time>2017-09-23T14:57:24Z</time>
      </trkpt>
      <trkpt lat="44.50427" lon="1.29691">
        <ele>270</ele>
        <time>2017-09-23T14:57:38Z</time>
      </trkpt>
      <trkpt lat="44.50424" lon="1.2969">
        <ele>270</ele>
        <time>2017-09-23T14:57:40Z</time>
      </trkpt>
      <trkpt lat="44.50421" lon="1.29688">
        <ele>270</ele>
        <time>2017-09-23T14:57:43Z</time>
      </trkpt>
      <trkpt lat="44.50418" lon="1.29684">
        <ele>271</ele>
        <time>2017-09-23T14:57:46Z</time>
      </trkpt>
      <trkpt lat="44.50418" lon="1.2968">
        <ele>271</ele>
        <time>2017-09-23T14:57:48Z</time>
      </trkpt>
      <trkpt lat="44.50419" lon="1.29658">
        <ele>272</ele>
        <time>2017-09-23T14:58:01Z</time>
      </trkpt>
      <trkpt lat="44.5042" lon="1.29654">
        <ele>271</ele>
        <time>2017-09-23T14:58:04Z</time>
      </trkpt>
      <trkpt lat="44.5042" lon="1.2965">
        <ele>271</ele>
        <time>2017-09-23T14:58:06Z</time>
      </trkpt>
      <trkpt lat="44.50421" lon="1.29646">
        <ele>271</ele>
        <time>2017-09-23T14:58:09Z</time>
      </trkpt>
      <trkpt lat="44.50419" lon="1.29643">
        <ele>271</ele>
        <time>2017-09-23T14:58:12Z</time>
      </trkpt>
      <trkpt lat="44.50417" lon="1.2964">
        <ele>270</ele>
        <time>2017-09-23T14:58:14Z</time>
      </trkpt>
      <trkpt lat="44.50414" lon="1.29639">
        <ele>271</ele>
        <time>2017-09-23T14:58:16Z</time>
      </trkpt>
      <trkpt lat="44.50405" lon="1.2964">
        <ele>271</ele>
        <time>2017-09-23T14:58:24Z</time>
      </trkpt>
      <trkpt lat="44.50368" lon="1.29658">
        <ele>270</ele>
        <time>2017-09-23T14:58:54Z</time>
      </trkpt>
      <trkpt lat="44.50356" lon="1.29661">
        <ele>270</ele>
        <time>2017-09-23T14:59:04Z</time>
      </trkpt>
      <trkpt lat="44.50352" lon="1.29663">
        <ele>271</ele>
        <time>2017-09-23T14:59:07Z</time>
      </trkpt>
      <trkpt lat="44.50349" lon="1.29664">
        <ele>271</ele>
        <time>2017-09-23T14:59:11Z</time>
      </trkpt>
      <trkpt lat="44.50318" lon="1.29674">
        <ele>269</ele>
        <time>2017-09-23T14:59:33Z</time>
      </trkpt>
      <trkpt lat="44.50311" lon="1.29675">
        <ele>269</ele>
        <time>2017-09-23T14:59:39Z</time>
      </trkpt>
      <trkpt lat="44.50296" lon="1.29679">
        <ele>268</ele>
        <time>2017-09-23T14:59:51Z</time>
      </trkpt>
      <trkpt lat="44.50292" lon="1.29679">
        <ele>268</ele>
        <time>2017-09-23T14:59:54Z</time>
      </trkpt>
      <trkpt lat="44.50284" lon="1.29679">
        <ele>268</ele>
        <time>2017-09-23T15:00:00Z</time>
      </trkpt>
      <trkpt lat="44.50247" lon="1.29684">
        <ele>268</ele>
        <time>2017-09-23T15:00:30Z</time>
      </trkpt>
      <trkpt lat="44.50211" lon="1.29686">
        <ele>266</ele>
        <time>2017-09-23T15:01:01Z</time>
      </trkpt>
      <trkpt lat="44.50202" lon="1.29691">
        <ele>266</ele>
        <time>2017-09-23T15:01:07Z</time>
      </trkpt>
      <trkpt lat="44.50199" lon="1.29693">
        <ele>266</ele>
        <time>2017-09-23T15:01:09Z</time>
      </trkpt>
      <trkpt lat="44.50177" lon="1.29706">
        <ele>266</ele>
        <time>2017-09-23T15:01:28Z</time>
      </trkpt>
      <trkpt lat="44.50172" lon="1.29709">
        <ele>266</ele>
        <time>2017-09-23T15:01:33Z</time>
      </trkpt>
      <trkpt lat="44.50162" lon="1.29713">
        <ele>265</ele>
        <time>2017-09-23T15:01:42Z</time>
      </trkpt>
      <trkpt lat="44.50125" lon="1.29709">
        <ele>265</ele>
        <time>2017-09-23T15:02:12Z</time>
      </trkpt>
      <trkpt lat="44.50122" lon="1.29706">
        <ele>265</ele>
        <time>2017-09-23T15:02:14Z</time>
      </trkpt>
      <trkpt lat="44.5012" lon="1.29704">
        <ele>265</ele>
        <time>2017-09-23T15:02:16Z</time>
      </trkpt>
      <trkpt lat="44.50112" lon="1.29698">
        <ele>265</ele>
        <time>2017-09-23T15:02:22Z</time>
      </trkpt>
      <trkpt lat="44.50109" lon="1.29693">
        <ele>265</ele>
        <time>2017-09-23T15:02:26Z</time>
      </trkpt>
      <trkpt lat="44.50107" lon="1.29691">
        <ele>264</ele>
        <time>2017-09-23T15:02:28Z</time>
      </trkpt>
      <trkpt lat="44.50104" lon="1.29687">
        <ele>264</ele>
        <time>2017-09-23T15:02:31Z</time>
      </trkpt>
      <trkpt lat="44.50103" lon="1.29684">
        <ele>264</ele>
        <time>2017-09-23T15:02:34Z</time>
      </trkpt>
      <trkpt lat="44.50102" lon="1.29681">
        <ele>264</ele>
        <time>2017-09-23T15:02:37Z</time>
      </trkpt>
      <trkpt lat="44.501" lon="1.29677">
        <ele>264</ele>
        <time>2017-09-23T15:02:41Z</time>
      </trkpt>
      <trkpt lat="44.50095" lon="1.29672">
        <ele>264</ele>
        <time>2017-09-23T15:02:46Z</time>
      </trkpt>
      <trkpt lat="44.50093" lon="1.29669">
        <ele>264</ele>
        <time>2017-09-23T15:02:49Z</time>
      </trkpt>
      <trkpt lat="44.50091" lon="1.29666">
        <ele>262</ele>
        <time>2017-09-23T15:02:52Z</time>
      </trkpt>
      <trkpt lat="44.50089" lon="1.29662">
        <ele>262</ele>
        <time>2017-09-23T15:02:54Z</time>
      </trkpt>
      <trkpt lat="44.50082" lon="1.2965">
        <ele>260</ele>
        <time>2017-09-23T15:03:03Z</time>
      </trkpt>
      <trkpt lat="44.50081" lon="1.29647">
        <ele>260</ele>
        <time>2017-09-23T15:03:05Z</time>
      </trkpt>
      <trkpt lat="44.50079" lon="1.29645">
        <ele>259</ele>
        <time>2017-09-23T15:03:07Z</time>
      </trkpt>
      <trkpt lat="44.50077" lon="1.29643">
        <ele>259</ele>
        <time>2017-09-23T15:03:09Z</time>
      </trkpt>
      <trkpt lat="44.50075" lon="1.29636">
        <ele>259</ele>
        <time>2017-09-23T15:03:13Z</time>
      </trkpt>
      <trkpt lat="44.50073" lon="1.29634">
        <ele>258</ele>
        <time>2017-09-23T15:03:15Z</time>
      </trkpt>
      <trkpt lat="44.50046" lon="1.29588">
        <ele>257</ele>
        <time>2017-09-23T15:03:46Z</time>
      </trkpt>
      <trkpt lat="44.50033" lon="1.29534">
        <ele>256</ele>
        <time>2017-09-23T15:04:17Z</time>
      </trkpt>
      <trkpt lat="44.50027" lon="1.29481">
        <ele>256</ele>
        <time>2017-09-23T15:04:48Z</time>
      </trkpt>
      <trkpt lat="44.50025" lon="1.2945">
        <ele>256</ele>
        <time>2017-09-23T15:05:06Z</time>
      </trkpt>
      <trkpt lat="44.50026" lon="1.29445">
        <ele>256</ele>
        <time>2017-09-23T15:05:09Z</time>
      </trkpt>
      <trkpt lat="44.50025" lon="1.29436">
        <ele>256</ele>
        <time>2017-09-23T15:05:13Z</time>
      </trkpt>
      <trkpt lat="44.50024" lon="1.29416">
        <ele>258</ele>
        <time>2017-09-23T15:05:23Z</time>
      </trkpt>
      <trkpt lat="44.50023" lon="1.29413">
        <ele>258</ele>
        <time>2017-09-23T15:05:25Z</time>
      </trkpt>
      <trkpt lat="44.50024" lon="1.29401">
        <ele>259</ele>
        <time>2017-09-23T15:05:32Z</time>
      </trkpt>
      <trkpt lat="44.50021" lon="1.2938">
        <ele>260</ele>
        <time>2017-09-23T15:05:44Z</time>
      </trkpt>
      <trkpt lat="44.50016" lon="1.29366">
        <ele>261</ele>
        <time>2017-09-23T15:05:52Z</time>
      </trkpt>
      <trkpt lat="44.50014" lon="1.29364">
        <ele>261</ele>
        <time>2017-09-23T15:05:54Z</time>
      </trkpt>
      <trkpt lat="44.50009" lon="1.29352">
        <ele>262</ele>
        <time>2017-09-23T15:06:02Z</time>
      </trkpt>
      <trkpt lat="44.50007" lon="1.29349">
        <ele>262</ele>
        <time>2017-09-23T15:06:04Z</time>
      </trkpt>
      <trkpt lat="44.50003" lon="1.29338">
        <ele>263</ele>
        <time>2017-09-23T15:06:11Z</time>
      </trkpt>
      <trkpt lat="44.50002" lon="1.29334">
        <ele>263</ele>
        <time>2017-09-23T15:06:13Z</time>
      </trkpt>
      <trkpt lat="44.49998" lon="1.29325">
        <ele>263</ele>
        <time>2017-09-23T15:06:20Z</time>
      </trkpt>
      <trkpt lat="44.49992" lon="1.29308">
        <ele>263</ele>
        <time>2017-09-23T15:06:32Z</time>
      </trkpt>
      <trkpt lat="44.49991" lon="1.29304">
        <ele>263</ele>
        <time>2017-09-23T15:06:35Z</time>
      </trkpt>
      <trkpt lat="44.49989" lon="1.29297">
        <ele>264</ele>
        <time>2017-09-23T15:06:39Z</time>
      </trkpt>
      <trkpt lat="44.49989" lon="1.29293">
        <ele>264</ele>
        <time>2017-09-23T15:06:42Z</time>
      </trkpt>
      <trkpt lat="44.4999" lon="1.29285">
        <ele>264</ele>
        <time>2017-09-23T15:06:47Z</time>
      </trkpt>
      <trkpt lat="44.4999" lon="1.29262">
        <ele>266</ele>
        <time>2017-09-23T15:06:59Z</time>
      </trkpt>
      <trkpt lat="44.4999" lon="1.29248">
        <ele>269</ele>
        <time>2017-09-23T15:07:06Z</time>
      </trkpt>
      <trkpt lat="44.49989" lon="1.29241">
        <ele>270</ele>
        <time>2017-09-23T15:07:10Z</time>
      </trkpt>
      <trkpt lat="44.49986" lon="1.29208">
        <ele>271</ele>
        <time>2017-09-23T15:07:27Z</time>
      </trkpt>
      <trkpt lat="44.49985" lon="1.29205">
        <ele>271</ele>
        <time>2017-09-23T15:07:29Z</time>
      </trkpt>
      <trkpt lat="44.49984" lon="1.292">
        <ele>271</ele>
        <time>2017-09-23T15:07:33Z</time>
      </trkpt>
      <trkpt lat="44.49985" lon="1.29196">
        <ele>272</ele>
        <time>2017-09-23T15:07:35Z</time>
      </trkpt>
      <trkpt lat="44.49974" lon="1.2914">
        <ele>274</ele>
        <time>2017-09-23T15:08:06Z</time>
      </trkpt>
      <trkpt lat="44.49969" lon="1.29117">
        <ele>274</ele>
        <time>2017-09-23T15:08:19Z</time>
      </trkpt>
      <trkpt lat="44.49969" lon="1.29113">
        <ele>274</ele>
        <time>2017-09-23T15:08:21Z</time>
      </trkpt>
      <trkpt lat="44.49969" lon="1.29105">
        <ele>274</ele>
        <time>2017-09-23T15:08:26Z</time>
      </trkpt>
      <trkpt lat="44.49966" lon="1.29051">
        <ele>273</ele>
        <time>2017-09-23T15:08:57Z</time>
      </trkpt>
      <trkpt lat="44.49965" lon="1.29047">
        <ele>273</ele>
        <time>2017-09-23T15:08:59Z</time>
      </trkpt>
      <trkpt lat="44.49964" lon="1.29043">
        <ele>273</ele>
        <time>2017-09-23T15:09:01Z</time>
      </trkpt>
      <trkpt lat="44.49963" lon="1.29039">
        <ele>273</ele>
        <time>2017-09-23T15:09:04Z</time>
      </trkpt>
      <trkpt lat="44.49963" lon="1.29035">
        <ele>272</ele>
        <time>2017-09-23T15:09:07Z</time>
      </trkpt>
      <trkpt lat="44.49958" lon="1.29013">
        <ele>272</ele>
        <time>2017-09-23T15:09:19Z</time>
      </trkpt>
      <trkpt lat="44.49951" lon="1.28977">
        <ele>273</ele>
        <time>2017-09-23T15:09:39Z</time>
      </trkpt>
      <trkpt lat="44.49949" lon="1.28973">
        <ele>273</ele>
        <time>2017-09-23T15:09:41Z</time>
      </trkpt>
      <trkpt lat="44.49945" lon="1.2894">
        <ele>274</ele>
        <time>2017-09-23T15:09:59Z</time>
      </trkpt>
      <trkpt lat="44.49946" lon="1.28936">
        <ele>274</ele>
        <time>2017-09-23T15:10:02Z</time>
      </trkpt>
      <trkpt lat="44.4994" lon="1.289">
        <ele>277</ele>
        <time>2017-09-23T15:10:24Z</time>
      </trkpt>
      <trkpt lat="44.49939" lon="1.28896">
        <ele>277</ele>
        <time>2017-09-23T15:10:27Z</time>
      </trkpt>
      <trkpt lat="44.49938" lon="1.28892">
        <ele>277</ele>
        <time>2017-09-23T15:10:30Z</time>
      </trkpt>
      <trkpt lat="44.49936" lon="1.28884">
        <ele>277</ele>
        <time>2017-09-23T15:10:35Z</time>
      </trkpt>
      <trkpt lat="44.49935" lon="1.2888">
        <ele>277</ele>
        <time>2017-09-23T15:10:37Z</time>
      </trkpt>
      <trkpt lat="44.49936" lon="1.28861">
        <ele>278</ele>
        <time>2017-09-23T15:10:58Z</time>
      </trkpt>
      <trkpt lat="44.49935" lon="1.28857">
        <ele>278</ele>
        <time>2017-09-23T15:11:00Z</time>
      </trkpt>
      <trkpt lat="44.49936" lon="1.28846">
        <ele>278</ele>
        <time>2017-09-23T15:11:06Z</time>
      </trkpt>
      <trkpt lat="44.49936" lon="1.28843">
        <ele>278</ele>
        <time>2017-09-23T15:11:09Z</time>
      </trkpt>
      <trkpt lat="44.49938" lon="1.28827">
        <ele>278</ele>
        <time>2017-09-23T15:11:18Z</time>
      </trkpt>
      <trkpt lat="44.49951" lon="1.28782">
        <ele>278</ele>
        <time>2017-09-23T15:11:42Z</time>
      </trkpt>
      <trkpt lat="44.49954" lon="1.28774">
        <ele>278</ele>
        <time>2017-09-23T15:11:47Z</time>
      </trkpt>
      <trkpt lat="44.49961" lon="1.28762">
        <ele>279</ele>
        <time>2017-09-23T15:11:56Z</time>
      </trkpt>
      <trkpt lat="44.49963" lon="1.28757">
        <ele>279</ele>
        <time>2017-09-23T15:11:59Z</time>
      </trkpt>
      <trkpt lat="44.49965" lon="1.28753">
        <ele>279</ele>
        <time>2017-09-23T15:12:01Z</time>
      </trkpt>
      <trkpt lat="44.49985" lon="1.28721">
        <ele>277</ele>
        <time>2017-09-23T15:12:21Z</time>
      </trkpt>
      <trkpt lat="44.49992" lon="1.28694">
        <ele>276</ele>
        <time>2017-09-23T15:12:35Z</time>
      </trkpt>
      <trkpt lat="44.49993" lon="1.28685">
        <ele>277</ele>
        <time>2017-09-23T15:12:40Z</time>
      </trkpt>
      <trkpt lat="44.49992" lon="1.28657">
        <ele>277</ele>
        <time>2017-09-23T15:12:53Z</time>
      </trkpt>
      <trkpt lat="44.4998" lon="1.28604">
        <ele>276</ele>
        <time>2017-09-23T15:13:19Z</time>
      </trkpt>
      <trkpt lat="44.49973" lon="1.28585">
        <ele>276</ele>
        <time>2017-09-23T15:13:29Z</time>
      </trkpt>
      <trkpt lat="44.4997" lon="1.28559">
        <ele>278</ele>
        <time>2017-09-23T15:13:42Z</time>
      </trkpt>
      <trkpt lat="44.49968" lon="1.28512">
        <ele>278</ele>
        <time>2017-09-23T15:14:06Z</time>
      </trkpt>
      <trkpt lat="44.49967" lon="1.28478">
        <ele>278</ele>
        <time>2017-09-23T15:14:24Z</time>
      </trkpt>
      <trkpt lat="44.49968" lon="1.28474">
        <ele>278</ele>
        <time>2017-09-23T15:14:27Z</time>
      </trkpt>
      <trkpt lat="44.49969" lon="1.2847">
        <ele>278</ele>
        <time>2017-09-23T15:14:29Z</time>
      </trkpt>
      <trkpt lat="44.49973" lon="1.28444">
        <ele>277</ele>
        <time>2017-09-23T15:14:43Z</time>
      </trkpt>
      <trkpt lat="44.49975" lon="1.28435">
        <ele>277</ele>
        <time>2017-09-23T15:14:48Z</time>
      </trkpt>
      <trkpt lat="44.49978" lon="1.28421">
        <ele>278</ele>
        <time>2017-09-23T15:14:56Z</time>
      </trkpt>
      <trkpt lat="44.49979" lon="1.28416">
        <ele>276</ele>
        <time>2017-09-23T15:14:59Z</time>
      </trkpt>
      <trkpt lat="44.4999" lon="1.28374">
        <ele>276</ele>
        <time>2017-09-23T15:15:19Z</time>
      </trkpt>
      <trkpt lat="44.49995" lon="1.2836">
        <ele>276</ele>
        <time>2017-09-23T15:15:28Z</time>
      </trkpt>
      <trkpt lat="44.49998" lon="1.28353">
        <ele>276</ele>
        <time>2017-09-23T15:15:33Z</time>
      </trkpt>
      <trkpt lat="44.50002" lon="1.28347">
        <ele>277</ele>
        <time>2017-09-23T15:15:38Z</time>
      </trkpt>
      <trkpt lat="44.50019" lon="1.28288">
        <ele>273</ele>
        <time>2017-09-23T15:16:13Z</time>
      </trkpt>
      <trkpt lat="44.50022" lon="1.28276">
        <ele>272</ele>
        <time>2017-09-23T15:16:17Z</time>
      </trkpt>
      <trkpt lat="44.50025" lon="1.28261">
        <ele>272</ele>
        <time>2017-09-23T15:16:25Z</time>
      </trkpt>
      <trkpt lat="44.50024" lon="1.28245">
        <ele>270</ele>
        <time>2017-09-23T15:16:34Z</time>
      </trkpt>
      <trkpt lat="44.50025" lon="1.28226">
        <ele>271</ele>
        <time>2017-09-23T15:16:43Z</time>
      </trkpt>
      <trkpt lat="44.50027" lon="1.28207">
        <ele>271</ele>
        <time>2017-09-23T15:16:54Z</time>
      </trkpt>
      <trkpt lat="44.50027" lon="1.28184">
        <ele>271</ele>
        <time>2017-09-23T15:17:05Z</time>
      </trkpt>
      <trkpt lat="44.50025" lon="1.28176">
        <ele>271</ele>
        <time>2017-09-23T15:17:12Z</time>
      </trkpt>
      <trkpt lat="44.50023" lon="1.28165">
        <ele>273</ele>
        <time>2017-09-23T15:17:18Z</time>
      </trkpt>
      <trkpt lat="44.50019" lon="1.28152">
        <ele>273</ele>
        <time>2017-09-23T15:17:31Z</time>
      </trkpt>
      <trkpt lat="44.50019" lon="1.28146">
        <ele>273</ele>
        <time>2017-09-23T15:17:35Z</time>
      </trkpt>
      <trkpt lat="44.50019" lon="1.28138">
        <ele>273</ele>
        <time>2017-09-23T15:17:40Z</time>
      </trkpt>
      <trkpt lat="44.5002" lon="1.2813">
        <ele>274</ele>
        <time>2017-09-23T15:17:43Z</time>
      </trkpt>
      <trkpt lat="44.50021" lon="1.28122">
        <ele>274</ele>
        <time>2017-09-23T15:17:48Z</time>
      </trkpt>
      <trkpt lat="44.50023" lon="1.28114">
        <ele>274</ele>
        <time>2017-09-23T15:17:53Z</time>
      </trkpt>
      <trkpt lat="44.50024" lon="1.28097">
        <ele>275</ele>
        <time>2017-09-23T15:18:02Z</time>
      </trkpt>
      <trkpt lat="44.50028" lon="1.2804">
        <ele>277</ele>
        <time>2017-09-23T15:18:32Z</time>
      </trkpt>
      <trkpt lat="44.50031" lon="1.28014">
        <ele>277</ele>
        <time>2017-09-23T15:18:46Z</time>
      </trkpt>
      <trkpt lat="44.50031" lon="1.28008">
        <ele>277</ele>
        <time>2017-09-23T15:18:49Z</time>
      </trkpt>
      <trkpt lat="44.5003" lon="1.28003">
        <ele>277</ele>
        <time>2017-09-23T15:18:51Z</time>
      </trkpt>
      <trkpt lat="44.50026" lon="1.27974">
        <ele>277</ele>
        <time>2017-09-23T15:19:05Z</time>
      </trkpt>
      <trkpt lat="44.50017" lon="1.2795">
        <ele>277</ele>
        <time>2017-09-23T15:19:20Z</time>
      </trkpt>
      <trkpt lat="44.50003" lon="1.27931">
        <ele>277</ele>
        <time>2017-09-23T15:19:34Z</time>
      </trkpt>
      <trkpt lat="44.49999" lon="1.27927">
        <ele>279</ele>
        <time>2017-09-23T15:19:38Z</time>
      </trkpt>
      <trkpt lat="44.4997" lon="1.27887">
        <ele>278</ele>
        <time>2017-09-23T15:20:07Z</time>
      </trkpt>
      <trkpt lat="44.49968" lon="1.27883">
        <ele>278</ele>
        <time>2017-09-23T15:20:10Z</time>
      </trkpt>
      <trkpt lat="44.49967" lon="1.27877">
        <ele>278</ele>
        <time>2017-09-23T15:20:14Z</time>
      </trkpt>
      <trkpt lat="44.49966" lon="1.27871">
        <ele>278</ele>
        <time>2017-09-23T15:20:17Z</time>
      </trkpt>
      <trkpt lat="44.49963" lon="1.27866">
        <ele>277</ele>
        <time>2017-09-23T15:20:20Z</time>
      </trkpt>
      <trkpt lat="44.49963" lon="1.27802">
        <ele>274</ele>
        <time>2017-09-23T15:20:51Z</time>
      </trkpt>
      <trkpt lat="44.49965" lon="1.27755">
        <ele>273</ele>
        <time>2017-09-23T15:21:15Z</time>
      </trkpt>
      <trkpt lat="44.49964" lon="1.27744">
        <ele>270</ele>
        <time>2017-09-23T15:21:21Z</time>
      </trkpt>
      <trkpt lat="44.49965" lon="1.27739">
        <ele>270</ele>
        <time>2017-09-23T15:21:25Z</time>
      </trkpt>
      <trkpt lat="44.49969" lon="1.27742">
        <ele>270</ele>
        <time>2017-09-23T15:21:28Z</time>
      </trkpt>
      <trkpt lat="44.49974" lon="1.27743">
        <ele>270</ele>
        <time>2017-09-23T15:21:32Z</time>
      </trkpt>
      <trkpt lat="44.49998" lon="1.27734">
        <ele>269</ele>
        <time>2017-09-23T15:21:48Z</time>
      </trkpt>
      <trkpt lat="44.50001" lon="1.27732">
        <ele>266</ele>
        <time>2017-09-23T15:21:51Z</time>
      </trkpt>
      <trkpt lat="44.50012" lon="1.27729">
        <ele>266</ele>
        <time>2017-09-23T15:22:00Z</time>
      </trkpt>
      <trkpt lat="44.50017" lon="1.27727">
        <ele>266</ele>
        <time>2017-09-23T15:22:05Z</time>
      </trkpt>
      <trkpt lat="44.50023" lon="1.27726">
        <ele>265</ele>
        <time>2017-09-23T15:22:13Z</time>
      </trkpt>
      <trkpt lat="44.50031" lon="1.27719">
        <ele>265</ele>
        <time>2017-09-23T15:22:26Z</time>
      </trkpt>
      <trkpt lat="44.50036" lon="1.27716">
        <ele>264</ele>
        <time>2017-09-23T15:22:30Z</time>
      </trkpt>
      <trkpt lat="44.50039" lon="1.27714">
        <ele>264</ele>
        <time>2017-09-23T15:22:33Z</time>
      </trkpt>
      <trkpt lat="44.50042" lon="1.2771">
        <ele>264</ele>
        <time>2017-09-23T15:22:37Z</time>
      </trkpt>
      <trkpt lat="44.50043" lon="1.27706">
        <ele>264</ele>
        <time>2017-09-23T15:22:40Z</time>
      </trkpt>
      <trkpt lat="44.50046" lon="1.27703">
        <ele>264</ele>
        <time>2017-09-23T15:22:43Z</time>
      </trkpt>
      <trkpt lat="44.50047" lon="1.277">
        <ele>263</ele>
        <time>2017-09-23T15:22:46Z</time>
      </trkpt>
      <trkpt lat="44.5005" lon="1.27697">
        <ele>263</ele>
        <time>2017-09-23T15:22:50Z</time>
      </trkpt>
      <trkpt lat="44.50065" lon="1.27689">
        <ele>262</ele>
        <time>2017-09-23T15:23:04Z</time>
      </trkpt>
      <trkpt lat="44.50082" lon="1.27677">
        <ele>260</ele>
        <time>2017-09-23T15:23:21Z</time>
      </trkpt>
      <trkpt lat="44.50093" lon="1.27661">
        <ele>257</ele>
        <time>2017-09-23T15:23:34Z</time>
      </trkpt>
      <trkpt lat="44.50097" lon="1.27656">
        <ele>257</ele>
        <time>2017-09-23T15:23:38Z</time>
      </trkpt>
      <trkpt lat="44.50103" lon="1.27644">
        <ele>256</ele>
        <time>2017-09-23T15:23:48Z</time>
      </trkpt>
      <trkpt lat="44.50106" lon="1.27638">
        <ele>256</ele>
        <time>2017-09-23T15:23:52Z</time>
      </trkpt>
      <trkpt lat="44.50112" lon="1.27626">
        <ele>256</ele>
        <time>2017-09-23T15:24:01Z</time>
      </trkpt>
      <trkpt lat="44.50115" lon="1.27618">
        <ele>255</ele>
        <time>2017-09-23T15:24:07Z</time>
      </trkpt>
      <trkpt lat="44.50117" lon="1.27609">
        <ele>255</ele>
        <time>2017-09-23T15:24:13Z</time>
      </trkpt>
      <trkpt lat="44.5012" lon="1.27602">
        <ele>255</ele>
        <time>2017-09-23T15:24:17Z</time>
      </trkpt>
      <trkpt lat="44.50123" lon="1.27595">
        <ele>254</ele>
        <time>2017-09-23T15:24:21Z</time>
      </trkpt>
      <trkpt lat="44.50128" lon="1.27573">
        <ele>250</ele>
        <time>2017-09-23T15:24:35Z</time>
      </trkpt>
      <trkpt lat="44.5013" lon="1.27548">
        <ele>250</ele>
        <time>2017-09-23T15:24:50Z</time>
      </trkpt>
      <trkpt lat="44.50131" lon="1.27542">
        <ele>249</ele>
        <time>2017-09-23T15:24:54Z</time>
      </trkpt>
      <trkpt lat="44.50133" lon="1.27536">
        <ele>249</ele>
        <time>2017-09-23T15:24:57Z</time>
      </trkpt>
      <trkpt lat="44.50137" lon="1.27525">
        <ele>249</ele>
        <time>2017-09-23T15:25:03Z</time>
      </trkpt>
      <trkpt lat="44.5014" lon="1.27514">
        <ele>248</ele>
        <time>2017-09-23T15:25:11Z</time>
      </trkpt>
      <trkpt lat="44.50142" lon="1.27508">
        <ele>248</ele>
        <time>2017-09-23T15:25:15Z</time>
      </trkpt>
      <trkpt lat="44.50142" lon="1.27502">
        <ele>248</ele>
        <time>2017-09-23T15:25:19Z</time>
      </trkpt>
      <trkpt lat="44.50146" lon="1.27491">
        <ele>246</ele>
        <time>2017-09-23T15:25:27Z</time>
      </trkpt>
      <trkpt lat="44.50148" lon="1.27486">
        <ele>246</ele>
        <time>2017-09-23T15:25:31Z</time>
      </trkpt>
      <trkpt lat="44.50152" lon="1.2747">
        <ele>245</ele>
        <time>2017-09-23T15:25:41Z</time>
      </trkpt>
      <trkpt lat="44.50155" lon="1.27462">
        <ele>245</ele>
        <time>2017-09-23T15:25:46Z</time>
      </trkpt>
      <trkpt lat="44.5017" lon="1.27438">
        <ele>244</ele>
        <time>2017-09-23T15:26:04Z</time>
      </trkpt>
      <trkpt lat="44.50177" lon="1.27426">
        <ele>243</ele>
        <time>2017-09-23T15:26:14Z</time>
      </trkpt>
      <trkpt lat="44.50182" lon="1.2742">
        <ele>244</ele>
        <time>2017-09-23T15:26:20Z</time>
      </trkpt>
      <trkpt lat="44.50186" lon="1.27415">
        <ele>241</ele>
        <time>2017-09-23T15:26:24Z</time>
      </trkpt>
      <trkpt lat="44.50189" lon="1.27408">
        <ele>241</ele>
        <time>2017-09-23T15:26:28Z</time>
      </trkpt>
      <trkpt lat="44.50191" lon="1.27403">
        <ele>241</ele>
        <time>2017-09-23T15:26:31Z</time>
      </trkpt>
      <trkpt lat="44.50194" lon="1.27398">
        <ele>241</ele>
        <time>2017-09-23T15:26:34Z</time>
      </trkpt>
      <trkpt lat="44.50203" lon="1.27389">
        <ele>240</ele>
        <time>2017-09-23T15:26:44Z</time>
      </trkpt>
      <trkpt lat="44.50204" lon="1.27385">
        <ele>240</ele>
        <time>2017-09-23T15:26:47Z</time>
      </trkpt>
      <trkpt lat="44.50219" lon="1.27369">
        <ele>240</ele>
        <time>2017-09-23T15:27:03Z</time>
      </trkpt>
      <trkpt lat="44.50221" lon="1.27365">
        <ele>239</ele>
        <time>2017-09-23T15:27:06Z</time>
      </trkpt>
      <trkpt lat="44.50228" lon="1.27351">
        <ele>239</ele>
        <time>2017-09-23T15:27:16Z</time>
      </trkpt>
      <trkpt lat="44.50239" lon="1.27332">
        <ele>236</ele>
        <time>2017-09-23T15:27:30Z</time>
      </trkpt>
      <trkpt lat="44.50247" lon="1.2732">
        <ele>236</ele>
        <time>2017-09-23T15:27:40Z</time>
      </trkpt>
      <trkpt lat="44.50274" lon="1.27289">
        <ele>232</ele>
        <time>2017-09-23T15:28:09Z</time>
      </trkpt>
      <trkpt lat="44.50279" lon="1.27285">
        <ele>232</ele>
        <time>2017-09-23T15:28:15Z</time>
      </trkpt>
      <trkpt lat="44.50284" lon="1.27281">
        <ele>232</ele>
        <time>2017-09-23T15:28:19Z</time>
      </trkpt>
      <trkpt lat="44.50295" lon="1.27274">
        <ele>231</ele>
        <time>2017-09-23T15:28:28Z</time>
      </trkpt>
      <trkpt lat="44.50301" lon="1.27268">
        <ele>230</ele>
        <time>2017-09-23T15:28:35Z</time>
      </trkpt>
      <trkpt lat="44.50306" lon="1.27263">
        <ele>230</ele>
        <time>2017-09-23T15:28:40Z</time>
      </trkpt>
      <trkpt lat="44.50316" lon="1.27257">
        <ele>228</ele>
        <time>2017-09-23T15:28:46Z</time>
      </trkpt>
      <trkpt lat="44.5032" lon="1.27253">
        <ele>228</ele>
        <time>2017-09-23T15:28:51Z</time>
      </trkpt>
      <trkpt lat="44.50325" lon="1.27248">
        <ele>225</ele>
        <time>2017-09-23T15:28:55Z</time>
      </trkpt>
      <trkpt lat="44.50329" lon="1.27243">
        <ele>225</ele>
        <time>2017-09-23T15:28:58Z</time>
      </trkpt>
      <trkpt lat="44.50331" lon="1.27236">
        <ele>226</ele>
        <time>2017-09-23T15:29:03Z</time>
      </trkpt>
      <trkpt lat="44.50333" lon="1.27231">
        <ele>225</ele>
        <time>2017-09-23T15:29:06Z</time>
      </trkpt>
      <trkpt lat="44.50336" lon="1.27225">
        <ele>225</ele>
        <time>2017-09-23T15:29:11Z</time>
      </trkpt>
      <trkpt lat="44.50334" lon="1.27218">
        <ele>225</ele>
        <time>2017-09-23T15:29:15Z</time>
      </trkpt>
      <trkpt lat="44.50336" lon="1.27206">
        <ele>225</ele>
        <time>2017-09-23T15:29:21Z</time>
      </trkpt>
      <trkpt lat="44.50338" lon="1.272">
        <ele>224</ele>
        <time>2017-09-23T15:29:25Z</time>
      </trkpt>
      <trkpt lat="44.50338" lon="1.27193">
        <ele>224</ele>
        <time>2017-09-23T15:29:29Z</time>
      </trkpt>
      <trkpt lat="44.50338" lon="1.27186">
        <ele>223</ele>
        <time>2017-09-23T15:29:33Z</time>
      </trkpt>
      <trkpt lat="44.50339" lon="1.2718">
        <ele>223</ele>
        <time>2017-09-23T15:29:37Z</time>
      </trkpt>
      <trkpt lat="44.5034" lon="1.27148">
        <ele>220</ele>
        <time>2017-09-23T15:29:57Z</time>
      </trkpt>
      <trkpt lat="44.50341" lon="1.27142">
        <ele>219</ele>
        <time>2017-09-23T15:30:00Z</time>
      </trkpt>
      <trkpt lat="44.50344" lon="1.27136">
        <ele>219</ele>
        <time>2017-09-23T15:30:05Z</time>
      </trkpt>
      <trkpt lat="44.50346" lon="1.27128">
        <ele>219</ele>
        <time>2017-09-23T15:30:09Z</time>
      </trkpt>
      <trkpt lat="44.5035" lon="1.2711">
        <ele>219</ele>
        <time>2017-09-23T15:30:22Z</time>
      </trkpt>
      <trkpt lat="44.50356" lon="1.27099">
        <ele>218</ele>
        <time>2017-09-23T15:30:30Z</time>
      </trkpt>
      <trkpt lat="44.50357" lon="1.2709">
        <ele>218</ele>
        <time>2017-09-23T15:30:35Z</time>
      </trkpt>
      <trkpt lat="44.50364" lon="1.27079">
        <ele>215</ele>
        <time>2017-09-23T15:30:47Z</time>
      </trkpt>
      <trkpt lat="44.50369" lon="1.27075">
        <ele>215</ele>
        <time>2017-09-23T15:30:53Z</time>
      </trkpt>
      <trkpt lat="44.50374" lon="1.27075">
        <ele>214</ele>
        <time>2017-09-23T15:30:58Z</time>
      </trkpt>
      <trkpt lat="44.50402" lon="1.27074">
        <ele>212</ele>
        <time>2017-09-23T15:31:19Z</time>
      </trkpt>
      <trkpt lat="44.50407" lon="1.27071">
        <ele>212</ele>
        <time>2017-09-23T15:31:22Z</time>
      </trkpt>
      <trkpt lat="44.50422" lon="1.2705">
        <ele>211</ele>
        <time>2017-09-23T15:31:38Z</time>
      </trkpt>
      <trkpt lat="44.50422" lon="1.27045">
        <ele>211</ele>
        <time>2017-09-23T15:31:42Z</time>
      </trkpt>
      <trkpt lat="44.50427" lon="1.27037">
        <ele>211</ele>
        <time>2017-09-23T15:31:48Z</time>
      </trkpt>
      <trkpt lat="44.50446" lon="1.26987">
        <ele>205</ele>
        <time>2017-09-23T15:32:18Z</time>
      </trkpt>
      <trkpt lat="44.5046" lon="1.26958">
        <ele>205</ele>
        <time>2017-09-23T15:32:37Z</time>
      </trkpt>
      <trkpt lat="44.50463" lon="1.26954">
        <ele>205</ele>
        <time>2017-09-23T15:32:40Z</time>
      </trkpt>
      <trkpt lat="44.50465" lon="1.2695">
        <ele>205</ele>
        <time>2017-09-23T15:32:44Z</time>
      </trkpt>
      <trkpt lat="44.50479" lon="1.2692">
        <ele>202</ele>
        <time>2017-09-23T15:33:03Z</time>
      </trkpt>
      <trkpt lat="44.50481" lon="1.26915">
        <ele>201</ele>
        <time>2017-09-23T15:33:07Z</time>
      </trkpt>
      <trkpt lat="44.50494" lon="1.2688">
        <ele>201</ele>
        <time>2017-09-23T15:33:29Z</time>
      </trkpt>
      <trkpt lat="44.50502" lon="1.2687">
        <ele>194</ele>
        <time>2017-09-23T15:33:37Z</time>
      </trkpt>
      <trkpt lat="44.50505" lon="1.26866">
        <ele>194</ele>
        <time>2017-09-23T15:33:40Z</time>
      </trkpt>
      <trkpt lat="44.50508" lon="1.2686">
        <ele>194</ele>
        <time>2017-09-23T15:33:44Z</time>
      </trkpt>
      <trkpt lat="44.50512" lon="1.26858">
        <ele>194</ele>
        <time>2017-09-23T15:33:49Z</time>
      </trkpt>
      <trkpt lat="44.50517" lon="1.26845">
        <ele>193</ele>
        <time>2017-09-23T15:33:58Z</time>
      </trkpt>
      <trkpt lat="44.50526" lon="1.26825">
        <ele>191</ele>
        <time>2017-09-23T15:34:12Z</time>
      </trkpt>
      <trkpt lat="44.5053" lon="1.26819">
        <ele>191</ele>
        <time>2017-09-23T15:34:16Z</time>
      </trkpt>
      <trkpt lat="44.50536" lon="1.26812">
        <ele>191</ele>
        <time>2017-09-23T15:34:23Z</time>
      </trkpt>
      <trkpt lat="44.5054" lon="1.26803">
        <ele>191</ele>
        <time>2017-09-23T15:34:29Z</time>
      </trkpt>
      <trkpt lat="44.50547" lon="1.26793">
        <ele>191</ele>
        <time>2017-09-23T15:34:36Z</time>
      </trkpt>
      <trkpt lat="44.50571" lon="1.26768">
        <ele>188</ele>
        <time>2017-09-23T15:34:59Z</time>
      </trkpt>
      <trkpt lat="44.50574" lon="1.26766">
        <ele>187</ele>
        <time>2017-09-23T15:35:02Z</time>
      </trkpt>
      <trkpt lat="44.50578" lon="1.26764">
        <ele>186</ele>
        <time>2017-09-23T15:35:06Z</time>
      </trkpt>
      <trkpt lat="44.50583" lon="1.26763">
        <ele>186</ele>
        <time>2017-09-23T15:35:11Z</time>
      </trkpt>
      <trkpt lat="44.50586" lon="1.2676">
        <ele>183</ele>
        <time>2017-09-23T15:35:16Z</time>
      </trkpt>
      <trkpt lat="44.50622" lon="1.26749">
        <ele>183</ele>
        <time>2017-09-23T15:35:43Z</time>
      </trkpt>
      <trkpt lat="44.50633" lon="1.2675">
        <ele>182</ele>
        <time>2017-09-23T15:35:51Z</time>
      </trkpt>
      <trkpt lat="44.50678" lon="1.26758">
        <ele>180</ele>
        <time>2017-09-23T15:36:24Z</time>
      </trkpt>
      <trkpt lat="44.50683" lon="1.26757">
        <ele>181</ele>
        <time>2017-09-23T15:36:27Z</time>
      </trkpt>
      <trkpt lat="44.50716" lon="1.26742">
        <ele>177</ele>
        <time>2017-09-23T15:36:54Z</time>
      </trkpt>
      <trkpt lat="44.50721" lon="1.26736">
        <ele>177</ele>
        <time>2017-09-23T15:36:58Z</time>
      </trkpt>
      <trkpt lat="44.50725" lon="1.26731">
        <ele>177</ele>
        <time>2017-09-23T15:37:03Z</time>
      </trkpt>
      <trkpt lat="44.50728" lon="1.26727">
        <ele>176</ele>
        <time>2017-09-23T15:37:07Z</time>
      </trkpt>
      <trkpt lat="44.50732" lon="1.26722">
        <ele>176</ele>
        <time>2017-09-23T15:37:12Z</time>
      </trkpt>
      <trkpt lat="44.50737" lon="1.26715">
        <ele>176</ele>
        <time>2017-09-23T15:37:18Z</time>
      </trkpt>
      <trkpt lat="44.50756" lon="1.26668">
        <ele>169</ele>
        <time>2017-09-23T15:37:47Z</time>
      </trkpt>
      <trkpt lat="44.50758" lon="1.26663">
        <ele>167</ele>
        <time>2017-09-23T15:37:50Z</time>
      </trkpt>
      <trkpt lat="44.50766" lon="1.26644">
        <ele>170</ele>
        <time>2017-09-23T15:38:03Z</time>
      </trkpt>
      <trkpt lat="44.50768" lon="1.26639">
        <ele>170</ele>
        <time>2017-09-23T15:38:06Z</time>
      </trkpt>
      <trkpt lat="44.50767" lon="1.26633">
        <ele>170</ele>
        <time>2017-09-23T15:38:10Z</time>
      </trkpt>
      <trkpt lat="44.50769" lon="1.26622">
        <ele>170</ele>
        <time>2017-09-23T15:38:15Z</time>
      </trkpt>
      <trkpt lat="44.50771" lon="1.26618">
        <ele>170</ele>
        <time>2017-09-23T15:38:17Z</time>
      </trkpt>
      <trkpt lat="44.50772" lon="1.26614">
        <ele>170</ele>
        <time>2017-09-23T15:38:20Z</time>
      </trkpt>
      <trkpt lat="44.50773" lon="1.26608">
        <ele>170</ele>
        <time>2017-09-23T15:38:23Z</time>
      </trkpt>
      <trkpt lat="44.50774" lon="1.26603">
        <ele>169</ele>
        <time>2017-09-23T15:38:26Z</time>
      </trkpt>
      <trkpt lat="44.50776" lon="1.26599">
        <ele>169</ele>
        <time>2017-09-23T15:38:29Z</time>
      </trkpt>
      <trkpt lat="44.50778" lon="1.26569">
        <ele>166</ele>
        <time>2017-09-23T15:38:45Z</time>
      </trkpt>
      <trkpt lat="44.50777" lon="1.26558">
        <ele>166</ele>
        <time>2017-09-23T15:38:50Z</time>
      </trkpt>
      <trkpt lat="44.50777" lon="1.26552">
        <ele>166</ele>
        <time>2017-09-23T15:38:54Z</time>
      </trkpt>
      <trkpt lat="44.5078" lon="1.26545">
        <ele>166</ele>
        <time>2017-09-23T15:39:01Z</time>
      </trkpt>
      <trkpt lat="44.50786" lon="1.26531">
        <ele>166</ele>
        <time>2017-09-23T15:39:19Z</time>
      </trkpt>
      <trkpt lat="44.50799" lon="1.2651">
        <ele>165</ele>
        <time>2017-09-23T15:39:33Z</time>
      </trkpt>
      <trkpt lat="44.50802" lon="1.26507">
        <ele>165</ele>
        <time>2017-09-23T15:39:36Z</time>
      </trkpt>
      <trkpt lat="44.50806" lon="1.26503">
        <ele>164</ele>
        <time>2017-09-23T15:39:42Z</time>
      </trkpt>
      <trkpt lat="44.50807" lon="1.26498">
        <ele>166</ele>
        <time>2017-09-23T15:39:45Z</time>
      </trkpt>
      <trkpt lat="44.50812" lon="1.26489">
        <ele>165</ele>
        <time>2017-09-23T15:39:50Z</time>
      </trkpt>
      <trkpt lat="44.50823" lon="1.26473">
        <ele>165</ele>
        <time>2017-09-23T15:40:02Z</time>
      </trkpt>
      <trkpt lat="44.50826" lon="1.26469">
        <ele>166</ele>
        <time>2017-09-23T15:40:05Z</time>
      </trkpt>
      <trkpt lat="44.50829" lon="1.26466">
        <ele>166</ele>
        <time>2017-09-23T15:40:08Z</time>
      </trkpt>
      <trkpt lat="44.50835" lon="1.26459">
        <ele>159</ele>
        <time>2017-09-23T15:40:14Z</time>
      </trkpt>
      <trkpt lat="44.50846" lon="1.26444">
        <ele>159</ele>
        <time>2017-09-23T15:40:26Z</time>
      </trkpt>
      <trkpt lat="44.50849" lon="1.26441">
        <ele>158</ele>
        <time>2017-09-23T15:40:29Z</time>
      </trkpt>
      <trkpt lat="44.50859" lon="1.26429">
        <ele>158</ele>
        <time>2017-09-23T15:40:41Z</time>
      </trkpt>
      <trkpt lat="44.50864" lon="1.26425">
        <ele>158</ele>
        <time>2017-09-23T15:40:44Z</time>
      </trkpt>
      <trkpt lat="44.50868" lon="1.26421">
        <ele>158</ele>
        <time>2017-09-23T15:40:47Z</time>
      </trkpt>
      <trkpt lat="44.50873" lon="1.26417">
        <ele>157</ele>
        <time>2017-09-23T15:40:51Z</time>
      </trkpt>
      <trkpt lat="44.50876" lon="1.26413">
        <ele>160</ele>
        <time>2017-09-23T15:40:55Z</time>
      </trkpt>
      <trkpt lat="44.50911" lon="1.2639">
        <ele>158</ele>
        <time>2017-09-23T15:41:25Z</time>
      </trkpt>
      <trkpt lat="44.50922" lon="1.26387">
        <ele>152</ele>
        <time>2017-09-23T15:41:37Z</time>
      </trkpt>
      <trkpt lat="44.50932" lon="1.26382">
        <ele>152</ele>
        <time>2017-09-23T15:41:47Z</time>
      </trkpt>
      <trkpt lat="44.50942" lon="1.26378">
        <ele>152</ele>
        <time>2017-09-23T15:41:54Z</time>
      </trkpt>
      <trkpt lat="44.50958" lon="1.26376">
        <ele>151</ele>
        <time>2017-09-23T15:42:08Z</time>
      </trkpt>
      <trkpt lat="44.50964" lon="1.26375">
        <ele>150</ele>
        <time>2017-09-23T15:42:12Z</time>
      </trkpt>
      <trkpt lat="44.50971" lon="1.26377">
        <ele>150</ele>
        <time>2017-09-23T15:42:17Z</time>
      </trkpt>
      <trkpt lat="44.50976" lon="1.26382">
        <ele>150</ele>
        <time>2017-09-23T15:42:21Z</time>
      </trkpt>
      <trkpt lat="44.50982" lon="1.26385">
        <ele>149</ele>
        <time>2017-09-23T15:42:26Z</time>
      </trkpt>
      <trkpt lat="44.50988" lon="1.26383">
        <ele>149</ele>
        <time>2017-09-23T15:42:32Z</time>
      </trkpt>
      <trkpt lat="44.50993" lon="1.26379">
        <ele>149</ele>
        <time>2017-09-23T15:42:37Z</time>
      </trkpt>
      <trkpt lat="44.5102" lon="1.26372">
        <ele>142</ele>
        <time>2017-09-23T15:42:55Z</time>
      </trkpt>
      <trkpt lat="44.51025" lon="1.26373">
        <ele>142</ele>
        <time>2017-09-23T15:42:59Z</time>
      </trkpt>
      <trkpt lat="44.5103" lon="1.26372">
        <ele>142</ele>
        <time>2017-09-23T15:43:04Z</time>
      </trkpt>
      <trkpt lat="44.51033" lon="1.2637">
        <ele>142</ele>
        <time>2017-09-23T15:43:30Z</time>
      </trkpt>
      <trkpt lat="44.51035" lon="1.2637">
        <ele>142</ele>
        <time>2017-09-23T15:43:43Z</time>
      </trkpt>
      <trkpt lat="44.51036" lon="1.26366">
        <ele>142</ele>
        <time>2017-09-23T15:43:54Z</time>
      </trkpt>
      <trkpt lat="44.51037" lon="1.26362">
        <ele>142</ele>
        <time>2017-09-23T15:43:56Z</time>
      </trkpt>
      <trkpt lat="44.51045" lon="1.26351">
        <ele>141</ele>
        <time>2017-09-23T15:44:03Z</time>
      </trkpt>
      <trkpt lat="44.51046" lon="1.26348">
        <ele>141</ele>
        <time>2017-09-23T15:44:05Z</time>
      </trkpt>
      <trkpt lat="44.5105" lon="1.26345">
        <ele>141</ele>
        <time>2017-09-23T15:44:08Z</time>
      </trkpt>
      <trkpt lat="44.51077" lon="1.26339">
        <ele>138</ele>
        <time>2017-09-23T15:44:31Z</time>
      </trkpt>
      <trkpt lat="44.51081" lon="1.26337">
        <ele>138</ele>
        <time>2017-09-23T15:44:35Z</time>
      </trkpt>
      <trkpt lat="44.51085" lon="1.26331">
        <ele>137</ele>
        <time>2017-09-23T15:44:42Z</time>
      </trkpt>
      <trkpt lat="44.51087" lon="1.26329">
        <ele>137</ele>
        <time>2017-09-23T15:44:48Z</time>
      </trkpt>
      <trkpt lat="44.51088" lon="1.26331">
        <ele>137</ele>
        <time>2017-09-23T15:44:50Z</time>
      </trkpt>
    </trkseg>
  </trk>
</gpx>